<?xml version="1.0" encoding="UTF-8" standalone="no" ?>
<gpx xmlns="http://www.topografix.com/GPX/1/1" xmlns:xsi="http://www.w3.org/2001/XMLSchema-instance" xsi:schemaLocation="http://www.topografix.com/GPX/1/1 http://www.topografix.com/GPX/1/1/gpx.xsd" version="1.1" creator="VisuGPX - https://www.visugpx.com">
  <metadata>
    <name>Nomdieu 8.8 km</name>
  </metadata>
  <trk>
    <name><![CDATA[2025 11 05 Nomdieu 8]]></name>
    <extensions>
      <line xmlns="http://www.topografix.com/GPX/gpx_style/0/2">
        <color>0000FF</color>
        <width>4</width>
      </line>
    </extensions>
    <trkseg>
      <trkpt lat="44.09481" lon="0.4757">
        <ele>75</ele>
        <time>2025-11-05T13:14:24.446Z</time>
      </trkpt>
      <trkpt lat="44.09477" lon="0.47559">
        <ele>74</ele>
        <time>2025-11-05T13:14:25.446Z</time>
      </trkpt>
      <trkpt lat="44.09474" lon="0.47563">
        <ele>72</ele>
        <time>2025-11-05T13:14:26.446Z</time>
      </trkpt>
      <trkpt lat="44.09471" lon="0.47566">
        <ele>71</ele>
        <time>2025-11-05T13:14:27.446Z</time>
      </trkpt>
      <trkpt lat="44.09471" lon="0.47566">
        <ele>69</ele>
        <time>2025-11-05T13:14:28.446Z</time>
      </trkpt>
      <trkpt lat="44.09471" lon="0.47566">
        <ele>68</ele>
        <time>2025-11-05T13:14:29.446Z</time>
      </trkpt>
      <trkpt lat="44.09471" lon="0.47567">
        <ele>67</ele>
        <time>2025-11-05T13:14:30.446Z</time>
      </trkpt>
      <trkpt lat="44.09471" lon="0.47567">
        <ele>65</ele>
        <time>2025-11-05T13:14:31.446Z</time>
      </trkpt>
      <trkpt lat="44.09472" lon="0.47566">
        <ele>64</ele>
        <time>2025-11-05T13:14:32.446Z</time>
      </trkpt>
      <trkpt lat="44.09473" lon="0.47565">
        <ele>64</ele>
        <time>2025-11-05T13:14:33.446Z</time>
      </trkpt>
      <trkpt lat="44.09474" lon="0.47565">
        <ele>63</ele>
        <time>2025-11-05T13:14:34.446Z</time>
      </trkpt>
      <trkpt lat="44.09474" lon="0.47565">
        <ele>63</ele>
        <time>2025-11-05T13:14:35.446Z</time>
      </trkpt>
      <trkpt lat="44.09474" lon="0.47565">
        <ele>62</ele>
        <time>2025-11-05T13:14:36.446Z</time>
      </trkpt>
      <trkpt lat="44.09474" lon="0.47565">
        <ele>62</ele>
        <time>2025-11-05T13:14:37.446Z</time>
      </trkpt>
      <trkpt lat="44.09474" lon="0.47564">
        <ele>61</ele>
        <time>2025-11-05T13:14:38.446Z</time>
      </trkpt>
      <trkpt lat="44.09475" lon="0.47564">
        <ele>61</ele>
        <time>2025-11-05T13:14:39.446Z</time>
      </trkpt>
      <trkpt lat="44.09476" lon="0.47563">
        <ele>62</ele>
        <time>2025-11-05T13:14:40.446Z</time>
      </trkpt>
      <trkpt lat="44.09478" lon="0.47564">
        <ele>62</ele>
        <time>2025-11-05T13:14:41.446Z</time>
      </trkpt>
      <trkpt lat="44.0948" lon="0.47566">
        <ele>63</ele>
        <time>2025-11-05T13:14:42.446Z</time>
      </trkpt>
      <trkpt lat="44.09482" lon="0.47566">
        <ele>63</ele>
        <time>2025-11-05T13:14:43.446Z</time>
      </trkpt>
      <trkpt lat="44.09483" lon="0.47566">
        <ele>64</ele>
        <time>2025-11-05T13:14:44.446Z</time>
      </trkpt>
      <trkpt lat="44.09483" lon="0.47566">
        <ele>64</ele>
        <time>2025-11-05T13:14:45.446Z</time>
      </trkpt>
      <trkpt lat="44.09483" lon="0.47565">
        <ele>65</ele>
        <time>2025-11-05T13:14:46.446Z</time>
      </trkpt>
      <trkpt lat="44.09484" lon="0.47564">
        <ele>65</ele>
        <time>2025-11-05T13:14:47.446Z</time>
      </trkpt>
      <trkpt lat="44.09484" lon="0.47563">
        <ele>66</ele>
        <time>2025-11-05T13:14:48.446Z</time>
      </trkpt>
      <trkpt lat="44.09483" lon="0.47563">
        <ele>66</ele>
        <time>2025-11-05T13:14:49.446Z</time>
      </trkpt>
      <trkpt lat="44.09482" lon="0.47563">
        <ele>67</ele>
        <time>2025-11-05T13:14:50.446Z</time>
      </trkpt>
      <trkpt lat="44.09482" lon="0.47563">
        <ele>67</ele>
        <time>2025-11-05T13:14:51.446Z</time>
      </trkpt>
      <trkpt lat="44.09481" lon="0.47563">
        <ele>68</ele>
        <time>2025-11-05T13:14:52.446Z</time>
      </trkpt>
      <trkpt lat="44.0948" lon="0.47563">
        <ele>69</ele>
        <time>2025-11-05T13:14:53.446Z</time>
      </trkpt>
      <trkpt lat="44.0948" lon="0.47564">
        <ele>70</ele>
        <time>2025-11-05T13:14:54.446Z</time>
      </trkpt>
      <trkpt lat="44.09479" lon="0.47564">
        <ele>71</ele>
        <time>2025-11-05T13:14:55.446Z</time>
      </trkpt>
      <trkpt lat="44.09479" lon="0.47564">
        <ele>72</ele>
        <time>2025-11-05T13:14:56.446Z</time>
      </trkpt>
      <trkpt lat="44.09478" lon="0.47564">
        <ele>73</ele>
        <time>2025-11-05T13:14:57.446Z</time>
      </trkpt>
      <trkpt lat="44.09477" lon="0.47564">
        <ele>73</ele>
        <time>2025-11-05T13:14:58.446Z</time>
      </trkpt>
      <trkpt lat="44.09476" lon="0.47564">
        <ele>74</ele>
        <time>2025-11-05T13:14:59.446Z</time>
      </trkpt>
      <trkpt lat="44.09476" lon="0.47565">
        <ele>75</ele>
        <time>2025-11-05T13:15:00.446Z</time>
      </trkpt>
      <trkpt lat="44.09476" lon="0.47564">
        <ele>75</ele>
        <time>2025-11-05T13:15:01.447Z</time>
      </trkpt>
      <trkpt lat="44.09475" lon="0.47564">
        <ele>76</ele>
        <time>2025-11-05T13:15:02.446Z</time>
      </trkpt>
      <trkpt lat="44.09474" lon="0.47564">
        <ele>76</ele>
        <time>2025-11-05T13:15:03.446Z</time>
      </trkpt>
      <trkpt lat="44.09473" lon="0.47564">
        <ele>76</ele>
        <time>2025-11-05T13:15:04.446Z</time>
      </trkpt>
      <trkpt lat="44.09471" lon="0.47564">
        <ele>77</ele>
        <time>2025-11-05T13:15:05.446Z</time>
      </trkpt>
      <trkpt lat="44.0947" lon="0.47564">
        <ele>77</ele>
        <time>2025-11-05T13:15:06.446Z</time>
      </trkpt>
      <trkpt lat="44.09469" lon="0.47564">
        <ele>77</ele>
        <time>2025-11-05T13:15:07.446Z</time>
      </trkpt>
      <trkpt lat="44.09468" lon="0.47564">
        <ele>78</ele>
        <time>2025-11-05T13:15:08.446Z</time>
      </trkpt>
      <trkpt lat="44.09467" lon="0.47564">
        <ele>78</ele>
        <time>2025-11-05T13:15:09.446Z</time>
      </trkpt>
      <trkpt lat="44.09466" lon="0.47563">
        <ele>78</ele>
        <time>2025-11-05T13:15:10.446Z</time>
      </trkpt>
      <trkpt lat="44.09466" lon="0.47562">
        <ele>78</ele>
        <time>2025-11-05T13:15:11.446Z</time>
      </trkpt>
      <trkpt lat="44.09465" lon="0.47562">
        <ele>78</ele>
        <time>2025-11-05T13:15:12.446Z</time>
      </trkpt>
      <trkpt lat="44.09464" lon="0.47562">
        <ele>78</ele>
        <time>2025-11-05T13:15:13.446Z</time>
      </trkpt>
      <trkpt lat="44.09463" lon="0.4756">
        <ele>79</ele>
        <time>2025-11-05T13:15:14.446Z</time>
      </trkpt>
      <trkpt lat="44.09463" lon="0.47559">
        <ele>79</ele>
        <time>2025-11-05T13:15:15.446Z</time>
      </trkpt>
      <trkpt lat="44.09462" lon="0.47558">
        <ele>79</ele>
        <time>2025-11-05T13:15:16.446Z</time>
      </trkpt>
      <trkpt lat="44.09462" lon="0.47557">
        <ele>79</ele>
        <time>2025-11-05T13:15:17.446Z</time>
      </trkpt>
      <trkpt lat="44.09461" lon="0.47557">
        <ele>80</ele>
        <time>2025-11-05T13:15:18.446Z</time>
      </trkpt>
      <trkpt lat="44.09461" lon="0.47557">
        <ele>80</ele>
        <time>2025-11-05T13:15:19.446Z</time>
      </trkpt>
      <trkpt lat="44.09461" lon="0.47557">
        <ele>80</ele>
        <time>2025-11-05T13:15:20.446Z</time>
      </trkpt>
      <trkpt lat="44.09461" lon="0.47557">
        <ele>80</ele>
        <time>2025-11-05T13:15:21.446Z</time>
      </trkpt>
      <trkpt lat="44.09461" lon="0.47557">
        <ele>80</ele>
        <time>2025-11-05T13:15:22.446Z</time>
      </trkpt>
      <trkpt lat="44.0946" lon="0.47557">
        <ele>80</ele>
        <time>2025-11-05T13:15:23.446Z</time>
      </trkpt>
      <trkpt lat="44.0946" lon="0.47557">
        <ele>80</ele>
        <time>2025-11-05T13:15:24.446Z</time>
      </trkpt>
      <trkpt lat="44.0946" lon="0.47557">
        <ele>80</ele>
        <time>2025-11-05T13:15:25.447Z</time>
      </trkpt>
      <trkpt lat="44.0946" lon="0.47556">
        <ele>80</ele>
        <time>2025-11-05T13:15:26.446Z</time>
      </trkpt>
      <trkpt lat="44.0946" lon="0.47556">
        <ele>80</ele>
        <time>2025-11-05T13:15:27.446Z</time>
      </trkpt>
      <trkpt lat="44.09459" lon="0.47555">
        <ele>80</ele>
        <time>2025-11-05T13:15:28.446Z</time>
      </trkpt>
      <trkpt lat="44.09459" lon="0.47555">
        <ele>80</ele>
        <time>2025-11-05T13:15:29.446Z</time>
      </trkpt>
      <trkpt lat="44.09458" lon="0.47554">
        <ele>79</ele>
        <time>2025-11-05T13:15:30.446Z</time>
      </trkpt>
      <trkpt lat="44.09458" lon="0.47554">
        <ele>79</ele>
        <time>2025-11-05T13:15:31.446Z</time>
      </trkpt>
      <trkpt lat="44.09457" lon="0.47554">
        <ele>80</ele>
        <time>2025-11-05T13:15:32.446Z</time>
      </trkpt>
      <trkpt lat="44.09456" lon="0.47553">
        <ele>80</ele>
        <time>2025-11-05T13:15:33.446Z</time>
      </trkpt>
      <trkpt lat="44.09455" lon="0.47553">
        <ele>80</ele>
        <time>2025-11-05T13:15:34.446Z</time>
      </trkpt>
      <trkpt lat="44.09454" lon="0.47552">
        <ele>80</ele>
        <time>2025-11-05T13:15:35.446Z</time>
      </trkpt>
      <trkpt lat="44.09453" lon="0.47551">
        <ele>80</ele>
        <time>2025-11-05T13:15:36.446Z</time>
      </trkpt>
      <trkpt lat="44.09453" lon="0.47551">
        <ele>80</ele>
        <time>2025-11-05T13:15:37.446Z</time>
      </trkpt>
      <trkpt lat="44.09452" lon="0.47549">
        <ele>80</ele>
        <time>2025-11-05T13:15:38.446Z</time>
      </trkpt>
      <trkpt lat="44.09452" lon="0.47548">
        <ele>80</ele>
        <time>2025-11-05T13:15:39.446Z</time>
      </trkpt>
      <trkpt lat="44.09451" lon="0.47546">
        <ele>80</ele>
        <time>2025-11-05T13:15:40.446Z</time>
      </trkpt>
      <trkpt lat="44.09451" lon="0.47545">
        <ele>80</ele>
        <time>2025-11-05T13:15:41.446Z</time>
      </trkpt>
      <trkpt lat="44.09451" lon="0.47543">
        <ele>80</ele>
        <time>2025-11-05T13:15:42.446Z</time>
      </trkpt>
      <trkpt lat="44.09451" lon="0.47542">
        <ele>80</ele>
        <time>2025-11-05T13:15:43.446Z</time>
      </trkpt>
      <trkpt lat="44.09451" lon="0.47541">
        <ele>81</ele>
        <time>2025-11-05T13:15:44.446Z</time>
      </trkpt>
      <trkpt lat="44.09451" lon="0.4754">
        <ele>81</ele>
        <time>2025-11-05T13:15:45.446Z</time>
      </trkpt>
      <trkpt lat="44.09451" lon="0.4754">
        <ele>81</ele>
        <time>2025-11-05T13:15:46.446Z</time>
      </trkpt>
      <trkpt lat="44.09451" lon="0.47538">
        <ele>81</ele>
        <time>2025-11-05T13:15:47.446Z</time>
      </trkpt>
      <trkpt lat="44.0945" lon="0.47537">
        <ele>81</ele>
        <time>2025-11-05T13:15:48.446Z</time>
      </trkpt>
      <trkpt lat="44.0945" lon="0.47536">
        <ele>82</ele>
        <time>2025-11-05T13:15:49.446Z</time>
      </trkpt>
      <trkpt lat="44.09449" lon="0.47534">
        <ele>82</ele>
        <time>2025-11-05T13:15:50.446Z</time>
      </trkpt>
      <trkpt lat="44.09449" lon="0.47533">
        <ele>82</ele>
        <time>2025-11-05T13:15:51.446Z</time>
      </trkpt>
      <trkpt lat="44.09449" lon="0.47531">
        <ele>82</ele>
        <time>2025-11-05T13:15:52.446Z</time>
      </trkpt>
      <trkpt lat="44.09448" lon="0.4753">
        <ele>82</ele>
        <time>2025-11-05T13:15:53.446Z</time>
      </trkpt>
      <trkpt lat="44.09447" lon="0.47529">
        <ele>82</ele>
        <time>2025-11-05T13:15:54.446Z</time>
      </trkpt>
      <trkpt lat="44.09447" lon="0.47528">
        <ele>83</ele>
        <time>2025-11-05T13:15:55.446Z</time>
      </trkpt>
      <trkpt lat="44.09447" lon="0.47526">
        <ele>83</ele>
        <time>2025-11-05T13:15:56.446Z</time>
      </trkpt>
      <trkpt lat="44.09447" lon="0.47525">
        <ele>83</ele>
        <time>2025-11-05T13:15:57.446Z</time>
      </trkpt>
      <trkpt lat="44.09446" lon="0.47524">
        <ele>83</ele>
        <time>2025-11-05T13:15:58.446Z</time>
      </trkpt>
      <trkpt lat="44.09445" lon="0.47523">
        <ele>83</ele>
        <time>2025-11-05T13:15:59.446Z</time>
      </trkpt>
      <trkpt lat="44.09444" lon="0.47523">
        <ele>83</ele>
        <time>2025-11-05T13:16:00.446Z</time>
      </trkpt>
      <trkpt lat="44.09444" lon="0.47522">
        <ele>83</ele>
        <time>2025-11-05T13:16:01.446Z</time>
      </trkpt>
      <trkpt lat="44.09443" lon="0.47521">
        <ele>83</ele>
        <time>2025-11-05T13:16:02.446Z</time>
      </trkpt>
      <trkpt lat="44.09442" lon="0.4752">
        <ele>83</ele>
        <time>2025-11-05T13:16:03.446Z</time>
      </trkpt>
      <trkpt lat="44.09441" lon="0.47519">
        <ele>83</ele>
        <time>2025-11-05T13:16:04.446Z</time>
      </trkpt>
      <trkpt lat="44.0944" lon="0.47518">
        <ele>83</ele>
        <time>2025-11-05T13:16:05.446Z</time>
      </trkpt>
      <trkpt lat="44.0944" lon="0.47517">
        <ele>83</ele>
        <time>2025-11-05T13:16:06.446Z</time>
      </trkpt>
      <trkpt lat="44.0944" lon="0.47516">
        <ele>83</ele>
        <time>2025-11-05T13:16:07.446Z</time>
      </trkpt>
      <trkpt lat="44.09439" lon="0.47515">
        <ele>83</ele>
        <time>2025-11-05T13:16:08.446Z</time>
      </trkpt>
      <trkpt lat="44.0944" lon="0.47514">
        <ele>83</ele>
        <time>2025-11-05T13:16:09.446Z</time>
      </trkpt>
      <trkpt lat="44.0944" lon="0.47512">
        <ele>82</ele>
        <time>2025-11-05T13:16:10.446Z</time>
      </trkpt>
      <trkpt lat="44.0944" lon="0.4751">
        <ele>82</ele>
        <time>2025-11-05T13:16:11.446Z</time>
      </trkpt>
      <trkpt lat="44.0944" lon="0.47509">
        <ele>83</ele>
        <time>2025-11-05T13:16:12.446Z</time>
      </trkpt>
      <trkpt lat="44.09439" lon="0.47508">
        <ele>83</ele>
        <time>2025-11-05T13:16:13.446Z</time>
      </trkpt>
      <trkpt lat="44.09438" lon="0.47508">
        <ele>83</ele>
        <time>2025-11-05T13:16:14.446Z</time>
      </trkpt>
      <trkpt lat="44.09437" lon="0.47507">
        <ele>83</ele>
        <time>2025-11-05T13:16:15.446Z</time>
      </trkpt>
      <trkpt lat="44.09436" lon="0.47506">
        <ele>83</ele>
        <time>2025-11-05T13:16:16.446Z</time>
      </trkpt>
      <trkpt lat="44.09435" lon="0.47505">
        <ele>83</ele>
        <time>2025-11-05T13:16:17.446Z</time>
      </trkpt>
      <trkpt lat="44.09434" lon="0.47504">
        <ele>83</ele>
        <time>2025-11-05T13:16:18.446Z</time>
      </trkpt>
      <trkpt lat="44.09433" lon="0.47503">
        <ele>83</ele>
        <time>2025-11-05T13:16:19.446Z</time>
      </trkpt>
      <trkpt lat="44.09433" lon="0.47501">
        <ele>84</ele>
        <time>2025-11-05T13:16:20.446Z</time>
      </trkpt>
      <trkpt lat="44.09432" lon="0.475">
        <ele>83</ele>
        <time>2025-11-05T13:16:21.446Z</time>
      </trkpt>
      <trkpt lat="44.09432" lon="0.47498">
        <ele>83</ele>
        <time>2025-11-05T13:16:22.446Z</time>
      </trkpt>
      <trkpt lat="44.09432" lon="0.47496">
        <ele>83</ele>
        <time>2025-11-05T13:16:23.446Z</time>
      </trkpt>
      <trkpt lat="44.09431" lon="0.47495">
        <ele>83</ele>
        <time>2025-11-05T13:16:24.446Z</time>
      </trkpt>
      <trkpt lat="44.09431" lon="0.47493">
        <ele>84</ele>
        <time>2025-11-05T13:16:25.446Z</time>
      </trkpt>
      <trkpt lat="44.0943" lon="0.47491">
        <ele>84</ele>
        <time>2025-11-05T13:16:26.446Z</time>
      </trkpt>
      <trkpt lat="44.0943" lon="0.47489">
        <ele>84</ele>
        <time>2025-11-05T13:16:27.446Z</time>
      </trkpt>
      <trkpt lat="44.0943" lon="0.47487">
        <ele>84</ele>
        <time>2025-11-05T13:16:28.446Z</time>
      </trkpt>
      <trkpt lat="44.0943" lon="0.47485">
        <ele>84</ele>
        <time>2025-11-05T13:16:29.446Z</time>
      </trkpt>
      <trkpt lat="44.0943" lon="0.47484">
        <ele>84</ele>
        <time>2025-11-05T13:16:30.446Z</time>
      </trkpt>
      <trkpt lat="44.09431" lon="0.47483">
        <ele>84</ele>
        <time>2025-11-05T13:16:31.446Z</time>
      </trkpt>
      <trkpt lat="44.09431" lon="0.47481">
        <ele>84</ele>
        <time>2025-11-05T13:16:32.446Z</time>
      </trkpt>
      <trkpt lat="44.09432" lon="0.4748">
        <ele>85</ele>
        <time>2025-11-05T13:16:33.446Z</time>
      </trkpt>
      <trkpt lat="44.09433" lon="0.47478">
        <ele>85</ele>
        <time>2025-11-05T13:16:34.446Z</time>
      </trkpt>
      <trkpt lat="44.09434" lon="0.47477">
        <ele>85</ele>
        <time>2025-11-05T13:16:35.446Z</time>
      </trkpt>
      <trkpt lat="44.09435" lon="0.47476">
        <ele>86</ele>
        <time>2025-11-05T13:16:36.446Z</time>
      </trkpt>
      <trkpt lat="44.09435" lon="0.47474">
        <ele>86</ele>
        <time>2025-11-05T13:16:37.446Z</time>
      </trkpt>
      <trkpt lat="44.09436" lon="0.47473">
        <ele>86</ele>
        <time>2025-11-05T13:16:38.446Z</time>
      </trkpt>
      <trkpt lat="44.09437" lon="0.47472">
        <ele>86</ele>
        <time>2025-11-05T13:16:39.446Z</time>
      </trkpt>
      <trkpt lat="44.09437" lon="0.47471">
        <ele>86</ele>
        <time>2025-11-05T13:16:40.446Z</time>
      </trkpt>
      <trkpt lat="44.09438" lon="0.47469">
        <ele>86</ele>
        <time>2025-11-05T13:16:41.446Z</time>
      </trkpt>
      <trkpt lat="44.09438" lon="0.47468">
        <ele>86</ele>
        <time>2025-11-05T13:16:42.446Z</time>
      </trkpt>
      <trkpt lat="44.09438" lon="0.47466">
        <ele>87</ele>
        <time>2025-11-05T13:16:43.446Z</time>
      </trkpt>
      <trkpt lat="44.09439" lon="0.47465">
        <ele>87</ele>
        <time>2025-11-05T13:16:44.446Z</time>
      </trkpt>
      <trkpt lat="44.09439" lon="0.47464">
        <ele>87</ele>
        <time>2025-11-05T13:16:45.446Z</time>
      </trkpt>
      <trkpt lat="44.0944" lon="0.47463">
        <ele>87</ele>
        <time>2025-11-05T13:16:46.446Z</time>
      </trkpt>
      <trkpt lat="44.09441" lon="0.47461">
        <ele>87</ele>
        <time>2025-11-05T13:16:47.446Z</time>
      </trkpt>
      <trkpt lat="44.09441" lon="0.4746">
        <ele>86</ele>
        <time>2025-11-05T13:16:48.446Z</time>
      </trkpt>
      <trkpt lat="44.09441" lon="0.47459">
        <ele>86</ele>
        <time>2025-11-05T13:16:49.446Z</time>
      </trkpt>
      <trkpt lat="44.0944" lon="0.47458">
        <ele>86</ele>
        <time>2025-11-05T13:16:50.446Z</time>
      </trkpt>
      <trkpt lat="44.09439" lon="0.47457">
        <ele>86</ele>
        <time>2025-11-05T13:16:51.446Z</time>
      </trkpt>
      <trkpt lat="44.09439" lon="0.47457">
        <ele>85</ele>
        <time>2025-11-05T13:16:52.446Z</time>
      </trkpt>
      <trkpt lat="44.09439" lon="0.47456">
        <ele>85</ele>
        <time>2025-11-05T13:16:53.446Z</time>
      </trkpt>
      <trkpt lat="44.09438" lon="0.47456">
        <ele>85</ele>
        <time>2025-11-05T13:16:54.446Z</time>
      </trkpt>
      <trkpt lat="44.09437" lon="0.47455">
        <ele>85</ele>
        <time>2025-11-05T13:16:55.446Z</time>
      </trkpt>
      <trkpt lat="44.09436" lon="0.47453">
        <ele>85</ele>
        <time>2025-11-05T13:16:56.446Z</time>
      </trkpt>
      <trkpt lat="44.09436" lon="0.47452">
        <ele>85</ele>
        <time>2025-11-05T13:16:57.446Z</time>
      </trkpt>
      <trkpt lat="44.09435" lon="0.47452">
        <ele>86</ele>
        <time>2025-11-05T13:16:58.446Z</time>
      </trkpt>
      <trkpt lat="44.09434" lon="0.47451">
        <ele>86</ele>
        <time>2025-11-05T13:16:59.446Z</time>
      </trkpt>
      <trkpt lat="44.09431" lon="0.47451">
        <ele>86</ele>
        <time>2025-11-05T13:17:00.446Z</time>
      </trkpt>
      <trkpt lat="44.0943" lon="0.47449">
        <ele>86</ele>
        <time>2025-11-05T13:17:01.446Z</time>
      </trkpt>
      <trkpt lat="44.09429" lon="0.47448">
        <ele>86</ele>
        <time>2025-11-05T13:17:02.446Z</time>
      </trkpt>
      <trkpt lat="44.09428" lon="0.47447">
        <ele>86</ele>
        <time>2025-11-05T13:17:03.446Z</time>
      </trkpt>
      <trkpt lat="44.09428" lon="0.47445">
        <ele>86</ele>
        <time>2025-11-05T13:17:04.446Z</time>
      </trkpt>
      <trkpt lat="44.09427" lon="0.47444">
        <ele>86</ele>
        <time>2025-11-05T13:17:05.446Z</time>
      </trkpt>
      <trkpt lat="44.09426" lon="0.47443">
        <ele>85</ele>
        <time>2025-11-05T13:17:06.446Z</time>
      </trkpt>
      <trkpt lat="44.09425" lon="0.47442">
        <ele>85</ele>
        <time>2025-11-05T13:17:07.446Z</time>
      </trkpt>
      <trkpt lat="44.09423" lon="0.4744">
        <ele>85</ele>
        <time>2025-11-05T13:17:08.446Z</time>
      </trkpt>
      <trkpt lat="44.09423" lon="0.47439">
        <ele>85</ele>
        <time>2025-11-05T13:17:09.446Z</time>
      </trkpt>
      <trkpt lat="44.09422" lon="0.47437">
        <ele>85</ele>
        <time>2025-11-05T13:17:10.446Z</time>
      </trkpt>
      <trkpt lat="44.09421" lon="0.47436">
        <ele>85</ele>
        <time>2025-11-05T13:17:11.446Z</time>
      </trkpt>
      <trkpt lat="44.09419" lon="0.47435">
        <ele>85</ele>
        <time>2025-11-05T13:17:12.446Z</time>
      </trkpt>
      <trkpt lat="44.09419" lon="0.47434">
        <ele>85</ele>
        <time>2025-11-05T13:17:13.446Z</time>
      </trkpt>
      <trkpt lat="44.09418" lon="0.47433">
        <ele>85</ele>
        <time>2025-11-05T13:17:14.446Z</time>
      </trkpt>
      <trkpt lat="44.09418" lon="0.47432">
        <ele>85</ele>
        <time>2025-11-05T13:17:15.446Z</time>
      </trkpt>
      <trkpt lat="44.09417" lon="0.47431">
        <ele>86</ele>
        <time>2025-11-05T13:17:16.446Z</time>
      </trkpt>
      <trkpt lat="44.09416" lon="0.4743">
        <ele>86</ele>
        <time>2025-11-05T13:17:17.446Z</time>
      </trkpt>
      <trkpt lat="44.09415" lon="0.4743">
        <ele>86</ele>
        <time>2025-11-05T13:17:18.446Z</time>
      </trkpt>
      <trkpt lat="44.09414" lon="0.47429">
        <ele>87</ele>
        <time>2025-11-05T13:17:19.446Z</time>
      </trkpt>
      <trkpt lat="44.09413" lon="0.47427">
        <ele>87</ele>
        <time>2025-11-05T13:17:20.446Z</time>
      </trkpt>
      <trkpt lat="44.09412" lon="0.47426">
        <ele>88</ele>
        <time>2025-11-05T13:17:21.446Z</time>
      </trkpt>
      <trkpt lat="44.09411" lon="0.47426">
        <ele>88</ele>
        <time>2025-11-05T13:17:22.446Z</time>
      </trkpt>
      <trkpt lat="44.0941" lon="0.47425">
        <ele>88</ele>
        <time>2025-11-05T13:17:23.446Z</time>
      </trkpt>
      <trkpt lat="44.09409" lon="0.47424">
        <ele>88</ele>
        <time>2025-11-05T13:17:24.446Z</time>
      </trkpt>
      <trkpt lat="44.09408" lon="0.47423">
        <ele>88</ele>
        <time>2025-11-05T13:17:25.446Z</time>
      </trkpt>
      <trkpt lat="44.09407" lon="0.47422">
        <ele>88</ele>
        <time>2025-11-05T13:17:26.446Z</time>
      </trkpt>
      <trkpt lat="44.09406" lon="0.47421">
        <ele>88</ele>
        <time>2025-11-05T13:17:27.446Z</time>
      </trkpt>
      <trkpt lat="44.09404" lon="0.47421">
        <ele>87</ele>
        <time>2025-11-05T13:17:28.446Z</time>
      </trkpt>
      <trkpt lat="44.09403" lon="0.4742">
        <ele>87</ele>
        <time>2025-11-05T13:17:29.446Z</time>
      </trkpt>
      <trkpt lat="44.09402" lon="0.47419">
        <ele>87</ele>
        <time>2025-11-05T13:17:30.446Z</time>
      </trkpt>
      <trkpt lat="44.09401" lon="0.47419">
        <ele>87</ele>
        <time>2025-11-05T13:17:31.446Z</time>
      </trkpt>
      <trkpt lat="44.094" lon="0.47418">
        <ele>86</ele>
        <time>2025-11-05T13:17:32.446Z</time>
      </trkpt>
      <trkpt lat="44.09399" lon="0.47417">
        <ele>86</ele>
        <time>2025-11-05T13:17:33.446Z</time>
      </trkpt>
      <trkpt lat="44.09398" lon="0.47416">
        <ele>86</ele>
        <time>2025-11-05T13:17:34.446Z</time>
      </trkpt>
      <trkpt lat="44.09397" lon="0.47415">
        <ele>86</ele>
        <time>2025-11-05T13:17:35.446Z</time>
      </trkpt>
      <trkpt lat="44.09396" lon="0.47414">
        <ele>86</ele>
        <time>2025-11-05T13:17:36.446Z</time>
      </trkpt>
      <trkpt lat="44.09395" lon="0.47414">
        <ele>86</ele>
        <time>2025-11-05T13:17:37.446Z</time>
      </trkpt>
      <trkpt lat="44.09395" lon="0.47413">
        <ele>86</ele>
        <time>2025-11-05T13:17:38.446Z</time>
      </trkpt>
      <trkpt lat="44.09393" lon="0.47412">
        <ele>86</ele>
        <time>2025-11-05T13:17:39.446Z</time>
      </trkpt>
      <trkpt lat="44.09392" lon="0.47411">
        <ele>86</ele>
        <time>2025-11-05T13:17:40.446Z</time>
      </trkpt>
      <trkpt lat="44.09391" lon="0.4741">
        <ele>86</ele>
        <time>2025-11-05T13:17:41.446Z</time>
      </trkpt>
      <trkpt lat="44.0939" lon="0.4741">
        <ele>87</ele>
        <time>2025-11-05T13:17:42.446Z</time>
      </trkpt>
      <trkpt lat="44.0939" lon="0.47409">
        <ele>87</ele>
        <time>2025-11-05T13:17:43.446Z</time>
      </trkpt>
      <trkpt lat="44.09389" lon="0.47408">
        <ele>87</ele>
        <time>2025-11-05T13:17:44.446Z</time>
      </trkpt>
      <trkpt lat="44.09388" lon="0.47408">
        <ele>87</ele>
        <time>2025-11-05T13:17:45.446Z</time>
      </trkpt>
      <trkpt lat="44.09387" lon="0.47407">
        <ele>87</ele>
        <time>2025-11-05T13:17:46.446Z</time>
      </trkpt>
      <trkpt lat="44.09386" lon="0.47406">
        <ele>87</ele>
        <time>2025-11-05T13:17:47.446Z</time>
      </trkpt>
      <trkpt lat="44.09385" lon="0.47405">
        <ele>88</ele>
        <time>2025-11-05T13:17:48.446Z</time>
      </trkpt>
      <trkpt lat="44.09384" lon="0.47404">
        <ele>88</ele>
        <time>2025-11-05T13:17:49.446Z</time>
      </trkpt>
      <trkpt lat="44.09383" lon="0.47403">
        <ele>88</ele>
        <time>2025-11-05T13:17:50.446Z</time>
      </trkpt>
      <trkpt lat="44.09382" lon="0.47402">
        <ele>88</ele>
        <time>2025-11-05T13:17:51.446Z</time>
      </trkpt>
      <trkpt lat="44.09382" lon="0.47401">
        <ele>88</ele>
        <time>2025-11-05T13:17:52.446Z</time>
      </trkpt>
      <trkpt lat="44.09381" lon="0.474">
        <ele>89</ele>
        <time>2025-11-05T13:17:53.446Z</time>
      </trkpt>
      <trkpt lat="44.0938" lon="0.47399">
        <ele>89</ele>
        <time>2025-11-05T13:17:54.446Z</time>
      </trkpt>
      <trkpt lat="44.09379" lon="0.47398">
        <ele>89</ele>
        <time>2025-11-05T13:17:55.446Z</time>
      </trkpt>
      <trkpt lat="44.09378" lon="0.47397">
        <ele>89</ele>
        <time>2025-11-05T13:17:56.446Z</time>
      </trkpt>
      <trkpt lat="44.09378" lon="0.47396">
        <ele>89</ele>
        <time>2025-11-05T13:17:57.446Z</time>
      </trkpt>
      <trkpt lat="44.09377" lon="0.47395">
        <ele>90</ele>
        <time>2025-11-05T13:17:58.446Z</time>
      </trkpt>
      <trkpt lat="44.09376" lon="0.47394">
        <ele>90</ele>
        <time>2025-11-05T13:17:59.446Z</time>
      </trkpt>
      <trkpt lat="44.09375" lon="0.47393">
        <ele>90</ele>
        <time>2025-11-05T13:18:00.446Z</time>
      </trkpt>
      <trkpt lat="44.09374" lon="0.47392">
        <ele>89</ele>
        <time>2025-11-05T13:18:01.446Z</time>
      </trkpt>
      <trkpt lat="44.09373" lon="0.47391">
        <ele>89</ele>
        <time>2025-11-05T13:18:02.446Z</time>
      </trkpt>
      <trkpt lat="44.09371" lon="0.4739">
        <ele>89</ele>
        <time>2025-11-05T13:18:03.446Z</time>
      </trkpt>
      <trkpt lat="44.0937" lon="0.4739">
        <ele>89</ele>
        <time>2025-11-05T13:18:04.446Z</time>
      </trkpt>
      <trkpt lat="44.09369" lon="0.47389">
        <ele>89</ele>
        <time>2025-11-05T13:18:05.446Z</time>
      </trkpt>
      <trkpt lat="44.09369" lon="0.47388">
        <ele>89</ele>
        <time>2025-11-05T13:18:06.446Z</time>
      </trkpt>
      <trkpt lat="44.09367" lon="0.47387">
        <ele>89</ele>
        <time>2025-11-05T13:18:07.446Z</time>
      </trkpt>
      <trkpt lat="44.09366" lon="0.47386">
        <ele>89</ele>
        <time>2025-11-05T13:18:08.446Z</time>
      </trkpt>
      <trkpt lat="44.09365" lon="0.47385">
        <ele>89</ele>
        <time>2025-11-05T13:18:09.446Z</time>
      </trkpt>
      <trkpt lat="44.09364" lon="0.47384">
        <ele>89</ele>
        <time>2025-11-05T13:18:10.446Z</time>
      </trkpt>
      <trkpt lat="44.09363" lon="0.47384">
        <ele>89</ele>
        <time>2025-11-05T13:18:11.446Z</time>
      </trkpt>
      <trkpt lat="44.09362" lon="0.47383">
        <ele>89</ele>
        <time>2025-11-05T13:18:12.446Z</time>
      </trkpt>
      <trkpt lat="44.09361" lon="0.47382">
        <ele>89</ele>
        <time>2025-11-05T13:18:13.446Z</time>
      </trkpt>
      <trkpt lat="44.0936" lon="0.47381">
        <ele>89</ele>
        <time>2025-11-05T13:18:14.446Z</time>
      </trkpt>
      <trkpt lat="44.09359" lon="0.4738">
        <ele>89</ele>
        <time>2025-11-05T13:18:15.446Z</time>
      </trkpt>
      <trkpt lat="44.09358" lon="0.47379">
        <ele>88</ele>
        <time>2025-11-05T13:18:16.446Z</time>
      </trkpt>
      <trkpt lat="44.09357" lon="0.47378">
        <ele>88</ele>
        <time>2025-11-05T13:18:17.446Z</time>
      </trkpt>
      <trkpt lat="44.09356" lon="0.47377">
        <ele>88</ele>
        <time>2025-11-05T13:18:18.446Z</time>
      </trkpt>
      <trkpt lat="44.09355" lon="0.47376">
        <ele>89</ele>
        <time>2025-11-05T13:18:19.446Z</time>
      </trkpt>
      <trkpt lat="44.09354" lon="0.47375">
        <ele>89</ele>
        <time>2025-11-05T13:18:20.446Z</time>
      </trkpt>
      <trkpt lat="44.09354" lon="0.47374">
        <ele>89</ele>
        <time>2025-11-05T13:18:21.446Z</time>
      </trkpt>
      <trkpt lat="44.09353" lon="0.47374">
        <ele>89</ele>
        <time>2025-11-05T13:18:22.446Z</time>
      </trkpt>
      <trkpt lat="44.09351" lon="0.47373">
        <ele>89</ele>
        <time>2025-11-05T13:18:23.446Z</time>
      </trkpt>
      <trkpt lat="44.0935" lon="0.47371">
        <ele>90</ele>
        <time>2025-11-05T13:18:24.446Z</time>
      </trkpt>
      <trkpt lat="44.09349" lon="0.47371">
        <ele>90</ele>
        <time>2025-11-05T13:18:25.446Z</time>
      </trkpt>
      <trkpt lat="44.09348" lon="0.4737">
        <ele>90</ele>
        <time>2025-11-05T13:18:26.446Z</time>
      </trkpt>
      <trkpt lat="44.09347" lon="0.47369">
        <ele>90</ele>
        <time>2025-11-05T13:18:27.446Z</time>
      </trkpt>
      <trkpt lat="44.09346" lon="0.47368">
        <ele>90</ele>
        <time>2025-11-05T13:18:28.446Z</time>
      </trkpt>
      <trkpt lat="44.09345" lon="0.47367">
        <ele>91</ele>
        <time>2025-11-05T13:18:29.446Z</time>
      </trkpt>
      <trkpt lat="44.09344" lon="0.47366">
        <ele>91</ele>
        <time>2025-11-05T13:18:30.446Z</time>
      </trkpt>
      <trkpt lat="44.09342" lon="0.47365">
        <ele>91</ele>
        <time>2025-11-05T13:18:31.446Z</time>
      </trkpt>
      <trkpt lat="44.09341" lon="0.47364">
        <ele>91</ele>
        <time>2025-11-05T13:18:32.446Z</time>
      </trkpt>
      <trkpt lat="44.0934" lon="0.47364">
        <ele>91</ele>
        <time>2025-11-05T13:18:33.446Z</time>
      </trkpt>
      <trkpt lat="44.09339" lon="0.47363">
        <ele>91</ele>
        <time>2025-11-05T13:18:34.446Z</time>
      </trkpt>
      <trkpt lat="44.09338" lon="0.47362">
        <ele>91</ele>
        <time>2025-11-05T13:18:35.446Z</time>
      </trkpt>
      <trkpt lat="44.09337" lon="0.47361">
        <ele>91</ele>
        <time>2025-11-05T13:18:36.446Z</time>
      </trkpt>
      <trkpt lat="44.09336" lon="0.4736">
        <ele>91</ele>
        <time>2025-11-05T13:18:37.446Z</time>
      </trkpt>
      <trkpt lat="44.09335" lon="0.4736">
        <ele>91</ele>
        <time>2025-11-05T13:18:38.446Z</time>
      </trkpt>
      <trkpt lat="44.09334" lon="0.47359">
        <ele>91</ele>
        <time>2025-11-05T13:18:39.446Z</time>
      </trkpt>
      <trkpt lat="44.09333" lon="0.47358">
        <ele>91</ele>
        <time>2025-11-05T13:18:40.446Z</time>
      </trkpt>
      <trkpt lat="44.09332" lon="0.47357">
        <ele>91</ele>
        <time>2025-11-05T13:18:41.446Z</time>
      </trkpt>
      <trkpt lat="44.09331" lon="0.47356">
        <ele>91</ele>
        <time>2025-11-05T13:18:42.446Z</time>
      </trkpt>
      <trkpt lat="44.09329" lon="0.47355">
        <ele>91</ele>
        <time>2025-11-05T13:18:43.446Z</time>
      </trkpt>
      <trkpt lat="44.09328" lon="0.47354">
        <ele>91</ele>
        <time>2025-11-05T13:18:44.446Z</time>
      </trkpt>
      <trkpt lat="44.09327" lon="0.47353">
        <ele>91</ele>
        <time>2025-11-05T13:18:45.446Z</time>
      </trkpt>
      <trkpt lat="44.09326" lon="0.47353">
        <ele>91</ele>
        <time>2025-11-05T13:18:46.446Z</time>
      </trkpt>
      <trkpt lat="44.09325" lon="0.47352">
        <ele>91</ele>
        <time>2025-11-05T13:18:47.446Z</time>
      </trkpt>
      <trkpt lat="44.09324" lon="0.47351">
        <ele>90</ele>
        <time>2025-11-05T13:18:48.446Z</time>
      </trkpt>
      <trkpt lat="44.09323" lon="0.4735">
        <ele>91</ele>
        <time>2025-11-05T13:18:49.446Z</time>
      </trkpt>
      <trkpt lat="44.09322" lon="0.4735">
        <ele>91</ele>
        <time>2025-11-05T13:18:50.446Z</time>
      </trkpt>
      <trkpt lat="44.09321" lon="0.47349">
        <ele>91</ele>
        <time>2025-11-05T13:18:51.446Z</time>
      </trkpt>
      <trkpt lat="44.0932" lon="0.47348">
        <ele>91</ele>
        <time>2025-11-05T13:18:52.446Z</time>
      </trkpt>
      <trkpt lat="44.09319" lon="0.47347">
        <ele>91</ele>
        <time>2025-11-05T13:18:53.446Z</time>
      </trkpt>
      <trkpt lat="44.09318" lon="0.47346">
        <ele>91</ele>
        <time>2025-11-05T13:18:54.446Z</time>
      </trkpt>
      <trkpt lat="44.09317" lon="0.47345">
        <ele>91</ele>
        <time>2025-11-05T13:18:55.446Z</time>
      </trkpt>
      <trkpt lat="44.09316" lon="0.47345">
        <ele>91</ele>
        <time>2025-11-05T13:18:56.446Z</time>
      </trkpt>
      <trkpt lat="44.09314" lon="0.47344">
        <ele>91</ele>
        <time>2025-11-05T13:18:57.446Z</time>
      </trkpt>
      <trkpt lat="44.09313" lon="0.47343">
        <ele>91</ele>
        <time>2025-11-05T13:18:58.446Z</time>
      </trkpt>
      <trkpt lat="44.09312" lon="0.47342">
        <ele>91</ele>
        <time>2025-11-05T13:18:59.446Z</time>
      </trkpt>
      <trkpt lat="44.09311" lon="0.47341">
        <ele>91</ele>
        <time>2025-11-05T13:19:00.446Z</time>
      </trkpt>
      <trkpt lat="44.09311" lon="0.47341">
        <ele>91</ele>
        <time>2025-11-05T13:19:01.447Z</time>
      </trkpt>
      <trkpt lat="44.09309" lon="0.4734">
        <ele>91</ele>
        <time>2025-11-05T13:19:02.446Z</time>
      </trkpt>
      <trkpt lat="44.09308" lon="0.47339">
        <ele>92</ele>
        <time>2025-11-05T13:19:03.446Z</time>
      </trkpt>
      <trkpt lat="44.09307" lon="0.47338">
        <ele>92</ele>
        <time>2025-11-05T13:19:04.446Z</time>
      </trkpt>
      <trkpt lat="44.09306" lon="0.47337">
        <ele>92</ele>
        <time>2025-11-05T13:19:05.446Z</time>
      </trkpt>
      <trkpt lat="44.09305" lon="0.47336">
        <ele>92</ele>
        <time>2025-11-05T13:19:06.446Z</time>
      </trkpt>
      <trkpt lat="44.09304" lon="0.47335">
        <ele>92</ele>
        <time>2025-11-05T13:19:07.446Z</time>
      </trkpt>
      <trkpt lat="44.09303" lon="0.47335">
        <ele>92</ele>
        <time>2025-11-05T13:19:08.446Z</time>
      </trkpt>
      <trkpt lat="44.09302" lon="0.47334">
        <ele>93</ele>
        <time>2025-11-05T13:19:09.446Z</time>
      </trkpt>
      <trkpt lat="44.09301" lon="0.47333">
        <ele>93</ele>
        <time>2025-11-05T13:19:10.446Z</time>
      </trkpt>
      <trkpt lat="44.093" lon="0.47332">
        <ele>94</ele>
        <time>2025-11-05T13:19:11.446Z</time>
      </trkpt>
      <trkpt lat="44.09299" lon="0.47331">
        <ele>94</ele>
        <time>2025-11-05T13:19:12.446Z</time>
      </trkpt>
      <trkpt lat="44.09298" lon="0.4733">
        <ele>95</ele>
        <time>2025-11-05T13:19:13.446Z</time>
      </trkpt>
      <trkpt lat="44.09297" lon="0.47329">
        <ele>95</ele>
        <time>2025-11-05T13:19:14.446Z</time>
      </trkpt>
      <trkpt lat="44.09296" lon="0.47328">
        <ele>95</ele>
        <time>2025-11-05T13:19:15.446Z</time>
      </trkpt>
      <trkpt lat="44.09296" lon="0.47327">
        <ele>95</ele>
        <time>2025-11-05T13:19:16.446Z</time>
      </trkpt>
      <trkpt lat="44.09295" lon="0.47326">
        <ele>95</ele>
        <time>2025-11-05T13:19:17.446Z</time>
      </trkpt>
      <trkpt lat="44.09294" lon="0.47326">
        <ele>96</ele>
        <time>2025-11-05T13:19:18.446Z</time>
      </trkpt>
      <trkpt lat="44.09293" lon="0.47326">
        <ele>96</ele>
        <time>2025-11-05T13:19:19.446Z</time>
      </trkpt>
      <trkpt lat="44.09292" lon="0.47325">
        <ele>96</ele>
        <time>2025-11-05T13:19:20.446Z</time>
      </trkpt>
      <trkpt lat="44.09291" lon="0.47324">
        <ele>96</ele>
        <time>2025-11-05T13:19:21.446Z</time>
      </trkpt>
      <trkpt lat="44.0929" lon="0.47324">
        <ele>96</ele>
        <time>2025-11-05T13:19:22.446Z</time>
      </trkpt>
      <trkpt lat="44.09289" lon="0.47323">
        <ele>95</ele>
        <time>2025-11-05T13:19:23.446Z</time>
      </trkpt>
      <trkpt lat="44.09288" lon="0.47323">
        <ele>95</ele>
        <time>2025-11-05T13:19:24.446Z</time>
      </trkpt>
      <trkpt lat="44.09287" lon="0.47323">
        <ele>95</ele>
        <time>2025-11-05T13:19:25.446Z</time>
      </trkpt>
      <trkpt lat="44.09287" lon="0.47323">
        <ele>95</ele>
        <time>2025-11-05T13:19:26.446Z</time>
      </trkpt>
      <trkpt lat="44.09287" lon="0.47322">
        <ele>95</ele>
        <time>2025-11-05T13:19:27.446Z</time>
      </trkpt>
      <trkpt lat="44.09286" lon="0.47322">
        <ele>95</ele>
        <time>2025-11-05T13:19:28.446Z</time>
      </trkpt>
      <trkpt lat="44.09286" lon="0.47323">
        <ele>94</ele>
        <time>2025-11-05T13:19:29.446Z</time>
      </trkpt>
      <trkpt lat="44.09286" lon="0.47324">
        <ele>94</ele>
        <time>2025-11-05T13:19:30.446Z</time>
      </trkpt>
      <trkpt lat="44.09286" lon="0.47325">
        <ele>94</ele>
        <time>2025-11-05T13:19:31.446Z</time>
      </trkpt>
      <trkpt lat="44.09285" lon="0.47326">
        <ele>94</ele>
        <time>2025-11-05T13:19:32.446Z</time>
      </trkpt>
      <trkpt lat="44.09284" lon="0.47328">
        <ele>94</ele>
        <time>2025-11-05T13:19:33.446Z</time>
      </trkpt>
      <trkpt lat="44.09284" lon="0.47329">
        <ele>94</ele>
        <time>2025-11-05T13:19:34.446Z</time>
      </trkpt>
      <trkpt lat="44.09283" lon="0.47331">
        <ele>93</ele>
        <time>2025-11-05T13:19:35.446Z</time>
      </trkpt>
      <trkpt lat="44.09283" lon="0.47332">
        <ele>94</ele>
        <time>2025-11-05T13:19:36.446Z</time>
      </trkpt>
      <trkpt lat="44.09283" lon="0.47334">
        <ele>94</ele>
        <time>2025-11-05T13:19:37.446Z</time>
      </trkpt>
      <trkpt lat="44.09283" lon="0.47335">
        <ele>94</ele>
        <time>2025-11-05T13:19:38.446Z</time>
      </trkpt>
      <trkpt lat="44.09283" lon="0.47336">
        <ele>94</ele>
        <time>2025-11-05T13:19:39.446Z</time>
      </trkpt>
      <trkpt lat="44.09283" lon="0.47338">
        <ele>94</ele>
        <time>2025-11-05T13:19:40.446Z</time>
      </trkpt>
      <trkpt lat="44.09284" lon="0.4734">
        <ele>95</ele>
        <time>2025-11-05T13:19:41.446Z</time>
      </trkpt>
      <trkpt lat="44.09285" lon="0.47341">
        <ele>95</ele>
        <time>2025-11-05T13:19:42.446Z</time>
      </trkpt>
      <trkpt lat="44.09285" lon="0.47342">
        <ele>95</ele>
        <time>2025-11-05T13:19:43.446Z</time>
      </trkpt>
      <trkpt lat="44.09286" lon="0.47343">
        <ele>95</ele>
        <time>2025-11-05T13:19:44.446Z</time>
      </trkpt>
      <trkpt lat="44.09287" lon="0.47344">
        <ele>95</ele>
        <time>2025-11-05T13:19:45.446Z</time>
      </trkpt>
      <trkpt lat="44.09287" lon="0.47345">
        <ele>96</ele>
        <time>2025-11-05T13:19:46.446Z</time>
      </trkpt>
      <trkpt lat="44.09286" lon="0.47346">
        <ele>96</ele>
        <time>2025-11-05T13:19:47.446Z</time>
      </trkpt>
      <trkpt lat="44.09286" lon="0.47347">
        <ele>96</ele>
        <time>2025-11-05T13:19:48.446Z</time>
      </trkpt>
      <trkpt lat="44.09286" lon="0.47347">
        <ele>96</ele>
        <time>2025-11-05T13:19:49.446Z</time>
      </trkpt>
      <trkpt lat="44.09286" lon="0.47347">
        <ele>95</ele>
        <time>2025-11-05T13:19:50.446Z</time>
      </trkpt>
      <trkpt lat="44.09286" lon="0.47347">
        <ele>95</ele>
        <time>2025-11-05T13:19:51.446Z</time>
      </trkpt>
      <trkpt lat="44.09286" lon="0.47347">
        <ele>95</ele>
        <time>2025-11-05T13:19:52.446Z</time>
      </trkpt>
      <trkpt lat="44.09286" lon="0.47347">
        <ele>95</ele>
        <time>2025-11-05T13:19:53.446Z</time>
      </trkpt>
      <trkpt lat="44.09286" lon="0.47347">
        <ele>95</ele>
        <time>2025-11-05T13:19:54.446Z</time>
      </trkpt>
      <trkpt lat="44.09286" lon="0.47347">
        <ele>95</ele>
        <time>2025-11-05T13:19:55.446Z</time>
      </trkpt>
      <trkpt lat="44.09286" lon="0.47347">
        <ele>95</ele>
        <time>2025-11-05T13:19:56.446Z</time>
      </trkpt>
      <trkpt lat="44.09286" lon="0.47347">
        <ele>95</ele>
        <time>2025-11-05T13:19:57.446Z</time>
      </trkpt>
      <trkpt lat="44.09286" lon="0.47347">
        <ele>95</ele>
        <time>2025-11-05T13:19:58.446Z</time>
      </trkpt>
      <trkpt lat="44.09286" lon="0.47347">
        <ele>95</ele>
        <time>2025-11-05T13:19:59.446Z</time>
      </trkpt>
      <trkpt lat="44.09286" lon="0.47347">
        <ele>94</ele>
        <time>2025-11-05T13:20:00.446Z</time>
      </trkpt>
      <trkpt lat="44.09286" lon="0.47347">
        <ele>95</ele>
        <time>2025-11-05T13:20:01.446Z</time>
      </trkpt>
      <trkpt lat="44.09286" lon="0.47346">
        <ele>95</ele>
        <time>2025-11-05T13:20:02.446Z</time>
      </trkpt>
      <trkpt lat="44.09286" lon="0.47346">
        <ele>95</ele>
        <time>2025-11-05T13:20:03.446Z</time>
      </trkpt>
      <trkpt lat="44.09286" lon="0.47346">
        <ele>95</ele>
        <time>2025-11-05T13:20:04.446Z</time>
      </trkpt>
      <trkpt lat="44.09286" lon="0.47346">
        <ele>95</ele>
        <time>2025-11-05T13:20:05.446Z</time>
      </trkpt>
      <trkpt lat="44.09286" lon="0.47345">
        <ele>96</ele>
        <time>2025-11-05T13:20:06.446Z</time>
      </trkpt>
      <trkpt lat="44.09286" lon="0.47345">
        <ele>95</ele>
        <time>2025-11-05T13:20:07.446Z</time>
      </trkpt>
      <trkpt lat="44.09286" lon="0.47344">
        <ele>95</ele>
        <time>2025-11-05T13:20:08.446Z</time>
      </trkpt>
      <trkpt lat="44.09286" lon="0.47344">
        <ele>96</ele>
        <time>2025-11-05T13:20:09.446Z</time>
      </trkpt>
      <trkpt lat="44.09286" lon="0.47343">
        <ele>96</ele>
        <time>2025-11-05T13:20:10.446Z</time>
      </trkpt>
      <trkpt lat="44.09286" lon="0.47341">
        <ele>96</ele>
        <time>2025-11-05T13:20:11.446Z</time>
      </trkpt>
      <trkpt lat="44.09286" lon="0.4734">
        <ele>96</ele>
        <time>2025-11-05T13:20:12.446Z</time>
      </trkpt>
      <trkpt lat="44.09286" lon="0.47339">
        <ele>96</ele>
        <time>2025-11-05T13:20:13.446Z</time>
      </trkpt>
      <trkpt lat="44.09286" lon="0.47338">
        <ele>96</ele>
        <time>2025-11-05T13:20:14.446Z</time>
      </trkpt>
      <trkpt lat="44.09285" lon="0.47336">
        <ele>96</ele>
        <time>2025-11-05T13:20:15.446Z</time>
      </trkpt>
      <trkpt lat="44.09285" lon="0.47334">
        <ele>96</ele>
        <time>2025-11-05T13:20:16.446Z</time>
      </trkpt>
      <trkpt lat="44.09285" lon="0.47332">
        <ele>96</ele>
        <time>2025-11-05T13:20:17.446Z</time>
      </trkpt>
      <trkpt lat="44.09285" lon="0.4733">
        <ele>96</ele>
        <time>2025-11-05T13:20:18.446Z</time>
      </trkpt>
      <trkpt lat="44.09285" lon="0.47329">
        <ele>96</ele>
        <time>2025-11-05T13:20:19.446Z</time>
      </trkpt>
      <trkpt lat="44.09285" lon="0.47327">
        <ele>96</ele>
        <time>2025-11-05T13:20:20.446Z</time>
      </trkpt>
      <trkpt lat="44.09284" lon="0.47326">
        <ele>96</ele>
        <time>2025-11-05T13:20:21.446Z</time>
      </trkpt>
      <trkpt lat="44.09284" lon="0.47325">
        <ele>96</ele>
        <time>2025-11-05T13:20:22.446Z</time>
      </trkpt>
      <trkpt lat="44.09285" lon="0.47324">
        <ele>96</ele>
        <time>2025-11-05T13:20:23.446Z</time>
      </trkpt>
      <trkpt lat="44.09285" lon="0.47323">
        <ele>95</ele>
        <time>2025-11-05T13:20:24.446Z</time>
      </trkpt>
      <trkpt lat="44.09285" lon="0.47322">
        <ele>95</ele>
        <time>2025-11-05T13:20:25.446Z</time>
      </trkpt>
      <trkpt lat="44.09284" lon="0.47321">
        <ele>95</ele>
        <time>2025-11-05T13:20:26.446Z</time>
      </trkpt>
      <trkpt lat="44.09284" lon="0.47321">
        <ele>95</ele>
        <time>2025-11-05T13:20:27.446Z</time>
      </trkpt>
      <trkpt lat="44.09284" lon="0.47321">
        <ele>95</ele>
        <time>2025-11-05T13:20:28.446Z</time>
      </trkpt>
      <trkpt lat="44.09284" lon="0.47321">
        <ele>95</ele>
        <time>2025-11-05T13:20:29.446Z</time>
      </trkpt>
      <trkpt lat="44.09284" lon="0.47321">
        <ele>95</ele>
        <time>2025-11-05T13:20:30.446Z</time>
      </trkpt>
      <trkpt lat="44.09284" lon="0.47321">
        <ele>96</ele>
        <time>2025-11-05T13:20:31.446Z</time>
      </trkpt>
      <trkpt lat="44.09284" lon="0.47321">
        <ele>96</ele>
        <time>2025-11-05T13:20:32.446Z</time>
      </trkpt>
      <trkpt lat="44.09284" lon="0.47321">
        <ele>96</ele>
        <time>2025-11-05T13:20:33.446Z</time>
      </trkpt>
      <trkpt lat="44.09284" lon="0.47321">
        <ele>96</ele>
        <time>2025-11-05T13:20:34.446Z</time>
      </trkpt>
      <trkpt lat="44.09285" lon="0.47321">
        <ele>96</ele>
        <time>2025-11-05T13:20:35.446Z</time>
      </trkpt>
      <trkpt lat="44.09285" lon="0.47321">
        <ele>96</ele>
        <time>2025-11-05T13:20:36.446Z</time>
      </trkpt>
      <trkpt lat="44.09285" lon="0.47321">
        <ele>96</ele>
        <time>2025-11-05T13:20:37.446Z</time>
      </trkpt>
      <trkpt lat="44.09285" lon="0.47321">
        <ele>96</ele>
        <time>2025-11-05T13:20:38.446Z</time>
      </trkpt>
      <trkpt lat="44.09285" lon="0.47321">
        <ele>96</ele>
        <time>2025-11-05T13:20:39.446Z</time>
      </trkpt>
      <trkpt lat="44.09285" lon="0.47321">
        <ele>96</ele>
        <time>2025-11-05T13:20:40.446Z</time>
      </trkpt>
      <trkpt lat="44.09285" lon="0.47321">
        <ele>96</ele>
        <time>2025-11-05T13:20:41.446Z</time>
      </trkpt>
      <trkpt lat="44.09285" lon="0.47321">
        <ele>96</ele>
        <time>2025-11-05T13:20:42.446Z</time>
      </trkpt>
      <trkpt lat="44.09284" lon="0.47321">
        <ele>97</ele>
        <time>2025-11-05T13:20:43.446Z</time>
      </trkpt>
      <trkpt lat="44.09284" lon="0.47321">
        <ele>97</ele>
        <time>2025-11-05T13:20:44.446Z</time>
      </trkpt>
      <trkpt lat="44.09284" lon="0.47321">
        <ele>97</ele>
        <time>2025-11-05T13:20:45.446Z</time>
      </trkpt>
      <trkpt lat="44.09284" lon="0.47321">
        <ele>97</ele>
        <time>2025-11-05T13:20:46.446Z</time>
      </trkpt>
      <trkpt lat="44.09284" lon="0.4732">
        <ele>98</ele>
        <time>2025-11-05T13:20:47.446Z</time>
      </trkpt>
      <trkpt lat="44.09284" lon="0.4732">
        <ele>98</ele>
        <time>2025-11-05T13:20:48.446Z</time>
      </trkpt>
      <trkpt lat="44.09284" lon="0.4732">
        <ele>98</ele>
        <time>2025-11-05T13:20:49.446Z</time>
      </trkpt>
      <trkpt lat="44.09284" lon="0.47319">
        <ele>98</ele>
        <time>2025-11-05T13:20:50.446Z</time>
      </trkpt>
      <trkpt lat="44.09284" lon="0.47318">
        <ele>97</ele>
        <time>2025-11-05T13:20:51.446Z</time>
      </trkpt>
      <trkpt lat="44.09283" lon="0.47317">
        <ele>97</ele>
        <time>2025-11-05T13:20:52.446Z</time>
      </trkpt>
      <trkpt lat="44.09282" lon="0.47316">
        <ele>97</ele>
        <time>2025-11-05T13:20:53.446Z</time>
      </trkpt>
      <trkpt lat="44.09281" lon="0.47315">
        <ele>97</ele>
        <time>2025-11-05T13:20:54.446Z</time>
      </trkpt>
      <trkpt lat="44.0928" lon="0.47314">
        <ele>97</ele>
        <time>2025-11-05T13:20:55.446Z</time>
      </trkpt>
      <trkpt lat="44.09279" lon="0.47313">
        <ele>97</ele>
        <time>2025-11-05T13:20:56.446Z</time>
      </trkpt>
      <trkpt lat="44.09278" lon="0.47312">
        <ele>96</ele>
        <time>2025-11-05T13:20:57.446Z</time>
      </trkpt>
      <trkpt lat="44.09277" lon="0.47311">
        <ele>96</ele>
        <time>2025-11-05T13:20:58.446Z</time>
      </trkpt>
      <trkpt lat="44.09276" lon="0.4731">
        <ele>96</ele>
        <time>2025-11-05T13:20:59.446Z</time>
      </trkpt>
      <trkpt lat="44.09275" lon="0.47309">
        <ele>96</ele>
        <time>2025-11-05T13:21:00.446Z</time>
      </trkpt>
      <trkpt lat="44.09274" lon="0.47309">
        <ele>96</ele>
        <time>2025-11-05T13:21:01.446Z</time>
      </trkpt>
      <trkpt lat="44.09273" lon="0.47308">
        <ele>96</ele>
        <time>2025-11-05T13:21:02.446Z</time>
      </trkpt>
      <trkpt lat="44.09272" lon="0.47307">
        <ele>96</ele>
        <time>2025-11-05T13:21:03.446Z</time>
      </trkpt>
      <trkpt lat="44.09271" lon="0.47306">
        <ele>96</ele>
        <time>2025-11-05T13:21:04.446Z</time>
      </trkpt>
      <trkpt lat="44.0927" lon="0.47306">
        <ele>96</ele>
        <time>2025-11-05T13:21:05.446Z</time>
      </trkpt>
      <trkpt lat="44.09269" lon="0.47306">
        <ele>96</ele>
        <time>2025-11-05T13:21:06.446Z</time>
      </trkpt>
      <trkpt lat="44.09268" lon="0.47305">
        <ele>96</ele>
        <time>2025-11-05T13:21:07.446Z</time>
      </trkpt>
      <trkpt lat="44.09267" lon="0.47304">
        <ele>96</ele>
        <time>2025-11-05T13:21:08.446Z</time>
      </trkpt>
      <trkpt lat="44.09266" lon="0.47304">
        <ele>96</ele>
        <time>2025-11-05T13:21:09.446Z</time>
      </trkpt>
      <trkpt lat="44.09265" lon="0.47303">
        <ele>96</ele>
        <time>2025-11-05T13:21:10.446Z</time>
      </trkpt>
      <trkpt lat="44.09264" lon="0.47302">
        <ele>96</ele>
        <time>2025-11-05T13:21:11.446Z</time>
      </trkpt>
      <trkpt lat="44.09263" lon="0.47302">
        <ele>96</ele>
        <time>2025-11-05T13:21:12.446Z</time>
      </trkpt>
      <trkpt lat="44.09262" lon="0.47301">
        <ele>96</ele>
        <time>2025-11-05T13:21:13.446Z</time>
      </trkpt>
      <trkpt lat="44.09261" lon="0.473">
        <ele>96</ele>
        <time>2025-11-05T13:21:14.446Z</time>
      </trkpt>
      <trkpt lat="44.0926" lon="0.47299">
        <ele>96</ele>
        <time>2025-11-05T13:21:15.446Z</time>
      </trkpt>
      <trkpt lat="44.09259" lon="0.47298">
        <ele>96</ele>
        <time>2025-11-05T13:21:16.446Z</time>
      </trkpt>
      <trkpt lat="44.09258" lon="0.47297">
        <ele>96</ele>
        <time>2025-11-05T13:21:17.446Z</time>
      </trkpt>
      <trkpt lat="44.09257" lon="0.47296">
        <ele>97</ele>
        <time>2025-11-05T13:21:18.446Z</time>
      </trkpt>
      <trkpt lat="44.09256" lon="0.47295">
        <ele>97</ele>
        <time>2025-11-05T13:21:19.447Z</time>
      </trkpt>
      <trkpt lat="44.09255" lon="0.47294">
        <ele>98</ele>
        <time>2025-11-05T13:21:20.446Z</time>
      </trkpt>
      <trkpt lat="44.09254" lon="0.47293">
        <ele>98</ele>
        <time>2025-11-05T13:21:21.446Z</time>
      </trkpt>
      <trkpt lat="44.09253" lon="0.47291">
        <ele>98</ele>
        <time>2025-11-05T13:21:22.446Z</time>
      </trkpt>
      <trkpt lat="44.09252" lon="0.4729">
        <ele>98</ele>
        <time>2025-11-05T13:21:23.446Z</time>
      </trkpt>
      <trkpt lat="44.09251" lon="0.47289">
        <ele>98</ele>
        <time>2025-11-05T13:21:24.446Z</time>
      </trkpt>
      <trkpt lat="44.0925" lon="0.47287">
        <ele>98</ele>
        <time>2025-11-05T13:21:25.446Z</time>
      </trkpt>
      <trkpt lat="44.09249" lon="0.47286">
        <ele>98</ele>
        <time>2025-11-05T13:21:26.446Z</time>
      </trkpt>
      <trkpt lat="44.09249" lon="0.47285">
        <ele>98</ele>
        <time>2025-11-05T13:21:27.446Z</time>
      </trkpt>
      <trkpt lat="44.09248" lon="0.47284">
        <ele>98</ele>
        <time>2025-11-05T13:21:28.446Z</time>
      </trkpt>
      <trkpt lat="44.09247" lon="0.47283">
        <ele>98</ele>
        <time>2025-11-05T13:21:29.446Z</time>
      </trkpt>
      <trkpt lat="44.09246" lon="0.47282">
        <ele>98</ele>
        <time>2025-11-05T13:21:30.446Z</time>
      </trkpt>
      <trkpt lat="44.09244" lon="0.47281">
        <ele>98</ele>
        <time>2025-11-05T13:21:31.446Z</time>
      </trkpt>
      <trkpt lat="44.09244" lon="0.4728">
        <ele>98</ele>
        <time>2025-11-05T13:21:32.446Z</time>
      </trkpt>
      <trkpt lat="44.09243" lon="0.4728">
        <ele>98</ele>
        <time>2025-11-05T13:21:33.446Z</time>
      </trkpt>
      <trkpt lat="44.09242" lon="0.4728">
        <ele>98</ele>
        <time>2025-11-05T13:21:34.446Z</time>
      </trkpt>
      <trkpt lat="44.09241" lon="0.47279">
        <ele>99</ele>
        <time>2025-11-05T13:21:35.446Z</time>
      </trkpt>
      <trkpt lat="44.0924" lon="0.47279">
        <ele>99</ele>
        <time>2025-11-05T13:21:36.446Z</time>
      </trkpt>
      <trkpt lat="44.09239" lon="0.47279">
        <ele>99</ele>
        <time>2025-11-05T13:21:37.446Z</time>
      </trkpt>
      <trkpt lat="44.09238" lon="0.47279">
        <ele>100</ele>
        <time>2025-11-05T13:21:38.446Z</time>
      </trkpt>
      <trkpt lat="44.09237" lon="0.47279">
        <ele>100</ele>
        <time>2025-11-05T13:21:39.446Z</time>
      </trkpt>
      <trkpt lat="44.09236" lon="0.47279">
        <ele>100</ele>
        <time>2025-11-05T13:21:40.446Z</time>
      </trkpt>
      <trkpt lat="44.09235" lon="0.47279">
        <ele>100</ele>
        <time>2025-11-05T13:21:41.446Z</time>
      </trkpt>
      <trkpt lat="44.09234" lon="0.47279">
        <ele>100</ele>
        <time>2025-11-05T13:21:42.446Z</time>
      </trkpt>
      <trkpt lat="44.09233" lon="0.47279">
        <ele>100</ele>
        <time>2025-11-05T13:21:43.446Z</time>
      </trkpt>
      <trkpt lat="44.09232" lon="0.4728">
        <ele>100</ele>
        <time>2025-11-05T13:21:44.446Z</time>
      </trkpt>
      <trkpt lat="44.09231" lon="0.47281">
        <ele>100</ele>
        <time>2025-11-05T13:21:45.446Z</time>
      </trkpt>
      <trkpt lat="44.0923" lon="0.47281">
        <ele>100</ele>
        <time>2025-11-05T13:21:46.446Z</time>
      </trkpt>
      <trkpt lat="44.09228" lon="0.47282">
        <ele>100</ele>
        <time>2025-11-05T13:21:47.446Z</time>
      </trkpt>
      <trkpt lat="44.09227" lon="0.47283">
        <ele>100</ele>
        <time>2025-11-05T13:21:48.446Z</time>
      </trkpt>
      <trkpt lat="44.09226" lon="0.47283">
        <ele>100</ele>
        <time>2025-11-05T13:21:49.446Z</time>
      </trkpt>
      <trkpt lat="44.09225" lon="0.47284">
        <ele>100</ele>
        <time>2025-11-05T13:21:50.446Z</time>
      </trkpt>
      <trkpt lat="44.09224" lon="0.47285">
        <ele>100</ele>
        <time>2025-11-05T13:21:51.446Z</time>
      </trkpt>
      <trkpt lat="44.09223" lon="0.47285">
        <ele>100</ele>
        <time>2025-11-05T13:21:52.446Z</time>
      </trkpt>
      <trkpt lat="44.09222" lon="0.47286">
        <ele>100</ele>
        <time>2025-11-05T13:21:53.446Z</time>
      </trkpt>
      <trkpt lat="44.0922" lon="0.47287">
        <ele>99</ele>
        <time>2025-11-05T13:21:54.446Z</time>
      </trkpt>
      <trkpt lat="44.09219" lon="0.47287">
        <ele>99</ele>
        <time>2025-11-05T13:21:55.446Z</time>
      </trkpt>
      <trkpt lat="44.09219" lon="0.47288">
        <ele>99</ele>
        <time>2025-11-05T13:21:56.446Z</time>
      </trkpt>
      <trkpt lat="44.09218" lon="0.47289">
        <ele>99</ele>
        <time>2025-11-05T13:21:57.446Z</time>
      </trkpt>
      <trkpt lat="44.09217" lon="0.4729">
        <ele>98</ele>
        <time>2025-11-05T13:21:58.446Z</time>
      </trkpt>
      <trkpt lat="44.09216" lon="0.47291">
        <ele>98</ele>
        <time>2025-11-05T13:21:59.446Z</time>
      </trkpt>
      <trkpt lat="44.09215" lon="0.47292">
        <ele>98</ele>
        <time>2025-11-05T13:22:00.446Z</time>
      </trkpt>
      <trkpt lat="44.09214" lon="0.47293">
        <ele>98</ele>
        <time>2025-11-05T13:22:01.446Z</time>
      </trkpt>
      <trkpt lat="44.09213" lon="0.47295">
        <ele>98</ele>
        <time>2025-11-05T13:22:02.446Z</time>
      </trkpt>
      <trkpt lat="44.09212" lon="0.47295">
        <ele>98</ele>
        <time>2025-11-05T13:22:03.446Z</time>
      </trkpt>
      <trkpt lat="44.09211" lon="0.47296">
        <ele>98</ele>
        <time>2025-11-05T13:22:04.446Z</time>
      </trkpt>
      <trkpt lat="44.0921" lon="0.47296">
        <ele>98</ele>
        <time>2025-11-05T13:22:05.446Z</time>
      </trkpt>
      <trkpt lat="44.0921" lon="0.47297">
        <ele>98</ele>
        <time>2025-11-05T13:22:06.446Z</time>
      </trkpt>
      <trkpt lat="44.09209" lon="0.47297">
        <ele>98</ele>
        <time>2025-11-05T13:22:07.446Z</time>
      </trkpt>
      <trkpt lat="44.09209" lon="0.47298">
        <ele>97</ele>
        <time>2025-11-05T13:22:08.446Z</time>
      </trkpt>
      <trkpt lat="44.09208" lon="0.47298">
        <ele>97</ele>
        <time>2025-11-05T13:22:09.446Z</time>
      </trkpt>
      <trkpt lat="44.09208" lon="0.47298">
        <ele>97</ele>
        <time>2025-11-05T13:22:10.446Z</time>
      </trkpt>
      <trkpt lat="44.09208" lon="0.47298">
        <ele>98</ele>
        <time>2025-11-05T13:22:11.447Z</time>
      </trkpt>
      <trkpt lat="44.09208" lon="0.47298">
        <ele>98</ele>
        <time>2025-11-05T13:22:12.446Z</time>
      </trkpt>
      <trkpt lat="44.09208" lon="0.47299">
        <ele>98</ele>
        <time>2025-11-05T13:22:13.446Z</time>
      </trkpt>
      <trkpt lat="44.09208" lon="0.47299">
        <ele>98</ele>
        <time>2025-11-05T13:22:14.446Z</time>
      </trkpt>
      <trkpt lat="44.09208" lon="0.473">
        <ele>98</ele>
        <time>2025-11-05T13:22:15.446Z</time>
      </trkpt>
      <trkpt lat="44.09208" lon="0.47301">
        <ele>98</ele>
        <time>2025-11-05T13:22:16.446Z</time>
      </trkpt>
      <trkpt lat="44.09208" lon="0.47301">
        <ele>98</ele>
        <time>2025-11-05T13:22:17.446Z</time>
      </trkpt>
      <trkpt lat="44.09207" lon="0.47302">
        <ele>98</ele>
        <time>2025-11-05T13:22:18.446Z</time>
      </trkpt>
      <trkpt lat="44.09207" lon="0.47303">
        <ele>98</ele>
        <time>2025-11-05T13:22:19.446Z</time>
      </trkpt>
      <trkpt lat="44.09206" lon="0.47303">
        <ele>98</ele>
        <time>2025-11-05T13:22:20.446Z</time>
      </trkpt>
      <trkpt lat="44.09205" lon="0.47304">
        <ele>98</ele>
        <time>2025-11-05T13:22:21.446Z</time>
      </trkpt>
      <trkpt lat="44.09204" lon="0.47305">
        <ele>98</ele>
        <time>2025-11-05T13:22:22.446Z</time>
      </trkpt>
      <trkpt lat="44.09203" lon="0.47306">
        <ele>98</ele>
        <time>2025-11-05T13:22:23.446Z</time>
      </trkpt>
      <trkpt lat="44.09203" lon="0.47306">
        <ele>98</ele>
        <time>2025-11-05T13:22:24.446Z</time>
      </trkpt>
      <trkpt lat="44.09202" lon="0.47307">
        <ele>98</ele>
        <time>2025-11-05T13:22:25.446Z</time>
      </trkpt>
      <trkpt lat="44.09202" lon="0.47309">
        <ele>98</ele>
        <time>2025-11-05T13:22:26.446Z</time>
      </trkpt>
      <trkpt lat="44.09201" lon="0.4731">
        <ele>98</ele>
        <time>2025-11-05T13:22:27.446Z</time>
      </trkpt>
      <trkpt lat="44.09201" lon="0.47311">
        <ele>98</ele>
        <time>2025-11-05T13:22:28.446Z</time>
      </trkpt>
      <trkpt lat="44.092" lon="0.47312">
        <ele>98</ele>
        <time>2025-11-05T13:22:29.446Z</time>
      </trkpt>
      <trkpt lat="44.09199" lon="0.47314">
        <ele>98</ele>
        <time>2025-11-05T13:22:30.446Z</time>
      </trkpt>
      <trkpt lat="44.09198" lon="0.47315">
        <ele>98</ele>
        <time>2025-11-05T13:22:31.446Z</time>
      </trkpt>
      <trkpt lat="44.09198" lon="0.47315">
        <ele>98</ele>
        <time>2025-11-05T13:22:32.446Z</time>
      </trkpt>
      <trkpt lat="44.09197" lon="0.47316">
        <ele>98</ele>
        <time>2025-11-05T13:22:33.446Z</time>
      </trkpt>
      <trkpt lat="44.09195" lon="0.47318">
        <ele>98</ele>
        <time>2025-11-05T13:22:34.446Z</time>
      </trkpt>
      <trkpt lat="44.09194" lon="0.47319">
        <ele>97</ele>
        <time>2025-11-05T13:22:35.446Z</time>
      </trkpt>
      <trkpt lat="44.09194" lon="0.4732">
        <ele>98</ele>
        <time>2025-11-05T13:22:36.446Z</time>
      </trkpt>
      <trkpt lat="44.09193" lon="0.47321">
        <ele>98</ele>
        <time>2025-11-05T13:22:37.446Z</time>
      </trkpt>
      <trkpt lat="44.09192" lon="0.47322">
        <ele>98</ele>
        <time>2025-11-05T13:22:38.446Z</time>
      </trkpt>
      <trkpt lat="44.09191" lon="0.47323">
        <ele>98</ele>
        <time>2025-11-05T13:22:39.446Z</time>
      </trkpt>
      <trkpt lat="44.0919" lon="0.47324">
        <ele>98</ele>
        <time>2025-11-05T13:22:40.446Z</time>
      </trkpt>
      <trkpt lat="44.09189" lon="0.47325">
        <ele>97</ele>
        <time>2025-11-05T13:22:41.446Z</time>
      </trkpt>
      <trkpt lat="44.09188" lon="0.47326">
        <ele>97</ele>
        <time>2025-11-05T13:22:42.446Z</time>
      </trkpt>
      <trkpt lat="44.09187" lon="0.47327">
        <ele>97</ele>
        <time>2025-11-05T13:22:43.446Z</time>
      </trkpt>
      <trkpt lat="44.09186" lon="0.47329">
        <ele>97</ele>
        <time>2025-11-05T13:22:44.446Z</time>
      </trkpt>
      <trkpt lat="44.09185" lon="0.4733">
        <ele>97</ele>
        <time>2025-11-05T13:22:45.446Z</time>
      </trkpt>
      <trkpt lat="44.09184" lon="0.47331">
        <ele>97</ele>
        <time>2025-11-05T13:22:46.446Z</time>
      </trkpt>
      <trkpt lat="44.09183" lon="0.47332">
        <ele>97</ele>
        <time>2025-11-05T13:22:47.446Z</time>
      </trkpt>
      <trkpt lat="44.09182" lon="0.47334">
        <ele>96</ele>
        <time>2025-11-05T13:22:48.446Z</time>
      </trkpt>
      <trkpt lat="44.09181" lon="0.47335">
        <ele>96</ele>
        <time>2025-11-05T13:22:49.446Z</time>
      </trkpt>
      <trkpt lat="44.0918" lon="0.47336">
        <ele>96</ele>
        <time>2025-11-05T13:22:50.446Z</time>
      </trkpt>
      <trkpt lat="44.09179" lon="0.47337">
        <ele>96</ele>
        <time>2025-11-05T13:22:51.446Z</time>
      </trkpt>
      <trkpt lat="44.09178" lon="0.47338">
        <ele>96</ele>
        <time>2025-11-05T13:22:52.446Z</time>
      </trkpt>
      <trkpt lat="44.09177" lon="0.47339">
        <ele>95</ele>
        <time>2025-11-05T13:22:53.446Z</time>
      </trkpt>
      <trkpt lat="44.09177" lon="0.47341">
        <ele>95</ele>
        <time>2025-11-05T13:22:54.446Z</time>
      </trkpt>
      <trkpt lat="44.09176" lon="0.47342">
        <ele>95</ele>
        <time>2025-11-05T13:22:55.446Z</time>
      </trkpt>
      <trkpt lat="44.09175" lon="0.47343">
        <ele>95</ele>
        <time>2025-11-05T13:22:56.446Z</time>
      </trkpt>
      <trkpt lat="44.09175" lon="0.47344">
        <ele>95</ele>
        <time>2025-11-05T13:22:57.446Z</time>
      </trkpt>
      <trkpt lat="44.09174" lon="0.47345">
        <ele>95</ele>
        <time>2025-11-05T13:22:58.446Z</time>
      </trkpt>
      <trkpt lat="44.09173" lon="0.47347">
        <ele>95</ele>
        <time>2025-11-05T13:22:59.446Z</time>
      </trkpt>
      <trkpt lat="44.09172" lon="0.47347">
        <ele>95</ele>
        <time>2025-11-05T13:23:00.446Z</time>
      </trkpt>
      <trkpt lat="44.09171" lon="0.47348">
        <ele>95</ele>
        <time>2025-11-05T13:23:01.446Z</time>
      </trkpt>
      <trkpt lat="44.0917" lon="0.47349">
        <ele>96</ele>
        <time>2025-11-05T13:23:02.446Z</time>
      </trkpt>
      <trkpt lat="44.09169" lon="0.4735">
        <ele>96</ele>
        <time>2025-11-05T13:23:03.446Z</time>
      </trkpt>
      <trkpt lat="44.09169" lon="0.47351">
        <ele>96</ele>
        <time>2025-11-05T13:23:04.446Z</time>
      </trkpt>
      <trkpt lat="44.09168" lon="0.47353">
        <ele>96</ele>
        <time>2025-11-05T13:23:05.446Z</time>
      </trkpt>
      <trkpt lat="44.09167" lon="0.47354">
        <ele>96</ele>
        <time>2025-11-05T13:23:06.446Z</time>
      </trkpt>
      <trkpt lat="44.09166" lon="0.47355">
        <ele>97</ele>
        <time>2025-11-05T13:23:07.446Z</time>
      </trkpt>
      <trkpt lat="44.09165" lon="0.47356">
        <ele>97</ele>
        <time>2025-11-05T13:23:08.446Z</time>
      </trkpt>
      <trkpt lat="44.09165" lon="0.47357">
        <ele>97</ele>
        <time>2025-11-05T13:23:09.446Z</time>
      </trkpt>
      <trkpt lat="44.09164" lon="0.47358">
        <ele>97</ele>
        <time>2025-11-05T13:23:10.446Z</time>
      </trkpt>
      <trkpt lat="44.09163" lon="0.47359">
        <ele>97</ele>
        <time>2025-11-05T13:23:11.446Z</time>
      </trkpt>
      <trkpt lat="44.09162" lon="0.4736">
        <ele>97</ele>
        <time>2025-11-05T13:23:12.446Z</time>
      </trkpt>
      <trkpt lat="44.09161" lon="0.47362">
        <ele>97</ele>
        <time>2025-11-05T13:23:13.446Z</time>
      </trkpt>
      <trkpt lat="44.0916" lon="0.47363">
        <ele>97</ele>
        <time>2025-11-05T13:23:14.446Z</time>
      </trkpt>
      <trkpt lat="44.09159" lon="0.47364">
        <ele>96</ele>
        <time>2025-11-05T13:23:15.446Z</time>
      </trkpt>
      <trkpt lat="44.09158" lon="0.47366">
        <ele>96</ele>
        <time>2025-11-05T13:23:16.446Z</time>
      </trkpt>
      <trkpt lat="44.09156" lon="0.47367">
        <ele>95</ele>
        <time>2025-11-05T13:23:17.446Z</time>
      </trkpt>
      <trkpt lat="44.09155" lon="0.47368">
        <ele>94</ele>
        <time>2025-11-05T13:23:18.446Z</time>
      </trkpt>
      <trkpt lat="44.09154" lon="0.47369">
        <ele>94</ele>
        <time>2025-11-05T13:23:19.446Z</time>
      </trkpt>
      <trkpt lat="44.09154" lon="0.4737">
        <ele>94</ele>
        <time>2025-11-05T13:23:20.446Z</time>
      </trkpt>
      <trkpt lat="44.09153" lon="0.47371">
        <ele>94</ele>
        <time>2025-11-05T13:23:21.446Z</time>
      </trkpt>
      <trkpt lat="44.09152" lon="0.47372">
        <ele>94</ele>
        <time>2025-11-05T13:23:22.446Z</time>
      </trkpt>
      <trkpt lat="44.09151" lon="0.47373">
        <ele>94</ele>
        <time>2025-11-05T13:23:23.446Z</time>
      </trkpt>
      <trkpt lat="44.0915" lon="0.47375">
        <ele>94</ele>
        <time>2025-11-05T13:23:24.446Z</time>
      </trkpt>
      <trkpt lat="44.09149" lon="0.47376">
        <ele>94</ele>
        <time>2025-11-05T13:23:25.446Z</time>
      </trkpt>
      <trkpt lat="44.09148" lon="0.47377">
        <ele>94</ele>
        <time>2025-11-05T13:23:26.446Z</time>
      </trkpt>
      <trkpt lat="44.09147" lon="0.47378">
        <ele>94</ele>
        <time>2025-11-05T13:23:27.446Z</time>
      </trkpt>
      <trkpt lat="44.09146" lon="0.47379">
        <ele>94</ele>
        <time>2025-11-05T13:23:28.446Z</time>
      </trkpt>
      <trkpt lat="44.09145" lon="0.4738">
        <ele>94</ele>
        <time>2025-11-05T13:23:29.446Z</time>
      </trkpt>
      <trkpt lat="44.09144" lon="0.47381">
        <ele>94</ele>
        <time>2025-11-05T13:23:30.446Z</time>
      </trkpt>
      <trkpt lat="44.09142" lon="0.47382">
        <ele>94</ele>
        <time>2025-11-05T13:23:31.446Z</time>
      </trkpt>
      <trkpt lat="44.09142" lon="0.47383">
        <ele>94</ele>
        <time>2025-11-05T13:23:32.446Z</time>
      </trkpt>
      <trkpt lat="44.09141" lon="0.47384">
        <ele>94</ele>
        <time>2025-11-05T13:23:33.446Z</time>
      </trkpt>
      <trkpt lat="44.0914" lon="0.47385">
        <ele>94</ele>
        <time>2025-11-05T13:23:34.446Z</time>
      </trkpt>
      <trkpt lat="44.09139" lon="0.47386">
        <ele>94</ele>
        <time>2025-11-05T13:23:35.446Z</time>
      </trkpt>
      <trkpt lat="44.09138" lon="0.47387">
        <ele>94</ele>
        <time>2025-11-05T13:23:36.446Z</time>
      </trkpt>
      <trkpt lat="44.09137" lon="0.47388">
        <ele>94</ele>
        <time>2025-11-05T13:23:37.446Z</time>
      </trkpt>
      <trkpt lat="44.09136" lon="0.47389">
        <ele>94</ele>
        <time>2025-11-05T13:23:38.446Z</time>
      </trkpt>
      <trkpt lat="44.09134" lon="0.4739">
        <ele>94</ele>
        <time>2025-11-05T13:23:39.446Z</time>
      </trkpt>
      <trkpt lat="44.09133" lon="0.47391">
        <ele>94</ele>
        <time>2025-11-05T13:23:40.446Z</time>
      </trkpt>
      <trkpt lat="44.09132" lon="0.47392">
        <ele>94</ele>
        <time>2025-11-05T13:23:41.446Z</time>
      </trkpt>
      <trkpt lat="44.09132" lon="0.47393">
        <ele>93</ele>
        <time>2025-11-05T13:23:42.446Z</time>
      </trkpt>
      <trkpt lat="44.09131" lon="0.47394">
        <ele>94</ele>
        <time>2025-11-05T13:23:43.446Z</time>
      </trkpt>
      <trkpt lat="44.0913" lon="0.47395">
        <ele>94</ele>
        <time>2025-11-05T13:23:44.446Z</time>
      </trkpt>
      <trkpt lat="44.09129" lon="0.47396">
        <ele>94</ele>
        <time>2025-11-05T13:23:45.446Z</time>
      </trkpt>
      <trkpt lat="44.09128" lon="0.47397">
        <ele>94</ele>
        <time>2025-11-05T13:23:46.446Z</time>
      </trkpt>
      <trkpt lat="44.09127" lon="0.47398">
        <ele>94</ele>
        <time>2025-11-05T13:23:47.446Z</time>
      </trkpt>
      <trkpt lat="44.09126" lon="0.47399">
        <ele>94</ele>
        <time>2025-11-05T13:23:48.446Z</time>
      </trkpt>
      <trkpt lat="44.09125" lon="0.47399">
        <ele>94</ele>
        <time>2025-11-05T13:23:49.446Z</time>
      </trkpt>
      <trkpt lat="44.09123" lon="0.474">
        <ele>94</ele>
        <time>2025-11-05T13:23:50.446Z</time>
      </trkpt>
      <trkpt lat="44.09122" lon="0.47401">
        <ele>93</ele>
        <time>2025-11-05T13:23:51.447Z</time>
      </trkpt>
      <trkpt lat="44.09121" lon="0.47402">
        <ele>93</ele>
        <time>2025-11-05T13:23:52.446Z</time>
      </trkpt>
      <trkpt lat="44.0912" lon="0.47403">
        <ele>93</ele>
        <time>2025-11-05T13:23:53.446Z</time>
      </trkpt>
      <trkpt lat="44.09119" lon="0.47404">
        <ele>93</ele>
        <time>2025-11-05T13:23:54.446Z</time>
      </trkpt>
      <trkpt lat="44.09118" lon="0.47404">
        <ele>92</ele>
        <time>2025-11-05T13:23:55.446Z</time>
      </trkpt>
      <trkpt lat="44.09117" lon="0.47405">
        <ele>92</ele>
        <time>2025-11-05T13:23:56.446Z</time>
      </trkpt>
      <trkpt lat="44.09116" lon="0.47406">
        <ele>92</ele>
        <time>2025-11-05T13:23:57.446Z</time>
      </trkpt>
      <trkpt lat="44.09115" lon="0.47407">
        <ele>92</ele>
        <time>2025-11-05T13:23:58.446Z</time>
      </trkpt>
      <trkpt lat="44.09114" lon="0.47408">
        <ele>92</ele>
        <time>2025-11-05T13:23:59.446Z</time>
      </trkpt>
      <trkpt lat="44.09113" lon="0.47409">
        <ele>92</ele>
        <time>2025-11-05T13:24:00.446Z</time>
      </trkpt>
      <trkpt lat="44.09112" lon="0.47409">
        <ele>92</ele>
        <time>2025-11-05T13:24:01.446Z</time>
      </trkpt>
      <trkpt lat="44.09111" lon="0.47411">
        <ele>92</ele>
        <time>2025-11-05T13:24:02.446Z</time>
      </trkpt>
      <trkpt lat="44.0911" lon="0.47412">
        <ele>92</ele>
        <time>2025-11-05T13:24:03.446Z</time>
      </trkpt>
      <trkpt lat="44.09108" lon="0.47413">
        <ele>92</ele>
        <time>2025-11-05T13:24:04.446Z</time>
      </trkpt>
      <trkpt lat="44.09107" lon="0.47413">
        <ele>92</ele>
        <time>2025-11-05T13:24:05.446Z</time>
      </trkpt>
      <trkpt lat="44.09106" lon="0.47414">
        <ele>92</ele>
        <time>2025-11-05T13:24:06.446Z</time>
      </trkpt>
      <trkpt lat="44.09105" lon="0.47415">
        <ele>92</ele>
        <time>2025-11-05T13:24:07.446Z</time>
      </trkpt>
      <trkpt lat="44.09104" lon="0.47416">
        <ele>92</ele>
        <time>2025-11-05T13:24:08.446Z</time>
      </trkpt>
      <trkpt lat="44.09103" lon="0.47417">
        <ele>92</ele>
        <time>2025-11-05T13:24:09.446Z</time>
      </trkpt>
      <trkpt lat="44.09102" lon="0.47417">
        <ele>92</ele>
        <time>2025-11-05T13:24:10.446Z</time>
      </trkpt>
      <trkpt lat="44.09101" lon="0.47418">
        <ele>92</ele>
        <time>2025-11-05T13:24:11.446Z</time>
      </trkpt>
      <trkpt lat="44.09099" lon="0.47419">
        <ele>92</ele>
        <time>2025-11-05T13:24:12.446Z</time>
      </trkpt>
      <trkpt lat="44.09098" lon="0.4742">
        <ele>92</ele>
        <time>2025-11-05T13:24:13.446Z</time>
      </trkpt>
      <trkpt lat="44.09097" lon="0.47421">
        <ele>92</ele>
        <time>2025-11-05T13:24:14.446Z</time>
      </trkpt>
      <trkpt lat="44.09095" lon="0.47422">
        <ele>92</ele>
        <time>2025-11-05T13:24:15.446Z</time>
      </trkpt>
      <trkpt lat="44.09094" lon="0.47422">
        <ele>92</ele>
        <time>2025-11-05T13:24:16.446Z</time>
      </trkpt>
      <trkpt lat="44.09093" lon="0.47423">
        <ele>93</ele>
        <time>2025-11-05T13:24:17.446Z</time>
      </trkpt>
      <trkpt lat="44.09092" lon="0.47424">
        <ele>93</ele>
        <time>2025-11-05T13:24:18.446Z</time>
      </trkpt>
      <trkpt lat="44.09091" lon="0.47425">
        <ele>93</ele>
        <time>2025-11-05T13:24:19.446Z</time>
      </trkpt>
      <trkpt lat="44.0909" lon="0.47426">
        <ele>93</ele>
        <time>2025-11-05T13:24:20.446Z</time>
      </trkpt>
      <trkpt lat="44.09089" lon="0.47427">
        <ele>93</ele>
        <time>2025-11-05T13:24:21.446Z</time>
      </trkpt>
      <trkpt lat="44.09088" lon="0.47427">
        <ele>93</ele>
        <time>2025-11-05T13:24:22.446Z</time>
      </trkpt>
      <trkpt lat="44.09087" lon="0.47428">
        <ele>93</ele>
        <time>2025-11-05T13:24:23.446Z</time>
      </trkpt>
      <trkpt lat="44.09086" lon="0.47429">
        <ele>93</ele>
        <time>2025-11-05T13:24:24.446Z</time>
      </trkpt>
      <trkpt lat="44.09085" lon="0.47429">
        <ele>93</ele>
        <time>2025-11-05T13:24:25.446Z</time>
      </trkpt>
      <trkpt lat="44.09084" lon="0.4743">
        <ele>93</ele>
        <time>2025-11-05T13:24:26.446Z</time>
      </trkpt>
      <trkpt lat="44.09084" lon="0.47431">
        <ele>93</ele>
        <time>2025-11-05T13:24:27.446Z</time>
      </trkpt>
      <trkpt lat="44.09083" lon="0.47432">
        <ele>93</ele>
        <time>2025-11-05T13:24:28.446Z</time>
      </trkpt>
      <trkpt lat="44.09081" lon="0.47433">
        <ele>93</ele>
        <time>2025-11-05T13:24:29.446Z</time>
      </trkpt>
      <trkpt lat="44.0908" lon="0.47434">
        <ele>93</ele>
        <time>2025-11-05T13:24:30.446Z</time>
      </trkpt>
      <trkpt lat="44.09079" lon="0.47435">
        <ele>92</ele>
        <time>2025-11-05T13:24:31.446Z</time>
      </trkpt>
      <trkpt lat="44.09078" lon="0.47436">
        <ele>93</ele>
        <time>2025-11-05T13:24:32.446Z</time>
      </trkpt>
      <trkpt lat="44.09077" lon="0.47437">
        <ele>93</ele>
        <time>2025-11-05T13:24:33.446Z</time>
      </trkpt>
      <trkpt lat="44.09076" lon="0.47438">
        <ele>93</ele>
        <time>2025-11-05T13:24:34.446Z</time>
      </trkpt>
      <trkpt lat="44.09075" lon="0.47439">
        <ele>93</ele>
        <time>2025-11-05T13:24:35.446Z</time>
      </trkpt>
      <trkpt lat="44.09074" lon="0.4744">
        <ele>93</ele>
        <time>2025-11-05T13:24:36.446Z</time>
      </trkpt>
      <trkpt lat="44.09073" lon="0.4744">
        <ele>93</ele>
        <time>2025-11-05T13:24:37.446Z</time>
      </trkpt>
      <trkpt lat="44.09071" lon="0.47441">
        <ele>93</ele>
        <time>2025-11-05T13:24:38.446Z</time>
      </trkpt>
      <trkpt lat="44.0907" lon="0.47442">
        <ele>93</ele>
        <time>2025-11-05T13:24:39.446Z</time>
      </trkpt>
      <trkpt lat="44.09069" lon="0.47443">
        <ele>93</ele>
        <time>2025-11-05T13:24:40.446Z</time>
      </trkpt>
      <trkpt lat="44.09068" lon="0.47443">
        <ele>93</ele>
        <time>2025-11-05T13:24:41.446Z</time>
      </trkpt>
      <trkpt lat="44.09066" lon="0.47444">
        <ele>93</ele>
        <time>2025-11-05T13:24:42.446Z</time>
      </trkpt>
      <trkpt lat="44.09065" lon="0.47445">
        <ele>93</ele>
        <time>2025-11-05T13:24:43.446Z</time>
      </trkpt>
      <trkpt lat="44.09064" lon="0.47446">
        <ele>93</ele>
        <time>2025-11-05T13:24:44.446Z</time>
      </trkpt>
      <trkpt lat="44.09063" lon="0.47447">
        <ele>93</ele>
        <time>2025-11-05T13:24:45.446Z</time>
      </trkpt>
      <trkpt lat="44.09062" lon="0.47448">
        <ele>93</ele>
        <time>2025-11-05T13:24:46.446Z</time>
      </trkpt>
      <trkpt lat="44.09061" lon="0.47448">
        <ele>93</ele>
        <time>2025-11-05T13:24:47.446Z</time>
      </trkpt>
      <trkpt lat="44.0906" lon="0.47449">
        <ele>93</ele>
        <time>2025-11-05T13:24:48.446Z</time>
      </trkpt>
      <trkpt lat="44.09059" lon="0.4745">
        <ele>93</ele>
        <time>2025-11-05T13:24:49.446Z</time>
      </trkpt>
      <trkpt lat="44.09057" lon="0.47451">
        <ele>93</ele>
        <time>2025-11-05T13:24:50.446Z</time>
      </trkpt>
      <trkpt lat="44.09056" lon="0.47451">
        <ele>93</ele>
        <time>2025-11-05T13:24:51.446Z</time>
      </trkpt>
      <trkpt lat="44.09055" lon="0.47452">
        <ele>93</ele>
        <time>2025-11-05T13:24:52.446Z</time>
      </trkpt>
      <trkpt lat="44.09054" lon="0.47453">
        <ele>93</ele>
        <time>2025-11-05T13:24:53.446Z</time>
      </trkpt>
      <trkpt lat="44.09053" lon="0.47454">
        <ele>94</ele>
        <time>2025-11-05T13:24:54.446Z</time>
      </trkpt>
      <trkpt lat="44.09051" lon="0.47454">
        <ele>94</ele>
        <time>2025-11-05T13:24:55.446Z</time>
      </trkpt>
      <trkpt lat="44.0905" lon="0.47455">
        <ele>94</ele>
        <time>2025-11-05T13:24:56.446Z</time>
      </trkpt>
      <trkpt lat="44.09049" lon="0.47456">
        <ele>94</ele>
        <time>2025-11-05T13:24:57.446Z</time>
      </trkpt>
      <trkpt lat="44.09048" lon="0.47457">
        <ele>94</ele>
        <time>2025-11-05T13:24:58.446Z</time>
      </trkpt>
      <trkpt lat="44.09048" lon="0.47458">
        <ele>94</ele>
        <time>2025-11-05T13:24:59.446Z</time>
      </trkpt>
      <trkpt lat="44.09047" lon="0.47459">
        <ele>94</ele>
        <time>2025-11-05T13:25:00.446Z</time>
      </trkpt>
      <trkpt lat="44.09045" lon="0.47461">
        <ele>94</ele>
        <time>2025-11-05T13:25:01.446Z</time>
      </trkpt>
      <trkpt lat="44.09044" lon="0.47462">
        <ele>94</ele>
        <time>2025-11-05T13:25:02.446Z</time>
      </trkpt>
      <trkpt lat="44.09043" lon="0.47463">
        <ele>94</ele>
        <time>2025-11-05T13:25:03.446Z</time>
      </trkpt>
      <trkpt lat="44.09042" lon="0.47465">
        <ele>95</ele>
        <time>2025-11-05T13:25:04.446Z</time>
      </trkpt>
      <trkpt lat="44.0904" lon="0.47466">
        <ele>95</ele>
        <time>2025-11-05T13:25:05.446Z</time>
      </trkpt>
      <trkpt lat="44.09039" lon="0.47467">
        <ele>94</ele>
        <time>2025-11-05T13:25:06.446Z</time>
      </trkpt>
      <trkpt lat="44.09038" lon="0.47468">
        <ele>94</ele>
        <time>2025-11-05T13:25:07.446Z</time>
      </trkpt>
      <trkpt lat="44.09037" lon="0.47469">
        <ele>94</ele>
        <time>2025-11-05T13:25:08.446Z</time>
      </trkpt>
      <trkpt lat="44.09036" lon="0.4747">
        <ele>94</ele>
        <time>2025-11-05T13:25:09.446Z</time>
      </trkpt>
      <trkpt lat="44.09035" lon="0.47471">
        <ele>94</ele>
        <time>2025-11-05T13:25:10.446Z</time>
      </trkpt>
      <trkpt lat="44.09034" lon="0.47472">
        <ele>94</ele>
        <time>2025-11-05T13:25:11.446Z</time>
      </trkpt>
      <trkpt lat="44.09033" lon="0.47473">
        <ele>94</ele>
        <time>2025-11-05T13:25:12.447Z</time>
      </trkpt>
      <trkpt lat="44.09032" lon="0.47474">
        <ele>94</ele>
        <time>2025-11-05T13:25:13.446Z</time>
      </trkpt>
      <trkpt lat="44.09031" lon="0.47474">
        <ele>94</ele>
        <time>2025-11-05T13:25:14.446Z</time>
      </trkpt>
      <trkpt lat="44.09029" lon="0.47475">
        <ele>94</ele>
        <time>2025-11-05T13:25:15.446Z</time>
      </trkpt>
      <trkpt lat="44.09028" lon="0.47476">
        <ele>94</ele>
        <time>2025-11-05T13:25:16.446Z</time>
      </trkpt>
      <trkpt lat="44.09027" lon="0.47477">
        <ele>94</ele>
        <time>2025-11-05T13:25:17.446Z</time>
      </trkpt>
      <trkpt lat="44.09026" lon="0.47478">
        <ele>94</ele>
        <time>2025-11-05T13:25:18.446Z</time>
      </trkpt>
      <trkpt lat="44.09024" lon="0.4748">
        <ele>94</ele>
        <time>2025-11-05T13:25:19.446Z</time>
      </trkpt>
      <trkpt lat="44.09023" lon="0.47481">
        <ele>94</ele>
        <time>2025-11-05T13:25:20.446Z</time>
      </trkpt>
      <trkpt lat="44.09022" lon="0.47482">
        <ele>93</ele>
        <time>2025-11-05T13:25:21.446Z</time>
      </trkpt>
      <trkpt lat="44.09021" lon="0.47483">
        <ele>93</ele>
        <time>2025-11-05T13:25:22.446Z</time>
      </trkpt>
      <trkpt lat="44.0902" lon="0.47484">
        <ele>93</ele>
        <time>2025-11-05T13:25:23.446Z</time>
      </trkpt>
      <trkpt lat="44.09019" lon="0.47484">
        <ele>93</ele>
        <time>2025-11-05T13:25:24.446Z</time>
      </trkpt>
      <trkpt lat="44.09018" lon="0.47485">
        <ele>93</ele>
        <time>2025-11-05T13:25:25.446Z</time>
      </trkpt>
      <trkpt lat="44.09017" lon="0.47486">
        <ele>93</ele>
        <time>2025-11-05T13:25:26.446Z</time>
      </trkpt>
      <trkpt lat="44.09016" lon="0.47487">
        <ele>93</ele>
        <time>2025-11-05T13:25:27.446Z</time>
      </trkpt>
      <trkpt lat="44.09015" lon="0.47489">
        <ele>93</ele>
        <time>2025-11-05T13:25:28.446Z</time>
      </trkpt>
      <trkpt lat="44.09013" lon="0.4749">
        <ele>93</ele>
        <time>2025-11-05T13:25:29.446Z</time>
      </trkpt>
      <trkpt lat="44.09012" lon="0.47491">
        <ele>93</ele>
        <time>2025-11-05T13:25:30.446Z</time>
      </trkpt>
      <trkpt lat="44.09011" lon="0.47492">
        <ele>93</ele>
        <time>2025-11-05T13:25:31.446Z</time>
      </trkpt>
      <trkpt lat="44.0901" lon="0.47493">
        <ele>93</ele>
        <time>2025-11-05T13:25:32.446Z</time>
      </trkpt>
      <trkpt lat="44.09009" lon="0.47493">
        <ele>92</ele>
        <time>2025-11-05T13:25:33.446Z</time>
      </trkpt>
      <trkpt lat="44.09008" lon="0.47494">
        <ele>92</ele>
        <time>2025-11-05T13:25:34.446Z</time>
      </trkpt>
      <trkpt lat="44.09007" lon="0.47495">
        <ele>92</ele>
        <time>2025-11-05T13:25:35.446Z</time>
      </trkpt>
      <trkpt lat="44.09006" lon="0.47496">
        <ele>92</ele>
        <time>2025-11-05T13:25:36.446Z</time>
      </trkpt>
      <trkpt lat="44.09005" lon="0.47496">
        <ele>92</ele>
        <time>2025-11-05T13:25:37.446Z</time>
      </trkpt>
      <trkpt lat="44.09003" lon="0.47497">
        <ele>92</ele>
        <time>2025-11-05T13:25:38.446Z</time>
      </trkpt>
      <trkpt lat="44.09002" lon="0.47498">
        <ele>92</ele>
        <time>2025-11-05T13:25:39.446Z</time>
      </trkpt>
      <trkpt lat="44.09001" lon="0.47499">
        <ele>92</ele>
        <time>2025-11-05T13:25:40.446Z</time>
      </trkpt>
      <trkpt lat="44.09" lon="0.475">
        <ele>92</ele>
        <time>2025-11-05T13:25:41.446Z</time>
      </trkpt>
      <trkpt lat="44.08998" lon="0.47501">
        <ele>91</ele>
        <time>2025-11-05T13:25:42.446Z</time>
      </trkpt>
      <trkpt lat="44.08997" lon="0.47502">
        <ele>91</ele>
        <time>2025-11-05T13:25:43.446Z</time>
      </trkpt>
      <trkpt lat="44.08996" lon="0.47503">
        <ele>91</ele>
        <time>2025-11-05T13:25:44.446Z</time>
      </trkpt>
      <trkpt lat="44.08995" lon="0.47504">
        <ele>91</ele>
        <time>2025-11-05T13:25:45.446Z</time>
      </trkpt>
      <trkpt lat="44.08994" lon="0.47505">
        <ele>92</ele>
        <time>2025-11-05T13:25:46.446Z</time>
      </trkpt>
      <trkpt lat="44.08993" lon="0.47505">
        <ele>92</ele>
        <time>2025-11-05T13:25:47.446Z</time>
      </trkpt>
      <trkpt lat="44.08992" lon="0.47506">
        <ele>91</ele>
        <time>2025-11-05T13:25:48.446Z</time>
      </trkpt>
      <trkpt lat="44.08991" lon="0.47506">
        <ele>91</ele>
        <time>2025-11-05T13:25:49.446Z</time>
      </trkpt>
      <trkpt lat="44.0899" lon="0.47507">
        <ele>91</ele>
        <time>2025-11-05T13:25:50.446Z</time>
      </trkpt>
      <trkpt lat="44.08989" lon="0.47508">
        <ele>91</ele>
        <time>2025-11-05T13:25:51.446Z</time>
      </trkpt>
      <trkpt lat="44.08987" lon="0.47509">
        <ele>92</ele>
        <time>2025-11-05T13:25:52.446Z</time>
      </trkpt>
      <trkpt lat="44.08986" lon="0.4751">
        <ele>92</ele>
        <time>2025-11-05T13:25:53.446Z</time>
      </trkpt>
      <trkpt lat="44.08985" lon="0.47511">
        <ele>92</ele>
        <time>2025-11-05T13:25:54.446Z</time>
      </trkpt>
      <trkpt lat="44.08984" lon="0.47511">
        <ele>92</ele>
        <time>2025-11-05T13:25:55.446Z</time>
      </trkpt>
      <trkpt lat="44.08983" lon="0.47512">
        <ele>92</ele>
        <time>2025-11-05T13:25:56.446Z</time>
      </trkpt>
      <trkpt lat="44.08982" lon="0.47513">
        <ele>92</ele>
        <time>2025-11-05T13:25:57.446Z</time>
      </trkpt>
      <trkpt lat="44.08981" lon="0.47514">
        <ele>92</ele>
        <time>2025-11-05T13:25:58.446Z</time>
      </trkpt>
      <trkpt lat="44.0898" lon="0.47515">
        <ele>92</ele>
        <time>2025-11-05T13:25:59.446Z</time>
      </trkpt>
      <trkpt lat="44.08978" lon="0.47516">
        <ele>92</ele>
        <time>2025-11-05T13:26:00.446Z</time>
      </trkpt>
      <trkpt lat="44.08977" lon="0.47517">
        <ele>92</ele>
        <time>2025-11-05T13:26:01.446Z</time>
      </trkpt>
      <trkpt lat="44.08976" lon="0.47517">
        <ele>92</ele>
        <time>2025-11-05T13:26:02.446Z</time>
      </trkpt>
      <trkpt lat="44.08975" lon="0.47518">
        <ele>92</ele>
        <time>2025-11-05T13:26:03.446Z</time>
      </trkpt>
      <trkpt lat="44.08973" lon="0.47519">
        <ele>92</ele>
        <time>2025-11-05T13:26:04.446Z</time>
      </trkpt>
      <trkpt lat="44.08972" lon="0.4752">
        <ele>93</ele>
        <time>2025-11-05T13:26:05.446Z</time>
      </trkpt>
      <trkpt lat="44.08971" lon="0.47521">
        <ele>93</ele>
        <time>2025-11-05T13:26:06.446Z</time>
      </trkpt>
      <trkpt lat="44.0897" lon="0.47522">
        <ele>93</ele>
        <time>2025-11-05T13:26:07.446Z</time>
      </trkpt>
      <trkpt lat="44.08969" lon="0.47522">
        <ele>93</ele>
        <time>2025-11-05T13:26:08.446Z</time>
      </trkpt>
      <trkpt lat="44.08967" lon="0.47523">
        <ele>93</ele>
        <time>2025-11-05T13:26:09.446Z</time>
      </trkpt>
      <trkpt lat="44.08966" lon="0.47524">
        <ele>93</ele>
        <time>2025-11-05T13:26:10.446Z</time>
      </trkpt>
      <trkpt lat="44.08965" lon="0.47525">
        <ele>93</ele>
        <time>2025-11-05T13:26:11.446Z</time>
      </trkpt>
      <trkpt lat="44.08964" lon="0.47526">
        <ele>93</ele>
        <time>2025-11-05T13:26:12.446Z</time>
      </trkpt>
      <trkpt lat="44.08963" lon="0.47526">
        <ele>93</ele>
        <time>2025-11-05T13:26:13.446Z</time>
      </trkpt>
      <trkpt lat="44.08962" lon="0.47527">
        <ele>93</ele>
        <time>2025-11-05T13:26:14.446Z</time>
      </trkpt>
      <trkpt lat="44.08961" lon="0.47528">
        <ele>93</ele>
        <time>2025-11-05T13:26:15.446Z</time>
      </trkpt>
      <trkpt lat="44.0896" lon="0.47529">
        <ele>93</ele>
        <time>2025-11-05T13:26:16.446Z</time>
      </trkpt>
      <trkpt lat="44.08959" lon="0.4753">
        <ele>93</ele>
        <time>2025-11-05T13:26:17.446Z</time>
      </trkpt>
      <trkpt lat="44.08957" lon="0.47531">
        <ele>93</ele>
        <time>2025-11-05T13:26:18.446Z</time>
      </trkpt>
      <trkpt lat="44.08956" lon="0.47532">
        <ele>93</ele>
        <time>2025-11-05T13:26:19.446Z</time>
      </trkpt>
      <trkpt lat="44.08955" lon="0.47532">
        <ele>92</ele>
        <time>2025-11-05T13:26:20.446Z</time>
      </trkpt>
      <trkpt lat="44.08954" lon="0.47533">
        <ele>92</ele>
        <time>2025-11-05T13:26:21.446Z</time>
      </trkpt>
      <trkpt lat="44.08953" lon="0.47534">
        <ele>92</ele>
        <time>2025-11-05T13:26:22.446Z</time>
      </trkpt>
      <trkpt lat="44.08952" lon="0.47534">
        <ele>92</ele>
        <time>2025-11-05T13:26:23.446Z</time>
      </trkpt>
      <trkpt lat="44.08951" lon="0.47535">
        <ele>92</ele>
        <time>2025-11-05T13:26:24.446Z</time>
      </trkpt>
      <trkpt lat="44.0895" lon="0.47536">
        <ele>92</ele>
        <time>2025-11-05T13:26:25.446Z</time>
      </trkpt>
      <trkpt lat="44.08949" lon="0.47536">
        <ele>92</ele>
        <time>2025-11-05T13:26:26.446Z</time>
      </trkpt>
      <trkpt lat="44.08948" lon="0.47537">
        <ele>92</ele>
        <time>2025-11-05T13:26:27.446Z</time>
      </trkpt>
      <trkpt lat="44.08947" lon="0.47538">
        <ele>92</ele>
        <time>2025-11-05T13:26:28.446Z</time>
      </trkpt>
      <trkpt lat="44.08946" lon="0.47539">
        <ele>92</ele>
        <time>2025-11-05T13:26:29.446Z</time>
      </trkpt>
      <trkpt lat="44.08944" lon="0.47539">
        <ele>92</ele>
        <time>2025-11-05T13:26:30.446Z</time>
      </trkpt>
      <trkpt lat="44.08943" lon="0.4754">
        <ele>92</ele>
        <time>2025-11-05T13:26:31.446Z</time>
      </trkpt>
      <trkpt lat="44.08942" lon="0.47541">
        <ele>92</ele>
        <time>2025-11-05T13:26:32.446Z</time>
      </trkpt>
      <trkpt lat="44.08941" lon="0.47542">
        <ele>92</ele>
        <time>2025-11-05T13:26:33.446Z</time>
      </trkpt>
      <trkpt lat="44.0894" lon="0.47542">
        <ele>92</ele>
        <time>2025-11-05T13:26:34.446Z</time>
      </trkpt>
      <trkpt lat="44.08939" lon="0.47544">
        <ele>92</ele>
        <time>2025-11-05T13:26:35.447Z</time>
      </trkpt>
      <trkpt lat="44.08938" lon="0.47544">
        <ele>93</ele>
        <time>2025-11-05T13:26:36.446Z</time>
      </trkpt>
      <trkpt lat="44.08937" lon="0.47545">
        <ele>93</ele>
        <time>2025-11-05T13:26:37.446Z</time>
      </trkpt>
      <trkpt lat="44.08935" lon="0.47545">
        <ele>93</ele>
        <time>2025-11-05T13:26:38.446Z</time>
      </trkpt>
      <trkpt lat="44.08934" lon="0.47546">
        <ele>93</ele>
        <time>2025-11-05T13:26:39.446Z</time>
      </trkpt>
      <trkpt lat="44.08933" lon="0.47547">
        <ele>93</ele>
        <time>2025-11-05T13:26:40.446Z</time>
      </trkpt>
      <trkpt lat="44.08932" lon="0.47548">
        <ele>93</ele>
        <time>2025-11-05T13:26:41.446Z</time>
      </trkpt>
      <trkpt lat="44.08931" lon="0.47549">
        <ele>93</ele>
        <time>2025-11-05T13:26:42.446Z</time>
      </trkpt>
      <trkpt lat="44.0893" lon="0.4755">
        <ele>94</ele>
        <time>2025-11-05T13:26:43.446Z</time>
      </trkpt>
      <trkpt lat="44.08929" lon="0.47551">
        <ele>94</ele>
        <time>2025-11-05T13:26:44.446Z</time>
      </trkpt>
      <trkpt lat="44.08928" lon="0.47552">
        <ele>94</ele>
        <time>2025-11-05T13:26:45.447Z</time>
      </trkpt>
      <trkpt lat="44.08927" lon="0.47553">
        <ele>95</ele>
        <time>2025-11-05T13:26:46.446Z</time>
      </trkpt>
      <trkpt lat="44.08926" lon="0.47554">
        <ele>96</ele>
        <time>2025-11-05T13:26:47.446Z</time>
      </trkpt>
      <trkpt lat="44.08925" lon="0.47555">
        <ele>96</ele>
        <time>2025-11-05T13:26:48.446Z</time>
      </trkpt>
      <trkpt lat="44.08924" lon="0.47555">
        <ele>97</ele>
        <time>2025-11-05T13:26:49.446Z</time>
      </trkpt>
      <trkpt lat="44.08923" lon="0.47555">
        <ele>97</ele>
        <time>2025-11-05T13:26:50.446Z</time>
      </trkpt>
      <trkpt lat="44.08922" lon="0.47555">
        <ele>97</ele>
        <time>2025-11-05T13:26:51.446Z</time>
      </trkpt>
      <trkpt lat="44.08921" lon="0.47555">
        <ele>97</ele>
        <time>2025-11-05T13:26:52.446Z</time>
      </trkpt>
      <trkpt lat="44.0892" lon="0.47556">
        <ele>97</ele>
        <time>2025-11-05T13:26:53.446Z</time>
      </trkpt>
      <trkpt lat="44.08919" lon="0.47556">
        <ele>97</ele>
        <time>2025-11-05T13:26:54.446Z</time>
      </trkpt>
      <trkpt lat="44.08918" lon="0.47557">
        <ele>97</ele>
        <time>2025-11-05T13:26:55.446Z</time>
      </trkpt>
      <trkpt lat="44.08917" lon="0.47557">
        <ele>97</ele>
        <time>2025-11-05T13:26:56.446Z</time>
      </trkpt>
      <trkpt lat="44.08916" lon="0.47558">
        <ele>97</ele>
        <time>2025-11-05T13:26:57.446Z</time>
      </trkpt>
      <trkpt lat="44.08915" lon="0.47558">
        <ele>97</ele>
        <time>2025-11-05T13:26:58.446Z</time>
      </trkpt>
      <trkpt lat="44.08914" lon="0.47559">
        <ele>97</ele>
        <time>2025-11-05T13:26:59.446Z</time>
      </trkpt>
      <trkpt lat="44.08913" lon="0.47559">
        <ele>97</ele>
        <time>2025-11-05T13:27:00.446Z</time>
      </trkpt>
      <trkpt lat="44.08912" lon="0.4756">
        <ele>97</ele>
        <time>2025-11-05T13:27:01.446Z</time>
      </trkpt>
      <trkpt lat="44.08911" lon="0.4756">
        <ele>96</ele>
        <time>2025-11-05T13:27:02.446Z</time>
      </trkpt>
      <trkpt lat="44.08909" lon="0.4756">
        <ele>96</ele>
        <time>2025-11-05T13:27:03.446Z</time>
      </trkpt>
      <trkpt lat="44.08908" lon="0.4756">
        <ele>96</ele>
        <time>2025-11-05T13:27:04.446Z</time>
      </trkpt>
      <trkpt lat="44.08907" lon="0.4756">
        <ele>96</ele>
        <time>2025-11-05T13:27:05.446Z</time>
      </trkpt>
      <trkpt lat="44.08906" lon="0.47561">
        <ele>96</ele>
        <time>2025-11-05T13:27:06.446Z</time>
      </trkpt>
      <trkpt lat="44.08904" lon="0.47561">
        <ele>95</ele>
        <time>2025-11-05T13:27:07.446Z</time>
      </trkpt>
      <trkpt lat="44.08903" lon="0.47562">
        <ele>96</ele>
        <time>2025-11-05T13:27:08.446Z</time>
      </trkpt>
      <trkpt lat="44.08902" lon="0.47562">
        <ele>96</ele>
        <time>2025-11-05T13:27:09.447Z</time>
      </trkpt>
      <trkpt lat="44.08901" lon="0.47562">
        <ele>95</ele>
        <time>2025-11-05T13:27:10.446Z</time>
      </trkpt>
      <trkpt lat="44.089" lon="0.47563">
        <ele>95</ele>
        <time>2025-11-05T13:27:11.446Z</time>
      </trkpt>
      <trkpt lat="44.08899" lon="0.47563">
        <ele>95</ele>
        <time>2025-11-05T13:27:12.446Z</time>
      </trkpt>
      <trkpt lat="44.08897" lon="0.47564">
        <ele>95</ele>
        <time>2025-11-05T13:27:13.446Z</time>
      </trkpt>
      <trkpt lat="44.08896" lon="0.47564">
        <ele>94</ele>
        <time>2025-11-05T13:27:14.446Z</time>
      </trkpt>
      <trkpt lat="44.08896" lon="0.47564">
        <ele>94</ele>
        <time>2025-11-05T13:27:15.446Z</time>
      </trkpt>
      <trkpt lat="44.08895" lon="0.47565">
        <ele>94</ele>
        <time>2025-11-05T13:27:16.446Z</time>
      </trkpt>
      <trkpt lat="44.08895" lon="0.47565">
        <ele>93</ele>
        <time>2025-11-05T13:27:17.446Z</time>
      </trkpt>
      <trkpt lat="44.08895" lon="0.47565">
        <ele>93</ele>
        <time>2025-11-05T13:27:18.446Z</time>
      </trkpt>
      <trkpt lat="44.08895" lon="0.47566">
        <ele>93</ele>
        <time>2025-11-05T13:27:19.446Z</time>
      </trkpt>
      <trkpt lat="44.08895" lon="0.47566">
        <ele>93</ele>
        <time>2025-11-05T13:27:20.446Z</time>
      </trkpt>
      <trkpt lat="44.08895" lon="0.47566">
        <ele>93</ele>
        <time>2025-11-05T13:27:21.446Z</time>
      </trkpt>
      <trkpt lat="44.08895" lon="0.47566">
        <ele>93</ele>
        <time>2025-11-05T13:27:22.446Z</time>
      </trkpt>
      <trkpt lat="44.08894" lon="0.47566">
        <ele>93</ele>
        <time>2025-11-05T13:27:23.446Z</time>
      </trkpt>
      <trkpt lat="44.08894" lon="0.47566">
        <ele>92</ele>
        <time>2025-11-05T13:27:24.446Z</time>
      </trkpt>
      <trkpt lat="44.08894" lon="0.47566">
        <ele>92</ele>
        <time>2025-11-05T13:27:25.446Z</time>
      </trkpt>
      <trkpt lat="44.08894" lon="0.47566">
        <ele>91</ele>
        <time>2025-11-05T13:27:26.446Z</time>
      </trkpt>
      <trkpt lat="44.08894" lon="0.47566">
        <ele>91</ele>
        <time>2025-11-05T13:27:27.446Z</time>
      </trkpt>
      <trkpt lat="44.08893" lon="0.47566">
        <ele>91</ele>
        <time>2025-11-05T13:27:28.446Z</time>
      </trkpt>
      <trkpt lat="44.08892" lon="0.47566">
        <ele>91</ele>
        <time>2025-11-05T13:27:29.446Z</time>
      </trkpt>
      <trkpt lat="44.08892" lon="0.47566">
        <ele>91</ele>
        <time>2025-11-05T13:27:30.446Z</time>
      </trkpt>
      <trkpt lat="44.08892" lon="0.47566">
        <ele>91</ele>
        <time>2025-11-05T13:27:31.446Z</time>
      </trkpt>
      <trkpt lat="44.08891" lon="0.47567">
        <ele>91</ele>
        <time>2025-11-05T13:27:32.446Z</time>
      </trkpt>
      <trkpt lat="44.08891" lon="0.47567">
        <ele>90</ele>
        <time>2025-11-05T13:27:33.446Z</time>
      </trkpt>
      <trkpt lat="44.08891" lon="0.47567">
        <ele>90</ele>
        <time>2025-11-05T13:27:34.446Z</time>
      </trkpt>
      <trkpt lat="44.08891" lon="0.47567">
        <ele>90</ele>
        <time>2025-11-05T13:27:35.446Z</time>
      </trkpt>
      <trkpt lat="44.08891" lon="0.47567">
        <ele>90</ele>
        <time>2025-11-05T13:27:36.446Z</time>
      </trkpt>
      <trkpt lat="44.08891" lon="0.47567">
        <ele>90</ele>
        <time>2025-11-05T13:27:37.446Z</time>
      </trkpt>
      <trkpt lat="44.08891" lon="0.47567">
        <ele>90</ele>
        <time>2025-11-05T13:27:38.446Z</time>
      </trkpt>
      <trkpt lat="44.08891" lon="0.47567">
        <ele>91</ele>
        <time>2025-11-05T13:27:39.446Z</time>
      </trkpt>
      <trkpt lat="44.08891" lon="0.47567">
        <ele>91</ele>
        <time>2025-11-05T13:27:40.446Z</time>
      </trkpt>
      <trkpt lat="44.08891" lon="0.47567">
        <ele>92</ele>
        <time>2025-11-05T13:27:41.446Z</time>
      </trkpt>
      <trkpt lat="44.08891" lon="0.47567">
        <ele>93</ele>
        <time>2025-11-05T13:27:42.446Z</time>
      </trkpt>
      <trkpt lat="44.08891" lon="0.47567">
        <ele>93</ele>
        <time>2025-11-05T13:27:43.446Z</time>
      </trkpt>
      <trkpt lat="44.08891" lon="0.47567">
        <ele>93</ele>
        <time>2025-11-05T13:27:44.446Z</time>
      </trkpt>
      <trkpt lat="44.08891" lon="0.47567">
        <ele>93</ele>
        <time>2025-11-05T13:27:45.446Z</time>
      </trkpt>
      <trkpt lat="44.08891" lon="0.47567">
        <ele>93</ele>
        <time>2025-11-05T13:27:46.446Z</time>
      </trkpt>
      <trkpt lat="44.08891" lon="0.47567">
        <ele>93</ele>
        <time>2025-11-05T13:27:47.446Z</time>
      </trkpt>
      <trkpt lat="44.0889" lon="0.47568">
        <ele>93</ele>
        <time>2025-11-05T13:27:48.446Z</time>
      </trkpt>
      <trkpt lat="44.08889" lon="0.47568">
        <ele>93</ele>
        <time>2025-11-05T13:27:49.446Z</time>
      </trkpt>
      <trkpt lat="44.08888" lon="0.47568">
        <ele>93</ele>
        <time>2025-11-05T13:27:50.446Z</time>
      </trkpt>
      <trkpt lat="44.08887" lon="0.47569">
        <ele>92</ele>
        <time>2025-11-05T13:27:51.446Z</time>
      </trkpt>
      <trkpt lat="44.08886" lon="0.47569">
        <ele>93</ele>
        <time>2025-11-05T13:27:52.446Z</time>
      </trkpt>
      <trkpt lat="44.08885" lon="0.47569">
        <ele>93</ele>
        <time>2025-11-05T13:27:53.446Z</time>
      </trkpt>
      <trkpt lat="44.08884" lon="0.4757">
        <ele>93</ele>
        <time>2025-11-05T13:27:54.446Z</time>
      </trkpt>
      <trkpt lat="44.08883" lon="0.4757">
        <ele>93</ele>
        <time>2025-11-05T13:27:55.446Z</time>
      </trkpt>
      <trkpt lat="44.08882" lon="0.47571">
        <ele>93</ele>
        <time>2025-11-05T13:27:56.446Z</time>
      </trkpt>
      <trkpt lat="44.08881" lon="0.47571">
        <ele>93</ele>
        <time>2025-11-05T13:27:57.446Z</time>
      </trkpt>
      <trkpt lat="44.0888" lon="0.47572">
        <ele>92</ele>
        <time>2025-11-05T13:27:58.446Z</time>
      </trkpt>
      <trkpt lat="44.08879" lon="0.47573">
        <ele>92</ele>
        <time>2025-11-05T13:27:59.446Z</time>
      </trkpt>
      <trkpt lat="44.08878" lon="0.47573">
        <ele>92</ele>
        <time>2025-11-05T13:28:00.447Z</time>
      </trkpt>
      <trkpt lat="44.08876" lon="0.47574">
        <ele>92</ele>
        <time>2025-11-05T13:28:01.446Z</time>
      </trkpt>
      <trkpt lat="44.08875" lon="0.47574">
        <ele>93</ele>
        <time>2025-11-05T13:28:02.446Z</time>
      </trkpt>
      <trkpt lat="44.08873" lon="0.47575">
        <ele>93</ele>
        <time>2025-11-05T13:28:03.446Z</time>
      </trkpt>
      <trkpt lat="44.08872" lon="0.47576">
        <ele>93</ele>
        <time>2025-11-05T13:28:04.446Z</time>
      </trkpt>
      <trkpt lat="44.08871" lon="0.47576">
        <ele>92</ele>
        <time>2025-11-05T13:28:05.446Z</time>
      </trkpt>
      <trkpt lat="44.0887" lon="0.47577">
        <ele>92</ele>
        <time>2025-11-05T13:28:06.446Z</time>
      </trkpt>
      <trkpt lat="44.08869" lon="0.47578">
        <ele>92</ele>
        <time>2025-11-05T13:28:07.446Z</time>
      </trkpt>
      <trkpt lat="44.08867" lon="0.47578">
        <ele>92</ele>
        <time>2025-11-05T13:28:08.446Z</time>
      </trkpt>
      <trkpt lat="44.08866" lon="0.47579">
        <ele>92</ele>
        <time>2025-11-05T13:28:09.446Z</time>
      </trkpt>
      <trkpt lat="44.08865" lon="0.4758">
        <ele>92</ele>
        <time>2025-11-05T13:28:10.446Z</time>
      </trkpt>
      <trkpt lat="44.08864" lon="0.4758">
        <ele>92</ele>
        <time>2025-11-05T13:28:11.446Z</time>
      </trkpt>
      <trkpt lat="44.08863" lon="0.47581">
        <ele>92</ele>
        <time>2025-11-05T13:28:12.446Z</time>
      </trkpt>
      <trkpt lat="44.08861" lon="0.47582">
        <ele>91</ele>
        <time>2025-11-05T13:28:13.446Z</time>
      </trkpt>
      <trkpt lat="44.0886" lon="0.47583">
        <ele>91</ele>
        <time>2025-11-05T13:28:14.446Z</time>
      </trkpt>
      <trkpt lat="44.08858" lon="0.47583">
        <ele>91</ele>
        <time>2025-11-05T13:28:15.446Z</time>
      </trkpt>
      <trkpt lat="44.08857" lon="0.47584">
        <ele>91</ele>
        <time>2025-11-05T13:28:16.446Z</time>
      </trkpt>
      <trkpt lat="44.08855" lon="0.47585">
        <ele>91</ele>
        <time>2025-11-05T13:28:17.446Z</time>
      </trkpt>
      <trkpt lat="44.08854" lon="0.47586">
        <ele>91</ele>
        <time>2025-11-05T13:28:18.446Z</time>
      </trkpt>
      <trkpt lat="44.08852" lon="0.47586">
        <ele>90</ele>
        <time>2025-11-05T13:28:19.446Z</time>
      </trkpt>
      <trkpt lat="44.08851" lon="0.47587">
        <ele>91</ele>
        <time>2025-11-05T13:28:20.446Z</time>
      </trkpt>
      <trkpt lat="44.0885" lon="0.47587">
        <ele>91</ele>
        <time>2025-11-05T13:28:21.446Z</time>
      </trkpt>
      <trkpt lat="44.08849" lon="0.47586">
        <ele>91</ele>
        <time>2025-11-05T13:28:22.446Z</time>
      </trkpt>
      <trkpt lat="44.08848" lon="0.47587">
        <ele>91</ele>
        <time>2025-11-05T13:28:23.446Z</time>
      </trkpt>
      <trkpt lat="44.08847" lon="0.47587">
        <ele>92</ele>
        <time>2025-11-05T13:28:24.446Z</time>
      </trkpt>
      <trkpt lat="44.08846" lon="0.47587">
        <ele>92</ele>
        <time>2025-11-05T13:28:25.446Z</time>
      </trkpt>
      <trkpt lat="44.08845" lon="0.47588">
        <ele>92</ele>
        <time>2025-11-05T13:28:26.446Z</time>
      </trkpt>
      <trkpt lat="44.08844" lon="0.47589">
        <ele>92</ele>
        <time>2025-11-05T13:28:27.446Z</time>
      </trkpt>
      <trkpt lat="44.08843" lon="0.47589">
        <ele>91</ele>
        <time>2025-11-05T13:28:28.446Z</time>
      </trkpt>
      <trkpt lat="44.08842" lon="0.47589">
        <ele>91</ele>
        <time>2025-11-05T13:28:29.446Z</time>
      </trkpt>
      <trkpt lat="44.08841" lon="0.4759">
        <ele>91</ele>
        <time>2025-11-05T13:28:30.446Z</time>
      </trkpt>
      <trkpt lat="44.0884" lon="0.47591">
        <ele>90</ele>
        <time>2025-11-05T13:28:31.446Z</time>
      </trkpt>
      <trkpt lat="44.08838" lon="0.47591">
        <ele>90</ele>
        <time>2025-11-05T13:28:32.446Z</time>
      </trkpt>
      <trkpt lat="44.08837" lon="0.47592">
        <ele>90</ele>
        <time>2025-11-05T13:28:33.446Z</time>
      </trkpt>
      <trkpt lat="44.08835" lon="0.47592">
        <ele>90</ele>
        <time>2025-11-05T13:28:34.446Z</time>
      </trkpt>
      <trkpt lat="44.08834" lon="0.47593">
        <ele>90</ele>
        <time>2025-11-05T13:28:35.446Z</time>
      </trkpt>
      <trkpt lat="44.08832" lon="0.47593">
        <ele>90</ele>
        <time>2025-11-05T13:28:36.447Z</time>
      </trkpt>
      <trkpt lat="44.08831" lon="0.47594">
        <ele>90</ele>
        <time>2025-11-05T13:28:37.446Z</time>
      </trkpt>
      <trkpt lat="44.08829" lon="0.47595">
        <ele>91</ele>
        <time>2025-11-05T13:28:38.446Z</time>
      </trkpt>
      <trkpt lat="44.08828" lon="0.47595">
        <ele>91</ele>
        <time>2025-11-05T13:28:39.446Z</time>
      </trkpt>
      <trkpt lat="44.08827" lon="0.47596">
        <ele>91</ele>
        <time>2025-11-05T13:28:40.446Z</time>
      </trkpt>
      <trkpt lat="44.08825" lon="0.47597">
        <ele>91</ele>
        <time>2025-11-05T13:28:41.446Z</time>
      </trkpt>
      <trkpt lat="44.08824" lon="0.47597">
        <ele>90</ele>
        <time>2025-11-05T13:28:42.446Z</time>
      </trkpt>
      <trkpt lat="44.08823" lon="0.47598">
        <ele>90</ele>
        <time>2025-11-05T13:28:43.446Z</time>
      </trkpt>
      <trkpt lat="44.08822" lon="0.47598">
        <ele>90</ele>
        <time>2025-11-05T13:28:44.446Z</time>
      </trkpt>
      <trkpt lat="44.08821" lon="0.47599">
        <ele>90</ele>
        <time>2025-11-05T13:28:45.446Z</time>
      </trkpt>
      <trkpt lat="44.08819" lon="0.47599">
        <ele>90</ele>
        <time>2025-11-05T13:28:46.446Z</time>
      </trkpt>
      <trkpt lat="44.08818" lon="0.476">
        <ele>89</ele>
        <time>2025-11-05T13:28:47.446Z</time>
      </trkpt>
      <trkpt lat="44.08817" lon="0.476">
        <ele>89</ele>
        <time>2025-11-05T13:28:48.446Z</time>
      </trkpt>
      <trkpt lat="44.08815" lon="0.476">
        <ele>89</ele>
        <time>2025-11-05T13:28:49.446Z</time>
      </trkpt>
      <trkpt lat="44.08814" lon="0.47601">
        <ele>89</ele>
        <time>2025-11-05T13:28:50.446Z</time>
      </trkpt>
      <trkpt lat="44.08812" lon="0.47602">
        <ele>89</ele>
        <time>2025-11-05T13:28:51.446Z</time>
      </trkpt>
      <trkpt lat="44.0881" lon="0.47602">
        <ele>89</ele>
        <time>2025-11-05T13:28:52.446Z</time>
      </trkpt>
      <trkpt lat="44.08809" lon="0.47602">
        <ele>88</ele>
        <time>2025-11-05T13:28:53.447Z</time>
      </trkpt>
      <trkpt lat="44.08807" lon="0.47603">
        <ele>89</ele>
        <time>2025-11-05T13:28:54.446Z</time>
      </trkpt>
      <trkpt lat="44.08806" lon="0.47604">
        <ele>89</ele>
        <time>2025-11-05T13:28:55.446Z</time>
      </trkpt>
      <trkpt lat="44.08805" lon="0.47604">
        <ele>88</ele>
        <time>2025-11-05T13:28:56.446Z</time>
      </trkpt>
      <trkpt lat="44.08803" lon="0.47605">
        <ele>88</ele>
        <time>2025-11-05T13:28:57.446Z</time>
      </trkpt>
      <trkpt lat="44.08802" lon="0.47606">
        <ele>88</ele>
        <time>2025-11-05T13:28:58.446Z</time>
      </trkpt>
      <trkpt lat="44.088" lon="0.47607">
        <ele>88</ele>
        <time>2025-11-05T13:28:59.446Z</time>
      </trkpt>
      <trkpt lat="44.08799" lon="0.47607">
        <ele>88</ele>
        <time>2025-11-05T13:29:00.446Z</time>
      </trkpt>
      <trkpt lat="44.08797" lon="0.47608">
        <ele>88</ele>
        <time>2025-11-05T13:29:01.446Z</time>
      </trkpt>
      <trkpt lat="44.08796" lon="0.47609">
        <ele>88</ele>
        <time>2025-11-05T13:29:02.446Z</time>
      </trkpt>
      <trkpt lat="44.08795" lon="0.4761">
        <ele>88</ele>
        <time>2025-11-05T13:29:03.446Z</time>
      </trkpt>
      <trkpt lat="44.08794" lon="0.4761">
        <ele>89</ele>
        <time>2025-11-05T13:29:04.446Z</time>
      </trkpt>
      <trkpt lat="44.08793" lon="0.47611">
        <ele>89</ele>
        <time>2025-11-05T13:29:05.446Z</time>
      </trkpt>
      <trkpt lat="44.08791" lon="0.47612">
        <ele>89</ele>
        <time>2025-11-05T13:29:06.446Z</time>
      </trkpt>
      <trkpt lat="44.0879" lon="0.47612">
        <ele>89</ele>
        <time>2025-11-05T13:29:07.446Z</time>
      </trkpt>
      <trkpt lat="44.08789" lon="0.47613">
        <ele>89</ele>
        <time>2025-11-05T13:29:08.446Z</time>
      </trkpt>
      <trkpt lat="44.08787" lon="0.47613">
        <ele>89</ele>
        <time>2025-11-05T13:29:09.446Z</time>
      </trkpt>
      <trkpt lat="44.08786" lon="0.47613">
        <ele>89</ele>
        <time>2025-11-05T13:29:10.446Z</time>
      </trkpt>
      <trkpt lat="44.08785" lon="0.47613">
        <ele>89</ele>
        <time>2025-11-05T13:29:11.446Z</time>
      </trkpt>
      <trkpt lat="44.08783" lon="0.47614">
        <ele>88</ele>
        <time>2025-11-05T13:29:12.446Z</time>
      </trkpt>
      <trkpt lat="44.08782" lon="0.47614">
        <ele>88</ele>
        <time>2025-11-05T13:29:13.446Z</time>
      </trkpt>
      <trkpt lat="44.0878" lon="0.47615">
        <ele>88</ele>
        <time>2025-11-05T13:29:14.446Z</time>
      </trkpt>
      <trkpt lat="44.08779" lon="0.47615">
        <ele>88</ele>
        <time>2025-11-05T13:29:15.446Z</time>
      </trkpt>
      <trkpt lat="44.08778" lon="0.47616">
        <ele>88</ele>
        <time>2025-11-05T13:29:16.446Z</time>
      </trkpt>
      <trkpt lat="44.08776" lon="0.47616">
        <ele>88</ele>
        <time>2025-11-05T13:29:17.446Z</time>
      </trkpt>
      <trkpt lat="44.08775" lon="0.47617">
        <ele>88</ele>
        <time>2025-11-05T13:29:18.446Z</time>
      </trkpt>
      <trkpt lat="44.08773" lon="0.47618">
        <ele>88</ele>
        <time>2025-11-05T13:29:19.446Z</time>
      </trkpt>
      <trkpt lat="44.08772" lon="0.47618">
        <ele>88</ele>
        <time>2025-11-05T13:29:20.446Z</time>
      </trkpt>
      <trkpt lat="44.08771" lon="0.47619">
        <ele>87</ele>
        <time>2025-11-05T13:29:21.446Z</time>
      </trkpt>
      <trkpt lat="44.0877" lon="0.47619">
        <ele>87</ele>
        <time>2025-11-05T13:29:22.446Z</time>
      </trkpt>
      <trkpt lat="44.08769" lon="0.47619">
        <ele>87</ele>
        <time>2025-11-05T13:29:23.446Z</time>
      </trkpt>
      <trkpt lat="44.08767" lon="0.4762">
        <ele>87</ele>
        <time>2025-11-05T13:29:24.446Z</time>
      </trkpt>
      <trkpt lat="44.08766" lon="0.4762">
        <ele>87</ele>
        <time>2025-11-05T13:29:25.447Z</time>
      </trkpt>
      <trkpt lat="44.08765" lon="0.47621">
        <ele>87</ele>
        <time>2025-11-05T13:29:26.446Z</time>
      </trkpt>
      <trkpt lat="44.08764" lon="0.47621">
        <ele>87</ele>
        <time>2025-11-05T13:29:27.446Z</time>
      </trkpt>
      <trkpt lat="44.08762" lon="0.47622">
        <ele>87</ele>
        <time>2025-11-05T13:29:28.446Z</time>
      </trkpt>
      <trkpt lat="44.08761" lon="0.47622">
        <ele>87</ele>
        <time>2025-11-05T13:29:29.446Z</time>
      </trkpt>
      <trkpt lat="44.0876" lon="0.47623">
        <ele>87</ele>
        <time>2025-11-05T13:29:30.446Z</time>
      </trkpt>
      <trkpt lat="44.08758" lon="0.47623">
        <ele>87</ele>
        <time>2025-11-05T13:29:31.446Z</time>
      </trkpt>
      <trkpt lat="44.08757" lon="0.47624">
        <ele>86</ele>
        <time>2025-11-05T13:29:32.446Z</time>
      </trkpt>
      <trkpt lat="44.08755" lon="0.47624">
        <ele>86</ele>
        <time>2025-11-05T13:29:33.446Z</time>
      </trkpt>
      <trkpt lat="44.08754" lon="0.47625">
        <ele>86</ele>
        <time>2025-11-05T13:29:34.446Z</time>
      </trkpt>
      <trkpt lat="44.08752" lon="0.47626">
        <ele>86</ele>
        <time>2025-11-05T13:29:35.446Z</time>
      </trkpt>
      <trkpt lat="44.08751" lon="0.47626">
        <ele>86</ele>
        <time>2025-11-05T13:29:36.446Z</time>
      </trkpt>
      <trkpt lat="44.0875" lon="0.47627">
        <ele>86</ele>
        <time>2025-11-05T13:29:37.446Z</time>
      </trkpt>
      <trkpt lat="44.08749" lon="0.47627">
        <ele>86</ele>
        <time>2025-11-05T13:29:38.446Z</time>
      </trkpt>
      <trkpt lat="44.08747" lon="0.47627">
        <ele>86</ele>
        <time>2025-11-05T13:29:39.446Z</time>
      </trkpt>
      <trkpt lat="44.08746" lon="0.47628">
        <ele>86</ele>
        <time>2025-11-05T13:29:40.446Z</time>
      </trkpt>
      <trkpt lat="44.08745" lon="0.47628">
        <ele>86</ele>
        <time>2025-11-05T13:29:41.446Z</time>
      </trkpt>
      <trkpt lat="44.08744" lon="0.47629">
        <ele>86</ele>
        <time>2025-11-05T13:29:42.446Z</time>
      </trkpt>
      <trkpt lat="44.08742" lon="0.47629">
        <ele>86</ele>
        <time>2025-11-05T13:29:43.446Z</time>
      </trkpt>
      <trkpt lat="44.08741" lon="0.47629">
        <ele>86</ele>
        <time>2025-11-05T13:29:44.446Z</time>
      </trkpt>
      <trkpt lat="44.0874" lon="0.47629">
        <ele>86</ele>
        <time>2025-11-05T13:29:45.446Z</time>
      </trkpt>
      <trkpt lat="44.08738" lon="0.4763">
        <ele>86</ele>
        <time>2025-11-05T13:29:46.446Z</time>
      </trkpt>
      <trkpt lat="44.08736" lon="0.4763">
        <ele>86</ele>
        <time>2025-11-05T13:29:47.446Z</time>
      </trkpt>
      <trkpt lat="44.08735" lon="0.4763">
        <ele>86</ele>
        <time>2025-11-05T13:29:48.446Z</time>
      </trkpt>
      <trkpt lat="44.08734" lon="0.47631">
        <ele>86</ele>
        <time>2025-11-05T13:29:49.446Z</time>
      </trkpt>
      <trkpt lat="44.08732" lon="0.47631">
        <ele>86</ele>
        <time>2025-11-05T13:29:50.446Z</time>
      </trkpt>
      <trkpt lat="44.08731" lon="0.47632">
        <ele>86</ele>
        <time>2025-11-05T13:29:51.446Z</time>
      </trkpt>
      <trkpt lat="44.0873" lon="0.47632">
        <ele>86</ele>
        <time>2025-11-05T13:29:52.446Z</time>
      </trkpt>
      <trkpt lat="44.08729" lon="0.47632">
        <ele>86</ele>
        <time>2025-11-05T13:29:53.446Z</time>
      </trkpt>
      <trkpt lat="44.08727" lon="0.47632">
        <ele>86</ele>
        <time>2025-11-05T13:29:54.446Z</time>
      </trkpt>
      <trkpt lat="44.08726" lon="0.47632">
        <ele>86</ele>
        <time>2025-11-05T13:29:55.446Z</time>
      </trkpt>
      <trkpt lat="44.08725" lon="0.47632">
        <ele>86</ele>
        <time>2025-11-05T13:29:56.446Z</time>
      </trkpt>
      <trkpt lat="44.08724" lon="0.47632">
        <ele>86</ele>
        <time>2025-11-05T13:29:57.446Z</time>
      </trkpt>
      <trkpt lat="44.08723" lon="0.47632">
        <ele>86</ele>
        <time>2025-11-05T13:29:58.446Z</time>
      </trkpt>
      <trkpt lat="44.08722" lon="0.47633">
        <ele>86</ele>
        <time>2025-11-05T13:29:59.446Z</time>
      </trkpt>
      <trkpt lat="44.08721" lon="0.47633">
        <ele>86</ele>
        <time>2025-11-05T13:30:00.446Z</time>
      </trkpt>
      <trkpt lat="44.0872" lon="0.47634">
        <ele>86</ele>
        <time>2025-11-05T13:30:01.446Z</time>
      </trkpt>
      <trkpt lat="44.08719" lon="0.47634">
        <ele>86</ele>
        <time>2025-11-05T13:30:02.446Z</time>
      </trkpt>
      <trkpt lat="44.08717" lon="0.47634">
        <ele>86</ele>
        <time>2025-11-05T13:30:03.446Z</time>
      </trkpt>
      <trkpt lat="44.08716" lon="0.47634">
        <ele>86</ele>
        <time>2025-11-05T13:30:04.446Z</time>
      </trkpt>
      <trkpt lat="44.08715" lon="0.47635">
        <ele>86</ele>
        <time>2025-11-05T13:30:05.446Z</time>
      </trkpt>
      <trkpt lat="44.08714" lon="0.47635">
        <ele>86</ele>
        <time>2025-11-05T13:30:06.446Z</time>
      </trkpt>
      <trkpt lat="44.08713" lon="0.47635">
        <ele>86</ele>
        <time>2025-11-05T13:30:07.446Z</time>
      </trkpt>
      <trkpt lat="44.08713" lon="0.47635">
        <ele>86</ele>
        <time>2025-11-05T13:30:08.446Z</time>
      </trkpt>
      <trkpt lat="44.08712" lon="0.47635">
        <ele>86</ele>
        <time>2025-11-05T13:30:09.446Z</time>
      </trkpt>
      <trkpt lat="44.08712" lon="0.47635">
        <ele>86</ele>
        <time>2025-11-05T13:30:10.446Z</time>
      </trkpt>
      <trkpt lat="44.08711" lon="0.47636">
        <ele>85</ele>
        <time>2025-11-05T13:30:11.446Z</time>
      </trkpt>
      <trkpt lat="44.0871" lon="0.47636">
        <ele>85</ele>
        <time>2025-11-05T13:30:12.446Z</time>
      </trkpt>
      <trkpt lat="44.08709" lon="0.47636">
        <ele>85</ele>
        <time>2025-11-05T13:30:13.446Z</time>
      </trkpt>
      <trkpt lat="44.08708" lon="0.47636">
        <ele>85</ele>
        <time>2025-11-05T13:30:14.446Z</time>
      </trkpt>
      <trkpt lat="44.08707" lon="0.47636">
        <ele>85</ele>
        <time>2025-11-05T13:30:15.446Z</time>
      </trkpt>
      <trkpt lat="44.08706" lon="0.47637">
        <ele>85</ele>
        <time>2025-11-05T13:30:16.446Z</time>
      </trkpt>
      <trkpt lat="44.08706" lon="0.47637">
        <ele>86</ele>
        <time>2025-11-05T13:30:17.446Z</time>
      </trkpt>
      <trkpt lat="44.08705" lon="0.47637">
        <ele>86</ele>
        <time>2025-11-05T13:30:18.446Z</time>
      </trkpt>
      <trkpt lat="44.08705" lon="0.47637">
        <ele>86</ele>
        <time>2025-11-05T13:30:19.446Z</time>
      </trkpt>
      <trkpt lat="44.08704" lon="0.47637">
        <ele>86</ele>
        <time>2025-11-05T13:30:20.446Z</time>
      </trkpt>
      <trkpt lat="44.08703" lon="0.47636">
        <ele>86</ele>
        <time>2025-11-05T13:30:21.446Z</time>
      </trkpt>
      <trkpt lat="44.08702" lon="0.47636">
        <ele>86</ele>
        <time>2025-11-05T13:30:22.446Z</time>
      </trkpt>
      <trkpt lat="44.08701" lon="0.47636">
        <ele>85</ele>
        <time>2025-11-05T13:30:23.446Z</time>
      </trkpt>
      <trkpt lat="44.087" lon="0.47636">
        <ele>85</ele>
        <time>2025-11-05T13:30:24.446Z</time>
      </trkpt>
      <trkpt lat="44.087" lon="0.47636">
        <ele>86</ele>
        <time>2025-11-05T13:30:25.446Z</time>
      </trkpt>
      <trkpt lat="44.08699" lon="0.47636">
        <ele>86</ele>
        <time>2025-11-05T13:30:26.446Z</time>
      </trkpt>
      <trkpt lat="44.08698" lon="0.47635">
        <ele>86</ele>
        <time>2025-11-05T13:30:27.446Z</time>
      </trkpt>
      <trkpt lat="44.08697" lon="0.47635">
        <ele>87</ele>
        <time>2025-11-05T13:30:28.446Z</time>
      </trkpt>
      <trkpt lat="44.08696" lon="0.47634">
        <ele>87</ele>
        <time>2025-11-05T13:30:29.446Z</time>
      </trkpt>
      <trkpt lat="44.08695" lon="0.47634">
        <ele>87</ele>
        <time>2025-11-05T13:30:30.446Z</time>
      </trkpt>
      <trkpt lat="44.08694" lon="0.47633">
        <ele>86</ele>
        <time>2025-11-05T13:30:31.446Z</time>
      </trkpt>
      <trkpt lat="44.08692" lon="0.47633">
        <ele>87</ele>
        <time>2025-11-05T13:30:32.446Z</time>
      </trkpt>
      <trkpt lat="44.08691" lon="0.47633">
        <ele>87</ele>
        <time>2025-11-05T13:30:33.446Z</time>
      </trkpt>
      <trkpt lat="44.0869" lon="0.47633">
        <ele>87</ele>
        <time>2025-11-05T13:30:34.446Z</time>
      </trkpt>
      <trkpt lat="44.08689" lon="0.47632">
        <ele>86</ele>
        <time>2025-11-05T13:30:35.446Z</time>
      </trkpt>
      <trkpt lat="44.08688" lon="0.47632">
        <ele>86</ele>
        <time>2025-11-05T13:30:36.446Z</time>
      </trkpt>
      <trkpt lat="44.08687" lon="0.47632">
        <ele>86</ele>
        <time>2025-11-05T13:30:37.446Z</time>
      </trkpt>
      <trkpt lat="44.08686" lon="0.47632">
        <ele>86</ele>
        <time>2025-11-05T13:30:38.446Z</time>
      </trkpt>
      <trkpt lat="44.08685" lon="0.47632">
        <ele>86</ele>
        <time>2025-11-05T13:30:39.446Z</time>
      </trkpt>
      <trkpt lat="44.08684" lon="0.47632">
        <ele>86</ele>
        <time>2025-11-05T13:30:40.446Z</time>
      </trkpt>
      <trkpt lat="44.08683" lon="0.47632">
        <ele>87</ele>
        <time>2025-11-05T13:30:41.446Z</time>
      </trkpt>
      <trkpt lat="44.08682" lon="0.47631">
        <ele>87</ele>
        <time>2025-11-05T13:30:42.446Z</time>
      </trkpt>
      <trkpt lat="44.0868" lon="0.47631">
        <ele>87</ele>
        <time>2025-11-05T13:30:43.446Z</time>
      </trkpt>
      <trkpt lat="44.08679" lon="0.47631">
        <ele>87</ele>
        <time>2025-11-05T13:30:44.446Z</time>
      </trkpt>
      <trkpt lat="44.08678" lon="0.47631">
        <ele>88</ele>
        <time>2025-11-05T13:30:45.446Z</time>
      </trkpt>
      <trkpt lat="44.08677" lon="0.47631">
        <ele>88</ele>
        <time>2025-11-05T13:30:46.446Z</time>
      </trkpt>
      <trkpt lat="44.08676" lon="0.47631">
        <ele>88</ele>
        <time>2025-11-05T13:30:47.446Z</time>
      </trkpt>
      <trkpt lat="44.08675" lon="0.47631">
        <ele>89</ele>
        <time>2025-11-05T13:30:48.446Z</time>
      </trkpt>
      <trkpt lat="44.08674" lon="0.47631">
        <ele>89</ele>
        <time>2025-11-05T13:30:49.446Z</time>
      </trkpt>
      <trkpt lat="44.08672" lon="0.47631">
        <ele>89</ele>
        <time>2025-11-05T13:30:50.446Z</time>
      </trkpt>
      <trkpt lat="44.08671" lon="0.47631">
        <ele>89</ele>
        <time>2025-11-05T13:30:51.446Z</time>
      </trkpt>
      <trkpt lat="44.0867" lon="0.47631">
        <ele>89</ele>
        <time>2025-11-05T13:30:52.446Z</time>
      </trkpt>
      <trkpt lat="44.08669" lon="0.4763">
        <ele>90</ele>
        <time>2025-11-05T13:30:53.446Z</time>
      </trkpt>
      <trkpt lat="44.08667" lon="0.4763">
        <ele>90</ele>
        <time>2025-11-05T13:30:54.446Z</time>
      </trkpt>
      <trkpt lat="44.08666" lon="0.4763">
        <ele>90</ele>
        <time>2025-11-05T13:30:55.446Z</time>
      </trkpt>
      <trkpt lat="44.08665" lon="0.4763">
        <ele>90</ele>
        <time>2025-11-05T13:30:56.446Z</time>
      </trkpt>
      <trkpt lat="44.08664" lon="0.4763">
        <ele>90</ele>
        <time>2025-11-05T13:30:57.446Z</time>
      </trkpt>
      <trkpt lat="44.08663" lon="0.4763">
        <ele>90</ele>
        <time>2025-11-05T13:30:58.446Z</time>
      </trkpt>
      <trkpt lat="44.08662" lon="0.4763">
        <ele>90</ele>
        <time>2025-11-05T13:30:59.446Z</time>
      </trkpt>
      <trkpt lat="44.0866" lon="0.47629">
        <ele>90</ele>
        <time>2025-11-05T13:31:00.446Z</time>
      </trkpt>
      <trkpt lat="44.08659" lon="0.47629">
        <ele>90</ele>
        <time>2025-11-05T13:31:01.446Z</time>
      </trkpt>
      <trkpt lat="44.08658" lon="0.47629">
        <ele>90</ele>
        <time>2025-11-05T13:31:02.446Z</time>
      </trkpt>
      <trkpt lat="44.08657" lon="0.47628">
        <ele>90</ele>
        <time>2025-11-05T13:31:03.446Z</time>
      </trkpt>
      <trkpt lat="44.08655" lon="0.47628">
        <ele>90</ele>
        <time>2025-11-05T13:31:04.446Z</time>
      </trkpt>
      <trkpt lat="44.08654" lon="0.47628">
        <ele>89</ele>
        <time>2025-11-05T13:31:05.446Z</time>
      </trkpt>
      <trkpt lat="44.08652" lon="0.47628">
        <ele>89</ele>
        <time>2025-11-05T13:31:06.446Z</time>
      </trkpt>
      <trkpt lat="44.08651" lon="0.47627">
        <ele>89</ele>
        <time>2025-11-05T13:31:07.446Z</time>
      </trkpt>
      <trkpt lat="44.0865" lon="0.47627">
        <ele>89</ele>
        <time>2025-11-05T13:31:08.446Z</time>
      </trkpt>
      <trkpt lat="44.08649" lon="0.47627">
        <ele>89</ele>
        <time>2025-11-05T13:31:09.446Z</time>
      </trkpt>
      <trkpt lat="44.08648" lon="0.47627">
        <ele>89</ele>
        <time>2025-11-05T13:31:10.446Z</time>
      </trkpt>
      <trkpt lat="44.08647" lon="0.47626">
        <ele>89</ele>
        <time>2025-11-05T13:31:11.446Z</time>
      </trkpt>
      <trkpt lat="44.08646" lon="0.47626">
        <ele>89</ele>
        <time>2025-11-05T13:31:12.446Z</time>
      </trkpt>
      <trkpt lat="44.08644" lon="0.47625">
        <ele>88</ele>
        <time>2025-11-05T13:31:13.446Z</time>
      </trkpt>
      <trkpt lat="44.08642" lon="0.47625">
        <ele>88</ele>
        <time>2025-11-05T13:31:14.446Z</time>
      </trkpt>
      <trkpt lat="44.08641" lon="0.47625">
        <ele>88</ele>
        <time>2025-11-05T13:31:15.446Z</time>
      </trkpt>
      <trkpt lat="44.0864" lon="0.47625">
        <ele>88</ele>
        <time>2025-11-05T13:31:16.446Z</time>
      </trkpt>
      <trkpt lat="44.08639" lon="0.47625">
        <ele>88</ele>
        <time>2025-11-05T13:31:17.446Z</time>
      </trkpt>
      <trkpt lat="44.08638" lon="0.47625">
        <ele>88</ele>
        <time>2025-11-05T13:31:18.446Z</time>
      </trkpt>
      <trkpt lat="44.08636" lon="0.47625">
        <ele>89</ele>
        <time>2025-11-05T13:31:19.446Z</time>
      </trkpt>
      <trkpt lat="44.08635" lon="0.47624">
        <ele>89</ele>
        <time>2025-11-05T13:31:20.446Z</time>
      </trkpt>
      <trkpt lat="44.08634" lon="0.47624">
        <ele>89</ele>
        <time>2025-11-05T13:31:21.446Z</time>
      </trkpt>
      <trkpt lat="44.08633" lon="0.47624">
        <ele>89</ele>
        <time>2025-11-05T13:31:22.446Z</time>
      </trkpt>
      <trkpt lat="44.08632" lon="0.47623">
        <ele>89</ele>
        <time>2025-11-05T13:31:23.446Z</time>
      </trkpt>
      <trkpt lat="44.08631" lon="0.47623">
        <ele>89</ele>
        <time>2025-11-05T13:31:24.446Z</time>
      </trkpt>
      <trkpt lat="44.0863" lon="0.47623">
        <ele>89</ele>
        <time>2025-11-05T13:31:25.446Z</time>
      </trkpt>
      <trkpt lat="44.08629" lon="0.47623">
        <ele>89</ele>
        <time>2025-11-05T13:31:26.446Z</time>
      </trkpt>
      <trkpt lat="44.08627" lon="0.47622">
        <ele>90</ele>
        <time>2025-11-05T13:31:27.446Z</time>
      </trkpt>
      <trkpt lat="44.08626" lon="0.47622">
        <ele>90</ele>
        <time>2025-11-05T13:31:28.446Z</time>
      </trkpt>
      <trkpt lat="44.08625" lon="0.47622">
        <ele>90</ele>
        <time>2025-11-05T13:31:29.446Z</time>
      </trkpt>
      <trkpt lat="44.08624" lon="0.47623">
        <ele>91</ele>
        <time>2025-11-05T13:31:30.446Z</time>
      </trkpt>
      <trkpt lat="44.08622" lon="0.47623">
        <ele>91</ele>
        <time>2025-11-05T13:31:31.446Z</time>
      </trkpt>
      <trkpt lat="44.08621" lon="0.47623">
        <ele>91</ele>
        <time>2025-11-05T13:31:32.446Z</time>
      </trkpt>
      <trkpt lat="44.0862" lon="0.47623">
        <ele>92</ele>
        <time>2025-11-05T13:31:33.446Z</time>
      </trkpt>
      <trkpt lat="44.08619" lon="0.47623">
        <ele>92</ele>
        <time>2025-11-05T13:31:34.446Z</time>
      </trkpt>
      <trkpt lat="44.08617" lon="0.47622">
        <ele>92</ele>
        <time>2025-11-05T13:31:35.447Z</time>
      </trkpt>
      <trkpt lat="44.08616" lon="0.47621">
        <ele>92</ele>
        <time>2025-11-05T13:31:36.446Z</time>
      </trkpt>
      <trkpt lat="44.08614" lon="0.4762">
        <ele>92</ele>
        <time>2025-11-05T13:31:37.446Z</time>
      </trkpt>
      <trkpt lat="44.08612" lon="0.47619">
        <ele>92</ele>
        <time>2025-11-05T13:31:38.446Z</time>
      </trkpt>
      <trkpt lat="44.08611" lon="0.47619">
        <ele>92</ele>
        <time>2025-11-05T13:31:39.446Z</time>
      </trkpt>
      <trkpt lat="44.0861" lon="0.47619">
        <ele>92</ele>
        <time>2025-11-05T13:31:40.446Z</time>
      </trkpt>
      <trkpt lat="44.08609" lon="0.4762">
        <ele>92</ele>
        <time>2025-11-05T13:31:41.446Z</time>
      </trkpt>
      <trkpt lat="44.08608" lon="0.47619">
        <ele>91</ele>
        <time>2025-11-05T13:31:42.446Z</time>
      </trkpt>
      <trkpt lat="44.08606" lon="0.47619">
        <ele>91</ele>
        <time>2025-11-05T13:31:43.446Z</time>
      </trkpt>
      <trkpt lat="44.08605" lon="0.47619">
        <ele>91</ele>
        <time>2025-11-05T13:31:44.446Z</time>
      </trkpt>
      <trkpt lat="44.08604" lon="0.47619">
        <ele>91</ele>
        <time>2025-11-05T13:31:45.446Z</time>
      </trkpt>
      <trkpt lat="44.08603" lon="0.47618">
        <ele>91</ele>
        <time>2025-11-05T13:31:46.446Z</time>
      </trkpt>
      <trkpt lat="44.08601" lon="0.47618">
        <ele>90</ele>
        <time>2025-11-05T13:31:47.446Z</time>
      </trkpt>
      <trkpt lat="44.086" lon="0.47617">
        <ele>90</ele>
        <time>2025-11-05T13:31:48.446Z</time>
      </trkpt>
      <trkpt lat="44.08599" lon="0.47617">
        <ele>90</ele>
        <time>2025-11-05T13:31:49.446Z</time>
      </trkpt>
      <trkpt lat="44.08597" lon="0.47617">
        <ele>90</ele>
        <time>2025-11-05T13:31:50.446Z</time>
      </trkpt>
      <trkpt lat="44.08596" lon="0.47617">
        <ele>90</ele>
        <time>2025-11-05T13:31:51.446Z</time>
      </trkpt>
      <trkpt lat="44.08595" lon="0.47617">
        <ele>90</ele>
        <time>2025-11-05T13:31:52.446Z</time>
      </trkpt>
      <trkpt lat="44.08594" lon="0.47618">
        <ele>90</ele>
        <time>2025-11-05T13:31:53.446Z</time>
      </trkpt>
      <trkpt lat="44.08592" lon="0.47618">
        <ele>91</ele>
        <time>2025-11-05T13:31:54.446Z</time>
      </trkpt>
      <trkpt lat="44.08591" lon="0.47618">
        <ele>91</ele>
        <time>2025-11-05T13:31:55.446Z</time>
      </trkpt>
      <trkpt lat="44.0859" lon="0.47617">
        <ele>91</ele>
        <time>2025-11-05T13:31:56.446Z</time>
      </trkpt>
      <trkpt lat="44.08589" lon="0.47617">
        <ele>91</ele>
        <time>2025-11-05T13:31:57.446Z</time>
      </trkpt>
      <trkpt lat="44.08588" lon="0.47617">
        <ele>91</ele>
        <time>2025-11-05T13:31:58.446Z</time>
      </trkpt>
      <trkpt lat="44.08586" lon="0.47616">
        <ele>91</ele>
        <time>2025-11-05T13:31:59.446Z</time>
      </trkpt>
      <trkpt lat="44.08585" lon="0.47616">
        <ele>92</ele>
        <time>2025-11-05T13:32:00.446Z</time>
      </trkpt>
      <trkpt lat="44.08584" lon="0.47615">
        <ele>92</ele>
        <time>2025-11-05T13:32:01.446Z</time>
      </trkpt>
      <trkpt lat="44.08583" lon="0.47614">
        <ele>91</ele>
        <time>2025-11-05T13:32:02.446Z</time>
      </trkpt>
      <trkpt lat="44.08581" lon="0.47613">
        <ele>91</ele>
        <time>2025-11-05T13:32:03.446Z</time>
      </trkpt>
      <trkpt lat="44.0858" lon="0.47613">
        <ele>90</ele>
        <time>2025-11-05T13:32:04.446Z</time>
      </trkpt>
      <trkpt lat="44.08579" lon="0.47613">
        <ele>90</ele>
        <time>2025-11-05T13:32:05.446Z</time>
      </trkpt>
      <trkpt lat="44.08578" lon="0.47612">
        <ele>90</ele>
        <time>2025-11-05T13:32:06.446Z</time>
      </trkpt>
      <trkpt lat="44.08577" lon="0.47611">
        <ele>90</ele>
        <time>2025-11-05T13:32:07.446Z</time>
      </trkpt>
      <trkpt lat="44.08575" lon="0.47611">
        <ele>89</ele>
        <time>2025-11-05T13:32:08.446Z</time>
      </trkpt>
      <trkpt lat="44.08574" lon="0.4761">
        <ele>89</ele>
        <time>2025-11-05T13:32:09.446Z</time>
      </trkpt>
      <trkpt lat="44.08572" lon="0.4761">
        <ele>89</ele>
        <time>2025-11-05T13:32:10.446Z</time>
      </trkpt>
      <trkpt lat="44.08571" lon="0.47609">
        <ele>89</ele>
        <time>2025-11-05T13:32:11.446Z</time>
      </trkpt>
      <trkpt lat="44.0857" lon="0.47607">
        <ele>88</ele>
        <time>2025-11-05T13:32:12.446Z</time>
      </trkpt>
      <trkpt lat="44.08569" lon="0.47607">
        <ele>88</ele>
        <time>2025-11-05T13:32:13.446Z</time>
      </trkpt>
      <trkpt lat="44.08568" lon="0.47606">
        <ele>88</ele>
        <time>2025-11-05T13:32:14.446Z</time>
      </trkpt>
      <trkpt lat="44.08567" lon="0.47606">
        <ele>88</ele>
        <time>2025-11-05T13:32:15.446Z</time>
      </trkpt>
      <trkpt lat="44.08565" lon="0.47605">
        <ele>87</ele>
        <time>2025-11-05T13:32:16.446Z</time>
      </trkpt>
      <trkpt lat="44.08564" lon="0.47605">
        <ele>87</ele>
        <time>2025-11-05T13:32:17.446Z</time>
      </trkpt>
      <trkpt lat="44.08563" lon="0.47604">
        <ele>87</ele>
        <time>2025-11-05T13:32:18.446Z</time>
      </trkpt>
      <trkpt lat="44.08562" lon="0.47604">
        <ele>87</ele>
        <time>2025-11-05T13:32:19.446Z</time>
      </trkpt>
      <trkpt lat="44.0856" lon="0.47603">
        <ele>87</ele>
        <time>2025-11-05T13:32:20.446Z</time>
      </trkpt>
      <trkpt lat="44.08559" lon="0.47603">
        <ele>87</ele>
        <time>2025-11-05T13:32:21.446Z</time>
      </trkpt>
      <trkpt lat="44.08557" lon="0.47603">
        <ele>87</ele>
        <time>2025-11-05T13:32:22.446Z</time>
      </trkpt>
      <trkpt lat="44.08555" lon="0.47603">
        <ele>86</ele>
        <time>2025-11-05T13:32:23.446Z</time>
      </trkpt>
      <trkpt lat="44.08554" lon="0.47602">
        <ele>86</ele>
        <time>2025-11-05T13:32:24.446Z</time>
      </trkpt>
      <trkpt lat="44.08553" lon="0.47602">
        <ele>86</ele>
        <time>2025-11-05T13:32:25.446Z</time>
      </trkpt>
      <trkpt lat="44.08551" lon="0.47602">
        <ele>86</ele>
        <time>2025-11-05T13:32:26.446Z</time>
      </trkpt>
      <trkpt lat="44.0855" lon="0.47602">
        <ele>85</ele>
        <time>2025-11-05T13:32:27.446Z</time>
      </trkpt>
      <trkpt lat="44.08549" lon="0.47602">
        <ele>85</ele>
        <time>2025-11-05T13:32:28.446Z</time>
      </trkpt>
      <trkpt lat="44.08548" lon="0.47601">
        <ele>85</ele>
        <time>2025-11-05T13:32:29.446Z</time>
      </trkpt>
      <trkpt lat="44.08547" lon="0.47601">
        <ele>84</ele>
        <time>2025-11-05T13:32:30.446Z</time>
      </trkpt>
      <trkpt lat="44.08546" lon="0.47601">
        <ele>84</ele>
        <time>2025-11-05T13:32:31.446Z</time>
      </trkpt>
      <trkpt lat="44.08544" lon="0.476">
        <ele>84</ele>
        <time>2025-11-05T13:32:32.446Z</time>
      </trkpt>
      <trkpt lat="44.08543" lon="0.476">
        <ele>84</ele>
        <time>2025-11-05T13:32:33.446Z</time>
      </trkpt>
      <trkpt lat="44.08542" lon="0.476">
        <ele>84</ele>
        <time>2025-11-05T13:32:34.446Z</time>
      </trkpt>
      <trkpt lat="44.08541" lon="0.47599">
        <ele>84</ele>
        <time>2025-11-05T13:32:35.446Z</time>
      </trkpt>
      <trkpt lat="44.0854" lon="0.47599">
        <ele>84</ele>
        <time>2025-11-05T13:32:36.446Z</time>
      </trkpt>
      <trkpt lat="44.08539" lon="0.47599">
        <ele>83</ele>
        <time>2025-11-05T13:32:37.446Z</time>
      </trkpt>
      <trkpt lat="44.08538" lon="0.47598">
        <ele>83</ele>
        <time>2025-11-05T13:32:38.446Z</time>
      </trkpt>
      <trkpt lat="44.08537" lon="0.47598">
        <ele>83</ele>
        <time>2025-11-05T13:32:39.446Z</time>
      </trkpt>
      <trkpt lat="44.08535" lon="0.47598">
        <ele>83</ele>
        <time>2025-11-05T13:32:40.446Z</time>
      </trkpt>
      <trkpt lat="44.08534" lon="0.47598">
        <ele>83</ele>
        <time>2025-11-05T13:32:41.446Z</time>
      </trkpt>
      <trkpt lat="44.08533" lon="0.47597">
        <ele>83</ele>
        <time>2025-11-05T13:32:42.446Z</time>
      </trkpt>
      <trkpt lat="44.08532" lon="0.47597">
        <ele>83</ele>
        <time>2025-11-05T13:32:43.446Z</time>
      </trkpt>
      <trkpt lat="44.0853" lon="0.47597">
        <ele>83</ele>
        <time>2025-11-05T13:32:44.446Z</time>
      </trkpt>
      <trkpt lat="44.08529" lon="0.47597">
        <ele>83</ele>
        <time>2025-11-05T13:32:45.446Z</time>
      </trkpt>
      <trkpt lat="44.08527" lon="0.47596">
        <ele>83</ele>
        <time>2025-11-05T13:32:46.446Z</time>
      </trkpt>
      <trkpt lat="44.08526" lon="0.47596">
        <ele>84</ele>
        <time>2025-11-05T13:32:47.446Z</time>
      </trkpt>
      <trkpt lat="44.08525" lon="0.47596">
        <ele>84</ele>
        <time>2025-11-05T13:32:48.446Z</time>
      </trkpt>
      <trkpt lat="44.08524" lon="0.47595">
        <ele>84</ele>
        <time>2025-11-05T13:32:49.446Z</time>
      </trkpt>
      <trkpt lat="44.08523" lon="0.47595">
        <ele>84</ele>
        <time>2025-11-05T13:32:50.446Z</time>
      </trkpt>
      <trkpt lat="44.08522" lon="0.47594">
        <ele>85</ele>
        <time>2025-11-05T13:32:51.446Z</time>
      </trkpt>
      <trkpt lat="44.0852" lon="0.47594">
        <ele>85</ele>
        <time>2025-11-05T13:32:52.446Z</time>
      </trkpt>
      <trkpt lat="44.08519" lon="0.47593">
        <ele>85</ele>
        <time>2025-11-05T13:32:53.446Z</time>
      </trkpt>
      <trkpt lat="44.08518" lon="0.47593">
        <ele>85</ele>
        <time>2025-11-05T13:32:54.446Z</time>
      </trkpt>
      <trkpt lat="44.08517" lon="0.47593">
        <ele>85</ele>
        <time>2025-11-05T13:32:55.446Z</time>
      </trkpt>
      <trkpt lat="44.08516" lon="0.47593">
        <ele>85</ele>
        <time>2025-11-05T13:32:56.446Z</time>
      </trkpt>
      <trkpt lat="44.08515" lon="0.47592">
        <ele>85</ele>
        <time>2025-11-05T13:32:57.446Z</time>
      </trkpt>
      <trkpt lat="44.08514" lon="0.47592">
        <ele>85</ele>
        <time>2025-11-05T13:32:58.446Z</time>
      </trkpt>
      <trkpt lat="44.08512" lon="0.47592">
        <ele>85</ele>
        <time>2025-11-05T13:32:59.446Z</time>
      </trkpt>
      <trkpt lat="44.08511" lon="0.47592">
        <ele>85</ele>
        <time>2025-11-05T13:33:00.446Z</time>
      </trkpt>
      <trkpt lat="44.0851" lon="0.47592">
        <ele>85</ele>
        <time>2025-11-05T13:33:01.446Z</time>
      </trkpt>
      <trkpt lat="44.08508" lon="0.47591">
        <ele>86</ele>
        <time>2025-11-05T13:33:02.446Z</time>
      </trkpt>
      <trkpt lat="44.08507" lon="0.47591">
        <ele>86</ele>
        <time>2025-11-05T13:33:03.446Z</time>
      </trkpt>
      <trkpt lat="44.08506" lon="0.47591">
        <ele>86</ele>
        <time>2025-11-05T13:33:04.446Z</time>
      </trkpt>
      <trkpt lat="44.08505" lon="0.47591">
        <ele>86</ele>
        <time>2025-11-05T13:33:05.446Z</time>
      </trkpt>
      <trkpt lat="44.08504" lon="0.47591">
        <ele>86</ele>
        <time>2025-11-05T13:33:06.446Z</time>
      </trkpt>
      <trkpt lat="44.08502" lon="0.4759">
        <ele>86</ele>
        <time>2025-11-05T13:33:07.446Z</time>
      </trkpt>
      <trkpt lat="44.08501" lon="0.4759">
        <ele>86</ele>
        <time>2025-11-05T13:33:08.446Z</time>
      </trkpt>
      <trkpt lat="44.08499" lon="0.4759">
        <ele>86</ele>
        <time>2025-11-05T13:33:09.446Z</time>
      </trkpt>
      <trkpt lat="44.08499" lon="0.47589">
        <ele>86</ele>
        <time>2025-11-05T13:33:10.446Z</time>
      </trkpt>
      <trkpt lat="44.08498" lon="0.47589">
        <ele>86</ele>
        <time>2025-11-05T13:33:11.446Z</time>
      </trkpt>
      <trkpt lat="44.08497" lon="0.47589">
        <ele>86</ele>
        <time>2025-11-05T13:33:12.446Z</time>
      </trkpt>
      <trkpt lat="44.08495" lon="0.47588">
        <ele>85</ele>
        <time>2025-11-05T13:33:13.446Z</time>
      </trkpt>
      <trkpt lat="44.08494" lon="0.47588">
        <ele>85</ele>
        <time>2025-11-05T13:33:14.446Z</time>
      </trkpt>
      <trkpt lat="44.08493" lon="0.47588">
        <ele>85</ele>
        <time>2025-11-05T13:33:15.446Z</time>
      </trkpt>
      <trkpt lat="44.08492" lon="0.47588">
        <ele>85</ele>
        <time>2025-11-05T13:33:16.446Z</time>
      </trkpt>
      <trkpt lat="44.08491" lon="0.47588">
        <ele>85</ele>
        <time>2025-11-05T13:33:17.446Z</time>
      </trkpt>
      <trkpt lat="44.08489" lon="0.47587">
        <ele>85</ele>
        <time>2025-11-05T13:33:18.447Z</time>
      </trkpt>
      <trkpt lat="44.08488" lon="0.47587">
        <ele>85</ele>
        <time>2025-11-05T13:33:19.446Z</time>
      </trkpt>
      <trkpt lat="44.08486" lon="0.47587">
        <ele>85</ele>
        <time>2025-11-05T13:33:20.446Z</time>
      </trkpt>
      <trkpt lat="44.08485" lon="0.47586">
        <ele>85</ele>
        <time>2025-11-05T13:33:21.446Z</time>
      </trkpt>
      <trkpt lat="44.08484" lon="0.47586">
        <ele>85</ele>
        <time>2025-11-05T13:33:22.446Z</time>
      </trkpt>
      <trkpt lat="44.08483" lon="0.47585">
        <ele>85</ele>
        <time>2025-11-05T13:33:23.446Z</time>
      </trkpt>
      <trkpt lat="44.08482" lon="0.47585">
        <ele>85</ele>
        <time>2025-11-05T13:33:24.446Z</time>
      </trkpt>
      <trkpt lat="44.0848" lon="0.47584">
        <ele>85</ele>
        <time>2025-11-05T13:33:25.446Z</time>
      </trkpt>
      <trkpt lat="44.08479" lon="0.47584">
        <ele>85</ele>
        <time>2025-11-05T13:33:26.446Z</time>
      </trkpt>
      <trkpt lat="44.08478" lon="0.47584">
        <ele>85</ele>
        <time>2025-11-05T13:33:27.446Z</time>
      </trkpt>
      <trkpt lat="44.08476" lon="0.47583">
        <ele>85</ele>
        <time>2025-11-05T13:33:28.446Z</time>
      </trkpt>
      <trkpt lat="44.08475" lon="0.47583">
        <ele>85</ele>
        <time>2025-11-05T13:33:29.446Z</time>
      </trkpt>
      <trkpt lat="44.08474" lon="0.47582">
        <ele>85</ele>
        <time>2025-11-05T13:33:30.446Z</time>
      </trkpt>
      <trkpt lat="44.08472" lon="0.47582">
        <ele>84</ele>
        <time>2025-11-05T13:33:31.446Z</time>
      </trkpt>
      <trkpt lat="44.08471" lon="0.47582">
        <ele>84</ele>
        <time>2025-11-05T13:33:32.446Z</time>
      </trkpt>
      <trkpt lat="44.0847" lon="0.47582">
        <ele>84</ele>
        <time>2025-11-05T13:33:33.446Z</time>
      </trkpt>
      <trkpt lat="44.08469" lon="0.47581">
        <ele>84</ele>
        <time>2025-11-05T13:33:34.446Z</time>
      </trkpt>
      <trkpt lat="44.08468" lon="0.47581">
        <ele>85</ele>
        <time>2025-11-05T13:33:35.446Z</time>
      </trkpt>
      <trkpt lat="44.08467" lon="0.47581">
        <ele>85</ele>
        <time>2025-11-05T13:33:36.446Z</time>
      </trkpt>
      <trkpt lat="44.08465" lon="0.47581">
        <ele>85</ele>
        <time>2025-11-05T13:33:37.446Z</time>
      </trkpt>
      <trkpt lat="44.08464" lon="0.4758">
        <ele>86</ele>
        <time>2025-11-05T13:33:38.446Z</time>
      </trkpt>
      <trkpt lat="44.08462" lon="0.4758">
        <ele>86</ele>
        <time>2025-11-05T13:33:39.446Z</time>
      </trkpt>
      <trkpt lat="44.08461" lon="0.4758">
        <ele>86</ele>
        <time>2025-11-05T13:33:40.446Z</time>
      </trkpt>
      <trkpt lat="44.0846" lon="0.47579">
        <ele>86</ele>
        <time>2025-11-05T13:33:41.446Z</time>
      </trkpt>
      <trkpt lat="44.08458" lon="0.47579">
        <ele>86</ele>
        <time>2025-11-05T13:33:42.446Z</time>
      </trkpt>
      <trkpt lat="44.08457" lon="0.47578">
        <ele>85</ele>
        <time>2025-11-05T13:33:43.446Z</time>
      </trkpt>
      <trkpt lat="44.08456" lon="0.47578">
        <ele>85</ele>
        <time>2025-11-05T13:33:44.446Z</time>
      </trkpt>
      <trkpt lat="44.08455" lon="0.47578">
        <ele>85</ele>
        <time>2025-11-05T13:33:45.446Z</time>
      </trkpt>
      <trkpt lat="44.08454" lon="0.47577">
        <ele>85</ele>
        <time>2025-11-05T13:33:46.446Z</time>
      </trkpt>
      <trkpt lat="44.08452" lon="0.47577">
        <ele>85</ele>
        <time>2025-11-05T13:33:47.446Z</time>
      </trkpt>
      <trkpt lat="44.08451" lon="0.47577">
        <ele>85</ele>
        <time>2025-11-05T13:33:48.446Z</time>
      </trkpt>
      <trkpt lat="44.08449" lon="0.47576">
        <ele>85</ele>
        <time>2025-11-05T13:33:49.446Z</time>
      </trkpt>
      <trkpt lat="44.08448" lon="0.47576">
        <ele>85</ele>
        <time>2025-11-05T13:33:50.446Z</time>
      </trkpt>
      <trkpt lat="44.08447" lon="0.47576">
        <ele>85</ele>
        <time>2025-11-05T13:33:51.446Z</time>
      </trkpt>
      <trkpt lat="44.08445" lon="0.47576">
        <ele>85</ele>
        <time>2025-11-05T13:33:52.446Z</time>
      </trkpt>
      <trkpt lat="44.08444" lon="0.47576">
        <ele>85</ele>
        <time>2025-11-05T13:33:53.446Z</time>
      </trkpt>
      <trkpt lat="44.08443" lon="0.47575">
        <ele>84</ele>
        <time>2025-11-05T13:33:54.446Z</time>
      </trkpt>
      <trkpt lat="44.08441" lon="0.47575">
        <ele>85</ele>
        <time>2025-11-05T13:33:55.446Z</time>
      </trkpt>
      <trkpt lat="44.0844" lon="0.47575">
        <ele>85</ele>
        <time>2025-11-05T13:33:56.446Z</time>
      </trkpt>
      <trkpt lat="44.08439" lon="0.47575">
        <ele>85</ele>
        <time>2025-11-05T13:33:57.446Z</time>
      </trkpt>
      <trkpt lat="44.08438" lon="0.47575">
        <ele>84</ele>
        <time>2025-11-05T13:33:58.446Z</time>
      </trkpt>
      <trkpt lat="44.08437" lon="0.47574">
        <ele>84</ele>
        <time>2025-11-05T13:33:59.446Z</time>
      </trkpt>
      <trkpt lat="44.08435" lon="0.47574">
        <ele>84</ele>
        <time>2025-11-05T13:34:00.446Z</time>
      </trkpt>
      <trkpt lat="44.08434" lon="0.47575">
        <ele>84</ele>
        <time>2025-11-05T13:34:01.446Z</time>
      </trkpt>
      <trkpt lat="44.08433" lon="0.47575">
        <ele>85</ele>
        <time>2025-11-05T13:34:02.446Z</time>
      </trkpt>
      <trkpt lat="44.08431" lon="0.47576">
        <ele>85</ele>
        <time>2025-11-05T13:34:03.446Z</time>
      </trkpt>
      <trkpt lat="44.0843" lon="0.47576">
        <ele>85</ele>
        <time>2025-11-05T13:34:04.446Z</time>
      </trkpt>
      <trkpt lat="44.08428" lon="0.47577">
        <ele>85</ele>
        <time>2025-11-05T13:34:05.446Z</time>
      </trkpt>
      <trkpt lat="44.08427" lon="0.47577">
        <ele>85</ele>
        <time>2025-11-05T13:34:06.447Z</time>
      </trkpt>
      <trkpt lat="44.08426" lon="0.47577">
        <ele>85</ele>
        <time>2025-11-05T13:34:07.446Z</time>
      </trkpt>
      <trkpt lat="44.08425" lon="0.47576">
        <ele>85</ele>
        <time>2025-11-05T13:34:08.446Z</time>
      </trkpt>
      <trkpt lat="44.08424" lon="0.47576">
        <ele>85</ele>
        <time>2025-11-05T13:34:09.446Z</time>
      </trkpt>
      <trkpt lat="44.08423" lon="0.47576">
        <ele>85</ele>
        <time>2025-11-05T13:34:10.446Z</time>
      </trkpt>
      <trkpt lat="44.08422" lon="0.47576">
        <ele>84</ele>
        <time>2025-11-05T13:34:11.446Z</time>
      </trkpt>
      <trkpt lat="44.0842" lon="0.47577">
        <ele>84</ele>
        <time>2025-11-05T13:34:12.446Z</time>
      </trkpt>
      <trkpt lat="44.08419" lon="0.47577">
        <ele>84</ele>
        <time>2025-11-05T13:34:13.446Z</time>
      </trkpt>
      <trkpt lat="44.08417" lon="0.47577">
        <ele>84</ele>
        <time>2025-11-05T13:34:14.446Z</time>
      </trkpt>
      <trkpt lat="44.08416" lon="0.47577">
        <ele>84</ele>
        <time>2025-11-05T13:34:15.446Z</time>
      </trkpt>
      <trkpt lat="44.08415" lon="0.47577">
        <ele>84</ele>
        <time>2025-11-05T13:34:16.446Z</time>
      </trkpt>
      <trkpt lat="44.08414" lon="0.47577">
        <ele>84</ele>
        <time>2025-11-05T13:34:17.446Z</time>
      </trkpt>
      <trkpt lat="44.08413" lon="0.47577">
        <ele>84</ele>
        <time>2025-11-05T13:34:18.446Z</time>
      </trkpt>
      <trkpt lat="44.08411" lon="0.47577">
        <ele>84</ele>
        <time>2025-11-05T13:34:19.446Z</time>
      </trkpt>
      <trkpt lat="44.0841" lon="0.47577">
        <ele>84</ele>
        <time>2025-11-05T13:34:20.446Z</time>
      </trkpt>
      <trkpt lat="44.08409" lon="0.47577">
        <ele>84</ele>
        <time>2025-11-05T13:34:21.446Z</time>
      </trkpt>
      <trkpt lat="44.08408" lon="0.47577">
        <ele>84</ele>
        <time>2025-11-05T13:34:22.446Z</time>
      </trkpt>
      <trkpt lat="44.08407" lon="0.47577">
        <ele>84</ele>
        <time>2025-11-05T13:34:23.446Z</time>
      </trkpt>
      <trkpt lat="44.08405" lon="0.47578">
        <ele>85</ele>
        <time>2025-11-05T13:34:24.446Z</time>
      </trkpt>
      <trkpt lat="44.08404" lon="0.47578">
        <ele>86</ele>
        <time>2025-11-05T13:34:25.446Z</time>
      </trkpt>
      <trkpt lat="44.08402" lon="0.47579">
        <ele>86</ele>
        <time>2025-11-05T13:34:26.446Z</time>
      </trkpt>
      <trkpt lat="44.08401" lon="0.47579">
        <ele>86</ele>
        <time>2025-11-05T13:34:27.446Z</time>
      </trkpt>
      <trkpt lat="44.084" lon="0.47579">
        <ele>86</ele>
        <time>2025-11-05T13:34:28.446Z</time>
      </trkpt>
      <trkpt lat="44.08399" lon="0.4758">
        <ele>85</ele>
        <time>2025-11-05T13:34:29.446Z</time>
      </trkpt>
      <trkpt lat="44.08398" lon="0.4758">
        <ele>85</ele>
        <time>2025-11-05T13:34:30.446Z</time>
      </trkpt>
      <trkpt lat="44.08397" lon="0.4758">
        <ele>85</ele>
        <time>2025-11-05T13:34:31.446Z</time>
      </trkpt>
      <trkpt lat="44.08395" lon="0.47581">
        <ele>85</ele>
        <time>2025-11-05T13:34:32.446Z</time>
      </trkpt>
      <trkpt lat="44.08394" lon="0.47581">
        <ele>85</ele>
        <time>2025-11-05T13:34:33.446Z</time>
      </trkpt>
      <trkpt lat="44.08393" lon="0.47581">
        <ele>85</ele>
        <time>2025-11-05T13:34:34.446Z</time>
      </trkpt>
      <trkpt lat="44.08391" lon="0.47581">
        <ele>85</ele>
        <time>2025-11-05T13:34:35.446Z</time>
      </trkpt>
      <trkpt lat="44.0839" lon="0.47582">
        <ele>85</ele>
        <time>2025-11-05T13:34:36.446Z</time>
      </trkpt>
      <trkpt lat="44.08389" lon="0.47582">
        <ele>86</ele>
        <time>2025-11-05T13:34:37.446Z</time>
      </trkpt>
      <trkpt lat="44.08388" lon="0.47583">
        <ele>86</ele>
        <time>2025-11-05T13:34:38.446Z</time>
      </trkpt>
      <trkpt lat="44.08387" lon="0.47583">
        <ele>86</ele>
        <time>2025-11-05T13:34:39.446Z</time>
      </trkpt>
      <trkpt lat="44.08386" lon="0.47583">
        <ele>86</ele>
        <time>2025-11-05T13:34:40.446Z</time>
      </trkpt>
      <trkpt lat="44.08384" lon="0.47584">
        <ele>86</ele>
        <time>2025-11-05T13:34:41.446Z</time>
      </trkpt>
      <trkpt lat="44.08383" lon="0.47584">
        <ele>87</ele>
        <time>2025-11-05T13:34:42.446Z</time>
      </trkpt>
      <trkpt lat="44.08382" lon="0.47584">
        <ele>87</ele>
        <time>2025-11-05T13:34:43.446Z</time>
      </trkpt>
      <trkpt lat="44.08381" lon="0.47584">
        <ele>87</ele>
        <time>2025-11-05T13:34:44.446Z</time>
      </trkpt>
      <trkpt lat="44.0838" lon="0.47585">
        <ele>86</ele>
        <time>2025-11-05T13:34:45.446Z</time>
      </trkpt>
      <trkpt lat="44.08379" lon="0.47585">
        <ele>86</ele>
        <time>2025-11-05T13:34:46.446Z</time>
      </trkpt>
      <trkpt lat="44.08378" lon="0.47585">
        <ele>86</ele>
        <time>2025-11-05T13:34:47.446Z</time>
      </trkpt>
      <trkpt lat="44.08376" lon="0.47585">
        <ele>86</ele>
        <time>2025-11-05T13:34:48.446Z</time>
      </trkpt>
      <trkpt lat="44.08375" lon="0.47586">
        <ele>86</ele>
        <time>2025-11-05T13:34:49.446Z</time>
      </trkpt>
      <trkpt lat="44.08374" lon="0.47586">
        <ele>86</ele>
        <time>2025-11-05T13:34:50.447Z</time>
      </trkpt>
      <trkpt lat="44.08372" lon="0.47586">
        <ele>86</ele>
        <time>2025-11-05T13:34:51.446Z</time>
      </trkpt>
      <trkpt lat="44.08371" lon="0.47586">
        <ele>86</ele>
        <time>2025-11-05T13:34:52.446Z</time>
      </trkpt>
      <trkpt lat="44.0837" lon="0.47587">
        <ele>86</ele>
        <time>2025-11-05T13:34:53.446Z</time>
      </trkpt>
      <trkpt lat="44.08369" lon="0.47587">
        <ele>86</ele>
        <time>2025-11-05T13:34:54.446Z</time>
      </trkpt>
      <trkpt lat="44.08368" lon="0.47587">
        <ele>86</ele>
        <time>2025-11-05T13:34:55.446Z</time>
      </trkpt>
      <trkpt lat="44.08367" lon="0.47588">
        <ele>86</ele>
        <time>2025-11-05T13:34:56.446Z</time>
      </trkpt>
      <trkpt lat="44.08365" lon="0.47588">
        <ele>86</ele>
        <time>2025-11-05T13:34:57.446Z</time>
      </trkpt>
      <trkpt lat="44.08364" lon="0.47588">
        <ele>86</ele>
        <time>2025-11-05T13:34:58.446Z</time>
      </trkpt>
      <trkpt lat="44.08363" lon="0.47588">
        <ele>86</ele>
        <time>2025-11-05T13:34:59.446Z</time>
      </trkpt>
      <trkpt lat="44.08362" lon="0.47589">
        <ele>86</ele>
        <time>2025-11-05T13:35:00.446Z</time>
      </trkpt>
      <trkpt lat="44.0836" lon="0.47589">
        <ele>86</ele>
        <time>2025-11-05T13:35:01.446Z</time>
      </trkpt>
      <trkpt lat="44.08359" lon="0.4759">
        <ele>86</ele>
        <time>2025-11-05T13:35:02.446Z</time>
      </trkpt>
      <trkpt lat="44.08358" lon="0.4759">
        <ele>86</ele>
        <time>2025-11-05T13:35:03.446Z</time>
      </trkpt>
      <trkpt lat="44.08357" lon="0.4759">
        <ele>86</ele>
        <time>2025-11-05T13:35:04.446Z</time>
      </trkpt>
      <trkpt lat="44.08356" lon="0.47591">
        <ele>86</ele>
        <time>2025-11-05T13:35:05.446Z</time>
      </trkpt>
      <trkpt lat="44.08355" lon="0.47591">
        <ele>86</ele>
        <time>2025-11-05T13:35:06.446Z</time>
      </trkpt>
      <trkpt lat="44.08353" lon="0.47591">
        <ele>86</ele>
        <time>2025-11-05T13:35:07.446Z</time>
      </trkpt>
      <trkpt lat="44.08352" lon="0.47591">
        <ele>85</ele>
        <time>2025-11-05T13:35:08.446Z</time>
      </trkpt>
      <trkpt lat="44.0835" lon="0.47591">
        <ele>85</ele>
        <time>2025-11-05T13:35:09.446Z</time>
      </trkpt>
      <trkpt lat="44.08349" lon="0.47591">
        <ele>85</ele>
        <time>2025-11-05T13:35:10.446Z</time>
      </trkpt>
      <trkpt lat="44.08348" lon="0.47592">
        <ele>85</ele>
        <time>2025-11-05T13:35:11.446Z</time>
      </trkpt>
      <trkpt lat="44.08347" lon="0.47592">
        <ele>85</ele>
        <time>2025-11-05T13:35:12.446Z</time>
      </trkpt>
      <trkpt lat="44.08346" lon="0.47592">
        <ele>85</ele>
        <time>2025-11-05T13:35:13.446Z</time>
      </trkpt>
      <trkpt lat="44.08345" lon="0.47593">
        <ele>85</ele>
        <time>2025-11-05T13:35:14.446Z</time>
      </trkpt>
      <trkpt lat="44.08343" lon="0.47593">
        <ele>85</ele>
        <time>2025-11-05T13:35:15.446Z</time>
      </trkpt>
      <trkpt lat="44.08342" lon="0.47594">
        <ele>85</ele>
        <time>2025-11-05T13:35:16.446Z</time>
      </trkpt>
      <trkpt lat="44.08341" lon="0.47594">
        <ele>85</ele>
        <time>2025-11-05T13:35:17.446Z</time>
      </trkpt>
      <trkpt lat="44.0834" lon="0.47594">
        <ele>86</ele>
        <time>2025-11-05T13:35:18.446Z</time>
      </trkpt>
      <trkpt lat="44.08338" lon="0.47594">
        <ele>85</ele>
        <time>2025-11-05T13:35:19.446Z</time>
      </trkpt>
      <trkpt lat="44.08337" lon="0.47595">
        <ele>85</ele>
        <time>2025-11-05T13:35:20.446Z</time>
      </trkpt>
      <trkpt lat="44.08336" lon="0.47595">
        <ele>85</ele>
        <time>2025-11-05T13:35:21.446Z</time>
      </trkpt>
      <trkpt lat="44.08334" lon="0.47595">
        <ele>85</ele>
        <time>2025-11-05T13:35:22.446Z</time>
      </trkpt>
      <trkpt lat="44.08333" lon="0.47596">
        <ele>85</ele>
        <time>2025-11-05T13:35:23.446Z</time>
      </trkpt>
      <trkpt lat="44.08332" lon="0.47596">
        <ele>85</ele>
        <time>2025-11-05T13:35:24.446Z</time>
      </trkpt>
      <trkpt lat="44.08331" lon="0.47596">
        <ele>85</ele>
        <time>2025-11-05T13:35:25.446Z</time>
      </trkpt>
      <trkpt lat="44.0833" lon="0.47596">
        <ele>85</ele>
        <time>2025-11-05T13:35:26.446Z</time>
      </trkpt>
      <trkpt lat="44.08329" lon="0.47596">
        <ele>84</ele>
        <time>2025-11-05T13:35:27.446Z</time>
      </trkpt>
      <trkpt lat="44.08328" lon="0.47596">
        <ele>84</ele>
        <time>2025-11-05T13:35:28.446Z</time>
      </trkpt>
      <trkpt lat="44.08326" lon="0.47597">
        <ele>84</ele>
        <time>2025-11-05T13:35:29.446Z</time>
      </trkpt>
      <trkpt lat="44.08325" lon="0.47597">
        <ele>85</ele>
        <time>2025-11-05T13:35:30.446Z</time>
      </trkpt>
      <trkpt lat="44.08324" lon="0.47598">
        <ele>85</ele>
        <time>2025-11-05T13:35:31.446Z</time>
      </trkpt>
      <trkpt lat="44.08323" lon="0.47598">
        <ele>84</ele>
        <time>2025-11-05T13:35:32.446Z</time>
      </trkpt>
      <trkpt lat="44.08322" lon="0.47599">
        <ele>84</ele>
        <time>2025-11-05T13:35:33.446Z</time>
      </trkpt>
      <trkpt lat="44.0832" lon="0.47599">
        <ele>84</ele>
        <time>2025-11-05T13:35:34.446Z</time>
      </trkpt>
      <trkpt lat="44.08319" lon="0.47599">
        <ele>84</ele>
        <time>2025-11-05T13:35:35.446Z</time>
      </trkpt>
      <trkpt lat="44.08318" lon="0.476">
        <ele>84</ele>
        <time>2025-11-05T13:35:36.446Z</time>
      </trkpt>
      <trkpt lat="44.08317" lon="0.476">
        <ele>84</ele>
        <time>2025-11-05T13:35:37.446Z</time>
      </trkpt>
      <trkpt lat="44.08316" lon="0.47601">
        <ele>84</ele>
        <time>2025-11-05T13:35:38.446Z</time>
      </trkpt>
      <trkpt lat="44.08315" lon="0.47601">
        <ele>84</ele>
        <time>2025-11-05T13:35:39.446Z</time>
      </trkpt>
      <trkpt lat="44.08313" lon="0.47602">
        <ele>85</ele>
        <time>2025-11-05T13:35:40.446Z</time>
      </trkpt>
      <trkpt lat="44.08312" lon="0.47603">
        <ele>85</ele>
        <time>2025-11-05T13:35:41.446Z</time>
      </trkpt>
      <trkpt lat="44.08311" lon="0.47603">
        <ele>85</ele>
        <time>2025-11-05T13:35:42.446Z</time>
      </trkpt>
      <trkpt lat="44.0831" lon="0.47603">
        <ele>85</ele>
        <time>2025-11-05T13:35:43.446Z</time>
      </trkpt>
      <trkpt lat="44.08309" lon="0.47604">
        <ele>85</ele>
        <time>2025-11-05T13:35:44.446Z</time>
      </trkpt>
      <trkpt lat="44.08307" lon="0.47604">
        <ele>85</ele>
        <time>2025-11-05T13:35:45.446Z</time>
      </trkpt>
      <trkpt lat="44.08306" lon="0.47604">
        <ele>85</ele>
        <time>2025-11-05T13:35:46.446Z</time>
      </trkpt>
      <trkpt lat="44.08305" lon="0.47605">
        <ele>85</ele>
        <time>2025-11-05T13:35:47.446Z</time>
      </trkpt>
      <trkpt lat="44.08304" lon="0.47605">
        <ele>86</ele>
        <time>2025-11-05T13:35:48.446Z</time>
      </trkpt>
      <trkpt lat="44.08303" lon="0.47606">
        <ele>85</ele>
        <time>2025-11-05T13:35:49.446Z</time>
      </trkpt>
      <trkpt lat="44.08301" lon="0.47606">
        <ele>85</ele>
        <time>2025-11-05T13:35:50.446Z</time>
      </trkpt>
      <trkpt lat="44.083" lon="0.47606">
        <ele>85</ele>
        <time>2025-11-05T13:35:51.446Z</time>
      </trkpt>
      <trkpt lat="44.08298" lon="0.47607">
        <ele>85</ele>
        <time>2025-11-05T13:35:52.446Z</time>
      </trkpt>
      <trkpt lat="44.08297" lon="0.47607">
        <ele>85</ele>
        <time>2025-11-05T13:35:53.446Z</time>
      </trkpt>
      <trkpt lat="44.08296" lon="0.47607">
        <ele>85</ele>
        <time>2025-11-05T13:35:54.446Z</time>
      </trkpt>
      <trkpt lat="44.08295" lon="0.47608">
        <ele>85</ele>
        <time>2025-11-05T13:35:55.446Z</time>
      </trkpt>
      <trkpt lat="44.08294" lon="0.47608">
        <ele>85</ele>
        <time>2025-11-05T13:35:56.446Z</time>
      </trkpt>
      <trkpt lat="44.08293" lon="0.47608">
        <ele>85</ele>
        <time>2025-11-05T13:35:57.446Z</time>
      </trkpt>
      <trkpt lat="44.08292" lon="0.47609">
        <ele>85</ele>
        <time>2025-11-05T13:35:58.446Z</time>
      </trkpt>
      <trkpt lat="44.0829" lon="0.47609">
        <ele>85</ele>
        <time>2025-11-05T13:35:59.446Z</time>
      </trkpt>
      <trkpt lat="44.08289" lon="0.4761">
        <ele>85</ele>
        <time>2025-11-05T13:36:00.446Z</time>
      </trkpt>
      <trkpt lat="44.08287" lon="0.4761">
        <ele>84</ele>
        <time>2025-11-05T13:36:01.446Z</time>
      </trkpt>
      <trkpt lat="44.08286" lon="0.4761">
        <ele>84</ele>
        <time>2025-11-05T13:36:02.446Z</time>
      </trkpt>
      <trkpt lat="44.08285" lon="0.47611">
        <ele>84</ele>
        <time>2025-11-05T13:36:03.446Z</time>
      </trkpt>
      <trkpt lat="44.08284" lon="0.47611">
        <ele>84</ele>
        <time>2025-11-05T13:36:04.446Z</time>
      </trkpt>
      <trkpt lat="44.08283" lon="0.47611">
        <ele>84</ele>
        <time>2025-11-05T13:36:05.446Z</time>
      </trkpt>
      <trkpt lat="44.08282" lon="0.47612">
        <ele>84</ele>
        <time>2025-11-05T13:36:06.446Z</time>
      </trkpt>
      <trkpt lat="44.0828" lon="0.47612">
        <ele>85</ele>
        <time>2025-11-05T13:36:07.446Z</time>
      </trkpt>
      <trkpt lat="44.08279" lon="0.47613">
        <ele>85</ele>
        <time>2025-11-05T13:36:08.446Z</time>
      </trkpt>
      <trkpt lat="44.08278" lon="0.47614">
        <ele>85</ele>
        <time>2025-11-05T13:36:09.446Z</time>
      </trkpt>
      <trkpt lat="44.08276" lon="0.47615">
        <ele>85</ele>
        <time>2025-11-05T13:36:10.446Z</time>
      </trkpt>
      <trkpt lat="44.08275" lon="0.47615">
        <ele>85</ele>
        <time>2025-11-05T13:36:11.446Z</time>
      </trkpt>
      <trkpt lat="44.08274" lon="0.47616">
        <ele>85</ele>
        <time>2025-11-05T13:36:12.446Z</time>
      </trkpt>
      <trkpt lat="44.08273" lon="0.47616">
        <ele>85</ele>
        <time>2025-11-05T13:36:13.446Z</time>
      </trkpt>
      <trkpt lat="44.08272" lon="0.47617">
        <ele>85</ele>
        <time>2025-11-05T13:36:14.446Z</time>
      </trkpt>
      <trkpt lat="44.0827" lon="0.47617">
        <ele>85</ele>
        <time>2025-11-05T13:36:15.446Z</time>
      </trkpt>
      <trkpt lat="44.08269" lon="0.47617">
        <ele>85</ele>
        <time>2025-11-05T13:36:16.446Z</time>
      </trkpt>
      <trkpt lat="44.08268" lon="0.47618">
        <ele>85</ele>
        <time>2025-11-05T13:36:17.446Z</time>
      </trkpt>
      <trkpt lat="44.08267" lon="0.47618">
        <ele>86</ele>
        <time>2025-11-05T13:36:18.446Z</time>
      </trkpt>
      <trkpt lat="44.08265" lon="0.47619">
        <ele>86</ele>
        <time>2025-11-05T13:36:19.446Z</time>
      </trkpt>
      <trkpt lat="44.08264" lon="0.47619">
        <ele>86</ele>
        <time>2025-11-05T13:36:20.446Z</time>
      </trkpt>
      <trkpt lat="44.08263" lon="0.47619">
        <ele>86</ele>
        <time>2025-11-05T13:36:21.446Z</time>
      </trkpt>
      <trkpt lat="44.08261" lon="0.4762">
        <ele>86</ele>
        <time>2025-11-05T13:36:22.446Z</time>
      </trkpt>
      <trkpt lat="44.0826" lon="0.4762">
        <ele>86</ele>
        <time>2025-11-05T13:36:23.446Z</time>
      </trkpt>
      <trkpt lat="44.08259" lon="0.47621">
        <ele>86</ele>
        <time>2025-11-05T13:36:24.446Z</time>
      </trkpt>
      <trkpt lat="44.08258" lon="0.47621">
        <ele>86</ele>
        <time>2025-11-05T13:36:25.446Z</time>
      </trkpt>
      <trkpt lat="44.08257" lon="0.47622">
        <ele>86</ele>
        <time>2025-11-05T13:36:26.446Z</time>
      </trkpt>
      <trkpt lat="44.08256" lon="0.47622">
        <ele>85</ele>
        <time>2025-11-05T13:36:27.446Z</time>
      </trkpt>
      <trkpt lat="44.08254" lon="0.47622">
        <ele>85</ele>
        <time>2025-11-05T13:36:28.446Z</time>
      </trkpt>
      <trkpt lat="44.08253" lon="0.47622">
        <ele>85</ele>
        <time>2025-11-05T13:36:29.446Z</time>
      </trkpt>
      <trkpt lat="44.08252" lon="0.47622">
        <ele>84</ele>
        <time>2025-11-05T13:36:30.446Z</time>
      </trkpt>
      <trkpt lat="44.0825" lon="0.47623">
        <ele>84</ele>
        <time>2025-11-05T13:36:31.446Z</time>
      </trkpt>
      <trkpt lat="44.08249" lon="0.47623">
        <ele>84</ele>
        <time>2025-11-05T13:36:32.446Z</time>
      </trkpt>
      <trkpt lat="44.08248" lon="0.47623">
        <ele>84</ele>
        <time>2025-11-05T13:36:33.446Z</time>
      </trkpt>
      <trkpt lat="44.08247" lon="0.47624">
        <ele>84</ele>
        <time>2025-11-05T13:36:34.446Z</time>
      </trkpt>
      <trkpt lat="44.08246" lon="0.47624">
        <ele>84</ele>
        <time>2025-11-05T13:36:35.446Z</time>
      </trkpt>
      <trkpt lat="44.08245" lon="0.47624">
        <ele>84</ele>
        <time>2025-11-05T13:36:36.446Z</time>
      </trkpt>
      <trkpt lat="44.08243" lon="0.47624">
        <ele>85</ele>
        <time>2025-11-05T13:36:37.446Z</time>
      </trkpt>
      <trkpt lat="44.08242" lon="0.47624">
        <ele>85</ele>
        <time>2025-11-05T13:36:38.446Z</time>
      </trkpt>
      <trkpt lat="44.08241" lon="0.47624">
        <ele>85</ele>
        <time>2025-11-05T13:36:39.446Z</time>
      </trkpt>
      <trkpt lat="44.08239" lon="0.47625">
        <ele>85</ele>
        <time>2025-11-05T13:36:40.446Z</time>
      </trkpt>
      <trkpt lat="44.08238" lon="0.47625">
        <ele>85</ele>
        <time>2025-11-05T13:36:41.446Z</time>
      </trkpt>
      <trkpt lat="44.08237" lon="0.47625">
        <ele>85</ele>
        <time>2025-11-05T13:36:42.446Z</time>
      </trkpt>
      <trkpt lat="44.08236" lon="0.47625">
        <ele>85</ele>
        <time>2025-11-05T13:36:43.446Z</time>
      </trkpt>
      <trkpt lat="44.08235" lon="0.47625">
        <ele>85</ele>
        <time>2025-11-05T13:36:44.446Z</time>
      </trkpt>
      <trkpt lat="44.08234" lon="0.47626">
        <ele>85</ele>
        <time>2025-11-05T13:36:45.446Z</time>
      </trkpt>
      <trkpt lat="44.08233" lon="0.47626">
        <ele>85</ele>
        <time>2025-11-05T13:36:46.446Z</time>
      </trkpt>
      <trkpt lat="44.08231" lon="0.47626">
        <ele>85</ele>
        <time>2025-11-05T13:36:47.446Z</time>
      </trkpt>
      <trkpt lat="44.0823" lon="0.47626">
        <ele>85</ele>
        <time>2025-11-05T13:36:48.446Z</time>
      </trkpt>
      <trkpt lat="44.08229" lon="0.47626">
        <ele>85</ele>
        <time>2025-11-05T13:36:49.446Z</time>
      </trkpt>
      <trkpt lat="44.08228" lon="0.47626">
        <ele>85</ele>
        <time>2025-11-05T13:36:50.446Z</time>
      </trkpt>
      <trkpt lat="44.08227" lon="0.47627">
        <ele>86</ele>
        <time>2025-11-05T13:36:51.446Z</time>
      </trkpt>
      <trkpt lat="44.08226" lon="0.47628">
        <ele>86</ele>
        <time>2025-11-05T13:36:52.446Z</time>
      </trkpt>
      <trkpt lat="44.08225" lon="0.47628">
        <ele>86</ele>
        <time>2025-11-05T13:36:53.446Z</time>
      </trkpt>
      <trkpt lat="44.08224" lon="0.47629">
        <ele>86</ele>
        <time>2025-11-05T13:36:54.446Z</time>
      </trkpt>
      <trkpt lat="44.08223" lon="0.47629">
        <ele>87</ele>
        <time>2025-11-05T13:36:55.446Z</time>
      </trkpt>
      <trkpt lat="44.08222" lon="0.47629">
        <ele>87</ele>
        <time>2025-11-05T13:36:56.446Z</time>
      </trkpt>
      <trkpt lat="44.08222" lon="0.4763">
        <ele>87</ele>
        <time>2025-11-05T13:36:57.446Z</time>
      </trkpt>
      <trkpt lat="44.08221" lon="0.4763">
        <ele>87</ele>
        <time>2025-11-05T13:36:58.446Z</time>
      </trkpt>
      <trkpt lat="44.0822" lon="0.4763">
        <ele>88</ele>
        <time>2025-11-05T13:36:59.446Z</time>
      </trkpt>
      <trkpt lat="44.0822" lon="0.4763">
        <ele>88</ele>
        <time>2025-11-05T13:37:00.446Z</time>
      </trkpt>
      <trkpt lat="44.08219" lon="0.4763">
        <ele>88</ele>
        <time>2025-11-05T13:37:01.446Z</time>
      </trkpt>
      <trkpt lat="44.08219" lon="0.4763">
        <ele>88</ele>
        <time>2025-11-05T13:37:02.446Z</time>
      </trkpt>
      <trkpt lat="44.08219" lon="0.4763">
        <ele>88</ele>
        <time>2025-11-05T13:37:03.446Z</time>
      </trkpt>
      <trkpt lat="44.08219" lon="0.4763">
        <ele>89</ele>
        <time>2025-11-05T13:37:04.446Z</time>
      </trkpt>
      <trkpt lat="44.08218" lon="0.47631">
        <ele>89</ele>
        <time>2025-11-05T13:37:05.446Z</time>
      </trkpt>
      <trkpt lat="44.08218" lon="0.47631">
        <ele>89</ele>
        <time>2025-11-05T13:37:06.446Z</time>
      </trkpt>
      <trkpt lat="44.08217" lon="0.47631">
        <ele>89</ele>
        <time>2025-11-05T13:37:07.446Z</time>
      </trkpt>
      <trkpt lat="44.08217" lon="0.47631">
        <ele>89</ele>
        <time>2025-11-05T13:37:08.446Z</time>
      </trkpt>
      <trkpt lat="44.08216" lon="0.47632">
        <ele>89</ele>
        <time>2025-11-05T13:37:09.446Z</time>
      </trkpt>
      <trkpt lat="44.08215" lon="0.47632">
        <ele>89</ele>
        <time>2025-11-05T13:37:10.446Z</time>
      </trkpt>
      <trkpt lat="44.08214" lon="0.47632">
        <ele>89</ele>
        <time>2025-11-05T13:37:11.446Z</time>
      </trkpt>
      <trkpt lat="44.08214" lon="0.47632">
        <ele>89</ele>
        <time>2025-11-05T13:37:12.446Z</time>
      </trkpt>
      <trkpt lat="44.08213" lon="0.47632">
        <ele>89</ele>
        <time>2025-11-05T13:37:13.446Z</time>
      </trkpt>
      <trkpt lat="44.08213" lon="0.47632">
        <ele>89</ele>
        <time>2025-11-05T13:37:14.446Z</time>
      </trkpt>
      <trkpt lat="44.08213" lon="0.47632">
        <ele>89</ele>
        <time>2025-11-05T13:37:15.446Z</time>
      </trkpt>
      <trkpt lat="44.08213" lon="0.47632">
        <ele>89</ele>
        <time>2025-11-05T13:37:16.446Z</time>
      </trkpt>
      <trkpt lat="44.08213" lon="0.47632">
        <ele>89</ele>
        <time>2025-11-05T13:37:17.446Z</time>
      </trkpt>
      <trkpt lat="44.08213" lon="0.47632">
        <ele>89</ele>
        <time>2025-11-05T13:37:18.446Z</time>
      </trkpt>
      <trkpt lat="44.08213" lon="0.47632">
        <ele>89</ele>
        <time>2025-11-05T13:37:19.446Z</time>
      </trkpt>
      <trkpt lat="44.08213" lon="0.47632">
        <ele>89</ele>
        <time>2025-11-05T13:37:20.446Z</time>
      </trkpt>
      <trkpt lat="44.08213" lon="0.47632">
        <ele>89</ele>
        <time>2025-11-05T13:37:21.446Z</time>
      </trkpt>
      <trkpt lat="44.08213" lon="0.47631">
        <ele>89</ele>
        <time>2025-11-05T13:37:22.446Z</time>
      </trkpt>
      <trkpt lat="44.08213" lon="0.47631">
        <ele>89</ele>
        <time>2025-11-05T13:37:23.446Z</time>
      </trkpt>
      <trkpt lat="44.08213" lon="0.47631">
        <ele>89</ele>
        <time>2025-11-05T13:37:24.446Z</time>
      </trkpt>
      <trkpt lat="44.08213" lon="0.47631">
        <ele>89</ele>
        <time>2025-11-05T13:37:25.446Z</time>
      </trkpt>
      <trkpt lat="44.08213" lon="0.47631">
        <ele>88</ele>
        <time>2025-11-05T13:37:26.446Z</time>
      </trkpt>
      <trkpt lat="44.08213" lon="0.47631">
        <ele>88</ele>
        <time>2025-11-05T13:37:27.446Z</time>
      </trkpt>
      <trkpt lat="44.08213" lon="0.47631">
        <ele>88</ele>
        <time>2025-11-05T13:37:28.446Z</time>
      </trkpt>
      <trkpt lat="44.08213" lon="0.47631">
        <ele>88</ele>
        <time>2025-11-05T13:37:29.446Z</time>
      </trkpt>
      <trkpt lat="44.08213" lon="0.47631">
        <ele>87</ele>
        <time>2025-11-05T13:37:30.446Z</time>
      </trkpt>
      <trkpt lat="44.08213" lon="0.47631">
        <ele>87</ele>
        <time>2025-11-05T13:37:31.446Z</time>
      </trkpt>
      <trkpt lat="44.08213" lon="0.4763">
        <ele>88</ele>
        <time>2025-11-05T13:37:32.446Z</time>
      </trkpt>
      <trkpt lat="44.08213" lon="0.4763">
        <ele>88</ele>
        <time>2025-11-05T13:37:33.446Z</time>
      </trkpt>
      <trkpt lat="44.08213" lon="0.4763">
        <ele>89</ele>
        <time>2025-11-05T13:37:34.446Z</time>
      </trkpt>
      <trkpt lat="44.08213" lon="0.4763">
        <ele>89</ele>
        <time>2025-11-05T13:37:35.446Z</time>
      </trkpt>
      <trkpt lat="44.08213" lon="0.4763">
        <ele>89</ele>
        <time>2025-11-05T13:37:36.446Z</time>
      </trkpt>
      <trkpt lat="44.08213" lon="0.4763">
        <ele>90</ele>
        <time>2025-11-05T13:37:37.446Z</time>
      </trkpt>
      <trkpt lat="44.08213" lon="0.47631">
        <ele>90</ele>
        <time>2025-11-05T13:37:38.446Z</time>
      </trkpt>
      <trkpt lat="44.08213" lon="0.47631">
        <ele>90</ele>
        <time>2025-11-05T13:37:39.446Z</time>
      </trkpt>
      <trkpt lat="44.08213" lon="0.47631">
        <ele>90</ele>
        <time>2025-11-05T13:37:40.446Z</time>
      </trkpt>
      <trkpt lat="44.08213" lon="0.47631">
        <ele>91</ele>
        <time>2025-11-05T13:37:41.446Z</time>
      </trkpt>
      <trkpt lat="44.08213" lon="0.47631">
        <ele>91</ele>
        <time>2025-11-05T13:37:42.446Z</time>
      </trkpt>
      <trkpt lat="44.08213" lon="0.47631">
        <ele>92</ele>
        <time>2025-11-05T13:37:43.446Z</time>
      </trkpt>
      <trkpt lat="44.08213" lon="0.47631">
        <ele>92</ele>
        <time>2025-11-05T13:37:44.446Z</time>
      </trkpt>
      <trkpt lat="44.08214" lon="0.47631">
        <ele>92</ele>
        <time>2025-11-05T13:37:45.446Z</time>
      </trkpt>
      <trkpt lat="44.08214" lon="0.47631">
        <ele>92</ele>
        <time>2025-11-05T13:37:46.446Z</time>
      </trkpt>
      <trkpt lat="44.08214" lon="0.4763">
        <ele>92</ele>
        <time>2025-11-05T13:37:47.446Z</time>
      </trkpt>
      <trkpt lat="44.08214" lon="0.4763">
        <ele>92</ele>
        <time>2025-11-05T13:37:48.446Z</time>
      </trkpt>
      <trkpt lat="44.08214" lon="0.4763">
        <ele>92</ele>
        <time>2025-11-05T13:37:49.446Z</time>
      </trkpt>
      <trkpt lat="44.08214" lon="0.4763">
        <ele>92</ele>
        <time>2025-11-05T13:37:50.446Z</time>
      </trkpt>
      <trkpt lat="44.08214" lon="0.4763">
        <ele>91</ele>
        <time>2025-11-05T13:37:51.446Z</time>
      </trkpt>
      <trkpt lat="44.08214" lon="0.4763">
        <ele>91</ele>
        <time>2025-11-05T13:37:52.446Z</time>
      </trkpt>
      <trkpt lat="44.08214" lon="0.4763">
        <ele>91</ele>
        <time>2025-11-05T13:37:53.446Z</time>
      </trkpt>
      <trkpt lat="44.08214" lon="0.4763">
        <ele>91</ele>
        <time>2025-11-05T13:37:54.446Z</time>
      </trkpt>
      <trkpt lat="44.08214" lon="0.4763">
        <ele>91</ele>
        <time>2025-11-05T13:37:55.446Z</time>
      </trkpt>
      <trkpt lat="44.08214" lon="0.4763">
        <ele>91</ele>
        <time>2025-11-05T13:37:56.446Z</time>
      </trkpt>
      <trkpt lat="44.08214" lon="0.4763">
        <ele>91</ele>
        <time>2025-11-05T13:37:57.446Z</time>
      </trkpt>
      <trkpt lat="44.08214" lon="0.4763">
        <ele>90</ele>
        <time>2025-11-05T13:37:58.446Z</time>
      </trkpt>
      <trkpt lat="44.08214" lon="0.4763">
        <ele>89</ele>
        <time>2025-11-05T13:37:59.446Z</time>
      </trkpt>
      <trkpt lat="44.08214" lon="0.4763">
        <ele>89</ele>
        <time>2025-11-05T13:38:00.446Z</time>
      </trkpt>
      <trkpt lat="44.08214" lon="0.4763">
        <ele>89</ele>
        <time>2025-11-05T13:38:01.446Z</time>
      </trkpt>
      <trkpt lat="44.08214" lon="0.4763">
        <ele>89</ele>
        <time>2025-11-05T13:38:02.446Z</time>
      </trkpt>
      <trkpt lat="44.08214" lon="0.4763">
        <ele>89</ele>
        <time>2025-11-05T13:38:03.446Z</time>
      </trkpt>
      <trkpt lat="44.08214" lon="0.4763">
        <ele>89</ele>
        <time>2025-11-05T13:38:04.446Z</time>
      </trkpt>
      <trkpt lat="44.08214" lon="0.4763">
        <ele>89</ele>
        <time>2025-11-05T13:38:05.446Z</time>
      </trkpt>
      <trkpt lat="44.08214" lon="0.4763">
        <ele>89</ele>
        <time>2025-11-05T13:38:06.446Z</time>
      </trkpt>
      <trkpt lat="44.08214" lon="0.4763">
        <ele>89</ele>
        <time>2025-11-05T13:38:07.446Z</time>
      </trkpt>
      <trkpt lat="44.08214" lon="0.4763">
        <ele>89</ele>
        <time>2025-11-05T13:38:08.446Z</time>
      </trkpt>
      <trkpt lat="44.08214" lon="0.4763">
        <ele>89</ele>
        <time>2025-11-05T13:38:09.446Z</time>
      </trkpt>
      <trkpt lat="44.08215" lon="0.4763">
        <ele>89</ele>
        <time>2025-11-05T13:38:10.446Z</time>
      </trkpt>
      <trkpt lat="44.08215" lon="0.4763">
        <ele>89</ele>
        <time>2025-11-05T13:38:11.446Z</time>
      </trkpt>
      <trkpt lat="44.08215" lon="0.4763">
        <ele>89</ele>
        <time>2025-11-05T13:38:12.446Z</time>
      </trkpt>
      <trkpt lat="44.08215" lon="0.4763">
        <ele>89</ele>
        <time>2025-11-05T13:38:13.446Z</time>
      </trkpt>
      <trkpt lat="44.08215" lon="0.4763">
        <ele>90</ele>
        <time>2025-11-05T13:38:14.446Z</time>
      </trkpt>
      <trkpt lat="44.08215" lon="0.4763">
        <ele>90</ele>
        <time>2025-11-05T13:38:15.446Z</time>
      </trkpt>
      <trkpt lat="44.08214" lon="0.4763">
        <ele>90</ele>
        <time>2025-11-05T13:38:16.446Z</time>
      </trkpt>
      <trkpt lat="44.08215" lon="0.4763">
        <ele>90</ele>
        <time>2025-11-05T13:38:17.446Z</time>
      </trkpt>
      <trkpt lat="44.08215" lon="0.4763">
        <ele>90</ele>
        <time>2025-11-05T13:38:18.446Z</time>
      </trkpt>
      <trkpt lat="44.08215" lon="0.4763">
        <ele>90</ele>
        <time>2025-11-05T13:38:19.446Z</time>
      </trkpt>
      <trkpt lat="44.08215" lon="0.4763">
        <ele>89</ele>
        <time>2025-11-05T13:38:20.446Z</time>
      </trkpt>
      <trkpt lat="44.08215" lon="0.4763">
        <ele>89</ele>
        <time>2025-11-05T13:38:21.446Z</time>
      </trkpt>
      <trkpt lat="44.08215" lon="0.47629">
        <ele>89</ele>
        <time>2025-11-05T13:38:22.446Z</time>
      </trkpt>
      <trkpt lat="44.08215" lon="0.47629">
        <ele>88</ele>
        <time>2025-11-05T13:38:23.446Z</time>
      </trkpt>
      <trkpt lat="44.08216" lon="0.47629">
        <ele>88</ele>
        <time>2025-11-05T13:38:24.446Z</time>
      </trkpt>
      <trkpt lat="44.08217" lon="0.47628">
        <ele>88</ele>
        <time>2025-11-05T13:38:25.446Z</time>
      </trkpt>
      <trkpt lat="44.08217" lon="0.47629">
        <ele>88</ele>
        <time>2025-11-05T13:38:26.446Z</time>
      </trkpt>
      <trkpt lat="44.08217" lon="0.47629">
        <ele>88</ele>
        <time>2025-11-05T13:38:27.446Z</time>
      </trkpt>
      <trkpt lat="44.08217" lon="0.47629">
        <ele>87</ele>
        <time>2025-11-05T13:38:28.446Z</time>
      </trkpt>
      <trkpt lat="44.08217" lon="0.47629">
        <ele>88</ele>
        <time>2025-11-05T13:38:29.446Z</time>
      </trkpt>
      <trkpt lat="44.08217" lon="0.47629">
        <ele>88</ele>
        <time>2025-11-05T13:38:30.446Z</time>
      </trkpt>
      <trkpt lat="44.08217" lon="0.47629">
        <ele>88</ele>
        <time>2025-11-05T13:38:31.446Z</time>
      </trkpt>
      <trkpt lat="44.08217" lon="0.47629">
        <ele>88</ele>
        <time>2025-11-05T13:38:32.446Z</time>
      </trkpt>
      <trkpt lat="44.08217" lon="0.47629">
        <ele>88</ele>
        <time>2025-11-05T13:38:33.446Z</time>
      </trkpt>
      <trkpt lat="44.08217" lon="0.47629">
        <ele>88</ele>
        <time>2025-11-05T13:38:34.446Z</time>
      </trkpt>
      <trkpt lat="44.08217" lon="0.47629">
        <ele>87</ele>
        <time>2025-11-05T13:38:35.446Z</time>
      </trkpt>
      <trkpt lat="44.08217" lon="0.47629">
        <ele>87</ele>
        <time>2025-11-05T13:38:36.446Z</time>
      </trkpt>
      <trkpt lat="44.08218" lon="0.47629">
        <ele>87</ele>
        <time>2025-11-05T13:38:37.446Z</time>
      </trkpt>
      <trkpt lat="44.08218" lon="0.47629">
        <ele>87</ele>
        <time>2025-11-05T13:38:38.446Z</time>
      </trkpt>
      <trkpt lat="44.08218" lon="0.47629">
        <ele>87</ele>
        <time>2025-11-05T13:38:39.446Z</time>
      </trkpt>
      <trkpt lat="44.08218" lon="0.47629">
        <ele>87</ele>
        <time>2025-11-05T13:38:40.446Z</time>
      </trkpt>
      <trkpt lat="44.08218" lon="0.47629">
        <ele>87</ele>
        <time>2025-11-05T13:38:41.446Z</time>
      </trkpt>
      <trkpt lat="44.08218" lon="0.47629">
        <ele>87</ele>
        <time>2025-11-05T13:38:42.446Z</time>
      </trkpt>
      <trkpt lat="44.08218" lon="0.47629">
        <ele>87</ele>
        <time>2025-11-05T13:38:43.446Z</time>
      </trkpt>
      <trkpt lat="44.08218" lon="0.47629">
        <ele>87</ele>
        <time>2025-11-05T13:38:44.446Z</time>
      </trkpt>
      <trkpt lat="44.08218" lon="0.4763">
        <ele>87</ele>
        <time>2025-11-05T13:38:45.446Z</time>
      </trkpt>
      <trkpt lat="44.08218" lon="0.4763">
        <ele>87</ele>
        <time>2025-11-05T13:38:46.446Z</time>
      </trkpt>
      <trkpt lat="44.08218" lon="0.4763">
        <ele>87</ele>
        <time>2025-11-05T13:38:47.446Z</time>
      </trkpt>
      <trkpt lat="44.08218" lon="0.4763">
        <ele>88</ele>
        <time>2025-11-05T13:38:48.446Z</time>
      </trkpt>
      <trkpt lat="44.08218" lon="0.4763">
        <ele>88</ele>
        <time>2025-11-05T13:38:49.446Z</time>
      </trkpt>
      <trkpt lat="44.08218" lon="0.4763">
        <ele>88</ele>
        <time>2025-11-05T13:38:50.446Z</time>
      </trkpt>
      <trkpt lat="44.08218" lon="0.4763">
        <ele>88</ele>
        <time>2025-11-05T13:38:51.446Z</time>
      </trkpt>
      <trkpt lat="44.08218" lon="0.4763">
        <ele>87</ele>
        <time>2025-11-05T13:38:52.446Z</time>
      </trkpt>
      <trkpt lat="44.08218" lon="0.4763">
        <ele>87</ele>
        <time>2025-11-05T13:38:53.446Z</time>
      </trkpt>
      <trkpt lat="44.08218" lon="0.4763">
        <ele>87</ele>
        <time>2025-11-05T13:38:54.446Z</time>
      </trkpt>
      <trkpt lat="44.08218" lon="0.4763">
        <ele>87</ele>
        <time>2025-11-05T13:38:55.446Z</time>
      </trkpt>
      <trkpt lat="44.08218" lon="0.4763">
        <ele>86</ele>
        <time>2025-11-05T13:38:56.446Z</time>
      </trkpt>
      <trkpt lat="44.08218" lon="0.4763">
        <ele>86</ele>
        <time>2025-11-05T13:38:57.446Z</time>
      </trkpt>
      <trkpt lat="44.08218" lon="0.47629">
        <ele>86</ele>
        <time>2025-11-05T13:38:58.446Z</time>
      </trkpt>
      <trkpt lat="44.08218" lon="0.47629">
        <ele>86</ele>
        <time>2025-11-05T13:38:59.446Z</time>
      </trkpt>
      <trkpt lat="44.08218" lon="0.47629">
        <ele>86</ele>
        <time>2025-11-05T13:39:00.446Z</time>
      </trkpt>
      <trkpt lat="44.08218" lon="0.47629">
        <ele>86</ele>
        <time>2025-11-05T13:39:01.446Z</time>
      </trkpt>
      <trkpt lat="44.08218" lon="0.47629">
        <ele>87</ele>
        <time>2025-11-05T13:39:02.446Z</time>
      </trkpt>
      <trkpt lat="44.08218" lon="0.47629">
        <ele>87</ele>
        <time>2025-11-05T13:39:03.446Z</time>
      </trkpt>
      <trkpt lat="44.08218" lon="0.47629">
        <ele>87</ele>
        <time>2025-11-05T13:39:04.446Z</time>
      </trkpt>
      <trkpt lat="44.08218" lon="0.47629">
        <ele>87</ele>
        <time>2025-11-05T13:39:05.446Z</time>
      </trkpt>
      <trkpt lat="44.08218" lon="0.47629">
        <ele>87</ele>
        <time>2025-11-05T13:39:06.446Z</time>
      </trkpt>
      <trkpt lat="44.08218" lon="0.47629">
        <ele>87</ele>
        <time>2025-11-05T13:39:07.446Z</time>
      </trkpt>
      <trkpt lat="44.08218" lon="0.47629">
        <ele>88</ele>
        <time>2025-11-05T13:39:08.446Z</time>
      </trkpt>
      <trkpt lat="44.08218" lon="0.47629">
        <ele>88</ele>
        <time>2025-11-05T13:39:09.446Z</time>
      </trkpt>
      <trkpt lat="44.08218" lon="0.47629">
        <ele>88</ele>
        <time>2025-11-05T13:39:10.446Z</time>
      </trkpt>
      <trkpt lat="44.08217" lon="0.47629">
        <ele>88</ele>
        <time>2025-11-05T13:39:11.446Z</time>
      </trkpt>
      <trkpt lat="44.08217" lon="0.47629">
        <ele>88</ele>
        <time>2025-11-05T13:39:12.446Z</time>
      </trkpt>
      <trkpt lat="44.08217" lon="0.47629">
        <ele>88</ele>
        <time>2025-11-05T13:39:13.446Z</time>
      </trkpt>
      <trkpt lat="44.08217" lon="0.4763">
        <ele>88</ele>
        <time>2025-11-05T13:39:14.446Z</time>
      </trkpt>
      <trkpt lat="44.08218" lon="0.4763">
        <ele>87</ele>
        <time>2025-11-05T13:39:15.446Z</time>
      </trkpt>
      <trkpt lat="44.08218" lon="0.4763">
        <ele>87</ele>
        <time>2025-11-05T13:39:16.446Z</time>
      </trkpt>
      <trkpt lat="44.08218" lon="0.4763">
        <ele>87</ele>
        <time>2025-11-05T13:39:17.446Z</time>
      </trkpt>
      <trkpt lat="44.08217" lon="0.4763">
        <ele>87</ele>
        <time>2025-11-05T13:39:18.446Z</time>
      </trkpt>
      <trkpt lat="44.08217" lon="0.4763">
        <ele>87</ele>
        <time>2025-11-05T13:39:19.446Z</time>
      </trkpt>
      <trkpt lat="44.08217" lon="0.4763">
        <ele>87</ele>
        <time>2025-11-05T13:39:20.446Z</time>
      </trkpt>
      <trkpt lat="44.08217" lon="0.4763">
        <ele>87</ele>
        <time>2025-11-05T13:39:21.446Z</time>
      </trkpt>
      <trkpt lat="44.08217" lon="0.4763">
        <ele>87</ele>
        <time>2025-11-05T13:39:22.446Z</time>
      </trkpt>
      <trkpt lat="44.08217" lon="0.4763">
        <ele>87</ele>
        <time>2025-11-05T13:39:23.446Z</time>
      </trkpt>
      <trkpt lat="44.08217" lon="0.4763">
        <ele>87</ele>
        <time>2025-11-05T13:39:24.446Z</time>
      </trkpt>
      <trkpt lat="44.08217" lon="0.4763">
        <ele>87</ele>
        <time>2025-11-05T13:39:25.446Z</time>
      </trkpt>
      <trkpt lat="44.08217" lon="0.4763">
        <ele>88</ele>
        <time>2025-11-05T13:39:26.446Z</time>
      </trkpt>
      <trkpt lat="44.08217" lon="0.4763">
        <ele>88</ele>
        <time>2025-11-05T13:39:27.446Z</time>
      </trkpt>
      <trkpt lat="44.08217" lon="0.4763">
        <ele>88</ele>
        <time>2025-11-05T13:39:28.446Z</time>
      </trkpt>
      <trkpt lat="44.08216" lon="0.4763">
        <ele>88</ele>
        <time>2025-11-05T13:39:29.446Z</time>
      </trkpt>
      <trkpt lat="44.08216" lon="0.4763">
        <ele>88</ele>
        <time>2025-11-05T13:39:30.446Z</time>
      </trkpt>
      <trkpt lat="44.08217" lon="0.4763">
        <ele>88</ele>
        <time>2025-11-05T13:39:31.446Z</time>
      </trkpt>
      <trkpt lat="44.08217" lon="0.4763">
        <ele>88</ele>
        <time>2025-11-05T13:39:32.446Z</time>
      </trkpt>
      <trkpt lat="44.08217" lon="0.4763">
        <ele>88</ele>
        <time>2025-11-05T13:39:33.446Z</time>
      </trkpt>
      <trkpt lat="44.08217" lon="0.4763">
        <ele>88</ele>
        <time>2025-11-05T13:39:34.446Z</time>
      </trkpt>
      <trkpt lat="44.08217" lon="0.47629">
        <ele>87</ele>
        <time>2025-11-05T13:39:35.446Z</time>
      </trkpt>
      <trkpt lat="44.08217" lon="0.47629">
        <ele>87</ele>
        <time>2025-11-05T13:39:36.446Z</time>
      </trkpt>
      <trkpt lat="44.08217" lon="0.47629">
        <ele>87</ele>
        <time>2025-11-05T13:39:37.446Z</time>
      </trkpt>
      <trkpt lat="44.08217" lon="0.47629">
        <ele>87</ele>
        <time>2025-11-05T13:39:38.446Z</time>
      </trkpt>
      <trkpt lat="44.08216" lon="0.47629">
        <ele>88</ele>
        <time>2025-11-05T13:39:39.446Z</time>
      </trkpt>
      <trkpt lat="44.08216" lon="0.47629">
        <ele>88</ele>
        <time>2025-11-05T13:39:40.446Z</time>
      </trkpt>
      <trkpt lat="44.08216" lon="0.47629">
        <ele>87</ele>
        <time>2025-11-05T13:39:41.446Z</time>
      </trkpt>
      <trkpt lat="44.08216" lon="0.47629">
        <ele>87</ele>
        <time>2025-11-05T13:39:42.446Z</time>
      </trkpt>
      <trkpt lat="44.08215" lon="0.47629">
        <ele>87</ele>
        <time>2025-11-05T13:39:43.446Z</time>
      </trkpt>
      <trkpt lat="44.08215" lon="0.47629">
        <ele>87</ele>
        <time>2025-11-05T13:39:44.446Z</time>
      </trkpt>
      <trkpt lat="44.08215" lon="0.47629">
        <ele>87</ele>
        <time>2025-11-05T13:39:45.446Z</time>
      </trkpt>
      <trkpt lat="44.08215" lon="0.47629">
        <ele>87</ele>
        <time>2025-11-05T13:39:46.446Z</time>
      </trkpt>
      <trkpt lat="44.08215" lon="0.47629">
        <ele>87</ele>
        <time>2025-11-05T13:39:47.446Z</time>
      </trkpt>
      <trkpt lat="44.08215" lon="0.47629">
        <ele>87</ele>
        <time>2025-11-05T13:39:48.446Z</time>
      </trkpt>
      <trkpt lat="44.08215" lon="0.47629">
        <ele>87</ele>
        <time>2025-11-05T13:39:49.446Z</time>
      </trkpt>
      <trkpt lat="44.08215" lon="0.47628">
        <ele>86</ele>
        <time>2025-11-05T13:39:50.446Z</time>
      </trkpt>
      <trkpt lat="44.08215" lon="0.47628">
        <ele>86</ele>
        <time>2025-11-05T13:39:51.446Z</time>
      </trkpt>
      <trkpt lat="44.08215" lon="0.47628">
        <ele>86</ele>
        <time>2025-11-05T13:39:52.446Z</time>
      </trkpt>
      <trkpt lat="44.08215" lon="0.47628">
        <ele>85</ele>
        <time>2025-11-05T13:39:53.446Z</time>
      </trkpt>
      <trkpt lat="44.08215" lon="0.47628">
        <ele>85</ele>
        <time>2025-11-05T13:39:54.446Z</time>
      </trkpt>
      <trkpt lat="44.08215" lon="0.47628">
        <ele>85</ele>
        <time>2025-11-05T13:39:55.446Z</time>
      </trkpt>
      <trkpt lat="44.08215" lon="0.47628">
        <ele>85</ele>
        <time>2025-11-05T13:39:56.446Z</time>
      </trkpt>
      <trkpt lat="44.08215" lon="0.47628">
        <ele>85</ele>
        <time>2025-11-05T13:39:57.446Z</time>
      </trkpt>
      <trkpt lat="44.08215" lon="0.47628">
        <ele>86</ele>
        <time>2025-11-05T13:39:58.446Z</time>
      </trkpt>
      <trkpt lat="44.08215" lon="0.47628">
        <ele>86</ele>
        <time>2025-11-05T13:39:59.446Z</time>
      </trkpt>
      <trkpt lat="44.08215" lon="0.47628">
        <ele>86</ele>
        <time>2025-11-05T13:40:00.446Z</time>
      </trkpt>
      <trkpt lat="44.08215" lon="0.47628">
        <ele>86</ele>
        <time>2025-11-05T13:40:01.446Z</time>
      </trkpt>
      <trkpt lat="44.08215" lon="0.47629">
        <ele>86</ele>
        <time>2025-11-05T13:40:02.446Z</time>
      </trkpt>
      <trkpt lat="44.08215" lon="0.47629">
        <ele>85</ele>
        <time>2025-11-05T13:40:03.446Z</time>
      </trkpt>
      <trkpt lat="44.08215" lon="0.47629">
        <ele>85</ele>
        <time>2025-11-05T13:40:04.446Z</time>
      </trkpt>
      <trkpt lat="44.08215" lon="0.47629">
        <ele>86</ele>
        <time>2025-11-05T13:40:05.446Z</time>
      </trkpt>
      <trkpt lat="44.08215" lon="0.47629">
        <ele>85</ele>
        <time>2025-11-05T13:40:06.446Z</time>
      </trkpt>
      <trkpt lat="44.08215" lon="0.47629">
        <ele>85</ele>
        <time>2025-11-05T13:40:07.446Z</time>
      </trkpt>
      <trkpt lat="44.08215" lon="0.47629">
        <ele>85</ele>
        <time>2025-11-05T13:40:08.446Z</time>
      </trkpt>
      <trkpt lat="44.08214" lon="0.47628">
        <ele>85</ele>
        <time>2025-11-05T13:40:09.446Z</time>
      </trkpt>
      <trkpt lat="44.08214" lon="0.47628">
        <ele>85</ele>
        <time>2025-11-05T13:40:10.446Z</time>
      </trkpt>
      <trkpt lat="44.08214" lon="0.47628">
        <ele>85</ele>
        <time>2025-11-05T13:40:11.446Z</time>
      </trkpt>
      <trkpt lat="44.08214" lon="0.47628">
        <ele>85</ele>
        <time>2025-11-05T13:40:12.446Z</time>
      </trkpt>
      <trkpt lat="44.08214" lon="0.47628">
        <ele>85</ele>
        <time>2025-11-05T13:40:13.446Z</time>
      </trkpt>
      <trkpt lat="44.08214" lon="0.47628">
        <ele>85</ele>
        <time>2025-11-05T13:40:14.446Z</time>
      </trkpt>
      <trkpt lat="44.08214" lon="0.47628">
        <ele>85</ele>
        <time>2025-11-05T13:40:15.446Z</time>
      </trkpt>
      <trkpt lat="44.08214" lon="0.47628">
        <ele>85</ele>
        <time>2025-11-05T13:40:16.446Z</time>
      </trkpt>
      <trkpt lat="44.08214" lon="0.47628">
        <ele>85</ele>
        <time>2025-11-05T13:40:17.446Z</time>
      </trkpt>
      <trkpt lat="44.08214" lon="0.47628">
        <ele>86</ele>
        <time>2025-11-05T13:40:18.446Z</time>
      </trkpt>
      <trkpt lat="44.08214" lon="0.47628">
        <ele>86</ele>
        <time>2025-11-05T13:40:19.446Z</time>
      </trkpt>
      <trkpt lat="44.08214" lon="0.47628">
        <ele>86</ele>
        <time>2025-11-05T13:40:20.446Z</time>
      </trkpt>
      <trkpt lat="44.08214" lon="0.47628">
        <ele>86</ele>
        <time>2025-11-05T13:40:21.446Z</time>
      </trkpt>
      <trkpt lat="44.08214" lon="0.47628">
        <ele>85</ele>
        <time>2025-11-05T13:40:22.446Z</time>
      </trkpt>
      <trkpt lat="44.08214" lon="0.47628">
        <ele>85</ele>
        <time>2025-11-05T13:40:23.446Z</time>
      </trkpt>
      <trkpt lat="44.08214" lon="0.47628">
        <ele>85</ele>
        <time>2025-11-05T13:40:24.446Z</time>
      </trkpt>
      <trkpt lat="44.08214" lon="0.47628">
        <ele>84</ele>
        <time>2025-11-05T13:40:25.446Z</time>
      </trkpt>
      <trkpt lat="44.08214" lon="0.47628">
        <ele>84</ele>
        <time>2025-11-05T13:40:26.446Z</time>
      </trkpt>
      <trkpt lat="44.08214" lon="0.47628">
        <ele>84</ele>
        <time>2025-11-05T13:40:27.446Z</time>
      </trkpt>
      <trkpt lat="44.08214" lon="0.47628">
        <ele>85</ele>
        <time>2025-11-05T13:40:28.446Z</time>
      </trkpt>
      <trkpt lat="44.08214" lon="0.47628">
        <ele>85</ele>
        <time>2025-11-05T13:40:29.446Z</time>
      </trkpt>
      <trkpt lat="44.08214" lon="0.47628">
        <ele>85</ele>
        <time>2025-11-05T13:40:30.446Z</time>
      </trkpt>
      <trkpt lat="44.08214" lon="0.47628">
        <ele>85</ele>
        <time>2025-11-05T13:40:31.446Z</time>
      </trkpt>
      <trkpt lat="44.08214" lon="0.47628">
        <ele>86</ele>
        <time>2025-11-05T13:40:32.446Z</time>
      </trkpt>
      <trkpt lat="44.08214" lon="0.47628">
        <ele>86</ele>
        <time>2025-11-05T13:40:33.446Z</time>
      </trkpt>
      <trkpt lat="44.08214" lon="0.47628">
        <ele>86</ele>
        <time>2025-11-05T13:40:34.446Z</time>
      </trkpt>
      <trkpt lat="44.08214" lon="0.47628">
        <ele>86</ele>
        <time>2025-11-05T13:40:35.446Z</time>
      </trkpt>
      <trkpt lat="44.08214" lon="0.47628">
        <ele>87</ele>
        <time>2025-11-05T13:40:36.446Z</time>
      </trkpt>
      <trkpt lat="44.08214" lon="0.47627">
        <ele>87</ele>
        <time>2025-11-05T13:40:37.446Z</time>
      </trkpt>
      <trkpt lat="44.08214" lon="0.47627">
        <ele>86</ele>
        <time>2025-11-05T13:40:38.446Z</time>
      </trkpt>
      <trkpt lat="44.08214" lon="0.47627">
        <ele>86</ele>
        <time>2025-11-05T13:40:39.446Z</time>
      </trkpt>
      <trkpt lat="44.08214" lon="0.47627">
        <ele>86</ele>
        <time>2025-11-05T13:40:40.446Z</time>
      </trkpt>
      <trkpt lat="44.08213" lon="0.47627">
        <ele>86</ele>
        <time>2025-11-05T13:40:41.446Z</time>
      </trkpt>
      <trkpt lat="44.08213" lon="0.47627">
        <ele>85</ele>
        <time>2025-11-05T13:40:42.446Z</time>
      </trkpt>
      <trkpt lat="44.08213" lon="0.47627">
        <ele>85</ele>
        <time>2025-11-05T13:40:43.446Z</time>
      </trkpt>
      <trkpt lat="44.08213" lon="0.47627">
        <ele>85</ele>
        <time>2025-11-05T13:40:44.446Z</time>
      </trkpt>
      <trkpt lat="44.08213" lon="0.47627">
        <ele>84</ele>
        <time>2025-11-05T13:40:45.446Z</time>
      </trkpt>
      <trkpt lat="44.08213" lon="0.47627">
        <ele>85</ele>
        <time>2025-11-05T13:40:46.446Z</time>
      </trkpt>
      <trkpt lat="44.08213" lon="0.47627">
        <ele>85</ele>
        <time>2025-11-05T13:40:47.446Z</time>
      </trkpt>
      <trkpt lat="44.08213" lon="0.47627">
        <ele>85</ele>
        <time>2025-11-05T13:40:48.446Z</time>
      </trkpt>
      <trkpt lat="44.08213" lon="0.47627">
        <ele>85</ele>
        <time>2025-11-05T13:40:49.446Z</time>
      </trkpt>
      <trkpt lat="44.08213" lon="0.47627">
        <ele>85</ele>
        <time>2025-11-05T13:40:50.446Z</time>
      </trkpt>
      <trkpt lat="44.08213" lon="0.47627">
        <ele>85</ele>
        <time>2025-11-05T13:40:51.446Z</time>
      </trkpt>
      <trkpt lat="44.08213" lon="0.47627">
        <ele>85</ele>
        <time>2025-11-05T13:40:52.446Z</time>
      </trkpt>
      <trkpt lat="44.08213" lon="0.47627">
        <ele>85</ele>
        <time>2025-11-05T13:40:53.446Z</time>
      </trkpt>
      <trkpt lat="44.08213" lon="0.47627">
        <ele>85</ele>
        <time>2025-11-05T13:40:54.446Z</time>
      </trkpt>
      <trkpt lat="44.08213" lon="0.47627">
        <ele>85</ele>
        <time>2025-11-05T13:40:55.446Z</time>
      </trkpt>
      <trkpt lat="44.08213" lon="0.47627">
        <ele>85</ele>
        <time>2025-11-05T13:40:56.446Z</time>
      </trkpt>
      <trkpt lat="44.08213" lon="0.47627">
        <ele>85</ele>
        <time>2025-11-05T13:40:57.446Z</time>
      </trkpt>
      <trkpt lat="44.08213" lon="0.47627">
        <ele>85</ele>
        <time>2025-11-05T13:40:58.446Z</time>
      </trkpt>
      <trkpt lat="44.08213" lon="0.47627">
        <ele>85</ele>
        <time>2025-11-05T13:40:59.446Z</time>
      </trkpt>
      <trkpt lat="44.08213" lon="0.47627">
        <ele>84</ele>
        <time>2025-11-05T13:41:00.446Z</time>
      </trkpt>
      <trkpt lat="44.08213" lon="0.47628">
        <ele>85</ele>
        <time>2025-11-05T13:41:01.446Z</time>
      </trkpt>
      <trkpt lat="44.08213" lon="0.47629">
        <ele>85</ele>
        <time>2025-11-05T13:41:02.446Z</time>
      </trkpt>
      <trkpt lat="44.08212" lon="0.4763">
        <ele>85</ele>
        <time>2025-11-05T13:41:03.446Z</time>
      </trkpt>
      <trkpt lat="44.08212" lon="0.47631">
        <ele>85</ele>
        <time>2025-11-05T13:41:04.446Z</time>
      </trkpt>
      <trkpt lat="44.08211" lon="0.47631">
        <ele>85</ele>
        <time>2025-11-05T13:41:05.446Z</time>
      </trkpt>
      <trkpt lat="44.0821" lon="0.47632">
        <ele>86</ele>
        <time>2025-11-05T13:41:06.446Z</time>
      </trkpt>
      <trkpt lat="44.08209" lon="0.47631">
        <ele>86</ele>
        <time>2025-11-05T13:41:07.447Z</time>
      </trkpt>
      <trkpt lat="44.08209" lon="0.47631">
        <ele>87</ele>
        <time>2025-11-05T13:41:08.446Z</time>
      </trkpt>
      <trkpt lat="44.08208" lon="0.4763">
        <ele>87</ele>
        <time>2025-11-05T13:41:09.446Z</time>
      </trkpt>
      <trkpt lat="44.08208" lon="0.4763">
        <ele>87</ele>
        <time>2025-11-05T13:41:10.446Z</time>
      </trkpt>
      <trkpt lat="44.08207" lon="0.47629">
        <ele>87</ele>
        <time>2025-11-05T13:41:11.446Z</time>
      </trkpt>
      <trkpt lat="44.08207" lon="0.47629">
        <ele>87</ele>
        <time>2025-11-05T13:41:12.446Z</time>
      </trkpt>
      <trkpt lat="44.08207" lon="0.47629">
        <ele>87</ele>
        <time>2025-11-05T13:41:13.446Z</time>
      </trkpt>
      <trkpt lat="44.08207" lon="0.47629">
        <ele>87</ele>
        <time>2025-11-05T13:41:14.446Z</time>
      </trkpt>
      <trkpt lat="44.08207" lon="0.47629">
        <ele>87</ele>
        <time>2025-11-05T13:41:15.446Z</time>
      </trkpt>
      <trkpt lat="44.08207" lon="0.47629">
        <ele>87</ele>
        <time>2025-11-05T13:41:16.446Z</time>
      </trkpt>
      <trkpt lat="44.08206" lon="0.47629">
        <ele>87</ele>
        <time>2025-11-05T13:41:17.446Z</time>
      </trkpt>
      <trkpt lat="44.08206" lon="0.47629">
        <ele>88</ele>
        <time>2025-11-05T13:41:18.446Z</time>
      </trkpt>
      <trkpt lat="44.08206" lon="0.47629">
        <ele>87</ele>
        <time>2025-11-05T13:41:19.446Z</time>
      </trkpt>
      <trkpt lat="44.08206" lon="0.47629">
        <ele>87</ele>
        <time>2025-11-05T13:41:20.446Z</time>
      </trkpt>
      <trkpt lat="44.08206" lon="0.47629">
        <ele>87</ele>
        <time>2025-11-05T13:41:21.446Z</time>
      </trkpt>
      <trkpt lat="44.08206" lon="0.47629">
        <ele>87</ele>
        <time>2025-11-05T13:41:22.446Z</time>
      </trkpt>
      <trkpt lat="44.08206" lon="0.47629">
        <ele>87</ele>
        <time>2025-11-05T13:41:23.446Z</time>
      </trkpt>
      <trkpt lat="44.08206" lon="0.47629">
        <ele>87</ele>
        <time>2025-11-05T13:41:24.446Z</time>
      </trkpt>
      <trkpt lat="44.08206" lon="0.47628">
        <ele>88</ele>
        <time>2025-11-05T13:41:25.446Z</time>
      </trkpt>
      <trkpt lat="44.08206" lon="0.47628">
        <ele>88</ele>
        <time>2025-11-05T13:41:26.446Z</time>
      </trkpt>
      <trkpt lat="44.08205" lon="0.47628">
        <ele>88</ele>
        <time>2025-11-05T13:41:27.446Z</time>
      </trkpt>
      <trkpt lat="44.08205" lon="0.47628">
        <ele>88</ele>
        <time>2025-11-05T13:41:28.446Z</time>
      </trkpt>
      <trkpt lat="44.08205" lon="0.47629">
        <ele>88</ele>
        <time>2025-11-05T13:41:29.446Z</time>
      </trkpt>
      <trkpt lat="44.08204" lon="0.47629">
        <ele>87</ele>
        <time>2025-11-05T13:41:30.446Z</time>
      </trkpt>
      <trkpt lat="44.08204" lon="0.4763">
        <ele>87</ele>
        <time>2025-11-05T13:41:31.446Z</time>
      </trkpt>
      <trkpt lat="44.08203" lon="0.4763">
        <ele>87</ele>
        <time>2025-11-05T13:41:32.446Z</time>
      </trkpt>
      <trkpt lat="44.08202" lon="0.47631">
        <ele>87</ele>
        <time>2025-11-05T13:41:33.446Z</time>
      </trkpt>
      <trkpt lat="44.08201" lon="0.47631">
        <ele>87</ele>
        <time>2025-11-05T13:41:34.446Z</time>
      </trkpt>
      <trkpt lat="44.08199" lon="0.47631">
        <ele>87</ele>
        <time>2025-11-05T13:41:35.446Z</time>
      </trkpt>
      <trkpt lat="44.08198" lon="0.47632">
        <ele>87</ele>
        <time>2025-11-05T13:41:36.446Z</time>
      </trkpt>
      <trkpt lat="44.08197" lon="0.47632">
        <ele>86</ele>
        <time>2025-11-05T13:41:37.446Z</time>
      </trkpt>
      <trkpt lat="44.08196" lon="0.47632">
        <ele>86</ele>
        <time>2025-11-05T13:41:38.446Z</time>
      </trkpt>
      <trkpt lat="44.08195" lon="0.47633">
        <ele>86</ele>
        <time>2025-11-05T13:41:39.446Z</time>
      </trkpt>
      <trkpt lat="44.08193" lon="0.47633">
        <ele>86</ele>
        <time>2025-11-05T13:41:40.446Z</time>
      </trkpt>
      <trkpt lat="44.08192" lon="0.47633">
        <ele>86</ele>
        <time>2025-11-05T13:41:41.446Z</time>
      </trkpt>
      <trkpt lat="44.08191" lon="0.47633">
        <ele>86</ele>
        <time>2025-11-05T13:41:42.446Z</time>
      </trkpt>
      <trkpt lat="44.0819" lon="0.47633">
        <ele>86</ele>
        <time>2025-11-05T13:41:43.446Z</time>
      </trkpt>
      <trkpt lat="44.08188" lon="0.47633">
        <ele>85</ele>
        <time>2025-11-05T13:41:44.446Z</time>
      </trkpt>
      <trkpt lat="44.08187" lon="0.47633">
        <ele>85</ele>
        <time>2025-11-05T13:41:45.446Z</time>
      </trkpt>
      <trkpt lat="44.08186" lon="0.47634">
        <ele>85</ele>
        <time>2025-11-05T13:41:46.446Z</time>
      </trkpt>
      <trkpt lat="44.08185" lon="0.47634">
        <ele>85</ele>
        <time>2025-11-05T13:41:47.446Z</time>
      </trkpt>
      <trkpt lat="44.08184" lon="0.47634">
        <ele>85</ele>
        <time>2025-11-05T13:41:48.446Z</time>
      </trkpt>
      <trkpt lat="44.08182" lon="0.47634">
        <ele>85</ele>
        <time>2025-11-05T13:41:49.446Z</time>
      </trkpt>
      <trkpt lat="44.08182" lon="0.47635">
        <ele>85</ele>
        <time>2025-11-05T13:41:50.446Z</time>
      </trkpt>
      <trkpt lat="44.0818" lon="0.47635">
        <ele>85</ele>
        <time>2025-11-05T13:41:51.446Z</time>
      </trkpt>
      <trkpt lat="44.08179" lon="0.47635">
        <ele>84</ele>
        <time>2025-11-05T13:41:52.446Z</time>
      </trkpt>
      <trkpt lat="44.08178" lon="0.47634">
        <ele>84</ele>
        <time>2025-11-05T13:41:53.446Z</time>
      </trkpt>
      <trkpt lat="44.08177" lon="0.47634">
        <ele>84</ele>
        <time>2025-11-05T13:41:54.446Z</time>
      </trkpt>
      <trkpt lat="44.08176" lon="0.47634">
        <ele>84</ele>
        <time>2025-11-05T13:41:55.446Z</time>
      </trkpt>
      <trkpt lat="44.08175" lon="0.47635">
        <ele>84</ele>
        <time>2025-11-05T13:41:56.446Z</time>
      </trkpt>
      <trkpt lat="44.08173" lon="0.47635">
        <ele>84</ele>
        <time>2025-11-05T13:41:57.446Z</time>
      </trkpt>
      <trkpt lat="44.08172" lon="0.47635">
        <ele>85</ele>
        <time>2025-11-05T13:41:58.446Z</time>
      </trkpt>
      <trkpt lat="44.08171" lon="0.47635">
        <ele>85</ele>
        <time>2025-11-05T13:41:59.446Z</time>
      </trkpt>
      <trkpt lat="44.0817" lon="0.47635">
        <ele>85</ele>
        <time>2025-11-05T13:42:00.446Z</time>
      </trkpt>
      <trkpt lat="44.08169" lon="0.47636">
        <ele>85</ele>
        <time>2025-11-05T13:42:01.446Z</time>
      </trkpt>
      <trkpt lat="44.08168" lon="0.47636">
        <ele>85</ele>
        <time>2025-11-05T13:42:02.446Z</time>
      </trkpt>
      <trkpt lat="44.08167" lon="0.47636">
        <ele>85</ele>
        <time>2025-11-05T13:42:03.446Z</time>
      </trkpt>
      <trkpt lat="44.08165" lon="0.47636">
        <ele>85</ele>
        <time>2025-11-05T13:42:04.446Z</time>
      </trkpt>
      <trkpt lat="44.08164" lon="0.47636">
        <ele>85</ele>
        <time>2025-11-05T13:42:05.446Z</time>
      </trkpt>
      <trkpt lat="44.08163" lon="0.47635">
        <ele>85</ele>
        <time>2025-11-05T13:42:06.446Z</time>
      </trkpt>
      <trkpt lat="44.08162" lon="0.47635">
        <ele>84</ele>
        <time>2025-11-05T13:42:07.446Z</time>
      </trkpt>
      <trkpt lat="44.0816" lon="0.47635">
        <ele>84</ele>
        <time>2025-11-05T13:42:08.446Z</time>
      </trkpt>
      <trkpt lat="44.08159" lon="0.47634">
        <ele>84</ele>
        <time>2025-11-05T13:42:09.446Z</time>
      </trkpt>
      <trkpt lat="44.08158" lon="0.47635">
        <ele>84</ele>
        <time>2025-11-05T13:42:10.446Z</time>
      </trkpt>
      <trkpt lat="44.08157" lon="0.47635">
        <ele>84</ele>
        <time>2025-11-05T13:42:11.446Z</time>
      </trkpt>
      <trkpt lat="44.08156" lon="0.47635">
        <ele>84</ele>
        <time>2025-11-05T13:42:12.446Z</time>
      </trkpt>
      <trkpt lat="44.08154" lon="0.47635">
        <ele>84</ele>
        <time>2025-11-05T13:42:13.446Z</time>
      </trkpt>
      <trkpt lat="44.08153" lon="0.47635">
        <ele>85</ele>
        <time>2025-11-05T13:42:14.446Z</time>
      </trkpt>
      <trkpt lat="44.08152" lon="0.47635">
        <ele>85</ele>
        <time>2025-11-05T13:42:15.446Z</time>
      </trkpt>
      <trkpt lat="44.0815" lon="0.47635">
        <ele>85</ele>
        <time>2025-11-05T13:42:16.446Z</time>
      </trkpt>
      <trkpt lat="44.08149" lon="0.47634">
        <ele>85</ele>
        <time>2025-11-05T13:42:17.446Z</time>
      </trkpt>
      <trkpt lat="44.08148" lon="0.47634">
        <ele>85</ele>
        <time>2025-11-05T13:42:18.446Z</time>
      </trkpt>
      <trkpt lat="44.08147" lon="0.47634">
        <ele>86</ele>
        <time>2025-11-05T13:42:19.446Z</time>
      </trkpt>
      <trkpt lat="44.08146" lon="0.47634">
        <ele>85</ele>
        <time>2025-11-05T13:42:20.446Z</time>
      </trkpt>
      <trkpt lat="44.08145" lon="0.47634">
        <ele>85</ele>
        <time>2025-11-05T13:42:21.446Z</time>
      </trkpt>
      <trkpt lat="44.08143" lon="0.47633">
        <ele>85</ele>
        <time>2025-11-05T13:42:22.446Z</time>
      </trkpt>
      <trkpt lat="44.08142" lon="0.47633">
        <ele>85</ele>
        <time>2025-11-05T13:42:23.446Z</time>
      </trkpt>
      <trkpt lat="44.08141" lon="0.47633">
        <ele>85</ele>
        <time>2025-11-05T13:42:24.446Z</time>
      </trkpt>
      <trkpt lat="44.0814" lon="0.47632">
        <ele>85</ele>
        <time>2025-11-05T13:42:25.446Z</time>
      </trkpt>
      <trkpt lat="44.08138" lon="0.47632">
        <ele>84</ele>
        <time>2025-11-05T13:42:26.446Z</time>
      </trkpt>
      <trkpt lat="44.08137" lon="0.47632">
        <ele>83</ele>
        <time>2025-11-05T13:42:27.446Z</time>
      </trkpt>
      <trkpt lat="44.08136" lon="0.47631">
        <ele>83</ele>
        <time>2025-11-05T13:42:28.446Z</time>
      </trkpt>
      <trkpt lat="44.08135" lon="0.47631">
        <ele>83</ele>
        <time>2025-11-05T13:42:29.446Z</time>
      </trkpt>
      <trkpt lat="44.08134" lon="0.47631">
        <ele>84</ele>
        <time>2025-11-05T13:42:30.446Z</time>
      </trkpt>
      <trkpt lat="44.08133" lon="0.47631">
        <ele>84</ele>
        <time>2025-11-05T13:42:31.446Z</time>
      </trkpt>
      <trkpt lat="44.08132" lon="0.4763">
        <ele>84</ele>
        <time>2025-11-05T13:42:32.446Z</time>
      </trkpt>
      <trkpt lat="44.0813" lon="0.4763">
        <ele>84</ele>
        <time>2025-11-05T13:42:33.446Z</time>
      </trkpt>
      <trkpt lat="44.08129" lon="0.4763">
        <ele>84</ele>
        <time>2025-11-05T13:42:34.446Z</time>
      </trkpt>
      <trkpt lat="44.08128" lon="0.47631">
        <ele>84</ele>
        <time>2025-11-05T13:42:35.446Z</time>
      </trkpt>
      <trkpt lat="44.08127" lon="0.4763">
        <ele>84</ele>
        <time>2025-11-05T13:42:36.446Z</time>
      </trkpt>
      <trkpt lat="44.08126" lon="0.4763">
        <ele>84</ele>
        <time>2025-11-05T13:42:37.446Z</time>
      </trkpt>
      <trkpt lat="44.08124" lon="0.47629">
        <ele>84</ele>
        <time>2025-11-05T13:42:38.446Z</time>
      </trkpt>
      <trkpt lat="44.08123" lon="0.47629">
        <ele>84</ele>
        <time>2025-11-05T13:42:39.446Z</time>
      </trkpt>
      <trkpt lat="44.08122" lon="0.47629">
        <ele>84</ele>
        <time>2025-11-05T13:42:40.446Z</time>
      </trkpt>
      <trkpt lat="44.08121" lon="0.47629">
        <ele>84</ele>
        <time>2025-11-05T13:42:41.446Z</time>
      </trkpt>
      <trkpt lat="44.08119" lon="0.47628">
        <ele>85</ele>
        <time>2025-11-05T13:42:42.446Z</time>
      </trkpt>
      <trkpt lat="44.08118" lon="0.47628">
        <ele>85</ele>
        <time>2025-11-05T13:42:43.446Z</time>
      </trkpt>
      <trkpt lat="44.08117" lon="0.47628">
        <ele>86</ele>
        <time>2025-11-05T13:42:44.446Z</time>
      </trkpt>
      <trkpt lat="44.08116" lon="0.47628">
        <ele>86</ele>
        <time>2025-11-05T13:42:45.446Z</time>
      </trkpt>
      <trkpt lat="44.08115" lon="0.47627">
        <ele>86</ele>
        <time>2025-11-05T13:42:46.446Z</time>
      </trkpt>
      <trkpt lat="44.08114" lon="0.47627">
        <ele>86</ele>
        <time>2025-11-05T13:42:47.446Z</time>
      </trkpt>
      <trkpt lat="44.08113" lon="0.47626">
        <ele>86</ele>
        <time>2025-11-05T13:42:48.446Z</time>
      </trkpt>
      <trkpt lat="44.08112" lon="0.47626">
        <ele>86</ele>
        <time>2025-11-05T13:42:49.446Z</time>
      </trkpt>
      <trkpt lat="44.0811" lon="0.47626">
        <ele>86</ele>
        <time>2025-11-05T13:42:50.446Z</time>
      </trkpt>
      <trkpt lat="44.08109" lon="0.47625">
        <ele>86</ele>
        <time>2025-11-05T13:42:51.446Z</time>
      </trkpt>
      <trkpt lat="44.08108" lon="0.47625">
        <ele>86</ele>
        <time>2025-11-05T13:42:52.446Z</time>
      </trkpt>
      <trkpt lat="44.08107" lon="0.47625">
        <ele>87</ele>
        <time>2025-11-05T13:42:53.446Z</time>
      </trkpt>
      <trkpt lat="44.08105" lon="0.47624">
        <ele>87</ele>
        <time>2025-11-05T13:42:54.446Z</time>
      </trkpt>
      <trkpt lat="44.08104" lon="0.47624">
        <ele>87</ele>
        <time>2025-11-05T13:42:55.446Z</time>
      </trkpt>
      <trkpt lat="44.08103" lon="0.47623">
        <ele>87</ele>
        <time>2025-11-05T13:42:56.446Z</time>
      </trkpt>
      <trkpt lat="44.08102" lon="0.47623">
        <ele>87</ele>
        <time>2025-11-05T13:42:57.446Z</time>
      </trkpt>
      <trkpt lat="44.08101" lon="0.47623">
        <ele>87</ele>
        <time>2025-11-05T13:42:58.446Z</time>
      </trkpt>
      <trkpt lat="44.081" lon="0.47622">
        <ele>87</ele>
        <time>2025-11-05T13:42:59.446Z</time>
      </trkpt>
      <trkpt lat="44.08099" lon="0.47622">
        <ele>87</ele>
        <time>2025-11-05T13:43:00.446Z</time>
      </trkpt>
      <trkpt lat="44.08098" lon="0.47622">
        <ele>87</ele>
        <time>2025-11-05T13:43:01.446Z</time>
      </trkpt>
      <trkpt lat="44.08097" lon="0.47621">
        <ele>87</ele>
        <time>2025-11-05T13:43:02.446Z</time>
      </trkpt>
      <trkpt lat="44.08096" lon="0.47621">
        <ele>87</ele>
        <time>2025-11-05T13:43:03.446Z</time>
      </trkpt>
      <trkpt lat="44.08095" lon="0.47621">
        <ele>88</ele>
        <time>2025-11-05T13:43:04.446Z</time>
      </trkpt>
      <trkpt lat="44.08094" lon="0.47621">
        <ele>88</ele>
        <time>2025-11-05T13:43:05.446Z</time>
      </trkpt>
      <trkpt lat="44.08093" lon="0.47621">
        <ele>88</ele>
        <time>2025-11-05T13:43:06.446Z</time>
      </trkpt>
      <trkpt lat="44.08092" lon="0.47621">
        <ele>88</ele>
        <time>2025-11-05T13:43:07.446Z</time>
      </trkpt>
      <trkpt lat="44.0809" lon="0.47621">
        <ele>88</ele>
        <time>2025-11-05T13:43:08.446Z</time>
      </trkpt>
      <trkpt lat="44.08089" lon="0.47621">
        <ele>88</ele>
        <time>2025-11-05T13:43:09.446Z</time>
      </trkpt>
      <trkpt lat="44.08088" lon="0.4762">
        <ele>88</ele>
        <time>2025-11-05T13:43:10.446Z</time>
      </trkpt>
      <trkpt lat="44.08087" lon="0.4762">
        <ele>88</ele>
        <time>2025-11-05T13:43:11.446Z</time>
      </trkpt>
      <trkpt lat="44.08086" lon="0.4762">
        <ele>88</ele>
        <time>2025-11-05T13:43:12.446Z</time>
      </trkpt>
      <trkpt lat="44.08085" lon="0.47619">
        <ele>88</ele>
        <time>2025-11-05T13:43:13.446Z</time>
      </trkpt>
      <trkpt lat="44.08084" lon="0.47619">
        <ele>88</ele>
        <time>2025-11-05T13:43:14.446Z</time>
      </trkpt>
      <trkpt lat="44.08084" lon="0.47619">
        <ele>88</ele>
        <time>2025-11-05T13:43:15.446Z</time>
      </trkpt>
      <trkpt lat="44.08083" lon="0.47619">
        <ele>88</ele>
        <time>2025-11-05T13:43:16.446Z</time>
      </trkpt>
      <trkpt lat="44.08082" lon="0.47619">
        <ele>88</ele>
        <time>2025-11-05T13:43:17.446Z</time>
      </trkpt>
      <trkpt lat="44.0808" lon="0.47619">
        <ele>89</ele>
        <time>2025-11-05T13:43:18.446Z</time>
      </trkpt>
      <trkpt lat="44.08079" lon="0.47619">
        <ele>89</ele>
        <time>2025-11-05T13:43:19.446Z</time>
      </trkpt>
      <trkpt lat="44.08078" lon="0.47618">
        <ele>89</ele>
        <time>2025-11-05T13:43:20.446Z</time>
      </trkpt>
      <trkpt lat="44.08077" lon="0.47618">
        <ele>89</ele>
        <time>2025-11-05T13:43:21.446Z</time>
      </trkpt>
      <trkpt lat="44.08076" lon="0.47618">
        <ele>89</ele>
        <time>2025-11-05T13:43:22.446Z</time>
      </trkpt>
      <trkpt lat="44.08074" lon="0.47618">
        <ele>89</ele>
        <time>2025-11-05T13:43:23.446Z</time>
      </trkpt>
      <trkpt lat="44.08073" lon="0.47618">
        <ele>89</ele>
        <time>2025-11-05T13:43:24.446Z</time>
      </trkpt>
      <trkpt lat="44.08072" lon="0.47618">
        <ele>89</ele>
        <time>2025-11-05T13:43:25.446Z</time>
      </trkpt>
      <trkpt lat="44.08071" lon="0.47618">
        <ele>89</ele>
        <time>2025-11-05T13:43:26.446Z</time>
      </trkpt>
      <trkpt lat="44.08069" lon="0.47618">
        <ele>89</ele>
        <time>2025-11-05T13:43:27.446Z</time>
      </trkpt>
      <trkpt lat="44.08068" lon="0.47618">
        <ele>89</ele>
        <time>2025-11-05T13:43:28.446Z</time>
      </trkpt>
      <trkpt lat="44.08067" lon="0.47618">
        <ele>90</ele>
        <time>2025-11-05T13:43:29.446Z</time>
      </trkpt>
      <trkpt lat="44.08065" lon="0.47617">
        <ele>90</ele>
        <time>2025-11-05T13:43:30.446Z</time>
      </trkpt>
      <trkpt lat="44.08064" lon="0.47617">
        <ele>89</ele>
        <time>2025-11-05T13:43:31.446Z</time>
      </trkpt>
      <trkpt lat="44.08063" lon="0.47616">
        <ele>89</ele>
        <time>2025-11-05T13:43:32.446Z</time>
      </trkpt>
      <trkpt lat="44.08062" lon="0.47616">
        <ele>89</ele>
        <time>2025-11-05T13:43:33.446Z</time>
      </trkpt>
      <trkpt lat="44.08061" lon="0.47615">
        <ele>89</ele>
        <time>2025-11-05T13:43:34.446Z</time>
      </trkpt>
      <trkpt lat="44.08059" lon="0.47615">
        <ele>89</ele>
        <time>2025-11-05T13:43:35.446Z</time>
      </trkpt>
      <trkpt lat="44.08058" lon="0.47614">
        <ele>89</ele>
        <time>2025-11-05T13:43:36.446Z</time>
      </trkpt>
      <trkpt lat="44.08057" lon="0.47614">
        <ele>90</ele>
        <time>2025-11-05T13:43:37.446Z</time>
      </trkpt>
      <trkpt lat="44.08056" lon="0.47613">
        <ele>90</ele>
        <time>2025-11-05T13:43:38.446Z</time>
      </trkpt>
      <trkpt lat="44.08055" lon="0.47613">
        <ele>89</ele>
        <time>2025-11-05T13:43:39.446Z</time>
      </trkpt>
      <trkpt lat="44.08054" lon="0.47613">
        <ele>90</ele>
        <time>2025-11-05T13:43:40.446Z</time>
      </trkpt>
      <trkpt lat="44.08053" lon="0.47612">
        <ele>90</ele>
        <time>2025-11-05T13:43:41.446Z</time>
      </trkpt>
      <trkpt lat="44.08052" lon="0.47612">
        <ele>90</ele>
        <time>2025-11-05T13:43:42.446Z</time>
      </trkpt>
      <trkpt lat="44.08051" lon="0.47611">
        <ele>90</ele>
        <time>2025-11-05T13:43:43.446Z</time>
      </trkpt>
      <trkpt lat="44.0805" lon="0.4761">
        <ele>90</ele>
        <time>2025-11-05T13:43:44.446Z</time>
      </trkpt>
      <trkpt lat="44.0805" lon="0.4761">
        <ele>91</ele>
        <time>2025-11-05T13:43:45.446Z</time>
      </trkpt>
      <trkpt lat="44.08048" lon="0.4761">
        <ele>91</ele>
        <time>2025-11-05T13:43:46.446Z</time>
      </trkpt>
      <trkpt lat="44.08048" lon="0.4761">
        <ele>91</ele>
        <time>2025-11-05T13:43:47.446Z</time>
      </trkpt>
      <trkpt lat="44.08046" lon="0.4761">
        <ele>91</ele>
        <time>2025-11-05T13:43:48.446Z</time>
      </trkpt>
      <trkpt lat="44.08045" lon="0.4761">
        <ele>91</ele>
        <time>2025-11-05T13:43:49.446Z</time>
      </trkpt>
      <trkpt lat="44.08044" lon="0.4761">
        <ele>91</ele>
        <time>2025-11-05T13:43:50.446Z</time>
      </trkpt>
      <trkpt lat="44.08042" lon="0.4761">
        <ele>90</ele>
        <time>2025-11-05T13:43:51.446Z</time>
      </trkpt>
      <trkpt lat="44.08041" lon="0.47609">
        <ele>90</ele>
        <time>2025-11-05T13:43:52.446Z</time>
      </trkpt>
      <trkpt lat="44.0804" lon="0.47609">
        <ele>89</ele>
        <time>2025-11-05T13:43:53.446Z</time>
      </trkpt>
      <trkpt lat="44.08039" lon="0.47608">
        <ele>89</ele>
        <time>2025-11-05T13:43:54.446Z</time>
      </trkpt>
      <trkpt lat="44.08037" lon="0.47608">
        <ele>89</ele>
        <time>2025-11-05T13:43:55.446Z</time>
      </trkpt>
      <trkpt lat="44.08036" lon="0.47608">
        <ele>88</ele>
        <time>2025-11-05T13:43:56.446Z</time>
      </trkpt>
      <trkpt lat="44.08035" lon="0.47608">
        <ele>88</ele>
        <time>2025-11-05T13:43:57.446Z</time>
      </trkpt>
      <trkpt lat="44.08033" lon="0.47609">
        <ele>88</ele>
        <time>2025-11-05T13:43:58.446Z</time>
      </trkpt>
      <trkpt lat="44.08032" lon="0.47609">
        <ele>88</ele>
        <time>2025-11-05T13:43:59.446Z</time>
      </trkpt>
      <trkpt lat="44.0803" lon="0.47609">
        <ele>88</ele>
        <time>2025-11-05T13:44:00.446Z</time>
      </trkpt>
      <trkpt lat="44.08029" lon="0.47609">
        <ele>88</ele>
        <time>2025-11-05T13:44:01.446Z</time>
      </trkpt>
      <trkpt lat="44.08028" lon="0.47609">
        <ele>88</ele>
        <time>2025-11-05T13:44:02.446Z</time>
      </trkpt>
      <trkpt lat="44.08026" lon="0.4761">
        <ele>88</ele>
        <time>2025-11-05T13:44:03.446Z</time>
      </trkpt>
      <trkpt lat="44.08025" lon="0.4761">
        <ele>88</ele>
        <time>2025-11-05T13:44:04.446Z</time>
      </trkpt>
      <trkpt lat="44.08024" lon="0.4761">
        <ele>88</ele>
        <time>2025-11-05T13:44:05.446Z</time>
      </trkpt>
      <trkpt lat="44.08023" lon="0.47611">
        <ele>89</ele>
        <time>2025-11-05T13:44:06.446Z</time>
      </trkpt>
      <trkpt lat="44.08021" lon="0.4761">
        <ele>89</ele>
        <time>2025-11-05T13:44:07.446Z</time>
      </trkpt>
      <trkpt lat="44.0802" lon="0.4761">
        <ele>89</ele>
        <time>2025-11-05T13:44:08.446Z</time>
      </trkpt>
      <trkpt lat="44.08019" lon="0.4761">
        <ele>89</ele>
        <time>2025-11-05T13:44:09.446Z</time>
      </trkpt>
      <trkpt lat="44.08018" lon="0.4761">
        <ele>88</ele>
        <time>2025-11-05T13:44:10.446Z</time>
      </trkpt>
      <trkpt lat="44.08017" lon="0.47609">
        <ele>87</ele>
        <time>2025-11-05T13:44:11.446Z</time>
      </trkpt>
      <trkpt lat="44.08016" lon="0.47609">
        <ele>87</ele>
        <time>2025-11-05T13:44:12.446Z</time>
      </trkpt>
      <trkpt lat="44.08014" lon="0.47609">
        <ele>87</ele>
        <time>2025-11-05T13:44:13.446Z</time>
      </trkpt>
      <trkpt lat="44.08013" lon="0.47608">
        <ele>87</ele>
        <time>2025-11-05T13:44:14.446Z</time>
      </trkpt>
      <trkpt lat="44.08012" lon="0.47608">
        <ele>87</ele>
        <time>2025-11-05T13:44:15.446Z</time>
      </trkpt>
      <trkpt lat="44.08011" lon="0.47607">
        <ele>87</ele>
        <time>2025-11-05T13:44:16.446Z</time>
      </trkpt>
      <trkpt lat="44.08009" lon="0.47607">
        <ele>86</ele>
        <time>2025-11-05T13:44:17.446Z</time>
      </trkpt>
      <trkpt lat="44.08008" lon="0.47606">
        <ele>86</ele>
        <time>2025-11-05T13:44:18.446Z</time>
      </trkpt>
      <trkpt lat="44.08007" lon="0.47606">
        <ele>86</ele>
        <time>2025-11-05T13:44:19.446Z</time>
      </trkpt>
      <trkpt lat="44.08006" lon="0.47605">
        <ele>86</ele>
        <time>2025-11-05T13:44:20.446Z</time>
      </trkpt>
      <trkpt lat="44.08005" lon="0.47605">
        <ele>86</ele>
        <time>2025-11-05T13:44:21.446Z</time>
      </trkpt>
      <trkpt lat="44.08003" lon="0.47605">
        <ele>86</ele>
        <time>2025-11-05T13:44:22.446Z</time>
      </trkpt>
      <trkpt lat="44.08002" lon="0.47605">
        <ele>86</ele>
        <time>2025-11-05T13:44:23.446Z</time>
      </trkpt>
      <trkpt lat="44.08001" lon="0.47605">
        <ele>86</ele>
        <time>2025-11-05T13:44:24.446Z</time>
      </trkpt>
      <trkpt lat="44.08" lon="0.47605">
        <ele>86</ele>
        <time>2025-11-05T13:44:25.446Z</time>
      </trkpt>
      <trkpt lat="44.07999" lon="0.47606">
        <ele>86</ele>
        <time>2025-11-05T13:44:26.446Z</time>
      </trkpt>
      <trkpt lat="44.07998" lon="0.47605">
        <ele>86</ele>
        <time>2025-11-05T13:44:27.446Z</time>
      </trkpt>
      <trkpt lat="44.07996" lon="0.47605">
        <ele>86</ele>
        <time>2025-11-05T13:44:28.446Z</time>
      </trkpt>
      <trkpt lat="44.07995" lon="0.47604">
        <ele>86</ele>
        <time>2025-11-05T13:44:29.446Z</time>
      </trkpt>
      <trkpt lat="44.07994" lon="0.47604">
        <ele>86</ele>
        <time>2025-11-05T13:44:30.446Z</time>
      </trkpt>
      <trkpt lat="44.07993" lon="0.47603">
        <ele>87</ele>
        <time>2025-11-05T13:44:31.446Z</time>
      </trkpt>
      <trkpt lat="44.07992" lon="0.47603">
        <ele>87</ele>
        <time>2025-11-05T13:44:32.446Z</time>
      </trkpt>
      <trkpt lat="44.0799" lon="0.47603">
        <ele>86</ele>
        <time>2025-11-05T13:44:33.446Z</time>
      </trkpt>
      <trkpt lat="44.07989" lon="0.47603">
        <ele>87</ele>
        <time>2025-11-05T13:44:34.446Z</time>
      </trkpt>
      <trkpt lat="44.07988" lon="0.47603">
        <ele>87</ele>
        <time>2025-11-05T13:44:35.446Z</time>
      </trkpt>
      <trkpt lat="44.07987" lon="0.47602">
        <ele>87</ele>
        <time>2025-11-05T13:44:36.446Z</time>
      </trkpt>
      <trkpt lat="44.07986" lon="0.47602">
        <ele>87</ele>
        <time>2025-11-05T13:44:37.446Z</time>
      </trkpt>
      <trkpt lat="44.07984" lon="0.47602">
        <ele>87</ele>
        <time>2025-11-05T13:44:38.446Z</time>
      </trkpt>
      <trkpt lat="44.07983" lon="0.47602">
        <ele>87</ele>
        <time>2025-11-05T13:44:39.446Z</time>
      </trkpt>
      <trkpt lat="44.07982" lon="0.47602">
        <ele>87</ele>
        <time>2025-11-05T13:44:40.446Z</time>
      </trkpt>
      <trkpt lat="44.07981" lon="0.47602">
        <ele>86</ele>
        <time>2025-11-05T13:44:41.446Z</time>
      </trkpt>
      <trkpt lat="44.0798" lon="0.47602">
        <ele>86</ele>
        <time>2025-11-05T13:44:42.446Z</time>
      </trkpt>
      <trkpt lat="44.07978" lon="0.47601">
        <ele>86</ele>
        <time>2025-11-05T13:44:43.446Z</time>
      </trkpt>
      <trkpt lat="44.07977" lon="0.47601">
        <ele>86</ele>
        <time>2025-11-05T13:44:44.446Z</time>
      </trkpt>
      <trkpt lat="44.07976" lon="0.476">
        <ele>86</ele>
        <time>2025-11-05T13:44:45.446Z</time>
      </trkpt>
      <trkpt lat="44.07975" lon="0.476">
        <ele>86</ele>
        <time>2025-11-05T13:44:46.446Z</time>
      </trkpt>
      <trkpt lat="44.07973" lon="0.47599">
        <ele>85</ele>
        <time>2025-11-05T13:44:47.446Z</time>
      </trkpt>
      <trkpt lat="44.07972" lon="0.47599">
        <ele>85</ele>
        <time>2025-11-05T13:44:48.446Z</time>
      </trkpt>
      <trkpt lat="44.07971" lon="0.47598">
        <ele>85</ele>
        <time>2025-11-05T13:44:49.446Z</time>
      </trkpt>
      <trkpt lat="44.07969" lon="0.47598">
        <ele>85</ele>
        <time>2025-11-05T13:44:50.446Z</time>
      </trkpt>
      <trkpt lat="44.07968" lon="0.47597">
        <ele>85</ele>
        <time>2025-11-05T13:44:51.446Z</time>
      </trkpt>
      <trkpt lat="44.07967" lon="0.47597">
        <ele>85</ele>
        <time>2025-11-05T13:44:52.446Z</time>
      </trkpt>
      <trkpt lat="44.07966" lon="0.47596">
        <ele>85</ele>
        <time>2025-11-05T13:44:53.446Z</time>
      </trkpt>
      <trkpt lat="44.07965" lon="0.47596">
        <ele>85</ele>
        <time>2025-11-05T13:44:54.446Z</time>
      </trkpt>
      <trkpt lat="44.07964" lon="0.47596">
        <ele>85</ele>
        <time>2025-11-05T13:44:55.446Z</time>
      </trkpt>
      <trkpt lat="44.07962" lon="0.47595">
        <ele>86</ele>
        <time>2025-11-05T13:44:56.446Z</time>
      </trkpt>
      <trkpt lat="44.07961" lon="0.47595">
        <ele>86</ele>
        <time>2025-11-05T13:44:57.446Z</time>
      </trkpt>
      <trkpt lat="44.0796" lon="0.47595">
        <ele>85</ele>
        <time>2025-11-05T13:44:58.446Z</time>
      </trkpt>
      <trkpt lat="44.07959" lon="0.47595">
        <ele>86</ele>
        <time>2025-11-05T13:44:59.446Z</time>
      </trkpt>
      <trkpt lat="44.07958" lon="0.47595">
        <ele>86</ele>
        <time>2025-11-05T13:45:00.446Z</time>
      </trkpt>
      <trkpt lat="44.07957" lon="0.47595">
        <ele>86</ele>
        <time>2025-11-05T13:45:01.446Z</time>
      </trkpt>
      <trkpt lat="44.07955" lon="0.47595">
        <ele>86</ele>
        <time>2025-11-05T13:45:02.446Z</time>
      </trkpt>
      <trkpt lat="44.07954" lon="0.47595">
        <ele>86</ele>
        <time>2025-11-05T13:45:03.446Z</time>
      </trkpt>
      <trkpt lat="44.07952" lon="0.47594">
        <ele>85</ele>
        <time>2025-11-05T13:45:04.446Z</time>
      </trkpt>
      <trkpt lat="44.07951" lon="0.47594">
        <ele>85</ele>
        <time>2025-11-05T13:45:05.446Z</time>
      </trkpt>
      <trkpt lat="44.0795" lon="0.47594">
        <ele>85</ele>
        <time>2025-11-05T13:45:06.446Z</time>
      </trkpt>
      <trkpt lat="44.07949" lon="0.47594">
        <ele>85</ele>
        <time>2025-11-05T13:45:07.446Z</time>
      </trkpt>
      <trkpt lat="44.07948" lon="0.47594">
        <ele>86</ele>
        <time>2025-11-05T13:45:08.446Z</time>
      </trkpt>
      <trkpt lat="44.07947" lon="0.47594">
        <ele>85</ele>
        <time>2025-11-05T13:45:09.446Z</time>
      </trkpt>
      <trkpt lat="44.07946" lon="0.47593">
        <ele>85</ele>
        <time>2025-11-05T13:45:10.446Z</time>
      </trkpt>
      <trkpt lat="44.07944" lon="0.47593">
        <ele>85</ele>
        <time>2025-11-05T13:45:11.446Z</time>
      </trkpt>
      <trkpt lat="44.07943" lon="0.47593">
        <ele>85</ele>
        <time>2025-11-05T13:45:12.446Z</time>
      </trkpt>
      <trkpt lat="44.07942" lon="0.47593">
        <ele>85</ele>
        <time>2025-11-05T13:45:13.446Z</time>
      </trkpt>
      <trkpt lat="44.07941" lon="0.47593">
        <ele>85</ele>
        <time>2025-11-05T13:45:14.446Z</time>
      </trkpt>
      <trkpt lat="44.0794" lon="0.47593">
        <ele>85</ele>
        <time>2025-11-05T13:45:15.446Z</time>
      </trkpt>
      <trkpt lat="44.07939" lon="0.47592">
        <ele>85</ele>
        <time>2025-11-05T13:45:16.446Z</time>
      </trkpt>
      <trkpt lat="44.07938" lon="0.47592">
        <ele>86</ele>
        <time>2025-11-05T13:45:17.446Z</time>
      </trkpt>
      <trkpt lat="44.07937" lon="0.47592">
        <ele>86</ele>
        <time>2025-11-05T13:45:18.446Z</time>
      </trkpt>
      <trkpt lat="44.07936" lon="0.47591">
        <ele>86</ele>
        <time>2025-11-05T13:45:19.446Z</time>
      </trkpt>
      <trkpt lat="44.07935" lon="0.47591">
        <ele>86</ele>
        <time>2025-11-05T13:45:20.447Z</time>
      </trkpt>
      <trkpt lat="44.07934" lon="0.4759">
        <ele>86</ele>
        <time>2025-11-05T13:45:21.446Z</time>
      </trkpt>
      <trkpt lat="44.07933" lon="0.4759">
        <ele>86</ele>
        <time>2025-11-05T13:45:22.446Z</time>
      </trkpt>
      <trkpt lat="44.07932" lon="0.4759">
        <ele>86</ele>
        <time>2025-11-05T13:45:23.446Z</time>
      </trkpt>
      <trkpt lat="44.07931" lon="0.47589">
        <ele>85</ele>
        <time>2025-11-05T13:45:24.446Z</time>
      </trkpt>
      <trkpt lat="44.0793" lon="0.47589">
        <ele>85</ele>
        <time>2025-11-05T13:45:25.446Z</time>
      </trkpt>
      <trkpt lat="44.07928" lon="0.47588">
        <ele>85</ele>
        <time>2025-11-05T13:45:26.446Z</time>
      </trkpt>
      <trkpt lat="44.07927" lon="0.47587">
        <ele>85</ele>
        <time>2025-11-05T13:45:27.446Z</time>
      </trkpt>
      <trkpt lat="44.07926" lon="0.47587">
        <ele>85</ele>
        <time>2025-11-05T13:45:28.446Z</time>
      </trkpt>
      <trkpt lat="44.07925" lon="0.47587">
        <ele>85</ele>
        <time>2025-11-05T13:45:29.446Z</time>
      </trkpt>
      <trkpt lat="44.07924" lon="0.47587">
        <ele>85</ele>
        <time>2025-11-05T13:45:30.446Z</time>
      </trkpt>
      <trkpt lat="44.07923" lon="0.47587">
        <ele>85</ele>
        <time>2025-11-05T13:45:31.446Z</time>
      </trkpt>
      <trkpt lat="44.07921" lon="0.47587">
        <ele>85</ele>
        <time>2025-11-05T13:45:32.446Z</time>
      </trkpt>
      <trkpt lat="44.0792" lon="0.47587">
        <ele>85</ele>
        <time>2025-11-05T13:45:33.446Z</time>
      </trkpt>
      <trkpt lat="44.07919" lon="0.47587">
        <ele>85</ele>
        <time>2025-11-05T13:45:34.446Z</time>
      </trkpt>
      <trkpt lat="44.07917" lon="0.47587">
        <ele>85</ele>
        <time>2025-11-05T13:45:35.446Z</time>
      </trkpt>
      <trkpt lat="44.07916" lon="0.47587">
        <ele>85</ele>
        <time>2025-11-05T13:45:36.446Z</time>
      </trkpt>
      <trkpt lat="44.07915" lon="0.47587">
        <ele>85</ele>
        <time>2025-11-05T13:45:37.446Z</time>
      </trkpt>
      <trkpt lat="44.07914" lon="0.47587">
        <ele>85</ele>
        <time>2025-11-05T13:45:38.446Z</time>
      </trkpt>
      <trkpt lat="44.07913" lon="0.47588">
        <ele>85</ele>
        <time>2025-11-05T13:45:39.446Z</time>
      </trkpt>
      <trkpt lat="44.07912" lon="0.47588">
        <ele>85</ele>
        <time>2025-11-05T13:45:40.447Z</time>
      </trkpt>
      <trkpt lat="44.0791" lon="0.47588">
        <ele>85</ele>
        <time>2025-11-05T13:45:41.446Z</time>
      </trkpt>
      <trkpt lat="44.07909" lon="0.47589">
        <ele>85</ele>
        <time>2025-11-05T13:45:42.446Z</time>
      </trkpt>
      <trkpt lat="44.07908" lon="0.47589">
        <ele>85</ele>
        <time>2025-11-05T13:45:43.446Z</time>
      </trkpt>
      <trkpt lat="44.07907" lon="0.4759">
        <ele>85</ele>
        <time>2025-11-05T13:45:44.446Z</time>
      </trkpt>
      <trkpt lat="44.07906" lon="0.4759">
        <ele>85</ele>
        <time>2025-11-05T13:45:45.446Z</time>
      </trkpt>
      <trkpt lat="44.07905" lon="0.4759">
        <ele>85</ele>
        <time>2025-11-05T13:45:46.446Z</time>
      </trkpt>
      <trkpt lat="44.07904" lon="0.47591">
        <ele>85</ele>
        <time>2025-11-05T13:45:47.446Z</time>
      </trkpt>
      <trkpt lat="44.07903" lon="0.47592">
        <ele>85</ele>
        <time>2025-11-05T13:45:48.446Z</time>
      </trkpt>
      <trkpt lat="44.07902" lon="0.47593">
        <ele>84</ele>
        <time>2025-11-05T13:45:49.446Z</time>
      </trkpt>
      <trkpt lat="44.07901" lon="0.47593">
        <ele>84</ele>
        <time>2025-11-05T13:45:50.446Z</time>
      </trkpt>
      <trkpt lat="44.079" lon="0.47594">
        <ele>84</ele>
        <time>2025-11-05T13:45:51.446Z</time>
      </trkpt>
      <trkpt lat="44.07899" lon="0.47595">
        <ele>84</ele>
        <time>2025-11-05T13:45:52.446Z</time>
      </trkpt>
      <trkpt lat="44.07898" lon="0.47596">
        <ele>84</ele>
        <time>2025-11-05T13:45:53.446Z</time>
      </trkpt>
      <trkpt lat="44.07897" lon="0.47597">
        <ele>84</ele>
        <time>2025-11-05T13:45:54.446Z</time>
      </trkpt>
      <trkpt lat="44.07896" lon="0.47598">
        <ele>85</ele>
        <time>2025-11-05T13:45:55.446Z</time>
      </trkpt>
      <trkpt lat="44.07895" lon="0.47599">
        <ele>85</ele>
        <time>2025-11-05T13:45:56.446Z</time>
      </trkpt>
      <trkpt lat="44.07894" lon="0.476">
        <ele>84</ele>
        <time>2025-11-05T13:45:57.446Z</time>
      </trkpt>
      <trkpt lat="44.07893" lon="0.47601">
        <ele>84</ele>
        <time>2025-11-05T13:45:58.446Z</time>
      </trkpt>
      <trkpt lat="44.07893" lon="0.47602">
        <ele>84</ele>
        <time>2025-11-05T13:45:59.446Z</time>
      </trkpt>
      <trkpt lat="44.07892" lon="0.47603">
        <ele>85</ele>
        <time>2025-11-05T13:46:00.446Z</time>
      </trkpt>
      <trkpt lat="44.07891" lon="0.47604">
        <ele>84</ele>
        <time>2025-11-05T13:46:01.446Z</time>
      </trkpt>
      <trkpt lat="44.0789" lon="0.47605">
        <ele>84</ele>
        <time>2025-11-05T13:46:02.446Z</time>
      </trkpt>
      <trkpt lat="44.07889" lon="0.47606">
        <ele>84</ele>
        <time>2025-11-05T13:46:03.446Z</time>
      </trkpt>
      <trkpt lat="44.07888" lon="0.47607">
        <ele>84</ele>
        <time>2025-11-05T13:46:04.446Z</time>
      </trkpt>
      <trkpt lat="44.07887" lon="0.47608">
        <ele>84</ele>
        <time>2025-11-05T13:46:05.446Z</time>
      </trkpt>
      <trkpt lat="44.07886" lon="0.47609">
        <ele>84</ele>
        <time>2025-11-05T13:46:06.446Z</time>
      </trkpt>
      <trkpt lat="44.07885" lon="0.4761">
        <ele>84</ele>
        <time>2025-11-05T13:46:07.446Z</time>
      </trkpt>
      <trkpt lat="44.07884" lon="0.47611">
        <ele>85</ele>
        <time>2025-11-05T13:46:08.446Z</time>
      </trkpt>
      <trkpt lat="44.07883" lon="0.47612">
        <ele>85</ele>
        <time>2025-11-05T13:46:09.446Z</time>
      </trkpt>
      <trkpt lat="44.07882" lon="0.47613">
        <ele>85</ele>
        <time>2025-11-05T13:46:10.446Z</time>
      </trkpt>
      <trkpt lat="44.07881" lon="0.47614">
        <ele>85</ele>
        <time>2025-11-05T13:46:11.446Z</time>
      </trkpt>
      <trkpt lat="44.0788" lon="0.47615">
        <ele>85</ele>
        <time>2025-11-05T13:46:12.446Z</time>
      </trkpt>
      <trkpt lat="44.0788" lon="0.47616">
        <ele>85</ele>
        <time>2025-11-05T13:46:13.446Z</time>
      </trkpt>
      <trkpt lat="44.07879" lon="0.47617">
        <ele>85</ele>
        <time>2025-11-05T13:46:14.446Z</time>
      </trkpt>
      <trkpt lat="44.07878" lon="0.47618">
        <ele>85</ele>
        <time>2025-11-05T13:46:15.446Z</time>
      </trkpt>
      <trkpt lat="44.07877" lon="0.47619">
        <ele>85</ele>
        <time>2025-11-05T13:46:16.446Z</time>
      </trkpt>
      <trkpt lat="44.07876" lon="0.47621">
        <ele>85</ele>
        <time>2025-11-05T13:46:17.446Z</time>
      </trkpt>
      <trkpt lat="44.07875" lon="0.47622">
        <ele>86</ele>
        <time>2025-11-05T13:46:18.446Z</time>
      </trkpt>
      <trkpt lat="44.07875" lon="0.47623">
        <ele>86</ele>
        <time>2025-11-05T13:46:19.446Z</time>
      </trkpt>
      <trkpt lat="44.07874" lon="0.47624">
        <ele>86</ele>
        <time>2025-11-05T13:46:20.446Z</time>
      </trkpt>
      <trkpt lat="44.07873" lon="0.47625">
        <ele>86</ele>
        <time>2025-11-05T13:46:21.446Z</time>
      </trkpt>
      <trkpt lat="44.07873" lon="0.47626">
        <ele>87</ele>
        <time>2025-11-05T13:46:22.446Z</time>
      </trkpt>
      <trkpt lat="44.07872" lon="0.47628">
        <ele>87</ele>
        <time>2025-11-05T13:46:23.446Z</time>
      </trkpt>
      <trkpt lat="44.07871" lon="0.47629">
        <ele>87</ele>
        <time>2025-11-05T13:46:24.446Z</time>
      </trkpt>
      <trkpt lat="44.07871" lon="0.4763">
        <ele>87</ele>
        <time>2025-11-05T13:46:25.446Z</time>
      </trkpt>
      <trkpt lat="44.0787" lon="0.47631">
        <ele>88</ele>
        <time>2025-11-05T13:46:26.446Z</time>
      </trkpt>
      <trkpt lat="44.0787" lon="0.47632">
        <ele>88</ele>
        <time>2025-11-05T13:46:27.446Z</time>
      </trkpt>
      <trkpt lat="44.07869" lon="0.47633">
        <ele>88</ele>
        <time>2025-11-05T13:46:28.446Z</time>
      </trkpt>
      <trkpt lat="44.07869" lon="0.47634">
        <ele>89</ele>
        <time>2025-11-05T13:46:29.447Z</time>
      </trkpt>
      <trkpt lat="44.07868" lon="0.47635">
        <ele>89</ele>
        <time>2025-11-05T13:46:30.446Z</time>
      </trkpt>
      <trkpt lat="44.07867" lon="0.47637">
        <ele>89</ele>
        <time>2025-11-05T13:46:31.446Z</time>
      </trkpt>
      <trkpt lat="44.07867" lon="0.47638">
        <ele>89</ele>
        <time>2025-11-05T13:46:32.446Z</time>
      </trkpt>
      <trkpt lat="44.07867" lon="0.47639">
        <ele>90</ele>
        <time>2025-11-05T13:46:33.446Z</time>
      </trkpt>
      <trkpt lat="44.07866" lon="0.47641">
        <ele>90</ele>
        <time>2025-11-05T13:46:34.446Z</time>
      </trkpt>
      <trkpt lat="44.07866" lon="0.47642">
        <ele>90</ele>
        <time>2025-11-05T13:46:35.446Z</time>
      </trkpt>
      <trkpt lat="44.07865" lon="0.47643">
        <ele>90</ele>
        <time>2025-11-05T13:46:36.446Z</time>
      </trkpt>
      <trkpt lat="44.07864" lon="0.47644">
        <ele>90</ele>
        <time>2025-11-05T13:46:37.446Z</time>
      </trkpt>
      <trkpt lat="44.07864" lon="0.47645">
        <ele>90</ele>
        <time>2025-11-05T13:46:38.446Z</time>
      </trkpt>
      <trkpt lat="44.07863" lon="0.47646">
        <ele>90</ele>
        <time>2025-11-05T13:46:39.446Z</time>
      </trkpt>
      <trkpt lat="44.07862" lon="0.47647">
        <ele>89</ele>
        <time>2025-11-05T13:46:40.446Z</time>
      </trkpt>
      <trkpt lat="44.07861" lon="0.47648">
        <ele>90</ele>
        <time>2025-11-05T13:46:41.446Z</time>
      </trkpt>
      <trkpt lat="44.0786" lon="0.47649">
        <ele>90</ele>
        <time>2025-11-05T13:46:42.446Z</time>
      </trkpt>
      <trkpt lat="44.07859" lon="0.47651">
        <ele>89</ele>
        <time>2025-11-05T13:46:43.446Z</time>
      </trkpt>
      <trkpt lat="44.07858" lon="0.47651">
        <ele>89</ele>
        <time>2025-11-05T13:46:44.446Z</time>
      </trkpt>
      <trkpt lat="44.07857" lon="0.47652">
        <ele>89</ele>
        <time>2025-11-05T13:46:45.446Z</time>
      </trkpt>
      <trkpt lat="44.07856" lon="0.47653">
        <ele>89</ele>
        <time>2025-11-05T13:46:46.446Z</time>
      </trkpt>
      <trkpt lat="44.07856" lon="0.47654">
        <ele>89</ele>
        <time>2025-11-05T13:46:47.446Z</time>
      </trkpt>
      <trkpt lat="44.07854" lon="0.47655">
        <ele>89</ele>
        <time>2025-11-05T13:46:48.446Z</time>
      </trkpt>
      <trkpt lat="44.07853" lon="0.47657">
        <ele>89</ele>
        <time>2025-11-05T13:46:49.446Z</time>
      </trkpt>
      <trkpt lat="44.07852" lon="0.47658">
        <ele>90</ele>
        <time>2025-11-05T13:46:50.446Z</time>
      </trkpt>
      <trkpt lat="44.07852" lon="0.47659">
        <ele>90</ele>
        <time>2025-11-05T13:46:51.446Z</time>
      </trkpt>
      <trkpt lat="44.07851" lon="0.4766">
        <ele>90</ele>
        <time>2025-11-05T13:46:52.446Z</time>
      </trkpt>
      <trkpt lat="44.0785" lon="0.47661">
        <ele>90</ele>
        <time>2025-11-05T13:46:53.446Z</time>
      </trkpt>
      <trkpt lat="44.07849" lon="0.47662">
        <ele>90</ele>
        <time>2025-11-05T13:46:54.446Z</time>
      </trkpt>
      <trkpt lat="44.07849" lon="0.47662">
        <ele>90</ele>
        <time>2025-11-05T13:46:55.446Z</time>
      </trkpt>
      <trkpt lat="44.07848" lon="0.47663">
        <ele>90</ele>
        <time>2025-11-05T13:46:56.446Z</time>
      </trkpt>
      <trkpt lat="44.07847" lon="0.47664">
        <ele>90</ele>
        <time>2025-11-05T13:46:57.446Z</time>
      </trkpt>
      <trkpt lat="44.07846" lon="0.47665">
        <ele>90</ele>
        <time>2025-11-05T13:46:58.446Z</time>
      </trkpt>
      <trkpt lat="44.07845" lon="0.47666">
        <ele>91</ele>
        <time>2025-11-05T13:46:59.446Z</time>
      </trkpt>
      <trkpt lat="44.07844" lon="0.47668">
        <ele>91</ele>
        <time>2025-11-05T13:47:00.446Z</time>
      </trkpt>
      <trkpt lat="44.07843" lon="0.47669">
        <ele>91</ele>
        <time>2025-11-05T13:47:01.446Z</time>
      </trkpt>
      <trkpt lat="44.07842" lon="0.47671">
        <ele>91</ele>
        <time>2025-11-05T13:47:02.446Z</time>
      </trkpt>
      <trkpt lat="44.07841" lon="0.47672">
        <ele>91</ele>
        <time>2025-11-05T13:47:03.446Z</time>
      </trkpt>
      <trkpt lat="44.0784" lon="0.47672">
        <ele>91</ele>
        <time>2025-11-05T13:47:04.446Z</time>
      </trkpt>
      <trkpt lat="44.07839" lon="0.47673">
        <ele>91</ele>
        <time>2025-11-05T13:47:05.446Z</time>
      </trkpt>
      <trkpt lat="44.07838" lon="0.47674">
        <ele>91</ele>
        <time>2025-11-05T13:47:06.446Z</time>
      </trkpt>
      <trkpt lat="44.07838" lon="0.47675">
        <ele>91</ele>
        <time>2025-11-05T13:47:07.446Z</time>
      </trkpt>
      <trkpt lat="44.07837" lon="0.47676">
        <ele>92</ele>
        <time>2025-11-05T13:47:08.446Z</time>
      </trkpt>
      <trkpt lat="44.07836" lon="0.47677">
        <ele>92</ele>
        <time>2025-11-05T13:47:09.446Z</time>
      </trkpt>
      <trkpt lat="44.07835" lon="0.47678">
        <ele>92</ele>
        <time>2025-11-05T13:47:10.446Z</time>
      </trkpt>
      <trkpt lat="44.07834" lon="0.47679">
        <ele>93</ele>
        <time>2025-11-05T13:47:11.446Z</time>
      </trkpt>
      <trkpt lat="44.07834" lon="0.4768">
        <ele>93</ele>
        <time>2025-11-05T13:47:12.446Z</time>
      </trkpt>
      <trkpt lat="44.07833" lon="0.47681">
        <ele>93</ele>
        <time>2025-11-05T13:47:13.446Z</time>
      </trkpt>
      <trkpt lat="44.07832" lon="0.47682">
        <ele>93</ele>
        <time>2025-11-05T13:47:14.446Z</time>
      </trkpt>
      <trkpt lat="44.07831" lon="0.47684">
        <ele>93</ele>
        <time>2025-11-05T13:47:15.446Z</time>
      </trkpt>
      <trkpt lat="44.0783" lon="0.47685">
        <ele>93</ele>
        <time>2025-11-05T13:47:16.446Z</time>
      </trkpt>
      <trkpt lat="44.07829" lon="0.47687">
        <ele>93</ele>
        <time>2025-11-05T13:47:17.446Z</time>
      </trkpt>
      <trkpt lat="44.07828" lon="0.47688">
        <ele>94</ele>
        <time>2025-11-05T13:47:18.446Z</time>
      </trkpt>
      <trkpt lat="44.07826" lon="0.47689">
        <ele>94</ele>
        <time>2025-11-05T13:47:19.446Z</time>
      </trkpt>
      <trkpt lat="44.07825" lon="0.47691">
        <ele>94</ele>
        <time>2025-11-05T13:47:20.446Z</time>
      </trkpt>
      <trkpt lat="44.07824" lon="0.47691">
        <ele>95</ele>
        <time>2025-11-05T13:47:21.446Z</time>
      </trkpt>
      <trkpt lat="44.07824" lon="0.47692">
        <ele>95</ele>
        <time>2025-11-05T13:47:22.446Z</time>
      </trkpt>
      <trkpt lat="44.07823" lon="0.47693">
        <ele>95</ele>
        <time>2025-11-05T13:47:23.446Z</time>
      </trkpt>
      <trkpt lat="44.07822" lon="0.47693">
        <ele>95</ele>
        <time>2025-11-05T13:47:24.446Z</time>
      </trkpt>
      <trkpt lat="44.0782" lon="0.47694">
        <ele>95</ele>
        <time>2025-11-05T13:47:25.446Z</time>
      </trkpt>
      <trkpt lat="44.07819" lon="0.47695">
        <ele>96</ele>
        <time>2025-11-05T13:47:26.446Z</time>
      </trkpt>
      <trkpt lat="44.07818" lon="0.47696">
        <ele>96</ele>
        <time>2025-11-05T13:47:27.446Z</time>
      </trkpt>
      <trkpt lat="44.07817" lon="0.47697">
        <ele>96</ele>
        <time>2025-11-05T13:47:28.446Z</time>
      </trkpt>
      <trkpt lat="44.07817" lon="0.47697">
        <ele>96</ele>
        <time>2025-11-05T13:47:29.446Z</time>
      </trkpt>
      <trkpt lat="44.07816" lon="0.47698">
        <ele>96</ele>
        <time>2025-11-05T13:47:30.446Z</time>
      </trkpt>
      <trkpt lat="44.07815" lon="0.47699">
        <ele>96</ele>
        <time>2025-11-05T13:47:31.446Z</time>
      </trkpt>
      <trkpt lat="44.07814" lon="0.47699">
        <ele>95</ele>
        <time>2025-11-05T13:47:32.446Z</time>
      </trkpt>
      <trkpt lat="44.07812" lon="0.477">
        <ele>95</ele>
        <time>2025-11-05T13:47:33.446Z</time>
      </trkpt>
      <trkpt lat="44.07811" lon="0.47701">
        <ele>95</ele>
        <time>2025-11-05T13:47:34.446Z</time>
      </trkpt>
      <trkpt lat="44.0781" lon="0.47702">
        <ele>94</ele>
        <time>2025-11-05T13:47:35.446Z</time>
      </trkpt>
      <trkpt lat="44.07809" lon="0.47703">
        <ele>94</ele>
        <time>2025-11-05T13:47:36.446Z</time>
      </trkpt>
      <trkpt lat="44.07808" lon="0.47704">
        <ele>94</ele>
        <time>2025-11-05T13:47:37.446Z</time>
      </trkpt>
      <trkpt lat="44.07807" lon="0.47705">
        <ele>94</ele>
        <time>2025-11-05T13:47:38.446Z</time>
      </trkpt>
      <trkpt lat="44.07806" lon="0.47706">
        <ele>93</ele>
        <time>2025-11-05T13:47:39.446Z</time>
      </trkpt>
      <trkpt lat="44.07805" lon="0.47707">
        <ele>93</ele>
        <time>2025-11-05T13:47:40.446Z</time>
      </trkpt>
      <trkpt lat="44.07803" lon="0.47708">
        <ele>93</ele>
        <time>2025-11-05T13:47:41.446Z</time>
      </trkpt>
      <trkpt lat="44.07802" lon="0.47709">
        <ele>92</ele>
        <time>2025-11-05T13:47:42.446Z</time>
      </trkpt>
      <trkpt lat="44.07801" lon="0.4771">
        <ele>92</ele>
        <time>2025-11-05T13:47:43.446Z</time>
      </trkpt>
      <trkpt lat="44.078" lon="0.4771">
        <ele>92</ele>
        <time>2025-11-05T13:47:44.446Z</time>
      </trkpt>
      <trkpt lat="44.078" lon="0.47711">
        <ele>92</ele>
        <time>2025-11-05T13:47:45.446Z</time>
      </trkpt>
      <trkpt lat="44.07799" lon="0.47711">
        <ele>91</ele>
        <time>2025-11-05T13:47:46.446Z</time>
      </trkpt>
      <trkpt lat="44.07798" lon="0.47712">
        <ele>91</ele>
        <time>2025-11-05T13:47:47.446Z</time>
      </trkpt>
      <trkpt lat="44.07797" lon="0.47714">
        <ele>91</ele>
        <time>2025-11-05T13:47:48.446Z</time>
      </trkpt>
      <trkpt lat="44.07796" lon="0.47714">
        <ele>90</ele>
        <time>2025-11-05T13:47:49.446Z</time>
      </trkpt>
      <trkpt lat="44.07795" lon="0.47715">
        <ele>89</ele>
        <time>2025-11-05T13:47:50.446Z</time>
      </trkpt>
      <trkpt lat="44.07793" lon="0.47716">
        <ele>89</ele>
        <time>2025-11-05T13:47:51.446Z</time>
      </trkpt>
      <trkpt lat="44.07792" lon="0.47717">
        <ele>88</ele>
        <time>2025-11-05T13:47:52.446Z</time>
      </trkpt>
      <trkpt lat="44.07791" lon="0.47717">
        <ele>88</ele>
        <time>2025-11-05T13:47:53.446Z</time>
      </trkpt>
      <trkpt lat="44.0779" lon="0.47718">
        <ele>88</ele>
        <time>2025-11-05T13:47:54.446Z</time>
      </trkpt>
      <trkpt lat="44.07789" lon="0.47719">
        <ele>88</ele>
        <time>2025-11-05T13:47:55.446Z</time>
      </trkpt>
      <trkpt lat="44.07788" lon="0.4772">
        <ele>88</ele>
        <time>2025-11-05T13:47:56.446Z</time>
      </trkpt>
      <trkpt lat="44.07787" lon="0.47721">
        <ele>88</ele>
        <time>2025-11-05T13:47:57.446Z</time>
      </trkpt>
      <trkpt lat="44.07786" lon="0.47722">
        <ele>89</ele>
        <time>2025-11-05T13:47:58.446Z</time>
      </trkpt>
      <trkpt lat="44.07785" lon="0.47725">
        <ele>89</ele>
        <time>2025-11-05T13:47:59.446Z</time>
      </trkpt>
      <trkpt lat="44.07784" lon="0.47726">
        <ele>89</ele>
        <time>2025-11-05T13:48:00.446Z</time>
      </trkpt>
      <trkpt lat="44.07783" lon="0.47726">
        <ele>89</ele>
        <time>2025-11-05T13:48:01.446Z</time>
      </trkpt>
      <trkpt lat="44.07782" lon="0.47727">
        <ele>90</ele>
        <time>2025-11-05T13:48:02.446Z</time>
      </trkpt>
      <trkpt lat="44.07782" lon="0.47728">
        <ele>90</ele>
        <time>2025-11-05T13:48:03.446Z</time>
      </trkpt>
      <trkpt lat="44.0778" lon="0.4773">
        <ele>90</ele>
        <time>2025-11-05T13:48:04.446Z</time>
      </trkpt>
      <trkpt lat="44.0778" lon="0.47731">
        <ele>91</ele>
        <time>2025-11-05T13:48:05.446Z</time>
      </trkpt>
      <trkpt lat="44.07779" lon="0.47732">
        <ele>91</ele>
        <time>2025-11-05T13:48:06.446Z</time>
      </trkpt>
      <trkpt lat="44.07778" lon="0.47732">
        <ele>91</ele>
        <time>2025-11-05T13:48:07.446Z</time>
      </trkpt>
      <trkpt lat="44.07777" lon="0.47733">
        <ele>92</ele>
        <time>2025-11-05T13:48:08.446Z</time>
      </trkpt>
      <trkpt lat="44.07777" lon="0.47733">
        <ele>92</ele>
        <time>2025-11-05T13:48:09.446Z</time>
      </trkpt>
      <trkpt lat="44.07776" lon="0.47734">
        <ele>92</ele>
        <time>2025-11-05T13:48:10.446Z</time>
      </trkpt>
      <trkpt lat="44.07776" lon="0.47734">
        <ele>93</ele>
        <time>2025-11-05T13:48:11.446Z</time>
      </trkpt>
      <trkpt lat="44.07775" lon="0.47735">
        <ele>93</ele>
        <time>2025-11-05T13:48:12.446Z</time>
      </trkpt>
      <trkpt lat="44.07774" lon="0.47737">
        <ele>93</ele>
        <time>2025-11-05T13:48:13.446Z</time>
      </trkpt>
      <trkpt lat="44.07773" lon="0.47737">
        <ele>93</ele>
        <time>2025-11-05T13:48:14.446Z</time>
      </trkpt>
      <trkpt lat="44.07773" lon="0.47738">
        <ele>93</ele>
        <time>2025-11-05T13:48:15.446Z</time>
      </trkpt>
      <trkpt lat="44.07772" lon="0.47739">
        <ele>93</ele>
        <time>2025-11-05T13:48:16.446Z</time>
      </trkpt>
      <trkpt lat="44.07771" lon="0.47739">
        <ele>93</ele>
        <time>2025-11-05T13:48:17.446Z</time>
      </trkpt>
      <trkpt lat="44.0777" lon="0.4774">
        <ele>93</ele>
        <time>2025-11-05T13:48:18.446Z</time>
      </trkpt>
      <trkpt lat="44.07769" lon="0.47741">
        <ele>93</ele>
        <time>2025-11-05T13:48:19.447Z</time>
      </trkpt>
      <trkpt lat="44.07768" lon="0.47741">
        <ele>94</ele>
        <time>2025-11-05T13:48:20.446Z</time>
      </trkpt>
      <trkpt lat="44.07767" lon="0.47742">
        <ele>94</ele>
        <time>2025-11-05T13:48:21.446Z</time>
      </trkpt>
      <trkpt lat="44.07766" lon="0.47743">
        <ele>94</ele>
        <time>2025-11-05T13:48:22.446Z</time>
      </trkpt>
      <trkpt lat="44.07765" lon="0.47744">
        <ele>94</ele>
        <time>2025-11-05T13:48:23.446Z</time>
      </trkpt>
      <trkpt lat="44.07764" lon="0.47745">
        <ele>94</ele>
        <time>2025-11-05T13:48:24.446Z</time>
      </trkpt>
      <trkpt lat="44.07763" lon="0.47746">
        <ele>94</ele>
        <time>2025-11-05T13:48:25.446Z</time>
      </trkpt>
      <trkpt lat="44.07762" lon="0.47747">
        <ele>93</ele>
        <time>2025-11-05T13:48:26.446Z</time>
      </trkpt>
      <trkpt lat="44.07761" lon="0.47748">
        <ele>93</ele>
        <time>2025-11-05T13:48:27.446Z</time>
      </trkpt>
      <trkpt lat="44.0776" lon="0.47749">
        <ele>93</ele>
        <time>2025-11-05T13:48:28.446Z</time>
      </trkpt>
      <trkpt lat="44.07759" lon="0.4775">
        <ele>93</ele>
        <time>2025-11-05T13:48:29.446Z</time>
      </trkpt>
      <trkpt lat="44.07758" lon="0.47752">
        <ele>93</ele>
        <time>2025-11-05T13:48:30.446Z</time>
      </trkpt>
      <trkpt lat="44.07757" lon="0.47753">
        <ele>93</ele>
        <time>2025-11-05T13:48:31.446Z</time>
      </trkpt>
      <trkpt lat="44.07755" lon="0.47755">
        <ele>93</ele>
        <time>2025-11-05T13:48:32.446Z</time>
      </trkpt>
      <trkpt lat="44.07755" lon="0.47755">
        <ele>93</ele>
        <time>2025-11-05T13:48:33.446Z</time>
      </trkpt>
      <trkpt lat="44.07753" lon="0.47757">
        <ele>93</ele>
        <time>2025-11-05T13:48:34.446Z</time>
      </trkpt>
      <trkpt lat="44.07752" lon="0.47758">
        <ele>93</ele>
        <time>2025-11-05T13:48:35.446Z</time>
      </trkpt>
      <trkpt lat="44.07751" lon="0.47759">
        <ele>93</ele>
        <time>2025-11-05T13:48:36.446Z</time>
      </trkpt>
      <trkpt lat="44.0775" lon="0.47761">
        <ele>93</ele>
        <time>2025-11-05T13:48:37.446Z</time>
      </trkpt>
      <trkpt lat="44.07749" lon="0.47762">
        <ele>93</ele>
        <time>2025-11-05T13:48:38.446Z</time>
      </trkpt>
      <trkpt lat="44.07748" lon="0.47763">
        <ele>93</ele>
        <time>2025-11-05T13:48:39.446Z</time>
      </trkpt>
      <trkpt lat="44.07747" lon="0.47765">
        <ele>93</ele>
        <time>2025-11-05T13:48:40.446Z</time>
      </trkpt>
      <trkpt lat="44.07746" lon="0.47766">
        <ele>92</ele>
        <time>2025-11-05T13:48:41.446Z</time>
      </trkpt>
      <trkpt lat="44.07745" lon="0.47766">
        <ele>92</ele>
        <time>2025-11-05T13:48:42.446Z</time>
      </trkpt>
      <trkpt lat="44.07744" lon="0.47767">
        <ele>91</ele>
        <time>2025-11-05T13:48:43.446Z</time>
      </trkpt>
      <trkpt lat="44.07742" lon="0.47768">
        <ele>91</ele>
        <time>2025-11-05T13:48:44.446Z</time>
      </trkpt>
      <trkpt lat="44.07741" lon="0.47769">
        <ele>91</ele>
        <time>2025-11-05T13:48:45.446Z</time>
      </trkpt>
      <trkpt lat="44.0774" lon="0.4777">
        <ele>90</ele>
        <time>2025-11-05T13:48:46.446Z</time>
      </trkpt>
      <trkpt lat="44.07739" lon="0.4777">
        <ele>90</ele>
        <time>2025-11-05T13:48:47.446Z</time>
      </trkpt>
      <trkpt lat="44.07738" lon="0.47771">
        <ele>89</ele>
        <time>2025-11-05T13:48:48.446Z</time>
      </trkpt>
      <trkpt lat="44.07737" lon="0.47772">
        <ele>89</ele>
        <time>2025-11-05T13:48:49.446Z</time>
      </trkpt>
      <trkpt lat="44.07736" lon="0.47773">
        <ele>88</ele>
        <time>2025-11-05T13:48:50.446Z</time>
      </trkpt>
      <trkpt lat="44.07735" lon="0.47773">
        <ele>88</ele>
        <time>2025-11-05T13:48:51.446Z</time>
      </trkpt>
      <trkpt lat="44.07733" lon="0.47774">
        <ele>87</ele>
        <time>2025-11-05T13:48:52.446Z</time>
      </trkpt>
      <trkpt lat="44.07732" lon="0.47775">
        <ele>87</ele>
        <time>2025-11-05T13:48:53.446Z</time>
      </trkpt>
      <trkpt lat="44.07731" lon="0.47775">
        <ele>86</ele>
        <time>2025-11-05T13:48:54.446Z</time>
      </trkpt>
      <trkpt lat="44.0773" lon="0.47776">
        <ele>86</ele>
        <time>2025-11-05T13:48:55.446Z</time>
      </trkpt>
      <trkpt lat="44.07729" lon="0.47776">
        <ele>86</ele>
        <time>2025-11-05T13:48:56.446Z</time>
      </trkpt>
      <trkpt lat="44.07728" lon="0.47777">
        <ele>86</ele>
        <time>2025-11-05T13:48:57.446Z</time>
      </trkpt>
      <trkpt lat="44.07727" lon="0.47777">
        <ele>86</ele>
        <time>2025-11-05T13:48:58.446Z</time>
      </trkpt>
      <trkpt lat="44.07726" lon="0.47777">
        <ele>86</ele>
        <time>2025-11-05T13:48:59.446Z</time>
      </trkpt>
      <trkpt lat="44.07726" lon="0.47776">
        <ele>86</ele>
        <time>2025-11-05T13:49:00.446Z</time>
      </trkpt>
      <trkpt lat="44.07725" lon="0.47776">
        <ele>86</ele>
        <time>2025-11-05T13:49:01.446Z</time>
      </trkpt>
      <trkpt lat="44.07725" lon="0.47775">
        <ele>86</ele>
        <time>2025-11-05T13:49:02.446Z</time>
      </trkpt>
      <trkpt lat="44.07725" lon="0.47774">
        <ele>87</ele>
        <time>2025-11-05T13:49:03.446Z</time>
      </trkpt>
      <trkpt lat="44.07725" lon="0.47774">
        <ele>87</ele>
        <time>2025-11-05T13:49:04.446Z</time>
      </trkpt>
      <trkpt lat="44.07725" lon="0.47773">
        <ele>87</ele>
        <time>2025-11-05T13:49:05.446Z</time>
      </trkpt>
      <trkpt lat="44.07725" lon="0.47773">
        <ele>87</ele>
        <time>2025-11-05T13:49:06.446Z</time>
      </trkpt>
      <trkpt lat="44.07725" lon="0.47773">
        <ele>88</ele>
        <time>2025-11-05T13:49:07.446Z</time>
      </trkpt>
      <trkpt lat="44.07725" lon="0.47773">
        <ele>88</ele>
        <time>2025-11-05T13:49:08.446Z</time>
      </trkpt>
      <trkpt lat="44.07725" lon="0.47773">
        <ele>89</ele>
        <time>2025-11-05T13:49:09.446Z</time>
      </trkpt>
      <trkpt lat="44.07725" lon="0.47773">
        <ele>89</ele>
        <time>2025-11-05T13:49:10.446Z</time>
      </trkpt>
      <trkpt lat="44.07725" lon="0.47773">
        <ele>90</ele>
        <time>2025-11-05T13:49:11.446Z</time>
      </trkpt>
      <trkpt lat="44.07725" lon="0.47774">
        <ele>90</ele>
        <time>2025-11-05T13:49:12.446Z</time>
      </trkpt>
      <trkpt lat="44.07725" lon="0.47774">
        <ele>90</ele>
        <time>2025-11-05T13:49:13.446Z</time>
      </trkpt>
      <trkpt lat="44.07725" lon="0.47775">
        <ele>90</ele>
        <time>2025-11-05T13:49:14.446Z</time>
      </trkpt>
      <trkpt lat="44.07725" lon="0.47775">
        <ele>90</ele>
        <time>2025-11-05T13:49:15.446Z</time>
      </trkpt>
      <trkpt lat="44.07725" lon="0.47776">
        <ele>90</ele>
        <time>2025-11-05T13:49:16.446Z</time>
      </trkpt>
      <trkpt lat="44.07725" lon="0.47776">
        <ele>89</ele>
        <time>2025-11-05T13:49:17.446Z</time>
      </trkpt>
      <trkpt lat="44.07725" lon="0.47776">
        <ele>89</ele>
        <time>2025-11-05T13:49:18.446Z</time>
      </trkpt>
      <trkpt lat="44.07725" lon="0.47776">
        <ele>89</ele>
        <time>2025-11-05T13:49:19.446Z</time>
      </trkpt>
      <trkpt lat="44.07725" lon="0.47775">
        <ele>90</ele>
        <time>2025-11-05T13:49:20.446Z</time>
      </trkpt>
      <trkpt lat="44.07725" lon="0.47775">
        <ele>90</ele>
        <time>2025-11-05T13:49:21.446Z</time>
      </trkpt>
      <trkpt lat="44.07725" lon="0.47775">
        <ele>89</ele>
        <time>2025-11-05T13:49:22.446Z</time>
      </trkpt>
      <trkpt lat="44.07725" lon="0.47774">
        <ele>89</ele>
        <time>2025-11-05T13:49:23.446Z</time>
      </trkpt>
      <trkpt lat="44.07725" lon="0.47774">
        <ele>89</ele>
        <time>2025-11-05T13:49:24.446Z</time>
      </trkpt>
      <trkpt lat="44.07725" lon="0.47773">
        <ele>89</ele>
        <time>2025-11-05T13:49:25.446Z</time>
      </trkpt>
      <trkpt lat="44.07725" lon="0.47773">
        <ele>89</ele>
        <time>2025-11-05T13:49:26.446Z</time>
      </trkpt>
      <trkpt lat="44.07725" lon="0.47773">
        <ele>89</ele>
        <time>2025-11-05T13:49:27.446Z</time>
      </trkpt>
      <trkpt lat="44.07725" lon="0.47773">
        <ele>89</ele>
        <time>2025-11-05T13:49:28.446Z</time>
      </trkpt>
      <trkpt lat="44.07725" lon="0.47773">
        <ele>89</ele>
        <time>2025-11-05T13:49:29.446Z</time>
      </trkpt>
      <trkpt lat="44.07725" lon="0.47774">
        <ele>89</ele>
        <time>2025-11-05T13:49:30.446Z</time>
      </trkpt>
      <trkpt lat="44.07725" lon="0.47774">
        <ele>89</ele>
        <time>2025-11-05T13:49:31.446Z</time>
      </trkpt>
      <trkpt lat="44.07725" lon="0.47774">
        <ele>89</ele>
        <time>2025-11-05T13:49:32.446Z</time>
      </trkpt>
      <trkpt lat="44.07725" lon="0.47774">
        <ele>89</ele>
        <time>2025-11-05T13:49:33.446Z</time>
      </trkpt>
      <trkpt lat="44.07725" lon="0.47774">
        <ele>89</ele>
        <time>2025-11-05T13:49:34.446Z</time>
      </trkpt>
      <trkpt lat="44.07725" lon="0.47774">
        <ele>89</ele>
        <time>2025-11-05T13:49:35.446Z</time>
      </trkpt>
      <trkpt lat="44.07726" lon="0.47774">
        <ele>89</ele>
        <time>2025-11-05T13:49:36.446Z</time>
      </trkpt>
      <trkpt lat="44.07726" lon="0.47775">
        <ele>89</ele>
        <time>2025-11-05T13:49:37.446Z</time>
      </trkpt>
      <trkpt lat="44.07726" lon="0.47775">
        <ele>89</ele>
        <time>2025-11-05T13:49:38.446Z</time>
      </trkpt>
      <trkpt lat="44.07726" lon="0.47775">
        <ele>89</ele>
        <time>2025-11-05T13:49:39.446Z</time>
      </trkpt>
      <trkpt lat="44.07726" lon="0.47775">
        <ele>89</ele>
        <time>2025-11-05T13:49:40.446Z</time>
      </trkpt>
      <trkpt lat="44.07726" lon="0.47775">
        <ele>89</ele>
        <time>2025-11-05T13:49:41.446Z</time>
      </trkpt>
      <trkpt lat="44.07726" lon="0.47775">
        <ele>89</ele>
        <time>2025-11-05T13:49:42.446Z</time>
      </trkpt>
      <trkpt lat="44.07726" lon="0.47775">
        <ele>89</ele>
        <time>2025-11-05T13:49:43.446Z</time>
      </trkpt>
      <trkpt lat="44.07726" lon="0.47776">
        <ele>89</ele>
        <time>2025-11-05T13:49:44.446Z</time>
      </trkpt>
      <trkpt lat="44.07726" lon="0.47776">
        <ele>90</ele>
        <time>2025-11-05T13:49:45.446Z</time>
      </trkpt>
      <trkpt lat="44.07726" lon="0.47776">
        <ele>90</ele>
        <time>2025-11-05T13:49:46.446Z</time>
      </trkpt>
      <trkpt lat="44.07727" lon="0.47777">
        <ele>90</ele>
        <time>2025-11-05T13:49:47.446Z</time>
      </trkpt>
      <trkpt lat="44.07727" lon="0.47777">
        <ele>90</ele>
        <time>2025-11-05T13:49:48.446Z</time>
      </trkpt>
      <trkpt lat="44.07727" lon="0.47777">
        <ele>90</ele>
        <time>2025-11-05T13:49:49.446Z</time>
      </trkpt>
      <trkpt lat="44.07727" lon="0.47777">
        <ele>90</ele>
        <time>2025-11-05T13:49:50.446Z</time>
      </trkpt>
      <trkpt lat="44.07727" lon="0.47777">
        <ele>90</ele>
        <time>2025-11-05T13:49:51.446Z</time>
      </trkpt>
      <trkpt lat="44.07727" lon="0.47777">
        <ele>89</ele>
        <time>2025-11-05T13:49:52.446Z</time>
      </trkpt>
      <trkpt lat="44.07727" lon="0.47777">
        <ele>90</ele>
        <time>2025-11-05T13:49:53.446Z</time>
      </trkpt>
      <trkpt lat="44.07727" lon="0.47777">
        <ele>89</ele>
        <time>2025-11-05T13:49:54.446Z</time>
      </trkpt>
      <trkpt lat="44.07727" lon="0.47777">
        <ele>89</ele>
        <time>2025-11-05T13:49:55.446Z</time>
      </trkpt>
      <trkpt lat="44.07727" lon="0.47777">
        <ele>89</ele>
        <time>2025-11-05T13:49:56.446Z</time>
      </trkpt>
      <trkpt lat="44.07727" lon="0.47777">
        <ele>89</ele>
        <time>2025-11-05T13:49:57.446Z</time>
      </trkpt>
      <trkpt lat="44.07727" lon="0.47777">
        <ele>88</ele>
        <time>2025-11-05T13:49:58.446Z</time>
      </trkpt>
      <trkpt lat="44.07727" lon="0.47777">
        <ele>88</ele>
        <time>2025-11-05T13:49:59.446Z</time>
      </trkpt>
      <trkpt lat="44.07727" lon="0.47777">
        <ele>88</ele>
        <time>2025-11-05T13:50:00.446Z</time>
      </trkpt>
      <trkpt lat="44.07727" lon="0.47777">
        <ele>88</ele>
        <time>2025-11-05T13:50:01.446Z</time>
      </trkpt>
      <trkpt lat="44.07727" lon="0.47777">
        <ele>88</ele>
        <time>2025-11-05T13:50:02.446Z</time>
      </trkpt>
      <trkpt lat="44.07727" lon="0.47777">
        <ele>89</ele>
        <time>2025-11-05T13:50:03.446Z</time>
      </trkpt>
      <trkpt lat="44.07727" lon="0.47777">
        <ele>89</ele>
        <time>2025-11-05T13:50:04.446Z</time>
      </trkpt>
      <trkpt lat="44.07727" lon="0.47777">
        <ele>89</ele>
        <time>2025-11-05T13:50:05.446Z</time>
      </trkpt>
      <trkpt lat="44.07727" lon="0.47777">
        <ele>89</ele>
        <time>2025-11-05T13:50:06.446Z</time>
      </trkpt>
      <trkpt lat="44.07727" lon="0.47777">
        <ele>89</ele>
        <time>2025-11-05T13:50:07.446Z</time>
      </trkpt>
      <trkpt lat="44.07727" lon="0.47777">
        <ele>89</ele>
        <time>2025-11-05T13:50:08.446Z</time>
      </trkpt>
      <trkpt lat="44.07727" lon="0.47777">
        <ele>90</ele>
        <time>2025-11-05T13:50:09.447Z</time>
      </trkpt>
      <trkpt lat="44.07727" lon="0.47777">
        <ele>90</ele>
        <time>2025-11-05T13:50:10.446Z</time>
      </trkpt>
      <trkpt lat="44.07727" lon="0.47777">
        <ele>90</ele>
        <time>2025-11-05T13:50:11.446Z</time>
      </trkpt>
      <trkpt lat="44.07727" lon="0.47777">
        <ele>90</ele>
        <time>2025-11-05T13:50:12.446Z</time>
      </trkpt>
      <trkpt lat="44.07727" lon="0.47777">
        <ele>90</ele>
        <time>2025-11-05T13:50:13.446Z</time>
      </trkpt>
      <trkpt lat="44.07727" lon="0.47777">
        <ele>90</ele>
        <time>2025-11-05T13:50:14.446Z</time>
      </trkpt>
      <trkpt lat="44.07727" lon="0.47777">
        <ele>90</ele>
        <time>2025-11-05T13:50:15.446Z</time>
      </trkpt>
      <trkpt lat="44.07727" lon="0.47778">
        <ele>90</ele>
        <time>2025-11-05T13:50:16.446Z</time>
      </trkpt>
      <trkpt lat="44.07727" lon="0.47778">
        <ele>90</ele>
        <time>2025-11-05T13:50:17.446Z</time>
      </trkpt>
      <trkpt lat="44.07727" lon="0.47778">
        <ele>90</ele>
        <time>2025-11-05T13:50:18.446Z</time>
      </trkpt>
      <trkpt lat="44.07727" lon="0.47778">
        <ele>90</ele>
        <time>2025-11-05T13:50:19.446Z</time>
      </trkpt>
      <trkpt lat="44.07727" lon="0.47778">
        <ele>90</ele>
        <time>2025-11-05T13:50:20.446Z</time>
      </trkpt>
      <trkpt lat="44.07727" lon="0.47778">
        <ele>90</ele>
        <time>2025-11-05T13:50:21.446Z</time>
      </trkpt>
      <trkpt lat="44.07727" lon="0.47778">
        <ele>90</ele>
        <time>2025-11-05T13:50:22.446Z</time>
      </trkpt>
      <trkpt lat="44.07727" lon="0.47778">
        <ele>90</ele>
        <time>2025-11-05T13:50:23.446Z</time>
      </trkpt>
      <trkpt lat="44.07726" lon="0.47778">
        <ele>90</ele>
        <time>2025-11-05T13:50:24.446Z</time>
      </trkpt>
      <trkpt lat="44.07726" lon="0.47778">
        <ele>90</ele>
        <time>2025-11-05T13:50:25.446Z</time>
      </trkpt>
      <trkpt lat="44.07726" lon="0.47778">
        <ele>90</ele>
        <time>2025-11-05T13:50:26.446Z</time>
      </trkpt>
      <trkpt lat="44.07726" lon="0.47778">
        <ele>90</ele>
        <time>2025-11-05T13:50:27.446Z</time>
      </trkpt>
      <trkpt lat="44.07726" lon="0.47778">
        <ele>90</ele>
        <time>2025-11-05T13:50:28.446Z</time>
      </trkpt>
      <trkpt lat="44.07726" lon="0.47778">
        <ele>89</ele>
        <time>2025-11-05T13:50:29.446Z</time>
      </trkpt>
      <trkpt lat="44.07726" lon="0.47778">
        <ele>89</ele>
        <time>2025-11-05T13:50:30.446Z</time>
      </trkpt>
      <trkpt lat="44.07726" lon="0.47778">
        <ele>89</ele>
        <time>2025-11-05T13:50:31.446Z</time>
      </trkpt>
      <trkpt lat="44.07726" lon="0.47778">
        <ele>89</ele>
        <time>2025-11-05T13:50:32.446Z</time>
      </trkpt>
      <trkpt lat="44.07726" lon="0.47778">
        <ele>89</ele>
        <time>2025-11-05T13:50:33.446Z</time>
      </trkpt>
      <trkpt lat="44.07726" lon="0.47778">
        <ele>90</ele>
        <time>2025-11-05T13:50:34.446Z</time>
      </trkpt>
      <trkpt lat="44.07726" lon="0.47778">
        <ele>90</ele>
        <time>2025-11-05T13:50:35.446Z</time>
      </trkpt>
      <trkpt lat="44.07726" lon="0.47778">
        <ele>90</ele>
        <time>2025-11-05T13:50:36.446Z</time>
      </trkpt>
      <trkpt lat="44.07726" lon="0.47778">
        <ele>91</ele>
        <time>2025-11-05T13:50:37.446Z</time>
      </trkpt>
      <trkpt lat="44.07726" lon="0.47779">
        <ele>91</ele>
        <time>2025-11-05T13:50:38.446Z</time>
      </trkpt>
      <trkpt lat="44.07726" lon="0.47778">
        <ele>91</ele>
        <time>2025-11-05T13:50:39.446Z</time>
      </trkpt>
      <trkpt lat="44.07726" lon="0.47778">
        <ele>91</ele>
        <time>2025-11-05T13:50:40.446Z</time>
      </trkpt>
      <trkpt lat="44.07726" lon="0.47778">
        <ele>91</ele>
        <time>2025-11-05T13:50:41.446Z</time>
      </trkpt>
      <trkpt lat="44.07726" lon="0.47779">
        <ele>91</ele>
        <time>2025-11-05T13:50:42.446Z</time>
      </trkpt>
      <trkpt lat="44.07726" lon="0.4778">
        <ele>91</ele>
        <time>2025-11-05T13:50:43.446Z</time>
      </trkpt>
      <trkpt lat="44.07726" lon="0.4778">
        <ele>91</ele>
        <time>2025-11-05T13:50:44.446Z</time>
      </trkpt>
      <trkpt lat="44.07725" lon="0.47781">
        <ele>91</ele>
        <time>2025-11-05T13:50:45.447Z</time>
      </trkpt>
      <trkpt lat="44.07725" lon="0.47782">
        <ele>91</ele>
        <time>2025-11-05T13:50:46.446Z</time>
      </trkpt>
      <trkpt lat="44.07724" lon="0.47782">
        <ele>91</ele>
        <time>2025-11-05T13:50:47.446Z</time>
      </trkpt>
      <trkpt lat="44.07722" lon="0.47783">
        <ele>92</ele>
        <time>2025-11-05T13:50:48.446Z</time>
      </trkpt>
      <trkpt lat="44.07721" lon="0.47784">
        <ele>92</ele>
        <time>2025-11-05T13:50:49.446Z</time>
      </trkpt>
      <trkpt lat="44.0772" lon="0.47785">
        <ele>92</ele>
        <time>2025-11-05T13:50:50.446Z</time>
      </trkpt>
      <trkpt lat="44.07719" lon="0.47786">
        <ele>92</ele>
        <time>2025-11-05T13:50:51.446Z</time>
      </trkpt>
      <trkpt lat="44.07719" lon="0.47787">
        <ele>92</ele>
        <time>2025-11-05T13:50:52.446Z</time>
      </trkpt>
      <trkpt lat="44.07718" lon="0.47788">
        <ele>91</ele>
        <time>2025-11-05T13:50:53.446Z</time>
      </trkpt>
      <trkpt lat="44.07717" lon="0.47788">
        <ele>91</ele>
        <time>2025-11-05T13:50:54.446Z</time>
      </trkpt>
      <trkpt lat="44.07716" lon="0.47789">
        <ele>91</ele>
        <time>2025-11-05T13:50:55.446Z</time>
      </trkpt>
      <trkpt lat="44.07715" lon="0.4779">
        <ele>91</ele>
        <time>2025-11-05T13:50:56.446Z</time>
      </trkpt>
      <trkpt lat="44.07714" lon="0.47791">
        <ele>90</ele>
        <time>2025-11-05T13:50:57.446Z</time>
      </trkpt>
      <trkpt lat="44.07712" lon="0.47792">
        <ele>90</ele>
        <time>2025-11-05T13:50:58.446Z</time>
      </trkpt>
      <trkpt lat="44.07712" lon="0.47793">
        <ele>90</ele>
        <time>2025-11-05T13:50:59.446Z</time>
      </trkpt>
      <trkpt lat="44.07711" lon="0.47793">
        <ele>89</ele>
        <time>2025-11-05T13:51:00.446Z</time>
      </trkpt>
      <trkpt lat="44.0771" lon="0.47794">
        <ele>89</ele>
        <time>2025-11-05T13:51:01.446Z</time>
      </trkpt>
      <trkpt lat="44.07709" lon="0.47795">
        <ele>89</ele>
        <time>2025-11-05T13:51:02.446Z</time>
      </trkpt>
      <trkpt lat="44.07708" lon="0.47795">
        <ele>89</ele>
        <time>2025-11-05T13:51:03.446Z</time>
      </trkpt>
      <trkpt lat="44.07706" lon="0.47796">
        <ele>89</ele>
        <time>2025-11-05T13:51:04.446Z</time>
      </trkpt>
      <trkpt lat="44.07705" lon="0.47797">
        <ele>89</ele>
        <time>2025-11-05T13:51:05.446Z</time>
      </trkpt>
      <trkpt lat="44.07704" lon="0.47797">
        <ele>88</ele>
        <time>2025-11-05T13:51:06.446Z</time>
      </trkpt>
      <trkpt lat="44.07703" lon="0.47797">
        <ele>88</ele>
        <time>2025-11-05T13:51:07.446Z</time>
      </trkpt>
      <trkpt lat="44.07702" lon="0.47797">
        <ele>88</ele>
        <time>2025-11-05T13:51:08.446Z</time>
      </trkpt>
      <trkpt lat="44.07701" lon="0.47798">
        <ele>88</ele>
        <time>2025-11-05T13:51:09.446Z</time>
      </trkpt>
      <trkpt lat="44.077" lon="0.47798">
        <ele>88</ele>
        <time>2025-11-05T13:51:10.446Z</time>
      </trkpt>
      <trkpt lat="44.077" lon="0.47799">
        <ele>88</ele>
        <time>2025-11-05T13:51:11.446Z</time>
      </trkpt>
      <trkpt lat="44.07699" lon="0.478">
        <ele>88</ele>
        <time>2025-11-05T13:51:12.446Z</time>
      </trkpt>
      <trkpt lat="44.07698" lon="0.478">
        <ele>89</ele>
        <time>2025-11-05T13:51:13.446Z</time>
      </trkpt>
      <trkpt lat="44.07697" lon="0.47801">
        <ele>89</ele>
        <time>2025-11-05T13:51:14.446Z</time>
      </trkpt>
      <trkpt lat="44.07696" lon="0.47801">
        <ele>88</ele>
        <time>2025-11-05T13:51:15.446Z</time>
      </trkpt>
      <trkpt lat="44.07695" lon="0.47802">
        <ele>88</ele>
        <time>2025-11-05T13:51:16.446Z</time>
      </trkpt>
      <trkpt lat="44.07694" lon="0.47803">
        <ele>88</ele>
        <time>2025-11-05T13:51:17.446Z</time>
      </trkpt>
      <trkpt lat="44.07693" lon="0.47804">
        <ele>88</ele>
        <time>2025-11-05T13:51:18.446Z</time>
      </trkpt>
      <trkpt lat="44.07692" lon="0.47805">
        <ele>88</ele>
        <time>2025-11-05T13:51:19.446Z</time>
      </trkpt>
      <trkpt lat="44.07691" lon="0.47806">
        <ele>88</ele>
        <time>2025-11-05T13:51:20.446Z</time>
      </trkpt>
      <trkpt lat="44.0769" lon="0.47807">
        <ele>88</ele>
        <time>2025-11-05T13:51:21.446Z</time>
      </trkpt>
      <trkpt lat="44.07689" lon="0.47808">
        <ele>88</ele>
        <time>2025-11-05T13:51:22.446Z</time>
      </trkpt>
      <trkpt lat="44.07688" lon="0.47809">
        <ele>88</ele>
        <time>2025-11-05T13:51:23.446Z</time>
      </trkpt>
      <trkpt lat="44.07687" lon="0.47809">
        <ele>88</ele>
        <time>2025-11-05T13:51:24.446Z</time>
      </trkpt>
      <trkpt lat="44.07686" lon="0.4781">
        <ele>87</ele>
        <time>2025-11-05T13:51:25.446Z</time>
      </trkpt>
      <trkpt lat="44.07685" lon="0.47811">
        <ele>87</ele>
        <time>2025-11-05T13:51:26.446Z</time>
      </trkpt>
      <trkpt lat="44.07684" lon="0.47812">
        <ele>87</ele>
        <time>2025-11-05T13:51:27.446Z</time>
      </trkpt>
      <trkpt lat="44.07683" lon="0.47813">
        <ele>87</ele>
        <time>2025-11-05T13:51:28.446Z</time>
      </trkpt>
      <trkpt lat="44.07682" lon="0.47813">
        <ele>87</ele>
        <time>2025-11-05T13:51:29.446Z</time>
      </trkpt>
      <trkpt lat="44.07681" lon="0.47814">
        <ele>86</ele>
        <time>2025-11-05T13:51:30.446Z</time>
      </trkpt>
      <trkpt lat="44.0768" lon="0.47815">
        <ele>86</ele>
        <time>2025-11-05T13:51:31.446Z</time>
      </trkpt>
      <trkpt lat="44.07679" lon="0.47816">
        <ele>86</ele>
        <time>2025-11-05T13:51:32.446Z</time>
      </trkpt>
      <trkpt lat="44.07678" lon="0.47816">
        <ele>87</ele>
        <time>2025-11-05T13:51:33.446Z</time>
      </trkpt>
      <trkpt lat="44.07677" lon="0.47817">
        <ele>87</ele>
        <time>2025-11-05T13:51:34.446Z</time>
      </trkpt>
      <trkpt lat="44.07676" lon="0.47818">
        <ele>87</ele>
        <time>2025-11-05T13:51:35.446Z</time>
      </trkpt>
      <trkpt lat="44.07675" lon="0.47819">
        <ele>87</ele>
        <time>2025-11-05T13:51:36.446Z</time>
      </trkpt>
      <trkpt lat="44.07674" lon="0.47819">
        <ele>87</ele>
        <time>2025-11-05T13:51:37.446Z</time>
      </trkpt>
      <trkpt lat="44.07673" lon="0.4782">
        <ele>87</ele>
        <time>2025-11-05T13:51:38.446Z</time>
      </trkpt>
      <trkpt lat="44.07672" lon="0.47821">
        <ele>87</ele>
        <time>2025-11-05T13:51:39.446Z</time>
      </trkpt>
      <trkpt lat="44.0767" lon="0.47822">
        <ele>87</ele>
        <time>2025-11-05T13:51:40.446Z</time>
      </trkpt>
      <trkpt lat="44.07669" lon="0.47823">
        <ele>88</ele>
        <time>2025-11-05T13:51:41.446Z</time>
      </trkpt>
      <trkpt lat="44.07668" lon="0.47824">
        <ele>88</ele>
        <time>2025-11-05T13:51:42.446Z</time>
      </trkpt>
      <trkpt lat="44.07667" lon="0.47825">
        <ele>87</ele>
        <time>2025-11-05T13:51:43.446Z</time>
      </trkpt>
      <trkpt lat="44.07666" lon="0.47825">
        <ele>88</ele>
        <time>2025-11-05T13:51:44.446Z</time>
      </trkpt>
      <trkpt lat="44.07666" lon="0.47826">
        <ele>88</ele>
        <time>2025-11-05T13:51:45.446Z</time>
      </trkpt>
      <trkpt lat="44.07664" lon="0.47827">
        <ele>88</ele>
        <time>2025-11-05T13:51:46.446Z</time>
      </trkpt>
      <trkpt lat="44.07663" lon="0.47827">
        <ele>88</ele>
        <time>2025-11-05T13:51:47.446Z</time>
      </trkpt>
      <trkpt lat="44.07662" lon="0.47828">
        <ele>88</ele>
        <time>2025-11-05T13:51:48.446Z</time>
      </trkpt>
      <trkpt lat="44.07661" lon="0.47829">
        <ele>88</ele>
        <time>2025-11-05T13:51:49.446Z</time>
      </trkpt>
      <trkpt lat="44.0766" lon="0.4783">
        <ele>88</ele>
        <time>2025-11-05T13:51:50.446Z</time>
      </trkpt>
      <trkpt lat="44.07659" lon="0.4783">
        <ele>88</ele>
        <time>2025-11-05T13:51:51.446Z</time>
      </trkpt>
      <trkpt lat="44.07658" lon="0.47831">
        <ele>88</ele>
        <time>2025-11-05T13:51:52.446Z</time>
      </trkpt>
      <trkpt lat="44.07657" lon="0.47832">
        <ele>89</ele>
        <time>2025-11-05T13:51:53.446Z</time>
      </trkpt>
      <trkpt lat="44.07656" lon="0.47833">
        <ele>89</ele>
        <time>2025-11-05T13:51:54.446Z</time>
      </trkpt>
      <trkpt lat="44.07655" lon="0.47833">
        <ele>89</ele>
        <time>2025-11-05T13:51:55.446Z</time>
      </trkpt>
      <trkpt lat="44.07654" lon="0.47834">
        <ele>89</ele>
        <time>2025-11-05T13:51:56.446Z</time>
      </trkpt>
      <trkpt lat="44.07653" lon="0.47835">
        <ele>89</ele>
        <time>2025-11-05T13:51:57.447Z</time>
      </trkpt>
      <trkpt lat="44.07652" lon="0.47836">
        <ele>89</ele>
        <time>2025-11-05T13:51:58.446Z</time>
      </trkpt>
      <trkpt lat="44.07651" lon="0.47837">
        <ele>89</ele>
        <time>2025-11-05T13:51:59.446Z</time>
      </trkpt>
      <trkpt lat="44.0765" lon="0.47838">
        <ele>89</ele>
        <time>2025-11-05T13:52:00.446Z</time>
      </trkpt>
      <trkpt lat="44.07649" lon="0.47839">
        <ele>89</ele>
        <time>2025-11-05T13:52:01.446Z</time>
      </trkpt>
      <trkpt lat="44.07647" lon="0.4784">
        <ele>90</ele>
        <time>2025-11-05T13:52:02.446Z</time>
      </trkpt>
      <trkpt lat="44.07646" lon="0.4784">
        <ele>90</ele>
        <time>2025-11-05T13:52:03.446Z</time>
      </trkpt>
      <trkpt lat="44.07646" lon="0.47841">
        <ele>90</ele>
        <time>2025-11-05T13:52:04.446Z</time>
      </trkpt>
      <trkpt lat="44.07645" lon="0.47842">
        <ele>90</ele>
        <time>2025-11-05T13:52:05.446Z</time>
      </trkpt>
      <trkpt lat="44.07644" lon="0.47842">
        <ele>90</ele>
        <time>2025-11-05T13:52:06.446Z</time>
      </trkpt>
      <trkpt lat="44.07642" lon="0.47843">
        <ele>91</ele>
        <time>2025-11-05T13:52:07.446Z</time>
      </trkpt>
      <trkpt lat="44.07641" lon="0.47844">
        <ele>91</ele>
        <time>2025-11-05T13:52:08.446Z</time>
      </trkpt>
      <trkpt lat="44.0764" lon="0.47845">
        <ele>91</ele>
        <time>2025-11-05T13:52:09.446Z</time>
      </trkpt>
      <trkpt lat="44.07639" lon="0.47846">
        <ele>91</ele>
        <time>2025-11-05T13:52:10.446Z</time>
      </trkpt>
      <trkpt lat="44.07638" lon="0.47847">
        <ele>91</ele>
        <time>2025-11-05T13:52:11.446Z</time>
      </trkpt>
      <trkpt lat="44.07638" lon="0.47848">
        <ele>91</ele>
        <time>2025-11-05T13:52:12.446Z</time>
      </trkpt>
      <trkpt lat="44.07637" lon="0.47849">
        <ele>92</ele>
        <time>2025-11-05T13:52:13.446Z</time>
      </trkpt>
      <trkpt lat="44.07635" lon="0.4785">
        <ele>92</ele>
        <time>2025-11-05T13:52:14.447Z</time>
      </trkpt>
      <trkpt lat="44.07634" lon="0.47851">
        <ele>93</ele>
        <time>2025-11-05T13:52:15.446Z</time>
      </trkpt>
      <trkpt lat="44.07633" lon="0.47852">
        <ele>93</ele>
        <time>2025-11-05T13:52:16.447Z</time>
      </trkpt>
      <trkpt lat="44.07632" lon="0.47853">
        <ele>93</ele>
        <time>2025-11-05T13:52:17.446Z</time>
      </trkpt>
      <trkpt lat="44.07631" lon="0.47853">
        <ele>93</ele>
        <time>2025-11-05T13:52:18.446Z</time>
      </trkpt>
      <trkpt lat="44.0763" lon="0.47854">
        <ele>93</ele>
        <time>2025-11-05T13:52:19.446Z</time>
      </trkpt>
      <trkpt lat="44.07629" lon="0.47854">
        <ele>93</ele>
        <time>2025-11-05T13:52:20.446Z</time>
      </trkpt>
      <trkpt lat="44.07628" lon="0.47855">
        <ele>93</ele>
        <time>2025-11-05T13:52:21.446Z</time>
      </trkpt>
      <trkpt lat="44.07627" lon="0.47856">
        <ele>93</ele>
        <time>2025-11-05T13:52:22.446Z</time>
      </trkpt>
      <trkpt lat="44.07626" lon="0.47857">
        <ele>94</ele>
        <time>2025-11-05T13:52:23.446Z</time>
      </trkpt>
      <trkpt lat="44.07625" lon="0.47858">
        <ele>94</ele>
        <time>2025-11-05T13:52:24.446Z</time>
      </trkpt>
      <trkpt lat="44.07624" lon="0.47859">
        <ele>93</ele>
        <time>2025-11-05T13:52:25.446Z</time>
      </trkpt>
      <trkpt lat="44.07624" lon="0.47859">
        <ele>93</ele>
        <time>2025-11-05T13:52:26.446Z</time>
      </trkpt>
      <trkpt lat="44.07623" lon="0.4786">
        <ele>93</ele>
        <time>2025-11-05T13:52:27.446Z</time>
      </trkpt>
      <trkpt lat="44.07622" lon="0.47861">
        <ele>93</ele>
        <time>2025-11-05T13:52:28.446Z</time>
      </trkpt>
      <trkpt lat="44.07621" lon="0.47861">
        <ele>93</ele>
        <time>2025-11-05T13:52:29.446Z</time>
      </trkpt>
      <trkpt lat="44.0762" lon="0.47862">
        <ele>93</ele>
        <time>2025-11-05T13:52:30.446Z</time>
      </trkpt>
      <trkpt lat="44.07619" lon="0.47863">
        <ele>93</ele>
        <time>2025-11-05T13:52:31.446Z</time>
      </trkpt>
      <trkpt lat="44.07618" lon="0.47863">
        <ele>93</ele>
        <time>2025-11-05T13:52:32.446Z</time>
      </trkpt>
      <trkpt lat="44.07617" lon="0.47864">
        <ele>93</ele>
        <time>2025-11-05T13:52:33.446Z</time>
      </trkpt>
      <trkpt lat="44.07615" lon="0.47866">
        <ele>93</ele>
        <time>2025-11-05T13:52:34.446Z</time>
      </trkpt>
      <trkpt lat="44.07614" lon="0.47866">
        <ele>92</ele>
        <time>2025-11-05T13:52:35.446Z</time>
      </trkpt>
      <trkpt lat="44.07613" lon="0.47867">
        <ele>93</ele>
        <time>2025-11-05T13:52:36.446Z</time>
      </trkpt>
      <trkpt lat="44.07613" lon="0.47868">
        <ele>93</ele>
        <time>2025-11-05T13:52:37.446Z</time>
      </trkpt>
      <trkpt lat="44.07612" lon="0.47869">
        <ele>93</ele>
        <time>2025-11-05T13:52:38.446Z</time>
      </trkpt>
      <trkpt lat="44.07611" lon="0.4787">
        <ele>93</ele>
        <time>2025-11-05T13:52:39.446Z</time>
      </trkpt>
      <trkpt lat="44.0761" lon="0.4787">
        <ele>93</ele>
        <time>2025-11-05T13:52:40.446Z</time>
      </trkpt>
      <trkpt lat="44.07609" lon="0.47872">
        <ele>93</ele>
        <time>2025-11-05T13:52:41.446Z</time>
      </trkpt>
      <trkpt lat="44.07609" lon="0.47872">
        <ele>94</ele>
        <time>2025-11-05T13:52:42.446Z</time>
      </trkpt>
      <trkpt lat="44.07608" lon="0.47873">
        <ele>94</ele>
        <time>2025-11-05T13:52:43.446Z</time>
      </trkpt>
      <trkpt lat="44.07607" lon="0.47874">
        <ele>94</ele>
        <time>2025-11-05T13:52:44.446Z</time>
      </trkpt>
      <trkpt lat="44.07606" lon="0.47874">
        <ele>94</ele>
        <time>2025-11-05T13:52:45.446Z</time>
      </trkpt>
      <trkpt lat="44.07605" lon="0.47875">
        <ele>94</ele>
        <time>2025-11-05T13:52:46.446Z</time>
      </trkpt>
      <trkpt lat="44.07604" lon="0.47877">
        <ele>94</ele>
        <time>2025-11-05T13:52:47.446Z</time>
      </trkpt>
      <trkpt lat="44.07603" lon="0.47878">
        <ele>94</ele>
        <time>2025-11-05T13:52:48.446Z</time>
      </trkpt>
      <trkpt lat="44.07603" lon="0.47879">
        <ele>94</ele>
        <time>2025-11-05T13:52:49.446Z</time>
      </trkpt>
      <trkpt lat="44.07602" lon="0.47879">
        <ele>94</ele>
        <time>2025-11-05T13:52:50.446Z</time>
      </trkpt>
      <trkpt lat="44.07601" lon="0.4788">
        <ele>94</ele>
        <time>2025-11-05T13:52:51.446Z</time>
      </trkpt>
      <trkpt lat="44.076" lon="0.47881">
        <ele>94</ele>
        <time>2025-11-05T13:52:52.446Z</time>
      </trkpt>
      <trkpt lat="44.07599" lon="0.47881">
        <ele>94</ele>
        <time>2025-11-05T13:52:53.446Z</time>
      </trkpt>
      <trkpt lat="44.07597" lon="0.47882">
        <ele>93</ele>
        <time>2025-11-05T13:52:54.446Z</time>
      </trkpt>
      <trkpt lat="44.07597" lon="0.47883">
        <ele>93</ele>
        <time>2025-11-05T13:52:55.446Z</time>
      </trkpt>
      <trkpt lat="44.07596" lon="0.47884">
        <ele>93</ele>
        <time>2025-11-05T13:52:56.446Z</time>
      </trkpt>
      <trkpt lat="44.07595" lon="0.47884">
        <ele>94</ele>
        <time>2025-11-05T13:52:57.446Z</time>
      </trkpt>
      <trkpt lat="44.07594" lon="0.47885">
        <ele>94</ele>
        <time>2025-11-05T13:52:58.446Z</time>
      </trkpt>
      <trkpt lat="44.07593" lon="0.47886">
        <ele>94</ele>
        <time>2025-11-05T13:52:59.446Z</time>
      </trkpt>
      <trkpt lat="44.07592" lon="0.47887">
        <ele>94</ele>
        <time>2025-11-05T13:53:00.446Z</time>
      </trkpt>
      <trkpt lat="44.07591" lon="0.47888">
        <ele>94</ele>
        <time>2025-11-05T13:53:01.446Z</time>
      </trkpt>
      <trkpt lat="44.0759" lon="0.47889">
        <ele>94</ele>
        <time>2025-11-05T13:53:02.446Z</time>
      </trkpt>
      <trkpt lat="44.07589" lon="0.4789">
        <ele>94</ele>
        <time>2025-11-05T13:53:03.446Z</time>
      </trkpt>
      <trkpt lat="44.07588" lon="0.47891">
        <ele>95</ele>
        <time>2025-11-05T13:53:04.446Z</time>
      </trkpt>
      <trkpt lat="44.07587" lon="0.47891">
        <ele>95</ele>
        <time>2025-11-05T13:53:05.446Z</time>
      </trkpt>
      <trkpt lat="44.07587" lon="0.47892">
        <ele>94</ele>
        <time>2025-11-05T13:53:06.446Z</time>
      </trkpt>
      <trkpt lat="44.07585" lon="0.47894">
        <ele>95</ele>
        <time>2025-11-05T13:53:07.446Z</time>
      </trkpt>
      <trkpt lat="44.07585" lon="0.47895">
        <ele>95</ele>
        <time>2025-11-05T13:53:08.446Z</time>
      </trkpt>
      <trkpt lat="44.07584" lon="0.47896">
        <ele>94</ele>
        <time>2025-11-05T13:53:09.446Z</time>
      </trkpt>
      <trkpt lat="44.07583" lon="0.47897">
        <ele>94</ele>
        <time>2025-11-05T13:53:10.446Z</time>
      </trkpt>
      <trkpt lat="44.07582" lon="0.47897">
        <ele>94</ele>
        <time>2025-11-05T13:53:11.446Z</time>
      </trkpt>
      <trkpt lat="44.07581" lon="0.47898">
        <ele>94</ele>
        <time>2025-11-05T13:53:12.446Z</time>
      </trkpt>
      <trkpt lat="44.07581" lon="0.47899">
        <ele>93</ele>
        <time>2025-11-05T13:53:13.446Z</time>
      </trkpt>
      <trkpt lat="44.0758" lon="0.479">
        <ele>93</ele>
        <time>2025-11-05T13:53:14.446Z</time>
      </trkpt>
      <trkpt lat="44.07579" lon="0.47901">
        <ele>93</ele>
        <time>2025-11-05T13:53:15.446Z</time>
      </trkpt>
      <trkpt lat="44.07578" lon="0.47902">
        <ele>93</ele>
        <time>2025-11-05T13:53:16.446Z</time>
      </trkpt>
      <trkpt lat="44.07577" lon="0.47903">
        <ele>93</ele>
        <time>2025-11-05T13:53:17.446Z</time>
      </trkpt>
      <trkpt lat="44.07576" lon="0.47904">
        <ele>94</ele>
        <time>2025-11-05T13:53:18.446Z</time>
      </trkpt>
      <trkpt lat="44.07576" lon="0.47905">
        <ele>94</ele>
        <time>2025-11-05T13:53:19.446Z</time>
      </trkpt>
      <trkpt lat="44.07574" lon="0.47906">
        <ele>94</ele>
        <time>2025-11-05T13:53:20.446Z</time>
      </trkpt>
      <trkpt lat="44.07573" lon="0.47907">
        <ele>94</ele>
        <time>2025-11-05T13:53:21.446Z</time>
      </trkpt>
      <trkpt lat="44.07572" lon="0.47908">
        <ele>94</ele>
        <time>2025-11-05T13:53:22.446Z</time>
      </trkpt>
      <trkpt lat="44.07571" lon="0.47909">
        <ele>94</ele>
        <time>2025-11-05T13:53:23.446Z</time>
      </trkpt>
      <trkpt lat="44.0757" lon="0.4791">
        <ele>94</ele>
        <time>2025-11-05T13:53:24.446Z</time>
      </trkpt>
      <trkpt lat="44.0757" lon="0.47911">
        <ele>94</ele>
        <time>2025-11-05T13:53:25.446Z</time>
      </trkpt>
      <trkpt lat="44.07569" lon="0.47912">
        <ele>94</ele>
        <time>2025-11-05T13:53:26.446Z</time>
      </trkpt>
      <trkpt lat="44.07568" lon="0.47912">
        <ele>95</ele>
        <time>2025-11-05T13:53:27.446Z</time>
      </trkpt>
      <trkpt lat="44.07567" lon="0.47914">
        <ele>95</ele>
        <time>2025-11-05T13:53:28.446Z</time>
      </trkpt>
      <trkpt lat="44.07566" lon="0.47915">
        <ele>95</ele>
        <time>2025-11-05T13:53:29.446Z</time>
      </trkpt>
      <trkpt lat="44.07565" lon="0.47916">
        <ele>95</ele>
        <time>2025-11-05T13:53:30.446Z</time>
      </trkpt>
      <trkpt lat="44.07564" lon="0.47917">
        <ele>95</ele>
        <time>2025-11-05T13:53:31.446Z</time>
      </trkpt>
      <trkpt lat="44.07564" lon="0.47919">
        <ele>95</ele>
        <time>2025-11-05T13:53:32.446Z</time>
      </trkpt>
      <trkpt lat="44.07563" lon="0.4792">
        <ele>95</ele>
        <time>2025-11-05T13:53:33.446Z</time>
      </trkpt>
      <trkpt lat="44.07562" lon="0.4792">
        <ele>95</ele>
        <time>2025-11-05T13:53:34.446Z</time>
      </trkpt>
      <trkpt lat="44.07561" lon="0.47921">
        <ele>95</ele>
        <time>2025-11-05T13:53:35.446Z</time>
      </trkpt>
      <trkpt lat="44.0756" lon="0.47923">
        <ele>95</ele>
        <time>2025-11-05T13:53:36.446Z</time>
      </trkpt>
      <trkpt lat="44.07559" lon="0.47924">
        <ele>95</ele>
        <time>2025-11-05T13:53:37.446Z</time>
      </trkpt>
      <trkpt lat="44.07558" lon="0.47925">
        <ele>95</ele>
        <time>2025-11-05T13:53:38.446Z</time>
      </trkpt>
      <trkpt lat="44.07558" lon="0.47926">
        <ele>95</ele>
        <time>2025-11-05T13:53:39.446Z</time>
      </trkpt>
      <trkpt lat="44.07557" lon="0.47927">
        <ele>96</ele>
        <time>2025-11-05T13:53:40.446Z</time>
      </trkpt>
      <trkpt lat="44.07556" lon="0.47928">
        <ele>96</ele>
        <time>2025-11-05T13:53:41.446Z</time>
      </trkpt>
      <trkpt lat="44.07555" lon="0.47929">
        <ele>96</ele>
        <time>2025-11-05T13:53:42.446Z</time>
      </trkpt>
      <trkpt lat="44.07554" lon="0.4793">
        <ele>96</ele>
        <time>2025-11-05T13:53:43.446Z</time>
      </trkpt>
      <trkpt lat="44.07553" lon="0.47932">
        <ele>96</ele>
        <time>2025-11-05T13:53:44.446Z</time>
      </trkpt>
      <trkpt lat="44.07552" lon="0.47933">
        <ele>96</ele>
        <time>2025-11-05T13:53:45.446Z</time>
      </trkpt>
      <trkpt lat="44.07552" lon="0.47934">
        <ele>96</ele>
        <time>2025-11-05T13:53:46.446Z</time>
      </trkpt>
      <trkpt lat="44.07551" lon="0.47934">
        <ele>96</ele>
        <time>2025-11-05T13:53:47.446Z</time>
      </trkpt>
      <trkpt lat="44.0755" lon="0.47935">
        <ele>96</ele>
        <time>2025-11-05T13:53:48.446Z</time>
      </trkpt>
      <trkpt lat="44.07549" lon="0.47936">
        <ele>96</ele>
        <time>2025-11-05T13:53:49.446Z</time>
      </trkpt>
      <trkpt lat="44.07549" lon="0.47937">
        <ele>97</ele>
        <time>2025-11-05T13:53:50.446Z</time>
      </trkpt>
      <trkpt lat="44.07548" lon="0.47938">
        <ele>97</ele>
        <time>2025-11-05T13:53:51.446Z</time>
      </trkpt>
      <trkpt lat="44.07547" lon="0.4794">
        <ele>97</ele>
        <time>2025-11-05T13:53:52.446Z</time>
      </trkpt>
      <trkpt lat="44.07546" lon="0.47941">
        <ele>96</ele>
        <time>2025-11-05T13:53:53.446Z</time>
      </trkpt>
      <trkpt lat="44.07545" lon="0.47943">
        <ele>96</ele>
        <time>2025-11-05T13:53:54.446Z</time>
      </trkpt>
      <trkpt lat="44.07544" lon="0.47944">
        <ele>96</ele>
        <time>2025-11-05T13:53:55.446Z</time>
      </trkpt>
      <trkpt lat="44.07543" lon="0.47945">
        <ele>96</ele>
        <time>2025-11-05T13:53:56.446Z</time>
      </trkpt>
      <trkpt lat="44.07543" lon="0.47946">
        <ele>96</ele>
        <time>2025-11-05T13:53:57.446Z</time>
      </trkpt>
      <trkpt lat="44.07543" lon="0.47947">
        <ele>97</ele>
        <time>2025-11-05T13:53:58.446Z</time>
      </trkpt>
      <trkpt lat="44.07542" lon="0.47948">
        <ele>97</ele>
        <time>2025-11-05T13:53:59.446Z</time>
      </trkpt>
      <trkpt lat="44.07541" lon="0.4795">
        <ele>97</ele>
        <time>2025-11-05T13:54:00.446Z</time>
      </trkpt>
      <trkpt lat="44.0754" lon="0.47951">
        <ele>97</ele>
        <time>2025-11-05T13:54:01.446Z</time>
      </trkpt>
      <trkpt lat="44.07539" lon="0.47953">
        <ele>97</ele>
        <time>2025-11-05T13:54:02.446Z</time>
      </trkpt>
      <trkpt lat="44.07538" lon="0.47954">
        <ele>97</ele>
        <time>2025-11-05T13:54:03.446Z</time>
      </trkpt>
      <trkpt lat="44.07537" lon="0.47955">
        <ele>97</ele>
        <time>2025-11-05T13:54:04.446Z</time>
      </trkpt>
      <trkpt lat="44.07537" lon="0.47956">
        <ele>97</ele>
        <time>2025-11-05T13:54:05.446Z</time>
      </trkpt>
      <trkpt lat="44.07535" lon="0.47957">
        <ele>97</ele>
        <time>2025-11-05T13:54:06.446Z</time>
      </trkpt>
      <trkpt lat="44.07535" lon="0.47958">
        <ele>97</ele>
        <time>2025-11-05T13:54:07.446Z</time>
      </trkpt>
      <trkpt lat="44.07533" lon="0.4796">
        <ele>96</ele>
        <time>2025-11-05T13:54:08.446Z</time>
      </trkpt>
      <trkpt lat="44.07532" lon="0.47962">
        <ele>96</ele>
        <time>2025-11-05T13:54:09.446Z</time>
      </trkpt>
      <trkpt lat="44.07531" lon="0.47963">
        <ele>96</ele>
        <time>2025-11-05T13:54:10.446Z</time>
      </trkpt>
      <trkpt lat="44.07531" lon="0.47964">
        <ele>96</ele>
        <time>2025-11-05T13:54:11.446Z</time>
      </trkpt>
      <trkpt lat="44.0753" lon="0.47965">
        <ele>96</ele>
        <time>2025-11-05T13:54:12.446Z</time>
      </trkpt>
      <trkpt lat="44.07529" lon="0.47966">
        <ele>97</ele>
        <time>2025-11-05T13:54:13.446Z</time>
      </trkpt>
      <trkpt lat="44.07528" lon="0.47967">
        <ele>97</ele>
        <time>2025-11-05T13:54:14.446Z</time>
      </trkpt>
      <trkpt lat="44.07527" lon="0.47968">
        <ele>98</ele>
        <time>2025-11-05T13:54:15.446Z</time>
      </trkpt>
      <trkpt lat="44.07526" lon="0.47969">
        <ele>98</ele>
        <time>2025-11-05T13:54:16.446Z</time>
      </trkpt>
      <trkpt lat="44.07525" lon="0.4797">
        <ele>98</ele>
        <time>2025-11-05T13:54:17.446Z</time>
      </trkpt>
      <trkpt lat="44.07525" lon="0.47971">
        <ele>98</ele>
        <time>2025-11-05T13:54:18.446Z</time>
      </trkpt>
      <trkpt lat="44.07524" lon="0.47972">
        <ele>98</ele>
        <time>2025-11-05T13:54:19.446Z</time>
      </trkpt>
      <trkpt lat="44.07523" lon="0.47973">
        <ele>98</ele>
        <time>2025-11-05T13:54:20.446Z</time>
      </trkpt>
      <trkpt lat="44.07522" lon="0.47974">
        <ele>98</ele>
        <time>2025-11-05T13:54:21.446Z</time>
      </trkpt>
      <trkpt lat="44.07522" lon="0.47975">
        <ele>98</ele>
        <time>2025-11-05T13:54:22.446Z</time>
      </trkpt>
      <trkpt lat="44.07521" lon="0.47976">
        <ele>98</ele>
        <time>2025-11-05T13:54:23.446Z</time>
      </trkpt>
      <trkpt lat="44.0752" lon="0.47978">
        <ele>98</ele>
        <time>2025-11-05T13:54:24.446Z</time>
      </trkpt>
      <trkpt lat="44.07519" lon="0.47979">
        <ele>98</ele>
        <time>2025-11-05T13:54:25.446Z</time>
      </trkpt>
      <trkpt lat="44.07519" lon="0.47981">
        <ele>98</ele>
        <time>2025-11-05T13:54:26.446Z</time>
      </trkpt>
      <trkpt lat="44.07518" lon="0.47982">
        <ele>97</ele>
        <time>2025-11-05T13:54:27.446Z</time>
      </trkpt>
      <trkpt lat="44.07517" lon="0.47983">
        <ele>97</ele>
        <time>2025-11-05T13:54:28.446Z</time>
      </trkpt>
      <trkpt lat="44.07516" lon="0.47984">
        <ele>97</ele>
        <time>2025-11-05T13:54:29.446Z</time>
      </trkpt>
      <trkpt lat="44.07515" lon="0.47985">
        <ele>97</ele>
        <time>2025-11-05T13:54:30.446Z</time>
      </trkpt>
      <trkpt lat="44.07514" lon="0.47986">
        <ele>97</ele>
        <time>2025-11-05T13:54:31.446Z</time>
      </trkpt>
      <trkpt lat="44.07513" lon="0.47987">
        <ele>96</ele>
        <time>2025-11-05T13:54:32.446Z</time>
      </trkpt>
      <trkpt lat="44.07513" lon="0.47988">
        <ele>96</ele>
        <time>2025-11-05T13:54:33.446Z</time>
      </trkpt>
      <trkpt lat="44.07512" lon="0.47989">
        <ele>96</ele>
        <time>2025-11-05T13:54:34.446Z</time>
      </trkpt>
      <trkpt lat="44.07511" lon="0.4799">
        <ele>95</ele>
        <time>2025-11-05T13:54:35.446Z</time>
      </trkpt>
      <trkpt lat="44.0751" lon="0.47991">
        <ele>95</ele>
        <time>2025-11-05T13:54:36.446Z</time>
      </trkpt>
      <trkpt lat="44.07509" lon="0.47992">
        <ele>95</ele>
        <time>2025-11-05T13:54:37.446Z</time>
      </trkpt>
      <trkpt lat="44.07508" lon="0.47993">
        <ele>94</ele>
        <time>2025-11-05T13:54:38.446Z</time>
      </trkpt>
      <trkpt lat="44.07508" lon="0.47994">
        <ele>94</ele>
        <time>2025-11-05T13:54:39.446Z</time>
      </trkpt>
      <trkpt lat="44.07507" lon="0.47995">
        <ele>94</ele>
        <time>2025-11-05T13:54:40.446Z</time>
      </trkpt>
      <trkpt lat="44.07506" lon="0.47996">
        <ele>94</ele>
        <time>2025-11-05T13:54:41.446Z</time>
      </trkpt>
      <trkpt lat="44.07505" lon="0.47997">
        <ele>94</ele>
        <time>2025-11-05T13:54:42.446Z</time>
      </trkpt>
      <trkpt lat="44.07504" lon="0.47998">
        <ele>94</ele>
        <time>2025-11-05T13:54:43.446Z</time>
      </trkpt>
      <trkpt lat="44.07503" lon="0.47999">
        <ele>93</ele>
        <time>2025-11-05T13:54:44.446Z</time>
      </trkpt>
      <trkpt lat="44.07502" lon="0.48">
        <ele>93</ele>
        <time>2025-11-05T13:54:45.446Z</time>
      </trkpt>
      <trkpt lat="44.07501" lon="0.48001">
        <ele>93</ele>
        <time>2025-11-05T13:54:46.446Z</time>
      </trkpt>
      <trkpt lat="44.07501" lon="0.48002">
        <ele>92</ele>
        <time>2025-11-05T13:54:47.446Z</time>
      </trkpt>
      <trkpt lat="44.075" lon="0.48003">
        <ele>92</ele>
        <time>2025-11-05T13:54:48.446Z</time>
      </trkpt>
      <trkpt lat="44.07499" lon="0.48003">
        <ele>92</ele>
        <time>2025-11-05T13:54:49.446Z</time>
      </trkpt>
      <trkpt lat="44.07498" lon="0.48004">
        <ele>92</ele>
        <time>2025-11-05T13:54:50.446Z</time>
      </trkpt>
      <trkpt lat="44.07497" lon="0.48005">
        <ele>92</ele>
        <time>2025-11-05T13:54:51.446Z</time>
      </trkpt>
      <trkpt lat="44.07496" lon="0.48006">
        <ele>92</ele>
        <time>2025-11-05T13:54:52.446Z</time>
      </trkpt>
      <trkpt lat="44.07495" lon="0.48008">
        <ele>92</ele>
        <time>2025-11-05T13:54:53.446Z</time>
      </trkpt>
      <trkpt lat="44.07494" lon="0.48009">
        <ele>92</ele>
        <time>2025-11-05T13:54:54.446Z</time>
      </trkpt>
      <trkpt lat="44.07494" lon="0.4801">
        <ele>92</ele>
        <time>2025-11-05T13:54:55.446Z</time>
      </trkpt>
      <trkpt lat="44.07493" lon="0.4801">
        <ele>92</ele>
        <time>2025-11-05T13:54:56.446Z</time>
      </trkpt>
      <trkpt lat="44.07492" lon="0.48011">
        <ele>92</ele>
        <time>2025-11-05T13:54:57.446Z</time>
      </trkpt>
      <trkpt lat="44.07491" lon="0.48012">
        <ele>92</ele>
        <time>2025-11-05T13:54:58.446Z</time>
      </trkpt>
      <trkpt lat="44.0749" lon="0.48014">
        <ele>92</ele>
        <time>2025-11-05T13:54:59.446Z</time>
      </trkpt>
      <trkpt lat="44.07489" lon="0.48015">
        <ele>92</ele>
        <time>2025-11-05T13:55:00.446Z</time>
      </trkpt>
      <trkpt lat="44.07489" lon="0.48015">
        <ele>92</ele>
        <time>2025-11-05T13:55:01.446Z</time>
      </trkpt>
      <trkpt lat="44.07488" lon="0.48016">
        <ele>92</ele>
        <time>2025-11-05T13:55:02.446Z</time>
      </trkpt>
      <trkpt lat="44.07487" lon="0.48017">
        <ele>92</ele>
        <time>2025-11-05T13:55:03.446Z</time>
      </trkpt>
      <trkpt lat="44.07486" lon="0.48018">
        <ele>92</ele>
        <time>2025-11-05T13:55:04.446Z</time>
      </trkpt>
      <trkpt lat="44.07486" lon="0.48019">
        <ele>92</ele>
        <time>2025-11-05T13:55:05.446Z</time>
      </trkpt>
      <trkpt lat="44.07485" lon="0.4802">
        <ele>91</ele>
        <time>2025-11-05T13:55:06.446Z</time>
      </trkpt>
      <trkpt lat="44.07484" lon="0.48021">
        <ele>91</ele>
        <time>2025-11-05T13:55:07.446Z</time>
      </trkpt>
      <trkpt lat="44.07483" lon="0.48022">
        <ele>91</ele>
        <time>2025-11-05T13:55:08.446Z</time>
      </trkpt>
      <trkpt lat="44.07482" lon="0.48023">
        <ele>91</ele>
        <time>2025-11-05T13:55:09.446Z</time>
      </trkpt>
      <trkpt lat="44.07481" lon="0.48024">
        <ele>91</ele>
        <time>2025-11-05T13:55:10.446Z</time>
      </trkpt>
      <trkpt lat="44.0748" lon="0.48025">
        <ele>90</ele>
        <time>2025-11-05T13:55:11.446Z</time>
      </trkpt>
      <trkpt lat="44.07479" lon="0.48026">
        <ele>90</ele>
        <time>2025-11-05T13:55:12.446Z</time>
      </trkpt>
      <trkpt lat="44.07478" lon="0.48026">
        <ele>91</ele>
        <time>2025-11-05T13:55:13.446Z</time>
      </trkpt>
      <trkpt lat="44.07478" lon="0.48027">
        <ele>91</ele>
        <time>2025-11-05T13:55:14.446Z</time>
      </trkpt>
      <trkpt lat="44.07477" lon="0.48028">
        <ele>91</ele>
        <time>2025-11-05T13:55:15.446Z</time>
      </trkpt>
      <trkpt lat="44.07476" lon="0.48029">
        <ele>91</ele>
        <time>2025-11-05T13:55:16.446Z</time>
      </trkpt>
      <trkpt lat="44.07475" lon="0.4803">
        <ele>90</ele>
        <time>2025-11-05T13:55:17.446Z</time>
      </trkpt>
      <trkpt lat="44.07474" lon="0.48031">
        <ele>90</ele>
        <time>2025-11-05T13:55:18.446Z</time>
      </trkpt>
      <trkpt lat="44.07473" lon="0.48032">
        <ele>89</ele>
        <time>2025-11-05T13:55:19.446Z</time>
      </trkpt>
      <trkpt lat="44.07472" lon="0.48033">
        <ele>89</ele>
        <time>2025-11-05T13:55:20.446Z</time>
      </trkpt>
      <trkpt lat="44.07471" lon="0.48034">
        <ele>89</ele>
        <time>2025-11-05T13:55:21.446Z</time>
      </trkpt>
      <trkpt lat="44.0747" lon="0.48035">
        <ele>89</ele>
        <time>2025-11-05T13:55:22.446Z</time>
      </trkpt>
      <trkpt lat="44.0747" lon="0.48036">
        <ele>89</ele>
        <time>2025-11-05T13:55:23.446Z</time>
      </trkpt>
      <trkpt lat="44.07469" lon="0.48037">
        <ele>89</ele>
        <time>2025-11-05T13:55:24.447Z</time>
      </trkpt>
      <trkpt lat="44.07468" lon="0.48038">
        <ele>89</ele>
        <time>2025-11-05T13:55:25.446Z</time>
      </trkpt>
      <trkpt lat="44.07467" lon="0.48039">
        <ele>89</ele>
        <time>2025-11-05T13:55:26.446Z</time>
      </trkpt>
      <trkpt lat="44.07466" lon="0.4804">
        <ele>90</ele>
        <time>2025-11-05T13:55:27.447Z</time>
      </trkpt>
      <trkpt lat="44.07465" lon="0.48041">
        <ele>90</ele>
        <time>2025-11-05T13:55:28.446Z</time>
      </trkpt>
      <trkpt lat="44.07465" lon="0.48041">
        <ele>90</ele>
        <time>2025-11-05T13:55:29.446Z</time>
      </trkpt>
      <trkpt lat="44.07464" lon="0.48042">
        <ele>90</ele>
        <time>2025-11-05T13:55:30.446Z</time>
      </trkpt>
      <trkpt lat="44.07463" lon="0.48043">
        <ele>90</ele>
        <time>2025-11-05T13:55:31.446Z</time>
      </trkpt>
      <trkpt lat="44.07462" lon="0.48044">
        <ele>90</ele>
        <time>2025-11-05T13:55:32.446Z</time>
      </trkpt>
      <trkpt lat="44.07462" lon="0.48045">
        <ele>90</ele>
        <time>2025-11-05T13:55:33.446Z</time>
      </trkpt>
      <trkpt lat="44.07461" lon="0.48047">
        <ele>89</ele>
        <time>2025-11-05T13:55:34.446Z</time>
      </trkpt>
      <trkpt lat="44.0746" lon="0.48047">
        <ele>89</ele>
        <time>2025-11-05T13:55:35.446Z</time>
      </trkpt>
      <trkpt lat="44.07459" lon="0.48049">
        <ele>88</ele>
        <time>2025-11-05T13:55:36.446Z</time>
      </trkpt>
      <trkpt lat="44.07459" lon="0.4805">
        <ele>88</ele>
        <time>2025-11-05T13:55:37.446Z</time>
      </trkpt>
      <trkpt lat="44.07458" lon="0.48051">
        <ele>88</ele>
        <time>2025-11-05T13:55:38.446Z</time>
      </trkpt>
      <trkpt lat="44.07457" lon="0.48052">
        <ele>88</ele>
        <time>2025-11-05T13:55:39.446Z</time>
      </trkpt>
      <trkpt lat="44.07456" lon="0.48052">
        <ele>88</ele>
        <time>2025-11-05T13:55:40.446Z</time>
      </trkpt>
      <trkpt lat="44.07455" lon="0.48053">
        <ele>87</ele>
        <time>2025-11-05T13:55:41.446Z</time>
      </trkpt>
      <trkpt lat="44.07454" lon="0.48054">
        <ele>87</ele>
        <time>2025-11-05T13:55:42.446Z</time>
      </trkpt>
      <trkpt lat="44.07453" lon="0.48055">
        <ele>87</ele>
        <time>2025-11-05T13:55:43.446Z</time>
      </trkpt>
      <trkpt lat="44.07453" lon="0.48057">
        <ele>87</ele>
        <time>2025-11-05T13:55:44.446Z</time>
      </trkpt>
      <trkpt lat="44.07452" lon="0.48058">
        <ele>88</ele>
        <time>2025-11-05T13:55:45.446Z</time>
      </trkpt>
      <trkpt lat="44.07451" lon="0.48059">
        <ele>88</ele>
        <time>2025-11-05T13:55:46.446Z</time>
      </trkpt>
      <trkpt lat="44.0745" lon="0.48061">
        <ele>89</ele>
        <time>2025-11-05T13:55:47.446Z</time>
      </trkpt>
      <trkpt lat="44.07449" lon="0.48062">
        <ele>89</ele>
        <time>2025-11-05T13:55:48.446Z</time>
      </trkpt>
      <trkpt lat="44.07448" lon="0.48063">
        <ele>89</ele>
        <time>2025-11-05T13:55:49.446Z</time>
      </trkpt>
      <trkpt lat="44.07448" lon="0.48064">
        <ele>89</ele>
        <time>2025-11-05T13:55:50.446Z</time>
      </trkpt>
      <trkpt lat="44.07447" lon="0.48065">
        <ele>89</ele>
        <time>2025-11-05T13:55:51.446Z</time>
      </trkpt>
      <trkpt lat="44.07446" lon="0.48066">
        <ele>89</ele>
        <time>2025-11-05T13:55:52.446Z</time>
      </trkpt>
      <trkpt lat="44.07445" lon="0.48067">
        <ele>89</ele>
        <time>2025-11-05T13:55:53.446Z</time>
      </trkpt>
      <trkpt lat="44.07444" lon="0.48068">
        <ele>89</ele>
        <time>2025-11-05T13:55:54.446Z</time>
      </trkpt>
      <trkpt lat="44.07444" lon="0.4807">
        <ele>89</ele>
        <time>2025-11-05T13:55:55.446Z</time>
      </trkpt>
      <trkpt lat="44.07443" lon="0.48071">
        <ele>89</ele>
        <time>2025-11-05T13:55:56.446Z</time>
      </trkpt>
      <trkpt lat="44.07442" lon="0.48072">
        <ele>89</ele>
        <time>2025-11-05T13:55:57.446Z</time>
      </trkpt>
      <trkpt lat="44.07441" lon="0.48074">
        <ele>89</ele>
        <time>2025-11-05T13:55:58.446Z</time>
      </trkpt>
      <trkpt lat="44.07441" lon="0.48076">
        <ele>88</ele>
        <time>2025-11-05T13:55:59.446Z</time>
      </trkpt>
      <trkpt lat="44.0744" lon="0.48077">
        <ele>88</ele>
        <time>2025-11-05T13:56:00.446Z</time>
      </trkpt>
      <trkpt lat="44.0744" lon="0.48079">
        <ele>88</ele>
        <time>2025-11-05T13:56:01.446Z</time>
      </trkpt>
      <trkpt lat="44.07439" lon="0.4808">
        <ele>88</ele>
        <time>2025-11-05T13:56:02.446Z</time>
      </trkpt>
      <trkpt lat="44.07438" lon="0.48082">
        <ele>88</ele>
        <time>2025-11-05T13:56:03.446Z</time>
      </trkpt>
      <trkpt lat="44.07438" lon="0.48083">
        <ele>89</ele>
        <time>2025-11-05T13:56:04.446Z</time>
      </trkpt>
      <trkpt lat="44.07437" lon="0.48084">
        <ele>89</ele>
        <time>2025-11-05T13:56:05.446Z</time>
      </trkpt>
      <trkpt lat="44.07436" lon="0.48085">
        <ele>89</ele>
        <time>2025-11-05T13:56:06.446Z</time>
      </trkpt>
      <trkpt lat="44.07436" lon="0.48087">
        <ele>89</ele>
        <time>2025-11-05T13:56:07.446Z</time>
      </trkpt>
      <trkpt lat="44.07435" lon="0.48089">
        <ele>90</ele>
        <time>2025-11-05T13:56:08.446Z</time>
      </trkpt>
      <trkpt lat="44.07434" lon="0.4809">
        <ele>90</ele>
        <time>2025-11-05T13:56:09.446Z</time>
      </trkpt>
      <trkpt lat="44.07433" lon="0.48091">
        <ele>90</ele>
        <time>2025-11-05T13:56:10.446Z</time>
      </trkpt>
      <trkpt lat="44.07433" lon="0.48092">
        <ele>90</ele>
        <time>2025-11-05T13:56:11.446Z</time>
      </trkpt>
      <trkpt lat="44.07432" lon="0.48094">
        <ele>90</ele>
        <time>2025-11-05T13:56:12.446Z</time>
      </trkpt>
      <trkpt lat="44.07431" lon="0.48095">
        <ele>90</ele>
        <time>2025-11-05T13:56:13.446Z</time>
      </trkpt>
      <trkpt lat="44.07431" lon="0.48096">
        <ele>90</ele>
        <time>2025-11-05T13:56:14.446Z</time>
      </trkpt>
      <trkpt lat="44.0743" lon="0.48098">
        <ele>90</ele>
        <time>2025-11-05T13:56:15.446Z</time>
      </trkpt>
      <trkpt lat="44.07429" lon="0.48099">
        <ele>90</ele>
        <time>2025-11-05T13:56:16.446Z</time>
      </trkpt>
      <trkpt lat="44.07428" lon="0.48101">
        <ele>90</ele>
        <time>2025-11-05T13:56:17.446Z</time>
      </trkpt>
      <trkpt lat="44.07427" lon="0.48102">
        <ele>90</ele>
        <time>2025-11-05T13:56:18.446Z</time>
      </trkpt>
      <trkpt lat="44.07427" lon="0.48103">
        <ele>89</ele>
        <time>2025-11-05T13:56:19.446Z</time>
      </trkpt>
      <trkpt lat="44.07426" lon="0.48104">
        <ele>89</ele>
        <time>2025-11-05T13:56:20.446Z</time>
      </trkpt>
      <trkpt lat="44.07426" lon="0.48105">
        <ele>90</ele>
        <time>2025-11-05T13:56:21.446Z</time>
      </trkpt>
      <trkpt lat="44.07425" lon="0.48107">
        <ele>90</ele>
        <time>2025-11-05T13:56:22.446Z</time>
      </trkpt>
      <trkpt lat="44.07425" lon="0.48108">
        <ele>90</ele>
        <time>2025-11-05T13:56:23.446Z</time>
      </trkpt>
      <trkpt lat="44.07424" lon="0.4811">
        <ele>90</ele>
        <time>2025-11-05T13:56:24.446Z</time>
      </trkpt>
      <trkpt lat="44.07423" lon="0.48112">
        <ele>90</ele>
        <time>2025-11-05T13:56:25.446Z</time>
      </trkpt>
      <trkpt lat="44.07423" lon="0.48113">
        <ele>90</ele>
        <time>2025-11-05T13:56:26.446Z</time>
      </trkpt>
      <trkpt lat="44.07422" lon="0.48114">
        <ele>90</ele>
        <time>2025-11-05T13:56:27.446Z</time>
      </trkpt>
      <trkpt lat="44.07422" lon="0.48116">
        <ele>90</ele>
        <time>2025-11-05T13:56:28.446Z</time>
      </trkpt>
      <trkpt lat="44.07422" lon="0.48117">
        <ele>90</ele>
        <time>2025-11-05T13:56:29.446Z</time>
      </trkpt>
      <trkpt lat="44.07421" lon="0.48118">
        <ele>90</ele>
        <time>2025-11-05T13:56:30.446Z</time>
      </trkpt>
      <trkpt lat="44.0742" lon="0.48119">
        <ele>90</ele>
        <time>2025-11-05T13:56:31.446Z</time>
      </trkpt>
      <trkpt lat="44.07419" lon="0.48121">
        <ele>90</ele>
        <time>2025-11-05T13:56:32.446Z</time>
      </trkpt>
      <trkpt lat="44.07418" lon="0.48122">
        <ele>90</ele>
        <time>2025-11-05T13:56:33.446Z</time>
      </trkpt>
      <trkpt lat="44.07417" lon="0.48123">
        <ele>90</ele>
        <time>2025-11-05T13:56:34.446Z</time>
      </trkpt>
      <trkpt lat="44.07417" lon="0.48124">
        <ele>90</ele>
        <time>2025-11-05T13:56:35.446Z</time>
      </trkpt>
      <trkpt lat="44.07417" lon="0.48126">
        <ele>90</ele>
        <time>2025-11-05T13:56:36.446Z</time>
      </trkpt>
      <trkpt lat="44.07417" lon="0.48127">
        <ele>90</ele>
        <time>2025-11-05T13:56:37.446Z</time>
      </trkpt>
      <trkpt lat="44.07417" lon="0.48129">
        <ele>90</ele>
        <time>2025-11-05T13:56:38.446Z</time>
      </trkpt>
      <trkpt lat="44.07417" lon="0.4813">
        <ele>90</ele>
        <time>2025-11-05T13:56:39.446Z</time>
      </trkpt>
      <trkpt lat="44.07417" lon="0.48131">
        <ele>90</ele>
        <time>2025-11-05T13:56:40.446Z</time>
      </trkpt>
      <trkpt lat="44.07416" lon="0.48133">
        <ele>90</ele>
        <time>2025-11-05T13:56:41.446Z</time>
      </trkpt>
      <trkpt lat="44.07416" lon="0.48134">
        <ele>90</ele>
        <time>2025-11-05T13:56:42.446Z</time>
      </trkpt>
      <trkpt lat="44.07415" lon="0.48136">
        <ele>90</ele>
        <time>2025-11-05T13:56:43.446Z</time>
      </trkpt>
      <trkpt lat="44.07415" lon="0.48137">
        <ele>90</ele>
        <time>2025-11-05T13:56:44.446Z</time>
      </trkpt>
      <trkpt lat="44.07415" lon="0.48139">
        <ele>90</ele>
        <time>2025-11-05T13:56:45.446Z</time>
      </trkpt>
      <trkpt lat="44.07414" lon="0.4814">
        <ele>90</ele>
        <time>2025-11-05T13:56:46.446Z</time>
      </trkpt>
      <trkpt lat="44.07414" lon="0.48141">
        <ele>90</ele>
        <time>2025-11-05T13:56:47.446Z</time>
      </trkpt>
      <trkpt lat="44.07414" lon="0.48143">
        <ele>90</ele>
        <time>2025-11-05T13:56:48.446Z</time>
      </trkpt>
      <trkpt lat="44.07413" lon="0.48144">
        <ele>89</ele>
        <time>2025-11-05T13:56:49.446Z</time>
      </trkpt>
      <trkpt lat="44.07413" lon="0.48146">
        <ele>89</ele>
        <time>2025-11-05T13:56:50.446Z</time>
      </trkpt>
      <trkpt lat="44.07412" lon="0.48147">
        <ele>89</ele>
        <time>2025-11-05T13:56:51.446Z</time>
      </trkpt>
      <trkpt lat="44.07412" lon="0.48149">
        <ele>89</ele>
        <time>2025-11-05T13:56:52.446Z</time>
      </trkpt>
      <trkpt lat="44.07411" lon="0.4815">
        <ele>89</ele>
        <time>2025-11-05T13:56:53.446Z</time>
      </trkpt>
      <trkpt lat="44.07411" lon="0.48152">
        <ele>89</ele>
        <time>2025-11-05T13:56:54.446Z</time>
      </trkpt>
      <trkpt lat="44.07411" lon="0.48153">
        <ele>89</ele>
        <time>2025-11-05T13:56:55.446Z</time>
      </trkpt>
      <trkpt lat="44.07411" lon="0.48155">
        <ele>89</ele>
        <time>2025-11-05T13:56:56.446Z</time>
      </trkpt>
      <trkpt lat="44.0741" lon="0.48156">
        <ele>89</ele>
        <time>2025-11-05T13:56:57.446Z</time>
      </trkpt>
      <trkpt lat="44.0741" lon="0.48158">
        <ele>89</ele>
        <time>2025-11-05T13:56:58.446Z</time>
      </trkpt>
      <trkpt lat="44.0741" lon="0.4816">
        <ele>89</ele>
        <time>2025-11-05T13:56:59.446Z</time>
      </trkpt>
      <trkpt lat="44.0741" lon="0.48162">
        <ele>89</ele>
        <time>2025-11-05T13:57:00.446Z</time>
      </trkpt>
      <trkpt lat="44.07409" lon="0.48164">
        <ele>89</ele>
        <time>2025-11-05T13:57:01.446Z</time>
      </trkpt>
      <trkpt lat="44.07409" lon="0.48165">
        <ele>89</ele>
        <time>2025-11-05T13:57:02.446Z</time>
      </trkpt>
      <trkpt lat="44.07408" lon="0.48167">
        <ele>89</ele>
        <time>2025-11-05T13:57:03.446Z</time>
      </trkpt>
      <trkpt lat="44.07408" lon="0.48168">
        <ele>89</ele>
        <time>2025-11-05T13:57:04.446Z</time>
      </trkpt>
      <trkpt lat="44.07407" lon="0.48169">
        <ele>89</ele>
        <time>2025-11-05T13:57:05.446Z</time>
      </trkpt>
      <trkpt lat="44.07407" lon="0.48171">
        <ele>89</ele>
        <time>2025-11-05T13:57:06.446Z</time>
      </trkpt>
      <trkpt lat="44.07407" lon="0.48172">
        <ele>89</ele>
        <time>2025-11-05T13:57:07.446Z</time>
      </trkpt>
      <trkpt lat="44.07406" lon="0.48174">
        <ele>88</ele>
        <time>2025-11-05T13:57:08.446Z</time>
      </trkpt>
      <trkpt lat="44.07406" lon="0.48175">
        <ele>88</ele>
        <time>2025-11-05T13:57:09.446Z</time>
      </trkpt>
      <trkpt lat="44.07405" lon="0.48177">
        <ele>88</ele>
        <time>2025-11-05T13:57:10.446Z</time>
      </trkpt>
      <trkpt lat="44.07405" lon="0.48179">
        <ele>88</ele>
        <time>2025-11-05T13:57:11.446Z</time>
      </trkpt>
      <trkpt lat="44.07404" lon="0.4818">
        <ele>88</ele>
        <time>2025-11-05T13:57:12.446Z</time>
      </trkpt>
      <trkpt lat="44.07404" lon="0.48181">
        <ele>88</ele>
        <time>2025-11-05T13:57:13.446Z</time>
      </trkpt>
      <trkpt lat="44.07403" lon="0.48182">
        <ele>88</ele>
        <time>2025-11-05T13:57:14.446Z</time>
      </trkpt>
      <trkpt lat="44.07403" lon="0.48184">
        <ele>88</ele>
        <time>2025-11-05T13:57:15.446Z</time>
      </trkpt>
      <trkpt lat="44.07403" lon="0.48186">
        <ele>88</ele>
        <time>2025-11-05T13:57:16.446Z</time>
      </trkpt>
      <trkpt lat="44.07402" lon="0.48187">
        <ele>88</ele>
        <time>2025-11-05T13:57:17.446Z</time>
      </trkpt>
      <trkpt lat="44.07402" lon="0.48189">
        <ele>89</ele>
        <time>2025-11-05T13:57:18.446Z</time>
      </trkpt>
      <trkpt lat="44.07402" lon="0.4819">
        <ele>89</ele>
        <time>2025-11-05T13:57:19.446Z</time>
      </trkpt>
      <trkpt lat="44.07401" lon="0.48192">
        <ele>89</ele>
        <time>2025-11-05T13:57:20.446Z</time>
      </trkpt>
      <trkpt lat="44.07401" lon="0.48193">
        <ele>89</ele>
        <time>2025-11-05T13:57:21.446Z</time>
      </trkpt>
      <trkpt lat="44.074" lon="0.48195">
        <ele>89</ele>
        <time>2025-11-05T13:57:22.446Z</time>
      </trkpt>
      <trkpt lat="44.074" lon="0.48196">
        <ele>89</ele>
        <time>2025-11-05T13:57:23.446Z</time>
      </trkpt>
      <trkpt lat="44.074" lon="0.48198">
        <ele>89</ele>
        <time>2025-11-05T13:57:24.446Z</time>
      </trkpt>
      <trkpt lat="44.07399" lon="0.48199">
        <ele>88</ele>
        <time>2025-11-05T13:57:25.446Z</time>
      </trkpt>
      <trkpt lat="44.07399" lon="0.48201">
        <ele>88</ele>
        <time>2025-11-05T13:57:26.446Z</time>
      </trkpt>
      <trkpt lat="44.07399" lon="0.48202">
        <ele>88</ele>
        <time>2025-11-05T13:57:27.446Z</time>
      </trkpt>
      <trkpt lat="44.07398" lon="0.48204">
        <ele>88</ele>
        <time>2025-11-05T13:57:28.446Z</time>
      </trkpt>
      <trkpt lat="44.07398" lon="0.48205">
        <ele>88</ele>
        <time>2025-11-05T13:57:29.446Z</time>
      </trkpt>
      <trkpt lat="44.07397" lon="0.48207">
        <ele>88</ele>
        <time>2025-11-05T13:57:30.446Z</time>
      </trkpt>
      <trkpt lat="44.07397" lon="0.48209">
        <ele>88</ele>
        <time>2025-11-05T13:57:31.446Z</time>
      </trkpt>
      <trkpt lat="44.07397" lon="0.48211">
        <ele>88</ele>
        <time>2025-11-05T13:57:32.446Z</time>
      </trkpt>
      <trkpt lat="44.07396" lon="0.48212">
        <ele>88</ele>
        <time>2025-11-05T13:57:33.446Z</time>
      </trkpt>
      <trkpt lat="44.07396" lon="0.48214">
        <ele>87</ele>
        <time>2025-11-05T13:57:34.446Z</time>
      </trkpt>
      <trkpt lat="44.07396" lon="0.48216">
        <ele>87</ele>
        <time>2025-11-05T13:57:35.446Z</time>
      </trkpt>
      <trkpt lat="44.07396" lon="0.48217">
        <ele>87</ele>
        <time>2025-11-05T13:57:36.446Z</time>
      </trkpt>
      <trkpt lat="44.07396" lon="0.48219">
        <ele>87</ele>
        <time>2025-11-05T13:57:37.446Z</time>
      </trkpt>
      <trkpt lat="44.07396" lon="0.48221">
        <ele>87</ele>
        <time>2025-11-05T13:57:38.446Z</time>
      </trkpt>
      <trkpt lat="44.07396" lon="0.48222">
        <ele>87</ele>
        <time>2025-11-05T13:57:39.446Z</time>
      </trkpt>
      <trkpt lat="44.07396" lon="0.48224">
        <ele>87</ele>
        <time>2025-11-05T13:57:40.446Z</time>
      </trkpt>
      <trkpt lat="44.07396" lon="0.48226">
        <ele>87</ele>
        <time>2025-11-05T13:57:41.446Z</time>
      </trkpt>
      <trkpt lat="44.07396" lon="0.48227">
        <ele>87</ele>
        <time>2025-11-05T13:57:42.446Z</time>
      </trkpt>
      <trkpt lat="44.07395" lon="0.48229">
        <ele>87</ele>
        <time>2025-11-05T13:57:43.446Z</time>
      </trkpt>
      <trkpt lat="44.07395" lon="0.4823">
        <ele>87</ele>
        <time>2025-11-05T13:57:44.446Z</time>
      </trkpt>
      <trkpt lat="44.07395" lon="0.48231">
        <ele>87</ele>
        <time>2025-11-05T13:57:45.446Z</time>
      </trkpt>
      <trkpt lat="44.07395" lon="0.48233">
        <ele>87</ele>
        <time>2025-11-05T13:57:46.446Z</time>
      </trkpt>
      <trkpt lat="44.07395" lon="0.48235">
        <ele>88</ele>
        <time>2025-11-05T13:57:47.446Z</time>
      </trkpt>
      <trkpt lat="44.07395" lon="0.48236">
        <ele>88</ele>
        <time>2025-11-05T13:57:48.446Z</time>
      </trkpt>
      <trkpt lat="44.07395" lon="0.48238">
        <ele>87</ele>
        <time>2025-11-05T13:57:49.446Z</time>
      </trkpt>
      <trkpt lat="44.07396" lon="0.48239">
        <ele>87</ele>
        <time>2025-11-05T13:57:50.446Z</time>
      </trkpt>
      <trkpt lat="44.07396" lon="0.48241">
        <ele>87</ele>
        <time>2025-11-05T13:57:51.446Z</time>
      </trkpt>
      <trkpt lat="44.07396" lon="0.48242">
        <ele>87</ele>
        <time>2025-11-05T13:57:52.446Z</time>
      </trkpt>
      <trkpt lat="44.07396" lon="0.48244">
        <ele>87</ele>
        <time>2025-11-05T13:57:53.446Z</time>
      </trkpt>
      <trkpt lat="44.07397" lon="0.48246">
        <ele>87</ele>
        <time>2025-11-05T13:57:54.446Z</time>
      </trkpt>
      <trkpt lat="44.07397" lon="0.48247">
        <ele>87</ele>
        <time>2025-11-05T13:57:55.446Z</time>
      </trkpt>
      <trkpt lat="44.07397" lon="0.48249">
        <ele>87</ele>
        <time>2025-11-05T13:57:56.446Z</time>
      </trkpt>
      <trkpt lat="44.07397" lon="0.48251">
        <ele>87</ele>
        <time>2025-11-05T13:57:57.446Z</time>
      </trkpt>
      <trkpt lat="44.07397" lon="0.48253">
        <ele>86</ele>
        <time>2025-11-05T13:57:58.446Z</time>
      </trkpt>
      <trkpt lat="44.07397" lon="0.48254">
        <ele>86</ele>
        <time>2025-11-05T13:57:59.446Z</time>
      </trkpt>
      <trkpt lat="44.07397" lon="0.48255">
        <ele>86</ele>
        <time>2025-11-05T13:58:00.446Z</time>
      </trkpt>
      <trkpt lat="44.07397" lon="0.48257">
        <ele>86</ele>
        <time>2025-11-05T13:58:01.446Z</time>
      </trkpt>
      <trkpt lat="44.07397" lon="0.48258">
        <ele>85</ele>
        <time>2025-11-05T13:58:02.446Z</time>
      </trkpt>
      <trkpt lat="44.07397" lon="0.48259">
        <ele>85</ele>
        <time>2025-11-05T13:58:03.446Z</time>
      </trkpt>
      <trkpt lat="44.07397" lon="0.48262">
        <ele>85</ele>
        <time>2025-11-05T13:58:04.446Z</time>
      </trkpt>
      <trkpt lat="44.07396" lon="0.48263">
        <ele>85</ele>
        <time>2025-11-05T13:58:05.446Z</time>
      </trkpt>
      <trkpt lat="44.07396" lon="0.48265">
        <ele>85</ele>
        <time>2025-11-05T13:58:06.446Z</time>
      </trkpt>
      <trkpt lat="44.07396" lon="0.48267">
        <ele>84</ele>
        <time>2025-11-05T13:58:07.446Z</time>
      </trkpt>
      <trkpt lat="44.07395" lon="0.48268">
        <ele>84</ele>
        <time>2025-11-05T13:58:08.446Z</time>
      </trkpt>
      <trkpt lat="44.07395" lon="0.48269">
        <ele>84</ele>
        <time>2025-11-05T13:58:09.446Z</time>
      </trkpt>
      <trkpt lat="44.07395" lon="0.48271">
        <ele>84</ele>
        <time>2025-11-05T13:58:10.446Z</time>
      </trkpt>
      <trkpt lat="44.07395" lon="0.48272">
        <ele>84</ele>
        <time>2025-11-05T13:58:11.446Z</time>
      </trkpt>
      <trkpt lat="44.07395" lon="0.48274">
        <ele>85</ele>
        <time>2025-11-05T13:58:12.446Z</time>
      </trkpt>
      <trkpt lat="44.07395" lon="0.48275">
        <ele>85</ele>
        <time>2025-11-05T13:58:13.446Z</time>
      </trkpt>
      <trkpt lat="44.07395" lon="0.48277">
        <ele>85</ele>
        <time>2025-11-05T13:58:14.446Z</time>
      </trkpt>
      <trkpt lat="44.07396" lon="0.48279">
        <ele>85</ele>
        <time>2025-11-05T13:58:15.446Z</time>
      </trkpt>
      <trkpt lat="44.07396" lon="0.4828">
        <ele>85</ele>
        <time>2025-11-05T13:58:16.446Z</time>
      </trkpt>
      <trkpt lat="44.07396" lon="0.48281">
        <ele>84</ele>
        <time>2025-11-05T13:58:17.446Z</time>
      </trkpt>
      <trkpt lat="44.07397" lon="0.48282">
        <ele>84</ele>
        <time>2025-11-05T13:58:18.446Z</time>
      </trkpt>
      <trkpt lat="44.07397" lon="0.48283">
        <ele>84</ele>
        <time>2025-11-05T13:58:19.446Z</time>
      </trkpt>
      <trkpt lat="44.07397" lon="0.48285">
        <ele>84</ele>
        <time>2025-11-05T13:58:20.446Z</time>
      </trkpt>
      <trkpt lat="44.07397" lon="0.48287">
        <ele>84</ele>
        <time>2025-11-05T13:58:21.446Z</time>
      </trkpt>
      <trkpt lat="44.07397" lon="0.48288">
        <ele>84</ele>
        <time>2025-11-05T13:58:22.446Z</time>
      </trkpt>
      <trkpt lat="44.07398" lon="0.48289">
        <ele>85</ele>
        <time>2025-11-05T13:58:23.446Z</time>
      </trkpt>
      <trkpt lat="44.07398" lon="0.4829">
        <ele>85</ele>
        <time>2025-11-05T13:58:24.446Z</time>
      </trkpt>
      <trkpt lat="44.07398" lon="0.48292">
        <ele>85</ele>
        <time>2025-11-05T13:58:25.446Z</time>
      </trkpt>
      <trkpt lat="44.07397" lon="0.48293">
        <ele>85</ele>
        <time>2025-11-05T13:58:26.446Z</time>
      </trkpt>
      <trkpt lat="44.07398" lon="0.48294">
        <ele>85</ele>
        <time>2025-11-05T13:58:27.446Z</time>
      </trkpt>
      <trkpt lat="44.07398" lon="0.48295">
        <ele>85</ele>
        <time>2025-11-05T13:58:28.446Z</time>
      </trkpt>
      <trkpt lat="44.07398" lon="0.48296">
        <ele>85</ele>
        <time>2025-11-05T13:58:29.446Z</time>
      </trkpt>
      <trkpt lat="44.07398" lon="0.48296">
        <ele>85</ele>
        <time>2025-11-05T13:58:30.446Z</time>
      </trkpt>
      <trkpt lat="44.07398" lon="0.48297">
        <ele>85</ele>
        <time>2025-11-05T13:58:31.446Z</time>
      </trkpt>
      <trkpt lat="44.07398" lon="0.48297">
        <ele>85</ele>
        <time>2025-11-05T13:58:32.446Z</time>
      </trkpt>
      <trkpt lat="44.07398" lon="0.48297">
        <ele>85</ele>
        <time>2025-11-05T13:58:33.446Z</time>
      </trkpt>
      <trkpt lat="44.07398" lon="0.48297">
        <ele>85</ele>
        <time>2025-11-05T13:58:34.446Z</time>
      </trkpt>
      <trkpt lat="44.07398" lon="0.48297">
        <ele>85</ele>
        <time>2025-11-05T13:58:35.446Z</time>
      </trkpt>
      <trkpt lat="44.07398" lon="0.48297">
        <ele>85</ele>
        <time>2025-11-05T13:58:36.446Z</time>
      </trkpt>
      <trkpt lat="44.07398" lon="0.48297">
        <ele>85</ele>
        <time>2025-11-05T13:58:37.446Z</time>
      </trkpt>
      <trkpt lat="44.07398" lon="0.48297">
        <ele>85</ele>
        <time>2025-11-05T13:58:38.446Z</time>
      </trkpt>
      <trkpt lat="44.07398" lon="0.48297">
        <ele>85</ele>
        <time>2025-11-05T13:58:39.446Z</time>
      </trkpt>
      <trkpt lat="44.07398" lon="0.48297">
        <ele>85</ele>
        <time>2025-11-05T13:58:40.446Z</time>
      </trkpt>
      <trkpt lat="44.07399" lon="0.48297">
        <ele>85</ele>
        <time>2025-11-05T13:58:41.446Z</time>
      </trkpt>
      <trkpt lat="44.07399" lon="0.48297">
        <ele>85</ele>
        <time>2025-11-05T13:58:42.446Z</time>
      </trkpt>
      <trkpt lat="44.07399" lon="0.48297">
        <ele>86</ele>
        <time>2025-11-05T13:58:43.446Z</time>
      </trkpt>
      <trkpt lat="44.074" lon="0.48297">
        <ele>86</ele>
        <time>2025-11-05T13:58:44.446Z</time>
      </trkpt>
      <trkpt lat="44.074" lon="0.48297">
        <ele>85</ele>
        <time>2025-11-05T13:58:45.446Z</time>
      </trkpt>
      <trkpt lat="44.074" lon="0.48297">
        <ele>85</ele>
        <time>2025-11-05T13:58:46.446Z</time>
      </trkpt>
      <trkpt lat="44.074" lon="0.48297">
        <ele>85</ele>
        <time>2025-11-05T13:58:47.446Z</time>
      </trkpt>
      <trkpt lat="44.074" lon="0.48297">
        <ele>85</ele>
        <time>2025-11-05T13:58:48.446Z</time>
      </trkpt>
      <trkpt lat="44.074" lon="0.48297">
        <ele>84</ele>
        <time>2025-11-05T13:58:49.446Z</time>
      </trkpt>
      <trkpt lat="44.074" lon="0.48296">
        <ele>84</ele>
        <time>2025-11-05T13:58:50.446Z</time>
      </trkpt>
      <trkpt lat="44.074" lon="0.48296">
        <ele>84</ele>
        <time>2025-11-05T13:58:51.446Z</time>
      </trkpt>
      <trkpt lat="44.074" lon="0.48296">
        <ele>84</ele>
        <time>2025-11-05T13:58:52.446Z</time>
      </trkpt>
      <trkpt lat="44.074" lon="0.48296">
        <ele>84</ele>
        <time>2025-11-05T13:58:53.446Z</time>
      </trkpt>
      <trkpt lat="44.074" lon="0.48296">
        <ele>84</ele>
        <time>2025-11-05T13:58:54.446Z</time>
      </trkpt>
      <trkpt lat="44.074" lon="0.48296">
        <ele>84</ele>
        <time>2025-11-05T13:58:55.446Z</time>
      </trkpt>
      <trkpt lat="44.074" lon="0.48297">
        <ele>84</ele>
        <time>2025-11-05T13:58:56.446Z</time>
      </trkpt>
      <trkpt lat="44.074" lon="0.48297">
        <ele>84</ele>
        <time>2025-11-05T13:58:57.446Z</time>
      </trkpt>
      <trkpt lat="44.074" lon="0.48297">
        <ele>85</ele>
        <time>2025-11-05T13:58:58.446Z</time>
      </trkpt>
      <trkpt lat="44.074" lon="0.48297">
        <ele>84</ele>
        <time>2025-11-05T13:58:59.446Z</time>
      </trkpt>
      <trkpt lat="44.074" lon="0.48296">
        <ele>84</ele>
        <time>2025-11-05T13:59:00.446Z</time>
      </trkpt>
      <trkpt lat="44.074" lon="0.48296">
        <ele>84</ele>
        <time>2025-11-05T13:59:01.446Z</time>
      </trkpt>
      <trkpt lat="44.074" lon="0.48296">
        <ele>84</ele>
        <time>2025-11-05T13:59:02.446Z</time>
      </trkpt>
      <trkpt lat="44.074" lon="0.48296">
        <ele>84</ele>
        <time>2025-11-05T13:59:03.446Z</time>
      </trkpt>
      <trkpt lat="44.074" lon="0.48296">
        <ele>85</ele>
        <time>2025-11-05T13:59:04.446Z</time>
      </trkpt>
      <trkpt lat="44.074" lon="0.48296">
        <ele>85</ele>
        <time>2025-11-05T13:59:05.446Z</time>
      </trkpt>
      <trkpt lat="44.07401" lon="0.48296">
        <ele>86</ele>
        <time>2025-11-05T13:59:06.446Z</time>
      </trkpt>
      <trkpt lat="44.07401" lon="0.48296">
        <ele>86</ele>
        <time>2025-11-05T13:59:07.446Z</time>
      </trkpt>
      <trkpt lat="44.07401" lon="0.48296">
        <ele>86</ele>
        <time>2025-11-05T13:59:08.446Z</time>
      </trkpt>
      <trkpt lat="44.07402" lon="0.48296">
        <ele>86</ele>
        <time>2025-11-05T13:59:09.446Z</time>
      </trkpt>
      <trkpt lat="44.07402" lon="0.48296">
        <ele>86</ele>
        <time>2025-11-05T13:59:10.446Z</time>
      </trkpt>
      <trkpt lat="44.07402" lon="0.48296">
        <ele>86</ele>
        <time>2025-11-05T13:59:11.446Z</time>
      </trkpt>
      <trkpt lat="44.07402" lon="0.48296">
        <ele>86</ele>
        <time>2025-11-05T13:59:12.446Z</time>
      </trkpt>
      <trkpt lat="44.07401" lon="0.48296">
        <ele>86</ele>
        <time>2025-11-05T13:59:13.446Z</time>
      </trkpt>
      <trkpt lat="44.07401" lon="0.48296">
        <ele>86</ele>
        <time>2025-11-05T13:59:14.446Z</time>
      </trkpt>
      <trkpt lat="44.07401" lon="0.48296">
        <ele>86</ele>
        <time>2025-11-05T13:59:15.446Z</time>
      </trkpt>
      <trkpt lat="44.07401" lon="0.48296">
        <ele>87</ele>
        <time>2025-11-05T13:59:16.446Z</time>
      </trkpt>
      <trkpt lat="44.07401" lon="0.48296">
        <ele>87</ele>
        <time>2025-11-05T13:59:17.446Z</time>
      </trkpt>
      <trkpt lat="44.074" lon="0.48296">
        <ele>87</ele>
        <time>2025-11-05T13:59:18.446Z</time>
      </trkpt>
      <trkpt lat="44.074" lon="0.48296">
        <ele>87</ele>
        <time>2025-11-05T13:59:19.446Z</time>
      </trkpt>
      <trkpt lat="44.074" lon="0.48295">
        <ele>87</ele>
        <time>2025-11-05T13:59:20.446Z</time>
      </trkpt>
      <trkpt lat="44.074" lon="0.48294">
        <ele>87</ele>
        <time>2025-11-05T13:59:21.446Z</time>
      </trkpt>
      <trkpt lat="44.074" lon="0.48294">
        <ele>88</ele>
        <time>2025-11-05T13:59:22.446Z</time>
      </trkpt>
      <trkpt lat="44.074" lon="0.48295">
        <ele>88</ele>
        <time>2025-11-05T13:59:23.446Z</time>
      </trkpt>
      <trkpt lat="44.074" lon="0.48295">
        <ele>88</ele>
        <time>2025-11-05T13:59:24.446Z</time>
      </trkpt>
      <trkpt lat="44.074" lon="0.48296">
        <ele>89</ele>
        <time>2025-11-05T13:59:25.446Z</time>
      </trkpt>
      <trkpt lat="44.074" lon="0.48296">
        <ele>89</ele>
        <time>2025-11-05T13:59:26.446Z</time>
      </trkpt>
      <trkpt lat="44.074" lon="0.48296">
        <ele>89</ele>
        <time>2025-11-05T13:59:27.446Z</time>
      </trkpt>
      <trkpt lat="44.074" lon="0.48296">
        <ele>88</ele>
        <time>2025-11-05T13:59:28.446Z</time>
      </trkpt>
      <trkpt lat="44.074" lon="0.48296">
        <ele>88</ele>
        <time>2025-11-05T13:59:29.446Z</time>
      </trkpt>
      <trkpt lat="44.074" lon="0.48296">
        <ele>87</ele>
        <time>2025-11-05T13:59:30.446Z</time>
      </trkpt>
      <trkpt lat="44.074" lon="0.48296">
        <ele>87</ele>
        <time>2025-11-05T13:59:31.446Z</time>
      </trkpt>
      <trkpt lat="44.074" lon="0.48296">
        <ele>87</ele>
        <time>2025-11-05T13:59:32.446Z</time>
      </trkpt>
      <trkpt lat="44.07399" lon="0.48296">
        <ele>87</ele>
        <time>2025-11-05T13:59:33.446Z</time>
      </trkpt>
      <trkpt lat="44.07399" lon="0.48296">
        <ele>87</ele>
        <time>2025-11-05T13:59:34.446Z</time>
      </trkpt>
      <trkpt lat="44.07399" lon="0.48296">
        <ele>87</ele>
        <time>2025-11-05T13:59:35.446Z</time>
      </trkpt>
      <trkpt lat="44.07399" lon="0.48296">
        <ele>87</ele>
        <time>2025-11-05T13:59:36.446Z</time>
      </trkpt>
      <trkpt lat="44.07399" lon="0.48296">
        <ele>87</ele>
        <time>2025-11-05T13:59:37.446Z</time>
      </trkpt>
      <trkpt lat="44.074" lon="0.48296">
        <ele>87</ele>
        <time>2025-11-05T13:59:38.446Z</time>
      </trkpt>
      <trkpt lat="44.07399" lon="0.48296">
        <ele>87</ele>
        <time>2025-11-05T13:59:39.446Z</time>
      </trkpt>
      <trkpt lat="44.07399" lon="0.48296">
        <ele>87</ele>
        <time>2025-11-05T13:59:40.446Z</time>
      </trkpt>
      <trkpt lat="44.07399" lon="0.48297">
        <ele>86</ele>
        <time>2025-11-05T13:59:41.446Z</time>
      </trkpt>
      <trkpt lat="44.07399" lon="0.48297">
        <ele>86</ele>
        <time>2025-11-05T13:59:42.446Z</time>
      </trkpt>
      <trkpt lat="44.07399" lon="0.48297">
        <ele>86</ele>
        <time>2025-11-05T13:59:43.446Z</time>
      </trkpt>
      <trkpt lat="44.07399" lon="0.48297">
        <ele>86</ele>
        <time>2025-11-05T13:59:44.446Z</time>
      </trkpt>
      <trkpt lat="44.07399" lon="0.48297">
        <ele>86</ele>
        <time>2025-11-05T13:59:45.446Z</time>
      </trkpt>
      <trkpt lat="44.07399" lon="0.48297">
        <ele>86</ele>
        <time>2025-11-05T13:59:46.446Z</time>
      </trkpt>
      <trkpt lat="44.07399" lon="0.48297">
        <ele>86</ele>
        <time>2025-11-05T13:59:47.446Z</time>
      </trkpt>
      <trkpt lat="44.074" lon="0.48297">
        <ele>86</ele>
        <time>2025-11-05T13:59:48.446Z</time>
      </trkpt>
      <trkpt lat="44.074" lon="0.48297">
        <ele>86</ele>
        <time>2025-11-05T13:59:49.446Z</time>
      </trkpt>
      <trkpt lat="44.074" lon="0.48297">
        <ele>87</ele>
        <time>2025-11-05T13:59:50.446Z</time>
      </trkpt>
      <trkpt lat="44.074" lon="0.48297">
        <ele>88</ele>
        <time>2025-11-05T13:59:51.446Z</time>
      </trkpt>
      <trkpt lat="44.074" lon="0.48297">
        <ele>88</ele>
        <time>2025-11-05T13:59:52.447Z</time>
      </trkpt>
      <trkpt lat="44.074" lon="0.48297">
        <ele>88</ele>
        <time>2025-11-05T13:59:53.446Z</time>
      </trkpt>
      <trkpt lat="44.074" lon="0.48297">
        <ele>88</ele>
        <time>2025-11-05T13:59:54.446Z</time>
      </trkpt>
      <trkpt lat="44.074" lon="0.48297">
        <ele>88</ele>
        <time>2025-11-05T13:59:55.446Z</time>
      </trkpt>
      <trkpt lat="44.074" lon="0.48297">
        <ele>87</ele>
        <time>2025-11-05T13:59:56.446Z</time>
      </trkpt>
      <trkpt lat="44.074" lon="0.48297">
        <ele>87</ele>
        <time>2025-11-05T13:59:57.446Z</time>
      </trkpt>
      <trkpt lat="44.074" lon="0.48297">
        <ele>87</ele>
        <time>2025-11-05T13:59:58.446Z</time>
      </trkpt>
      <trkpt lat="44.074" lon="0.48297">
        <ele>87</ele>
        <time>2025-11-05T13:59:59.446Z</time>
      </trkpt>
      <trkpt lat="44.074" lon="0.48298">
        <ele>87</ele>
        <time>2025-11-05T14:00:00.446Z</time>
      </trkpt>
      <trkpt lat="44.07401" lon="0.48298">
        <ele>87</ele>
        <time>2025-11-05T14:00:01.446Z</time>
      </trkpt>
      <trkpt lat="44.07401" lon="0.48298">
        <ele>86</ele>
        <time>2025-11-05T14:00:02.446Z</time>
      </trkpt>
      <trkpt lat="44.07401" lon="0.48298">
        <ele>86</ele>
        <time>2025-11-05T14:00:03.446Z</time>
      </trkpt>
      <trkpt lat="44.07401" lon="0.48298">
        <ele>86</ele>
        <time>2025-11-05T14:00:04.446Z</time>
      </trkpt>
      <trkpt lat="44.07401" lon="0.48298">
        <ele>85</ele>
        <time>2025-11-05T14:00:05.446Z</time>
      </trkpt>
      <trkpt lat="44.07401" lon="0.48298">
        <ele>85</ele>
        <time>2025-11-05T14:00:06.446Z</time>
      </trkpt>
      <trkpt lat="44.07401" lon="0.48298">
        <ele>85</ele>
        <time>2025-11-05T14:00:07.446Z</time>
      </trkpt>
      <trkpt lat="44.07401" lon="0.48298">
        <ele>85</ele>
        <time>2025-11-05T14:00:08.446Z</time>
      </trkpt>
      <trkpt lat="44.07401" lon="0.48297">
        <ele>86</ele>
        <time>2025-11-05T14:00:09.446Z</time>
      </trkpt>
      <trkpt lat="44.07401" lon="0.48297">
        <ele>87</ele>
        <time>2025-11-05T14:00:10.446Z</time>
      </trkpt>
      <trkpt lat="44.07401" lon="0.48298">
        <ele>88</ele>
        <time>2025-11-05T14:00:11.446Z</time>
      </trkpt>
      <trkpt lat="44.074" lon="0.48298">
        <ele>88</ele>
        <time>2025-11-05T14:00:12.446Z</time>
      </trkpt>
      <trkpt lat="44.074" lon="0.48298">
        <ele>89</ele>
        <time>2025-11-05T14:00:13.446Z</time>
      </trkpt>
      <trkpt lat="44.074" lon="0.48298">
        <ele>89</ele>
        <time>2025-11-05T14:00:14.446Z</time>
      </trkpt>
      <trkpt lat="44.074" lon="0.48297">
        <ele>88</ele>
        <time>2025-11-05T14:00:15.446Z</time>
      </trkpt>
      <trkpt lat="44.07399" lon="0.48297">
        <ele>88</ele>
        <time>2025-11-05T14:00:16.446Z</time>
      </trkpt>
      <trkpt lat="44.07399" lon="0.48296">
        <ele>88</ele>
        <time>2025-11-05T14:00:17.446Z</time>
      </trkpt>
      <trkpt lat="44.07399" lon="0.48296">
        <ele>87</ele>
        <time>2025-11-05T14:00:18.446Z</time>
      </trkpt>
      <trkpt lat="44.07399" lon="0.48296">
        <ele>87</ele>
        <time>2025-11-05T14:00:19.446Z</time>
      </trkpt>
      <trkpt lat="44.07398" lon="0.48296">
        <ele>87</ele>
        <time>2025-11-05T14:00:20.446Z</time>
      </trkpt>
      <trkpt lat="44.07398" lon="0.48297">
        <ele>86</ele>
        <time>2025-11-05T14:00:21.446Z</time>
      </trkpt>
      <trkpt lat="44.07398" lon="0.48297">
        <ele>86</ele>
        <time>2025-11-05T14:00:22.446Z</time>
      </trkpt>
      <trkpt lat="44.07398" lon="0.48297">
        <ele>86</ele>
        <time>2025-11-05T14:00:23.446Z</time>
      </trkpt>
      <trkpt lat="44.07398" lon="0.48297">
        <ele>86</ele>
        <time>2025-11-05T14:00:24.446Z</time>
      </trkpt>
      <trkpt lat="44.07398" lon="0.48297">
        <ele>85</ele>
        <time>2025-11-05T14:00:25.446Z</time>
      </trkpt>
      <trkpt lat="44.07398" lon="0.48298">
        <ele>85</ele>
        <time>2025-11-05T14:00:26.446Z</time>
      </trkpt>
      <trkpt lat="44.07399" lon="0.48298">
        <ele>85</ele>
        <time>2025-11-05T14:00:27.446Z</time>
      </trkpt>
      <trkpt lat="44.07399" lon="0.48298">
        <ele>85</ele>
        <time>2025-11-05T14:00:28.446Z</time>
      </trkpt>
      <trkpt lat="44.07399" lon="0.48299">
        <ele>85</ele>
        <time>2025-11-05T14:00:29.446Z</time>
      </trkpt>
      <trkpt lat="44.07399" lon="0.48299">
        <ele>85</ele>
        <time>2025-11-05T14:00:30.446Z</time>
      </trkpt>
      <trkpt lat="44.07399" lon="0.48299">
        <ele>86</ele>
        <time>2025-11-05T14:00:31.446Z</time>
      </trkpt>
      <trkpt lat="44.07399" lon="0.483">
        <ele>86</ele>
        <time>2025-11-05T14:00:32.446Z</time>
      </trkpt>
      <trkpt lat="44.07399" lon="0.483">
        <ele>86</ele>
        <time>2025-11-05T14:00:33.446Z</time>
      </trkpt>
      <trkpt lat="44.07399" lon="0.483">
        <ele>86</ele>
        <time>2025-11-05T14:00:34.446Z</time>
      </trkpt>
      <trkpt lat="44.07399" lon="0.483">
        <ele>86</ele>
        <time>2025-11-05T14:00:35.446Z</time>
      </trkpt>
      <trkpt lat="44.07399" lon="0.483">
        <ele>86</ele>
        <time>2025-11-05T14:00:36.446Z</time>
      </trkpt>
      <trkpt lat="44.07399" lon="0.483">
        <ele>86</ele>
        <time>2025-11-05T14:00:37.446Z</time>
      </trkpt>
      <trkpt lat="44.07399" lon="0.483">
        <ele>86</ele>
        <time>2025-11-05T14:00:38.446Z</time>
      </trkpt>
      <trkpt lat="44.07399" lon="0.483">
        <ele>86</ele>
        <time>2025-11-05T14:00:39.446Z</time>
      </trkpt>
      <trkpt lat="44.07399" lon="0.483">
        <ele>86</ele>
        <time>2025-11-05T14:00:40.446Z</time>
      </trkpt>
      <trkpt lat="44.07399" lon="0.48301">
        <ele>86</ele>
        <time>2025-11-05T14:00:41.446Z</time>
      </trkpt>
      <trkpt lat="44.07399" lon="0.48301">
        <ele>86</ele>
        <time>2025-11-05T14:00:42.446Z</time>
      </trkpt>
      <trkpt lat="44.07399" lon="0.48302">
        <ele>86</ele>
        <time>2025-11-05T14:00:43.446Z</time>
      </trkpt>
      <trkpt lat="44.07399" lon="0.48303">
        <ele>86</ele>
        <time>2025-11-05T14:00:44.446Z</time>
      </trkpt>
      <trkpt lat="44.07399" lon="0.48304">
        <ele>86</ele>
        <time>2025-11-05T14:00:45.446Z</time>
      </trkpt>
      <trkpt lat="44.07399" lon="0.48306">
        <ele>86</ele>
        <time>2025-11-05T14:00:46.446Z</time>
      </trkpt>
      <trkpt lat="44.07399" lon="0.48307">
        <ele>86</ele>
        <time>2025-11-05T14:00:47.446Z</time>
      </trkpt>
      <trkpt lat="44.07398" lon="0.48309">
        <ele>86</ele>
        <time>2025-11-05T14:00:48.446Z</time>
      </trkpt>
      <trkpt lat="44.07398" lon="0.4831">
        <ele>86</ele>
        <time>2025-11-05T14:00:49.446Z</time>
      </trkpt>
      <trkpt lat="44.07398" lon="0.48311">
        <ele>86</ele>
        <time>2025-11-05T14:00:50.446Z</time>
      </trkpt>
      <trkpt lat="44.07398" lon="0.48313">
        <ele>86</ele>
        <time>2025-11-05T14:00:51.446Z</time>
      </trkpt>
      <trkpt lat="44.07397" lon="0.48315">
        <ele>86</ele>
        <time>2025-11-05T14:00:52.446Z</time>
      </trkpt>
      <trkpt lat="44.07397" lon="0.48317">
        <ele>85</ele>
        <time>2025-11-05T14:00:53.446Z</time>
      </trkpt>
      <trkpt lat="44.07396" lon="0.48318">
        <ele>85</ele>
        <time>2025-11-05T14:00:54.446Z</time>
      </trkpt>
      <trkpt lat="44.07396" lon="0.48319">
        <ele>85</ele>
        <time>2025-11-05T14:00:55.446Z</time>
      </trkpt>
      <trkpt lat="44.07396" lon="0.48321">
        <ele>85</ele>
        <time>2025-11-05T14:00:56.446Z</time>
      </trkpt>
      <trkpt lat="44.07395" lon="0.48322">
        <ele>84</ele>
        <time>2025-11-05T14:00:57.446Z</time>
      </trkpt>
      <trkpt lat="44.07395" lon="0.48323">
        <ele>84</ele>
        <time>2025-11-05T14:00:58.446Z</time>
      </trkpt>
      <trkpt lat="44.07394" lon="0.48325">
        <ele>84</ele>
        <time>2025-11-05T14:00:59.446Z</time>
      </trkpt>
      <trkpt lat="44.07394" lon="0.48327">
        <ele>85</ele>
        <time>2025-11-05T14:01:00.446Z</time>
      </trkpt>
      <trkpt lat="44.07394" lon="0.48329">
        <ele>85</ele>
        <time>2025-11-05T14:01:01.446Z</time>
      </trkpt>
      <trkpt lat="44.07393" lon="0.4833">
        <ele>85</ele>
        <time>2025-11-05T14:01:02.446Z</time>
      </trkpt>
      <trkpt lat="44.07393" lon="0.48332">
        <ele>85</ele>
        <time>2025-11-05T14:01:03.446Z</time>
      </trkpt>
      <trkpt lat="44.07392" lon="0.48334">
        <ele>85</ele>
        <time>2025-11-05T14:01:04.446Z</time>
      </trkpt>
      <trkpt lat="44.07392" lon="0.48335">
        <ele>85</ele>
        <time>2025-11-05T14:01:05.446Z</time>
      </trkpt>
      <trkpt lat="44.07391" lon="0.48337">
        <ele>85</ele>
        <time>2025-11-05T14:01:06.446Z</time>
      </trkpt>
      <trkpt lat="44.07391" lon="0.48338">
        <ele>85</ele>
        <time>2025-11-05T14:01:07.446Z</time>
      </trkpt>
      <trkpt lat="44.07391" lon="0.4834">
        <ele>85</ele>
        <time>2025-11-05T14:01:08.446Z</time>
      </trkpt>
      <trkpt lat="44.0739" lon="0.48341">
        <ele>85</ele>
        <time>2025-11-05T14:01:09.446Z</time>
      </trkpt>
      <trkpt lat="44.0739" lon="0.48343">
        <ele>85</ele>
        <time>2025-11-05T14:01:10.446Z</time>
      </trkpt>
      <trkpt lat="44.07389" lon="0.48344">
        <ele>86</ele>
        <time>2025-11-05T14:01:11.446Z</time>
      </trkpt>
      <trkpt lat="44.07389" lon="0.48345">
        <ele>86</ele>
        <time>2025-11-05T14:01:12.446Z</time>
      </trkpt>
      <trkpt lat="44.07388" lon="0.48347">
        <ele>86</ele>
        <time>2025-11-05T14:01:13.446Z</time>
      </trkpt>
      <trkpt lat="44.07388" lon="0.48349">
        <ele>86</ele>
        <time>2025-11-05T14:01:14.446Z</time>
      </trkpt>
      <trkpt lat="44.07387" lon="0.4835">
        <ele>86</ele>
        <time>2025-11-05T14:01:15.446Z</time>
      </trkpt>
      <trkpt lat="44.07387" lon="0.48351">
        <ele>86</ele>
        <time>2025-11-05T14:01:16.446Z</time>
      </trkpt>
      <trkpt lat="44.07386" lon="0.48353">
        <ele>85</ele>
        <time>2025-11-05T14:01:17.446Z</time>
      </trkpt>
      <trkpt lat="44.07385" lon="0.48354">
        <ele>85</ele>
        <time>2025-11-05T14:01:18.446Z</time>
      </trkpt>
      <trkpt lat="44.07385" lon="0.48355">
        <ele>85</ele>
        <time>2025-11-05T14:01:19.446Z</time>
      </trkpt>
      <trkpt lat="44.07384" lon="0.48356">
        <ele>85</ele>
        <time>2025-11-05T14:01:20.446Z</time>
      </trkpt>
      <trkpt lat="44.07383" lon="0.48358">
        <ele>85</ele>
        <time>2025-11-05T14:01:21.446Z</time>
      </trkpt>
      <trkpt lat="44.07382" lon="0.48359">
        <ele>85</ele>
        <time>2025-11-05T14:01:22.446Z</time>
      </trkpt>
      <trkpt lat="44.07381" lon="0.4836">
        <ele>85</ele>
        <time>2025-11-05T14:01:23.446Z</time>
      </trkpt>
      <trkpt lat="44.07381" lon="0.48361">
        <ele>85</ele>
        <time>2025-11-05T14:01:24.446Z</time>
      </trkpt>
      <trkpt lat="44.0738" lon="0.48363">
        <ele>85</ele>
        <time>2025-11-05T14:01:25.446Z</time>
      </trkpt>
      <trkpt lat="44.07379" lon="0.48364">
        <ele>84</ele>
        <time>2025-11-05T14:01:26.446Z</time>
      </trkpt>
      <trkpt lat="44.07378" lon="0.48366">
        <ele>84</ele>
        <time>2025-11-05T14:01:27.446Z</time>
      </trkpt>
      <trkpt lat="44.07378" lon="0.48367">
        <ele>84</ele>
        <time>2025-11-05T14:01:28.446Z</time>
      </trkpt>
      <trkpt lat="44.07377" lon="0.48368">
        <ele>84</ele>
        <time>2025-11-05T14:01:29.446Z</time>
      </trkpt>
      <trkpt lat="44.07376" lon="0.4837">
        <ele>84</ele>
        <time>2025-11-05T14:01:30.446Z</time>
      </trkpt>
      <trkpt lat="44.07376" lon="0.48371">
        <ele>84</ele>
        <time>2025-11-05T14:01:31.447Z</time>
      </trkpt>
      <trkpt lat="44.07375" lon="0.48372">
        <ele>85</ele>
        <time>2025-11-05T14:01:32.446Z</time>
      </trkpt>
      <trkpt lat="44.07374" lon="0.48374">
        <ele>85</ele>
        <time>2025-11-05T14:01:33.446Z</time>
      </trkpt>
      <trkpt lat="44.07374" lon="0.48375">
        <ele>85</ele>
        <time>2025-11-05T14:01:34.446Z</time>
      </trkpt>
      <trkpt lat="44.07373" lon="0.48377">
        <ele>85</ele>
        <time>2025-11-05T14:01:35.446Z</time>
      </trkpt>
      <trkpt lat="44.07373" lon="0.48377">
        <ele>85</ele>
        <time>2025-11-05T14:01:36.446Z</time>
      </trkpt>
      <trkpt lat="44.07372" lon="0.48378">
        <ele>84</ele>
        <time>2025-11-05T14:01:37.446Z</time>
      </trkpt>
      <trkpt lat="44.07372" lon="0.48379">
        <ele>84</ele>
        <time>2025-11-05T14:01:38.446Z</time>
      </trkpt>
      <trkpt lat="44.07371" lon="0.48381">
        <ele>83</ele>
        <time>2025-11-05T14:01:39.446Z</time>
      </trkpt>
      <trkpt lat="44.07371" lon="0.48382">
        <ele>83</ele>
        <time>2025-11-05T14:01:40.446Z</time>
      </trkpt>
      <trkpt lat="44.0737" lon="0.48384">
        <ele>83</ele>
        <time>2025-11-05T14:01:41.446Z</time>
      </trkpt>
      <trkpt lat="44.07369" lon="0.48385">
        <ele>83</ele>
        <time>2025-11-05T14:01:42.446Z</time>
      </trkpt>
      <trkpt lat="44.07369" lon="0.48386">
        <ele>84</ele>
        <time>2025-11-05T14:01:43.446Z</time>
      </trkpt>
      <trkpt lat="44.07368" lon="0.48387">
        <ele>83</ele>
        <time>2025-11-05T14:01:44.446Z</time>
      </trkpt>
      <trkpt lat="44.07367" lon="0.48389">
        <ele>83</ele>
        <time>2025-11-05T14:01:45.446Z</time>
      </trkpt>
      <trkpt lat="44.07367" lon="0.4839">
        <ele>83</ele>
        <time>2025-11-05T14:01:46.446Z</time>
      </trkpt>
      <trkpt lat="44.07366" lon="0.48391">
        <ele>83</ele>
        <time>2025-11-05T14:01:47.446Z</time>
      </trkpt>
      <trkpt lat="44.07365" lon="0.48392">
        <ele>83</ele>
        <time>2025-11-05T14:01:48.446Z</time>
      </trkpt>
      <trkpt lat="44.07364" lon="0.48393">
        <ele>83</ele>
        <time>2025-11-05T14:01:49.446Z</time>
      </trkpt>
      <trkpt lat="44.07364" lon="0.48394">
        <ele>83</ele>
        <time>2025-11-05T14:01:50.446Z</time>
      </trkpt>
      <trkpt lat="44.07363" lon="0.48395">
        <ele>83</ele>
        <time>2025-11-05T14:01:51.446Z</time>
      </trkpt>
      <trkpt lat="44.07363" lon="0.48396">
        <ele>83</ele>
        <time>2025-11-05T14:01:52.446Z</time>
      </trkpt>
      <trkpt lat="44.07362" lon="0.48398">
        <ele>83</ele>
        <time>2025-11-05T14:01:53.446Z</time>
      </trkpt>
      <trkpt lat="44.07361" lon="0.48399">
        <ele>83</ele>
        <time>2025-11-05T14:01:54.446Z</time>
      </trkpt>
      <trkpt lat="44.07361" lon="0.484">
        <ele>83</ele>
        <time>2025-11-05T14:01:55.446Z</time>
      </trkpt>
      <trkpt lat="44.0736" lon="0.48402">
        <ele>83</ele>
        <time>2025-11-05T14:01:56.446Z</time>
      </trkpt>
      <trkpt lat="44.07359" lon="0.48403">
        <ele>84</ele>
        <time>2025-11-05T14:01:57.446Z</time>
      </trkpt>
      <trkpt lat="44.07359" lon="0.48404">
        <ele>84</ele>
        <time>2025-11-05T14:01:58.446Z</time>
      </trkpt>
      <trkpt lat="44.07358" lon="0.48406">
        <ele>84</ele>
        <time>2025-11-05T14:01:59.446Z</time>
      </trkpt>
      <trkpt lat="44.07357" lon="0.48406">
        <ele>84</ele>
        <time>2025-11-05T14:02:00.446Z</time>
      </trkpt>
      <trkpt lat="44.07357" lon="0.48408">
        <ele>84</ele>
        <time>2025-11-05T14:02:01.446Z</time>
      </trkpt>
      <trkpt lat="44.07357" lon="0.48409">
        <ele>84</ele>
        <time>2025-11-05T14:02:02.446Z</time>
      </trkpt>
      <trkpt lat="44.07356" lon="0.4841">
        <ele>84</ele>
        <time>2025-11-05T14:02:03.446Z</time>
      </trkpt>
      <trkpt lat="44.07356" lon="0.48411">
        <ele>84</ele>
        <time>2025-11-05T14:02:04.446Z</time>
      </trkpt>
      <trkpt lat="44.07355" lon="0.48413">
        <ele>84</ele>
        <time>2025-11-05T14:02:05.446Z</time>
      </trkpt>
      <trkpt lat="44.07354" lon="0.48414">
        <ele>84</ele>
        <time>2025-11-05T14:02:06.446Z</time>
      </trkpt>
      <trkpt lat="44.07354" lon="0.48415">
        <ele>84</ele>
        <time>2025-11-05T14:02:07.446Z</time>
      </trkpt>
      <trkpt lat="44.07353" lon="0.48417">
        <ele>84</ele>
        <time>2025-11-05T14:02:08.446Z</time>
      </trkpt>
      <trkpt lat="44.07352" lon="0.48418">
        <ele>84</ele>
        <time>2025-11-05T14:02:09.446Z</time>
      </trkpt>
      <trkpt lat="44.07351" lon="0.48419">
        <ele>84</ele>
        <time>2025-11-05T14:02:10.446Z</time>
      </trkpt>
      <trkpt lat="44.0735" lon="0.48421">
        <ele>84</ele>
        <time>2025-11-05T14:02:11.446Z</time>
      </trkpt>
      <trkpt lat="44.0735" lon="0.48422">
        <ele>85</ele>
        <time>2025-11-05T14:02:12.446Z</time>
      </trkpt>
      <trkpt lat="44.07349" lon="0.48423">
        <ele>85</ele>
        <time>2025-11-05T14:02:13.446Z</time>
      </trkpt>
      <trkpt lat="44.07348" lon="0.48424">
        <ele>85</ele>
        <time>2025-11-05T14:02:14.446Z</time>
      </trkpt>
      <trkpt lat="44.07348" lon="0.48425">
        <ele>86</ele>
        <time>2025-11-05T14:02:15.446Z</time>
      </trkpt>
      <trkpt lat="44.07347" lon="0.48426">
        <ele>86</ele>
        <time>2025-11-05T14:02:16.447Z</time>
      </trkpt>
      <trkpt lat="44.07346" lon="0.48427">
        <ele>86</ele>
        <time>2025-11-05T14:02:17.446Z</time>
      </trkpt>
      <trkpt lat="44.07346" lon="0.48428">
        <ele>86</ele>
        <time>2025-11-05T14:02:18.446Z</time>
      </trkpt>
      <trkpt lat="44.07345" lon="0.48429">
        <ele>86</ele>
        <time>2025-11-05T14:02:19.446Z</time>
      </trkpt>
      <trkpt lat="44.07345" lon="0.4843">
        <ele>86</ele>
        <time>2025-11-05T14:02:20.446Z</time>
      </trkpt>
      <trkpt lat="44.07344" lon="0.48431">
        <ele>86</ele>
        <time>2025-11-05T14:02:21.446Z</time>
      </trkpt>
      <trkpt lat="44.07343" lon="0.48432">
        <ele>86</ele>
        <time>2025-11-05T14:02:22.446Z</time>
      </trkpt>
      <trkpt lat="44.07342" lon="0.48434">
        <ele>86</ele>
        <time>2025-11-05T14:02:23.446Z</time>
      </trkpt>
      <trkpt lat="44.07342" lon="0.48435">
        <ele>86</ele>
        <time>2025-11-05T14:02:24.446Z</time>
      </trkpt>
      <trkpt lat="44.07341" lon="0.48436">
        <ele>86</ele>
        <time>2025-11-05T14:02:25.446Z</time>
      </trkpt>
      <trkpt lat="44.0734" lon="0.48437">
        <ele>86</ele>
        <time>2025-11-05T14:02:26.446Z</time>
      </trkpt>
      <trkpt lat="44.07339" lon="0.48438">
        <ele>86</ele>
        <time>2025-11-05T14:02:27.446Z</time>
      </trkpt>
      <trkpt lat="44.07339" lon="0.4844">
        <ele>86</ele>
        <time>2025-11-05T14:02:28.446Z</time>
      </trkpt>
      <trkpt lat="44.07338" lon="0.48441">
        <ele>86</ele>
        <time>2025-11-05T14:02:29.446Z</time>
      </trkpt>
      <trkpt lat="44.07338" lon="0.48442">
        <ele>86</ele>
        <time>2025-11-05T14:02:30.446Z</time>
      </trkpt>
      <trkpt lat="44.07337" lon="0.48443">
        <ele>87</ele>
        <time>2025-11-05T14:02:31.446Z</time>
      </trkpt>
      <trkpt lat="44.07336" lon="0.48445">
        <ele>87</ele>
        <time>2025-11-05T14:02:32.446Z</time>
      </trkpt>
      <trkpt lat="44.07335" lon="0.48446">
        <ele>88</ele>
        <time>2025-11-05T14:02:33.446Z</time>
      </trkpt>
      <trkpt lat="44.07335" lon="0.48448">
        <ele>88</ele>
        <time>2025-11-05T14:02:34.446Z</time>
      </trkpt>
      <trkpt lat="44.07334" lon="0.48449">
        <ele>88</ele>
        <time>2025-11-05T14:02:35.446Z</time>
      </trkpt>
      <trkpt lat="44.07333" lon="0.4845">
        <ele>89</ele>
        <time>2025-11-05T14:02:36.446Z</time>
      </trkpt>
      <trkpt lat="44.07333" lon="0.48451">
        <ele>89</ele>
        <time>2025-11-05T14:02:37.446Z</time>
      </trkpt>
      <trkpt lat="44.07332" lon="0.48453">
        <ele>89</ele>
        <time>2025-11-05T14:02:38.446Z</time>
      </trkpt>
      <trkpt lat="44.07331" lon="0.48454">
        <ele>88</ele>
        <time>2025-11-05T14:02:39.446Z</time>
      </trkpt>
      <trkpt lat="44.0733" lon="0.48455">
        <ele>88</ele>
        <time>2025-11-05T14:02:40.446Z</time>
      </trkpt>
      <trkpt lat="44.07329" lon="0.48457">
        <ele>88</ele>
        <time>2025-11-05T14:02:41.446Z</time>
      </trkpt>
      <trkpt lat="44.07329" lon="0.48458">
        <ele>88</ele>
        <time>2025-11-05T14:02:42.446Z</time>
      </trkpt>
      <trkpt lat="44.07328" lon="0.48459">
        <ele>88</ele>
        <time>2025-11-05T14:02:43.446Z</time>
      </trkpt>
      <trkpt lat="44.07327" lon="0.4846">
        <ele>87</ele>
        <time>2025-11-05T14:02:44.446Z</time>
      </trkpt>
      <trkpt lat="44.07327" lon="0.48461">
        <ele>87</ele>
        <time>2025-11-05T14:02:45.446Z</time>
      </trkpt>
      <trkpt lat="44.07326" lon="0.48463">
        <ele>87</ele>
        <time>2025-11-05T14:02:46.446Z</time>
      </trkpt>
      <trkpt lat="44.07325" lon="0.48464">
        <ele>87</ele>
        <time>2025-11-05T14:02:47.446Z</time>
      </trkpt>
      <trkpt lat="44.07324" lon="0.48465">
        <ele>87</ele>
        <time>2025-11-05T14:02:48.446Z</time>
      </trkpt>
      <trkpt lat="44.07324" lon="0.48466">
        <ele>86</ele>
        <time>2025-11-05T14:02:49.446Z</time>
      </trkpt>
      <trkpt lat="44.07324" lon="0.48467">
        <ele>86</ele>
        <time>2025-11-05T14:02:50.446Z</time>
      </trkpt>
      <trkpt lat="44.07323" lon="0.48469">
        <ele>86</ele>
        <time>2025-11-05T14:02:51.446Z</time>
      </trkpt>
      <trkpt lat="44.07322" lon="0.4847">
        <ele>86</ele>
        <time>2025-11-05T14:02:52.446Z</time>
      </trkpt>
      <trkpt lat="44.07321" lon="0.48471">
        <ele>86</ele>
        <time>2025-11-05T14:02:53.446Z</time>
      </trkpt>
      <trkpt lat="44.07321" lon="0.48472">
        <ele>86</ele>
        <time>2025-11-05T14:02:54.446Z</time>
      </trkpt>
      <trkpt lat="44.0732" lon="0.48473">
        <ele>85</ele>
        <time>2025-11-05T14:02:55.446Z</time>
      </trkpt>
      <trkpt lat="44.0732" lon="0.48475">
        <ele>85</ele>
        <time>2025-11-05T14:02:56.446Z</time>
      </trkpt>
      <trkpt lat="44.07319" lon="0.48476">
        <ele>85</ele>
        <time>2025-11-05T14:02:57.446Z</time>
      </trkpt>
      <trkpt lat="44.07318" lon="0.48478">
        <ele>85</ele>
        <time>2025-11-05T14:02:58.446Z</time>
      </trkpt>
      <trkpt lat="44.07317" lon="0.48479">
        <ele>84</ele>
        <time>2025-11-05T14:02:59.446Z</time>
      </trkpt>
      <trkpt lat="44.07316" lon="0.4848">
        <ele>84</ele>
        <time>2025-11-05T14:03:00.446Z</time>
      </trkpt>
      <trkpt lat="44.07316" lon="0.48481">
        <ele>84</ele>
        <time>2025-11-05T14:03:01.446Z</time>
      </trkpt>
      <trkpt lat="44.07315" lon="0.48482">
        <ele>84</ele>
        <time>2025-11-05T14:03:02.446Z</time>
      </trkpt>
      <trkpt lat="44.07314" lon="0.48483">
        <ele>84</ele>
        <time>2025-11-05T14:03:03.446Z</time>
      </trkpt>
      <trkpt lat="44.07313" lon="0.48485">
        <ele>84</ele>
        <time>2025-11-05T14:03:04.446Z</time>
      </trkpt>
      <trkpt lat="44.07312" lon="0.48486">
        <ele>84</ele>
        <time>2025-11-05T14:03:05.446Z</time>
      </trkpt>
      <trkpt lat="44.07311" lon="0.48487">
        <ele>84</ele>
        <time>2025-11-05T14:03:06.446Z</time>
      </trkpt>
      <trkpt lat="44.07311" lon="0.48488">
        <ele>84</ele>
        <time>2025-11-05T14:03:07.446Z</time>
      </trkpt>
      <trkpt lat="44.0731" lon="0.4849">
        <ele>84</ele>
        <time>2025-11-05T14:03:08.446Z</time>
      </trkpt>
      <trkpt lat="44.0731" lon="0.48491">
        <ele>84</ele>
        <time>2025-11-05T14:03:09.446Z</time>
      </trkpt>
      <trkpt lat="44.07309" lon="0.48493">
        <ele>84</ele>
        <time>2025-11-05T14:03:10.446Z</time>
      </trkpt>
      <trkpt lat="44.07309" lon="0.48494">
        <ele>84</ele>
        <time>2025-11-05T14:03:11.446Z</time>
      </trkpt>
      <trkpt lat="44.07308" lon="0.48496">
        <ele>84</ele>
        <time>2025-11-05T14:03:12.446Z</time>
      </trkpt>
      <trkpt lat="44.07307" lon="0.48498">
        <ele>85</ele>
        <time>2025-11-05T14:03:13.446Z</time>
      </trkpt>
      <trkpt lat="44.07307" lon="0.48499">
        <ele>85</ele>
        <time>2025-11-05T14:03:14.446Z</time>
      </trkpt>
      <trkpt lat="44.07306" lon="0.48501">
        <ele>85</ele>
        <time>2025-11-05T14:03:15.446Z</time>
      </trkpt>
      <trkpt lat="44.07306" lon="0.48503">
        <ele>85</ele>
        <time>2025-11-05T14:03:16.446Z</time>
      </trkpt>
      <trkpt lat="44.07306" lon="0.48504">
        <ele>84</ele>
        <time>2025-11-05T14:03:17.446Z</time>
      </trkpt>
      <trkpt lat="44.07306" lon="0.48506">
        <ele>85</ele>
        <time>2025-11-05T14:03:18.446Z</time>
      </trkpt>
      <trkpt lat="44.07306" lon="0.48507">
        <ele>85</ele>
        <time>2025-11-05T14:03:19.446Z</time>
      </trkpt>
      <trkpt lat="44.07305" lon="0.48509">
        <ele>85</ele>
        <time>2025-11-05T14:03:20.446Z</time>
      </trkpt>
      <trkpt lat="44.07305" lon="0.48511">
        <ele>85</ele>
        <time>2025-11-05T14:03:21.446Z</time>
      </trkpt>
      <trkpt lat="44.07305" lon="0.48513">
        <ele>84</ele>
        <time>2025-11-05T14:03:22.446Z</time>
      </trkpt>
      <trkpt lat="44.07304" lon="0.48515">
        <ele>84</ele>
        <time>2025-11-05T14:03:23.446Z</time>
      </trkpt>
      <trkpt lat="44.07304" lon="0.48516">
        <ele>84</ele>
        <time>2025-11-05T14:03:24.446Z</time>
      </trkpt>
      <trkpt lat="44.07304" lon="0.48518">
        <ele>84</ele>
        <time>2025-11-05T14:03:25.446Z</time>
      </trkpt>
      <trkpt lat="44.07304" lon="0.48519">
        <ele>84</ele>
        <time>2025-11-05T14:03:26.446Z</time>
      </trkpt>
      <trkpt lat="44.07304" lon="0.48521">
        <ele>84</ele>
        <time>2025-11-05T14:03:27.446Z</time>
      </trkpt>
      <trkpt lat="44.07304" lon="0.48523">
        <ele>84</ele>
        <time>2025-11-05T14:03:28.446Z</time>
      </trkpt>
      <trkpt lat="44.07304" lon="0.48524">
        <ele>84</ele>
        <time>2025-11-05T14:03:29.446Z</time>
      </trkpt>
      <trkpt lat="44.07303" lon="0.48526">
        <ele>84</ele>
        <time>2025-11-05T14:03:30.446Z</time>
      </trkpt>
      <trkpt lat="44.07303" lon="0.48528">
        <ele>84</ele>
        <time>2025-11-05T14:03:31.446Z</time>
      </trkpt>
      <trkpt lat="44.07303" lon="0.4853">
        <ele>84</ele>
        <time>2025-11-05T14:03:32.446Z</time>
      </trkpt>
      <trkpt lat="44.07303" lon="0.48531">
        <ele>85</ele>
        <time>2025-11-05T14:03:33.446Z</time>
      </trkpt>
      <trkpt lat="44.07302" lon="0.48533">
        <ele>85</ele>
        <time>2025-11-05T14:03:34.446Z</time>
      </trkpt>
      <trkpt lat="44.07302" lon="0.48534">
        <ele>85</ele>
        <time>2025-11-05T14:03:35.446Z</time>
      </trkpt>
      <trkpt lat="44.07302" lon="0.48535">
        <ele>85</ele>
        <time>2025-11-05T14:03:36.446Z</time>
      </trkpt>
      <trkpt lat="44.07301" lon="0.48537">
        <ele>85</ele>
        <time>2025-11-05T14:03:37.446Z</time>
      </trkpt>
      <trkpt lat="44.07301" lon="0.48538">
        <ele>85</ele>
        <time>2025-11-05T14:03:38.446Z</time>
      </trkpt>
      <trkpt lat="44.07301" lon="0.48539">
        <ele>85</ele>
        <time>2025-11-05T14:03:39.446Z</time>
      </trkpt>
      <trkpt lat="44.073" lon="0.48541">
        <ele>85</ele>
        <time>2025-11-05T14:03:40.446Z</time>
      </trkpt>
      <trkpt lat="44.07299" lon="0.48543">
        <ele>85</ele>
        <time>2025-11-05T14:03:41.446Z</time>
      </trkpt>
      <trkpt lat="44.07298" lon="0.48544">
        <ele>85</ele>
        <time>2025-11-05T14:03:42.446Z</time>
      </trkpt>
      <trkpt lat="44.07297" lon="0.48545">
        <ele>85</ele>
        <time>2025-11-05T14:03:43.446Z</time>
      </trkpt>
      <trkpt lat="44.07296" lon="0.48546">
        <ele>85</ele>
        <time>2025-11-05T14:03:44.446Z</time>
      </trkpt>
      <trkpt lat="44.07296" lon="0.48548">
        <ele>86</ele>
        <time>2025-11-05T14:03:45.446Z</time>
      </trkpt>
      <trkpt lat="44.07295" lon="0.48549">
        <ele>86</ele>
        <time>2025-11-05T14:03:46.446Z</time>
      </trkpt>
      <trkpt lat="44.07295" lon="0.4855">
        <ele>86</ele>
        <time>2025-11-05T14:03:47.446Z</time>
      </trkpt>
      <trkpt lat="44.07294" lon="0.48551">
        <ele>86</ele>
        <time>2025-11-05T14:03:48.446Z</time>
      </trkpt>
      <trkpt lat="44.07294" lon="0.48551">
        <ele>86</ele>
        <time>2025-11-05T14:03:49.446Z</time>
      </trkpt>
      <trkpt lat="44.07294" lon="0.48552">
        <ele>86</ele>
        <time>2025-11-05T14:03:50.446Z</time>
      </trkpt>
      <trkpt lat="44.07294" lon="0.48552">
        <ele>86</ele>
        <time>2025-11-05T14:03:51.446Z</time>
      </trkpt>
      <trkpt lat="44.07294" lon="0.48552">
        <ele>86</ele>
        <time>2025-11-05T14:03:52.446Z</time>
      </trkpt>
      <trkpt lat="44.07294" lon="0.48552">
        <ele>86</ele>
        <time>2025-11-05T14:03:53.446Z</time>
      </trkpt>
      <trkpt lat="44.07294" lon="0.48552">
        <ele>86</ele>
        <time>2025-11-05T14:03:54.446Z</time>
      </trkpt>
      <trkpt lat="44.07294" lon="0.48552">
        <ele>86</ele>
        <time>2025-11-05T14:03:55.446Z</time>
      </trkpt>
      <trkpt lat="44.07294" lon="0.48552">
        <ele>86</ele>
        <time>2025-11-05T14:03:56.446Z</time>
      </trkpt>
      <trkpt lat="44.07294" lon="0.48553">
        <ele>86</ele>
        <time>2025-11-05T14:03:57.446Z</time>
      </trkpt>
      <trkpt lat="44.07293" lon="0.48554">
        <ele>86</ele>
        <time>2025-11-05T14:03:58.446Z</time>
      </trkpt>
      <trkpt lat="44.07293" lon="0.48555">
        <ele>86</ele>
        <time>2025-11-05T14:03:59.446Z</time>
      </trkpt>
      <trkpt lat="44.07293" lon="0.48557">
        <ele>86</ele>
        <time>2025-11-05T14:04:00.446Z</time>
      </trkpt>
      <trkpt lat="44.07292" lon="0.48559">
        <ele>86</ele>
        <time>2025-11-05T14:04:01.446Z</time>
      </trkpt>
      <trkpt lat="44.07292" lon="0.4856">
        <ele>86</ele>
        <time>2025-11-05T14:04:02.446Z</time>
      </trkpt>
      <trkpt lat="44.07292" lon="0.48562">
        <ele>86</ele>
        <time>2025-11-05T14:04:03.446Z</time>
      </trkpt>
      <trkpt lat="44.07292" lon="0.48563">
        <ele>86</ele>
        <time>2025-11-05T14:04:04.446Z</time>
      </trkpt>
      <trkpt lat="44.07291" lon="0.48565">
        <ele>86</ele>
        <time>2025-11-05T14:04:05.446Z</time>
      </trkpt>
      <trkpt lat="44.07291" lon="0.48566">
        <ele>86</ele>
        <time>2025-11-05T14:04:06.446Z</time>
      </trkpt>
      <trkpt lat="44.0729" lon="0.48567">
        <ele>86</ele>
        <time>2025-11-05T14:04:07.446Z</time>
      </trkpt>
      <trkpt lat="44.07289" lon="0.48569">
        <ele>85</ele>
        <time>2025-11-05T14:04:08.446Z</time>
      </trkpt>
      <trkpt lat="44.07289" lon="0.4857">
        <ele>85</ele>
        <time>2025-11-05T14:04:09.446Z</time>
      </trkpt>
      <trkpt lat="44.07288" lon="0.48572">
        <ele>85</ele>
        <time>2025-11-05T14:04:10.446Z</time>
      </trkpt>
      <trkpt lat="44.07287" lon="0.48573">
        <ele>84</ele>
        <time>2025-11-05T14:04:11.446Z</time>
      </trkpt>
      <trkpt lat="44.07286" lon="0.48574">
        <ele>84</ele>
        <time>2025-11-05T14:04:12.446Z</time>
      </trkpt>
      <trkpt lat="44.07285" lon="0.48576">
        <ele>84</ele>
        <time>2025-11-05T14:04:13.446Z</time>
      </trkpt>
      <trkpt lat="44.07285" lon="0.48577">
        <ele>84</ele>
        <time>2025-11-05T14:04:14.446Z</time>
      </trkpt>
      <trkpt lat="44.07284" lon="0.48578">
        <ele>84</ele>
        <time>2025-11-05T14:04:15.446Z</time>
      </trkpt>
      <trkpt lat="44.07283" lon="0.4858">
        <ele>84</ele>
        <time>2025-11-05T14:04:16.446Z</time>
      </trkpt>
      <trkpt lat="44.07282" lon="0.48581">
        <ele>84</ele>
        <time>2025-11-05T14:04:17.446Z</time>
      </trkpt>
      <trkpt lat="44.07281" lon="0.48583">
        <ele>84</ele>
        <time>2025-11-05T14:04:18.446Z</time>
      </trkpt>
      <trkpt lat="44.0728" lon="0.48585">
        <ele>84</ele>
        <time>2025-11-05T14:04:19.446Z</time>
      </trkpt>
      <trkpt lat="44.07279" lon="0.48586">
        <ele>85</ele>
        <time>2025-11-05T14:04:20.446Z</time>
      </trkpt>
      <trkpt lat="44.07279" lon="0.48588">
        <ele>85</ele>
        <time>2025-11-05T14:04:21.446Z</time>
      </trkpt>
      <trkpt lat="44.07278" lon="0.48589">
        <ele>85</ele>
        <time>2025-11-05T14:04:22.446Z</time>
      </trkpt>
      <trkpt lat="44.07277" lon="0.4859">
        <ele>85</ele>
        <time>2025-11-05T14:04:23.446Z</time>
      </trkpt>
      <trkpt lat="44.07276" lon="0.48591">
        <ele>85</ele>
        <time>2025-11-05T14:04:24.446Z</time>
      </trkpt>
      <trkpt lat="44.07276" lon="0.48592">
        <ele>84</ele>
        <time>2025-11-05T14:04:25.447Z</time>
      </trkpt>
      <trkpt lat="44.07275" lon="0.48594">
        <ele>84</ele>
        <time>2025-11-05T14:04:26.446Z</time>
      </trkpt>
      <trkpt lat="44.07274" lon="0.48595">
        <ele>84</ele>
        <time>2025-11-05T14:04:27.446Z</time>
      </trkpt>
      <trkpt lat="44.07273" lon="0.48597">
        <ele>84</ele>
        <time>2025-11-05T14:04:28.446Z</time>
      </trkpt>
      <trkpt lat="44.07272" lon="0.48598">
        <ele>83</ele>
        <time>2025-11-05T14:04:29.446Z</time>
      </trkpt>
      <trkpt lat="44.07271" lon="0.486">
        <ele>83</ele>
        <time>2025-11-05T14:04:30.446Z</time>
      </trkpt>
      <trkpt lat="44.0727" lon="0.48601">
        <ele>83</ele>
        <time>2025-11-05T14:04:31.446Z</time>
      </trkpt>
      <trkpt lat="44.0727" lon="0.48602">
        <ele>83</ele>
        <time>2025-11-05T14:04:32.446Z</time>
      </trkpt>
      <trkpt lat="44.07269" lon="0.48603">
        <ele>83</ele>
        <time>2025-11-05T14:04:33.446Z</time>
      </trkpt>
      <trkpt lat="44.07268" lon="0.48604">
        <ele>83</ele>
        <time>2025-11-05T14:04:34.446Z</time>
      </trkpt>
      <trkpt lat="44.07267" lon="0.48606">
        <ele>83</ele>
        <time>2025-11-05T14:04:35.446Z</time>
      </trkpt>
      <trkpt lat="44.07266" lon="0.48607">
        <ele>83</ele>
        <time>2025-11-05T14:04:36.446Z</time>
      </trkpt>
      <trkpt lat="44.07265" lon="0.48608">
        <ele>83</ele>
        <time>2025-11-05T14:04:37.446Z</time>
      </trkpt>
      <trkpt lat="44.07265" lon="0.48609">
        <ele>82</ele>
        <time>2025-11-05T14:04:38.446Z</time>
      </trkpt>
      <trkpt lat="44.07264" lon="0.4861">
        <ele>82</ele>
        <time>2025-11-05T14:04:39.446Z</time>
      </trkpt>
      <trkpt lat="44.07263" lon="0.48611">
        <ele>82</ele>
        <time>2025-11-05T14:04:40.446Z</time>
      </trkpt>
      <trkpt lat="44.07262" lon="0.48613">
        <ele>82</ele>
        <time>2025-11-05T14:04:41.446Z</time>
      </trkpt>
      <trkpt lat="44.07262" lon="0.48614">
        <ele>82</ele>
        <time>2025-11-05T14:04:42.446Z</time>
      </trkpt>
      <trkpt lat="44.07261" lon="0.48616">
        <ele>82</ele>
        <time>2025-11-05T14:04:43.446Z</time>
      </trkpt>
      <trkpt lat="44.0726" lon="0.48618">
        <ele>82</ele>
        <time>2025-11-05T14:04:44.446Z</time>
      </trkpt>
      <trkpt lat="44.07259" lon="0.48619">
        <ele>82</ele>
        <time>2025-11-05T14:04:45.447Z</time>
      </trkpt>
      <trkpt lat="44.07258" lon="0.4862">
        <ele>82</ele>
        <time>2025-11-05T14:04:46.446Z</time>
      </trkpt>
      <trkpt lat="44.07257" lon="0.48621">
        <ele>82</ele>
        <time>2025-11-05T14:04:47.446Z</time>
      </trkpt>
      <trkpt lat="44.07256" lon="0.48622">
        <ele>82</ele>
        <time>2025-11-05T14:04:48.446Z</time>
      </trkpt>
      <trkpt lat="44.07256" lon="0.48624">
        <ele>83</ele>
        <time>2025-11-05T14:04:49.446Z</time>
      </trkpt>
      <trkpt lat="44.07255" lon="0.48625">
        <ele>83</ele>
        <time>2025-11-05T14:04:50.446Z</time>
      </trkpt>
      <trkpt lat="44.07254" lon="0.48626">
        <ele>84</ele>
        <time>2025-11-05T14:04:51.446Z</time>
      </trkpt>
      <trkpt lat="44.07253" lon="0.48627">
        <ele>84</ele>
        <time>2025-11-05T14:04:52.446Z</time>
      </trkpt>
      <trkpt lat="44.07252" lon="0.48628">
        <ele>84</ele>
        <time>2025-11-05T14:04:53.446Z</time>
      </trkpt>
      <trkpt lat="44.07251" lon="0.48629">
        <ele>84</ele>
        <time>2025-11-05T14:04:54.446Z</time>
      </trkpt>
      <trkpt lat="44.0725" lon="0.4863">
        <ele>84</ele>
        <time>2025-11-05T14:04:55.446Z</time>
      </trkpt>
      <trkpt lat="44.0725" lon="0.48632">
        <ele>84</ele>
        <time>2025-11-05T14:04:56.446Z</time>
      </trkpt>
      <trkpt lat="44.07249" lon="0.48632">
        <ele>85</ele>
        <time>2025-11-05T14:04:57.446Z</time>
      </trkpt>
      <trkpt lat="44.07248" lon="0.48633">
        <ele>85</ele>
        <time>2025-11-05T14:04:58.446Z</time>
      </trkpt>
      <trkpt lat="44.07247" lon="0.48635">
        <ele>85</ele>
        <time>2025-11-05T14:04:59.446Z</time>
      </trkpt>
      <trkpt lat="44.07245" lon="0.48636">
        <ele>85</ele>
        <time>2025-11-05T14:05:00.446Z</time>
      </trkpt>
      <trkpt lat="44.07244" lon="0.48637">
        <ele>86</ele>
        <time>2025-11-05T14:05:01.446Z</time>
      </trkpt>
      <trkpt lat="44.07243" lon="0.48638">
        <ele>86</ele>
        <time>2025-11-05T14:05:02.447Z</time>
      </trkpt>
      <trkpt lat="44.07242" lon="0.48638">
        <ele>86</ele>
        <time>2025-11-05T14:05:03.446Z</time>
      </trkpt>
      <trkpt lat="44.07241" lon="0.48639">
        <ele>86</ele>
        <time>2025-11-05T14:05:04.446Z</time>
      </trkpt>
      <trkpt lat="44.0724" lon="0.48639">
        <ele>86</ele>
        <time>2025-11-05T14:05:05.446Z</time>
      </trkpt>
      <trkpt lat="44.07239" lon="0.48639">
        <ele>86</ele>
        <time>2025-11-05T14:05:06.446Z</time>
      </trkpt>
      <trkpt lat="44.07237" lon="0.4864">
        <ele>86</ele>
        <time>2025-11-05T14:05:07.446Z</time>
      </trkpt>
      <trkpt lat="44.07236" lon="0.4864">
        <ele>86</ele>
        <time>2025-11-05T14:05:08.446Z</time>
      </trkpt>
      <trkpt lat="44.07235" lon="0.48641">
        <ele>86</ele>
        <time>2025-11-05T14:05:09.446Z</time>
      </trkpt>
      <trkpt lat="44.07234" lon="0.48641">
        <ele>86</ele>
        <time>2025-11-05T14:05:10.446Z</time>
      </trkpt>
      <trkpt lat="44.07233" lon="0.48641">
        <ele>86</ele>
        <time>2025-11-05T14:05:11.446Z</time>
      </trkpt>
      <trkpt lat="44.07232" lon="0.48641">
        <ele>86</ele>
        <time>2025-11-05T14:05:12.446Z</time>
      </trkpt>
      <trkpt lat="44.07231" lon="0.48641">
        <ele>86</ele>
        <time>2025-11-05T14:05:13.446Z</time>
      </trkpt>
      <trkpt lat="44.07229" lon="0.48641">
        <ele>86</ele>
        <time>2025-11-05T14:05:14.446Z</time>
      </trkpt>
      <trkpt lat="44.07228" lon="0.48641">
        <ele>86</ele>
        <time>2025-11-05T14:05:15.446Z</time>
      </trkpt>
      <trkpt lat="44.07227" lon="0.48641">
        <ele>87</ele>
        <time>2025-11-05T14:05:16.446Z</time>
      </trkpt>
      <trkpt lat="44.07226" lon="0.4864">
        <ele>87</ele>
        <time>2025-11-05T14:05:17.446Z</time>
      </trkpt>
      <trkpt lat="44.07226" lon="0.4864">
        <ele>87</ele>
        <time>2025-11-05T14:05:18.446Z</time>
      </trkpt>
      <trkpt lat="44.07225" lon="0.48639">
        <ele>88</ele>
        <time>2025-11-05T14:05:19.446Z</time>
      </trkpt>
      <trkpt lat="44.07224" lon="0.48639">
        <ele>88</ele>
        <time>2025-11-05T14:05:20.446Z</time>
      </trkpt>
      <trkpt lat="44.07224" lon="0.48639">
        <ele>88</ele>
        <time>2025-11-05T14:05:21.446Z</time>
      </trkpt>
      <trkpt lat="44.07224" lon="0.48639">
        <ele>88</ele>
        <time>2025-11-05T14:05:22.446Z</time>
      </trkpt>
      <trkpt lat="44.07224" lon="0.48639">
        <ele>88</ele>
        <time>2025-11-05T14:05:23.446Z</time>
      </trkpt>
      <trkpt lat="44.07224" lon="0.48639">
        <ele>88</ele>
        <time>2025-11-05T14:05:24.446Z</time>
      </trkpt>
      <trkpt lat="44.07224" lon="0.48639">
        <ele>88</ele>
        <time>2025-11-05T14:05:25.446Z</time>
      </trkpt>
      <trkpt lat="44.07224" lon="0.48639">
        <ele>88</ele>
        <time>2025-11-05T14:05:26.446Z</time>
      </trkpt>
      <trkpt lat="44.07224" lon="0.48639">
        <ele>88</ele>
        <time>2025-11-05T14:05:27.446Z</time>
      </trkpt>
      <trkpt lat="44.07224" lon="0.48639">
        <ele>88</ele>
        <time>2025-11-05T14:05:28.446Z</time>
      </trkpt>
      <trkpt lat="44.07224" lon="0.48639">
        <ele>88</ele>
        <time>2025-11-05T14:05:29.446Z</time>
      </trkpt>
      <trkpt lat="44.07223" lon="0.48639">
        <ele>88</ele>
        <time>2025-11-05T14:05:30.446Z</time>
      </trkpt>
      <trkpt lat="44.07222" lon="0.48639">
        <ele>88</ele>
        <time>2025-11-05T14:05:31.446Z</time>
      </trkpt>
      <trkpt lat="44.07222" lon="0.48639">
        <ele>88</ele>
        <time>2025-11-05T14:05:32.446Z</time>
      </trkpt>
      <trkpt lat="44.07221" lon="0.48639">
        <ele>88</ele>
        <time>2025-11-05T14:05:33.446Z</time>
      </trkpt>
      <trkpt lat="44.0722" lon="0.48639">
        <ele>88</ele>
        <time>2025-11-05T14:05:34.446Z</time>
      </trkpt>
      <trkpt lat="44.07219" lon="0.48638">
        <ele>88</ele>
        <time>2025-11-05T14:05:35.446Z</time>
      </trkpt>
      <trkpt lat="44.07218" lon="0.48638">
        <ele>88</ele>
        <time>2025-11-05T14:05:36.446Z</time>
      </trkpt>
      <trkpt lat="44.07217" lon="0.48638">
        <ele>89</ele>
        <time>2025-11-05T14:05:37.446Z</time>
      </trkpt>
      <trkpt lat="44.07216" lon="0.48638">
        <ele>89</ele>
        <time>2025-11-05T14:05:38.446Z</time>
      </trkpt>
      <trkpt lat="44.07215" lon="0.48638">
        <ele>89</ele>
        <time>2025-11-05T14:05:39.446Z</time>
      </trkpt>
      <trkpt lat="44.07214" lon="0.48637">
        <ele>90</ele>
        <time>2025-11-05T14:05:40.446Z</time>
      </trkpt>
      <trkpt lat="44.07213" lon="0.48637">
        <ele>90</ele>
        <time>2025-11-05T14:05:41.446Z</time>
      </trkpt>
      <trkpt lat="44.07213" lon="0.48638">
        <ele>91</ele>
        <time>2025-11-05T14:05:42.446Z</time>
      </trkpt>
      <trkpt lat="44.07211" lon="0.48638">
        <ele>91</ele>
        <time>2025-11-05T14:05:43.446Z</time>
      </trkpt>
      <trkpt lat="44.07211" lon="0.48638">
        <ele>92</ele>
        <time>2025-11-05T14:05:44.446Z</time>
      </trkpt>
      <trkpt lat="44.0721" lon="0.48638">
        <ele>92</ele>
        <time>2025-11-05T14:05:45.446Z</time>
      </trkpt>
      <trkpt lat="44.07209" lon="0.48639">
        <ele>92</ele>
        <time>2025-11-05T14:05:46.446Z</time>
      </trkpt>
      <trkpt lat="44.07208" lon="0.4864">
        <ele>93</ele>
        <time>2025-11-05T14:05:47.446Z</time>
      </trkpt>
      <trkpt lat="44.07207" lon="0.48641">
        <ele>93</ele>
        <time>2025-11-05T14:05:48.446Z</time>
      </trkpt>
      <trkpt lat="44.07207" lon="0.48642">
        <ele>93</ele>
        <time>2025-11-05T14:05:49.446Z</time>
      </trkpt>
      <trkpt lat="44.07206" lon="0.48642">
        <ele>94</ele>
        <time>2025-11-05T14:05:50.446Z</time>
      </trkpt>
      <trkpt lat="44.07206" lon="0.48643">
        <ele>95</ele>
        <time>2025-11-05T14:05:51.446Z</time>
      </trkpt>
      <trkpt lat="44.07205" lon="0.48645">
        <ele>96</ele>
        <time>2025-11-05T14:05:52.446Z</time>
      </trkpt>
      <trkpt lat="44.07205" lon="0.48647">
        <ele>97</ele>
        <time>2025-11-05T14:05:53.446Z</time>
      </trkpt>
      <trkpt lat="44.07205" lon="0.48648">
        <ele>98</ele>
        <time>2025-11-05T14:05:54.446Z</time>
      </trkpt>
      <trkpt lat="44.07205" lon="0.48648">
        <ele>98</ele>
        <time>2025-11-05T14:05:55.446Z</time>
      </trkpt>
      <trkpt lat="44.07206" lon="0.48647">
        <ele>98</ele>
        <time>2025-11-05T14:05:56.446Z</time>
      </trkpt>
      <trkpt lat="44.07207" lon="0.48647">
        <ele>98</ele>
        <time>2025-11-05T14:05:57.446Z</time>
      </trkpt>
      <trkpt lat="44.07207" lon="0.48648">
        <ele>98</ele>
        <time>2025-11-05T14:05:58.446Z</time>
      </trkpt>
      <trkpt lat="44.07207" lon="0.48648">
        <ele>98</ele>
        <time>2025-11-05T14:05:59.446Z</time>
      </trkpt>
      <trkpt lat="44.07206" lon="0.48647">
        <ele>97</ele>
        <time>2025-11-05T14:06:00.446Z</time>
      </trkpt>
      <trkpt lat="44.07206" lon="0.48647">
        <ele>97</ele>
        <time>2025-11-05T14:06:01.446Z</time>
      </trkpt>
      <trkpt lat="44.07206" lon="0.48648">
        <ele>97</ele>
        <time>2025-11-05T14:06:02.446Z</time>
      </trkpt>
      <trkpt lat="44.07206" lon="0.48648">
        <ele>96</ele>
        <time>2025-11-05T14:06:03.446Z</time>
      </trkpt>
      <trkpt lat="44.07206" lon="0.48647">
        <ele>96</ele>
        <time>2025-11-05T14:06:04.446Z</time>
      </trkpt>
      <trkpt lat="44.07206" lon="0.48647">
        <ele>96</ele>
        <time>2025-11-05T14:06:05.446Z</time>
      </trkpt>
      <trkpt lat="44.07206" lon="0.48647">
        <ele>96</ele>
        <time>2025-11-05T14:06:06.446Z</time>
      </trkpt>
      <trkpt lat="44.07206" lon="0.48646">
        <ele>96</ele>
        <time>2025-11-05T14:06:07.446Z</time>
      </trkpt>
      <trkpt lat="44.07206" lon="0.48646">
        <ele>95</ele>
        <time>2025-11-05T14:06:08.446Z</time>
      </trkpt>
      <trkpt lat="44.07206" lon="0.48646">
        <ele>95</ele>
        <time>2025-11-05T14:06:09.446Z</time>
      </trkpt>
      <trkpt lat="44.07206" lon="0.48646">
        <ele>95</ele>
        <time>2025-11-05T14:06:10.446Z</time>
      </trkpt>
      <trkpt lat="44.07206" lon="0.48646">
        <ele>95</ele>
        <time>2025-11-05T14:06:11.446Z</time>
      </trkpt>
      <trkpt lat="44.07205" lon="0.48646">
        <ele>94</ele>
        <time>2025-11-05T14:06:12.446Z</time>
      </trkpt>
      <trkpt lat="44.07205" lon="0.48646">
        <ele>94</ele>
        <time>2025-11-05T14:06:13.446Z</time>
      </trkpt>
      <trkpt lat="44.07205" lon="0.48646">
        <ele>94</ele>
        <time>2025-11-05T14:06:14.446Z</time>
      </trkpt>
      <trkpt lat="44.07205" lon="0.48646">
        <ele>93</ele>
        <time>2025-11-05T14:06:15.446Z</time>
      </trkpt>
      <trkpt lat="44.07205" lon="0.48646">
        <ele>93</ele>
        <time>2025-11-05T14:06:16.446Z</time>
      </trkpt>
      <trkpt lat="44.07205" lon="0.48646">
        <ele>93</ele>
        <time>2025-11-05T14:06:17.446Z</time>
      </trkpt>
      <trkpt lat="44.07205" lon="0.48646">
        <ele>92</ele>
        <time>2025-11-05T14:06:18.446Z</time>
      </trkpt>
      <trkpt lat="44.07205" lon="0.48646">
        <ele>92</ele>
        <time>2025-11-05T14:06:19.446Z</time>
      </trkpt>
      <trkpt lat="44.07205" lon="0.48645">
        <ele>92</ele>
        <time>2025-11-05T14:06:20.446Z</time>
      </trkpt>
      <trkpt lat="44.07205" lon="0.48646">
        <ele>91</ele>
        <time>2025-11-05T14:06:21.446Z</time>
      </trkpt>
      <trkpt lat="44.07205" lon="0.48646">
        <ele>91</ele>
        <time>2025-11-05T14:06:22.446Z</time>
      </trkpt>
      <trkpt lat="44.07205" lon="0.48646">
        <ele>91</ele>
        <time>2025-11-05T14:06:23.446Z</time>
      </trkpt>
      <trkpt lat="44.07205" lon="0.48646">
        <ele>90</ele>
        <time>2025-11-05T14:06:24.446Z</time>
      </trkpt>
      <trkpt lat="44.07205" lon="0.48646">
        <ele>90</ele>
        <time>2025-11-05T14:06:25.446Z</time>
      </trkpt>
      <trkpt lat="44.07205" lon="0.48646">
        <ele>89</ele>
        <time>2025-11-05T14:06:26.446Z</time>
      </trkpt>
      <trkpt lat="44.07205" lon="0.48646">
        <ele>89</ele>
        <time>2025-11-05T14:06:27.446Z</time>
      </trkpt>
      <trkpt lat="44.07205" lon="0.48646">
        <ele>88</ele>
        <time>2025-11-05T14:06:28.446Z</time>
      </trkpt>
      <trkpt lat="44.07206" lon="0.48646">
        <ele>88</ele>
        <time>2025-11-05T14:06:29.446Z</time>
      </trkpt>
      <trkpt lat="44.07206" lon="0.48647">
        <ele>88</ele>
        <time>2025-11-05T14:06:30.446Z</time>
      </trkpt>
      <trkpt lat="44.07206" lon="0.48647">
        <ele>89</ele>
        <time>2025-11-05T14:06:31.446Z</time>
      </trkpt>
      <trkpt lat="44.07206" lon="0.48647">
        <ele>89</ele>
        <time>2025-11-05T14:06:32.446Z</time>
      </trkpt>
      <trkpt lat="44.07206" lon="0.48647">
        <ele>90</ele>
        <time>2025-11-05T14:06:33.446Z</time>
      </trkpt>
      <trkpt lat="44.07206" lon="0.48647">
        <ele>90</ele>
        <time>2025-11-05T14:06:34.446Z</time>
      </trkpt>
      <trkpt lat="44.07206" lon="0.48647">
        <ele>90</ele>
        <time>2025-11-05T14:06:35.446Z</time>
      </trkpt>
      <trkpt lat="44.07205" lon="0.48646">
        <ele>90</ele>
        <time>2025-11-05T14:06:36.447Z</time>
      </trkpt>
      <trkpt lat="44.07205" lon="0.48646">
        <ele>90</ele>
        <time>2025-11-05T14:06:37.446Z</time>
      </trkpt>
      <trkpt lat="44.07205" lon="0.48646">
        <ele>91</ele>
        <time>2025-11-05T14:06:38.446Z</time>
      </trkpt>
      <trkpt lat="44.07205" lon="0.48646">
        <ele>91</ele>
        <time>2025-11-05T14:06:39.446Z</time>
      </trkpt>
      <trkpt lat="44.07205" lon="0.48646">
        <ele>91</ele>
        <time>2025-11-05T14:06:40.446Z</time>
      </trkpt>
      <trkpt lat="44.07205" lon="0.48646">
        <ele>92</ele>
        <time>2025-11-05T14:06:41.446Z</time>
      </trkpt>
      <trkpt lat="44.07205" lon="0.48646">
        <ele>92</ele>
        <time>2025-11-05T14:06:42.446Z</time>
      </trkpt>
      <trkpt lat="44.07205" lon="0.48646">
        <ele>92</ele>
        <time>2025-11-05T14:06:43.446Z</time>
      </trkpt>
      <trkpt lat="44.07205" lon="0.48646">
        <ele>92</ele>
        <time>2025-11-05T14:06:44.446Z</time>
      </trkpt>
      <trkpt lat="44.07206" lon="0.48646">
        <ele>92</ele>
        <time>2025-11-05T14:06:45.446Z</time>
      </trkpt>
      <trkpt lat="44.07206" lon="0.48646">
        <ele>93</ele>
        <time>2025-11-05T14:06:46.446Z</time>
      </trkpt>
      <trkpt lat="44.07206" lon="0.48647">
        <ele>93</ele>
        <time>2025-11-05T14:06:47.446Z</time>
      </trkpt>
      <trkpt lat="44.07206" lon="0.48647">
        <ele>92</ele>
        <time>2025-11-05T14:06:48.446Z</time>
      </trkpt>
      <trkpt lat="44.07206" lon="0.48647">
        <ele>92</ele>
        <time>2025-11-05T14:06:49.446Z</time>
      </trkpt>
      <trkpt lat="44.07206" lon="0.48646">
        <ele>92</ele>
        <time>2025-11-05T14:06:50.446Z</time>
      </trkpt>
      <trkpt lat="44.07206" lon="0.48646">
        <ele>91</ele>
        <time>2025-11-05T14:06:51.446Z</time>
      </trkpt>
      <trkpt lat="44.07206" lon="0.48646">
        <ele>91</ele>
        <time>2025-11-05T14:06:52.446Z</time>
      </trkpt>
      <trkpt lat="44.07206" lon="0.48646">
        <ele>91</ele>
        <time>2025-11-05T14:06:53.446Z</time>
      </trkpt>
      <trkpt lat="44.07206" lon="0.48646">
        <ele>92</ele>
        <time>2025-11-05T14:06:54.446Z</time>
      </trkpt>
      <trkpt lat="44.07207" lon="0.48646">
        <ele>92</ele>
        <time>2025-11-05T14:06:55.446Z</time>
      </trkpt>
      <trkpt lat="44.07207" lon="0.48645">
        <ele>93</ele>
        <time>2025-11-05T14:06:56.446Z</time>
      </trkpt>
      <trkpt lat="44.07207" lon="0.48645">
        <ele>93</ele>
        <time>2025-11-05T14:06:57.446Z</time>
      </trkpt>
      <trkpt lat="44.07207" lon="0.48645">
        <ele>94</ele>
        <time>2025-11-05T14:06:58.446Z</time>
      </trkpt>
      <trkpt lat="44.07207" lon="0.48645">
        <ele>94</ele>
        <time>2025-11-05T14:06:59.446Z</time>
      </trkpt>
      <trkpt lat="44.07207" lon="0.48645">
        <ele>94</ele>
        <time>2025-11-05T14:07:00.446Z</time>
      </trkpt>
      <trkpt lat="44.07207" lon="0.48644">
        <ele>94</ele>
        <time>2025-11-05T14:07:01.446Z</time>
      </trkpt>
      <trkpt lat="44.07207" lon="0.48645">
        <ele>94</ele>
        <time>2025-11-05T14:07:02.446Z</time>
      </trkpt>
      <trkpt lat="44.07206" lon="0.48645">
        <ele>94</ele>
        <time>2025-11-05T14:07:03.446Z</time>
      </trkpt>
      <trkpt lat="44.07206" lon="0.48645">
        <ele>94</ele>
        <time>2025-11-05T14:07:04.446Z</time>
      </trkpt>
      <trkpt lat="44.07207" lon="0.48645">
        <ele>95</ele>
        <time>2025-11-05T14:07:05.446Z</time>
      </trkpt>
      <trkpt lat="44.07207" lon="0.48645">
        <ele>95</ele>
        <time>2025-11-05T14:07:06.446Z</time>
      </trkpt>
      <trkpt lat="44.07207" lon="0.48645">
        <ele>94</ele>
        <time>2025-11-05T14:07:07.446Z</time>
      </trkpt>
      <trkpt lat="44.07207" lon="0.48645">
        <ele>94</ele>
        <time>2025-11-05T14:07:08.447Z</time>
      </trkpt>
      <trkpt lat="44.07207" lon="0.48645">
        <ele>94</ele>
        <time>2025-11-05T14:07:09.446Z</time>
      </trkpt>
      <trkpt lat="44.07207" lon="0.48645">
        <ele>93</ele>
        <time>2025-11-05T14:07:10.447Z</time>
      </trkpt>
      <trkpt lat="44.07207" lon="0.48645">
        <ele>93</ele>
        <time>2025-11-05T14:07:11.446Z</time>
      </trkpt>
      <trkpt lat="44.07206" lon="0.48645">
        <ele>92</ele>
        <time>2025-11-05T14:07:12.446Z</time>
      </trkpt>
      <trkpt lat="44.07207" lon="0.48646">
        <ele>92</ele>
        <time>2025-11-05T14:07:13.446Z</time>
      </trkpt>
      <trkpt lat="44.07207" lon="0.48646">
        <ele>92</ele>
        <time>2025-11-05T14:07:14.446Z</time>
      </trkpt>
      <trkpt lat="44.07207" lon="0.48646">
        <ele>92</ele>
        <time>2025-11-05T14:07:15.446Z</time>
      </trkpt>
      <trkpt lat="44.07207" lon="0.48646">
        <ele>92</ele>
        <time>2025-11-05T14:07:16.446Z</time>
      </trkpt>
      <trkpt lat="44.07207" lon="0.48646">
        <ele>92</ele>
        <time>2025-11-05T14:07:17.446Z</time>
      </trkpt>
      <trkpt lat="44.07207" lon="0.48646">
        <ele>92</ele>
        <time>2025-11-05T14:07:18.446Z</time>
      </trkpt>
      <trkpt lat="44.07207" lon="0.48646">
        <ele>92</ele>
        <time>2025-11-05T14:07:19.446Z</time>
      </trkpt>
      <trkpt lat="44.07207" lon="0.48646">
        <ele>92</ele>
        <time>2025-11-05T14:07:20.446Z</time>
      </trkpt>
      <trkpt lat="44.07207" lon="0.48646">
        <ele>92</ele>
        <time>2025-11-05T14:07:21.446Z</time>
      </trkpt>
      <trkpt lat="44.07207" lon="0.48646">
        <ele>91</ele>
        <time>2025-11-05T14:07:22.446Z</time>
      </trkpt>
      <trkpt lat="44.07207" lon="0.48646">
        <ele>91</ele>
        <time>2025-11-05T14:07:23.446Z</time>
      </trkpt>
      <trkpt lat="44.07207" lon="0.48646">
        <ele>91</ele>
        <time>2025-11-05T14:07:24.446Z</time>
      </trkpt>
      <trkpt lat="44.07207" lon="0.48645">
        <ele>91</ele>
        <time>2025-11-05T14:07:25.446Z</time>
      </trkpt>
      <trkpt lat="44.07207" lon="0.48645">
        <ele>91</ele>
        <time>2025-11-05T14:07:26.446Z</time>
      </trkpt>
      <trkpt lat="44.07208" lon="0.48645">
        <ele>91</ele>
        <time>2025-11-05T14:07:27.446Z</time>
      </trkpt>
      <trkpt lat="44.07208" lon="0.48646">
        <ele>91</ele>
        <time>2025-11-05T14:07:28.446Z</time>
      </trkpt>
      <trkpt lat="44.07209" lon="0.48646">
        <ele>91</ele>
        <time>2025-11-05T14:07:29.446Z</time>
      </trkpt>
      <trkpt lat="44.07209" lon="0.48646">
        <ele>91</ele>
        <time>2025-11-05T14:07:30.446Z</time>
      </trkpt>
      <trkpt lat="44.07209" lon="0.48647">
        <ele>91</ele>
        <time>2025-11-05T14:07:31.446Z</time>
      </trkpt>
      <trkpt lat="44.07209" lon="0.48647">
        <ele>91</ele>
        <time>2025-11-05T14:07:32.446Z</time>
      </trkpt>
      <trkpt lat="44.07209" lon="0.48648">
        <ele>91</ele>
        <time>2025-11-05T14:07:33.446Z</time>
      </trkpt>
      <trkpt lat="44.07209" lon="0.48648">
        <ele>91</ele>
        <time>2025-11-05T14:07:34.446Z</time>
      </trkpt>
      <trkpt lat="44.0721" lon="0.48648">
        <ele>91</ele>
        <time>2025-11-05T14:07:35.446Z</time>
      </trkpt>
      <trkpt lat="44.07211" lon="0.48647">
        <ele>92</ele>
        <time>2025-11-05T14:07:36.446Z</time>
      </trkpt>
      <trkpt lat="44.07211" lon="0.48648">
        <ele>92</ele>
        <time>2025-11-05T14:07:37.446Z</time>
      </trkpt>
      <trkpt lat="44.07212" lon="0.48648">
        <ele>92</ele>
        <time>2025-11-05T14:07:38.446Z</time>
      </trkpt>
      <trkpt lat="44.07212" lon="0.48649">
        <ele>92</ele>
        <time>2025-11-05T14:07:39.446Z</time>
      </trkpt>
      <trkpt lat="44.07212" lon="0.48649">
        <ele>92</ele>
        <time>2025-11-05T14:07:40.446Z</time>
      </trkpt>
      <trkpt lat="44.07213" lon="0.48649">
        <ele>92</ele>
        <time>2025-11-05T14:07:41.446Z</time>
      </trkpt>
      <trkpt lat="44.07214" lon="0.48649">
        <ele>92</ele>
        <time>2025-11-05T14:07:42.446Z</time>
      </trkpt>
      <trkpt lat="44.07215" lon="0.48649">
        <ele>92</ele>
        <time>2025-11-05T14:07:43.446Z</time>
      </trkpt>
      <trkpt lat="44.07216" lon="0.4865">
        <ele>93</ele>
        <time>2025-11-05T14:07:44.446Z</time>
      </trkpt>
      <trkpt lat="44.07217" lon="0.4865">
        <ele>93</ele>
        <time>2025-11-05T14:07:45.446Z</time>
      </trkpt>
      <trkpt lat="44.07217" lon="0.4865">
        <ele>94</ele>
        <time>2025-11-05T14:07:46.446Z</time>
      </trkpt>
      <trkpt lat="44.07218" lon="0.4865">
        <ele>94</ele>
        <time>2025-11-05T14:07:47.446Z</time>
      </trkpt>
      <trkpt lat="44.07219" lon="0.48651">
        <ele>95</ele>
        <time>2025-11-05T14:07:48.446Z</time>
      </trkpt>
      <trkpt lat="44.0722" lon="0.48651">
        <ele>95</ele>
        <time>2025-11-05T14:07:49.446Z</time>
      </trkpt>
      <trkpt lat="44.07221" lon="0.48652">
        <ele>96</ele>
        <time>2025-11-05T14:07:50.446Z</time>
      </trkpt>
      <trkpt lat="44.07222" lon="0.48652">
        <ele>96</ele>
        <time>2025-11-05T14:07:51.446Z</time>
      </trkpt>
      <trkpt lat="44.07223" lon="0.48653">
        <ele>96</ele>
        <time>2025-11-05T14:07:52.446Z</time>
      </trkpt>
      <trkpt lat="44.07224" lon="0.48653">
        <ele>96</ele>
        <time>2025-11-05T14:07:53.446Z</time>
      </trkpt>
      <trkpt lat="44.07224" lon="0.48654">
        <ele>95</ele>
        <time>2025-11-05T14:07:54.446Z</time>
      </trkpt>
      <trkpt lat="44.07225" lon="0.48654">
        <ele>95</ele>
        <time>2025-11-05T14:07:55.446Z</time>
      </trkpt>
      <trkpt lat="44.07226" lon="0.48654">
        <ele>95</ele>
        <time>2025-11-05T14:07:56.446Z</time>
      </trkpt>
      <trkpt lat="44.07227" lon="0.48655">
        <ele>95</ele>
        <time>2025-11-05T14:07:57.446Z</time>
      </trkpt>
      <trkpt lat="44.07229" lon="0.48656">
        <ele>95</ele>
        <time>2025-11-05T14:07:58.446Z</time>
      </trkpt>
      <trkpt lat="44.0723" lon="0.48657">
        <ele>95</ele>
        <time>2025-11-05T14:07:59.446Z</time>
      </trkpt>
      <trkpt lat="44.07231" lon="0.48658">
        <ele>94</ele>
        <time>2025-11-05T14:08:00.446Z</time>
      </trkpt>
      <trkpt lat="44.07231" lon="0.48659">
        <ele>94</ele>
        <time>2025-11-05T14:08:01.446Z</time>
      </trkpt>
      <trkpt lat="44.07232" lon="0.4866">
        <ele>93</ele>
        <time>2025-11-05T14:08:02.446Z</time>
      </trkpt>
      <trkpt lat="44.07234" lon="0.48661">
        <ele>92</ele>
        <time>2025-11-05T14:08:03.446Z</time>
      </trkpt>
      <trkpt lat="44.07235" lon="0.48662">
        <ele>91</ele>
        <time>2025-11-05T14:08:04.446Z</time>
      </trkpt>
      <trkpt lat="44.07235" lon="0.48663">
        <ele>91</ele>
        <time>2025-11-05T14:08:05.446Z</time>
      </trkpt>
      <trkpt lat="44.07236" lon="0.48664">
        <ele>90</ele>
        <time>2025-11-05T14:08:06.446Z</time>
      </trkpt>
      <trkpt lat="44.07237" lon="0.48665">
        <ele>90</ele>
        <time>2025-11-05T14:08:07.446Z</time>
      </trkpt>
      <trkpt lat="44.07238" lon="0.48665">
        <ele>91</ele>
        <time>2025-11-05T14:08:08.446Z</time>
      </trkpt>
      <trkpt lat="44.07239" lon="0.48666">
        <ele>91</ele>
        <time>2025-11-05T14:08:09.446Z</time>
      </trkpt>
      <trkpt lat="44.0724" lon="0.48667">
        <ele>91</ele>
        <time>2025-11-05T14:08:10.446Z</time>
      </trkpt>
      <trkpt lat="44.07241" lon="0.48667">
        <ele>91</ele>
        <time>2025-11-05T14:08:11.446Z</time>
      </trkpt>
      <trkpt lat="44.07242" lon="0.48668">
        <ele>91</ele>
        <time>2025-11-05T14:08:12.446Z</time>
      </trkpt>
      <trkpt lat="44.07244" lon="0.48669">
        <ele>91</ele>
        <time>2025-11-05T14:08:13.446Z</time>
      </trkpt>
      <trkpt lat="44.07245" lon="0.4867">
        <ele>91</ele>
        <time>2025-11-05T14:08:14.446Z</time>
      </trkpt>
      <trkpt lat="44.07245" lon="0.48671">
        <ele>91</ele>
        <time>2025-11-05T14:08:15.446Z</time>
      </trkpt>
      <trkpt lat="44.07246" lon="0.48672">
        <ele>91</ele>
        <time>2025-11-05T14:08:16.446Z</time>
      </trkpt>
      <trkpt lat="44.07247" lon="0.48672">
        <ele>91</ele>
        <time>2025-11-05T14:08:17.446Z</time>
      </trkpt>
      <trkpt lat="44.07248" lon="0.48673">
        <ele>90</ele>
        <time>2025-11-05T14:08:18.446Z</time>
      </trkpt>
      <trkpt lat="44.07249" lon="0.48674">
        <ele>90</ele>
        <time>2025-11-05T14:08:19.446Z</time>
      </trkpt>
      <trkpt lat="44.0725" lon="0.48675">
        <ele>90</ele>
        <time>2025-11-05T14:08:20.446Z</time>
      </trkpt>
      <trkpt lat="44.07251" lon="0.48676">
        <ele>90</ele>
        <time>2025-11-05T14:08:21.446Z</time>
      </trkpt>
      <trkpt lat="44.07252" lon="0.48677">
        <ele>90</ele>
        <time>2025-11-05T14:08:22.446Z</time>
      </trkpt>
      <trkpt lat="44.07254" lon="0.48678">
        <ele>90</ele>
        <time>2025-11-05T14:08:23.446Z</time>
      </trkpt>
      <trkpt lat="44.07255" lon="0.48679">
        <ele>90</ele>
        <time>2025-11-05T14:08:24.446Z</time>
      </trkpt>
      <trkpt lat="44.07256" lon="0.4868">
        <ele>90</ele>
        <time>2025-11-05T14:08:25.446Z</time>
      </trkpt>
      <trkpt lat="44.07256" lon="0.48681">
        <ele>90</ele>
        <time>2025-11-05T14:08:26.446Z</time>
      </trkpt>
      <trkpt lat="44.07257" lon="0.48682">
        <ele>90</ele>
        <time>2025-11-05T14:08:27.446Z</time>
      </trkpt>
      <trkpt lat="44.07258" lon="0.48683">
        <ele>90</ele>
        <time>2025-11-05T14:08:28.446Z</time>
      </trkpt>
      <trkpt lat="44.0726" lon="0.48684">
        <ele>90</ele>
        <time>2025-11-05T14:08:29.446Z</time>
      </trkpt>
      <trkpt lat="44.07261" lon="0.48685">
        <ele>90</ele>
        <time>2025-11-05T14:08:30.446Z</time>
      </trkpt>
      <trkpt lat="44.07262" lon="0.48686">
        <ele>90</ele>
        <time>2025-11-05T14:08:31.446Z</time>
      </trkpt>
      <trkpt lat="44.07262" lon="0.48687">
        <ele>89</ele>
        <time>2025-11-05T14:08:32.446Z</time>
      </trkpt>
      <trkpt lat="44.07263" lon="0.48688">
        <ele>89</ele>
        <time>2025-11-05T14:08:33.446Z</time>
      </trkpt>
      <trkpt lat="44.07264" lon="0.48689">
        <ele>89</ele>
        <time>2025-11-05T14:08:34.446Z</time>
      </trkpt>
      <trkpt lat="44.07265" lon="0.48691">
        <ele>88</ele>
        <time>2025-11-05T14:08:35.446Z</time>
      </trkpt>
      <trkpt lat="44.07266" lon="0.48692">
        <ele>88</ele>
        <time>2025-11-05T14:08:36.446Z</time>
      </trkpt>
      <trkpt lat="44.07267" lon="0.48693">
        <ele>88</ele>
        <time>2025-11-05T14:08:37.446Z</time>
      </trkpt>
      <trkpt lat="44.07268" lon="0.48694">
        <ele>88</ele>
        <time>2025-11-05T14:08:38.446Z</time>
      </trkpt>
      <trkpt lat="44.07269" lon="0.48695">
        <ele>88</ele>
        <time>2025-11-05T14:08:39.446Z</time>
      </trkpt>
      <trkpt lat="44.07269" lon="0.48696">
        <ele>88</ele>
        <time>2025-11-05T14:08:40.446Z</time>
      </trkpt>
      <trkpt lat="44.0727" lon="0.48697">
        <ele>88</ele>
        <time>2025-11-05T14:08:41.446Z</time>
      </trkpt>
      <trkpt lat="44.07271" lon="0.48698">
        <ele>87</ele>
        <time>2025-11-05T14:08:42.446Z</time>
      </trkpt>
      <trkpt lat="44.07272" lon="0.48699">
        <ele>87</ele>
        <time>2025-11-05T14:08:43.446Z</time>
      </trkpt>
      <trkpt lat="44.07273" lon="0.487">
        <ele>87</ele>
        <time>2025-11-05T14:08:44.446Z</time>
      </trkpt>
      <trkpt lat="44.07274" lon="0.48701">
        <ele>87</ele>
        <time>2025-11-05T14:08:45.446Z</time>
      </trkpt>
      <trkpt lat="44.07275" lon="0.48702">
        <ele>87</ele>
        <time>2025-11-05T14:08:46.446Z</time>
      </trkpt>
      <trkpt lat="44.07276" lon="0.48702">
        <ele>87</ele>
        <time>2025-11-05T14:08:47.446Z</time>
      </trkpt>
      <trkpt lat="44.07276" lon="0.48702">
        <ele>87</ele>
        <time>2025-11-05T14:08:48.446Z</time>
      </trkpt>
      <trkpt lat="44.07276" lon="0.48702">
        <ele>88</ele>
        <time>2025-11-05T14:08:49.446Z</time>
      </trkpt>
      <trkpt lat="44.07276" lon="0.48702">
        <ele>88</ele>
        <time>2025-11-05T14:08:50.446Z</time>
      </trkpt>
      <trkpt lat="44.07276" lon="0.48703">
        <ele>88</ele>
        <time>2025-11-05T14:08:51.446Z</time>
      </trkpt>
      <trkpt lat="44.07277" lon="0.48703">
        <ele>88</ele>
        <time>2025-11-05T14:08:52.446Z</time>
      </trkpt>
      <trkpt lat="44.07277" lon="0.48703">
        <ele>88</ele>
        <time>2025-11-05T14:08:53.446Z</time>
      </trkpt>
      <trkpt lat="44.07278" lon="0.48704">
        <ele>88</ele>
        <time>2025-11-05T14:08:54.446Z</time>
      </trkpt>
      <trkpt lat="44.07279" lon="0.48705">
        <ele>88</ele>
        <time>2025-11-05T14:08:55.446Z</time>
      </trkpt>
      <trkpt lat="44.0728" lon="0.48706">
        <ele>88</ele>
        <time>2025-11-05T14:08:56.446Z</time>
      </trkpt>
      <trkpt lat="44.07281" lon="0.48707">
        <ele>88</ele>
        <time>2025-11-05T14:08:57.446Z</time>
      </trkpt>
      <trkpt lat="44.07282" lon="0.48708">
        <ele>88</ele>
        <time>2025-11-05T14:08:58.446Z</time>
      </trkpt>
      <trkpt lat="44.07282" lon="0.48709">
        <ele>88</ele>
        <time>2025-11-05T14:08:59.446Z</time>
      </trkpt>
      <trkpt lat="44.07283" lon="0.48709">
        <ele>88</ele>
        <time>2025-11-05T14:09:00.446Z</time>
      </trkpt>
      <trkpt lat="44.07285" lon="0.4871">
        <ele>88</ele>
        <time>2025-11-05T14:09:01.446Z</time>
      </trkpt>
      <trkpt lat="44.07285" lon="0.48711">
        <ele>87</ele>
        <time>2025-11-05T14:09:02.446Z</time>
      </trkpt>
      <trkpt lat="44.07286" lon="0.48713">
        <ele>87</ele>
        <time>2025-11-05T14:09:03.446Z</time>
      </trkpt>
      <trkpt lat="44.07287" lon="0.48714">
        <ele>87</ele>
        <time>2025-11-05T14:09:04.446Z</time>
      </trkpt>
      <trkpt lat="44.07287" lon="0.48715">
        <ele>87</ele>
        <time>2025-11-05T14:09:05.446Z</time>
      </trkpt>
      <trkpt lat="44.07288" lon="0.48715">
        <ele>87</ele>
        <time>2025-11-05T14:09:06.446Z</time>
      </trkpt>
      <trkpt lat="44.07289" lon="0.48716">
        <ele>87</ele>
        <time>2025-11-05T14:09:07.446Z</time>
      </trkpt>
      <trkpt lat="44.0729" lon="0.48717">
        <ele>87</ele>
        <time>2025-11-05T14:09:08.446Z</time>
      </trkpt>
      <trkpt lat="44.07291" lon="0.48718">
        <ele>87</ele>
        <time>2025-11-05T14:09:09.446Z</time>
      </trkpt>
      <trkpt lat="44.07292" lon="0.48719">
        <ele>87</ele>
        <time>2025-11-05T14:09:10.446Z</time>
      </trkpt>
      <trkpt lat="44.07293" lon="0.48719">
        <ele>87</ele>
        <time>2025-11-05T14:09:11.446Z</time>
      </trkpt>
      <trkpt lat="44.07294" lon="0.4872">
        <ele>87</ele>
        <time>2025-11-05T14:09:12.446Z</time>
      </trkpt>
      <trkpt lat="44.07295" lon="0.48721">
        <ele>87</ele>
        <time>2025-11-05T14:09:13.446Z</time>
      </trkpt>
      <trkpt lat="44.07296" lon="0.48722">
        <ele>88</ele>
        <time>2025-11-05T14:09:14.446Z</time>
      </trkpt>
      <trkpt lat="44.07297" lon="0.48723">
        <ele>88</ele>
        <time>2025-11-05T14:09:15.446Z</time>
      </trkpt>
      <trkpt lat="44.07298" lon="0.48724">
        <ele>88</ele>
        <time>2025-11-05T14:09:16.446Z</time>
      </trkpt>
      <trkpt lat="44.07299" lon="0.48725">
        <ele>88</ele>
        <time>2025-11-05T14:09:17.446Z</time>
      </trkpt>
      <trkpt lat="44.073" lon="0.48726">
        <ele>88</ele>
        <time>2025-11-05T14:09:18.446Z</time>
      </trkpt>
      <trkpt lat="44.07301" lon="0.48727">
        <ele>88</ele>
        <time>2025-11-05T14:09:19.446Z</time>
      </trkpt>
      <trkpt lat="44.07302" lon="0.48728">
        <ele>88</ele>
        <time>2025-11-05T14:09:20.446Z</time>
      </trkpt>
      <trkpt lat="44.07303" lon="0.48729">
        <ele>87</ele>
        <time>2025-11-05T14:09:21.446Z</time>
      </trkpt>
      <trkpt lat="44.07304" lon="0.4873">
        <ele>87</ele>
        <time>2025-11-05T14:09:22.446Z</time>
      </trkpt>
      <trkpt lat="44.07304" lon="0.48731">
        <ele>87</ele>
        <time>2025-11-05T14:09:23.446Z</time>
      </trkpt>
      <trkpt lat="44.07305" lon="0.48732">
        <ele>87</ele>
        <time>2025-11-05T14:09:24.446Z</time>
      </trkpt>
      <trkpt lat="44.07306" lon="0.48733">
        <ele>87</ele>
        <time>2025-11-05T14:09:25.446Z</time>
      </trkpt>
      <trkpt lat="44.07307" lon="0.48734">
        <ele>87</ele>
        <time>2025-11-05T14:09:26.446Z</time>
      </trkpt>
      <trkpt lat="44.07308" lon="0.48734">
        <ele>88</ele>
        <time>2025-11-05T14:09:27.446Z</time>
      </trkpt>
      <trkpt lat="44.07309" lon="0.48735">
        <ele>88</ele>
        <time>2025-11-05T14:09:28.446Z</time>
      </trkpt>
      <trkpt lat="44.0731" lon="0.48736">
        <ele>88</ele>
        <time>2025-11-05T14:09:29.446Z</time>
      </trkpt>
      <trkpt lat="44.07311" lon="0.48737">
        <ele>88</ele>
        <time>2025-11-05T14:09:30.446Z</time>
      </trkpt>
      <trkpt lat="44.07312" lon="0.48738">
        <ele>87</ele>
        <time>2025-11-05T14:09:31.446Z</time>
      </trkpt>
      <trkpt lat="44.07313" lon="0.48739">
        <ele>87</ele>
        <time>2025-11-05T14:09:32.446Z</time>
      </trkpt>
      <trkpt lat="44.07313" lon="0.4874">
        <ele>87</ele>
        <time>2025-11-05T14:09:33.446Z</time>
      </trkpt>
      <trkpt lat="44.07314" lon="0.4874">
        <ele>87</ele>
        <time>2025-11-05T14:09:34.446Z</time>
      </trkpt>
      <trkpt lat="44.07315" lon="0.48741">
        <ele>87</ele>
        <time>2025-11-05T14:09:35.447Z</time>
      </trkpt>
      <trkpt lat="44.07316" lon="0.48742">
        <ele>87</ele>
        <time>2025-11-05T14:09:36.446Z</time>
      </trkpt>
      <trkpt lat="44.07317" lon="0.48742">
        <ele>87</ele>
        <time>2025-11-05T14:09:37.446Z</time>
      </trkpt>
      <trkpt lat="44.07318" lon="0.48744">
        <ele>86</ele>
        <time>2025-11-05T14:09:38.446Z</time>
      </trkpt>
      <trkpt lat="44.07319" lon="0.48745">
        <ele>86</ele>
        <time>2025-11-05T14:09:39.446Z</time>
      </trkpt>
      <trkpt lat="44.07319" lon="0.48746">
        <ele>86</ele>
        <time>2025-11-05T14:09:40.446Z</time>
      </trkpt>
      <trkpt lat="44.0732" lon="0.48746">
        <ele>86</ele>
        <time>2025-11-05T14:09:41.446Z</time>
      </trkpt>
      <trkpt lat="44.07321" lon="0.48747">
        <ele>86</ele>
        <time>2025-11-05T14:09:42.446Z</time>
      </trkpt>
      <trkpt lat="44.07322" lon="0.48747">
        <ele>86</ele>
        <time>2025-11-05T14:09:43.446Z</time>
      </trkpt>
      <trkpt lat="44.07323" lon="0.48748">
        <ele>86</ele>
        <time>2025-11-05T14:09:44.446Z</time>
      </trkpt>
      <trkpt lat="44.07324" lon="0.48749">
        <ele>86</ele>
        <time>2025-11-05T14:09:45.446Z</time>
      </trkpt>
      <trkpt lat="44.07325" lon="0.48749">
        <ele>87</ele>
        <time>2025-11-05T14:09:46.446Z</time>
      </trkpt>
      <trkpt lat="44.07326" lon="0.48749">
        <ele>87</ele>
        <time>2025-11-05T14:09:47.446Z</time>
      </trkpt>
      <trkpt lat="44.07327" lon="0.4875">
        <ele>87</ele>
        <time>2025-11-05T14:09:48.446Z</time>
      </trkpt>
      <trkpt lat="44.07329" lon="0.4875">
        <ele>88</ele>
        <time>2025-11-05T14:09:49.446Z</time>
      </trkpt>
      <trkpt lat="44.0733" lon="0.48751">
        <ele>88</ele>
        <time>2025-11-05T14:09:50.446Z</time>
      </trkpt>
      <trkpt lat="44.07331" lon="0.48752">
        <ele>89</ele>
        <time>2025-11-05T14:09:51.446Z</time>
      </trkpt>
      <trkpt lat="44.07332" lon="0.48753">
        <ele>89</ele>
        <time>2025-11-05T14:09:52.446Z</time>
      </trkpt>
      <trkpt lat="44.07333" lon="0.48754">
        <ele>89</ele>
        <time>2025-11-05T14:09:53.446Z</time>
      </trkpt>
      <trkpt lat="44.07334" lon="0.48755">
        <ele>89</ele>
        <time>2025-11-05T14:09:54.446Z</time>
      </trkpt>
      <trkpt lat="44.07334" lon="0.48756">
        <ele>89</ele>
        <time>2025-11-05T14:09:55.446Z</time>
      </trkpt>
      <trkpt lat="44.07336" lon="0.48757">
        <ele>89</ele>
        <time>2025-11-05T14:09:56.446Z</time>
      </trkpt>
      <trkpt lat="44.07337" lon="0.48757">
        <ele>90</ele>
        <time>2025-11-05T14:09:57.446Z</time>
      </trkpt>
      <trkpt lat="44.07338" lon="0.48758">
        <ele>90</ele>
        <time>2025-11-05T14:09:58.446Z</time>
      </trkpt>
      <trkpt lat="44.07338" lon="0.48759">
        <ele>89</ele>
        <time>2025-11-05T14:09:59.446Z</time>
      </trkpt>
      <trkpt lat="44.07339" lon="0.4876">
        <ele>89</ele>
        <time>2025-11-05T14:10:00.446Z</time>
      </trkpt>
      <trkpt lat="44.0734" lon="0.48761">
        <ele>89</ele>
        <time>2025-11-05T14:10:01.446Z</time>
      </trkpt>
      <trkpt lat="44.07341" lon="0.48762">
        <ele>88</ele>
        <time>2025-11-05T14:10:02.446Z</time>
      </trkpt>
      <trkpt lat="44.07342" lon="0.48763">
        <ele>88</ele>
        <time>2025-11-05T14:10:03.446Z</time>
      </trkpt>
      <trkpt lat="44.07343" lon="0.48764">
        <ele>88</ele>
        <time>2025-11-05T14:10:04.446Z</time>
      </trkpt>
      <trkpt lat="44.07344" lon="0.48764">
        <ele>89</ele>
        <time>2025-11-05T14:10:05.446Z</time>
      </trkpt>
      <trkpt lat="44.07345" lon="0.48765">
        <ele>89</ele>
        <time>2025-11-05T14:10:06.446Z</time>
      </trkpt>
      <trkpt lat="44.07346" lon="0.48766">
        <ele>89</ele>
        <time>2025-11-05T14:10:07.446Z</time>
      </trkpt>
      <trkpt lat="44.07347" lon="0.48767">
        <ele>89</ele>
        <time>2025-11-05T14:10:08.446Z</time>
      </trkpt>
      <trkpt lat="44.07348" lon="0.48768">
        <ele>88</ele>
        <time>2025-11-05T14:10:09.446Z</time>
      </trkpt>
      <trkpt lat="44.07349" lon="0.48769">
        <ele>88</ele>
        <time>2025-11-05T14:10:10.446Z</time>
      </trkpt>
      <trkpt lat="44.0735" lon="0.4877">
        <ele>88</ele>
        <time>2025-11-05T14:10:11.446Z</time>
      </trkpt>
      <trkpt lat="44.07351" lon="0.48771">
        <ele>88</ele>
        <time>2025-11-05T14:10:12.446Z</time>
      </trkpt>
      <trkpt lat="44.07352" lon="0.48771">
        <ele>87</ele>
        <time>2025-11-05T14:10:13.446Z</time>
      </trkpt>
      <trkpt lat="44.07354" lon="0.48772">
        <ele>87</ele>
        <time>2025-11-05T14:10:14.446Z</time>
      </trkpt>
      <trkpt lat="44.07355" lon="0.48773">
        <ele>87</ele>
        <time>2025-11-05T14:10:15.446Z</time>
      </trkpt>
      <trkpt lat="44.07356" lon="0.48774">
        <ele>87</ele>
        <time>2025-11-05T14:10:16.446Z</time>
      </trkpt>
      <trkpt lat="44.07357" lon="0.48775">
        <ele>87</ele>
        <time>2025-11-05T14:10:17.446Z</time>
      </trkpt>
      <trkpt lat="44.07358" lon="0.48776">
        <ele>87</ele>
        <time>2025-11-05T14:10:18.446Z</time>
      </trkpt>
      <trkpt lat="44.07359" lon="0.48777">
        <ele>87</ele>
        <time>2025-11-05T14:10:19.446Z</time>
      </trkpt>
      <trkpt lat="44.0736" lon="0.48778">
        <ele>88</ele>
        <time>2025-11-05T14:10:20.446Z</time>
      </trkpt>
      <trkpt lat="44.07361" lon="0.48779">
        <ele>88</ele>
        <time>2025-11-05T14:10:21.446Z</time>
      </trkpt>
      <trkpt lat="44.07362" lon="0.4878">
        <ele>87</ele>
        <time>2025-11-05T14:10:22.446Z</time>
      </trkpt>
      <trkpt lat="44.07363" lon="0.4878">
        <ele>87</ele>
        <time>2025-11-05T14:10:23.446Z</time>
      </trkpt>
      <trkpt lat="44.07364" lon="0.48781">
        <ele>87</ele>
        <time>2025-11-05T14:10:24.446Z</time>
      </trkpt>
      <trkpt lat="44.07364" lon="0.48782">
        <ele>87</ele>
        <time>2025-11-05T14:10:25.446Z</time>
      </trkpt>
      <trkpt lat="44.07365" lon="0.48783">
        <ele>87</ele>
        <time>2025-11-05T14:10:26.446Z</time>
      </trkpt>
      <trkpt lat="44.07366" lon="0.48784">
        <ele>87</ele>
        <time>2025-11-05T14:10:27.446Z</time>
      </trkpt>
      <trkpt lat="44.07367" lon="0.48785">
        <ele>87</ele>
        <time>2025-11-05T14:10:28.446Z</time>
      </trkpt>
      <trkpt lat="44.07368" lon="0.48786">
        <ele>87</ele>
        <time>2025-11-05T14:10:29.446Z</time>
      </trkpt>
      <trkpt lat="44.07369" lon="0.48787">
        <ele>87</ele>
        <time>2025-11-05T14:10:30.446Z</time>
      </trkpt>
      <trkpt lat="44.0737" lon="0.48788">
        <ele>86</ele>
        <time>2025-11-05T14:10:31.446Z</time>
      </trkpt>
      <trkpt lat="44.07371" lon="0.48789">
        <ele>86</ele>
        <time>2025-11-05T14:10:32.446Z</time>
      </trkpt>
      <trkpt lat="44.07372" lon="0.4879">
        <ele>86</ele>
        <time>2025-11-05T14:10:33.446Z</time>
      </trkpt>
      <trkpt lat="44.07373" lon="0.48791">
        <ele>86</ele>
        <time>2025-11-05T14:10:34.446Z</time>
      </trkpt>
      <trkpt lat="44.07374" lon="0.48792">
        <ele>86</ele>
        <time>2025-11-05T14:10:35.446Z</time>
      </trkpt>
      <trkpt lat="44.07375" lon="0.48794">
        <ele>86</ele>
        <time>2025-11-05T14:10:36.446Z</time>
      </trkpt>
      <trkpt lat="44.07376" lon="0.48795">
        <ele>86</ele>
        <time>2025-11-05T14:10:37.446Z</time>
      </trkpt>
      <trkpt lat="44.07377" lon="0.48796">
        <ele>86</ele>
        <time>2025-11-05T14:10:38.446Z</time>
      </trkpt>
      <trkpt lat="44.07378" lon="0.48797">
        <ele>86</ele>
        <time>2025-11-05T14:10:39.446Z</time>
      </trkpt>
      <trkpt lat="44.07379" lon="0.48798">
        <ele>85</ele>
        <time>2025-11-05T14:10:40.446Z</time>
      </trkpt>
      <trkpt lat="44.0738" lon="0.48798">
        <ele>84</ele>
        <time>2025-11-05T14:10:41.446Z</time>
      </trkpt>
      <trkpt lat="44.07381" lon="0.48799">
        <ele>84</ele>
        <time>2025-11-05T14:10:42.446Z</time>
      </trkpt>
      <trkpt lat="44.07382" lon="0.488">
        <ele>83</ele>
        <time>2025-11-05T14:10:43.446Z</time>
      </trkpt>
      <trkpt lat="44.07383" lon="0.48801">
        <ele>83</ele>
        <time>2025-11-05T14:10:44.446Z</time>
      </trkpt>
      <trkpt lat="44.07384" lon="0.48802">
        <ele>83</ele>
        <time>2025-11-05T14:10:45.446Z</time>
      </trkpt>
      <trkpt lat="44.07385" lon="0.48803">
        <ele>83</ele>
        <time>2025-11-05T14:10:46.446Z</time>
      </trkpt>
      <trkpt lat="44.07386" lon="0.48804">
        <ele>83</ele>
        <time>2025-11-05T14:10:47.446Z</time>
      </trkpt>
      <trkpt lat="44.07387" lon="0.48804">
        <ele>83</ele>
        <time>2025-11-05T14:10:48.446Z</time>
      </trkpt>
      <trkpt lat="44.07388" lon="0.48805">
        <ele>83</ele>
        <time>2025-11-05T14:10:49.446Z</time>
      </trkpt>
      <trkpt lat="44.07389" lon="0.48806">
        <ele>83</ele>
        <time>2025-11-05T14:10:50.446Z</time>
      </trkpt>
      <trkpt lat="44.07389" lon="0.48807">
        <ele>83</ele>
        <time>2025-11-05T14:10:51.446Z</time>
      </trkpt>
      <trkpt lat="44.0739" lon="0.48808">
        <ele>82</ele>
        <time>2025-11-05T14:10:52.446Z</time>
      </trkpt>
      <trkpt lat="44.07392" lon="0.48809">
        <ele>82</ele>
        <time>2025-11-05T14:10:53.446Z</time>
      </trkpt>
      <trkpt lat="44.07392" lon="0.4881">
        <ele>83</ele>
        <time>2025-11-05T14:10:54.446Z</time>
      </trkpt>
      <trkpt lat="44.07393" lon="0.4881">
        <ele>83</ele>
        <time>2025-11-05T14:10:55.446Z</time>
      </trkpt>
      <trkpt lat="44.07394" lon="0.48811">
        <ele>83</ele>
        <time>2025-11-05T14:10:56.446Z</time>
      </trkpt>
      <trkpt lat="44.07395" lon="0.48812">
        <ele>83</ele>
        <time>2025-11-05T14:10:57.446Z</time>
      </trkpt>
      <trkpt lat="44.07396" lon="0.48812">
        <ele>82</ele>
        <time>2025-11-05T14:10:58.446Z</time>
      </trkpt>
      <trkpt lat="44.07397" lon="0.48813">
        <ele>82</ele>
        <time>2025-11-05T14:10:59.446Z</time>
      </trkpt>
      <trkpt lat="44.07398" lon="0.48814">
        <ele>82</ele>
        <time>2025-11-05T14:11:00.446Z</time>
      </trkpt>
      <trkpt lat="44.07399" lon="0.48816">
        <ele>82</ele>
        <time>2025-11-05T14:11:01.446Z</time>
      </trkpt>
      <trkpt lat="44.074" lon="0.48817">
        <ele>82</ele>
        <time>2025-11-05T14:11:02.446Z</time>
      </trkpt>
      <trkpt lat="44.07401" lon="0.48818">
        <ele>82</ele>
        <time>2025-11-05T14:11:03.446Z</time>
      </trkpt>
      <trkpt lat="44.07402" lon="0.48818">
        <ele>82</ele>
        <time>2025-11-05T14:11:04.446Z</time>
      </trkpt>
      <trkpt lat="44.07403" lon="0.48819">
        <ele>82</ele>
        <time>2025-11-05T14:11:05.446Z</time>
      </trkpt>
      <trkpt lat="44.07404" lon="0.4882">
        <ele>82</ele>
        <time>2025-11-05T14:11:06.446Z</time>
      </trkpt>
      <trkpt lat="44.07405" lon="0.48821">
        <ele>83</ele>
        <time>2025-11-05T14:11:07.446Z</time>
      </trkpt>
      <trkpt lat="44.07406" lon="0.48822">
        <ele>83</ele>
        <time>2025-11-05T14:11:08.446Z</time>
      </trkpt>
      <trkpt lat="44.07407" lon="0.48823">
        <ele>83</ele>
        <time>2025-11-05T14:11:09.446Z</time>
      </trkpt>
      <trkpt lat="44.07408" lon="0.48824">
        <ele>84</ele>
        <time>2025-11-05T14:11:10.446Z</time>
      </trkpt>
      <trkpt lat="44.07409" lon="0.48825">
        <ele>83</ele>
        <time>2025-11-05T14:11:11.446Z</time>
      </trkpt>
      <trkpt lat="44.0741" lon="0.48826">
        <ele>83</ele>
        <time>2025-11-05T14:11:12.446Z</time>
      </trkpt>
      <trkpt lat="44.07411" lon="0.48827">
        <ele>84</ele>
        <time>2025-11-05T14:11:13.446Z</time>
      </trkpt>
      <trkpt lat="44.07411" lon="0.48828">
        <ele>84</ele>
        <time>2025-11-05T14:11:14.446Z</time>
      </trkpt>
      <trkpt lat="44.07412" lon="0.48829">
        <ele>83</ele>
        <time>2025-11-05T14:11:15.446Z</time>
      </trkpt>
      <trkpt lat="44.07413" lon="0.4883">
        <ele>84</ele>
        <time>2025-11-05T14:11:16.446Z</time>
      </trkpt>
      <trkpt lat="44.07414" lon="0.48831">
        <ele>84</ele>
        <time>2025-11-05T14:11:17.446Z</time>
      </trkpt>
      <trkpt lat="44.07415" lon="0.48832">
        <ele>84</ele>
        <time>2025-11-05T14:11:18.446Z</time>
      </trkpt>
      <trkpt lat="44.07417" lon="0.48833">
        <ele>84</ele>
        <time>2025-11-05T14:11:19.446Z</time>
      </trkpt>
      <trkpt lat="44.07418" lon="0.48834">
        <ele>84</ele>
        <time>2025-11-05T14:11:20.446Z</time>
      </trkpt>
      <trkpt lat="44.07418" lon="0.48834">
        <ele>84</ele>
        <time>2025-11-05T14:11:21.446Z</time>
      </trkpt>
      <trkpt lat="44.07419" lon="0.48835">
        <ele>84</ele>
        <time>2025-11-05T14:11:22.446Z</time>
      </trkpt>
      <trkpt lat="44.0742" lon="0.48836">
        <ele>85</ele>
        <time>2025-11-05T14:11:23.446Z</time>
      </trkpt>
      <trkpt lat="44.07421" lon="0.48837">
        <ele>85</ele>
        <time>2025-11-05T14:11:24.446Z</time>
      </trkpt>
      <trkpt lat="44.07422" lon="0.48838">
        <ele>86</ele>
        <time>2025-11-05T14:11:25.446Z</time>
      </trkpt>
      <trkpt lat="44.07423" lon="0.48839">
        <ele>86</ele>
        <time>2025-11-05T14:11:26.446Z</time>
      </trkpt>
      <trkpt lat="44.07424" lon="0.4884">
        <ele>86</ele>
        <time>2025-11-05T14:11:27.446Z</time>
      </trkpt>
      <trkpt lat="44.07425" lon="0.48841">
        <ele>86</ele>
        <time>2025-11-05T14:11:28.446Z</time>
      </trkpt>
      <trkpt lat="44.07426" lon="0.48842">
        <ele>86</ele>
        <time>2025-11-05T14:11:29.446Z</time>
      </trkpt>
      <trkpt lat="44.07427" lon="0.48842">
        <ele>86</ele>
        <time>2025-11-05T14:11:30.446Z</time>
      </trkpt>
      <trkpt lat="44.07428" lon="0.48843">
        <ele>86</ele>
        <time>2025-11-05T14:11:31.446Z</time>
      </trkpt>
      <trkpt lat="44.07429" lon="0.48844">
        <ele>86</ele>
        <time>2025-11-05T14:11:32.446Z</time>
      </trkpt>
      <trkpt lat="44.0743" lon="0.48845">
        <ele>86</ele>
        <time>2025-11-05T14:11:33.446Z</time>
      </trkpt>
      <trkpt lat="44.07431" lon="0.48846">
        <ele>86</ele>
        <time>2025-11-05T14:11:34.446Z</time>
      </trkpt>
      <trkpt lat="44.07432" lon="0.48847">
        <ele>85</ele>
        <time>2025-11-05T14:11:35.446Z</time>
      </trkpt>
      <trkpt lat="44.07432" lon="0.48848">
        <ele>85</ele>
        <time>2025-11-05T14:11:36.446Z</time>
      </trkpt>
      <trkpt lat="44.07433" lon="0.48849">
        <ele>85</ele>
        <time>2025-11-05T14:11:37.446Z</time>
      </trkpt>
      <trkpt lat="44.07434" lon="0.4885">
        <ele>85</ele>
        <time>2025-11-05T14:11:38.446Z</time>
      </trkpt>
      <trkpt lat="44.07435" lon="0.48851">
        <ele>85</ele>
        <time>2025-11-05T14:11:39.446Z</time>
      </trkpt>
      <trkpt lat="44.07436" lon="0.48852">
        <ele>85</ele>
        <time>2025-11-05T14:11:40.446Z</time>
      </trkpt>
      <trkpt lat="44.07437" lon="0.48853">
        <ele>85</ele>
        <time>2025-11-05T14:11:41.446Z</time>
      </trkpt>
      <trkpt lat="44.07438" lon="0.48854">
        <ele>85</ele>
        <time>2025-11-05T14:11:42.446Z</time>
      </trkpt>
      <trkpt lat="44.07439" lon="0.48855">
        <ele>85</ele>
        <time>2025-11-05T14:11:43.446Z</time>
      </trkpt>
      <trkpt lat="44.07439" lon="0.48856">
        <ele>85</ele>
        <time>2025-11-05T14:11:44.446Z</time>
      </trkpt>
      <trkpt lat="44.0744" lon="0.48857">
        <ele>85</ele>
        <time>2025-11-05T14:11:45.446Z</time>
      </trkpt>
      <trkpt lat="44.07441" lon="0.48858">
        <ele>85</ele>
        <time>2025-11-05T14:11:46.446Z</time>
      </trkpt>
      <trkpt lat="44.07442" lon="0.48859">
        <ele>85</ele>
        <time>2025-11-05T14:11:47.446Z</time>
      </trkpt>
      <trkpt lat="44.07443" lon="0.4886">
        <ele>85</ele>
        <time>2025-11-05T14:11:48.446Z</time>
      </trkpt>
      <trkpt lat="44.07444" lon="0.48861">
        <ele>85</ele>
        <time>2025-11-05T14:11:49.446Z</time>
      </trkpt>
      <trkpt lat="44.07445" lon="0.48862">
        <ele>85</ele>
        <time>2025-11-05T14:11:50.446Z</time>
      </trkpt>
      <trkpt lat="44.07446" lon="0.48863">
        <ele>85</ele>
        <time>2025-11-05T14:11:51.446Z</time>
      </trkpt>
      <trkpt lat="44.07447" lon="0.48864">
        <ele>85</ele>
        <time>2025-11-05T14:11:52.446Z</time>
      </trkpt>
      <trkpt lat="44.07447" lon="0.48865">
        <ele>85</ele>
        <time>2025-11-05T14:11:53.446Z</time>
      </trkpt>
      <trkpt lat="44.07448" lon="0.48867">
        <ele>86</ele>
        <time>2025-11-05T14:11:54.446Z</time>
      </trkpt>
      <trkpt lat="44.07449" lon="0.48868">
        <ele>86</ele>
        <time>2025-11-05T14:11:55.446Z</time>
      </trkpt>
      <trkpt lat="44.0745" lon="0.48869">
        <ele>86</ele>
        <time>2025-11-05T14:11:56.446Z</time>
      </trkpt>
      <trkpt lat="44.07451" lon="0.4887">
        <ele>86</ele>
        <time>2025-11-05T14:11:57.446Z</time>
      </trkpt>
      <trkpt lat="44.07452" lon="0.48871">
        <ele>85</ele>
        <time>2025-11-05T14:11:58.446Z</time>
      </trkpt>
      <trkpt lat="44.07452" lon="0.48872">
        <ele>85</ele>
        <time>2025-11-05T14:11:59.446Z</time>
      </trkpt>
      <trkpt lat="44.07453" lon="0.48873">
        <ele>85</ele>
        <time>2025-11-05T14:12:00.446Z</time>
      </trkpt>
      <trkpt lat="44.07454" lon="0.48875">
        <ele>85</ele>
        <time>2025-11-05T14:12:01.446Z</time>
      </trkpt>
      <trkpt lat="44.07456" lon="0.48876">
        <ele>86</ele>
        <time>2025-11-05T14:12:02.446Z</time>
      </trkpt>
      <trkpt lat="44.07456" lon="0.48877">
        <ele>86</ele>
        <time>2025-11-05T14:12:03.446Z</time>
      </trkpt>
      <trkpt lat="44.07457" lon="0.48878">
        <ele>86</ele>
        <time>2025-11-05T14:12:04.446Z</time>
      </trkpt>
      <trkpt lat="44.07458" lon="0.48879">
        <ele>87</ele>
        <time>2025-11-05T14:12:05.446Z</time>
      </trkpt>
      <trkpt lat="44.07458" lon="0.4888">
        <ele>87</ele>
        <time>2025-11-05T14:12:06.446Z</time>
      </trkpt>
      <trkpt lat="44.07459" lon="0.48882">
        <ele>87</ele>
        <time>2025-11-05T14:12:07.446Z</time>
      </trkpt>
      <trkpt lat="44.0746" lon="0.48883">
        <ele>87</ele>
        <time>2025-11-05T14:12:08.446Z</time>
      </trkpt>
      <trkpt lat="44.07461" lon="0.48885">
        <ele>87</ele>
        <time>2025-11-05T14:12:09.446Z</time>
      </trkpt>
      <trkpt lat="44.07462" lon="0.48887">
        <ele>87</ele>
        <time>2025-11-05T14:12:10.446Z</time>
      </trkpt>
      <trkpt lat="44.07462" lon="0.48888">
        <ele>87</ele>
        <time>2025-11-05T14:12:11.446Z</time>
      </trkpt>
      <trkpt lat="44.07463" lon="0.48889">
        <ele>87</ele>
        <time>2025-11-05T14:12:12.446Z</time>
      </trkpt>
      <trkpt lat="44.07463" lon="0.48891">
        <ele>87</ele>
        <time>2025-11-05T14:12:13.446Z</time>
      </trkpt>
      <trkpt lat="44.07464" lon="0.48892">
        <ele>87</ele>
        <time>2025-11-05T14:12:14.446Z</time>
      </trkpt>
      <trkpt lat="44.07465" lon="0.48893">
        <ele>87</ele>
        <time>2025-11-05T14:12:15.446Z</time>
      </trkpt>
      <trkpt lat="44.07465" lon="0.48895">
        <ele>87</ele>
        <time>2025-11-05T14:12:16.446Z</time>
      </trkpt>
      <trkpt lat="44.07466" lon="0.48896">
        <ele>87</ele>
        <time>2025-11-05T14:12:17.446Z</time>
      </trkpt>
      <trkpt lat="44.07467" lon="0.48897">
        <ele>87</ele>
        <time>2025-11-05T14:12:18.446Z</time>
      </trkpt>
      <trkpt lat="44.07467" lon="0.48898">
        <ele>87</ele>
        <time>2025-11-05T14:12:19.446Z</time>
      </trkpt>
      <trkpt lat="44.07468" lon="0.489">
        <ele>87</ele>
        <time>2025-11-05T14:12:20.446Z</time>
      </trkpt>
      <trkpt lat="44.07468" lon="0.48901">
        <ele>88</ele>
        <time>2025-11-05T14:12:21.446Z</time>
      </trkpt>
      <trkpt lat="44.07469" lon="0.48902">
        <ele>88</ele>
        <time>2025-11-05T14:12:22.446Z</time>
      </trkpt>
      <trkpt lat="44.0747" lon="0.48904">
        <ele>88</ele>
        <time>2025-11-05T14:12:23.447Z</time>
      </trkpt>
      <trkpt lat="44.0747" lon="0.48905">
        <ele>88</ele>
        <time>2025-11-05T14:12:24.446Z</time>
      </trkpt>
      <trkpt lat="44.07471" lon="0.48906">
        <ele>88</ele>
        <time>2025-11-05T14:12:25.446Z</time>
      </trkpt>
      <trkpt lat="44.07471" lon="0.48907">
        <ele>88</ele>
        <time>2025-11-05T14:12:26.446Z</time>
      </trkpt>
      <trkpt lat="44.07472" lon="0.48909">
        <ele>89</ele>
        <time>2025-11-05T14:12:27.446Z</time>
      </trkpt>
      <trkpt lat="44.07473" lon="0.4891">
        <ele>89</ele>
        <time>2025-11-05T14:12:28.446Z</time>
      </trkpt>
      <trkpt lat="44.07474" lon="0.48911">
        <ele>89</ele>
        <time>2025-11-05T14:12:29.446Z</time>
      </trkpt>
      <trkpt lat="44.07474" lon="0.48912">
        <ele>89</ele>
        <time>2025-11-05T14:12:30.446Z</time>
      </trkpt>
      <trkpt lat="44.07475" lon="0.48913">
        <ele>89</ele>
        <time>2025-11-05T14:12:31.446Z</time>
      </trkpt>
      <trkpt lat="44.07476" lon="0.48915">
        <ele>89</ele>
        <time>2025-11-05T14:12:32.446Z</time>
      </trkpt>
      <trkpt lat="44.07476" lon="0.48916">
        <ele>89</ele>
        <time>2025-11-05T14:12:33.446Z</time>
      </trkpt>
      <trkpt lat="44.07477" lon="0.48918">
        <ele>89</ele>
        <time>2025-11-05T14:12:34.446Z</time>
      </trkpt>
      <trkpt lat="44.07477" lon="0.48919">
        <ele>89</ele>
        <time>2025-11-05T14:12:35.446Z</time>
      </trkpt>
      <trkpt lat="44.07478" lon="0.4892">
        <ele>89</ele>
        <time>2025-11-05T14:12:36.446Z</time>
      </trkpt>
      <trkpt lat="44.07478" lon="0.48921">
        <ele>88</ele>
        <time>2025-11-05T14:12:37.446Z</time>
      </trkpt>
      <trkpt lat="44.07479" lon="0.48922">
        <ele>88</ele>
        <time>2025-11-05T14:12:38.446Z</time>
      </trkpt>
      <trkpt lat="44.0748" lon="0.48922">
        <ele>88</ele>
        <time>2025-11-05T14:12:39.446Z</time>
      </trkpt>
      <trkpt lat="44.0748" lon="0.48923">
        <ele>88</ele>
        <time>2025-11-05T14:12:40.446Z</time>
      </trkpt>
      <trkpt lat="44.07481" lon="0.48924">
        <ele>88</ele>
        <time>2025-11-05T14:12:41.446Z</time>
      </trkpt>
      <trkpt lat="44.07481" lon="0.48924">
        <ele>88</ele>
        <time>2025-11-05T14:12:42.446Z</time>
      </trkpt>
      <trkpt lat="44.07481" lon="0.48924">
        <ele>88</ele>
        <time>2025-11-05T14:12:43.446Z</time>
      </trkpt>
      <trkpt lat="44.07481" lon="0.48925">
        <ele>88</ele>
        <time>2025-11-05T14:12:44.446Z</time>
      </trkpt>
      <trkpt lat="44.07481" lon="0.48925">
        <ele>88</ele>
        <time>2025-11-05T14:12:45.446Z</time>
      </trkpt>
      <trkpt lat="44.07481" lon="0.48925">
        <ele>87</ele>
        <time>2025-11-05T14:12:46.446Z</time>
      </trkpt>
      <trkpt lat="44.07481" lon="0.48925">
        <ele>87</ele>
        <time>2025-11-05T14:12:47.446Z</time>
      </trkpt>
      <trkpt lat="44.07481" lon="0.48925">
        <ele>88</ele>
        <time>2025-11-05T14:12:48.446Z</time>
      </trkpt>
      <trkpt lat="44.07481" lon="0.48925">
        <ele>88</ele>
        <time>2025-11-05T14:12:49.446Z</time>
      </trkpt>
      <trkpt lat="44.07481" lon="0.48925">
        <ele>88</ele>
        <time>2025-11-05T14:12:50.446Z</time>
      </trkpt>
      <trkpt lat="44.07481" lon="0.48925">
        <ele>89</ele>
        <time>2025-11-05T14:12:51.446Z</time>
      </trkpt>
      <trkpt lat="44.07481" lon="0.48925">
        <ele>89</ele>
        <time>2025-11-05T14:12:52.446Z</time>
      </trkpt>
      <trkpt lat="44.07481" lon="0.48925">
        <ele>90</ele>
        <time>2025-11-05T14:12:53.446Z</time>
      </trkpt>
      <trkpt lat="44.07481" lon="0.48925">
        <ele>90</ele>
        <time>2025-11-05T14:12:54.446Z</time>
      </trkpt>
      <trkpt lat="44.07481" lon="0.48925">
        <ele>91</ele>
        <time>2025-11-05T14:12:55.446Z</time>
      </trkpt>
      <trkpt lat="44.07481" lon="0.48925">
        <ele>91</ele>
        <time>2025-11-05T14:12:56.446Z</time>
      </trkpt>
      <trkpt lat="44.07481" lon="0.48925">
        <ele>92</ele>
        <time>2025-11-05T14:12:57.446Z</time>
      </trkpt>
      <trkpt lat="44.07481" lon="0.48925">
        <ele>92</ele>
        <time>2025-11-05T14:12:58.446Z</time>
      </trkpt>
      <trkpt lat="44.07481" lon="0.48925">
        <ele>93</ele>
        <time>2025-11-05T14:12:59.446Z</time>
      </trkpt>
      <trkpt lat="44.07481" lon="0.48925">
        <ele>93</ele>
        <time>2025-11-05T14:13:00.446Z</time>
      </trkpt>
      <trkpt lat="44.07481" lon="0.48925">
        <ele>93</ele>
        <time>2025-11-05T14:13:01.446Z</time>
      </trkpt>
      <trkpt lat="44.07481" lon="0.48925">
        <ele>93</ele>
        <time>2025-11-05T14:13:02.446Z</time>
      </trkpt>
      <trkpt lat="44.07481" lon="0.48925">
        <ele>92</ele>
        <time>2025-11-05T14:13:03.446Z</time>
      </trkpt>
      <trkpt lat="44.07481" lon="0.48925">
        <ele>92</ele>
        <time>2025-11-05T14:13:04.446Z</time>
      </trkpt>
      <trkpt lat="44.07481" lon="0.48925">
        <ele>91</ele>
        <time>2025-11-05T14:13:05.446Z</time>
      </trkpt>
      <trkpt lat="44.07481" lon="0.48925">
        <ele>91</ele>
        <time>2025-11-05T14:13:06.446Z</time>
      </trkpt>
      <trkpt lat="44.07481" lon="0.48925">
        <ele>90</ele>
        <time>2025-11-05T14:13:07.446Z</time>
      </trkpt>
      <trkpt lat="44.07481" lon="0.48925">
        <ele>89</ele>
        <time>2025-11-05T14:13:08.446Z</time>
      </trkpt>
      <trkpt lat="44.07481" lon="0.48925">
        <ele>89</ele>
        <time>2025-11-05T14:13:09.446Z</time>
      </trkpt>
      <trkpt lat="44.07481" lon="0.48925">
        <ele>89</ele>
        <time>2025-11-05T14:13:10.446Z</time>
      </trkpt>
      <trkpt lat="44.07481" lon="0.48925">
        <ele>89</ele>
        <time>2025-11-05T14:13:11.446Z</time>
      </trkpt>
      <trkpt lat="44.07481" lon="0.48925">
        <ele>89</ele>
        <time>2025-11-05T14:13:12.446Z</time>
      </trkpt>
      <trkpt lat="44.0748" lon="0.48925">
        <ele>89</ele>
        <time>2025-11-05T14:13:13.446Z</time>
      </trkpt>
      <trkpt lat="44.0748" lon="0.48925">
        <ele>89</ele>
        <time>2025-11-05T14:13:14.446Z</time>
      </trkpt>
      <trkpt lat="44.0748" lon="0.48925">
        <ele>89</ele>
        <time>2025-11-05T14:13:15.446Z</time>
      </trkpt>
      <trkpt lat="44.0748" lon="0.48925">
        <ele>89</ele>
        <time>2025-11-05T14:13:16.446Z</time>
      </trkpt>
      <trkpt lat="44.0748" lon="0.48925">
        <ele>88</ele>
        <time>2025-11-05T14:13:17.446Z</time>
      </trkpt>
      <trkpt lat="44.07481" lon="0.48925">
        <ele>88</ele>
        <time>2025-11-05T14:13:18.446Z</time>
      </trkpt>
      <trkpt lat="44.07481" lon="0.48925">
        <ele>88</ele>
        <time>2025-11-05T14:13:19.446Z</time>
      </trkpt>
      <trkpt lat="44.07481" lon="0.48925">
        <ele>88</ele>
        <time>2025-11-05T14:13:20.446Z</time>
      </trkpt>
      <trkpt lat="44.07481" lon="0.48925">
        <ele>88</ele>
        <time>2025-11-05T14:13:21.446Z</time>
      </trkpt>
      <trkpt lat="44.07481" lon="0.48925">
        <ele>88</ele>
        <time>2025-11-05T14:13:22.446Z</time>
      </trkpt>
      <trkpt lat="44.0748" lon="0.48925">
        <ele>88</ele>
        <time>2025-11-05T14:13:23.446Z</time>
      </trkpt>
      <trkpt lat="44.0748" lon="0.48925">
        <ele>88</ele>
        <time>2025-11-05T14:13:24.446Z</time>
      </trkpt>
      <trkpt lat="44.0748" lon="0.48926">
        <ele>88</ele>
        <time>2025-11-05T14:13:25.446Z</time>
      </trkpt>
      <trkpt lat="44.0748" lon="0.48926">
        <ele>88</ele>
        <time>2025-11-05T14:13:26.446Z</time>
      </trkpt>
      <trkpt lat="44.0748" lon="0.48926">
        <ele>87</ele>
        <time>2025-11-05T14:13:27.446Z</time>
      </trkpt>
      <trkpt lat="44.0748" lon="0.48926">
        <ele>87</ele>
        <time>2025-11-05T14:13:28.446Z</time>
      </trkpt>
      <trkpt lat="44.0748" lon="0.48926">
        <ele>87</ele>
        <time>2025-11-05T14:13:29.446Z</time>
      </trkpt>
      <trkpt lat="44.0748" lon="0.48926">
        <ele>87</ele>
        <time>2025-11-05T14:13:30.446Z</time>
      </trkpt>
      <trkpt lat="44.0748" lon="0.48926">
        <ele>87</ele>
        <time>2025-11-05T14:13:31.446Z</time>
      </trkpt>
      <trkpt lat="44.0748" lon="0.48925">
        <ele>87</ele>
        <time>2025-11-05T14:13:32.446Z</time>
      </trkpt>
      <trkpt lat="44.0748" lon="0.48925">
        <ele>88</ele>
        <time>2025-11-05T14:13:33.446Z</time>
      </trkpt>
      <trkpt lat="44.0748" lon="0.48925">
        <ele>88</ele>
        <time>2025-11-05T14:13:34.446Z</time>
      </trkpt>
      <trkpt lat="44.0748" lon="0.48925">
        <ele>88</ele>
        <time>2025-11-05T14:13:35.446Z</time>
      </trkpt>
      <trkpt lat="44.0748" lon="0.48925">
        <ele>89</ele>
        <time>2025-11-05T14:13:36.446Z</time>
      </trkpt>
      <trkpt lat="44.0748" lon="0.48925">
        <ele>89</ele>
        <time>2025-11-05T14:13:37.446Z</time>
      </trkpt>
      <trkpt lat="44.0748" lon="0.48925">
        <ele>89</ele>
        <time>2025-11-05T14:13:38.446Z</time>
      </trkpt>
      <trkpt lat="44.0748" lon="0.48925">
        <ele>90</ele>
        <time>2025-11-05T14:13:39.446Z</time>
      </trkpt>
      <trkpt lat="44.0748" lon="0.48925">
        <ele>90</ele>
        <time>2025-11-05T14:13:40.446Z</time>
      </trkpt>
      <trkpt lat="44.0748" lon="0.48926">
        <ele>90</ele>
        <time>2025-11-05T14:13:41.446Z</time>
      </trkpt>
      <trkpt lat="44.0748" lon="0.48925">
        <ele>90</ele>
        <time>2025-11-05T14:13:42.446Z</time>
      </trkpt>
      <trkpt lat="44.0748" lon="0.48925">
        <ele>90</ele>
        <time>2025-11-05T14:13:43.446Z</time>
      </trkpt>
      <trkpt lat="44.0748" lon="0.48926">
        <ele>91</ele>
        <time>2025-11-05T14:13:44.446Z</time>
      </trkpt>
      <trkpt lat="44.0748" lon="0.48925">
        <ele>91</ele>
        <time>2025-11-05T14:13:45.446Z</time>
      </trkpt>
      <trkpt lat="44.0748" lon="0.48925">
        <ele>91</ele>
        <time>2025-11-05T14:13:46.446Z</time>
      </trkpt>
      <trkpt lat="44.0748" lon="0.48926">
        <ele>92</ele>
        <time>2025-11-05T14:13:47.446Z</time>
      </trkpt>
      <trkpt lat="44.0748" lon="0.48926">
        <ele>92</ele>
        <time>2025-11-05T14:13:48.446Z</time>
      </trkpt>
      <trkpt lat="44.0748" lon="0.48926">
        <ele>92</ele>
        <time>2025-11-05T14:13:49.446Z</time>
      </trkpt>
      <trkpt lat="44.0748" lon="0.48926">
        <ele>92</ele>
        <time>2025-11-05T14:13:50.446Z</time>
      </trkpt>
      <trkpt lat="44.0748" lon="0.48925">
        <ele>92</ele>
        <time>2025-11-05T14:13:51.446Z</time>
      </trkpt>
      <trkpt lat="44.0748" lon="0.48925">
        <ele>93</ele>
        <time>2025-11-05T14:13:52.446Z</time>
      </trkpt>
      <trkpt lat="44.0748" lon="0.48925">
        <ele>93</ele>
        <time>2025-11-05T14:13:53.446Z</time>
      </trkpt>
      <trkpt lat="44.0748" lon="0.48925">
        <ele>93</ele>
        <time>2025-11-05T14:13:54.446Z</time>
      </trkpt>
      <trkpt lat="44.0748" lon="0.48925">
        <ele>93</ele>
        <time>2025-11-05T14:13:55.446Z</time>
      </trkpt>
      <trkpt lat="44.0748" lon="0.48925">
        <ele>94</ele>
        <time>2025-11-05T14:13:56.446Z</time>
      </trkpt>
      <trkpt lat="44.0748" lon="0.48925">
        <ele>94</ele>
        <time>2025-11-05T14:13:57.446Z</time>
      </trkpt>
      <trkpt lat="44.0748" lon="0.48925">
        <ele>94</ele>
        <time>2025-11-05T14:13:58.446Z</time>
      </trkpt>
      <trkpt lat="44.0748" lon="0.48925">
        <ele>95</ele>
        <time>2025-11-05T14:13:59.446Z</time>
      </trkpt>
      <trkpt lat="44.0748" lon="0.48925">
        <ele>95</ele>
        <time>2025-11-05T14:14:00.446Z</time>
      </trkpt>
      <trkpt lat="44.0748" lon="0.48926">
        <ele>95</ele>
        <time>2025-11-05T14:14:01.446Z</time>
      </trkpt>
      <trkpt lat="44.0748" lon="0.48925">
        <ele>95</ele>
        <time>2025-11-05T14:14:02.446Z</time>
      </trkpt>
      <trkpt lat="44.0748" lon="0.48925">
        <ele>95</ele>
        <time>2025-11-05T14:14:03.446Z</time>
      </trkpt>
      <trkpt lat="44.0748" lon="0.48925">
        <ele>94</ele>
        <time>2025-11-05T14:14:04.446Z</time>
      </trkpt>
      <trkpt lat="44.0748" lon="0.48925">
        <ele>93</ele>
        <time>2025-11-05T14:14:05.446Z</time>
      </trkpt>
      <trkpt lat="44.0748" lon="0.48926">
        <ele>93</ele>
        <time>2025-11-05T14:14:06.446Z</time>
      </trkpt>
      <trkpt lat="44.0748" lon="0.48926">
        <ele>92</ele>
        <time>2025-11-05T14:14:07.446Z</time>
      </trkpt>
      <trkpt lat="44.0748" lon="0.48926">
        <ele>92</ele>
        <time>2025-11-05T14:14:08.446Z</time>
      </trkpt>
      <trkpt lat="44.0748" lon="0.48925">
        <ele>92</ele>
        <time>2025-11-05T14:14:09.446Z</time>
      </trkpt>
      <trkpt lat="44.0748" lon="0.48925">
        <ele>91</ele>
        <time>2025-11-05T14:14:10.446Z</time>
      </trkpt>
      <trkpt lat="44.0748" lon="0.48925">
        <ele>91</ele>
        <time>2025-11-05T14:14:11.446Z</time>
      </trkpt>
      <trkpt lat="44.0748" lon="0.48925">
        <ele>91</ele>
        <time>2025-11-05T14:14:12.446Z</time>
      </trkpt>
      <trkpt lat="44.0748" lon="0.48925">
        <ele>90</ele>
        <time>2025-11-05T14:14:13.446Z</time>
      </trkpt>
      <trkpt lat="44.0748" lon="0.48925">
        <ele>90</ele>
        <time>2025-11-05T14:14:14.446Z</time>
      </trkpt>
      <trkpt lat="44.0748" lon="0.48925">
        <ele>90</ele>
        <time>2025-11-05T14:14:15.446Z</time>
      </trkpt>
      <trkpt lat="44.0748" lon="0.48925">
        <ele>89</ele>
        <time>2025-11-05T14:14:16.446Z</time>
      </trkpt>
      <trkpt lat="44.0748" lon="0.48925">
        <ele>89</ele>
        <time>2025-11-05T14:14:17.446Z</time>
      </trkpt>
      <trkpt lat="44.07481" lon="0.48925">
        <ele>89</ele>
        <time>2025-11-05T14:14:18.446Z</time>
      </trkpt>
      <trkpt lat="44.0748" lon="0.48925">
        <ele>88</ele>
        <time>2025-11-05T14:14:19.446Z</time>
      </trkpt>
      <trkpt lat="44.0748" lon="0.48925">
        <ele>88</ele>
        <time>2025-11-05T14:14:20.446Z</time>
      </trkpt>
      <trkpt lat="44.0748" lon="0.48925">
        <ele>88</ele>
        <time>2025-11-05T14:14:21.446Z</time>
      </trkpt>
      <trkpt lat="44.0748" lon="0.48925">
        <ele>88</ele>
        <time>2025-11-05T14:14:22.446Z</time>
      </trkpt>
      <trkpt lat="44.0748" lon="0.48925">
        <ele>88</ele>
        <time>2025-11-05T14:14:23.446Z</time>
      </trkpt>
      <trkpt lat="44.0748" lon="0.48924">
        <ele>88</ele>
        <time>2025-11-05T14:14:24.446Z</time>
      </trkpt>
      <trkpt lat="44.07481" lon="0.48924">
        <ele>88</ele>
        <time>2025-11-05T14:14:25.446Z</time>
      </trkpt>
      <trkpt lat="44.07481" lon="0.48923">
        <ele>88</ele>
        <time>2025-11-05T14:14:26.446Z</time>
      </trkpt>
      <trkpt lat="44.07481" lon="0.48923">
        <ele>88</ele>
        <time>2025-11-05T14:14:27.447Z</time>
      </trkpt>
      <trkpt lat="44.07481" lon="0.48923">
        <ele>89</ele>
        <time>2025-11-05T14:14:28.447Z</time>
      </trkpt>
      <trkpt lat="44.07481" lon="0.48923">
        <ele>89</ele>
        <time>2025-11-05T14:14:29.446Z</time>
      </trkpt>
      <trkpt lat="44.07481" lon="0.48923">
        <ele>89</ele>
        <time>2025-11-05T14:14:30.446Z</time>
      </trkpt>
      <trkpt lat="44.07481" lon="0.48923">
        <ele>89</ele>
        <time>2025-11-05T14:14:31.446Z</time>
      </trkpt>
      <trkpt lat="44.07481" lon="0.48923">
        <ele>89</ele>
        <time>2025-11-05T14:14:32.446Z</time>
      </trkpt>
      <trkpt lat="44.07481" lon="0.48923">
        <ele>89</ele>
        <time>2025-11-05T14:14:33.446Z</time>
      </trkpt>
      <trkpt lat="44.07481" lon="0.48923">
        <ele>89</ele>
        <time>2025-11-05T14:14:34.446Z</time>
      </trkpt>
      <trkpt lat="44.07481" lon="0.48923">
        <ele>89</ele>
        <time>2025-11-05T14:14:35.446Z</time>
      </trkpt>
      <trkpt lat="44.07481" lon="0.48923">
        <ele>89</ele>
        <time>2025-11-05T14:14:36.446Z</time>
      </trkpt>
      <trkpt lat="44.07481" lon="0.48923">
        <ele>90</ele>
        <time>2025-11-05T14:14:37.446Z</time>
      </trkpt>
      <trkpt lat="44.07481" lon="0.48923">
        <ele>90</ele>
        <time>2025-11-05T14:14:38.446Z</time>
      </trkpt>
      <trkpt lat="44.07481" lon="0.48923">
        <ele>90</ele>
        <time>2025-11-05T14:14:39.446Z</time>
      </trkpt>
      <trkpt lat="44.07481" lon="0.48923">
        <ele>89</ele>
        <time>2025-11-05T14:14:40.446Z</time>
      </trkpt>
      <trkpt lat="44.07481" lon="0.48922">
        <ele>89</ele>
        <time>2025-11-05T14:14:41.446Z</time>
      </trkpt>
      <trkpt lat="44.07481" lon="0.48922">
        <ele>89</ele>
        <time>2025-11-05T14:14:42.446Z</time>
      </trkpt>
      <trkpt lat="44.07481" lon="0.48922">
        <ele>90</ele>
        <time>2025-11-05T14:14:43.446Z</time>
      </trkpt>
      <trkpt lat="44.07481" lon="0.48922">
        <ele>90</ele>
        <time>2025-11-05T14:14:44.446Z</time>
      </trkpt>
      <trkpt lat="44.07482" lon="0.48922">
        <ele>90</ele>
        <time>2025-11-05T14:14:45.446Z</time>
      </trkpt>
      <trkpt lat="44.07482" lon="0.48922">
        <ele>90</ele>
        <time>2025-11-05T14:14:46.446Z</time>
      </trkpt>
      <trkpt lat="44.07481" lon="0.48922">
        <ele>90</ele>
        <time>2025-11-05T14:14:47.446Z</time>
      </trkpt>
      <trkpt lat="44.07481" lon="0.48922">
        <ele>90</ele>
        <time>2025-11-05T14:14:48.446Z</time>
      </trkpt>
      <trkpt lat="44.07481" lon="0.48922">
        <ele>90</ele>
        <time>2025-11-05T14:14:49.446Z</time>
      </trkpt>
      <trkpt lat="44.07481" lon="0.48922">
        <ele>90</ele>
        <time>2025-11-05T14:14:50.446Z</time>
      </trkpt>
      <trkpt lat="44.07481" lon="0.48922">
        <ele>90</ele>
        <time>2025-11-05T14:14:51.446Z</time>
      </trkpt>
      <trkpt lat="44.07481" lon="0.48922">
        <ele>90</ele>
        <time>2025-11-05T14:14:52.446Z</time>
      </trkpt>
      <trkpt lat="44.07481" lon="0.48922">
        <ele>90</ele>
        <time>2025-11-05T14:14:53.446Z</time>
      </trkpt>
      <trkpt lat="44.07481" lon="0.48922">
        <ele>90</ele>
        <time>2025-11-05T14:14:54.446Z</time>
      </trkpt>
      <trkpt lat="44.07481" lon="0.48922">
        <ele>90</ele>
        <time>2025-11-05T14:14:55.446Z</time>
      </trkpt>
      <trkpt lat="44.07481" lon="0.48922">
        <ele>90</ele>
        <time>2025-11-05T14:14:56.446Z</time>
      </trkpt>
      <trkpt lat="44.07481" lon="0.48922">
        <ele>90</ele>
        <time>2025-11-05T14:14:57.446Z</time>
      </trkpt>
      <trkpt lat="44.07481" lon="0.48922">
        <ele>90</ele>
        <time>2025-11-05T14:14:58.446Z</time>
      </trkpt>
      <trkpt lat="44.07481" lon="0.48922">
        <ele>89</ele>
        <time>2025-11-05T14:14:59.446Z</time>
      </trkpt>
      <trkpt lat="44.07481" lon="0.48923">
        <ele>89</ele>
        <time>2025-11-05T14:15:00.446Z</time>
      </trkpt>
      <trkpt lat="44.07481" lon="0.48923">
        <ele>89</ele>
        <time>2025-11-05T14:15:01.446Z</time>
      </trkpt>
      <trkpt lat="44.07481" lon="0.48923">
        <ele>89</ele>
        <time>2025-11-05T14:15:02.446Z</time>
      </trkpt>
      <trkpt lat="44.07481" lon="0.48923">
        <ele>89</ele>
        <time>2025-11-05T14:15:03.446Z</time>
      </trkpt>
      <trkpt lat="44.07481" lon="0.48923">
        <ele>89</ele>
        <time>2025-11-05T14:15:04.446Z</time>
      </trkpt>
      <trkpt lat="44.07481" lon="0.48923">
        <ele>89</ele>
        <time>2025-11-05T14:15:05.446Z</time>
      </trkpt>
      <trkpt lat="44.07481" lon="0.48923">
        <ele>89</ele>
        <time>2025-11-05T14:15:06.446Z</time>
      </trkpt>
      <trkpt lat="44.0748" lon="0.48923">
        <ele>90</ele>
        <time>2025-11-05T14:15:07.446Z</time>
      </trkpt>
      <trkpt lat="44.0748" lon="0.48923">
        <ele>90</ele>
        <time>2025-11-05T14:15:08.446Z</time>
      </trkpt>
      <trkpt lat="44.0748" lon="0.48923">
        <ele>90</ele>
        <time>2025-11-05T14:15:09.446Z</time>
      </trkpt>
      <trkpt lat="44.07481" lon="0.48923">
        <ele>90</ele>
        <time>2025-11-05T14:15:10.446Z</time>
      </trkpt>
      <trkpt lat="44.0748" lon="0.48923">
        <ele>90</ele>
        <time>2025-11-05T14:15:11.446Z</time>
      </trkpt>
      <trkpt lat="44.0748" lon="0.48923">
        <ele>90</ele>
        <time>2025-11-05T14:15:12.447Z</time>
      </trkpt>
      <trkpt lat="44.0748" lon="0.48923">
        <ele>90</ele>
        <time>2025-11-05T14:15:13.446Z</time>
      </trkpt>
      <trkpt lat="44.0748" lon="0.48923">
        <ele>90</ele>
        <time>2025-11-05T14:15:14.446Z</time>
      </trkpt>
      <trkpt lat="44.0748" lon="0.48923">
        <ele>89</ele>
        <time>2025-11-05T14:15:15.446Z</time>
      </trkpt>
      <trkpt lat="44.0748" lon="0.48923">
        <ele>89</ele>
        <time>2025-11-05T14:15:16.446Z</time>
      </trkpt>
      <trkpt lat="44.0748" lon="0.48923">
        <ele>89</ele>
        <time>2025-11-05T14:15:17.446Z</time>
      </trkpt>
      <trkpt lat="44.0748" lon="0.48923">
        <ele>89</ele>
        <time>2025-11-05T14:15:18.446Z</time>
      </trkpt>
      <trkpt lat="44.0748" lon="0.48923">
        <ele>89</ele>
        <time>2025-11-05T14:15:19.446Z</time>
      </trkpt>
      <trkpt lat="44.0748" lon="0.48923">
        <ele>89</ele>
        <time>2025-11-05T14:15:20.446Z</time>
      </trkpt>
      <trkpt lat="44.0748" lon="0.48923">
        <ele>90</ele>
        <time>2025-11-05T14:15:21.446Z</time>
      </trkpt>
      <trkpt lat="44.0748" lon="0.48923">
        <ele>90</ele>
        <time>2025-11-05T14:15:22.446Z</time>
      </trkpt>
      <trkpt lat="44.0748" lon="0.48923">
        <ele>90</ele>
        <time>2025-11-05T14:15:23.446Z</time>
      </trkpt>
      <trkpt lat="44.0748" lon="0.48923">
        <ele>90</ele>
        <time>2025-11-05T14:15:24.446Z</time>
      </trkpt>
      <trkpt lat="44.0748" lon="0.48923">
        <ele>91</ele>
        <time>2025-11-05T14:15:25.446Z</time>
      </trkpt>
      <trkpt lat="44.0748" lon="0.48923">
        <ele>91</ele>
        <time>2025-11-05T14:15:26.446Z</time>
      </trkpt>
      <trkpt lat="44.0748" lon="0.48923">
        <ele>91</ele>
        <time>2025-11-05T14:15:27.446Z</time>
      </trkpt>
      <trkpt lat="44.0748" lon="0.48923">
        <ele>92</ele>
        <time>2025-11-05T14:15:28.446Z</time>
      </trkpt>
      <trkpt lat="44.0748" lon="0.48923">
        <ele>92</ele>
        <time>2025-11-05T14:15:29.446Z</time>
      </trkpt>
      <trkpt lat="44.0748" lon="0.48923">
        <ele>92</ele>
        <time>2025-11-05T14:15:30.446Z</time>
      </trkpt>
      <trkpt lat="44.0748" lon="0.48923">
        <ele>92</ele>
        <time>2025-11-05T14:15:31.446Z</time>
      </trkpt>
      <trkpt lat="44.0748" lon="0.48923">
        <ele>93</ele>
        <time>2025-11-05T14:15:32.446Z</time>
      </trkpt>
      <trkpt lat="44.0748" lon="0.48923">
        <ele>93</ele>
        <time>2025-11-05T14:15:33.446Z</time>
      </trkpt>
      <trkpt lat="44.0748" lon="0.48923">
        <ele>93</ele>
        <time>2025-11-05T14:15:34.446Z</time>
      </trkpt>
      <trkpt lat="44.0748" lon="0.48923">
        <ele>93</ele>
        <time>2025-11-05T14:15:35.446Z</time>
      </trkpt>
      <trkpt lat="44.0748" lon="0.48923">
        <ele>93</ele>
        <time>2025-11-05T14:15:36.446Z</time>
      </trkpt>
      <trkpt lat="44.0748" lon="0.48923">
        <ele>93</ele>
        <time>2025-11-05T14:15:37.446Z</time>
      </trkpt>
      <trkpt lat="44.0748" lon="0.48923">
        <ele>93</ele>
        <time>2025-11-05T14:15:38.446Z</time>
      </trkpt>
      <trkpt lat="44.0748" lon="0.48923">
        <ele>93</ele>
        <time>2025-11-05T14:15:39.446Z</time>
      </trkpt>
      <trkpt lat="44.07481" lon="0.48923">
        <ele>93</ele>
        <time>2025-11-05T14:15:40.446Z</time>
      </trkpt>
      <trkpt lat="44.07481" lon="0.48923">
        <ele>92</ele>
        <time>2025-11-05T14:15:41.446Z</time>
      </trkpt>
      <trkpt lat="44.07481" lon="0.48923">
        <ele>92</ele>
        <time>2025-11-05T14:15:42.446Z</time>
      </trkpt>
      <trkpt lat="44.07481" lon="0.48923">
        <ele>92</ele>
        <time>2025-11-05T14:15:43.446Z</time>
      </trkpt>
      <trkpt lat="44.07481" lon="0.48923">
        <ele>91</ele>
        <time>2025-11-05T14:15:44.446Z</time>
      </trkpt>
      <trkpt lat="44.07481" lon="0.48923">
        <ele>91</ele>
        <time>2025-11-05T14:15:45.446Z</time>
      </trkpt>
      <trkpt lat="44.07481" lon="0.48923">
        <ele>91</ele>
        <time>2025-11-05T14:15:46.446Z</time>
      </trkpt>
      <trkpt lat="44.07481" lon="0.48923">
        <ele>90</ele>
        <time>2025-11-05T14:15:47.446Z</time>
      </trkpt>
      <trkpt lat="44.07481" lon="0.48923">
        <ele>90</ele>
        <time>2025-11-05T14:15:48.446Z</time>
      </trkpt>
      <trkpt lat="44.07481" lon="0.48923">
        <ele>90</ele>
        <time>2025-11-05T14:15:49.446Z</time>
      </trkpt>
      <trkpt lat="44.07481" lon="0.48924">
        <ele>89</ele>
        <time>2025-11-05T14:15:50.446Z</time>
      </trkpt>
      <trkpt lat="44.07481" lon="0.48925">
        <ele>89</ele>
        <time>2025-11-05T14:15:51.446Z</time>
      </trkpt>
      <trkpt lat="44.07481" lon="0.48925">
        <ele>89</ele>
        <time>2025-11-05T14:15:52.446Z</time>
      </trkpt>
      <trkpt lat="44.07481" lon="0.48926">
        <ele>89</ele>
        <time>2025-11-05T14:15:53.446Z</time>
      </trkpt>
      <trkpt lat="44.07481" lon="0.48926">
        <ele>89</ele>
        <time>2025-11-05T14:15:54.446Z</time>
      </trkpt>
      <trkpt lat="44.07481" lon="0.48926">
        <ele>90</ele>
        <time>2025-11-05T14:15:55.446Z</time>
      </trkpt>
      <trkpt lat="44.07481" lon="0.48926">
        <ele>89</ele>
        <time>2025-11-05T14:15:56.446Z</time>
      </trkpt>
      <trkpt lat="44.07481" lon="0.48926">
        <ele>89</ele>
        <time>2025-11-05T14:15:57.446Z</time>
      </trkpt>
      <trkpt lat="44.07481" lon="0.48927">
        <ele>89</ele>
        <time>2025-11-05T14:15:58.446Z</time>
      </trkpt>
      <trkpt lat="44.07481" lon="0.48927">
        <ele>90</ele>
        <time>2025-11-05T14:15:59.446Z</time>
      </trkpt>
      <trkpt lat="44.07481" lon="0.48927">
        <ele>90</ele>
        <time>2025-11-05T14:16:00.446Z</time>
      </trkpt>
      <trkpt lat="44.07481" lon="0.48927">
        <ele>90</ele>
        <time>2025-11-05T14:16:01.446Z</time>
      </trkpt>
      <trkpt lat="44.07481" lon="0.48927">
        <ele>90</ele>
        <time>2025-11-05T14:16:02.446Z</time>
      </trkpt>
      <trkpt lat="44.07481" lon="0.48927">
        <ele>90</ele>
        <time>2025-11-05T14:16:03.446Z</time>
      </trkpt>
      <trkpt lat="44.07481" lon="0.48927">
        <ele>89</ele>
        <time>2025-11-05T14:16:04.446Z</time>
      </trkpt>
      <trkpt lat="44.07481" lon="0.48926">
        <ele>89</ele>
        <time>2025-11-05T14:16:05.446Z</time>
      </trkpt>
      <trkpt lat="44.07481" lon="0.48926">
        <ele>89</ele>
        <time>2025-11-05T14:16:06.446Z</time>
      </trkpt>
      <trkpt lat="44.07481" lon="0.48926">
        <ele>89</ele>
        <time>2025-11-05T14:16:07.446Z</time>
      </trkpt>
      <trkpt lat="44.07481" lon="0.48926">
        <ele>88</ele>
        <time>2025-11-05T14:16:08.446Z</time>
      </trkpt>
      <trkpt lat="44.07481" lon="0.48926">
        <ele>88</ele>
        <time>2025-11-05T14:16:09.446Z</time>
      </trkpt>
      <trkpt lat="44.07481" lon="0.48926">
        <ele>87</ele>
        <time>2025-11-05T14:16:10.446Z</time>
      </trkpt>
      <trkpt lat="44.07482" lon="0.48926">
        <ele>87</ele>
        <time>2025-11-05T14:16:11.446Z</time>
      </trkpt>
      <trkpt lat="44.07482" lon="0.48926">
        <ele>86</ele>
        <time>2025-11-05T14:16:12.446Z</time>
      </trkpt>
      <trkpt lat="44.07482" lon="0.48926">
        <ele>86</ele>
        <time>2025-11-05T14:16:13.446Z</time>
      </trkpt>
      <trkpt lat="44.07482" lon="0.48926">
        <ele>86</ele>
        <time>2025-11-05T14:16:14.446Z</time>
      </trkpt>
      <trkpt lat="44.07482" lon="0.48926">
        <ele>86</ele>
        <time>2025-11-05T14:16:15.446Z</time>
      </trkpt>
      <trkpt lat="44.07482" lon="0.48926">
        <ele>85</ele>
        <time>2025-11-05T14:16:16.446Z</time>
      </trkpt>
      <trkpt lat="44.07482" lon="0.48926">
        <ele>85</ele>
        <time>2025-11-05T14:16:17.446Z</time>
      </trkpt>
      <trkpt lat="44.07482" lon="0.48926">
        <ele>85</ele>
        <time>2025-11-05T14:16:18.446Z</time>
      </trkpt>
      <trkpt lat="44.07481" lon="0.48926">
        <ele>85</ele>
        <time>2025-11-05T14:16:19.446Z</time>
      </trkpt>
      <trkpt lat="44.07481" lon="0.48926">
        <ele>85</ele>
        <time>2025-11-05T14:16:20.446Z</time>
      </trkpt>
      <trkpt lat="44.07481" lon="0.48926">
        <ele>85</ele>
        <time>2025-11-05T14:16:21.446Z</time>
      </trkpt>
      <trkpt lat="44.07481" lon="0.48927">
        <ele>85</ele>
        <time>2025-11-05T14:16:22.446Z</time>
      </trkpt>
      <trkpt lat="44.07481" lon="0.48927">
        <ele>85</ele>
        <time>2025-11-05T14:16:23.446Z</time>
      </trkpt>
      <trkpt lat="44.07481" lon="0.48927">
        <ele>86</ele>
        <time>2025-11-05T14:16:24.446Z</time>
      </trkpt>
      <trkpt lat="44.07481" lon="0.48927">
        <ele>86</ele>
        <time>2025-11-05T14:16:25.446Z</time>
      </trkpt>
      <trkpt lat="44.07481" lon="0.48927">
        <ele>86</ele>
        <time>2025-11-05T14:16:26.446Z</time>
      </trkpt>
      <trkpt lat="44.07481" lon="0.48926">
        <ele>86</ele>
        <time>2025-11-05T14:16:27.446Z</time>
      </trkpt>
      <trkpt lat="44.07481" lon="0.48926">
        <ele>86</ele>
        <time>2025-11-05T14:16:28.446Z</time>
      </trkpt>
      <trkpt lat="44.07481" lon="0.48926">
        <ele>86</ele>
        <time>2025-11-05T14:16:29.446Z</time>
      </trkpt>
      <trkpt lat="44.07481" lon="0.48927">
        <ele>86</ele>
        <time>2025-11-05T14:16:30.446Z</time>
      </trkpt>
      <trkpt lat="44.07481" lon="0.48927">
        <ele>86</ele>
        <time>2025-11-05T14:16:31.446Z</time>
      </trkpt>
      <trkpt lat="44.07481" lon="0.48926">
        <ele>85</ele>
        <time>2025-11-05T14:16:32.446Z</time>
      </trkpt>
      <trkpt lat="44.07481" lon="0.48926">
        <ele>85</ele>
        <time>2025-11-05T14:16:33.446Z</time>
      </trkpt>
      <trkpt lat="44.07481" lon="0.48926">
        <ele>84</ele>
        <time>2025-11-05T14:16:34.446Z</time>
      </trkpt>
      <trkpt lat="44.07481" lon="0.48926">
        <ele>84</ele>
        <time>2025-11-05T14:16:35.446Z</time>
      </trkpt>
      <trkpt lat="44.07481" lon="0.48926">
        <ele>83</ele>
        <time>2025-11-05T14:16:36.446Z</time>
      </trkpt>
      <trkpt lat="44.07481" lon="0.48926">
        <ele>83</ele>
        <time>2025-11-05T14:16:37.446Z</time>
      </trkpt>
      <trkpt lat="44.07481" lon="0.48926">
        <ele>83</ele>
        <time>2025-11-05T14:16:38.446Z</time>
      </trkpt>
      <trkpt lat="44.07481" lon="0.48926">
        <ele>83</ele>
        <time>2025-11-05T14:16:39.446Z</time>
      </trkpt>
      <trkpt lat="44.07481" lon="0.48926">
        <ele>83</ele>
        <time>2025-11-05T14:16:40.446Z</time>
      </trkpt>
      <trkpt lat="44.07481" lon="0.48926">
        <ele>83</ele>
        <time>2025-11-05T14:16:41.446Z</time>
      </trkpt>
      <trkpt lat="44.07481" lon="0.48926">
        <ele>83</ele>
        <time>2025-11-05T14:16:42.446Z</time>
      </trkpt>
      <trkpt lat="44.07481" lon="0.48925">
        <ele>83</ele>
        <time>2025-11-05T14:16:43.446Z</time>
      </trkpt>
      <trkpt lat="44.07481" lon="0.48925">
        <ele>84</ele>
        <time>2025-11-05T14:16:44.446Z</time>
      </trkpt>
      <trkpt lat="44.07481" lon="0.48925">
        <ele>84</ele>
        <time>2025-11-05T14:16:45.446Z</time>
      </trkpt>
      <trkpt lat="44.07481" lon="0.48925">
        <ele>84</ele>
        <time>2025-11-05T14:16:46.446Z</time>
      </trkpt>
      <trkpt lat="44.07481" lon="0.48925">
        <ele>85</ele>
        <time>2025-11-05T14:16:47.446Z</time>
      </trkpt>
      <trkpt lat="44.07481" lon="0.48925">
        <ele>85</ele>
        <time>2025-11-05T14:16:48.446Z</time>
      </trkpt>
      <trkpt lat="44.07481" lon="0.48925">
        <ele>85</ele>
        <time>2025-11-05T14:16:49.446Z</time>
      </trkpt>
      <trkpt lat="44.07481" lon="0.48925">
        <ele>85</ele>
        <time>2025-11-05T14:16:50.446Z</time>
      </trkpt>
      <trkpt lat="44.07481" lon="0.48925">
        <ele>85</ele>
        <time>2025-11-05T14:16:51.446Z</time>
      </trkpt>
      <trkpt lat="44.07481" lon="0.48925">
        <ele>85</ele>
        <time>2025-11-05T14:16:52.446Z</time>
      </trkpt>
      <trkpt lat="44.07481" lon="0.48925">
        <ele>84</ele>
        <time>2025-11-05T14:16:53.446Z</time>
      </trkpt>
      <trkpt lat="44.07481" lon="0.48925">
        <ele>84</ele>
        <time>2025-11-05T14:16:54.446Z</time>
      </trkpt>
      <trkpt lat="44.07481" lon="0.48925">
        <ele>84</ele>
        <time>2025-11-05T14:16:55.446Z</time>
      </trkpt>
      <trkpt lat="44.07481" lon="0.48925">
        <ele>84</ele>
        <time>2025-11-05T14:16:56.446Z</time>
      </trkpt>
      <trkpt lat="44.07481" lon="0.48925">
        <ele>84</ele>
        <time>2025-11-05T14:16:57.446Z</time>
      </trkpt>
      <trkpt lat="44.07481" lon="0.48925">
        <ele>84</ele>
        <time>2025-11-05T14:16:58.446Z</time>
      </trkpt>
      <trkpt lat="44.07481" lon="0.48925">
        <ele>84</ele>
        <time>2025-11-05T14:16:59.446Z</time>
      </trkpt>
      <trkpt lat="44.07481" lon="0.48925">
        <ele>84</ele>
        <time>2025-11-05T14:17:00.446Z</time>
      </trkpt>
      <trkpt lat="44.07481" lon="0.48925">
        <ele>84</ele>
        <time>2025-11-05T14:17:01.446Z</time>
      </trkpt>
      <trkpt lat="44.07481" lon="0.48925">
        <ele>84</ele>
        <time>2025-11-05T14:17:02.446Z</time>
      </trkpt>
      <trkpt lat="44.07481" lon="0.48925">
        <ele>84</ele>
        <time>2025-11-05T14:17:03.446Z</time>
      </trkpt>
      <trkpt lat="44.07481" lon="0.48925">
        <ele>84</ele>
        <time>2025-11-05T14:17:04.446Z</time>
      </trkpt>
      <trkpt lat="44.07481" lon="0.48925">
        <ele>84</ele>
        <time>2025-11-05T14:17:05.446Z</time>
      </trkpt>
      <trkpt lat="44.07481" lon="0.48925">
        <ele>85</ele>
        <time>2025-11-05T14:17:06.446Z</time>
      </trkpt>
      <trkpt lat="44.07482" lon="0.48925">
        <ele>85</ele>
        <time>2025-11-05T14:17:07.446Z</time>
      </trkpt>
      <trkpt lat="44.07482" lon="0.48925">
        <ele>85</ele>
        <time>2025-11-05T14:17:08.446Z</time>
      </trkpt>
      <trkpt lat="44.07482" lon="0.48925">
        <ele>85</ele>
        <time>2025-11-05T14:17:09.446Z</time>
      </trkpt>
      <trkpt lat="44.07482" lon="0.48925">
        <ele>85</ele>
        <time>2025-11-05T14:17:10.446Z</time>
      </trkpt>
      <trkpt lat="44.07482" lon="0.48925">
        <ele>85</ele>
        <time>2025-11-05T14:17:11.446Z</time>
      </trkpt>
      <trkpt lat="44.07481" lon="0.48925">
        <ele>84</ele>
        <time>2025-11-05T14:17:12.446Z</time>
      </trkpt>
      <trkpt lat="44.07481" lon="0.48925">
        <ele>84</ele>
        <time>2025-11-05T14:17:13.446Z</time>
      </trkpt>
      <trkpt lat="44.07481" lon="0.48925">
        <ele>84</ele>
        <time>2025-11-05T14:17:14.446Z</time>
      </trkpt>
      <trkpt lat="44.07481" lon="0.48925">
        <ele>84</ele>
        <time>2025-11-05T14:17:15.446Z</time>
      </trkpt>
      <trkpt lat="44.07481" lon="0.48925">
        <ele>84</ele>
        <time>2025-11-05T14:17:16.446Z</time>
      </trkpt>
      <trkpt lat="44.07482" lon="0.48925">
        <ele>84</ele>
        <time>2025-11-05T14:17:17.446Z</time>
      </trkpt>
      <trkpt lat="44.07482" lon="0.48925">
        <ele>84</ele>
        <time>2025-11-05T14:17:18.446Z</time>
      </trkpt>
      <trkpt lat="44.07482" lon="0.48925">
        <ele>84</ele>
        <time>2025-11-05T14:17:19.446Z</time>
      </trkpt>
      <trkpt lat="44.07482" lon="0.48925">
        <ele>84</ele>
        <time>2025-11-05T14:17:20.446Z</time>
      </trkpt>
      <trkpt lat="44.07482" lon="0.48925">
        <ele>84</ele>
        <time>2025-11-05T14:17:21.446Z</time>
      </trkpt>
      <trkpt lat="44.07482" lon="0.48925">
        <ele>84</ele>
        <time>2025-11-05T14:17:22.446Z</time>
      </trkpt>
      <trkpt lat="44.07482" lon="0.48925">
        <ele>84</ele>
        <time>2025-11-05T14:17:23.446Z</time>
      </trkpt>
      <trkpt lat="44.07482" lon="0.48925">
        <ele>84</ele>
        <time>2025-11-05T14:17:24.446Z</time>
      </trkpt>
      <trkpt lat="44.07482" lon="0.48925">
        <ele>84</ele>
        <time>2025-11-05T14:17:25.446Z</time>
      </trkpt>
      <trkpt lat="44.07482" lon="0.48925">
        <ele>84</ele>
        <time>2025-11-05T14:17:26.446Z</time>
      </trkpt>
      <trkpt lat="44.07482" lon="0.48925">
        <ele>84</ele>
        <time>2025-11-05T14:17:27.446Z</time>
      </trkpt>
      <trkpt lat="44.07482" lon="0.48925">
        <ele>84</ele>
        <time>2025-11-05T14:17:28.446Z</time>
      </trkpt>
      <trkpt lat="44.07482" lon="0.48925">
        <ele>84</ele>
        <time>2025-11-05T14:17:29.446Z</time>
      </trkpt>
      <trkpt lat="44.07482" lon="0.48925">
        <ele>84</ele>
        <time>2025-11-05T14:17:30.446Z</time>
      </trkpt>
      <trkpt lat="44.07482" lon="0.48925">
        <ele>84</ele>
        <time>2025-11-05T14:17:31.446Z</time>
      </trkpt>
      <trkpt lat="44.07482" lon="0.48925">
        <ele>84</ele>
        <time>2025-11-05T14:17:32.446Z</time>
      </trkpt>
      <trkpt lat="44.07482" lon="0.48926">
        <ele>85</ele>
        <time>2025-11-05T14:17:33.446Z</time>
      </trkpt>
      <trkpt lat="44.07482" lon="0.48926">
        <ele>85</ele>
        <time>2025-11-05T14:17:34.446Z</time>
      </trkpt>
      <trkpt lat="44.07482" lon="0.48926">
        <ele>85</ele>
        <time>2025-11-05T14:17:35.446Z</time>
      </trkpt>
      <trkpt lat="44.07481" lon="0.48925">
        <ele>85</ele>
        <time>2025-11-05T14:17:36.446Z</time>
      </trkpt>
      <trkpt lat="44.07481" lon="0.48925">
        <ele>85</ele>
        <time>2025-11-05T14:17:37.446Z</time>
      </trkpt>
      <trkpt lat="44.07481" lon="0.48925">
        <ele>86</ele>
        <time>2025-11-05T14:17:38.446Z</time>
      </trkpt>
      <trkpt lat="44.07481" lon="0.48925">
        <ele>86</ele>
        <time>2025-11-05T14:17:39.446Z</time>
      </trkpt>
      <trkpt lat="44.07481" lon="0.48925">
        <ele>86</ele>
        <time>2025-11-05T14:17:40.446Z</time>
      </trkpt>
      <trkpt lat="44.07481" lon="0.48925">
        <ele>86</ele>
        <time>2025-11-05T14:17:41.446Z</time>
      </trkpt>
      <trkpt lat="44.07482" lon="0.48925">
        <ele>86</ele>
        <time>2025-11-05T14:17:42.446Z</time>
      </trkpt>
      <trkpt lat="44.07482" lon="0.48924">
        <ele>86</ele>
        <time>2025-11-05T14:17:43.446Z</time>
      </trkpt>
      <trkpt lat="44.07482" lon="0.48924">
        <ele>86</ele>
        <time>2025-11-05T14:17:44.446Z</time>
      </trkpt>
      <trkpt lat="44.07483" lon="0.48923">
        <ele>86</ele>
        <time>2025-11-05T14:17:45.446Z</time>
      </trkpt>
      <trkpt lat="44.07484" lon="0.48922">
        <ele>86</ele>
        <time>2025-11-05T14:17:46.446Z</time>
      </trkpt>
      <trkpt lat="44.07485" lon="0.48921">
        <ele>87</ele>
        <time>2025-11-05T14:17:47.446Z</time>
      </trkpt>
      <trkpt lat="44.07486" lon="0.48921">
        <ele>87</ele>
        <time>2025-11-05T14:17:48.446Z</time>
      </trkpt>
      <trkpt lat="44.07486" lon="0.4892">
        <ele>87</ele>
        <time>2025-11-05T14:17:49.446Z</time>
      </trkpt>
      <trkpt lat="44.07487" lon="0.48919">
        <ele>88</ele>
        <time>2025-11-05T14:17:50.446Z</time>
      </trkpt>
      <trkpt lat="44.07488" lon="0.48918">
        <ele>88</ele>
        <time>2025-11-05T14:17:51.446Z</time>
      </trkpt>
      <trkpt lat="44.07489" lon="0.48917">
        <ele>88</ele>
        <time>2025-11-05T14:17:52.446Z</time>
      </trkpt>
      <trkpt lat="44.0749" lon="0.48916">
        <ele>88</ele>
        <time>2025-11-05T14:17:53.446Z</time>
      </trkpt>
      <trkpt lat="44.0749" lon="0.48914">
        <ele>89</ele>
        <time>2025-11-05T14:17:54.446Z</time>
      </trkpt>
      <trkpt lat="44.07491" lon="0.48913">
        <ele>89</ele>
        <time>2025-11-05T14:17:55.446Z</time>
      </trkpt>
      <trkpt lat="44.07492" lon="0.48912">
        <ele>89</ele>
        <time>2025-11-05T14:17:56.446Z</time>
      </trkpt>
      <trkpt lat="44.07492" lon="0.4891">
        <ele>89</ele>
        <time>2025-11-05T14:17:57.446Z</time>
      </trkpt>
      <trkpt lat="44.07493" lon="0.48909">
        <ele>89</ele>
        <time>2025-11-05T14:17:58.446Z</time>
      </trkpt>
      <trkpt lat="44.07493" lon="0.48908">
        <ele>89</ele>
        <time>2025-11-05T14:17:59.446Z</time>
      </trkpt>
      <trkpt lat="44.07494" lon="0.48906">
        <ele>89</ele>
        <time>2025-11-05T14:18:00.446Z</time>
      </trkpt>
      <trkpt lat="44.07494" lon="0.48905">
        <ele>89</ele>
        <time>2025-11-05T14:18:01.446Z</time>
      </trkpt>
      <trkpt lat="44.07495" lon="0.48904">
        <ele>89</ele>
        <time>2025-11-05T14:18:02.446Z</time>
      </trkpt>
      <trkpt lat="44.07496" lon="0.48903">
        <ele>89</ele>
        <time>2025-11-05T14:18:03.446Z</time>
      </trkpt>
      <trkpt lat="44.07497" lon="0.48901">
        <ele>89</ele>
        <time>2025-11-05T14:18:04.446Z</time>
      </trkpt>
      <trkpt lat="44.07497" lon="0.489">
        <ele>89</ele>
        <time>2025-11-05T14:18:05.446Z</time>
      </trkpt>
      <trkpt lat="44.07498" lon="0.48899">
        <ele>90</ele>
        <time>2025-11-05T14:18:06.446Z</time>
      </trkpt>
      <trkpt lat="44.07498" lon="0.48897">
        <ele>90</ele>
        <time>2025-11-05T14:18:07.446Z</time>
      </trkpt>
      <trkpt lat="44.07499" lon="0.48896">
        <ele>90</ele>
        <time>2025-11-05T14:18:08.446Z</time>
      </trkpt>
      <trkpt lat="44.07499" lon="0.48894">
        <ele>90</ele>
        <time>2025-11-05T14:18:09.446Z</time>
      </trkpt>
      <trkpt lat="44.07499" lon="0.48892">
        <ele>90</ele>
        <time>2025-11-05T14:18:10.446Z</time>
      </trkpt>
      <trkpt lat="44.075" lon="0.48891">
        <ele>90</ele>
        <time>2025-11-05T14:18:11.446Z</time>
      </trkpt>
      <trkpt lat="44.075" lon="0.4889">
        <ele>90</ele>
        <time>2025-11-05T14:18:12.446Z</time>
      </trkpt>
      <trkpt lat="44.07501" lon="0.48888">
        <ele>90</ele>
        <time>2025-11-05T14:18:13.446Z</time>
      </trkpt>
      <trkpt lat="44.07501" lon="0.48887">
        <ele>90</ele>
        <time>2025-11-05T14:18:14.446Z</time>
      </trkpt>
      <trkpt lat="44.07501" lon="0.48886">
        <ele>90</ele>
        <time>2025-11-05T14:18:15.446Z</time>
      </trkpt>
      <trkpt lat="44.07502" lon="0.48884">
        <ele>89</ele>
        <time>2025-11-05T14:18:16.447Z</time>
      </trkpt>
      <trkpt lat="44.07502" lon="0.48882">
        <ele>89</ele>
        <time>2025-11-05T14:18:17.446Z</time>
      </trkpt>
      <trkpt lat="44.07503" lon="0.4888">
        <ele>89</ele>
        <time>2025-11-05T14:18:18.446Z</time>
      </trkpt>
      <trkpt lat="44.07504" lon="0.48879">
        <ele>89</ele>
        <time>2025-11-05T14:18:19.446Z</time>
      </trkpt>
      <trkpt lat="44.07504" lon="0.48877">
        <ele>89</ele>
        <time>2025-11-05T14:18:20.446Z</time>
      </trkpt>
      <trkpt lat="44.07505" lon="0.48876">
        <ele>89</ele>
        <time>2025-11-05T14:18:21.446Z</time>
      </trkpt>
      <trkpt lat="44.07505" lon="0.48875">
        <ele>89</ele>
        <time>2025-11-05T14:18:22.446Z</time>
      </trkpt>
      <trkpt lat="44.07506" lon="0.48873">
        <ele>89</ele>
        <time>2025-11-05T14:18:23.446Z</time>
      </trkpt>
      <trkpt lat="44.07506" lon="0.48872">
        <ele>89</ele>
        <time>2025-11-05T14:18:24.446Z</time>
      </trkpt>
      <trkpt lat="44.07507" lon="0.4887">
        <ele>89</ele>
        <time>2025-11-05T14:18:25.446Z</time>
      </trkpt>
      <trkpt lat="44.07507" lon="0.48869">
        <ele>89</ele>
        <time>2025-11-05T14:18:26.446Z</time>
      </trkpt>
      <trkpt lat="44.07507" lon="0.48868">
        <ele>89</ele>
        <time>2025-11-05T14:18:27.446Z</time>
      </trkpt>
      <trkpt lat="44.07508" lon="0.48867">
        <ele>89</ele>
        <time>2025-11-05T14:18:28.446Z</time>
      </trkpt>
      <trkpt lat="44.07508" lon="0.48866">
        <ele>90</ele>
        <time>2025-11-05T14:18:29.446Z</time>
      </trkpt>
      <trkpt lat="44.07508" lon="0.48864">
        <ele>90</ele>
        <time>2025-11-05T14:18:30.446Z</time>
      </trkpt>
      <trkpt lat="44.07509" lon="0.48863">
        <ele>90</ele>
        <time>2025-11-05T14:18:31.446Z</time>
      </trkpt>
      <trkpt lat="44.07509" lon="0.48862">
        <ele>89</ele>
        <time>2025-11-05T14:18:32.446Z</time>
      </trkpt>
      <trkpt lat="44.0751" lon="0.48861">
        <ele>89</ele>
        <time>2025-11-05T14:18:33.446Z</time>
      </trkpt>
      <trkpt lat="44.0751" lon="0.48859">
        <ele>89</ele>
        <time>2025-11-05T14:18:34.446Z</time>
      </trkpt>
      <trkpt lat="44.0751" lon="0.48858">
        <ele>89</ele>
        <time>2025-11-05T14:18:35.446Z</time>
      </trkpt>
      <trkpt lat="44.07511" lon="0.48856">
        <ele>89</ele>
        <time>2025-11-05T14:18:36.446Z</time>
      </trkpt>
      <trkpt lat="44.07511" lon="0.48855">
        <ele>88</ele>
        <time>2025-11-05T14:18:37.446Z</time>
      </trkpt>
      <trkpt lat="44.07512" lon="0.48854">
        <ele>88</ele>
        <time>2025-11-05T14:18:38.446Z</time>
      </trkpt>
      <trkpt lat="44.07512" lon="0.48853">
        <ele>88</ele>
        <time>2025-11-05T14:18:39.446Z</time>
      </trkpt>
      <trkpt lat="44.07513" lon="0.48851">
        <ele>88</ele>
        <time>2025-11-05T14:18:40.446Z</time>
      </trkpt>
      <trkpt lat="44.07513" lon="0.4885">
        <ele>88</ele>
        <time>2025-11-05T14:18:41.446Z</time>
      </trkpt>
      <trkpt lat="44.07513" lon="0.48849">
        <ele>87</ele>
        <time>2025-11-05T14:18:42.446Z</time>
      </trkpt>
      <trkpt lat="44.07514" lon="0.48847">
        <ele>87</ele>
        <time>2025-11-05T14:18:43.446Z</time>
      </trkpt>
      <trkpt lat="44.07515" lon="0.48846">
        <ele>87</ele>
        <time>2025-11-05T14:18:44.446Z</time>
      </trkpt>
      <trkpt lat="44.07515" lon="0.48845">
        <ele>86</ele>
        <time>2025-11-05T14:18:45.446Z</time>
      </trkpt>
      <trkpt lat="44.07516" lon="0.48844">
        <ele>86</ele>
        <time>2025-11-05T14:18:46.446Z</time>
      </trkpt>
      <trkpt lat="44.07516" lon="0.48842">
        <ele>85</ele>
        <time>2025-11-05T14:18:47.446Z</time>
      </trkpt>
      <trkpt lat="44.07517" lon="0.48841">
        <ele>85</ele>
        <time>2025-11-05T14:18:48.446Z</time>
      </trkpt>
      <trkpt lat="44.07518" lon="0.48839">
        <ele>85</ele>
        <time>2025-11-05T14:18:49.446Z</time>
      </trkpt>
      <trkpt lat="44.07518" lon="0.48838">
        <ele>85</ele>
        <time>2025-11-05T14:18:50.446Z</time>
      </trkpt>
      <trkpt lat="44.07519" lon="0.48837">
        <ele>85</ele>
        <time>2025-11-05T14:18:51.446Z</time>
      </trkpt>
      <trkpt lat="44.0752" lon="0.48836">
        <ele>84</ele>
        <time>2025-11-05T14:18:52.446Z</time>
      </trkpt>
      <trkpt lat="44.07521" lon="0.48835">
        <ele>84</ele>
        <time>2025-11-05T14:18:53.446Z</time>
      </trkpt>
      <trkpt lat="44.07522" lon="0.48834">
        <ele>84</ele>
        <time>2025-11-05T14:18:54.447Z</time>
      </trkpt>
      <trkpt lat="44.07523" lon="0.48833">
        <ele>84</ele>
        <time>2025-11-05T14:18:55.446Z</time>
      </trkpt>
      <trkpt lat="44.07524" lon="0.48832">
        <ele>83</ele>
        <time>2025-11-05T14:18:56.446Z</time>
      </trkpt>
      <trkpt lat="44.07524" lon="0.48831">
        <ele>83</ele>
        <time>2025-11-05T14:18:57.446Z</time>
      </trkpt>
      <trkpt lat="44.07525" lon="0.4883">
        <ele>83</ele>
        <time>2025-11-05T14:18:58.446Z</time>
      </trkpt>
      <trkpt lat="44.07526" lon="0.48829">
        <ele>83</ele>
        <time>2025-11-05T14:18:59.446Z</time>
      </trkpt>
      <trkpt lat="44.07527" lon="0.48828">
        <ele>83</ele>
        <time>2025-11-05T14:19:00.446Z</time>
      </trkpt>
      <trkpt lat="44.07529" lon="0.48827">
        <ele>83</ele>
        <time>2025-11-05T14:19:01.446Z</time>
      </trkpt>
      <trkpt lat="44.0753" lon="0.48826">
        <ele>83</ele>
        <time>2025-11-05T14:19:02.446Z</time>
      </trkpt>
      <trkpt lat="44.07532" lon="0.48826">
        <ele>84</ele>
        <time>2025-11-05T14:19:03.446Z</time>
      </trkpt>
      <trkpt lat="44.07533" lon="0.48826">
        <ele>84</ele>
        <time>2025-11-05T14:19:04.446Z</time>
      </trkpt>
      <trkpt lat="44.07534" lon="0.48825">
        <ele>84</ele>
        <time>2025-11-05T14:19:05.446Z</time>
      </trkpt>
      <trkpt lat="44.07535" lon="0.48825">
        <ele>84</ele>
        <time>2025-11-05T14:19:06.446Z</time>
      </trkpt>
      <trkpt lat="44.07537" lon="0.48825">
        <ele>84</ele>
        <time>2025-11-05T14:19:07.446Z</time>
      </trkpt>
      <trkpt lat="44.07538" lon="0.48825">
        <ele>84</ele>
        <time>2025-11-05T14:19:08.446Z</time>
      </trkpt>
      <trkpt lat="44.07539" lon="0.48825">
        <ele>84</ele>
        <time>2025-11-05T14:19:09.446Z</time>
      </trkpt>
      <trkpt lat="44.0754" lon="0.48825">
        <ele>84</ele>
        <time>2025-11-05T14:19:10.446Z</time>
      </trkpt>
      <trkpt lat="44.07541" lon="0.48825">
        <ele>84</ele>
        <time>2025-11-05T14:19:11.446Z</time>
      </trkpt>
      <trkpt lat="44.07543" lon="0.48825">
        <ele>84</ele>
        <time>2025-11-05T14:19:12.446Z</time>
      </trkpt>
      <trkpt lat="44.07544" lon="0.48826">
        <ele>84</ele>
        <time>2025-11-05T14:19:13.446Z</time>
      </trkpt>
      <trkpt lat="44.07545" lon="0.48826">
        <ele>84</ele>
        <time>2025-11-05T14:19:14.446Z</time>
      </trkpt>
      <trkpt lat="44.07546" lon="0.48827">
        <ele>84</ele>
        <time>2025-11-05T14:19:15.446Z</time>
      </trkpt>
      <trkpt lat="44.07547" lon="0.48827">
        <ele>84</ele>
        <time>2025-11-05T14:19:16.446Z</time>
      </trkpt>
      <trkpt lat="44.07548" lon="0.48827">
        <ele>84</ele>
        <time>2025-11-05T14:19:17.446Z</time>
      </trkpt>
      <trkpt lat="44.07549" lon="0.48827">
        <ele>84</ele>
        <time>2025-11-05T14:19:18.446Z</time>
      </trkpt>
      <trkpt lat="44.07551" lon="0.48827">
        <ele>84</ele>
        <time>2025-11-05T14:19:19.446Z</time>
      </trkpt>
      <trkpt lat="44.07552" lon="0.48828">
        <ele>85</ele>
        <time>2025-11-05T14:19:20.446Z</time>
      </trkpt>
      <trkpt lat="44.07553" lon="0.48828">
        <ele>85</ele>
        <time>2025-11-05T14:19:21.446Z</time>
      </trkpt>
      <trkpt lat="44.07554" lon="0.48828">
        <ele>85</ele>
        <time>2025-11-05T14:19:22.446Z</time>
      </trkpt>
      <trkpt lat="44.07556" lon="0.48828">
        <ele>85</ele>
        <time>2025-11-05T14:19:23.446Z</time>
      </trkpt>
      <trkpt lat="44.07557" lon="0.48828">
        <ele>85</ele>
        <time>2025-11-05T14:19:24.446Z</time>
      </trkpt>
      <trkpt lat="44.07557" lon="0.48829">
        <ele>85</ele>
        <time>2025-11-05T14:19:25.446Z</time>
      </trkpt>
      <trkpt lat="44.07559" lon="0.48829">
        <ele>84</ele>
        <time>2025-11-05T14:19:26.446Z</time>
      </trkpt>
      <trkpt lat="44.0756" lon="0.48829">
        <ele>84</ele>
        <time>2025-11-05T14:19:27.446Z</time>
      </trkpt>
      <trkpt lat="44.07561" lon="0.4883">
        <ele>84</ele>
        <time>2025-11-05T14:19:28.446Z</time>
      </trkpt>
      <trkpt lat="44.07563" lon="0.4883">
        <ele>84</ele>
        <time>2025-11-05T14:19:29.446Z</time>
      </trkpt>
      <trkpt lat="44.07564" lon="0.48831">
        <ele>84</ele>
        <time>2025-11-05T14:19:30.446Z</time>
      </trkpt>
      <trkpt lat="44.07565" lon="0.48831">
        <ele>85</ele>
        <time>2025-11-05T14:19:31.446Z</time>
      </trkpt>
      <trkpt lat="44.07566" lon="0.48831">
        <ele>85</ele>
        <time>2025-11-05T14:19:32.446Z</time>
      </trkpt>
      <trkpt lat="44.07567" lon="0.48831">
        <ele>85</ele>
        <time>2025-11-05T14:19:33.446Z</time>
      </trkpt>
      <trkpt lat="44.07568" lon="0.48832">
        <ele>86</ele>
        <time>2025-11-05T14:19:34.446Z</time>
      </trkpt>
      <trkpt lat="44.0757" lon="0.48832">
        <ele>86</ele>
        <time>2025-11-05T14:19:35.446Z</time>
      </trkpt>
      <trkpt lat="44.07571" lon="0.48833">
        <ele>86</ele>
        <time>2025-11-05T14:19:36.446Z</time>
      </trkpt>
      <trkpt lat="44.07572" lon="0.48833">
        <ele>86</ele>
        <time>2025-11-05T14:19:37.446Z</time>
      </trkpt>
      <trkpt lat="44.07574" lon="0.48833">
        <ele>85</ele>
        <time>2025-11-05T14:19:38.446Z</time>
      </trkpt>
      <trkpt lat="44.07575" lon="0.48834">
        <ele>85</ele>
        <time>2025-11-05T14:19:39.446Z</time>
      </trkpt>
      <trkpt lat="44.07576" lon="0.48834">
        <ele>85</ele>
        <time>2025-11-05T14:19:40.446Z</time>
      </trkpt>
      <trkpt lat="44.07577" lon="0.48834">
        <ele>85</ele>
        <time>2025-11-05T14:19:41.446Z</time>
      </trkpt>
      <trkpt lat="44.07578" lon="0.48834">
        <ele>85</ele>
        <time>2025-11-05T14:19:42.446Z</time>
      </trkpt>
      <trkpt lat="44.07579" lon="0.48834">
        <ele>85</ele>
        <time>2025-11-05T14:19:43.446Z</time>
      </trkpt>
      <trkpt lat="44.07581" lon="0.48835">
        <ele>85</ele>
        <time>2025-11-05T14:19:44.446Z</time>
      </trkpt>
      <trkpt lat="44.07582" lon="0.48835">
        <ele>86</ele>
        <time>2025-11-05T14:19:45.446Z</time>
      </trkpt>
      <trkpt lat="44.07583" lon="0.48835">
        <ele>86</ele>
        <time>2025-11-05T14:19:46.446Z</time>
      </trkpt>
      <trkpt lat="44.07584" lon="0.48835">
        <ele>86</ele>
        <time>2025-11-05T14:19:47.446Z</time>
      </trkpt>
      <trkpt lat="44.07586" lon="0.48836">
        <ele>86</ele>
        <time>2025-11-05T14:19:48.446Z</time>
      </trkpt>
      <trkpt lat="44.07587" lon="0.48836">
        <ele>86</ele>
        <time>2025-11-05T14:19:49.446Z</time>
      </trkpt>
      <trkpt lat="44.07588" lon="0.48837">
        <ele>86</ele>
        <time>2025-11-05T14:19:50.446Z</time>
      </trkpt>
      <trkpt lat="44.07589" lon="0.48837">
        <ele>86</ele>
        <time>2025-11-05T14:19:51.446Z</time>
      </trkpt>
      <trkpt lat="44.0759" lon="0.48837">
        <ele>86</ele>
        <time>2025-11-05T14:19:52.446Z</time>
      </trkpt>
      <trkpt lat="44.07591" lon="0.48838">
        <ele>85</ele>
        <time>2025-11-05T14:19:53.446Z</time>
      </trkpt>
      <trkpt lat="44.07593" lon="0.48838">
        <ele>85</ele>
        <time>2025-11-05T14:19:54.446Z</time>
      </trkpt>
      <trkpt lat="44.07594" lon="0.48838">
        <ele>85</ele>
        <time>2025-11-05T14:19:55.446Z</time>
      </trkpt>
      <trkpt lat="44.07595" lon="0.48838">
        <ele>85</ele>
        <time>2025-11-05T14:19:56.446Z</time>
      </trkpt>
      <trkpt lat="44.07596" lon="0.48838">
        <ele>86</ele>
        <time>2025-11-05T14:19:57.446Z</time>
      </trkpt>
      <trkpt lat="44.07597" lon="0.48839">
        <ele>86</ele>
        <time>2025-11-05T14:19:58.446Z</time>
      </trkpt>
      <trkpt lat="44.07598" lon="0.48839">
        <ele>86</ele>
        <time>2025-11-05T14:19:59.446Z</time>
      </trkpt>
      <trkpt lat="44.076" lon="0.48839">
        <ele>86</ele>
        <time>2025-11-05T14:20:00.446Z</time>
      </trkpt>
      <trkpt lat="44.07601" lon="0.48839">
        <ele>86</ele>
        <time>2025-11-05T14:20:01.446Z</time>
      </trkpt>
      <trkpt lat="44.07602" lon="0.48839">
        <ele>86</ele>
        <time>2025-11-05T14:20:02.446Z</time>
      </trkpt>
      <trkpt lat="44.07603" lon="0.48839">
        <ele>86</ele>
        <time>2025-11-05T14:20:03.446Z</time>
      </trkpt>
      <trkpt lat="44.07605" lon="0.48839">
        <ele>86</ele>
        <time>2025-11-05T14:20:04.446Z</time>
      </trkpt>
      <trkpt lat="44.07606" lon="0.48839">
        <ele>86</ele>
        <time>2025-11-05T14:20:05.446Z</time>
      </trkpt>
      <trkpt lat="44.07607" lon="0.48839">
        <ele>86</ele>
        <time>2025-11-05T14:20:06.446Z</time>
      </trkpt>
      <trkpt lat="44.07608" lon="0.48838">
        <ele>86</ele>
        <time>2025-11-05T14:20:07.446Z</time>
      </trkpt>
      <trkpt lat="44.07609" lon="0.48838">
        <ele>85</ele>
        <time>2025-11-05T14:20:08.446Z</time>
      </trkpt>
      <trkpt lat="44.0761" lon="0.48838">
        <ele>85</ele>
        <time>2025-11-05T14:20:09.446Z</time>
      </trkpt>
      <trkpt lat="44.07611" lon="0.48838">
        <ele>86</ele>
        <time>2025-11-05T14:20:10.446Z</time>
      </trkpt>
      <trkpt lat="44.07613" lon="0.48838">
        <ele>86</ele>
        <time>2025-11-05T14:20:11.446Z</time>
      </trkpt>
      <trkpt lat="44.07614" lon="0.48838">
        <ele>86</ele>
        <time>2025-11-05T14:20:12.446Z</time>
      </trkpt>
      <trkpt lat="44.07615" lon="0.48838">
        <ele>86</ele>
        <time>2025-11-05T14:20:13.446Z</time>
      </trkpt>
      <trkpt lat="44.07616" lon="0.48838">
        <ele>86</ele>
        <time>2025-11-05T14:20:14.446Z</time>
      </trkpt>
      <trkpt lat="44.07617" lon="0.48837">
        <ele>86</ele>
        <time>2025-11-05T14:20:15.446Z</time>
      </trkpt>
      <trkpt lat="44.07618" lon="0.48837">
        <ele>86</ele>
        <time>2025-11-05T14:20:16.446Z</time>
      </trkpt>
      <trkpt lat="44.0762" lon="0.48837">
        <ele>86</ele>
        <time>2025-11-05T14:20:17.446Z</time>
      </trkpt>
      <trkpt lat="44.07621" lon="0.48837">
        <ele>86</ele>
        <time>2025-11-05T14:20:18.446Z</time>
      </trkpt>
      <trkpt lat="44.07622" lon="0.48837">
        <ele>86</ele>
        <time>2025-11-05T14:20:19.446Z</time>
      </trkpt>
      <trkpt lat="44.07623" lon="0.48837">
        <ele>86</ele>
        <time>2025-11-05T14:20:20.446Z</time>
      </trkpt>
      <trkpt lat="44.07625" lon="0.48837">
        <ele>87</ele>
        <time>2025-11-05T14:20:21.446Z</time>
      </trkpt>
      <trkpt lat="44.07626" lon="0.48837">
        <ele>87</ele>
        <time>2025-11-05T14:20:22.446Z</time>
      </trkpt>
      <trkpt lat="44.07627" lon="0.48837">
        <ele>87</ele>
        <time>2025-11-05T14:20:23.446Z</time>
      </trkpt>
      <trkpt lat="44.07628" lon="0.48837">
        <ele>87</ele>
        <time>2025-11-05T14:20:24.446Z</time>
      </trkpt>
      <trkpt lat="44.07629" lon="0.48836">
        <ele>87</ele>
        <time>2025-11-05T14:20:25.446Z</time>
      </trkpt>
      <trkpt lat="44.0763" lon="0.48836">
        <ele>87</ele>
        <time>2025-11-05T14:20:26.446Z</time>
      </trkpt>
      <trkpt lat="44.07632" lon="0.48836">
        <ele>87</ele>
        <time>2025-11-05T14:20:27.446Z</time>
      </trkpt>
      <trkpt lat="44.07633" lon="0.48835">
        <ele>87</ele>
        <time>2025-11-05T14:20:28.446Z</time>
      </trkpt>
      <trkpt lat="44.07634" lon="0.48835">
        <ele>87</ele>
        <time>2025-11-05T14:20:29.446Z</time>
      </trkpt>
      <trkpt lat="44.07635" lon="0.48835">
        <ele>87</ele>
        <time>2025-11-05T14:20:30.446Z</time>
      </trkpt>
      <trkpt lat="44.07636" lon="0.48835">
        <ele>86</ele>
        <time>2025-11-05T14:20:31.446Z</time>
      </trkpt>
      <trkpt lat="44.07637" lon="0.48835">
        <ele>86</ele>
        <time>2025-11-05T14:20:32.446Z</time>
      </trkpt>
      <trkpt lat="44.07639" lon="0.48835">
        <ele>86</ele>
        <time>2025-11-05T14:20:33.446Z</time>
      </trkpt>
      <trkpt lat="44.07639" lon="0.48835">
        <ele>86</ele>
        <time>2025-11-05T14:20:34.446Z</time>
      </trkpt>
      <trkpt lat="44.07641" lon="0.48835">
        <ele>86</ele>
        <time>2025-11-05T14:20:35.446Z</time>
      </trkpt>
      <trkpt lat="44.07642" lon="0.48834">
        <ele>86</ele>
        <time>2025-11-05T14:20:36.446Z</time>
      </trkpt>
      <trkpt lat="44.07643" lon="0.48834">
        <ele>86</ele>
        <time>2025-11-05T14:20:37.446Z</time>
      </trkpt>
      <trkpt lat="44.07644" lon="0.48834">
        <ele>86</ele>
        <time>2025-11-05T14:20:38.446Z</time>
      </trkpt>
      <trkpt lat="44.07645" lon="0.48834">
        <ele>86</ele>
        <time>2025-11-05T14:20:39.446Z</time>
      </trkpt>
      <trkpt lat="44.07647" lon="0.48834">
        <ele>86</ele>
        <time>2025-11-05T14:20:40.446Z</time>
      </trkpt>
      <trkpt lat="44.07648" lon="0.48834">
        <ele>86</ele>
        <time>2025-11-05T14:20:41.446Z</time>
      </trkpt>
      <trkpt lat="44.07649" lon="0.48834">
        <ele>86</ele>
        <time>2025-11-05T14:20:42.446Z</time>
      </trkpt>
      <trkpt lat="44.0765" lon="0.48834">
        <ele>86</ele>
        <time>2025-11-05T14:20:43.446Z</time>
      </trkpt>
      <trkpt lat="44.07651" lon="0.48834">
        <ele>86</ele>
        <time>2025-11-05T14:20:44.446Z</time>
      </trkpt>
      <trkpt lat="44.07652" lon="0.48834">
        <ele>86</ele>
        <time>2025-11-05T14:20:45.446Z</time>
      </trkpt>
      <trkpt lat="44.07653" lon="0.48834">
        <ele>86</ele>
        <time>2025-11-05T14:20:46.446Z</time>
      </trkpt>
      <trkpt lat="44.07655" lon="0.48833">
        <ele>86</ele>
        <time>2025-11-05T14:20:47.446Z</time>
      </trkpt>
      <trkpt lat="44.07656" lon="0.48833">
        <ele>86</ele>
        <time>2025-11-05T14:20:48.446Z</time>
      </trkpt>
      <trkpt lat="44.07657" lon="0.48833">
        <ele>86</ele>
        <time>2025-11-05T14:20:49.446Z</time>
      </trkpt>
      <trkpt lat="44.07658" lon="0.48832">
        <ele>86</ele>
        <time>2025-11-05T14:20:50.446Z</time>
      </trkpt>
      <trkpt lat="44.07659" lon="0.48832">
        <ele>86</ele>
        <time>2025-11-05T14:20:51.446Z</time>
      </trkpt>
      <trkpt lat="44.0766" lon="0.48832">
        <ele>86</ele>
        <time>2025-11-05T14:20:52.446Z</time>
      </trkpt>
      <trkpt lat="44.07661" lon="0.48833">
        <ele>85</ele>
        <time>2025-11-05T14:20:53.446Z</time>
      </trkpt>
      <trkpt lat="44.07663" lon="0.48833">
        <ele>85</ele>
        <time>2025-11-05T14:20:54.446Z</time>
      </trkpt>
      <trkpt lat="44.07664" lon="0.48833">
        <ele>85</ele>
        <time>2025-11-05T14:20:55.446Z</time>
      </trkpt>
      <trkpt lat="44.07665" lon="0.48833">
        <ele>85</ele>
        <time>2025-11-05T14:20:56.446Z</time>
      </trkpt>
      <trkpt lat="44.07667" lon="0.48833">
        <ele>85</ele>
        <time>2025-11-05T14:20:57.446Z</time>
      </trkpt>
      <trkpt lat="44.07668" lon="0.48833">
        <ele>85</ele>
        <time>2025-11-05T14:20:58.446Z</time>
      </trkpt>
      <trkpt lat="44.07669" lon="0.48833">
        <ele>86</ele>
        <time>2025-11-05T14:20:59.446Z</time>
      </trkpt>
      <trkpt lat="44.0767" lon="0.48832">
        <ele>86</ele>
        <time>2025-11-05T14:21:00.446Z</time>
      </trkpt>
      <trkpt lat="44.07671" lon="0.48832">
        <ele>86</ele>
        <time>2025-11-05T14:21:01.446Z</time>
      </trkpt>
      <trkpt lat="44.07672" lon="0.48832">
        <ele>87</ele>
        <time>2025-11-05T14:21:02.446Z</time>
      </trkpt>
      <trkpt lat="44.07674" lon="0.48831">
        <ele>87</ele>
        <time>2025-11-05T14:21:03.446Z</time>
      </trkpt>
      <trkpt lat="44.07675" lon="0.48831">
        <ele>88</ele>
        <time>2025-11-05T14:21:04.446Z</time>
      </trkpt>
      <trkpt lat="44.07676" lon="0.4883">
        <ele>88</ele>
        <time>2025-11-05T14:21:05.447Z</time>
      </trkpt>
      <trkpt lat="44.07677" lon="0.4883">
        <ele>88</ele>
        <time>2025-11-05T14:21:06.446Z</time>
      </trkpt>
      <trkpt lat="44.07678" lon="0.4883">
        <ele>88</ele>
        <time>2025-11-05T14:21:07.446Z</time>
      </trkpt>
      <trkpt lat="44.07679" lon="0.4883">
        <ele>88</ele>
        <time>2025-11-05T14:21:08.446Z</time>
      </trkpt>
      <trkpt lat="44.07681" lon="0.48829">
        <ele>88</ele>
        <time>2025-11-05T14:21:09.446Z</time>
      </trkpt>
      <trkpt lat="44.07682" lon="0.48829">
        <ele>88</ele>
        <time>2025-11-05T14:21:10.446Z</time>
      </trkpt>
      <trkpt lat="44.07683" lon="0.48829">
        <ele>87</ele>
        <time>2025-11-05T14:21:11.446Z</time>
      </trkpt>
      <trkpt lat="44.07684" lon="0.48829">
        <ele>87</ele>
        <time>2025-11-05T14:21:12.446Z</time>
      </trkpt>
      <trkpt lat="44.07686" lon="0.48829">
        <ele>87</ele>
        <time>2025-11-05T14:21:13.446Z</time>
      </trkpt>
      <trkpt lat="44.07687" lon="0.48829">
        <ele>87</ele>
        <time>2025-11-05T14:21:14.446Z</time>
      </trkpt>
      <trkpt lat="44.07688" lon="0.48829">
        <ele>87</ele>
        <time>2025-11-05T14:21:15.446Z</time>
      </trkpt>
      <trkpt lat="44.07689" lon="0.48829">
        <ele>88</ele>
        <time>2025-11-05T14:21:16.446Z</time>
      </trkpt>
      <trkpt lat="44.0769" lon="0.48829">
        <ele>88</ele>
        <time>2025-11-05T14:21:17.446Z</time>
      </trkpt>
      <trkpt lat="44.07691" lon="0.48829">
        <ele>88</ele>
        <time>2025-11-05T14:21:18.446Z</time>
      </trkpt>
      <trkpt lat="44.07693" lon="0.48829">
        <ele>88</ele>
        <time>2025-11-05T14:21:19.446Z</time>
      </trkpt>
      <trkpt lat="44.07694" lon="0.48829">
        <ele>88</ele>
        <time>2025-11-05T14:21:20.446Z</time>
      </trkpt>
      <trkpt lat="44.07695" lon="0.48829">
        <ele>88</ele>
        <time>2025-11-05T14:21:21.446Z</time>
      </trkpt>
      <trkpt lat="44.07697" lon="0.48829">
        <ele>88</ele>
        <time>2025-11-05T14:21:22.446Z</time>
      </trkpt>
      <trkpt lat="44.07698" lon="0.48829">
        <ele>88</ele>
        <time>2025-11-05T14:21:23.446Z</time>
      </trkpt>
      <trkpt lat="44.07699" lon="0.48829">
        <ele>88</ele>
        <time>2025-11-05T14:21:24.446Z</time>
      </trkpt>
      <trkpt lat="44.077" lon="0.48829">
        <ele>89</ele>
        <time>2025-11-05T14:21:25.446Z</time>
      </trkpt>
      <trkpt lat="44.07701" lon="0.48829">
        <ele>89</ele>
        <time>2025-11-05T14:21:26.446Z</time>
      </trkpt>
      <trkpt lat="44.07703" lon="0.48829">
        <ele>89</ele>
        <time>2025-11-05T14:21:27.446Z</time>
      </trkpt>
      <trkpt lat="44.07704" lon="0.48829">
        <ele>90</ele>
        <time>2025-11-05T14:21:28.446Z</time>
      </trkpt>
      <trkpt lat="44.07705" lon="0.48828">
        <ele>90</ele>
        <time>2025-11-05T14:21:29.446Z</time>
      </trkpt>
      <trkpt lat="44.07706" lon="0.48828">
        <ele>91</ele>
        <time>2025-11-05T14:21:30.446Z</time>
      </trkpt>
      <trkpt lat="44.07707" lon="0.48828">
        <ele>91</ele>
        <time>2025-11-05T14:21:31.446Z</time>
      </trkpt>
      <trkpt lat="44.07708" lon="0.48828">
        <ele>91</ele>
        <time>2025-11-05T14:21:32.446Z</time>
      </trkpt>
      <trkpt lat="44.0771" lon="0.48828">
        <ele>91</ele>
        <time>2025-11-05T14:21:33.446Z</time>
      </trkpt>
      <trkpt lat="44.07711" lon="0.48828">
        <ele>92</ele>
        <time>2025-11-05T14:21:34.446Z</time>
      </trkpt>
      <trkpt lat="44.07712" lon="0.48828">
        <ele>92</ele>
        <time>2025-11-05T14:21:35.446Z</time>
      </trkpt>
      <trkpt lat="44.07714" lon="0.48829">
        <ele>93</ele>
        <time>2025-11-05T14:21:36.446Z</time>
      </trkpt>
      <trkpt lat="44.07715" lon="0.48829">
        <ele>93</ele>
        <time>2025-11-05T14:21:37.446Z</time>
      </trkpt>
      <trkpt lat="44.07716" lon="0.4883">
        <ele>93</ele>
        <time>2025-11-05T14:21:38.446Z</time>
      </trkpt>
      <trkpt lat="44.07717" lon="0.4883">
        <ele>93</ele>
        <time>2025-11-05T14:21:39.446Z</time>
      </trkpt>
      <trkpt lat="44.07718" lon="0.4883">
        <ele>93</ele>
        <time>2025-11-05T14:21:40.446Z</time>
      </trkpt>
      <trkpt lat="44.0772" lon="0.48831">
        <ele>93</ele>
        <time>2025-11-05T14:21:41.446Z</time>
      </trkpt>
      <trkpt lat="44.07721" lon="0.48831">
        <ele>93</ele>
        <time>2025-11-05T14:21:42.446Z</time>
      </trkpt>
      <trkpt lat="44.07722" lon="0.48832">
        <ele>94</ele>
        <time>2025-11-05T14:21:43.446Z</time>
      </trkpt>
      <trkpt lat="44.07723" lon="0.48832">
        <ele>94</ele>
        <time>2025-11-05T14:21:44.446Z</time>
      </trkpt>
      <trkpt lat="44.07724" lon="0.48833">
        <ele>94</ele>
        <time>2025-11-05T14:21:45.446Z</time>
      </trkpt>
      <trkpt lat="44.07725" lon="0.48833">
        <ele>94</ele>
        <time>2025-11-05T14:21:46.446Z</time>
      </trkpt>
      <trkpt lat="44.07726" lon="0.48833">
        <ele>94</ele>
        <time>2025-11-05T14:21:47.446Z</time>
      </trkpt>
      <trkpt lat="44.07727" lon="0.48833">
        <ele>95</ele>
        <time>2025-11-05T14:21:48.446Z</time>
      </trkpt>
      <trkpt lat="44.07728" lon="0.48834">
        <ele>95</ele>
        <time>2025-11-05T14:21:49.446Z</time>
      </trkpt>
      <trkpt lat="44.07729" lon="0.48834">
        <ele>95</ele>
        <time>2025-11-05T14:21:50.446Z</time>
      </trkpt>
      <trkpt lat="44.0773" lon="0.48835">
        <ele>95</ele>
        <time>2025-11-05T14:21:51.446Z</time>
      </trkpt>
      <trkpt lat="44.07731" lon="0.48835">
        <ele>95</ele>
        <time>2025-11-05T14:21:52.446Z</time>
      </trkpt>
      <trkpt lat="44.07732" lon="0.48836">
        <ele>94</ele>
        <time>2025-11-05T14:21:53.446Z</time>
      </trkpt>
      <trkpt lat="44.07733" lon="0.48836">
        <ele>94</ele>
        <time>2025-11-05T14:21:54.446Z</time>
      </trkpt>
      <trkpt lat="44.07733" lon="0.48837">
        <ele>94</ele>
        <time>2025-11-05T14:21:55.446Z</time>
      </trkpt>
      <trkpt lat="44.07734" lon="0.48837">
        <ele>94</ele>
        <time>2025-11-05T14:21:56.446Z</time>
      </trkpt>
      <trkpt lat="44.07735" lon="0.48838">
        <ele>94</ele>
        <time>2025-11-05T14:21:57.446Z</time>
      </trkpt>
      <trkpt lat="44.07736" lon="0.48838">
        <ele>94</ele>
        <time>2025-11-05T14:21:58.446Z</time>
      </trkpt>
      <trkpt lat="44.07737" lon="0.48839">
        <ele>94</ele>
        <time>2025-11-05T14:21:59.446Z</time>
      </trkpt>
      <trkpt lat="44.07737" lon="0.48839">
        <ele>94</ele>
        <time>2025-11-05T14:22:00.446Z</time>
      </trkpt>
      <trkpt lat="44.07738" lon="0.4884">
        <ele>95</ele>
        <time>2025-11-05T14:22:01.446Z</time>
      </trkpt>
      <trkpt lat="44.07739" lon="0.4884">
        <ele>95</ele>
        <time>2025-11-05T14:22:02.446Z</time>
      </trkpt>
      <trkpt lat="44.0774" lon="0.4884">
        <ele>95</ele>
        <time>2025-11-05T14:22:03.446Z</time>
      </trkpt>
      <trkpt lat="44.07741" lon="0.48841">
        <ele>95</ele>
        <time>2025-11-05T14:22:04.446Z</time>
      </trkpt>
      <trkpt lat="44.07742" lon="0.48841">
        <ele>96</ele>
        <time>2025-11-05T14:22:05.446Z</time>
      </trkpt>
      <trkpt lat="44.07743" lon="0.48841">
        <ele>96</ele>
        <time>2025-11-05T14:22:06.446Z</time>
      </trkpt>
      <trkpt lat="44.07744" lon="0.48841">
        <ele>97</ele>
        <time>2025-11-05T14:22:07.446Z</time>
      </trkpt>
      <trkpt lat="44.07744" lon="0.48841">
        <ele>97</ele>
        <time>2025-11-05T14:22:08.446Z</time>
      </trkpt>
      <trkpt lat="44.07745" lon="0.48841">
        <ele>97</ele>
        <time>2025-11-05T14:22:09.446Z</time>
      </trkpt>
      <trkpt lat="44.07746" lon="0.48842">
        <ele>97</ele>
        <time>2025-11-05T14:22:10.446Z</time>
      </trkpt>
      <trkpt lat="44.07747" lon="0.48842">
        <ele>97</ele>
        <time>2025-11-05T14:22:11.446Z</time>
      </trkpt>
      <trkpt lat="44.07748" lon="0.48842">
        <ele>98</ele>
        <time>2025-11-05T14:22:12.446Z</time>
      </trkpt>
      <trkpt lat="44.07749" lon="0.48842">
        <ele>98</ele>
        <time>2025-11-05T14:22:13.446Z</time>
      </trkpt>
      <trkpt lat="44.0775" lon="0.48842">
        <ele>98</ele>
        <time>2025-11-05T14:22:14.446Z</time>
      </trkpt>
      <trkpt lat="44.0775" lon="0.48842">
        <ele>98</ele>
        <time>2025-11-05T14:22:15.446Z</time>
      </trkpt>
      <trkpt lat="44.07751" lon="0.48841">
        <ele>98</ele>
        <time>2025-11-05T14:22:16.446Z</time>
      </trkpt>
      <trkpt lat="44.07752" lon="0.48841">
        <ele>97</ele>
        <time>2025-11-05T14:22:17.446Z</time>
      </trkpt>
      <trkpt lat="44.07753" lon="0.4884">
        <ele>97</ele>
        <time>2025-11-05T14:22:18.446Z</time>
      </trkpt>
      <trkpt lat="44.07754" lon="0.4884">
        <ele>97</ele>
        <time>2025-11-05T14:22:19.446Z</time>
      </trkpt>
      <trkpt lat="44.07755" lon="0.48839">
        <ele>97</ele>
        <time>2025-11-05T14:22:20.446Z</time>
      </trkpt>
      <trkpt lat="44.07756" lon="0.48838">
        <ele>97</ele>
        <time>2025-11-05T14:22:21.446Z</time>
      </trkpt>
      <trkpt lat="44.07756" lon="0.48837">
        <ele>97</ele>
        <time>2025-11-05T14:22:22.446Z</time>
      </trkpt>
      <trkpt lat="44.07757" lon="0.48836">
        <ele>97</ele>
        <time>2025-11-05T14:22:23.446Z</time>
      </trkpt>
      <trkpt lat="44.07758" lon="0.48836">
        <ele>97</ele>
        <time>2025-11-05T14:22:24.446Z</time>
      </trkpt>
      <trkpt lat="44.07758" lon="0.48835">
        <ele>98</ele>
        <time>2025-11-05T14:22:25.446Z</time>
      </trkpt>
      <trkpt lat="44.07759" lon="0.48833">
        <ele>98</ele>
        <time>2025-11-05T14:22:26.446Z</time>
      </trkpt>
      <trkpt lat="44.0776" lon="0.48832">
        <ele>98</ele>
        <time>2025-11-05T14:22:27.446Z</time>
      </trkpt>
      <trkpt lat="44.0776" lon="0.48831">
        <ele>98</ele>
        <time>2025-11-05T14:22:28.446Z</time>
      </trkpt>
      <trkpt lat="44.07761" lon="0.4883">
        <ele>98</ele>
        <time>2025-11-05T14:22:29.446Z</time>
      </trkpt>
      <trkpt lat="44.07761" lon="0.48828">
        <ele>98</ele>
        <time>2025-11-05T14:22:30.446Z</time>
      </trkpt>
      <trkpt lat="44.07762" lon="0.48827">
        <ele>98</ele>
        <time>2025-11-05T14:22:31.446Z</time>
      </trkpt>
      <trkpt lat="44.07762" lon="0.48826">
        <ele>98</ele>
        <time>2025-11-05T14:22:32.446Z</time>
      </trkpt>
      <trkpt lat="44.07763" lon="0.48825">
        <ele>98</ele>
        <time>2025-11-05T14:22:33.446Z</time>
      </trkpt>
      <trkpt lat="44.07763" lon="0.48824">
        <ele>98</ele>
        <time>2025-11-05T14:22:34.446Z</time>
      </trkpt>
      <trkpt lat="44.07764" lon="0.48822">
        <ele>99</ele>
        <time>2025-11-05T14:22:35.446Z</time>
      </trkpt>
      <trkpt lat="44.07764" lon="0.48821">
        <ele>99</ele>
        <time>2025-11-05T14:22:36.446Z</time>
      </trkpt>
      <trkpt lat="44.07764" lon="0.4882">
        <ele>99</ele>
        <time>2025-11-05T14:22:37.446Z</time>
      </trkpt>
      <trkpt lat="44.07765" lon="0.48818">
        <ele>98</ele>
        <time>2025-11-05T14:22:38.446Z</time>
      </trkpt>
      <trkpt lat="44.07765" lon="0.48816">
        <ele>98</ele>
        <time>2025-11-05T14:22:39.446Z</time>
      </trkpt>
      <trkpt lat="44.07765" lon="0.48815">
        <ele>98</ele>
        <time>2025-11-05T14:22:40.446Z</time>
      </trkpt>
      <trkpt lat="44.07765" lon="0.48813">
        <ele>98</ele>
        <time>2025-11-05T14:22:41.446Z</time>
      </trkpt>
      <trkpt lat="44.07766" lon="0.48812">
        <ele>98</ele>
        <time>2025-11-05T14:22:42.446Z</time>
      </trkpt>
      <trkpt lat="44.07766" lon="0.4881">
        <ele>98</ele>
        <time>2025-11-05T14:22:43.446Z</time>
      </trkpt>
      <trkpt lat="44.07766" lon="0.48809">
        <ele>99</ele>
        <time>2025-11-05T14:22:44.446Z</time>
      </trkpt>
      <trkpt lat="44.07767" lon="0.48807">
        <ele>99</ele>
        <time>2025-11-05T14:22:45.446Z</time>
      </trkpt>
      <trkpt lat="44.07767" lon="0.48806">
        <ele>99</ele>
        <time>2025-11-05T14:22:46.446Z</time>
      </trkpt>
      <trkpt lat="44.07767" lon="0.48804">
        <ele>98</ele>
        <time>2025-11-05T14:22:47.446Z</time>
      </trkpt>
      <trkpt lat="44.07768" lon="0.48803">
        <ele>98</ele>
        <time>2025-11-05T14:22:48.446Z</time>
      </trkpt>
      <trkpt lat="44.07768" lon="0.48801">
        <ele>98</ele>
        <time>2025-11-05T14:22:49.446Z</time>
      </trkpt>
      <trkpt lat="44.07768" lon="0.488">
        <ele>98</ele>
        <time>2025-11-05T14:22:50.446Z</time>
      </trkpt>
      <trkpt lat="44.07769" lon="0.48798">
        <ele>98</ele>
        <time>2025-11-05T14:22:51.446Z</time>
      </trkpt>
      <trkpt lat="44.07769" lon="0.48797">
        <ele>98</ele>
        <time>2025-11-05T14:22:52.446Z</time>
      </trkpt>
      <trkpt lat="44.0777" lon="0.48795">
        <ele>97</ele>
        <time>2025-11-05T14:22:53.446Z</time>
      </trkpt>
      <trkpt lat="44.0777" lon="0.48794">
        <ele>97</ele>
        <time>2025-11-05T14:22:54.446Z</time>
      </trkpt>
      <trkpt lat="44.07771" lon="0.48793">
        <ele>97</ele>
        <time>2025-11-05T14:22:55.446Z</time>
      </trkpt>
      <trkpt lat="44.07771" lon="0.48791">
        <ele>97</ele>
        <time>2025-11-05T14:22:56.446Z</time>
      </trkpt>
      <trkpt lat="44.07771" lon="0.4879">
        <ele>97</ele>
        <time>2025-11-05T14:22:57.446Z</time>
      </trkpt>
      <trkpt lat="44.07772" lon="0.48789">
        <ele>97</ele>
        <time>2025-11-05T14:22:58.446Z</time>
      </trkpt>
      <trkpt lat="44.07772" lon="0.48787">
        <ele>97</ele>
        <time>2025-11-05T14:22:59.446Z</time>
      </trkpt>
      <trkpt lat="44.07772" lon="0.48785">
        <ele>97</ele>
        <time>2025-11-05T14:23:00.446Z</time>
      </trkpt>
      <trkpt lat="44.07773" lon="0.48784">
        <ele>97</ele>
        <time>2025-11-05T14:23:01.446Z</time>
      </trkpt>
      <trkpt lat="44.07773" lon="0.48783">
        <ele>97</ele>
        <time>2025-11-05T14:23:02.446Z</time>
      </trkpt>
      <trkpt lat="44.07773" lon="0.48781">
        <ele>97</ele>
        <time>2025-11-05T14:23:03.446Z</time>
      </trkpt>
      <trkpt lat="44.07774" lon="0.4878">
        <ele>97</ele>
        <time>2025-11-05T14:23:04.446Z</time>
      </trkpt>
      <trkpt lat="44.07774" lon="0.48778">
        <ele>97</ele>
        <time>2025-11-05T14:23:05.446Z</time>
      </trkpt>
      <trkpt lat="44.07775" lon="0.48777">
        <ele>96</ele>
        <time>2025-11-05T14:23:06.447Z</time>
      </trkpt>
      <trkpt lat="44.07775" lon="0.48775">
        <ele>97</ele>
        <time>2025-11-05T14:23:07.446Z</time>
      </trkpt>
      <trkpt lat="44.07776" lon="0.48773">
        <ele>96</ele>
        <time>2025-11-05T14:23:08.446Z</time>
      </trkpt>
      <trkpt lat="44.07776" lon="0.48772">
        <ele>96</ele>
        <time>2025-11-05T14:23:09.446Z</time>
      </trkpt>
      <trkpt lat="44.07777" lon="0.48771">
        <ele>96</ele>
        <time>2025-11-05T14:23:10.446Z</time>
      </trkpt>
      <trkpt lat="44.07777" lon="0.4877">
        <ele>96</ele>
        <time>2025-11-05T14:23:11.446Z</time>
      </trkpt>
      <trkpt lat="44.07777" lon="0.48768">
        <ele>96</ele>
        <time>2025-11-05T14:23:12.446Z</time>
      </trkpt>
      <trkpt lat="44.07778" lon="0.48767">
        <ele>96</ele>
        <time>2025-11-05T14:23:13.446Z</time>
      </trkpt>
      <trkpt lat="44.07778" lon="0.48765">
        <ele>96</ele>
        <time>2025-11-05T14:23:14.446Z</time>
      </trkpt>
      <trkpt lat="44.07779" lon="0.48763">
        <ele>97</ele>
        <time>2025-11-05T14:23:15.446Z</time>
      </trkpt>
      <trkpt lat="44.0778" lon="0.48762">
        <ele>97</ele>
        <time>2025-11-05T14:23:16.446Z</time>
      </trkpt>
      <trkpt lat="44.0778" lon="0.4876">
        <ele>97</ele>
        <time>2025-11-05T14:23:17.446Z</time>
      </trkpt>
      <trkpt lat="44.0778" lon="0.48758">
        <ele>97</ele>
        <time>2025-11-05T14:23:18.446Z</time>
      </trkpt>
      <trkpt lat="44.07781" lon="0.48757">
        <ele>98</ele>
        <time>2025-11-05T14:23:19.446Z</time>
      </trkpt>
      <trkpt lat="44.07781" lon="0.48755">
        <ele>98</ele>
        <time>2025-11-05T14:23:20.446Z</time>
      </trkpt>
      <trkpt lat="44.07782" lon="0.48754">
        <ele>98</ele>
        <time>2025-11-05T14:23:21.446Z</time>
      </trkpt>
      <trkpt lat="44.07782" lon="0.48752">
        <ele>98</ele>
        <time>2025-11-05T14:23:22.446Z</time>
      </trkpt>
      <trkpt lat="44.07782" lon="0.4875">
        <ele>98</ele>
        <time>2025-11-05T14:23:23.446Z</time>
      </trkpt>
      <trkpt lat="44.07783" lon="0.48749">
        <ele>98</ele>
        <time>2025-11-05T14:23:24.446Z</time>
      </trkpt>
      <trkpt lat="44.07784" lon="0.48747">
        <ele>98</ele>
        <time>2025-11-05T14:23:25.446Z</time>
      </trkpt>
      <trkpt lat="44.07784" lon="0.48745">
        <ele>97</ele>
        <time>2025-11-05T14:23:26.446Z</time>
      </trkpt>
      <trkpt lat="44.07784" lon="0.48744">
        <ele>98</ele>
        <time>2025-11-05T14:23:27.446Z</time>
      </trkpt>
      <trkpt lat="44.07785" lon="0.48742">
        <ele>98</ele>
        <time>2025-11-05T14:23:28.446Z</time>
      </trkpt>
      <trkpt lat="44.07785" lon="0.48741">
        <ele>98</ele>
        <time>2025-11-05T14:23:29.446Z</time>
      </trkpt>
      <trkpt lat="44.07786" lon="0.4874">
        <ele>98</ele>
        <time>2025-11-05T14:23:30.446Z</time>
      </trkpt>
      <trkpt lat="44.07787" lon="0.48739">
        <ele>98</ele>
        <time>2025-11-05T14:23:31.446Z</time>
      </trkpt>
      <trkpt lat="44.07787" lon="0.48737">
        <ele>98</ele>
        <time>2025-11-05T14:23:32.446Z</time>
      </trkpt>
      <trkpt lat="44.07788" lon="0.48735">
        <ele>98</ele>
        <time>2025-11-05T14:23:33.446Z</time>
      </trkpt>
      <trkpt lat="44.07788" lon="0.48733">
        <ele>97</ele>
        <time>2025-11-05T14:23:34.446Z</time>
      </trkpt>
      <trkpt lat="44.07788" lon="0.48732">
        <ele>97</ele>
        <time>2025-11-05T14:23:35.446Z</time>
      </trkpt>
      <trkpt lat="44.07789" lon="0.4873">
        <ele>97</ele>
        <time>2025-11-05T14:23:36.446Z</time>
      </trkpt>
      <trkpt lat="44.07789" lon="0.48729">
        <ele>97</ele>
        <time>2025-11-05T14:23:37.446Z</time>
      </trkpt>
      <trkpt lat="44.0779" lon="0.48726">
        <ele>97</ele>
        <time>2025-11-05T14:23:38.446Z</time>
      </trkpt>
      <trkpt lat="44.0779" lon="0.48725">
        <ele>97</ele>
        <time>2025-11-05T14:23:39.446Z</time>
      </trkpt>
      <trkpt lat="44.07791" lon="0.48724">
        <ele>97</ele>
        <time>2025-11-05T14:23:40.446Z</time>
      </trkpt>
      <trkpt lat="44.07791" lon="0.48722">
        <ele>97</ele>
        <time>2025-11-05T14:23:41.446Z</time>
      </trkpt>
      <trkpt lat="44.07792" lon="0.48721">
        <ele>97</ele>
        <time>2025-11-05T14:23:42.446Z</time>
      </trkpt>
      <trkpt lat="44.07792" lon="0.4872">
        <ele>98</ele>
        <time>2025-11-05T14:23:43.446Z</time>
      </trkpt>
      <trkpt lat="44.07792" lon="0.48719">
        <ele>98</ele>
        <time>2025-11-05T14:23:44.446Z</time>
      </trkpt>
      <trkpt lat="44.07793" lon="0.48718">
        <ele>98</ele>
        <time>2025-11-05T14:23:45.446Z</time>
      </trkpt>
      <trkpt lat="44.07793" lon="0.48716">
        <ele>98</ele>
        <time>2025-11-05T14:23:46.446Z</time>
      </trkpt>
      <trkpt lat="44.07793" lon="0.48715">
        <ele>99</ele>
        <time>2025-11-05T14:23:47.446Z</time>
      </trkpt>
      <trkpt lat="44.07794" lon="0.48713">
        <ele>99</ele>
        <time>2025-11-05T14:23:48.446Z</time>
      </trkpt>
      <trkpt lat="44.07794" lon="0.48712">
        <ele>99</ele>
        <time>2025-11-05T14:23:49.446Z</time>
      </trkpt>
      <trkpt lat="44.07794" lon="0.48711">
        <ele>99</ele>
        <time>2025-11-05T14:23:50.446Z</time>
      </trkpt>
      <trkpt lat="44.07795" lon="0.4871">
        <ele>98</ele>
        <time>2025-11-05T14:23:51.446Z</time>
      </trkpt>
      <trkpt lat="44.07795" lon="0.48708">
        <ele>98</ele>
        <time>2025-11-05T14:23:52.446Z</time>
      </trkpt>
      <trkpt lat="44.07796" lon="0.48707">
        <ele>98</ele>
        <time>2025-11-05T14:23:53.446Z</time>
      </trkpt>
      <trkpt lat="44.07796" lon="0.48705">
        <ele>98</ele>
        <time>2025-11-05T14:23:54.446Z</time>
      </trkpt>
      <trkpt lat="44.07796" lon="0.48703">
        <ele>98</ele>
        <time>2025-11-05T14:23:55.446Z</time>
      </trkpt>
      <trkpt lat="44.07796" lon="0.48702">
        <ele>98</ele>
        <time>2025-11-05T14:23:56.446Z</time>
      </trkpt>
      <trkpt lat="44.07797" lon="0.487">
        <ele>98</ele>
        <time>2025-11-05T14:23:57.446Z</time>
      </trkpt>
      <trkpt lat="44.07797" lon="0.48698">
        <ele>98</ele>
        <time>2025-11-05T14:23:58.446Z</time>
      </trkpt>
      <trkpt lat="44.07797" lon="0.48697">
        <ele>98</ele>
        <time>2025-11-05T14:23:59.446Z</time>
      </trkpt>
      <trkpt lat="44.07798" lon="0.48695">
        <ele>98</ele>
        <time>2025-11-05T14:24:00.446Z</time>
      </trkpt>
      <trkpt lat="44.07799" lon="0.48694">
        <ele>98</ele>
        <time>2025-11-05T14:24:01.446Z</time>
      </trkpt>
      <trkpt lat="44.07799" lon="0.48692">
        <ele>98</ele>
        <time>2025-11-05T14:24:02.446Z</time>
      </trkpt>
      <trkpt lat="44.078" lon="0.48691">
        <ele>97</ele>
        <time>2025-11-05T14:24:03.446Z</time>
      </trkpt>
      <trkpt lat="44.078" lon="0.48689">
        <ele>97</ele>
        <time>2025-11-05T14:24:04.446Z</time>
      </trkpt>
      <trkpt lat="44.07801" lon="0.48687">
        <ele>97</ele>
        <time>2025-11-05T14:24:05.446Z</time>
      </trkpt>
      <trkpt lat="44.07802" lon="0.48685">
        <ele>97</ele>
        <time>2025-11-05T14:24:06.446Z</time>
      </trkpt>
      <trkpt lat="44.07802" lon="0.48684">
        <ele>98</ele>
        <time>2025-11-05T14:24:07.446Z</time>
      </trkpt>
      <trkpt lat="44.07802" lon="0.48682">
        <ele>98</ele>
        <time>2025-11-05T14:24:08.446Z</time>
      </trkpt>
      <trkpt lat="44.07803" lon="0.48681">
        <ele>97</ele>
        <time>2025-11-05T14:24:09.446Z</time>
      </trkpt>
      <trkpt lat="44.07803" lon="0.48679">
        <ele>97</ele>
        <time>2025-11-05T14:24:10.446Z</time>
      </trkpt>
      <trkpt lat="44.07804" lon="0.48678">
        <ele>97</ele>
        <time>2025-11-05T14:24:11.446Z</time>
      </trkpt>
      <trkpt lat="44.07804" lon="0.48676">
        <ele>97</ele>
        <time>2025-11-05T14:24:12.446Z</time>
      </trkpt>
      <trkpt lat="44.07805" lon="0.48674">
        <ele>97</ele>
        <time>2025-11-05T14:24:13.446Z</time>
      </trkpt>
      <trkpt lat="44.07806" lon="0.48672">
        <ele>98</ele>
        <time>2025-11-05T14:24:14.446Z</time>
      </trkpt>
      <trkpt lat="44.07806" lon="0.48671">
        <ele>98</ele>
        <time>2025-11-05T14:24:15.446Z</time>
      </trkpt>
      <trkpt lat="44.07807" lon="0.48669">
        <ele>98</ele>
        <time>2025-11-05T14:24:16.446Z</time>
      </trkpt>
      <trkpt lat="44.07807" lon="0.48667">
        <ele>98</ele>
        <time>2025-11-05T14:24:17.446Z</time>
      </trkpt>
      <trkpt lat="44.07807" lon="0.48666">
        <ele>98</ele>
        <time>2025-11-05T14:24:18.446Z</time>
      </trkpt>
      <trkpt lat="44.07808" lon="0.48664">
        <ele>98</ele>
        <time>2025-11-05T14:24:19.446Z</time>
      </trkpt>
      <trkpt lat="44.07808" lon="0.48663">
        <ele>99</ele>
        <time>2025-11-05T14:24:20.446Z</time>
      </trkpt>
      <trkpt lat="44.07809" lon="0.48661">
        <ele>98</ele>
        <time>2025-11-05T14:24:21.446Z</time>
      </trkpt>
      <trkpt lat="44.07809" lon="0.4866">
        <ele>98</ele>
        <time>2025-11-05T14:24:22.446Z</time>
      </trkpt>
      <trkpt lat="44.0781" lon="0.48658">
        <ele>98</ele>
        <time>2025-11-05T14:24:23.447Z</time>
      </trkpt>
      <trkpt lat="44.07811" lon="0.48656">
        <ele>98</ele>
        <time>2025-11-05T14:24:24.446Z</time>
      </trkpt>
      <trkpt lat="44.07812" lon="0.48655">
        <ele>98</ele>
        <time>2025-11-05T14:24:25.446Z</time>
      </trkpt>
      <trkpt lat="44.07812" lon="0.48654">
        <ele>98</ele>
        <time>2025-11-05T14:24:26.446Z</time>
      </trkpt>
      <trkpt lat="44.07813" lon="0.48652">
        <ele>98</ele>
        <time>2025-11-05T14:24:27.446Z</time>
      </trkpt>
      <trkpt lat="44.07813" lon="0.48651">
        <ele>98</ele>
        <time>2025-11-05T14:24:28.446Z</time>
      </trkpt>
      <trkpt lat="44.07814" lon="0.4865">
        <ele>98</ele>
        <time>2025-11-05T14:24:29.446Z</time>
      </trkpt>
      <trkpt lat="44.07815" lon="0.48649">
        <ele>98</ele>
        <time>2025-11-05T14:24:30.446Z</time>
      </trkpt>
      <trkpt lat="44.07816" lon="0.48647">
        <ele>98</ele>
        <time>2025-11-05T14:24:31.446Z</time>
      </trkpt>
      <trkpt lat="44.07817" lon="0.48646">
        <ele>98</ele>
        <time>2025-11-05T14:24:32.446Z</time>
      </trkpt>
      <trkpt lat="44.07818" lon="0.48644">
        <ele>98</ele>
        <time>2025-11-05T14:24:33.446Z</time>
      </trkpt>
      <trkpt lat="44.07819" lon="0.48643">
        <ele>98</ele>
        <time>2025-11-05T14:24:34.446Z</time>
      </trkpt>
      <trkpt lat="44.07819" lon="0.48641">
        <ele>98</ele>
        <time>2025-11-05T14:24:35.446Z</time>
      </trkpt>
      <trkpt lat="44.0782" lon="0.4864">
        <ele>99</ele>
        <time>2025-11-05T14:24:36.446Z</time>
      </trkpt>
      <trkpt lat="44.07821" lon="0.48639">
        <ele>99</ele>
        <time>2025-11-05T14:24:37.446Z</time>
      </trkpt>
      <trkpt lat="44.07822" lon="0.48638">
        <ele>99</ele>
        <time>2025-11-05T14:24:38.446Z</time>
      </trkpt>
      <trkpt lat="44.07823" lon="0.48637">
        <ele>98</ele>
        <time>2025-11-05T14:24:39.446Z</time>
      </trkpt>
      <trkpt lat="44.07824" lon="0.48636">
        <ele>98</ele>
        <time>2025-11-05T14:24:40.446Z</time>
      </trkpt>
      <trkpt lat="44.07825" lon="0.48635">
        <ele>98</ele>
        <time>2025-11-05T14:24:41.446Z</time>
      </trkpt>
      <trkpt lat="44.07826" lon="0.48633">
        <ele>98</ele>
        <time>2025-11-05T14:24:42.446Z</time>
      </trkpt>
      <trkpt lat="44.07827" lon="0.48633">
        <ele>99</ele>
        <time>2025-11-05T14:24:43.446Z</time>
      </trkpt>
      <trkpt lat="44.07828" lon="0.48631">
        <ele>99</ele>
        <time>2025-11-05T14:24:44.446Z</time>
      </trkpt>
      <trkpt lat="44.07829" lon="0.4863">
        <ele>99</ele>
        <time>2025-11-05T14:24:45.447Z</time>
      </trkpt>
      <trkpt lat="44.0783" lon="0.48629">
        <ele>99</ele>
        <time>2025-11-05T14:24:46.446Z</time>
      </trkpt>
      <trkpt lat="44.07831" lon="0.48628">
        <ele>99</ele>
        <time>2025-11-05T14:24:47.446Z</time>
      </trkpt>
      <trkpt lat="44.07832" lon="0.48627">
        <ele>99</ele>
        <time>2025-11-05T14:24:48.446Z</time>
      </trkpt>
      <trkpt lat="44.07833" lon="0.48627">
        <ele>99</ele>
        <time>2025-11-05T14:24:49.446Z</time>
      </trkpt>
      <trkpt lat="44.07834" lon="0.48626">
        <ele>99</ele>
        <time>2025-11-05T14:24:50.446Z</time>
      </trkpt>
      <trkpt lat="44.07835" lon="0.48625">
        <ele>99</ele>
        <time>2025-11-05T14:24:51.446Z</time>
      </trkpt>
      <trkpt lat="44.07836" lon="0.48624">
        <ele>99</ele>
        <time>2025-11-05T14:24:52.446Z</time>
      </trkpt>
      <trkpt lat="44.07837" lon="0.48623">
        <ele>99</ele>
        <time>2025-11-05T14:24:53.446Z</time>
      </trkpt>
      <trkpt lat="44.07839" lon="0.48622">
        <ele>99</ele>
        <time>2025-11-05T14:24:54.446Z</time>
      </trkpt>
      <trkpt lat="44.0784" lon="0.48622">
        <ele>99</ele>
        <time>2025-11-05T14:24:55.446Z</time>
      </trkpt>
      <trkpt lat="44.07841" lon="0.48621">
        <ele>99</ele>
        <time>2025-11-05T14:24:56.446Z</time>
      </trkpt>
      <trkpt lat="44.07842" lon="0.4862">
        <ele>99</ele>
        <time>2025-11-05T14:24:57.446Z</time>
      </trkpt>
      <trkpt lat="44.07843" lon="0.48619">
        <ele>99</ele>
        <time>2025-11-05T14:24:58.446Z</time>
      </trkpt>
      <trkpt lat="44.07844" lon="0.48618">
        <ele>99</ele>
        <time>2025-11-05T14:24:59.446Z</time>
      </trkpt>
      <trkpt lat="44.07845" lon="0.48618">
        <ele>99</ele>
        <time>2025-11-05T14:25:00.446Z</time>
      </trkpt>
      <trkpt lat="44.07846" lon="0.48618">
        <ele>99</ele>
        <time>2025-11-05T14:25:01.446Z</time>
      </trkpt>
      <trkpt lat="44.07848" lon="0.48617">
        <ele>99</ele>
        <time>2025-11-05T14:25:02.446Z</time>
      </trkpt>
      <trkpt lat="44.07849" lon="0.48616">
        <ele>99</ele>
        <time>2025-11-05T14:25:03.446Z</time>
      </trkpt>
      <trkpt lat="44.0785" lon="0.48615">
        <ele>99</ele>
        <time>2025-11-05T14:25:04.446Z</time>
      </trkpt>
      <trkpt lat="44.07851" lon="0.48615">
        <ele>99</ele>
        <time>2025-11-05T14:25:05.446Z</time>
      </trkpt>
      <trkpt lat="44.07852" lon="0.48615">
        <ele>99</ele>
        <time>2025-11-05T14:25:06.446Z</time>
      </trkpt>
      <trkpt lat="44.07853" lon="0.48614">
        <ele>99</ele>
        <time>2025-11-05T14:25:07.446Z</time>
      </trkpt>
      <trkpt lat="44.07855" lon="0.48614">
        <ele>99</ele>
        <time>2025-11-05T14:25:08.446Z</time>
      </trkpt>
      <trkpt lat="44.07856" lon="0.48614">
        <ele>99</ele>
        <time>2025-11-05T14:25:09.446Z</time>
      </trkpt>
      <trkpt lat="44.07857" lon="0.48615">
        <ele>100</ele>
        <time>2025-11-05T14:25:10.446Z</time>
      </trkpt>
      <trkpt lat="44.07859" lon="0.48615">
        <ele>100</ele>
        <time>2025-11-05T14:25:11.446Z</time>
      </trkpt>
      <trkpt lat="44.0786" lon="0.48615">
        <ele>100</ele>
        <time>2025-11-05T14:25:12.446Z</time>
      </trkpt>
      <trkpt lat="44.07861" lon="0.48615">
        <ele>100</ele>
        <time>2025-11-05T14:25:13.446Z</time>
      </trkpt>
      <trkpt lat="44.07862" lon="0.48615">
        <ele>101</ele>
        <time>2025-11-05T14:25:14.446Z</time>
      </trkpt>
      <trkpt lat="44.07863" lon="0.48616">
        <ele>101</ele>
        <time>2025-11-05T14:25:15.446Z</time>
      </trkpt>
      <trkpt lat="44.07864" lon="0.48617">
        <ele>102</ele>
        <time>2025-11-05T14:25:16.446Z</time>
      </trkpt>
      <trkpt lat="44.07865" lon="0.48617">
        <ele>102</ele>
        <time>2025-11-05T14:25:17.446Z</time>
      </trkpt>
      <trkpt lat="44.07866" lon="0.48618">
        <ele>101</ele>
        <time>2025-11-05T14:25:18.446Z</time>
      </trkpt>
      <trkpt lat="44.07867" lon="0.48619">
        <ele>101</ele>
        <time>2025-11-05T14:25:19.446Z</time>
      </trkpt>
      <trkpt lat="44.07868" lon="0.48619">
        <ele>101</ele>
        <time>2025-11-05T14:25:20.446Z</time>
      </trkpt>
      <trkpt lat="44.07869" lon="0.4862">
        <ele>101</ele>
        <time>2025-11-05T14:25:21.446Z</time>
      </trkpt>
      <trkpt lat="44.0787" lon="0.4862">
        <ele>101</ele>
        <time>2025-11-05T14:25:22.446Z</time>
      </trkpt>
      <trkpt lat="44.0787" lon="0.48621">
        <ele>101</ele>
        <time>2025-11-05T14:25:23.446Z</time>
      </trkpt>
      <trkpt lat="44.07871" lon="0.48622">
        <ele>101</ele>
        <time>2025-11-05T14:25:24.447Z</time>
      </trkpt>
      <trkpt lat="44.07872" lon="0.48623">
        <ele>101</ele>
        <time>2025-11-05T14:25:25.446Z</time>
      </trkpt>
      <trkpt lat="44.07873" lon="0.48624">
        <ele>101</ele>
        <time>2025-11-05T14:25:26.446Z</time>
      </trkpt>
      <trkpt lat="44.07874" lon="0.48624">
        <ele>101</ele>
        <time>2025-11-05T14:25:27.446Z</time>
      </trkpt>
      <trkpt lat="44.07874" lon="0.48625">
        <ele>101</ele>
        <time>2025-11-05T14:25:28.446Z</time>
      </trkpt>
      <trkpt lat="44.07875" lon="0.48626">
        <ele>101</ele>
        <time>2025-11-05T14:25:29.446Z</time>
      </trkpt>
      <trkpt lat="44.07876" lon="0.48627">
        <ele>102</ele>
        <time>2025-11-05T14:25:30.446Z</time>
      </trkpt>
      <trkpt lat="44.07876" lon="0.48628">
        <ele>102</ele>
        <time>2025-11-05T14:25:31.446Z</time>
      </trkpt>
      <trkpt lat="44.07877" lon="0.48628">
        <ele>102</ele>
        <time>2025-11-05T14:25:32.446Z</time>
      </trkpt>
      <trkpt lat="44.07878" lon="0.48628">
        <ele>102</ele>
        <time>2025-11-05T14:25:33.446Z</time>
      </trkpt>
      <trkpt lat="44.0788" lon="0.48629">
        <ele>102</ele>
        <time>2025-11-05T14:25:34.446Z</time>
      </trkpt>
      <trkpt lat="44.07881" lon="0.4863">
        <ele>103</ele>
        <time>2025-11-05T14:25:35.446Z</time>
      </trkpt>
      <trkpt lat="44.07882" lon="0.48631">
        <ele>103</ele>
        <time>2025-11-05T14:25:36.446Z</time>
      </trkpt>
      <trkpt lat="44.07883" lon="0.48631">
        <ele>104</ele>
        <time>2025-11-05T14:25:37.446Z</time>
      </trkpt>
      <trkpt lat="44.07884" lon="0.48632">
        <ele>104</ele>
        <time>2025-11-05T14:25:38.446Z</time>
      </trkpt>
      <trkpt lat="44.07884" lon="0.48633">
        <ele>104</ele>
        <time>2025-11-05T14:25:39.446Z</time>
      </trkpt>
      <trkpt lat="44.07885" lon="0.48634">
        <ele>104</ele>
        <time>2025-11-05T14:25:40.446Z</time>
      </trkpt>
      <trkpt lat="44.07887" lon="0.48635">
        <ele>104</ele>
        <time>2025-11-05T14:25:41.446Z</time>
      </trkpt>
      <trkpt lat="44.07888" lon="0.48636">
        <ele>104</ele>
        <time>2025-11-05T14:25:42.446Z</time>
      </trkpt>
      <trkpt lat="44.07889" lon="0.48637">
        <ele>105</ele>
        <time>2025-11-05T14:25:43.446Z</time>
      </trkpt>
      <trkpt lat="44.07889" lon="0.48637">
        <ele>105</ele>
        <time>2025-11-05T14:25:44.446Z</time>
      </trkpt>
      <trkpt lat="44.0789" lon="0.48638">
        <ele>105</ele>
        <time>2025-11-05T14:25:45.446Z</time>
      </trkpt>
      <trkpt lat="44.07891" lon="0.48639">
        <ele>106</ele>
        <time>2025-11-05T14:25:46.446Z</time>
      </trkpt>
      <trkpt lat="44.07892" lon="0.4864">
        <ele>106</ele>
        <time>2025-11-05T14:25:47.446Z</time>
      </trkpt>
      <trkpt lat="44.07893" lon="0.4864">
        <ele>106</ele>
        <time>2025-11-05T14:25:48.446Z</time>
      </trkpt>
      <trkpt lat="44.07894" lon="0.48641">
        <ele>107</ele>
        <time>2025-11-05T14:25:49.446Z</time>
      </trkpt>
      <trkpt lat="44.07894" lon="0.48642">
        <ele>107</ele>
        <time>2025-11-05T14:25:50.446Z</time>
      </trkpt>
      <trkpt lat="44.07895" lon="0.48643">
        <ele>106</ele>
        <time>2025-11-05T14:25:51.446Z</time>
      </trkpt>
      <trkpt lat="44.07896" lon="0.48643">
        <ele>106</ele>
        <time>2025-11-05T14:25:52.446Z</time>
      </trkpt>
      <trkpt lat="44.07897" lon="0.48644">
        <ele>106</ele>
        <time>2025-11-05T14:25:53.446Z</time>
      </trkpt>
      <trkpt lat="44.07898" lon="0.48645">
        <ele>106</ele>
        <time>2025-11-05T14:25:54.446Z</time>
      </trkpt>
      <trkpt lat="44.07899" lon="0.48645">
        <ele>107</ele>
        <time>2025-11-05T14:25:55.446Z</time>
      </trkpt>
      <trkpt lat="44.079" lon="0.48646">
        <ele>107</ele>
        <time>2025-11-05T14:25:56.446Z</time>
      </trkpt>
      <trkpt lat="44.07901" lon="0.48647">
        <ele>107</ele>
        <time>2025-11-05T14:25:57.446Z</time>
      </trkpt>
      <trkpt lat="44.07901" lon="0.48647">
        <ele>107</ele>
        <time>2025-11-05T14:25:58.446Z</time>
      </trkpt>
      <trkpt lat="44.07902" lon="0.48648">
        <ele>108</ele>
        <time>2025-11-05T14:25:59.446Z</time>
      </trkpt>
      <trkpt lat="44.07903" lon="0.48649">
        <ele>108</ele>
        <time>2025-11-05T14:26:00.446Z</time>
      </trkpt>
      <trkpt lat="44.07904" lon="0.4865">
        <ele>109</ele>
        <time>2025-11-05T14:26:01.446Z</time>
      </trkpt>
      <trkpt lat="44.07904" lon="0.4865">
        <ele>109</ele>
        <time>2025-11-05T14:26:02.446Z</time>
      </trkpt>
      <trkpt lat="44.07905" lon="0.48651">
        <ele>109</ele>
        <time>2025-11-05T14:26:03.447Z</time>
      </trkpt>
      <trkpt lat="44.07906" lon="0.48652">
        <ele>109</ele>
        <time>2025-11-05T14:26:04.446Z</time>
      </trkpt>
      <trkpt lat="44.07907" lon="0.48653">
        <ele>109</ele>
        <time>2025-11-05T14:26:05.446Z</time>
      </trkpt>
      <trkpt lat="44.07908" lon="0.48653">
        <ele>110</ele>
        <time>2025-11-05T14:26:06.446Z</time>
      </trkpt>
      <trkpt lat="44.07909" lon="0.48654">
        <ele>110</ele>
        <time>2025-11-05T14:26:07.446Z</time>
      </trkpt>
      <trkpt lat="44.07909" lon="0.48654">
        <ele>110</ele>
        <time>2025-11-05T14:26:08.446Z</time>
      </trkpt>
      <trkpt lat="44.0791" lon="0.48655">
        <ele>110</ele>
        <time>2025-11-05T14:26:09.446Z</time>
      </trkpt>
      <trkpt lat="44.07911" lon="0.48656">
        <ele>110</ele>
        <time>2025-11-05T14:26:10.446Z</time>
      </trkpt>
      <trkpt lat="44.07912" lon="0.48656">
        <ele>110</ele>
        <time>2025-11-05T14:26:11.446Z</time>
      </trkpt>
      <trkpt lat="44.07912" lon="0.48657">
        <ele>111</ele>
        <time>2025-11-05T14:26:12.446Z</time>
      </trkpt>
      <trkpt lat="44.07913" lon="0.48658">
        <ele>111</ele>
        <time>2025-11-05T14:26:13.446Z</time>
      </trkpt>
      <trkpt lat="44.07914" lon="0.48658">
        <ele>111</ele>
        <time>2025-11-05T14:26:14.446Z</time>
      </trkpt>
      <trkpt lat="44.07915" lon="0.48659">
        <ele>111</ele>
        <time>2025-11-05T14:26:15.446Z</time>
      </trkpt>
      <trkpt lat="44.07916" lon="0.4866">
        <ele>111</ele>
        <time>2025-11-05T14:26:16.446Z</time>
      </trkpt>
      <trkpt lat="44.07916" lon="0.4866">
        <ele>112</ele>
        <time>2025-11-05T14:26:17.446Z</time>
      </trkpt>
      <trkpt lat="44.07917" lon="0.48661">
        <ele>112</ele>
        <time>2025-11-05T14:26:18.446Z</time>
      </trkpt>
      <trkpt lat="44.07918" lon="0.48661">
        <ele>112</ele>
        <time>2025-11-05T14:26:19.446Z</time>
      </trkpt>
      <trkpt lat="44.07919" lon="0.48662">
        <ele>112</ele>
        <time>2025-11-05T14:26:20.446Z</time>
      </trkpt>
      <trkpt lat="44.0792" lon="0.48662">
        <ele>113</ele>
        <time>2025-11-05T14:26:21.446Z</time>
      </trkpt>
      <trkpt lat="44.07921" lon="0.48663">
        <ele>113</ele>
        <time>2025-11-05T14:26:22.446Z</time>
      </trkpt>
      <trkpt lat="44.07922" lon="0.48664">
        <ele>113</ele>
        <time>2025-11-05T14:26:23.446Z</time>
      </trkpt>
      <trkpt lat="44.07922" lon="0.48665">
        <ele>113</ele>
        <time>2025-11-05T14:26:24.446Z</time>
      </trkpt>
      <trkpt lat="44.07923" lon="0.48665">
        <ele>112</ele>
        <time>2025-11-05T14:26:25.446Z</time>
      </trkpt>
      <trkpt lat="44.07924" lon="0.48666">
        <ele>112</ele>
        <time>2025-11-05T14:26:26.446Z</time>
      </trkpt>
      <trkpt lat="44.07925" lon="0.48667">
        <ele>112</ele>
        <time>2025-11-05T14:26:27.446Z</time>
      </trkpt>
      <trkpt lat="44.07925" lon="0.48667">
        <ele>113</ele>
        <time>2025-11-05T14:26:28.446Z</time>
      </trkpt>
      <trkpt lat="44.07926" lon="0.48668">
        <ele>113</ele>
        <time>2025-11-05T14:26:29.446Z</time>
      </trkpt>
      <trkpt lat="44.07927" lon="0.48669">
        <ele>113</ele>
        <time>2025-11-05T14:26:30.446Z</time>
      </trkpt>
      <trkpt lat="44.07928" lon="0.48669">
        <ele>113</ele>
        <time>2025-11-05T14:26:31.446Z</time>
      </trkpt>
      <trkpt lat="44.07928" lon="0.4867">
        <ele>113</ele>
        <time>2025-11-05T14:26:32.446Z</time>
      </trkpt>
      <trkpt lat="44.07929" lon="0.48671">
        <ele>113</ele>
        <time>2025-11-05T14:26:33.446Z</time>
      </trkpt>
      <trkpt lat="44.0793" lon="0.48672">
        <ele>113</ele>
        <time>2025-11-05T14:26:34.446Z</time>
      </trkpt>
      <trkpt lat="44.07931" lon="0.48673">
        <ele>113</ele>
        <time>2025-11-05T14:26:35.446Z</time>
      </trkpt>
      <trkpt lat="44.07931" lon="0.48673">
        <ele>113</ele>
        <time>2025-11-05T14:26:36.446Z</time>
      </trkpt>
      <trkpt lat="44.07932" lon="0.48674">
        <ele>113</ele>
        <time>2025-11-05T14:26:37.446Z</time>
      </trkpt>
      <trkpt lat="44.07933" lon="0.48674">
        <ele>113</ele>
        <time>2025-11-05T14:26:38.446Z</time>
      </trkpt>
      <trkpt lat="44.07934" lon="0.48675">
        <ele>113</ele>
        <time>2025-11-05T14:26:39.446Z</time>
      </trkpt>
      <trkpt lat="44.07934" lon="0.48676">
        <ele>114</ele>
        <time>2025-11-05T14:26:40.446Z</time>
      </trkpt>
      <trkpt lat="44.07935" lon="0.48676">
        <ele>114</ele>
        <time>2025-11-05T14:26:41.447Z</time>
      </trkpt>
      <trkpt lat="44.07935" lon="0.48677">
        <ele>114</ele>
        <time>2025-11-05T14:26:42.446Z</time>
      </trkpt>
      <trkpt lat="44.07936" lon="0.48677">
        <ele>114</ele>
        <time>2025-11-05T14:26:43.446Z</time>
      </trkpt>
      <trkpt lat="44.07937" lon="0.48678">
        <ele>115</ele>
        <time>2025-11-05T14:26:44.446Z</time>
      </trkpt>
      <trkpt lat="44.07938" lon="0.48679">
        <ele>115</ele>
        <time>2025-11-05T14:26:45.446Z</time>
      </trkpt>
      <trkpt lat="44.07939" lon="0.48679">
        <ele>116</ele>
        <time>2025-11-05T14:26:46.446Z</time>
      </trkpt>
      <trkpt lat="44.07939" lon="0.4868">
        <ele>115</ele>
        <time>2025-11-05T14:26:47.446Z</time>
      </trkpt>
      <trkpt lat="44.0794" lon="0.48681">
        <ele>115</ele>
        <time>2025-11-05T14:26:48.446Z</time>
      </trkpt>
      <trkpt lat="44.07941" lon="0.48681">
        <ele>115</ele>
        <time>2025-11-05T14:26:49.446Z</time>
      </trkpt>
      <trkpt lat="44.07941" lon="0.48682">
        <ele>115</ele>
        <time>2025-11-05T14:26:50.446Z</time>
      </trkpt>
      <trkpt lat="44.07942" lon="0.48683">
        <ele>115</ele>
        <time>2025-11-05T14:26:51.446Z</time>
      </trkpt>
      <trkpt lat="44.07942" lon="0.48683">
        <ele>115</ele>
        <time>2025-11-05T14:26:52.446Z</time>
      </trkpt>
      <trkpt lat="44.07943" lon="0.48684">
        <ele>115</ele>
        <time>2025-11-05T14:26:53.446Z</time>
      </trkpt>
      <trkpt lat="44.07944" lon="0.48685">
        <ele>115</ele>
        <time>2025-11-05T14:26:54.446Z</time>
      </trkpt>
      <trkpt lat="44.07945" lon="0.48685">
        <ele>115</ele>
        <time>2025-11-05T14:26:55.446Z</time>
      </trkpt>
      <trkpt lat="44.07946" lon="0.48686">
        <ele>116</ele>
        <time>2025-11-05T14:26:56.446Z</time>
      </trkpt>
      <trkpt lat="44.07947" lon="0.48686">
        <ele>116</ele>
        <time>2025-11-05T14:26:57.446Z</time>
      </trkpt>
      <trkpt lat="44.07947" lon="0.48687">
        <ele>116</ele>
        <time>2025-11-05T14:26:58.446Z</time>
      </trkpt>
      <trkpt lat="44.07948" lon="0.48688">
        <ele>116</ele>
        <time>2025-11-05T14:26:59.446Z</time>
      </trkpt>
      <trkpt lat="44.07949" lon="0.48688">
        <ele>116</ele>
        <time>2025-11-05T14:27:00.446Z</time>
      </trkpt>
      <trkpt lat="44.0795" lon="0.48689">
        <ele>117</ele>
        <time>2025-11-05T14:27:01.446Z</time>
      </trkpt>
      <trkpt lat="44.07951" lon="0.48689">
        <ele>116</ele>
        <time>2025-11-05T14:27:02.446Z</time>
      </trkpt>
      <trkpt lat="44.07952" lon="0.4869">
        <ele>117</ele>
        <time>2025-11-05T14:27:03.446Z</time>
      </trkpt>
      <trkpt lat="44.07952" lon="0.48691">
        <ele>117</ele>
        <time>2025-11-05T14:27:04.446Z</time>
      </trkpt>
      <trkpt lat="44.07953" lon="0.48691">
        <ele>117</ele>
        <time>2025-11-05T14:27:05.446Z</time>
      </trkpt>
      <trkpt lat="44.07954" lon="0.48692">
        <ele>116</ele>
        <time>2025-11-05T14:27:06.446Z</time>
      </trkpt>
      <trkpt lat="44.07955" lon="0.48693">
        <ele>116</ele>
        <time>2025-11-05T14:27:07.446Z</time>
      </trkpt>
      <trkpt lat="44.07956" lon="0.48693">
        <ele>116</ele>
        <time>2025-11-05T14:27:08.446Z</time>
      </trkpt>
      <trkpt lat="44.07956" lon="0.48694">
        <ele>116</ele>
        <time>2025-11-05T14:27:09.446Z</time>
      </trkpt>
      <trkpt lat="44.07957" lon="0.48694">
        <ele>116</ele>
        <time>2025-11-05T14:27:10.446Z</time>
      </trkpt>
      <trkpt lat="44.07958" lon="0.48695">
        <ele>117</ele>
        <time>2025-11-05T14:27:11.446Z</time>
      </trkpt>
      <trkpt lat="44.07959" lon="0.48696">
        <ele>117</ele>
        <time>2025-11-05T14:27:12.446Z</time>
      </trkpt>
      <trkpt lat="44.0796" lon="0.48696">
        <ele>117</ele>
        <time>2025-11-05T14:27:13.446Z</time>
      </trkpt>
      <trkpt lat="44.07961" lon="0.48697">
        <ele>118</ele>
        <time>2025-11-05T14:27:14.446Z</time>
      </trkpt>
      <trkpt lat="44.07962" lon="0.48697">
        <ele>118</ele>
        <time>2025-11-05T14:27:15.446Z</time>
      </trkpt>
      <trkpt lat="44.07962" lon="0.48698">
        <ele>118</ele>
        <time>2025-11-05T14:27:16.446Z</time>
      </trkpt>
      <trkpt lat="44.07963" lon="0.48698">
        <ele>118</ele>
        <time>2025-11-05T14:27:17.446Z</time>
      </trkpt>
      <trkpt lat="44.07964" lon="0.48699">
        <ele>118</ele>
        <time>2025-11-05T14:27:18.446Z</time>
      </trkpt>
      <trkpt lat="44.07965" lon="0.48699">
        <ele>118</ele>
        <time>2025-11-05T14:27:19.446Z</time>
      </trkpt>
      <trkpt lat="44.07965" lon="0.487">
        <ele>119</ele>
        <time>2025-11-05T14:27:20.446Z</time>
      </trkpt>
      <trkpt lat="44.07966" lon="0.48701">
        <ele>119</ele>
        <time>2025-11-05T14:27:21.446Z</time>
      </trkpt>
      <trkpt lat="44.07967" lon="0.48701">
        <ele>119</ele>
        <time>2025-11-05T14:27:22.446Z</time>
      </trkpt>
      <trkpt lat="44.07968" lon="0.48702">
        <ele>119</ele>
        <time>2025-11-05T14:27:23.446Z</time>
      </trkpt>
      <trkpt lat="44.07969" lon="0.48702">
        <ele>119</ele>
        <time>2025-11-05T14:27:24.446Z</time>
      </trkpt>
      <trkpt lat="44.0797" lon="0.48703">
        <ele>119</ele>
        <time>2025-11-05T14:27:25.446Z</time>
      </trkpt>
      <trkpt lat="44.07971" lon="0.48704">
        <ele>120</ele>
        <time>2025-11-05T14:27:26.446Z</time>
      </trkpt>
      <trkpt lat="44.07972" lon="0.48704">
        <ele>120</ele>
        <time>2025-11-05T14:27:27.446Z</time>
      </trkpt>
      <trkpt lat="44.07973" lon="0.48705">
        <ele>120</ele>
        <time>2025-11-05T14:27:28.446Z</time>
      </trkpt>
      <trkpt lat="44.07974" lon="0.48706">
        <ele>120</ele>
        <time>2025-11-05T14:27:29.446Z</time>
      </trkpt>
      <trkpt lat="44.07975" lon="0.48706">
        <ele>120</ele>
        <time>2025-11-05T14:27:30.446Z</time>
      </trkpt>
      <trkpt lat="44.07975" lon="0.48707">
        <ele>120</ele>
        <time>2025-11-05T14:27:31.446Z</time>
      </trkpt>
      <trkpt lat="44.07976" lon="0.48708">
        <ele>120</ele>
        <time>2025-11-05T14:27:32.446Z</time>
      </trkpt>
      <trkpt lat="44.07977" lon="0.48708">
        <ele>119</ele>
        <time>2025-11-05T14:27:33.446Z</time>
      </trkpt>
      <trkpt lat="44.07978" lon="0.48709">
        <ele>120</ele>
        <time>2025-11-05T14:27:34.446Z</time>
      </trkpt>
      <trkpt lat="44.07979" lon="0.4871">
        <ele>120</ele>
        <time>2025-11-05T14:27:35.446Z</time>
      </trkpt>
      <trkpt lat="44.0798" lon="0.48711">
        <ele>120</ele>
        <time>2025-11-05T14:27:36.446Z</time>
      </trkpt>
      <trkpt lat="44.07981" lon="0.48712">
        <ele>120</ele>
        <time>2025-11-05T14:27:37.446Z</time>
      </trkpt>
      <trkpt lat="44.07982" lon="0.48712">
        <ele>120</ele>
        <time>2025-11-05T14:27:38.446Z</time>
      </trkpt>
      <trkpt lat="44.07982" lon="0.48713">
        <ele>121</ele>
        <time>2025-11-05T14:27:39.446Z</time>
      </trkpt>
      <trkpt lat="44.07984" lon="0.48714">
        <ele>121</ele>
        <time>2025-11-05T14:27:40.446Z</time>
      </trkpt>
      <trkpt lat="44.07985" lon="0.48715">
        <ele>121</ele>
        <time>2025-11-05T14:27:41.446Z</time>
      </trkpt>
      <trkpt lat="44.07985" lon="0.48715">
        <ele>122</ele>
        <time>2025-11-05T14:27:42.446Z</time>
      </trkpt>
      <trkpt lat="44.07986" lon="0.48716">
        <ele>122</ele>
        <time>2025-11-05T14:27:43.446Z</time>
      </trkpt>
      <trkpt lat="44.07987" lon="0.48717">
        <ele>122</ele>
        <time>2025-11-05T14:27:44.446Z</time>
      </trkpt>
      <trkpt lat="44.07988" lon="0.48718">
        <ele>122</ele>
        <time>2025-11-05T14:27:45.446Z</time>
      </trkpt>
      <trkpt lat="44.07989" lon="0.48718">
        <ele>122</ele>
        <time>2025-11-05T14:27:46.446Z</time>
      </trkpt>
      <trkpt lat="44.0799" lon="0.48719">
        <ele>122</ele>
        <time>2025-11-05T14:27:47.446Z</time>
      </trkpt>
      <trkpt lat="44.07991" lon="0.4872">
        <ele>122</ele>
        <time>2025-11-05T14:27:48.446Z</time>
      </trkpt>
      <trkpt lat="44.07992" lon="0.48721">
        <ele>122</ele>
        <time>2025-11-05T14:27:49.446Z</time>
      </trkpt>
      <trkpt lat="44.07993" lon="0.48721">
        <ele>122</ele>
        <time>2025-11-05T14:27:50.446Z</time>
      </trkpt>
      <trkpt lat="44.07994" lon="0.48722">
        <ele>122</ele>
        <time>2025-11-05T14:27:51.446Z</time>
      </trkpt>
      <trkpt lat="44.07994" lon="0.48723">
        <ele>122</ele>
        <time>2025-11-05T14:27:52.446Z</time>
      </trkpt>
      <trkpt lat="44.07995" lon="0.48723">
        <ele>122</ele>
        <time>2025-11-05T14:27:53.446Z</time>
      </trkpt>
      <trkpt lat="44.07996" lon="0.48724">
        <ele>122</ele>
        <time>2025-11-05T14:27:54.446Z</time>
      </trkpt>
      <trkpt lat="44.07997" lon="0.48724">
        <ele>122</ele>
        <time>2025-11-05T14:27:55.446Z</time>
      </trkpt>
      <trkpt lat="44.07997" lon="0.48725">
        <ele>122</ele>
        <time>2025-11-05T14:27:56.446Z</time>
      </trkpt>
      <trkpt lat="44.07998" lon="0.48726">
        <ele>121</ele>
        <time>2025-11-05T14:27:57.446Z</time>
      </trkpt>
      <trkpt lat="44.07998" lon="0.48726">
        <ele>121</ele>
        <time>2025-11-05T14:27:58.446Z</time>
      </trkpt>
      <trkpt lat="44.07999" lon="0.48727">
        <ele>121</ele>
        <time>2025-11-05T14:27:59.446Z</time>
      </trkpt>
      <trkpt lat="44.08" lon="0.48727">
        <ele>122</ele>
        <time>2025-11-05T14:28:00.446Z</time>
      </trkpt>
      <trkpt lat="44.08" lon="0.48728">
        <ele>122</ele>
        <time>2025-11-05T14:28:01.446Z</time>
      </trkpt>
      <trkpt lat="44.08" lon="0.48728">
        <ele>122</ele>
        <time>2025-11-05T14:28:02.446Z</time>
      </trkpt>
      <trkpt lat="44.08" lon="0.48728">
        <ele>122</ele>
        <time>2025-11-05T14:28:03.446Z</time>
      </trkpt>
      <trkpt lat="44.08" lon="0.48728">
        <ele>122</ele>
        <time>2025-11-05T14:28:04.446Z</time>
      </trkpt>
      <trkpt lat="44.08" lon="0.48728">
        <ele>123</ele>
        <time>2025-11-05T14:28:05.446Z</time>
      </trkpt>
      <trkpt lat="44.08" lon="0.48728">
        <ele>123</ele>
        <time>2025-11-05T14:28:06.446Z</time>
      </trkpt>
      <trkpt lat="44.08" lon="0.48728">
        <ele>124</ele>
        <time>2025-11-05T14:28:07.446Z</time>
      </trkpt>
      <trkpt lat="44.08" lon="0.48728">
        <ele>123</ele>
        <time>2025-11-05T14:28:08.446Z</time>
      </trkpt>
      <trkpt lat="44.08" lon="0.48728">
        <ele>123</ele>
        <time>2025-11-05T14:28:09.446Z</time>
      </trkpt>
      <trkpt lat="44.08001" lon="0.48728">
        <ele>123</ele>
        <time>2025-11-05T14:28:10.446Z</time>
      </trkpt>
      <trkpt lat="44.08001" lon="0.48728">
        <ele>123</ele>
        <time>2025-11-05T14:28:11.446Z</time>
      </trkpt>
      <trkpt lat="44.08001" lon="0.48728">
        <ele>123</ele>
        <time>2025-11-05T14:28:12.446Z</time>
      </trkpt>
      <trkpt lat="44.08001" lon="0.48728">
        <ele>124</ele>
        <time>2025-11-05T14:28:13.446Z</time>
      </trkpt>
      <trkpt lat="44.08001" lon="0.48728">
        <ele>124</ele>
        <time>2025-11-05T14:28:14.446Z</time>
      </trkpt>
      <trkpt lat="44.08" lon="0.48728">
        <ele>124</ele>
        <time>2025-11-05T14:28:15.446Z</time>
      </trkpt>
      <trkpt lat="44.08" lon="0.48728">
        <ele>124</ele>
        <time>2025-11-05T14:28:16.446Z</time>
      </trkpt>
      <trkpt lat="44.08" lon="0.48728">
        <ele>124</ele>
        <time>2025-11-05T14:28:17.446Z</time>
      </trkpt>
      <trkpt lat="44.08" lon="0.48728">
        <ele>124</ele>
        <time>2025-11-05T14:28:18.446Z</time>
      </trkpt>
      <trkpt lat="44.08" lon="0.48729">
        <ele>124</ele>
        <time>2025-11-05T14:28:19.446Z</time>
      </trkpt>
      <trkpt lat="44.08" lon="0.48729">
        <ele>124</ele>
        <time>2025-11-05T14:28:20.446Z</time>
      </trkpt>
      <trkpt lat="44.08" lon="0.48729">
        <ele>123</ele>
        <time>2025-11-05T14:28:21.446Z</time>
      </trkpt>
      <trkpt lat="44.08" lon="0.48728">
        <ele>123</ele>
        <time>2025-11-05T14:28:22.446Z</time>
      </trkpt>
      <trkpt lat="44.08" lon="0.48728">
        <ele>123</ele>
        <time>2025-11-05T14:28:23.446Z</time>
      </trkpt>
      <trkpt lat="44.08" lon="0.48728">
        <ele>122</ele>
        <time>2025-11-05T14:28:24.446Z</time>
      </trkpt>
      <trkpt lat="44.08" lon="0.48728">
        <ele>123</ele>
        <time>2025-11-05T14:28:25.446Z</time>
      </trkpt>
      <trkpt lat="44.08" lon="0.48729">
        <ele>123</ele>
        <time>2025-11-05T14:28:26.446Z</time>
      </trkpt>
      <trkpt lat="44.08" lon="0.48729">
        <ele>124</ele>
        <time>2025-11-05T14:28:27.446Z</time>
      </trkpt>
      <trkpt lat="44.08" lon="0.48729">
        <ele>124</ele>
        <time>2025-11-05T14:28:28.446Z</time>
      </trkpt>
      <trkpt lat="44.08" lon="0.48729">
        <ele>125</ele>
        <time>2025-11-05T14:28:29.446Z</time>
      </trkpt>
      <trkpt lat="44.08" lon="0.48729">
        <ele>125</ele>
        <time>2025-11-05T14:28:30.446Z</time>
      </trkpt>
      <trkpt lat="44.08" lon="0.48729">
        <ele>125</ele>
        <time>2025-11-05T14:28:31.446Z</time>
      </trkpt>
      <trkpt lat="44.08" lon="0.48729">
        <ele>124</ele>
        <time>2025-11-05T14:28:32.446Z</time>
      </trkpt>
      <trkpt lat="44.08" lon="0.48729">
        <ele>124</ele>
        <time>2025-11-05T14:28:33.446Z</time>
      </trkpt>
      <trkpt lat="44.08" lon="0.48729">
        <ele>124</ele>
        <time>2025-11-05T14:28:34.446Z</time>
      </trkpt>
      <trkpt lat="44.08" lon="0.48729">
        <ele>123</ele>
        <time>2025-11-05T14:28:35.446Z</time>
      </trkpt>
      <trkpt lat="44.08" lon="0.48729">
        <ele>123</ele>
        <time>2025-11-05T14:28:36.446Z</time>
      </trkpt>
      <trkpt lat="44.08" lon="0.48729">
        <ele>123</ele>
        <time>2025-11-05T14:28:37.446Z</time>
      </trkpt>
      <trkpt lat="44.08" lon="0.48729">
        <ele>124</ele>
        <time>2025-11-05T14:28:38.446Z</time>
      </trkpt>
      <trkpt lat="44.08" lon="0.48729">
        <ele>124</ele>
        <time>2025-11-05T14:28:39.446Z</time>
      </trkpt>
      <trkpt lat="44.08" lon="0.48729">
        <ele>124</ele>
        <time>2025-11-05T14:28:40.446Z</time>
      </trkpt>
      <trkpt lat="44.08" lon="0.48729">
        <ele>124</ele>
        <time>2025-11-05T14:28:41.446Z</time>
      </trkpt>
      <trkpt lat="44.08" lon="0.48729">
        <ele>124</ele>
        <time>2025-11-05T14:28:42.446Z</time>
      </trkpt>
      <trkpt lat="44.07999" lon="0.48729">
        <ele>124</ele>
        <time>2025-11-05T14:28:43.446Z</time>
      </trkpt>
      <trkpt lat="44.07999" lon="0.48729">
        <ele>123</ele>
        <time>2025-11-05T14:28:44.446Z</time>
      </trkpt>
      <trkpt lat="44.07999" lon="0.48729">
        <ele>123</ele>
        <time>2025-11-05T14:28:45.446Z</time>
      </trkpt>
      <trkpt lat="44.07999" lon="0.48729">
        <ele>123</ele>
        <time>2025-11-05T14:28:46.446Z</time>
      </trkpt>
      <trkpt lat="44.07999" lon="0.48729">
        <ele>123</ele>
        <time>2025-11-05T14:28:47.446Z</time>
      </trkpt>
      <trkpt lat="44.07999" lon="0.48729">
        <ele>123</ele>
        <time>2025-11-05T14:28:48.446Z</time>
      </trkpt>
      <trkpt lat="44.07999" lon="0.48729">
        <ele>122</ele>
        <time>2025-11-05T14:28:49.446Z</time>
      </trkpt>
      <trkpt lat="44.07999" lon="0.48729">
        <ele>122</ele>
        <time>2025-11-05T14:28:50.446Z</time>
      </trkpt>
      <trkpt lat="44.07999" lon="0.48728">
        <ele>122</ele>
        <time>2025-11-05T14:28:51.446Z</time>
      </trkpt>
      <trkpt lat="44.07999" lon="0.48728">
        <ele>122</ele>
        <time>2025-11-05T14:28:52.446Z</time>
      </trkpt>
      <trkpt lat="44.07999" lon="0.48728">
        <ele>122</ele>
        <time>2025-11-05T14:28:53.446Z</time>
      </trkpt>
      <trkpt lat="44.07999" lon="0.48728">
        <ele>122</ele>
        <time>2025-11-05T14:28:54.446Z</time>
      </trkpt>
      <trkpt lat="44.07999" lon="0.48728">
        <ele>122</ele>
        <time>2025-11-05T14:28:55.446Z</time>
      </trkpt>
      <trkpt lat="44.07999" lon="0.48728">
        <ele>122</ele>
        <time>2025-11-05T14:28:56.446Z</time>
      </trkpt>
      <trkpt lat="44.07999" lon="0.48728">
        <ele>122</ele>
        <time>2025-11-05T14:28:57.446Z</time>
      </trkpt>
      <trkpt lat="44.07999" lon="0.48728">
        <ele>122</ele>
        <time>2025-11-05T14:28:58.446Z</time>
      </trkpt>
      <trkpt lat="44.07999" lon="0.48728">
        <ele>122</ele>
        <time>2025-11-05T14:28:59.446Z</time>
      </trkpt>
      <trkpt lat="44.07999" lon="0.48728">
        <ele>122</ele>
        <time>2025-11-05T14:29:00.446Z</time>
      </trkpt>
      <trkpt lat="44.07999" lon="0.48728">
        <ele>122</ele>
        <time>2025-11-05T14:29:01.446Z</time>
      </trkpt>
      <trkpt lat="44.07999" lon="0.48728">
        <ele>122</ele>
        <time>2025-11-05T14:29:02.446Z</time>
      </trkpt>
      <trkpt lat="44.07999" lon="0.48728">
        <ele>123</ele>
        <time>2025-11-05T14:29:03.446Z</time>
      </trkpt>
      <trkpt lat="44.07999" lon="0.48728">
        <ele>123</ele>
        <time>2025-11-05T14:29:04.446Z</time>
      </trkpt>
      <trkpt lat="44.07999" lon="0.48728">
        <ele>123</ele>
        <time>2025-11-05T14:29:05.446Z</time>
      </trkpt>
      <trkpt lat="44.07999" lon="0.48728">
        <ele>123</ele>
        <time>2025-11-05T14:29:06.446Z</time>
      </trkpt>
      <trkpt lat="44.07999" lon="0.48728">
        <ele>123</ele>
        <time>2025-11-05T14:29:07.446Z</time>
      </trkpt>
      <trkpt lat="44.07999" lon="0.48728">
        <ele>123</ele>
        <time>2025-11-05T14:29:08.446Z</time>
      </trkpt>
      <trkpt lat="44.07999" lon="0.48728">
        <ele>123</ele>
        <time>2025-11-05T14:29:09.446Z</time>
      </trkpt>
      <trkpt lat="44.07999" lon="0.48727">
        <ele>123</ele>
        <time>2025-11-05T14:29:10.446Z</time>
      </trkpt>
      <trkpt lat="44.07999" lon="0.48727">
        <ele>123</ele>
        <time>2025-11-05T14:29:11.446Z</time>
      </trkpt>
      <trkpt lat="44.07999" lon="0.48727">
        <ele>123</ele>
        <time>2025-11-05T14:29:12.446Z</time>
      </trkpt>
      <trkpt lat="44.07999" lon="0.48727">
        <ele>123</ele>
        <time>2025-11-05T14:29:13.446Z</time>
      </trkpt>
      <trkpt lat="44.07999" lon="0.48728">
        <ele>123</ele>
        <time>2025-11-05T14:29:14.446Z</time>
      </trkpt>
      <trkpt lat="44.07999" lon="0.48728">
        <ele>124</ele>
        <time>2025-11-05T14:29:15.446Z</time>
      </trkpt>
      <trkpt lat="44.07999" lon="0.48728">
        <ele>124</ele>
        <time>2025-11-05T14:29:16.446Z</time>
      </trkpt>
      <trkpt lat="44.07999" lon="0.48728">
        <ele>124</ele>
        <time>2025-11-05T14:29:17.446Z</time>
      </trkpt>
      <trkpt lat="44.07999" lon="0.48728">
        <ele>124</ele>
        <time>2025-11-05T14:29:18.446Z</time>
      </trkpt>
      <trkpt lat="44.07999" lon="0.48728">
        <ele>124</ele>
        <time>2025-11-05T14:29:19.446Z</time>
      </trkpt>
      <trkpt lat="44.07999" lon="0.48728">
        <ele>124</ele>
        <time>2025-11-05T14:29:20.446Z</time>
      </trkpt>
      <trkpt lat="44.07999" lon="0.48728">
        <ele>124</ele>
        <time>2025-11-05T14:29:21.446Z</time>
      </trkpt>
      <trkpt lat="44.07999" lon="0.48728">
        <ele>124</ele>
        <time>2025-11-05T14:29:22.446Z</time>
      </trkpt>
      <trkpt lat="44.07999" lon="0.48728">
        <ele>124</ele>
        <time>2025-11-05T14:29:23.446Z</time>
      </trkpt>
      <trkpt lat="44.07999" lon="0.48728">
        <ele>124</ele>
        <time>2025-11-05T14:29:24.446Z</time>
      </trkpt>
      <trkpt lat="44.08" lon="0.48727">
        <ele>124</ele>
        <time>2025-11-05T14:29:25.446Z</time>
      </trkpt>
      <trkpt lat="44.08" lon="0.48727">
        <ele>124</ele>
        <time>2025-11-05T14:29:26.446Z</time>
      </trkpt>
      <trkpt lat="44.08" lon="0.48727">
        <ele>124</ele>
        <time>2025-11-05T14:29:27.446Z</time>
      </trkpt>
      <trkpt lat="44.08" lon="0.48727">
        <ele>124</ele>
        <time>2025-11-05T14:29:28.446Z</time>
      </trkpt>
      <trkpt lat="44.08001" lon="0.48728">
        <ele>124</ele>
        <time>2025-11-05T14:29:29.446Z</time>
      </trkpt>
      <trkpt lat="44.08001" lon="0.48728">
        <ele>124</ele>
        <time>2025-11-05T14:29:30.446Z</time>
      </trkpt>
      <trkpt lat="44.08001" lon="0.48728">
        <ele>124</ele>
        <time>2025-11-05T14:29:31.446Z</time>
      </trkpt>
      <trkpt lat="44.08001" lon="0.48729">
        <ele>124</ele>
        <time>2025-11-05T14:29:32.446Z</time>
      </trkpt>
      <trkpt lat="44.08001" lon="0.48729">
        <ele>124</ele>
        <time>2025-11-05T14:29:33.446Z</time>
      </trkpt>
      <trkpt lat="44.08001" lon="0.48729">
        <ele>123</ele>
        <time>2025-11-05T14:29:34.446Z</time>
      </trkpt>
      <trkpt lat="44.08001" lon="0.4873">
        <ele>123</ele>
        <time>2025-11-05T14:29:35.446Z</time>
      </trkpt>
      <trkpt lat="44.08001" lon="0.4873">
        <ele>124</ele>
        <time>2025-11-05T14:29:36.446Z</time>
      </trkpt>
      <trkpt lat="44.08001" lon="0.4873">
        <ele>124</ele>
        <time>2025-11-05T14:29:37.446Z</time>
      </trkpt>
      <trkpt lat="44.08001" lon="0.4873">
        <ele>124</ele>
        <time>2025-11-05T14:29:38.446Z</time>
      </trkpt>
      <trkpt lat="44.08001" lon="0.4873">
        <ele>124</ele>
        <time>2025-11-05T14:29:39.446Z</time>
      </trkpt>
      <trkpt lat="44.08001" lon="0.4873">
        <ele>125</ele>
        <time>2025-11-05T14:29:40.446Z</time>
      </trkpt>
      <trkpt lat="44.08001" lon="0.4873">
        <ele>125</ele>
        <time>2025-11-05T14:29:41.446Z</time>
      </trkpt>
      <trkpt lat="44.08001" lon="0.4873">
        <ele>125</ele>
        <time>2025-11-05T14:29:42.446Z</time>
      </trkpt>
      <trkpt lat="44.08001" lon="0.4873">
        <ele>125</ele>
        <time>2025-11-05T14:29:43.446Z</time>
      </trkpt>
      <trkpt lat="44.08001" lon="0.4873">
        <ele>125</ele>
        <time>2025-11-05T14:29:44.446Z</time>
      </trkpt>
      <trkpt lat="44.08001" lon="0.4873">
        <ele>125</ele>
        <time>2025-11-05T14:29:45.446Z</time>
      </trkpt>
      <trkpt lat="44.08001" lon="0.4873">
        <ele>125</ele>
        <time>2025-11-05T14:29:46.446Z</time>
      </trkpt>
      <trkpt lat="44.08001" lon="0.4873">
        <ele>125</ele>
        <time>2025-11-05T14:29:47.446Z</time>
      </trkpt>
      <trkpt lat="44.08001" lon="0.4873">
        <ele>125</ele>
        <time>2025-11-05T14:29:48.446Z</time>
      </trkpt>
      <trkpt lat="44.08001" lon="0.4873">
        <ele>125</ele>
        <time>2025-11-05T14:29:49.446Z</time>
      </trkpt>
      <trkpt lat="44.08001" lon="0.4873">
        <ele>125</ele>
        <time>2025-11-05T14:29:50.446Z</time>
      </trkpt>
      <trkpt lat="44.08002" lon="0.4873">
        <ele>125</ele>
        <time>2025-11-05T14:29:51.446Z</time>
      </trkpt>
      <trkpt lat="44.08002" lon="0.4873">
        <ele>125</ele>
        <time>2025-11-05T14:29:52.446Z</time>
      </trkpt>
      <trkpt lat="44.08002" lon="0.4873">
        <ele>125</ele>
        <time>2025-11-05T14:29:53.446Z</time>
      </trkpt>
      <trkpt lat="44.08002" lon="0.4873">
        <ele>125</ele>
        <time>2025-11-05T14:29:54.446Z</time>
      </trkpt>
      <trkpt lat="44.08002" lon="0.4873">
        <ele>124</ele>
        <time>2025-11-05T14:29:55.446Z</time>
      </trkpt>
      <trkpt lat="44.08002" lon="0.48729">
        <ele>124</ele>
        <time>2025-11-05T14:29:56.446Z</time>
      </trkpt>
      <trkpt lat="44.08001" lon="0.48729">
        <ele>124</ele>
        <time>2025-11-05T14:29:57.446Z</time>
      </trkpt>
      <trkpt lat="44.08001" lon="0.48729">
        <ele>124</ele>
        <time>2025-11-05T14:29:58.446Z</time>
      </trkpt>
      <trkpt lat="44.08001" lon="0.48729">
        <ele>124</ele>
        <time>2025-11-05T14:29:59.446Z</time>
      </trkpt>
      <trkpt lat="44.08001" lon="0.48729">
        <ele>124</ele>
        <time>2025-11-05T14:30:00.446Z</time>
      </trkpt>
      <trkpt lat="44.08001" lon="0.48729">
        <ele>124</ele>
        <time>2025-11-05T14:30:01.446Z</time>
      </trkpt>
      <trkpt lat="44.08001" lon="0.48729">
        <ele>124</ele>
        <time>2025-11-05T14:30:02.446Z</time>
      </trkpt>
      <trkpt lat="44.08001" lon="0.48729">
        <ele>124</ele>
        <time>2025-11-05T14:30:03.446Z</time>
      </trkpt>
      <trkpt lat="44.08001" lon="0.4873">
        <ele>124</ele>
        <time>2025-11-05T14:30:04.446Z</time>
      </trkpt>
      <trkpt lat="44.08001" lon="0.4873">
        <ele>124</ele>
        <time>2025-11-05T14:30:05.446Z</time>
      </trkpt>
      <trkpt lat="44.08001" lon="0.4873">
        <ele>124</ele>
        <time>2025-11-05T14:30:06.446Z</time>
      </trkpt>
      <trkpt lat="44.08001" lon="0.4873">
        <ele>124</ele>
        <time>2025-11-05T14:30:07.446Z</time>
      </trkpt>
      <trkpt lat="44.08001" lon="0.4873">
        <ele>123</ele>
        <time>2025-11-05T14:30:08.446Z</time>
      </trkpt>
      <trkpt lat="44.08001" lon="0.4873">
        <ele>123</ele>
        <time>2025-11-05T14:30:09.446Z</time>
      </trkpt>
      <trkpt lat="44.08001" lon="0.4873">
        <ele>123</ele>
        <time>2025-11-05T14:30:10.446Z</time>
      </trkpt>
      <trkpt lat="44.08001" lon="0.4873">
        <ele>123</ele>
        <time>2025-11-05T14:30:11.446Z</time>
      </trkpt>
      <trkpt lat="44.08001" lon="0.4873">
        <ele>123</ele>
        <time>2025-11-05T14:30:12.446Z</time>
      </trkpt>
      <trkpt lat="44.08001" lon="0.4873">
        <ele>123</ele>
        <time>2025-11-05T14:30:13.446Z</time>
      </trkpt>
      <trkpt lat="44.08001" lon="0.4873">
        <ele>123</ele>
        <time>2025-11-05T14:30:14.446Z</time>
      </trkpt>
      <trkpt lat="44.08001" lon="0.4873">
        <ele>123</ele>
        <time>2025-11-05T14:30:15.446Z</time>
      </trkpt>
      <trkpt lat="44.08001" lon="0.4873">
        <ele>123</ele>
        <time>2025-11-05T14:30:16.446Z</time>
      </trkpt>
      <trkpt lat="44.08001" lon="0.48729">
        <ele>123</ele>
        <time>2025-11-05T14:30:17.446Z</time>
      </trkpt>
      <trkpt lat="44.08001" lon="0.48729">
        <ele>123</ele>
        <time>2025-11-05T14:30:18.446Z</time>
      </trkpt>
      <trkpt lat="44.08001" lon="0.48729">
        <ele>123</ele>
        <time>2025-11-05T14:30:19.446Z</time>
      </trkpt>
      <trkpt lat="44.08001" lon="0.4873">
        <ele>123</ele>
        <time>2025-11-05T14:30:20.446Z</time>
      </trkpt>
      <trkpt lat="44.08001" lon="0.4873">
        <ele>123</ele>
        <time>2025-11-05T14:30:21.446Z</time>
      </trkpt>
      <trkpt lat="44.08001" lon="0.4873">
        <ele>123</ele>
        <time>2025-11-05T14:30:22.446Z</time>
      </trkpt>
      <trkpt lat="44.08001" lon="0.4873">
        <ele>123</ele>
        <time>2025-11-05T14:30:23.446Z</time>
      </trkpt>
      <trkpt lat="44.08001" lon="0.48729">
        <ele>123</ele>
        <time>2025-11-05T14:30:24.446Z</time>
      </trkpt>
      <trkpt lat="44.08001" lon="0.48729">
        <ele>123</ele>
        <time>2025-11-05T14:30:25.446Z</time>
      </trkpt>
      <trkpt lat="44.08001" lon="0.48729">
        <ele>124</ele>
        <time>2025-11-05T14:30:26.446Z</time>
      </trkpt>
      <trkpt lat="44.08001" lon="0.48729">
        <ele>124</ele>
        <time>2025-11-05T14:30:27.446Z</time>
      </trkpt>
      <trkpt lat="44.08001" lon="0.48729">
        <ele>124</ele>
        <time>2025-11-05T14:30:28.446Z</time>
      </trkpt>
      <trkpt lat="44.08" lon="0.48729">
        <ele>124</ele>
        <time>2025-11-05T14:30:29.446Z</time>
      </trkpt>
      <trkpt lat="44.08" lon="0.48729">
        <ele>124</ele>
        <time>2025-11-05T14:30:30.446Z</time>
      </trkpt>
      <trkpt lat="44.08" lon="0.48729">
        <ele>123</ele>
        <time>2025-11-05T14:30:31.446Z</time>
      </trkpt>
      <trkpt lat="44.07999" lon="0.48729">
        <ele>123</ele>
        <time>2025-11-05T14:30:32.446Z</time>
      </trkpt>
      <trkpt lat="44.07999" lon="0.48728">
        <ele>123</ele>
        <time>2025-11-05T14:30:33.446Z</time>
      </trkpt>
      <trkpt lat="44.07998" lon="0.48728">
        <ele>123</ele>
        <time>2025-11-05T14:30:34.446Z</time>
      </trkpt>
      <trkpt lat="44.07998" lon="0.48728">
        <ele>123</ele>
        <time>2025-11-05T14:30:35.446Z</time>
      </trkpt>
      <trkpt lat="44.07998" lon="0.48728">
        <ele>122</ele>
        <time>2025-11-05T14:30:36.446Z</time>
      </trkpt>
      <trkpt lat="44.07998" lon="0.48729">
        <ele>122</ele>
        <time>2025-11-05T14:30:37.446Z</time>
      </trkpt>
      <trkpt lat="44.07998" lon="0.48728">
        <ele>122</ele>
        <time>2025-11-05T14:30:38.446Z</time>
      </trkpt>
      <trkpt lat="44.07998" lon="0.48728">
        <ele>122</ele>
        <time>2025-11-05T14:30:39.446Z</time>
      </trkpt>
      <trkpt lat="44.07998" lon="0.48728">
        <ele>122</ele>
        <time>2025-11-05T14:30:40.446Z</time>
      </trkpt>
      <trkpt lat="44.07998" lon="0.48728">
        <ele>123</ele>
        <time>2025-11-05T14:30:41.446Z</time>
      </trkpt>
      <trkpt lat="44.07998" lon="0.48728">
        <ele>123</ele>
        <time>2025-11-05T14:30:42.446Z</time>
      </trkpt>
      <trkpt lat="44.07998" lon="0.48728">
        <ele>123</ele>
        <time>2025-11-05T14:30:43.446Z</time>
      </trkpt>
      <trkpt lat="44.07998" lon="0.48728">
        <ele>123</ele>
        <time>2025-11-05T14:30:44.446Z</time>
      </trkpt>
      <trkpt lat="44.07998" lon="0.48728">
        <ele>122</ele>
        <time>2025-11-05T14:30:45.446Z</time>
      </trkpt>
      <trkpt lat="44.07998" lon="0.48728">
        <ele>122</ele>
        <time>2025-11-05T14:30:46.446Z</time>
      </trkpt>
      <trkpt lat="44.07998" lon="0.48728">
        <ele>122</ele>
        <time>2025-11-05T14:30:47.446Z</time>
      </trkpt>
      <trkpt lat="44.07998" lon="0.48728">
        <ele>122</ele>
        <time>2025-11-05T14:30:48.446Z</time>
      </trkpt>
      <trkpt lat="44.07998" lon="0.48728">
        <ele>122</ele>
        <time>2025-11-05T14:30:49.446Z</time>
      </trkpt>
      <trkpt lat="44.07998" lon="0.48728">
        <ele>122</ele>
        <time>2025-11-05T14:30:50.446Z</time>
      </trkpt>
      <trkpt lat="44.07998" lon="0.48729">
        <ele>122</ele>
        <time>2025-11-05T14:30:51.446Z</time>
      </trkpt>
      <trkpt lat="44.07998" lon="0.48729">
        <ele>122</ele>
        <time>2025-11-05T14:30:52.446Z</time>
      </trkpt>
      <trkpt lat="44.07998" lon="0.48729">
        <ele>123</ele>
        <time>2025-11-05T14:30:53.446Z</time>
      </trkpt>
      <trkpt lat="44.07998" lon="0.48729">
        <ele>123</ele>
        <time>2025-11-05T14:30:54.446Z</time>
      </trkpt>
      <trkpt lat="44.07998" lon="0.48729">
        <ele>122</ele>
        <time>2025-11-05T14:30:55.446Z</time>
      </trkpt>
      <trkpt lat="44.07998" lon="0.48728">
        <ele>122</ele>
        <time>2025-11-05T14:30:56.446Z</time>
      </trkpt>
      <trkpt lat="44.07998" lon="0.48729">
        <ele>122</ele>
        <time>2025-11-05T14:30:57.446Z</time>
      </trkpt>
      <trkpt lat="44.07998" lon="0.48728">
        <ele>122</ele>
        <time>2025-11-05T14:30:58.446Z</time>
      </trkpt>
      <trkpt lat="44.07998" lon="0.48728">
        <ele>122</ele>
        <time>2025-11-05T14:30:59.446Z</time>
      </trkpt>
      <trkpt lat="44.07998" lon="0.48728">
        <ele>123</ele>
        <time>2025-11-05T14:31:00.446Z</time>
      </trkpt>
      <trkpt lat="44.07998" lon="0.48728">
        <ele>123</ele>
        <time>2025-11-05T14:31:01.446Z</time>
      </trkpt>
      <trkpt lat="44.07998" lon="0.48728">
        <ele>123</ele>
        <time>2025-11-05T14:31:02.446Z</time>
      </trkpt>
      <trkpt lat="44.07998" lon="0.48728">
        <ele>122</ele>
        <time>2025-11-05T14:31:03.446Z</time>
      </trkpt>
      <trkpt lat="44.07998" lon="0.48728">
        <ele>122</ele>
        <time>2025-11-05T14:31:04.446Z</time>
      </trkpt>
      <trkpt lat="44.07998" lon="0.48728">
        <ele>122</ele>
        <time>2025-11-05T14:31:05.446Z</time>
      </trkpt>
      <trkpt lat="44.07999" lon="0.48727">
        <ele>123</ele>
        <time>2025-11-05T14:31:06.446Z</time>
      </trkpt>
      <trkpt lat="44.07999" lon="0.48727">
        <ele>122</ele>
        <time>2025-11-05T14:31:07.446Z</time>
      </trkpt>
      <trkpt lat="44.07999" lon="0.48728">
        <ele>122</ele>
        <time>2025-11-05T14:31:08.446Z</time>
      </trkpt>
      <trkpt lat="44.07999" lon="0.48728">
        <ele>122</ele>
        <time>2025-11-05T14:31:09.446Z</time>
      </trkpt>
      <trkpt lat="44.08" lon="0.48729">
        <ele>121</ele>
        <time>2025-11-05T14:31:10.446Z</time>
      </trkpt>
      <trkpt lat="44.08" lon="0.48729">
        <ele>121</ele>
        <time>2025-11-05T14:31:11.446Z</time>
      </trkpt>
      <trkpt lat="44.08" lon="0.4873">
        <ele>121</ele>
        <time>2025-11-05T14:31:12.446Z</time>
      </trkpt>
      <trkpt lat="44.08001" lon="0.4873">
        <ele>121</ele>
        <time>2025-11-05T14:31:13.446Z</time>
      </trkpt>
      <trkpt lat="44.08001" lon="0.4873">
        <ele>122</ele>
        <time>2025-11-05T14:31:14.446Z</time>
      </trkpt>
      <trkpt lat="44.08002" lon="0.4873">
        <ele>122</ele>
        <time>2025-11-05T14:31:15.446Z</time>
      </trkpt>
      <trkpt lat="44.08002" lon="0.48731">
        <ele>122</ele>
        <time>2025-11-05T14:31:16.446Z</time>
      </trkpt>
      <trkpt lat="44.08002" lon="0.48731">
        <ele>123</ele>
        <time>2025-11-05T14:31:17.446Z</time>
      </trkpt>
      <trkpt lat="44.08003" lon="0.48732">
        <ele>123</ele>
        <time>2025-11-05T14:31:18.446Z</time>
      </trkpt>
      <trkpt lat="44.08003" lon="0.48733">
        <ele>123</ele>
        <time>2025-11-05T14:31:19.446Z</time>
      </trkpt>
      <trkpt lat="44.08003" lon="0.48733">
        <ele>124</ele>
        <time>2025-11-05T14:31:20.446Z</time>
      </trkpt>
      <trkpt lat="44.08004" lon="0.48734">
        <ele>124</ele>
        <time>2025-11-05T14:31:21.446Z</time>
      </trkpt>
      <trkpt lat="44.08004" lon="0.48735">
        <ele>124</ele>
        <time>2025-11-05T14:31:22.446Z</time>
      </trkpt>
      <trkpt lat="44.08005" lon="0.48735">
        <ele>124</ele>
        <time>2025-11-05T14:31:23.446Z</time>
      </trkpt>
      <trkpt lat="44.08005" lon="0.48735">
        <ele>124</ele>
        <time>2025-11-05T14:31:24.446Z</time>
      </trkpt>
      <trkpt lat="44.08005" lon="0.48736">
        <ele>124</ele>
        <time>2025-11-05T14:31:25.446Z</time>
      </trkpt>
      <trkpt lat="44.08006" lon="0.48736">
        <ele>124</ele>
        <time>2025-11-05T14:31:26.446Z</time>
      </trkpt>
      <trkpt lat="44.08006" lon="0.48737">
        <ele>124</ele>
        <time>2025-11-05T14:31:27.446Z</time>
      </trkpt>
      <trkpt lat="44.08006" lon="0.48738">
        <ele>124</ele>
        <time>2025-11-05T14:31:28.446Z</time>
      </trkpt>
      <trkpt lat="44.08007" lon="0.48738">
        <ele>124</ele>
        <time>2025-11-05T14:31:29.446Z</time>
      </trkpt>
      <trkpt lat="44.08007" lon="0.48738">
        <ele>124</ele>
        <time>2025-11-05T14:31:30.446Z</time>
      </trkpt>
      <trkpt lat="44.08007" lon="0.48738">
        <ele>124</ele>
        <time>2025-11-05T14:31:31.446Z</time>
      </trkpt>
      <trkpt lat="44.08007" lon="0.48738">
        <ele>124</ele>
        <time>2025-11-05T14:31:32.446Z</time>
      </trkpt>
      <trkpt lat="44.08007" lon="0.48738">
        <ele>125</ele>
        <time>2025-11-05T14:31:33.446Z</time>
      </trkpt>
      <trkpt lat="44.08007" lon="0.48738">
        <ele>125</ele>
        <time>2025-11-05T14:31:34.446Z</time>
      </trkpt>
      <trkpt lat="44.08007" lon="0.48739">
        <ele>125</ele>
        <time>2025-11-05T14:31:35.446Z</time>
      </trkpt>
      <trkpt lat="44.08007" lon="0.48738">
        <ele>125</ele>
        <time>2025-11-05T14:31:36.446Z</time>
      </trkpt>
      <trkpt lat="44.08007" lon="0.48739">
        <ele>125</ele>
        <time>2025-11-05T14:31:37.446Z</time>
      </trkpt>
      <trkpt lat="44.08007" lon="0.48739">
        <ele>125</ele>
        <time>2025-11-05T14:31:38.446Z</time>
      </trkpt>
      <trkpt lat="44.08007" lon="0.48739">
        <ele>124</ele>
        <time>2025-11-05T14:31:39.446Z</time>
      </trkpt>
      <trkpt lat="44.08006" lon="0.48739">
        <ele>124</ele>
        <time>2025-11-05T14:31:40.446Z</time>
      </trkpt>
      <trkpt lat="44.08006" lon="0.48739">
        <ele>124</ele>
        <time>2025-11-05T14:31:41.446Z</time>
      </trkpt>
      <trkpt lat="44.08006" lon="0.48739">
        <ele>124</ele>
        <time>2025-11-05T14:31:42.446Z</time>
      </trkpt>
      <trkpt lat="44.08006" lon="0.48739">
        <ele>124</ele>
        <time>2025-11-05T14:31:43.446Z</time>
      </trkpt>
      <trkpt lat="44.08006" lon="0.48739">
        <ele>124</ele>
        <time>2025-11-05T14:31:44.446Z</time>
      </trkpt>
      <trkpt lat="44.08006" lon="0.48739">
        <ele>124</ele>
        <time>2025-11-05T14:31:45.446Z</time>
      </trkpt>
      <trkpt lat="44.08006" lon="0.48738">
        <ele>124</ele>
        <time>2025-11-05T14:31:46.446Z</time>
      </trkpt>
      <trkpt lat="44.08007" lon="0.48737">
        <ele>124</ele>
        <time>2025-11-05T14:31:47.446Z</time>
      </trkpt>
      <trkpt lat="44.08007" lon="0.48736">
        <ele>124</ele>
        <time>2025-11-05T14:31:48.446Z</time>
      </trkpt>
      <trkpt lat="44.08008" lon="0.48736">
        <ele>124</ele>
        <time>2025-11-05T14:31:49.446Z</time>
      </trkpt>
      <trkpt lat="44.08009" lon="0.48736">
        <ele>124</ele>
        <time>2025-11-05T14:31:50.446Z</time>
      </trkpt>
      <trkpt lat="44.0801" lon="0.48737">
        <ele>124</ele>
        <time>2025-11-05T14:31:51.446Z</time>
      </trkpt>
      <trkpt lat="44.08011" lon="0.48737">
        <ele>124</ele>
        <time>2025-11-05T14:31:52.446Z</time>
      </trkpt>
      <trkpt lat="44.08012" lon="0.48738">
        <ele>125</ele>
        <time>2025-11-05T14:31:53.446Z</time>
      </trkpt>
      <trkpt lat="44.08013" lon="0.48738">
        <ele>124</ele>
        <time>2025-11-05T14:31:54.446Z</time>
      </trkpt>
      <trkpt lat="44.08014" lon="0.48739">
        <ele>125</ele>
        <time>2025-11-05T14:31:55.446Z</time>
      </trkpt>
      <trkpt lat="44.08015" lon="0.4874">
        <ele>125</ele>
        <time>2025-11-05T14:31:56.446Z</time>
      </trkpt>
      <trkpt lat="44.08016" lon="0.4874">
        <ele>125</ele>
        <time>2025-11-05T14:31:57.446Z</time>
      </trkpt>
      <trkpt lat="44.08017" lon="0.48741">
        <ele>124</ele>
        <time>2025-11-05T14:31:58.446Z</time>
      </trkpt>
      <trkpt lat="44.08018" lon="0.48742">
        <ele>124</ele>
        <time>2025-11-05T14:31:59.446Z</time>
      </trkpt>
      <trkpt lat="44.08019" lon="0.48742">
        <ele>124</ele>
        <time>2025-11-05T14:32:00.446Z</time>
      </trkpt>
      <trkpt lat="44.0802" lon="0.48743">
        <ele>125</ele>
        <time>2025-11-05T14:32:01.446Z</time>
      </trkpt>
      <trkpt lat="44.08021" lon="0.48743">
        <ele>125</ele>
        <time>2025-11-05T14:32:02.446Z</time>
      </trkpt>
      <trkpt lat="44.08021" lon="0.48744">
        <ele>125</ele>
        <time>2025-11-05T14:32:03.446Z</time>
      </trkpt>
      <trkpt lat="44.08022" lon="0.48744">
        <ele>125</ele>
        <time>2025-11-05T14:32:04.446Z</time>
      </trkpt>
      <trkpt lat="44.08022" lon="0.48745">
        <ele>125</ele>
        <time>2025-11-05T14:32:05.446Z</time>
      </trkpt>
      <trkpt lat="44.08022" lon="0.48745">
        <ele>124</ele>
        <time>2025-11-05T14:32:06.446Z</time>
      </trkpt>
      <trkpt lat="44.08022" lon="0.48745">
        <ele>124</ele>
        <time>2025-11-05T14:32:07.446Z</time>
      </trkpt>
      <trkpt lat="44.08023" lon="0.48745">
        <ele>124</ele>
        <time>2025-11-05T14:32:08.446Z</time>
      </trkpt>
      <trkpt lat="44.08024" lon="0.48746">
        <ele>124</ele>
        <time>2025-11-05T14:32:09.446Z</time>
      </trkpt>
      <trkpt lat="44.08025" lon="0.48747">
        <ele>124</ele>
        <time>2025-11-05T14:32:10.446Z</time>
      </trkpt>
      <trkpt lat="44.08026" lon="0.48748">
        <ele>124</ele>
        <time>2025-11-05T14:32:11.446Z</time>
      </trkpt>
      <trkpt lat="44.08028" lon="0.48749">
        <ele>124</ele>
        <time>2025-11-05T14:32:12.446Z</time>
      </trkpt>
      <trkpt lat="44.08029" lon="0.4875">
        <ele>124</ele>
        <time>2025-11-05T14:32:13.446Z</time>
      </trkpt>
      <trkpt lat="44.0803" lon="0.48751">
        <ele>123</ele>
        <time>2025-11-05T14:32:14.446Z</time>
      </trkpt>
      <trkpt lat="44.08031" lon="0.48752">
        <ele>123</ele>
        <time>2025-11-05T14:32:15.446Z</time>
      </trkpt>
      <trkpt lat="44.08032" lon="0.48753">
        <ele>123</ele>
        <time>2025-11-05T14:32:16.446Z</time>
      </trkpt>
      <trkpt lat="44.08033" lon="0.48753">
        <ele>123</ele>
        <time>2025-11-05T14:32:17.446Z</time>
      </trkpt>
      <trkpt lat="44.08034" lon="0.48754">
        <ele>123</ele>
        <time>2025-11-05T14:32:18.447Z</time>
      </trkpt>
      <trkpt lat="44.08035" lon="0.48755">
        <ele>123</ele>
        <time>2025-11-05T14:32:19.446Z</time>
      </trkpt>
      <trkpt lat="44.08036" lon="0.48756">
        <ele>123</ele>
        <time>2025-11-05T14:32:20.446Z</time>
      </trkpt>
      <trkpt lat="44.08037" lon="0.48757">
        <ele>123</ele>
        <time>2025-11-05T14:32:21.446Z</time>
      </trkpt>
      <trkpt lat="44.08038" lon="0.48758">
        <ele>123</ele>
        <time>2025-11-05T14:32:22.446Z</time>
      </trkpt>
      <trkpt lat="44.08039" lon="0.48759">
        <ele>123</ele>
        <time>2025-11-05T14:32:23.446Z</time>
      </trkpt>
      <trkpt lat="44.0804" lon="0.4876">
        <ele>123</ele>
        <time>2025-11-05T14:32:24.446Z</time>
      </trkpt>
      <trkpt lat="44.08042" lon="0.48761">
        <ele>123</ele>
        <time>2025-11-05T14:32:25.446Z</time>
      </trkpt>
      <trkpt lat="44.08043" lon="0.48762">
        <ele>123</ele>
        <time>2025-11-05T14:32:26.446Z</time>
      </trkpt>
      <trkpt lat="44.08044" lon="0.48763">
        <ele>123</ele>
        <time>2025-11-05T14:32:27.446Z</time>
      </trkpt>
      <trkpt lat="44.08045" lon="0.48764">
        <ele>123</ele>
        <time>2025-11-05T14:32:28.446Z</time>
      </trkpt>
      <trkpt lat="44.08046" lon="0.48765">
        <ele>123</ele>
        <time>2025-11-05T14:32:29.446Z</time>
      </trkpt>
      <trkpt lat="44.08047" lon="0.48765">
        <ele>123</ele>
        <time>2025-11-05T14:32:30.446Z</time>
      </trkpt>
      <trkpt lat="44.08048" lon="0.48766">
        <ele>123</ele>
        <time>2025-11-05T14:32:31.446Z</time>
      </trkpt>
      <trkpt lat="44.08049" lon="0.48767">
        <ele>123</ele>
        <time>2025-11-05T14:32:32.446Z</time>
      </trkpt>
      <trkpt lat="44.0805" lon="0.48768">
        <ele>123</ele>
        <time>2025-11-05T14:32:33.446Z</time>
      </trkpt>
      <trkpt lat="44.08052" lon="0.48768">
        <ele>123</ele>
        <time>2025-11-05T14:32:34.446Z</time>
      </trkpt>
      <trkpt lat="44.08053" lon="0.48769">
        <ele>122</ele>
        <time>2025-11-05T14:32:35.446Z</time>
      </trkpt>
      <trkpt lat="44.08054" lon="0.4877">
        <ele>122</ele>
        <time>2025-11-05T14:32:36.446Z</time>
      </trkpt>
      <trkpt lat="44.08055" lon="0.48771">
        <ele>122</ele>
        <time>2025-11-05T14:32:37.446Z</time>
      </trkpt>
      <trkpt lat="44.08056" lon="0.48772">
        <ele>122</ele>
        <time>2025-11-05T14:32:38.446Z</time>
      </trkpt>
      <trkpt lat="44.08057" lon="0.48773">
        <ele>122</ele>
        <time>2025-11-05T14:32:39.446Z</time>
      </trkpt>
      <trkpt lat="44.08058" lon="0.48773">
        <ele>121</ele>
        <time>2025-11-05T14:32:40.446Z</time>
      </trkpt>
      <trkpt lat="44.08059" lon="0.48774">
        <ele>121</ele>
        <time>2025-11-05T14:32:41.446Z</time>
      </trkpt>
      <trkpt lat="44.0806" lon="0.48775">
        <ele>121</ele>
        <time>2025-11-05T14:32:42.446Z</time>
      </trkpt>
      <trkpt lat="44.08061" lon="0.48776">
        <ele>121</ele>
        <time>2025-11-05T14:32:43.446Z</time>
      </trkpt>
      <trkpt lat="44.08062" lon="0.48776">
        <ele>121</ele>
        <time>2025-11-05T14:32:44.446Z</time>
      </trkpt>
      <trkpt lat="44.08063" lon="0.48777">
        <ele>121</ele>
        <time>2025-11-05T14:32:45.446Z</time>
      </trkpt>
      <trkpt lat="44.08064" lon="0.48778">
        <ele>121</ele>
        <time>2025-11-05T14:32:46.446Z</time>
      </trkpt>
      <trkpt lat="44.08065" lon="0.48779">
        <ele>121</ele>
        <time>2025-11-05T14:32:47.446Z</time>
      </trkpt>
      <trkpt lat="44.08066" lon="0.4878">
        <ele>121</ele>
        <time>2025-11-05T14:32:48.446Z</time>
      </trkpt>
      <trkpt lat="44.08067" lon="0.48781">
        <ele>121</ele>
        <time>2025-11-05T14:32:49.446Z</time>
      </trkpt>
      <trkpt lat="44.08068" lon="0.48781">
        <ele>120</ele>
        <time>2025-11-05T14:32:50.446Z</time>
      </trkpt>
      <trkpt lat="44.08069" lon="0.48783">
        <ele>120</ele>
        <time>2025-11-05T14:32:51.446Z</time>
      </trkpt>
      <trkpt lat="44.0807" lon="0.48783">
        <ele>120</ele>
        <time>2025-11-05T14:32:52.446Z</time>
      </trkpt>
      <trkpt lat="44.08071" lon="0.48784">
        <ele>120</ele>
        <time>2025-11-05T14:32:53.446Z</time>
      </trkpt>
      <trkpt lat="44.08072" lon="0.48785">
        <ele>120</ele>
        <time>2025-11-05T14:32:54.446Z</time>
      </trkpt>
      <trkpt lat="44.08074" lon="0.48785">
        <ele>120</ele>
        <time>2025-11-05T14:32:55.446Z</time>
      </trkpt>
      <trkpt lat="44.08074" lon="0.48786">
        <ele>119</ele>
        <time>2025-11-05T14:32:56.446Z</time>
      </trkpt>
      <trkpt lat="44.08075" lon="0.48787">
        <ele>119</ele>
        <time>2025-11-05T14:32:57.446Z</time>
      </trkpt>
      <trkpt lat="44.08076" lon="0.48788">
        <ele>119</ele>
        <time>2025-11-05T14:32:58.446Z</time>
      </trkpt>
      <trkpt lat="44.08077" lon="0.48789">
        <ele>119</ele>
        <time>2025-11-05T14:32:59.446Z</time>
      </trkpt>
      <trkpt lat="44.08078" lon="0.4879">
        <ele>119</ele>
        <time>2025-11-05T14:33:00.446Z</time>
      </trkpt>
      <trkpt lat="44.0808" lon="0.48791">
        <ele>119</ele>
        <time>2025-11-05T14:33:01.446Z</time>
      </trkpt>
      <trkpt lat="44.08081" lon="0.48791">
        <ele>119</ele>
        <time>2025-11-05T14:33:02.446Z</time>
      </trkpt>
      <trkpt lat="44.08082" lon="0.48793">
        <ele>119</ele>
        <time>2025-11-05T14:33:03.446Z</time>
      </trkpt>
      <trkpt lat="44.08083" lon="0.48794">
        <ele>120</ele>
        <time>2025-11-05T14:33:04.446Z</time>
      </trkpt>
      <trkpt lat="44.08084" lon="0.48794">
        <ele>120</ele>
        <time>2025-11-05T14:33:05.446Z</time>
      </trkpt>
      <trkpt lat="44.08085" lon="0.48795">
        <ele>120</ele>
        <time>2025-11-05T14:33:06.446Z</time>
      </trkpt>
      <trkpt lat="44.08086" lon="0.48795">
        <ele>120</ele>
        <time>2025-11-05T14:33:07.446Z</time>
      </trkpt>
      <trkpt lat="44.08087" lon="0.48796">
        <ele>120</ele>
        <time>2025-11-05T14:33:08.446Z</time>
      </trkpt>
      <trkpt lat="44.08088" lon="0.48797">
        <ele>120</ele>
        <time>2025-11-05T14:33:09.446Z</time>
      </trkpt>
      <trkpt lat="44.08089" lon="0.48797">
        <ele>120</ele>
        <time>2025-11-05T14:33:10.446Z</time>
      </trkpt>
      <trkpt lat="44.0809" lon="0.48798">
        <ele>120</ele>
        <time>2025-11-05T14:33:11.446Z</time>
      </trkpt>
      <trkpt lat="44.08092" lon="0.48799">
        <ele>120</ele>
        <time>2025-11-05T14:33:12.446Z</time>
      </trkpt>
      <trkpt lat="44.08093" lon="0.488">
        <ele>120</ele>
        <time>2025-11-05T14:33:13.446Z</time>
      </trkpt>
      <trkpt lat="44.08094" lon="0.48801">
        <ele>120</ele>
        <time>2025-11-05T14:33:14.446Z</time>
      </trkpt>
      <trkpt lat="44.08095" lon="0.48802">
        <ele>120</ele>
        <time>2025-11-05T14:33:15.446Z</time>
      </trkpt>
      <trkpt lat="44.08096" lon="0.48803">
        <ele>119</ele>
        <time>2025-11-05T14:33:16.446Z</time>
      </trkpt>
      <trkpt lat="44.08097" lon="0.48803">
        <ele>119</ele>
        <time>2025-11-05T14:33:17.446Z</time>
      </trkpt>
      <trkpt lat="44.08098" lon="0.48804">
        <ele>119</ele>
        <time>2025-11-05T14:33:18.446Z</time>
      </trkpt>
      <trkpt lat="44.08099" lon="0.48804">
        <ele>119</ele>
        <time>2025-11-05T14:33:19.446Z</time>
      </trkpt>
      <trkpt lat="44.081" lon="0.48805">
        <ele>118</ele>
        <time>2025-11-05T14:33:20.446Z</time>
      </trkpt>
      <trkpt lat="44.08101" lon="0.48806">
        <ele>118</ele>
        <time>2025-11-05T14:33:21.446Z</time>
      </trkpt>
      <trkpt lat="44.08102" lon="0.48807">
        <ele>118</ele>
        <time>2025-11-05T14:33:22.446Z</time>
      </trkpt>
      <trkpt lat="44.08103" lon="0.48808">
        <ele>118</ele>
        <time>2025-11-05T14:33:23.446Z</time>
      </trkpt>
      <trkpt lat="44.08104" lon="0.48808">
        <ele>118</ele>
        <time>2025-11-05T14:33:24.446Z</time>
      </trkpt>
      <trkpt lat="44.08106" lon="0.48809">
        <ele>118</ele>
        <time>2025-11-05T14:33:25.446Z</time>
      </trkpt>
      <trkpt lat="44.08107" lon="0.48809">
        <ele>118</ele>
        <time>2025-11-05T14:33:26.446Z</time>
      </trkpt>
      <trkpt lat="44.08108" lon="0.4881">
        <ele>118</ele>
        <time>2025-11-05T14:33:27.446Z</time>
      </trkpt>
      <trkpt lat="44.08109" lon="0.4881">
        <ele>118</ele>
        <time>2025-11-05T14:33:28.446Z</time>
      </trkpt>
      <trkpt lat="44.0811" lon="0.48811">
        <ele>119</ele>
        <time>2025-11-05T14:33:29.446Z</time>
      </trkpt>
      <trkpt lat="44.08111" lon="0.48812">
        <ele>119</ele>
        <time>2025-11-05T14:33:30.446Z</time>
      </trkpt>
      <trkpt lat="44.08112" lon="0.48813">
        <ele>119</ele>
        <time>2025-11-05T14:33:31.446Z</time>
      </trkpt>
      <trkpt lat="44.08113" lon="0.48814">
        <ele>119</ele>
        <time>2025-11-05T14:33:32.446Z</time>
      </trkpt>
      <trkpt lat="44.08115" lon="0.48814">
        <ele>119</ele>
        <time>2025-11-05T14:33:33.446Z</time>
      </trkpt>
      <trkpt lat="44.08116" lon="0.48815">
        <ele>119</ele>
        <time>2025-11-05T14:33:34.446Z</time>
      </trkpt>
      <trkpt lat="44.08116" lon="0.48815">
        <ele>119</ele>
        <time>2025-11-05T14:33:35.446Z</time>
      </trkpt>
      <trkpt lat="44.08117" lon="0.48816">
        <ele>118</ele>
        <time>2025-11-05T14:33:36.446Z</time>
      </trkpt>
      <trkpt lat="44.08118" lon="0.48817">
        <ele>118</ele>
        <time>2025-11-05T14:33:37.446Z</time>
      </trkpt>
      <trkpt lat="44.08119" lon="0.48818">
        <ele>118</ele>
        <time>2025-11-05T14:33:38.446Z</time>
      </trkpt>
      <trkpt lat="44.08121" lon="0.48819">
        <ele>118</ele>
        <time>2025-11-05T14:33:39.446Z</time>
      </trkpt>
      <trkpt lat="44.08122" lon="0.4882">
        <ele>118</ele>
        <time>2025-11-05T14:33:40.446Z</time>
      </trkpt>
      <trkpt lat="44.08123" lon="0.4882">
        <ele>118</ele>
        <time>2025-11-05T14:33:41.446Z</time>
      </trkpt>
      <trkpt lat="44.08124" lon="0.4882">
        <ele>118</ele>
        <time>2025-11-05T14:33:42.446Z</time>
      </trkpt>
      <trkpt lat="44.08125" lon="0.48821">
        <ele>118</ele>
        <time>2025-11-05T14:33:43.446Z</time>
      </trkpt>
      <trkpt lat="44.08126" lon="0.48822">
        <ele>118</ele>
        <time>2025-11-05T14:33:44.446Z</time>
      </trkpt>
      <trkpt lat="44.08127" lon="0.48822">
        <ele>119</ele>
        <time>2025-11-05T14:33:45.446Z</time>
      </trkpt>
      <trkpt lat="44.08129" lon="0.48823">
        <ele>119</ele>
        <time>2025-11-05T14:33:46.446Z</time>
      </trkpt>
      <trkpt lat="44.0813" lon="0.48824">
        <ele>119</ele>
        <time>2025-11-05T14:33:47.446Z</time>
      </trkpt>
      <trkpt lat="44.08132" lon="0.48825">
        <ele>120</ele>
        <time>2025-11-05T14:33:48.446Z</time>
      </trkpt>
      <trkpt lat="44.08133" lon="0.48825">
        <ele>120</ele>
        <time>2025-11-05T14:33:49.446Z</time>
      </trkpt>
      <trkpt lat="44.08134" lon="0.48826">
        <ele>120</ele>
        <time>2025-11-05T14:33:50.446Z</time>
      </trkpt>
      <trkpt lat="44.08135" lon="0.48826">
        <ele>120</ele>
        <time>2025-11-05T14:33:51.446Z</time>
      </trkpt>
      <trkpt lat="44.08136" lon="0.48827">
        <ele>120</ele>
        <time>2025-11-05T14:33:52.446Z</time>
      </trkpt>
      <trkpt lat="44.08137" lon="0.48828">
        <ele>120</ele>
        <time>2025-11-05T14:33:53.446Z</time>
      </trkpt>
      <trkpt lat="44.08138" lon="0.48828">
        <ele>121</ele>
        <time>2025-11-05T14:33:54.446Z</time>
      </trkpt>
      <trkpt lat="44.0814" lon="0.48829">
        <ele>121</ele>
        <time>2025-11-05T14:33:55.446Z</time>
      </trkpt>
      <trkpt lat="44.08141" lon="0.4883">
        <ele>121</ele>
        <time>2025-11-05T14:33:56.446Z</time>
      </trkpt>
      <trkpt lat="44.08142" lon="0.4883">
        <ele>122</ele>
        <time>2025-11-05T14:33:57.446Z</time>
      </trkpt>
      <trkpt lat="44.08143" lon="0.48831">
        <ele>122</ele>
        <time>2025-11-05T14:33:58.446Z</time>
      </trkpt>
      <trkpt lat="44.08144" lon="0.48831">
        <ele>121</ele>
        <time>2025-11-05T14:33:59.446Z</time>
      </trkpt>
      <trkpt lat="44.08145" lon="0.48832">
        <ele>121</ele>
        <time>2025-11-05T14:34:00.446Z</time>
      </trkpt>
      <trkpt lat="44.08146" lon="0.48833">
        <ele>121</ele>
        <time>2025-11-05T14:34:01.446Z</time>
      </trkpt>
      <trkpt lat="44.08148" lon="0.48834">
        <ele>121</ele>
        <time>2025-11-05T14:34:02.446Z</time>
      </trkpt>
      <trkpt lat="44.08149" lon="0.48835">
        <ele>121</ele>
        <time>2025-11-05T14:34:03.446Z</time>
      </trkpt>
      <trkpt lat="44.0815" lon="0.48835">
        <ele>121</ele>
        <time>2025-11-05T14:34:04.446Z</time>
      </trkpt>
      <trkpt lat="44.08151" lon="0.48836">
        <ele>121</ele>
        <time>2025-11-05T14:34:05.446Z</time>
      </trkpt>
      <trkpt lat="44.08152" lon="0.48836">
        <ele>121</ele>
        <time>2025-11-05T14:34:06.446Z</time>
      </trkpt>
      <trkpt lat="44.08153" lon="0.48837">
        <ele>120</ele>
        <time>2025-11-05T14:34:07.446Z</time>
      </trkpt>
      <trkpt lat="44.08154" lon="0.48838">
        <ele>120</ele>
        <time>2025-11-05T14:34:08.446Z</time>
      </trkpt>
      <trkpt lat="44.08155" lon="0.48838">
        <ele>120</ele>
        <time>2025-11-05T14:34:09.446Z</time>
      </trkpt>
      <trkpt lat="44.08156" lon="0.48839">
        <ele>120</ele>
        <time>2025-11-05T14:34:10.446Z</time>
      </trkpt>
      <trkpt lat="44.08158" lon="0.48839">
        <ele>120</ele>
        <time>2025-11-05T14:34:11.446Z</time>
      </trkpt>
      <trkpt lat="44.08159" lon="0.4884">
        <ele>120</ele>
        <time>2025-11-05T14:34:12.446Z</time>
      </trkpt>
      <trkpt lat="44.0816" lon="0.4884">
        <ele>120</ele>
        <time>2025-11-05T14:34:13.446Z</time>
      </trkpt>
      <trkpt lat="44.08161" lon="0.48841">
        <ele>120</ele>
        <time>2025-11-05T14:34:14.446Z</time>
      </trkpt>
      <trkpt lat="44.08162" lon="0.48842">
        <ele>120</ele>
        <time>2025-11-05T14:34:15.446Z</time>
      </trkpt>
      <trkpt lat="44.08163" lon="0.48842">
        <ele>120</ele>
        <time>2025-11-05T14:34:16.446Z</time>
      </trkpt>
      <trkpt lat="44.08164" lon="0.48843">
        <ele>120</ele>
        <time>2025-11-05T14:34:17.446Z</time>
      </trkpt>
      <trkpt lat="44.08165" lon="0.48844">
        <ele>120</ele>
        <time>2025-11-05T14:34:18.446Z</time>
      </trkpt>
      <trkpt lat="44.08166" lon="0.48845">
        <ele>120</ele>
        <time>2025-11-05T14:34:19.446Z</time>
      </trkpt>
      <trkpt lat="44.08167" lon="0.48845">
        <ele>120</ele>
        <time>2025-11-05T14:34:20.446Z</time>
      </trkpt>
      <trkpt lat="44.08168" lon="0.48846">
        <ele>120</ele>
        <time>2025-11-05T14:34:21.446Z</time>
      </trkpt>
      <trkpt lat="44.08169" lon="0.48847">
        <ele>121</ele>
        <time>2025-11-05T14:34:22.446Z</time>
      </trkpt>
      <trkpt lat="44.0817" lon="0.48847">
        <ele>121</ele>
        <time>2025-11-05T14:34:23.446Z</time>
      </trkpt>
      <trkpt lat="44.08171" lon="0.48848">
        <ele>121</ele>
        <time>2025-11-05T14:34:24.446Z</time>
      </trkpt>
      <trkpt lat="44.08172" lon="0.48849">
        <ele>121</ele>
        <time>2025-11-05T14:34:25.446Z</time>
      </trkpt>
      <trkpt lat="44.08173" lon="0.48849">
        <ele>122</ele>
        <time>2025-11-05T14:34:26.446Z</time>
      </trkpt>
      <trkpt lat="44.08174" lon="0.4885">
        <ele>122</ele>
        <time>2025-11-05T14:34:27.446Z</time>
      </trkpt>
      <trkpt lat="44.08176" lon="0.4885">
        <ele>123</ele>
        <time>2025-11-05T14:34:28.446Z</time>
      </trkpt>
      <trkpt lat="44.08177" lon="0.48851">
        <ele>123</ele>
        <time>2025-11-05T14:34:29.446Z</time>
      </trkpt>
      <trkpt lat="44.08178" lon="0.48851">
        <ele>123</ele>
        <time>2025-11-05T14:34:30.446Z</time>
      </trkpt>
      <trkpt lat="44.08179" lon="0.48852">
        <ele>122</ele>
        <time>2025-11-05T14:34:31.446Z</time>
      </trkpt>
      <trkpt lat="44.0818" lon="0.48853">
        <ele>122</ele>
        <time>2025-11-05T14:34:32.446Z</time>
      </trkpt>
      <trkpt lat="44.08181" lon="0.48854">
        <ele>122</ele>
        <time>2025-11-05T14:34:33.446Z</time>
      </trkpt>
      <trkpt lat="44.08182" lon="0.48854">
        <ele>122</ele>
        <time>2025-11-05T14:34:34.446Z</time>
      </trkpt>
      <trkpt lat="44.08183" lon="0.48855">
        <ele>122</ele>
        <time>2025-11-05T14:34:35.446Z</time>
      </trkpt>
      <trkpt lat="44.08184" lon="0.48856">
        <ele>122</ele>
        <time>2025-11-05T14:34:36.446Z</time>
      </trkpt>
      <trkpt lat="44.08185" lon="0.48856">
        <ele>122</ele>
        <time>2025-11-05T14:34:37.446Z</time>
      </trkpt>
      <trkpt lat="44.08186" lon="0.48857">
        <ele>122</ele>
        <time>2025-11-05T14:34:38.446Z</time>
      </trkpt>
      <trkpt lat="44.08187" lon="0.48857">
        <ele>122</ele>
        <time>2025-11-05T14:34:39.446Z</time>
      </trkpt>
      <trkpt lat="44.08188" lon="0.48858">
        <ele>122</ele>
        <time>2025-11-05T14:34:40.446Z</time>
      </trkpt>
      <trkpt lat="44.08189" lon="0.48859">
        <ele>122</ele>
        <time>2025-11-05T14:34:41.446Z</time>
      </trkpt>
      <trkpt lat="44.0819" lon="0.48859">
        <ele>122</ele>
        <time>2025-11-05T14:34:42.446Z</time>
      </trkpt>
      <trkpt lat="44.08191" lon="0.4886">
        <ele>122</ele>
        <time>2025-11-05T14:34:43.446Z</time>
      </trkpt>
      <trkpt lat="44.08192" lon="0.4886">
        <ele>122</ele>
        <time>2025-11-05T14:34:44.446Z</time>
      </trkpt>
      <trkpt lat="44.08193" lon="0.48861">
        <ele>122</ele>
        <time>2025-11-05T14:34:45.446Z</time>
      </trkpt>
      <trkpt lat="44.08193" lon="0.48861">
        <ele>123</ele>
        <time>2025-11-05T14:34:46.446Z</time>
      </trkpt>
      <trkpt lat="44.08194" lon="0.48862">
        <ele>123</ele>
        <time>2025-11-05T14:34:47.446Z</time>
      </trkpt>
      <trkpt lat="44.08195" lon="0.48863">
        <ele>122</ele>
        <time>2025-11-05T14:34:48.446Z</time>
      </trkpt>
      <trkpt lat="44.08196" lon="0.48864">
        <ele>123</ele>
        <time>2025-11-05T14:34:49.446Z</time>
      </trkpt>
      <trkpt lat="44.08198" lon="0.48864">
        <ele>123</ele>
        <time>2025-11-05T14:34:50.446Z</time>
      </trkpt>
      <trkpt lat="44.08199" lon="0.48865">
        <ele>123</ele>
        <time>2025-11-05T14:34:51.446Z</time>
      </trkpt>
      <trkpt lat="44.082" lon="0.48865">
        <ele>124</ele>
        <time>2025-11-05T14:34:52.446Z</time>
      </trkpt>
      <trkpt lat="44.082" lon="0.48866">
        <ele>124</ele>
        <time>2025-11-05T14:34:53.446Z</time>
      </trkpt>
      <trkpt lat="44.08201" lon="0.48866">
        <ele>125</ele>
        <time>2025-11-05T14:34:54.446Z</time>
      </trkpt>
      <trkpt lat="44.08203" lon="0.48867">
        <ele>125</ele>
        <time>2025-11-05T14:34:55.446Z</time>
      </trkpt>
      <trkpt lat="44.08204" lon="0.48867">
        <ele>125</ele>
        <time>2025-11-05T14:34:56.446Z</time>
      </trkpt>
      <trkpt lat="44.08205" lon="0.48868">
        <ele>125</ele>
        <time>2025-11-05T14:34:57.446Z</time>
      </trkpt>
      <trkpt lat="44.08205" lon="0.48868">
        <ele>125</ele>
        <time>2025-11-05T14:34:58.446Z</time>
      </trkpt>
      <trkpt lat="44.08206" lon="0.48869">
        <ele>125</ele>
        <time>2025-11-05T14:34:59.446Z</time>
      </trkpt>
      <trkpt lat="44.08207" lon="0.4887">
        <ele>124</ele>
        <time>2025-11-05T14:35:00.446Z</time>
      </trkpt>
      <trkpt lat="44.08209" lon="0.48871">
        <ele>125</ele>
        <time>2025-11-05T14:35:01.446Z</time>
      </trkpt>
      <trkpt lat="44.0821" lon="0.48871">
        <ele>125</ele>
        <time>2025-11-05T14:35:02.446Z</time>
      </trkpt>
      <trkpt lat="44.08211" lon="0.48872">
        <ele>125</ele>
        <time>2025-11-05T14:35:03.446Z</time>
      </trkpt>
      <trkpt lat="44.08212" lon="0.48873">
        <ele>125</ele>
        <time>2025-11-05T14:35:04.446Z</time>
      </trkpt>
      <trkpt lat="44.08213" lon="0.48873">
        <ele>125</ele>
        <time>2025-11-05T14:35:05.446Z</time>
      </trkpt>
      <trkpt lat="44.08214" lon="0.48874">
        <ele>125</ele>
        <time>2025-11-05T14:35:06.446Z</time>
      </trkpt>
      <trkpt lat="44.08214" lon="0.48875">
        <ele>124</ele>
        <time>2025-11-05T14:35:07.446Z</time>
      </trkpt>
      <trkpt lat="44.08215" lon="0.48875">
        <ele>124</ele>
        <time>2025-11-05T14:35:08.446Z</time>
      </trkpt>
      <trkpt lat="44.08216" lon="0.48876">
        <ele>124</ele>
        <time>2025-11-05T14:35:09.446Z</time>
      </trkpt>
      <trkpt lat="44.08217" lon="0.48876">
        <ele>124</ele>
        <time>2025-11-05T14:35:10.446Z</time>
      </trkpt>
      <trkpt lat="44.08218" lon="0.48877">
        <ele>124</ele>
        <time>2025-11-05T14:35:11.446Z</time>
      </trkpt>
      <trkpt lat="44.08219" lon="0.48878">
        <ele>124</ele>
        <time>2025-11-05T14:35:12.446Z</time>
      </trkpt>
      <trkpt lat="44.08221" lon="0.48879">
        <ele>124</ele>
        <time>2025-11-05T14:35:13.446Z</time>
      </trkpt>
      <trkpt lat="44.08222" lon="0.4888">
        <ele>124</ele>
        <time>2025-11-05T14:35:14.446Z</time>
      </trkpt>
      <trkpt lat="44.08222" lon="0.4888">
        <ele>124</ele>
        <time>2025-11-05T14:35:15.446Z</time>
      </trkpt>
      <trkpt lat="44.08223" lon="0.48881">
        <ele>123</ele>
        <time>2025-11-05T14:35:16.446Z</time>
      </trkpt>
      <trkpt lat="44.08224" lon="0.48881">
        <ele>123</ele>
        <time>2025-11-05T14:35:17.446Z</time>
      </trkpt>
      <trkpt lat="44.08225" lon="0.48882">
        <ele>124</ele>
        <time>2025-11-05T14:35:18.446Z</time>
      </trkpt>
      <trkpt lat="44.08226" lon="0.48883">
        <ele>124</ele>
        <time>2025-11-05T14:35:19.446Z</time>
      </trkpt>
      <trkpt lat="44.08227" lon="0.48884">
        <ele>124</ele>
        <time>2025-11-05T14:35:20.446Z</time>
      </trkpt>
      <trkpt lat="44.08228" lon="0.48885">
        <ele>124</ele>
        <time>2025-11-05T14:35:21.446Z</time>
      </trkpt>
      <trkpt lat="44.08229" lon="0.48885">
        <ele>124</ele>
        <time>2025-11-05T14:35:22.446Z</time>
      </trkpt>
      <trkpt lat="44.0823" lon="0.48886">
        <ele>124</ele>
        <time>2025-11-05T14:35:23.446Z</time>
      </trkpt>
      <trkpt lat="44.08231" lon="0.48887">
        <ele>124</ele>
        <time>2025-11-05T14:35:24.446Z</time>
      </trkpt>
      <trkpt lat="44.08232" lon="0.48887">
        <ele>124</ele>
        <time>2025-11-05T14:35:25.446Z</time>
      </trkpt>
      <trkpt lat="44.08233" lon="0.48888">
        <ele>125</ele>
        <time>2025-11-05T14:35:26.446Z</time>
      </trkpt>
      <trkpt lat="44.08234" lon="0.48888">
        <ele>124</ele>
        <time>2025-11-05T14:35:27.446Z</time>
      </trkpt>
      <trkpt lat="44.08235" lon="0.48889">
        <ele>124</ele>
        <time>2025-11-05T14:35:28.446Z</time>
      </trkpt>
      <trkpt lat="44.08236" lon="0.4889">
        <ele>125</ele>
        <time>2025-11-05T14:35:29.446Z</time>
      </trkpt>
      <trkpt lat="44.08237" lon="0.4889">
        <ele>125</ele>
        <time>2025-11-05T14:35:30.446Z</time>
      </trkpt>
      <trkpt lat="44.08238" lon="0.48891">
        <ele>125</ele>
        <time>2025-11-05T14:35:31.446Z</time>
      </trkpt>
      <trkpt lat="44.08239" lon="0.48892">
        <ele>125</ele>
        <time>2025-11-05T14:35:32.446Z</time>
      </trkpt>
      <trkpt lat="44.0824" lon="0.48892">
        <ele>125</ele>
        <time>2025-11-05T14:35:33.446Z</time>
      </trkpt>
      <trkpt lat="44.08241" lon="0.48893">
        <ele>125</ele>
        <time>2025-11-05T14:35:34.446Z</time>
      </trkpt>
      <trkpt lat="44.08242" lon="0.48894">
        <ele>125</ele>
        <time>2025-11-05T14:35:35.446Z</time>
      </trkpt>
      <trkpt lat="44.08243" lon="0.48894">
        <ele>125</ele>
        <time>2025-11-05T14:35:36.446Z</time>
      </trkpt>
      <trkpt lat="44.08244" lon="0.48895">
        <ele>125</ele>
        <time>2025-11-05T14:35:37.446Z</time>
      </trkpt>
      <trkpt lat="44.08245" lon="0.48895">
        <ele>125</ele>
        <time>2025-11-05T14:35:38.446Z</time>
      </trkpt>
      <trkpt lat="44.08246" lon="0.48896">
        <ele>126</ele>
        <time>2025-11-05T14:35:39.446Z</time>
      </trkpt>
      <trkpt lat="44.08247" lon="0.48896">
        <ele>126</ele>
        <time>2025-11-05T14:35:40.446Z</time>
      </trkpt>
      <trkpt lat="44.08248" lon="0.48897">
        <ele>126</ele>
        <time>2025-11-05T14:35:41.446Z</time>
      </trkpt>
      <trkpt lat="44.08249" lon="0.48898">
        <ele>127</ele>
        <time>2025-11-05T14:35:42.446Z</time>
      </trkpt>
      <trkpt lat="44.0825" lon="0.48899">
        <ele>127</ele>
        <time>2025-11-05T14:35:43.446Z</time>
      </trkpt>
      <trkpt lat="44.08252" lon="0.48899">
        <ele>127</ele>
        <time>2025-11-05T14:35:44.446Z</time>
      </trkpt>
      <trkpt lat="44.08253" lon="0.489">
        <ele>127</ele>
        <time>2025-11-05T14:35:45.446Z</time>
      </trkpt>
      <trkpt lat="44.08254" lon="0.489">
        <ele>127</ele>
        <time>2025-11-05T14:35:46.446Z</time>
      </trkpt>
      <trkpt lat="44.08255" lon="0.48901">
        <ele>128</ele>
        <time>2025-11-05T14:35:47.446Z</time>
      </trkpt>
      <trkpt lat="44.08256" lon="0.48901">
        <ele>127</ele>
        <time>2025-11-05T14:35:48.446Z</time>
      </trkpt>
      <trkpt lat="44.08257" lon="0.48902">
        <ele>127</ele>
        <time>2025-11-05T14:35:49.446Z</time>
      </trkpt>
      <trkpt lat="44.08258" lon="0.48902">
        <ele>127</ele>
        <time>2025-11-05T14:35:50.446Z</time>
      </trkpt>
      <trkpt lat="44.08259" lon="0.48903">
        <ele>127</ele>
        <time>2025-11-05T14:35:51.446Z</time>
      </trkpt>
      <trkpt lat="44.0826" lon="0.48904">
        <ele>127</ele>
        <time>2025-11-05T14:35:52.446Z</time>
      </trkpt>
      <trkpt lat="44.08261" lon="0.48905">
        <ele>126</ele>
        <time>2025-11-05T14:35:53.446Z</time>
      </trkpt>
      <trkpt lat="44.08262" lon="0.48906">
        <ele>126</ele>
        <time>2025-11-05T14:35:54.446Z</time>
      </trkpt>
      <trkpt lat="44.08263" lon="0.48907">
        <ele>126</ele>
        <time>2025-11-05T14:35:55.446Z</time>
      </trkpt>
      <trkpt lat="44.08264" lon="0.48907">
        <ele>126</ele>
        <time>2025-11-05T14:35:56.446Z</time>
      </trkpt>
      <trkpt lat="44.08265" lon="0.48908">
        <ele>127</ele>
        <time>2025-11-05T14:35:57.446Z</time>
      </trkpt>
      <trkpt lat="44.08266" lon="0.48909">
        <ele>127</ele>
        <time>2025-11-05T14:35:58.446Z</time>
      </trkpt>
      <trkpt lat="44.08267" lon="0.48909">
        <ele>127</ele>
        <time>2025-11-05T14:35:59.446Z</time>
      </trkpt>
      <trkpt lat="44.08268" lon="0.4891">
        <ele>127</ele>
        <time>2025-11-05T14:36:00.446Z</time>
      </trkpt>
      <trkpt lat="44.08269" lon="0.4891">
        <ele>127</ele>
        <time>2025-11-05T14:36:01.446Z</time>
      </trkpt>
      <trkpt lat="44.0827" lon="0.48911">
        <ele>127</ele>
        <time>2025-11-05T14:36:02.446Z</time>
      </trkpt>
      <trkpt lat="44.08271" lon="0.48912">
        <ele>127</ele>
        <time>2025-11-05T14:36:03.446Z</time>
      </trkpt>
      <trkpt lat="44.08272" lon="0.48912">
        <ele>127</ele>
        <time>2025-11-05T14:36:04.446Z</time>
      </trkpt>
      <trkpt lat="44.08273" lon="0.48913">
        <ele>128</ele>
        <time>2025-11-05T14:36:05.446Z</time>
      </trkpt>
      <trkpt lat="44.08273" lon="0.48913">
        <ele>128</ele>
        <time>2025-11-05T14:36:06.446Z</time>
      </trkpt>
      <trkpt lat="44.08274" lon="0.48914">
        <ele>128</ele>
        <time>2025-11-05T14:36:07.446Z</time>
      </trkpt>
      <trkpt lat="44.08276" lon="0.48915">
        <ele>128</ele>
        <time>2025-11-05T14:36:08.446Z</time>
      </trkpt>
      <trkpt lat="44.08277" lon="0.48916">
        <ele>128</ele>
        <time>2025-11-05T14:36:09.446Z</time>
      </trkpt>
      <trkpt lat="44.08278" lon="0.48916">
        <ele>128</ele>
        <time>2025-11-05T14:36:10.446Z</time>
      </trkpt>
      <trkpt lat="44.08279" lon="0.48917">
        <ele>129</ele>
        <time>2025-11-05T14:36:11.446Z</time>
      </trkpt>
      <trkpt lat="44.0828" lon="0.48918">
        <ele>129</ele>
        <time>2025-11-05T14:36:12.446Z</time>
      </trkpt>
      <trkpt lat="44.0828" lon="0.48918">
        <ele>128</ele>
        <time>2025-11-05T14:36:13.446Z</time>
      </trkpt>
      <trkpt lat="44.08281" lon="0.48919">
        <ele>128</ele>
        <time>2025-11-05T14:36:14.446Z</time>
      </trkpt>
      <trkpt lat="44.08282" lon="0.4892">
        <ele>128</ele>
        <time>2025-11-05T14:36:15.446Z</time>
      </trkpt>
      <trkpt lat="44.08283" lon="0.48921">
        <ele>128</ele>
        <time>2025-11-05T14:36:16.446Z</time>
      </trkpt>
      <trkpt lat="44.08285" lon="0.48921">
        <ele>128</ele>
        <time>2025-11-05T14:36:17.446Z</time>
      </trkpt>
      <trkpt lat="44.08286" lon="0.48922">
        <ele>128</ele>
        <time>2025-11-05T14:36:18.446Z</time>
      </trkpt>
      <trkpt lat="44.08286" lon="0.48923">
        <ele>128</ele>
        <time>2025-11-05T14:36:19.446Z</time>
      </trkpt>
      <trkpt lat="44.08287" lon="0.48924">
        <ele>128</ele>
        <time>2025-11-05T14:36:20.446Z</time>
      </trkpt>
      <trkpt lat="44.08288" lon="0.48924">
        <ele>128</ele>
        <time>2025-11-05T14:36:21.446Z</time>
      </trkpt>
      <trkpt lat="44.08289" lon="0.48925">
        <ele>128</ele>
        <time>2025-11-05T14:36:22.446Z</time>
      </trkpt>
      <trkpt lat="44.0829" lon="0.48926">
        <ele>128</ele>
        <time>2025-11-05T14:36:23.446Z</time>
      </trkpt>
      <trkpt lat="44.08291" lon="0.48927">
        <ele>128</ele>
        <time>2025-11-05T14:36:24.446Z</time>
      </trkpt>
      <trkpt lat="44.08292" lon="0.48928">
        <ele>128</ele>
        <time>2025-11-05T14:36:25.446Z</time>
      </trkpt>
      <trkpt lat="44.08293" lon="0.48928">
        <ele>128</ele>
        <time>2025-11-05T14:36:26.446Z</time>
      </trkpt>
      <trkpt lat="44.08294" lon="0.48929">
        <ele>129</ele>
        <time>2025-11-05T14:36:27.446Z</time>
      </trkpt>
      <trkpt lat="44.08295" lon="0.4893">
        <ele>129</ele>
        <time>2025-11-05T14:36:28.446Z</time>
      </trkpt>
      <trkpt lat="44.08296" lon="0.48931">
        <ele>129</ele>
        <time>2025-11-05T14:36:29.446Z</time>
      </trkpt>
      <trkpt lat="44.08297" lon="0.48931">
        <ele>129</ele>
        <time>2025-11-05T14:36:30.446Z</time>
      </trkpt>
      <trkpt lat="44.08298" lon="0.48932">
        <ele>130</ele>
        <time>2025-11-05T14:36:31.446Z</time>
      </trkpt>
      <trkpt lat="44.08299" lon="0.48933">
        <ele>130</ele>
        <time>2025-11-05T14:36:32.446Z</time>
      </trkpt>
      <trkpt lat="44.083" lon="0.48934">
        <ele>130</ele>
        <time>2025-11-05T14:36:33.446Z</time>
      </trkpt>
      <trkpt lat="44.08301" lon="0.48935">
        <ele>130</ele>
        <time>2025-11-05T14:36:34.446Z</time>
      </trkpt>
      <trkpt lat="44.08302" lon="0.48936">
        <ele>131</ele>
        <time>2025-11-05T14:36:35.446Z</time>
      </trkpt>
      <trkpt lat="44.08303" lon="0.48937">
        <ele>131</ele>
        <time>2025-11-05T14:36:36.446Z</time>
      </trkpt>
      <trkpt lat="44.08304" lon="0.48938">
        <ele>131</ele>
        <time>2025-11-05T14:36:37.446Z</time>
      </trkpt>
      <trkpt lat="44.08305" lon="0.48939">
        <ele>131</ele>
        <time>2025-11-05T14:36:38.446Z</time>
      </trkpt>
      <trkpt lat="44.08306" lon="0.4894">
        <ele>130</ele>
        <time>2025-11-05T14:36:39.446Z</time>
      </trkpt>
      <trkpt lat="44.08307" lon="0.4894">
        <ele>131</ele>
        <time>2025-11-05T14:36:40.446Z</time>
      </trkpt>
      <trkpt lat="44.08307" lon="0.48941">
        <ele>131</ele>
        <time>2025-11-05T14:36:41.446Z</time>
      </trkpt>
      <trkpt lat="44.08308" lon="0.48942">
        <ele>131</ele>
        <time>2025-11-05T14:36:42.446Z</time>
      </trkpt>
      <trkpt lat="44.08309" lon="0.48944">
        <ele>131</ele>
        <time>2025-11-05T14:36:43.446Z</time>
      </trkpt>
      <trkpt lat="44.0831" lon="0.48945">
        <ele>130</ele>
        <time>2025-11-05T14:36:44.446Z</time>
      </trkpt>
      <trkpt lat="44.08311" lon="0.48945">
        <ele>130</ele>
        <time>2025-11-05T14:36:45.446Z</time>
      </trkpt>
      <trkpt lat="44.08312" lon="0.48946">
        <ele>130</ele>
        <time>2025-11-05T14:36:46.446Z</time>
      </trkpt>
      <trkpt lat="44.08313" lon="0.48946">
        <ele>130</ele>
        <time>2025-11-05T14:36:47.446Z</time>
      </trkpt>
      <trkpt lat="44.08314" lon="0.48947">
        <ele>130</ele>
        <time>2025-11-05T14:36:48.446Z</time>
      </trkpt>
      <trkpt lat="44.08315" lon="0.48948">
        <ele>130</ele>
        <time>2025-11-05T14:36:49.446Z</time>
      </trkpt>
      <trkpt lat="44.08316" lon="0.48949">
        <ele>130</ele>
        <time>2025-11-05T14:36:50.446Z</time>
      </trkpt>
      <trkpt lat="44.08317" lon="0.4895">
        <ele>130</ele>
        <time>2025-11-05T14:36:51.446Z</time>
      </trkpt>
      <trkpt lat="44.08318" lon="0.48951">
        <ele>130</ele>
        <time>2025-11-05T14:36:52.446Z</time>
      </trkpt>
      <trkpt lat="44.08318" lon="0.48952">
        <ele>130</ele>
        <time>2025-11-05T14:36:53.446Z</time>
      </trkpt>
      <trkpt lat="44.08319" lon="0.48952">
        <ele>130</ele>
        <time>2025-11-05T14:36:54.446Z</time>
      </trkpt>
      <trkpt lat="44.0832" lon="0.48953">
        <ele>131</ele>
        <time>2025-11-05T14:36:55.446Z</time>
      </trkpt>
      <trkpt lat="44.08322" lon="0.48954">
        <ele>131</ele>
        <time>2025-11-05T14:36:56.446Z</time>
      </trkpt>
      <trkpt lat="44.08323" lon="0.48955">
        <ele>131</ele>
        <time>2025-11-05T14:36:57.446Z</time>
      </trkpt>
      <trkpt lat="44.08324" lon="0.48956">
        <ele>131</ele>
        <time>2025-11-05T14:36:58.446Z</time>
      </trkpt>
      <trkpt lat="44.08325" lon="0.48957">
        <ele>131</ele>
        <time>2025-11-05T14:36:59.446Z</time>
      </trkpt>
      <trkpt lat="44.08326" lon="0.48957">
        <ele>131</ele>
        <time>2025-11-05T14:37:00.446Z</time>
      </trkpt>
      <trkpt lat="44.08327" lon="0.48958">
        <ele>132</ele>
        <time>2025-11-05T14:37:01.446Z</time>
      </trkpt>
      <trkpt lat="44.08328" lon="0.48959">
        <ele>132</ele>
        <time>2025-11-05T14:37:02.446Z</time>
      </trkpt>
      <trkpt lat="44.08329" lon="0.4896">
        <ele>132</ele>
        <time>2025-11-05T14:37:03.446Z</time>
      </trkpt>
      <trkpt lat="44.0833" lon="0.4896">
        <ele>132</ele>
        <time>2025-11-05T14:37:04.446Z</time>
      </trkpt>
      <trkpt lat="44.08331" lon="0.48961">
        <ele>132</ele>
        <time>2025-11-05T14:37:05.446Z</time>
      </trkpt>
      <trkpt lat="44.08333" lon="0.48962">
        <ele>132</ele>
        <time>2025-11-05T14:37:06.446Z</time>
      </trkpt>
      <trkpt lat="44.08334" lon="0.48962">
        <ele>132</ele>
        <time>2025-11-05T14:37:07.446Z</time>
      </trkpt>
      <trkpt lat="44.08335" lon="0.48963">
        <ele>132</ele>
        <time>2025-11-05T14:37:08.446Z</time>
      </trkpt>
      <trkpt lat="44.08336" lon="0.48964">
        <ele>132</ele>
        <time>2025-11-05T14:37:09.446Z</time>
      </trkpt>
      <trkpt lat="44.08337" lon="0.48964">
        <ele>132</ele>
        <time>2025-11-05T14:37:10.446Z</time>
      </trkpt>
      <trkpt lat="44.08338" lon="0.48965">
        <ele>132</ele>
        <time>2025-11-05T14:37:11.446Z</time>
      </trkpt>
      <trkpt lat="44.08339" lon="0.48966">
        <ele>132</ele>
        <time>2025-11-05T14:37:12.446Z</time>
      </trkpt>
      <trkpt lat="44.0834" lon="0.48967">
        <ele>132</ele>
        <time>2025-11-05T14:37:13.446Z</time>
      </trkpt>
      <trkpt lat="44.08341" lon="0.48967">
        <ele>132</ele>
        <time>2025-11-05T14:37:14.446Z</time>
      </trkpt>
      <trkpt lat="44.08343" lon="0.48968">
        <ele>132</ele>
        <time>2025-11-05T14:37:15.446Z</time>
      </trkpt>
      <trkpt lat="44.08344" lon="0.48969">
        <ele>132</ele>
        <time>2025-11-05T14:37:16.446Z</time>
      </trkpt>
      <trkpt lat="44.08345" lon="0.48969">
        <ele>132</ele>
        <time>2025-11-05T14:37:17.446Z</time>
      </trkpt>
      <trkpt lat="44.08346" lon="0.4897">
        <ele>132</ele>
        <time>2025-11-05T14:37:18.446Z</time>
      </trkpt>
      <trkpt lat="44.08347" lon="0.4897">
        <ele>132</ele>
        <time>2025-11-05T14:37:19.446Z</time>
      </trkpt>
      <trkpt lat="44.08348" lon="0.48971">
        <ele>132</ele>
        <time>2025-11-05T14:37:20.446Z</time>
      </trkpt>
      <trkpt lat="44.08349" lon="0.48972">
        <ele>132</ele>
        <time>2025-11-05T14:37:21.446Z</time>
      </trkpt>
      <trkpt lat="44.0835" lon="0.48973">
        <ele>132</ele>
        <time>2025-11-05T14:37:22.446Z</time>
      </trkpt>
      <trkpt lat="44.08351" lon="0.48973">
        <ele>132</ele>
        <time>2025-11-05T14:37:23.446Z</time>
      </trkpt>
      <trkpt lat="44.08352" lon="0.48974">
        <ele>132</ele>
        <time>2025-11-05T14:37:24.446Z</time>
      </trkpt>
      <trkpt lat="44.08353" lon="0.48974">
        <ele>132</ele>
        <time>2025-11-05T14:37:25.446Z</time>
      </trkpt>
      <trkpt lat="44.08354" lon="0.48975">
        <ele>132</ele>
        <time>2025-11-05T14:37:26.446Z</time>
      </trkpt>
      <trkpt lat="44.08355" lon="0.48975">
        <ele>133</ele>
        <time>2025-11-05T14:37:27.446Z</time>
      </trkpt>
      <trkpt lat="44.08356" lon="0.48976">
        <ele>133</ele>
        <time>2025-11-05T14:37:28.446Z</time>
      </trkpt>
      <trkpt lat="44.08357" lon="0.48977">
        <ele>133</ele>
        <time>2025-11-05T14:37:29.446Z</time>
      </trkpt>
      <trkpt lat="44.08358" lon="0.48977">
        <ele>133</ele>
        <time>2025-11-05T14:37:30.446Z</time>
      </trkpt>
      <trkpt lat="44.08359" lon="0.48978">
        <ele>133</ele>
        <time>2025-11-05T14:37:31.446Z</time>
      </trkpt>
      <trkpt lat="44.0836" lon="0.48978">
        <ele>133</ele>
        <time>2025-11-05T14:37:32.446Z</time>
      </trkpt>
      <trkpt lat="44.08361" lon="0.48979">
        <ele>133</ele>
        <time>2025-11-05T14:37:33.446Z</time>
      </trkpt>
      <trkpt lat="44.08362" lon="0.4898">
        <ele>133</ele>
        <time>2025-11-05T14:37:34.446Z</time>
      </trkpt>
      <trkpt lat="44.08363" lon="0.4898">
        <ele>133</ele>
        <time>2025-11-05T14:37:35.446Z</time>
      </trkpt>
      <trkpt lat="44.08365" lon="0.48981">
        <ele>133</ele>
        <time>2025-11-05T14:37:36.446Z</time>
      </trkpt>
      <trkpt lat="44.08366" lon="0.48982">
        <ele>133</ele>
        <time>2025-11-05T14:37:37.446Z</time>
      </trkpt>
      <trkpt lat="44.08367" lon="0.48982">
        <ele>133</ele>
        <time>2025-11-05T14:37:38.446Z</time>
      </trkpt>
      <trkpt lat="44.08368" lon="0.48983">
        <ele>133</ele>
        <time>2025-11-05T14:37:39.446Z</time>
      </trkpt>
      <trkpt lat="44.08369" lon="0.48983">
        <ele>133</ele>
        <time>2025-11-05T14:37:40.446Z</time>
      </trkpt>
      <trkpt lat="44.0837" lon="0.48984">
        <ele>133</ele>
        <time>2025-11-05T14:37:41.446Z</time>
      </trkpt>
      <trkpt lat="44.08371" lon="0.48985">
        <ele>134</ele>
        <time>2025-11-05T14:37:42.446Z</time>
      </trkpt>
      <trkpt lat="44.08372" lon="0.48985">
        <ele>134</ele>
        <time>2025-11-05T14:37:43.446Z</time>
      </trkpt>
      <trkpt lat="44.08373" lon="0.48986">
        <ele>134</ele>
        <time>2025-11-05T14:37:44.446Z</time>
      </trkpt>
      <trkpt lat="44.08374" lon="0.48987">
        <ele>134</ele>
        <time>2025-11-05T14:37:45.446Z</time>
      </trkpt>
      <trkpt lat="44.08375" lon="0.48987">
        <ele>135</ele>
        <time>2025-11-05T14:37:46.446Z</time>
      </trkpt>
      <trkpt lat="44.08376" lon="0.48988">
        <ele>135</ele>
        <time>2025-11-05T14:37:47.446Z</time>
      </trkpt>
      <trkpt lat="44.08377" lon="0.48988">
        <ele>135</ele>
        <time>2025-11-05T14:37:48.446Z</time>
      </trkpt>
      <trkpt lat="44.08378" lon="0.48989">
        <ele>135</ele>
        <time>2025-11-05T14:37:49.446Z</time>
      </trkpt>
      <trkpt lat="44.08379" lon="0.48989">
        <ele>135</ele>
        <time>2025-11-05T14:37:50.446Z</time>
      </trkpt>
      <trkpt lat="44.0838" lon="0.4899">
        <ele>135</ele>
        <time>2025-11-05T14:37:51.446Z</time>
      </trkpt>
      <trkpt lat="44.08381" lon="0.4899">
        <ele>135</ele>
        <time>2025-11-05T14:37:52.446Z</time>
      </trkpt>
      <trkpt lat="44.08382" lon="0.48991">
        <ele>135</ele>
        <time>2025-11-05T14:37:53.446Z</time>
      </trkpt>
      <trkpt lat="44.08383" lon="0.48991">
        <ele>135</ele>
        <time>2025-11-05T14:37:54.446Z</time>
      </trkpt>
      <trkpt lat="44.08384" lon="0.48992">
        <ele>134</ele>
        <time>2025-11-05T14:37:55.446Z</time>
      </trkpt>
      <trkpt lat="44.08385" lon="0.48993">
        <ele>134</ele>
        <time>2025-11-05T14:37:56.446Z</time>
      </trkpt>
      <trkpt lat="44.08386" lon="0.48994">
        <ele>134</ele>
        <time>2025-11-05T14:37:57.446Z</time>
      </trkpt>
      <trkpt lat="44.08387" lon="0.48994">
        <ele>134</ele>
        <time>2025-11-05T14:37:58.446Z</time>
      </trkpt>
      <trkpt lat="44.08388" lon="0.48994">
        <ele>134</ele>
        <time>2025-11-05T14:37:59.446Z</time>
      </trkpt>
      <trkpt lat="44.08389" lon="0.48995">
        <ele>134</ele>
        <time>2025-11-05T14:38:00.446Z</time>
      </trkpt>
      <trkpt lat="44.0839" lon="0.48996">
        <ele>133</ele>
        <time>2025-11-05T14:38:01.446Z</time>
      </trkpt>
      <trkpt lat="44.0839" lon="0.48997">
        <ele>133</ele>
        <time>2025-11-05T14:38:02.446Z</time>
      </trkpt>
      <trkpt lat="44.08391" lon="0.48997">
        <ele>133</ele>
        <time>2025-11-05T14:38:03.446Z</time>
      </trkpt>
      <trkpt lat="44.08391" lon="0.48998">
        <ele>133</ele>
        <time>2025-11-05T14:38:04.446Z</time>
      </trkpt>
      <trkpt lat="44.08392" lon="0.48998">
        <ele>133</ele>
        <time>2025-11-05T14:38:05.446Z</time>
      </trkpt>
      <trkpt lat="44.08393" lon="0.48999">
        <ele>133</ele>
        <time>2025-11-05T14:38:06.446Z</time>
      </trkpt>
      <trkpt lat="44.08394" lon="0.48999">
        <ele>133</ele>
        <time>2025-11-05T14:38:07.446Z</time>
      </trkpt>
      <trkpt lat="44.08395" lon="0.49">
        <ele>133</ele>
        <time>2025-11-05T14:38:08.446Z</time>
      </trkpt>
      <trkpt lat="44.08396" lon="0.49">
        <ele>133</ele>
        <time>2025-11-05T14:38:09.446Z</time>
      </trkpt>
      <trkpt lat="44.08397" lon="0.49001">
        <ele>133</ele>
        <time>2025-11-05T14:38:10.446Z</time>
      </trkpt>
      <trkpt lat="44.08398" lon="0.49001">
        <ele>133</ele>
        <time>2025-11-05T14:38:11.446Z</time>
      </trkpt>
      <trkpt lat="44.08398" lon="0.49002">
        <ele>133</ele>
        <time>2025-11-05T14:38:12.446Z</time>
      </trkpt>
      <trkpt lat="44.08399" lon="0.49003">
        <ele>133</ele>
        <time>2025-11-05T14:38:13.446Z</time>
      </trkpt>
      <trkpt lat="44.084" lon="0.49004">
        <ele>133</ele>
        <time>2025-11-05T14:38:14.446Z</time>
      </trkpt>
      <trkpt lat="44.08401" lon="0.49005">
        <ele>133</ele>
        <time>2025-11-05T14:38:15.446Z</time>
      </trkpt>
      <trkpt lat="44.08402" lon="0.49005">
        <ele>133</ele>
        <time>2025-11-05T14:38:16.446Z</time>
      </trkpt>
      <trkpt lat="44.08403" lon="0.49006">
        <ele>133</ele>
        <time>2025-11-05T14:38:17.446Z</time>
      </trkpt>
      <trkpt lat="44.08404" lon="0.49006">
        <ele>133</ele>
        <time>2025-11-05T14:38:18.446Z</time>
      </trkpt>
      <trkpt lat="44.08405" lon="0.49007">
        <ele>133</ele>
        <time>2025-11-05T14:38:19.446Z</time>
      </trkpt>
      <trkpt lat="44.08405" lon="0.49008">
        <ele>133</ele>
        <time>2025-11-05T14:38:20.446Z</time>
      </trkpt>
      <trkpt lat="44.08406" lon="0.49009">
        <ele>133</ele>
        <time>2025-11-05T14:38:21.446Z</time>
      </trkpt>
      <trkpt lat="44.08407" lon="0.4901">
        <ele>133</ele>
        <time>2025-11-05T14:38:22.446Z</time>
      </trkpt>
      <trkpt lat="44.08409" lon="0.49011">
        <ele>133</ele>
        <time>2025-11-05T14:38:23.446Z</time>
      </trkpt>
      <trkpt lat="44.0841" lon="0.49011">
        <ele>133</ele>
        <time>2025-11-05T14:38:24.446Z</time>
      </trkpt>
      <trkpt lat="44.08411" lon="0.49012">
        <ele>133</ele>
        <time>2025-11-05T14:38:25.446Z</time>
      </trkpt>
      <trkpt lat="44.08412" lon="0.49012">
        <ele>134</ele>
        <time>2025-11-05T14:38:26.446Z</time>
      </trkpt>
      <trkpt lat="44.08413" lon="0.49013">
        <ele>134</ele>
        <time>2025-11-05T14:38:27.446Z</time>
      </trkpt>
      <trkpt lat="44.08414" lon="0.49014">
        <ele>134</ele>
        <time>2025-11-05T14:38:28.446Z</time>
      </trkpt>
      <trkpt lat="44.08415" lon="0.49015">
        <ele>134</ele>
        <time>2025-11-05T14:38:29.446Z</time>
      </trkpt>
      <trkpt lat="44.08416" lon="0.49016">
        <ele>134</ele>
        <time>2025-11-05T14:38:30.446Z</time>
      </trkpt>
      <trkpt lat="44.08417" lon="0.49017">
        <ele>134</ele>
        <time>2025-11-05T14:38:31.446Z</time>
      </trkpt>
      <trkpt lat="44.08418" lon="0.49018">
        <ele>134</ele>
        <time>2025-11-05T14:38:32.446Z</time>
      </trkpt>
      <trkpt lat="44.08419" lon="0.49018">
        <ele>134</ele>
        <time>2025-11-05T14:38:33.446Z</time>
      </trkpt>
      <trkpt lat="44.08421" lon="0.49019">
        <ele>134</ele>
        <time>2025-11-05T14:38:34.446Z</time>
      </trkpt>
      <trkpt lat="44.08422" lon="0.4902">
        <ele>134</ele>
        <time>2025-11-05T14:38:35.446Z</time>
      </trkpt>
      <trkpt lat="44.08423" lon="0.49021">
        <ele>134</ele>
        <time>2025-11-05T14:38:36.446Z</time>
      </trkpt>
      <trkpt lat="44.08423" lon="0.49022">
        <ele>134</ele>
        <time>2025-11-05T14:38:37.446Z</time>
      </trkpt>
      <trkpt lat="44.08424" lon="0.49023">
        <ele>134</ele>
        <time>2025-11-05T14:38:38.446Z</time>
      </trkpt>
      <trkpt lat="44.08425" lon="0.49023">
        <ele>134</ele>
        <time>2025-11-05T14:38:39.446Z</time>
      </trkpt>
      <trkpt lat="44.08426" lon="0.49024">
        <ele>134</ele>
        <time>2025-11-05T14:38:40.446Z</time>
      </trkpt>
      <trkpt lat="44.08428" lon="0.49025">
        <ele>135</ele>
        <time>2025-11-05T14:38:41.446Z</time>
      </trkpt>
      <trkpt lat="44.08429" lon="0.49026">
        <ele>135</ele>
        <time>2025-11-05T14:38:42.446Z</time>
      </trkpt>
      <trkpt lat="44.0843" lon="0.49027">
        <ele>135</ele>
        <time>2025-11-05T14:38:43.446Z</time>
      </trkpt>
      <trkpt lat="44.08431" lon="0.49028">
        <ele>136</ele>
        <time>2025-11-05T14:38:44.446Z</time>
      </trkpt>
      <trkpt lat="44.08432" lon="0.49029">
        <ele>135</ele>
        <time>2025-11-05T14:38:45.446Z</time>
      </trkpt>
      <trkpt lat="44.08433" lon="0.4903">
        <ele>135</ele>
        <time>2025-11-05T14:38:46.446Z</time>
      </trkpt>
      <trkpt lat="44.08434" lon="0.49031">
        <ele>135</ele>
        <time>2025-11-05T14:38:47.446Z</time>
      </trkpt>
      <trkpt lat="44.08435" lon="0.49032">
        <ele>134</ele>
        <time>2025-11-05T14:38:48.446Z</time>
      </trkpt>
      <trkpt lat="44.08436" lon="0.49033">
        <ele>134</ele>
        <time>2025-11-05T14:38:49.446Z</time>
      </trkpt>
      <trkpt lat="44.08437" lon="0.49033">
        <ele>135</ele>
        <time>2025-11-05T14:38:50.446Z</time>
      </trkpt>
      <trkpt lat="44.08438" lon="0.49034">
        <ele>135</ele>
        <time>2025-11-05T14:38:51.446Z</time>
      </trkpt>
      <trkpt lat="44.08439" lon="0.49035">
        <ele>135</ele>
        <time>2025-11-05T14:38:52.446Z</time>
      </trkpt>
      <trkpt lat="44.08441" lon="0.49036">
        <ele>135</ele>
        <time>2025-11-05T14:38:53.446Z</time>
      </trkpt>
      <trkpt lat="44.08442" lon="0.49036">
        <ele>135</ele>
        <time>2025-11-05T14:38:54.446Z</time>
      </trkpt>
      <trkpt lat="44.08443" lon="0.49037">
        <ele>135</ele>
        <time>2025-11-05T14:38:55.446Z</time>
      </trkpt>
      <trkpt lat="44.08444" lon="0.49038">
        <ele>135</ele>
        <time>2025-11-05T14:38:56.446Z</time>
      </trkpt>
      <trkpt lat="44.08445" lon="0.49039">
        <ele>135</ele>
        <time>2025-11-05T14:38:57.446Z</time>
      </trkpt>
      <trkpt lat="44.08446" lon="0.4904">
        <ele>135</ele>
        <time>2025-11-05T14:38:58.447Z</time>
      </trkpt>
      <trkpt lat="44.08447" lon="0.49041">
        <ele>135</ele>
        <time>2025-11-05T14:38:59.446Z</time>
      </trkpt>
      <trkpt lat="44.08448" lon="0.49041">
        <ele>135</ele>
        <time>2025-11-05T14:39:00.446Z</time>
      </trkpt>
      <trkpt lat="44.08449" lon="0.49042">
        <ele>135</ele>
        <time>2025-11-05T14:39:01.446Z</time>
      </trkpt>
      <trkpt lat="44.0845" lon="0.49043">
        <ele>134</ele>
        <time>2025-11-05T14:39:02.446Z</time>
      </trkpt>
      <trkpt lat="44.08451" lon="0.49044">
        <ele>134</ele>
        <time>2025-11-05T14:39:03.446Z</time>
      </trkpt>
      <trkpt lat="44.08452" lon="0.49045">
        <ele>134</ele>
        <time>2025-11-05T14:39:04.446Z</time>
      </trkpt>
      <trkpt lat="44.08454" lon="0.49046">
        <ele>134</ele>
        <time>2025-11-05T14:39:05.446Z</time>
      </trkpt>
      <trkpt lat="44.08455" lon="0.49047">
        <ele>134</ele>
        <time>2025-11-05T14:39:06.446Z</time>
      </trkpt>
      <trkpt lat="44.08456" lon="0.49047">
        <ele>134</ele>
        <time>2025-11-05T14:39:07.446Z</time>
      </trkpt>
      <trkpt lat="44.08457" lon="0.49047">
        <ele>134</ele>
        <time>2025-11-05T14:39:08.446Z</time>
      </trkpt>
      <trkpt lat="44.08458" lon="0.49048">
        <ele>135</ele>
        <time>2025-11-05T14:39:09.446Z</time>
      </trkpt>
      <trkpt lat="44.08459" lon="0.49048">
        <ele>135</ele>
        <time>2025-11-05T14:39:10.446Z</time>
      </trkpt>
      <trkpt lat="44.0846" lon="0.49048">
        <ele>135</ele>
        <time>2025-11-05T14:39:11.446Z</time>
      </trkpt>
      <trkpt lat="44.08461" lon="0.49049">
        <ele>135</ele>
        <time>2025-11-05T14:39:12.446Z</time>
      </trkpt>
      <trkpt lat="44.08462" lon="0.4905">
        <ele>135</ele>
        <time>2025-11-05T14:39:13.446Z</time>
      </trkpt>
      <trkpt lat="44.08464" lon="0.49051">
        <ele>135</ele>
        <time>2025-11-05T14:39:14.446Z</time>
      </trkpt>
      <trkpt lat="44.08465" lon="0.49052">
        <ele>135</ele>
        <time>2025-11-05T14:39:15.446Z</time>
      </trkpt>
      <trkpt lat="44.08466" lon="0.49053">
        <ele>135</ele>
        <time>2025-11-05T14:39:16.446Z</time>
      </trkpt>
      <trkpt lat="44.08467" lon="0.49054">
        <ele>135</ele>
        <time>2025-11-05T14:39:17.446Z</time>
      </trkpt>
      <trkpt lat="44.08468" lon="0.49055">
        <ele>135</ele>
        <time>2025-11-05T14:39:18.446Z</time>
      </trkpt>
      <trkpt lat="44.08468" lon="0.49056">
        <ele>134</ele>
        <time>2025-11-05T14:39:19.446Z</time>
      </trkpt>
      <trkpt lat="44.08469" lon="0.49057">
        <ele>134</ele>
        <time>2025-11-05T14:39:20.446Z</time>
      </trkpt>
      <trkpt lat="44.0847" lon="0.49058">
        <ele>134</ele>
        <time>2025-11-05T14:39:21.446Z</time>
      </trkpt>
      <trkpt lat="44.08471" lon="0.49059">
        <ele>134</ele>
        <time>2025-11-05T14:39:22.446Z</time>
      </trkpt>
      <trkpt lat="44.08472" lon="0.4906">
        <ele>133</ele>
        <time>2025-11-05T14:39:23.446Z</time>
      </trkpt>
      <trkpt lat="44.08474" lon="0.49061">
        <ele>133</ele>
        <time>2025-11-05T14:39:24.446Z</time>
      </trkpt>
      <trkpt lat="44.08475" lon="0.49061">
        <ele>133</ele>
        <time>2025-11-05T14:39:25.446Z</time>
      </trkpt>
      <trkpt lat="44.08476" lon="0.49061">
        <ele>134</ele>
        <time>2025-11-05T14:39:26.446Z</time>
      </trkpt>
      <trkpt lat="44.08477" lon="0.49062">
        <ele>134</ele>
        <time>2025-11-05T14:39:27.446Z</time>
      </trkpt>
      <trkpt lat="44.08478" lon="0.49062">
        <ele>134</ele>
        <time>2025-11-05T14:39:28.446Z</time>
      </trkpt>
      <trkpt lat="44.08479" lon="0.49063">
        <ele>134</ele>
        <time>2025-11-05T14:39:29.446Z</time>
      </trkpt>
      <trkpt lat="44.0848" lon="0.49064">
        <ele>134</ele>
        <time>2025-11-05T14:39:30.446Z</time>
      </trkpt>
      <trkpt lat="44.08481" lon="0.49065">
        <ele>134</ele>
        <time>2025-11-05T14:39:31.446Z</time>
      </trkpt>
      <trkpt lat="44.08482" lon="0.49065">
        <ele>134</ele>
        <time>2025-11-05T14:39:32.446Z</time>
      </trkpt>
      <trkpt lat="44.08484" lon="0.49066">
        <ele>133</ele>
        <time>2025-11-05T14:39:33.446Z</time>
      </trkpt>
      <trkpt lat="44.08485" lon="0.49067">
        <ele>134</ele>
        <time>2025-11-05T14:39:34.446Z</time>
      </trkpt>
      <trkpt lat="44.08486" lon="0.49068">
        <ele>134</ele>
        <time>2025-11-05T14:39:35.446Z</time>
      </trkpt>
      <trkpt lat="44.08487" lon="0.49068">
        <ele>134</ele>
        <time>2025-11-05T14:39:36.446Z</time>
      </trkpt>
      <trkpt lat="44.08488" lon="0.49069">
        <ele>134</ele>
        <time>2025-11-05T14:39:37.446Z</time>
      </trkpt>
      <trkpt lat="44.08489" lon="0.4907">
        <ele>135</ele>
        <time>2025-11-05T14:39:38.446Z</time>
      </trkpt>
      <trkpt lat="44.0849" lon="0.4907">
        <ele>135</ele>
        <time>2025-11-05T14:39:39.446Z</time>
      </trkpt>
      <trkpt lat="44.08491" lon="0.49071">
        <ele>135</ele>
        <time>2025-11-05T14:39:40.446Z</time>
      </trkpt>
      <trkpt lat="44.08492" lon="0.49072">
        <ele>135</ele>
        <time>2025-11-05T14:39:41.446Z</time>
      </trkpt>
      <trkpt lat="44.08493" lon="0.49073">
        <ele>135</ele>
        <time>2025-11-05T14:39:42.446Z</time>
      </trkpt>
      <trkpt lat="44.08494" lon="0.49074">
        <ele>134</ele>
        <time>2025-11-05T14:39:43.446Z</time>
      </trkpt>
      <trkpt lat="44.08495" lon="0.49075">
        <ele>134</ele>
        <time>2025-11-05T14:39:44.446Z</time>
      </trkpt>
      <trkpt lat="44.08497" lon="0.49076">
        <ele>134</ele>
        <time>2025-11-05T14:39:45.446Z</time>
      </trkpt>
      <trkpt lat="44.08498" lon="0.49076">
        <ele>133</ele>
        <time>2025-11-05T14:39:46.446Z</time>
      </trkpt>
      <trkpt lat="44.08498" lon="0.49077">
        <ele>133</ele>
        <time>2025-11-05T14:39:47.446Z</time>
      </trkpt>
      <trkpt lat="44.08499" lon="0.49078">
        <ele>133</ele>
        <time>2025-11-05T14:39:48.446Z</time>
      </trkpt>
      <trkpt lat="44.085" lon="0.49079">
        <ele>133</ele>
        <time>2025-11-05T14:39:49.446Z</time>
      </trkpt>
      <trkpt lat="44.08501" lon="0.49079">
        <ele>133</ele>
        <time>2025-11-05T14:39:50.446Z</time>
      </trkpt>
      <trkpt lat="44.08502" lon="0.4908">
        <ele>133</ele>
        <time>2025-11-05T14:39:51.446Z</time>
      </trkpt>
      <trkpt lat="44.08504" lon="0.49081">
        <ele>133</ele>
        <time>2025-11-05T14:39:52.446Z</time>
      </trkpt>
      <trkpt lat="44.08505" lon="0.49082">
        <ele>133</ele>
        <time>2025-11-05T14:39:53.446Z</time>
      </trkpt>
      <trkpt lat="44.08506" lon="0.49083">
        <ele>134</ele>
        <time>2025-11-05T14:39:54.446Z</time>
      </trkpt>
      <trkpt lat="44.08507" lon="0.49084">
        <ele>134</ele>
        <time>2025-11-05T14:39:55.446Z</time>
      </trkpt>
      <trkpt lat="44.08509" lon="0.49084">
        <ele>134</ele>
        <time>2025-11-05T14:39:56.446Z</time>
      </trkpt>
      <trkpt lat="44.0851" lon="0.49085">
        <ele>134</ele>
        <time>2025-11-05T14:39:57.446Z</time>
      </trkpt>
      <trkpt lat="44.08511" lon="0.49086">
        <ele>134</ele>
        <time>2025-11-05T14:39:58.446Z</time>
      </trkpt>
      <trkpt lat="44.08512" lon="0.49087">
        <ele>134</ele>
        <time>2025-11-05T14:39:59.446Z</time>
      </trkpt>
      <trkpt lat="44.08513" lon="0.49088">
        <ele>134</ele>
        <time>2025-11-05T14:40:00.446Z</time>
      </trkpt>
      <trkpt lat="44.08514" lon="0.49089">
        <ele>134</ele>
        <time>2025-11-05T14:40:01.446Z</time>
      </trkpt>
      <trkpt lat="44.08515" lon="0.4909">
        <ele>134</ele>
        <time>2025-11-05T14:40:02.446Z</time>
      </trkpt>
      <trkpt lat="44.08516" lon="0.49091">
        <ele>134</ele>
        <time>2025-11-05T14:40:03.446Z</time>
      </trkpt>
      <trkpt lat="44.08517" lon="0.49092">
        <ele>133</ele>
        <time>2025-11-05T14:40:04.446Z</time>
      </trkpt>
      <trkpt lat="44.08519" lon="0.49093">
        <ele>133</ele>
        <time>2025-11-05T14:40:05.446Z</time>
      </trkpt>
      <trkpt lat="44.0852" lon="0.49093">
        <ele>133</ele>
        <time>2025-11-05T14:40:06.446Z</time>
      </trkpt>
      <trkpt lat="44.0852" lon="0.49094">
        <ele>133</ele>
        <time>2025-11-05T14:40:07.446Z</time>
      </trkpt>
      <trkpt lat="44.08522" lon="0.49095">
        <ele>133</ele>
        <time>2025-11-05T14:40:08.446Z</time>
      </trkpt>
      <trkpt lat="44.08522" lon="0.49096">
        <ele>133</ele>
        <time>2025-11-05T14:40:09.446Z</time>
      </trkpt>
      <trkpt lat="44.08523" lon="0.49097">
        <ele>133</ele>
        <time>2025-11-05T14:40:10.446Z</time>
      </trkpt>
      <trkpt lat="44.08524" lon="0.49098">
        <ele>133</ele>
        <time>2025-11-05T14:40:11.446Z</time>
      </trkpt>
      <trkpt lat="44.08526" lon="0.49099">
        <ele>133</ele>
        <time>2025-11-05T14:40:12.446Z</time>
      </trkpt>
      <trkpt lat="44.08527" lon="0.491">
        <ele>133</ele>
        <time>2025-11-05T14:40:13.446Z</time>
      </trkpt>
      <trkpt lat="44.08528" lon="0.491">
        <ele>134</ele>
        <time>2025-11-05T14:40:14.446Z</time>
      </trkpt>
      <trkpt lat="44.08529" lon="0.49101">
        <ele>133</ele>
        <time>2025-11-05T14:40:15.446Z</time>
      </trkpt>
      <trkpt lat="44.0853" lon="0.49102">
        <ele>133</ele>
        <time>2025-11-05T14:40:16.446Z</time>
      </trkpt>
      <trkpt lat="44.08531" lon="0.49102">
        <ele>133</ele>
        <time>2025-11-05T14:40:17.446Z</time>
      </trkpt>
      <trkpt lat="44.08532" lon="0.49103">
        <ele>133</ele>
        <time>2025-11-05T14:40:18.446Z</time>
      </trkpt>
      <trkpt lat="44.08533" lon="0.49104">
        <ele>133</ele>
        <time>2025-11-05T14:40:19.446Z</time>
      </trkpt>
      <trkpt lat="44.08534" lon="0.49104">
        <ele>133</ele>
        <time>2025-11-05T14:40:20.446Z</time>
      </trkpt>
      <trkpt lat="44.08536" lon="0.49105">
        <ele>133</ele>
        <time>2025-11-05T14:40:21.446Z</time>
      </trkpt>
      <trkpt lat="44.08537" lon="0.49106">
        <ele>133</ele>
        <time>2025-11-05T14:40:22.446Z</time>
      </trkpt>
      <trkpt lat="44.08538" lon="0.49106">
        <ele>133</ele>
        <time>2025-11-05T14:40:23.446Z</time>
      </trkpt>
      <trkpt lat="44.08539" lon="0.49107">
        <ele>133</ele>
        <time>2025-11-05T14:40:24.446Z</time>
      </trkpt>
      <trkpt lat="44.0854" lon="0.49108">
        <ele>133</ele>
        <time>2025-11-05T14:40:25.446Z</time>
      </trkpt>
      <trkpt lat="44.08542" lon="0.49108">
        <ele>133</ele>
        <time>2025-11-05T14:40:26.446Z</time>
      </trkpt>
      <trkpt lat="44.08543" lon="0.49109">
        <ele>133</ele>
        <time>2025-11-05T14:40:27.446Z</time>
      </trkpt>
      <trkpt lat="44.08544" lon="0.49109">
        <ele>133</ele>
        <time>2025-11-05T14:40:28.446Z</time>
      </trkpt>
      <trkpt lat="44.08545" lon="0.4911">
        <ele>133</ele>
        <time>2025-11-05T14:40:29.446Z</time>
      </trkpt>
      <trkpt lat="44.08546" lon="0.49111">
        <ele>132</ele>
        <time>2025-11-05T14:40:30.446Z</time>
      </trkpt>
      <trkpt lat="44.08547" lon="0.49111">
        <ele>133</ele>
        <time>2025-11-05T14:40:31.446Z</time>
      </trkpt>
      <trkpt lat="44.08549" lon="0.49112">
        <ele>133</ele>
        <time>2025-11-05T14:40:32.446Z</time>
      </trkpt>
      <trkpt lat="44.0855" lon="0.49112">
        <ele>133</ele>
        <time>2025-11-05T14:40:33.446Z</time>
      </trkpt>
      <trkpt lat="44.08551" lon="0.49112">
        <ele>133</ele>
        <time>2025-11-05T14:40:34.446Z</time>
      </trkpt>
      <trkpt lat="44.08553" lon="0.49113">
        <ele>133</ele>
        <time>2025-11-05T14:40:35.446Z</time>
      </trkpt>
      <trkpt lat="44.08553" lon="0.49113">
        <ele>133</ele>
        <time>2025-11-05T14:40:36.446Z</time>
      </trkpt>
      <trkpt lat="44.08555" lon="0.49113">
        <ele>132</ele>
        <time>2025-11-05T14:40:37.446Z</time>
      </trkpt>
      <trkpt lat="44.08556" lon="0.49114">
        <ele>132</ele>
        <time>2025-11-05T14:40:38.446Z</time>
      </trkpt>
      <trkpt lat="44.08557" lon="0.49114">
        <ele>132</ele>
        <time>2025-11-05T14:40:39.446Z</time>
      </trkpt>
      <trkpt lat="44.08558" lon="0.49115">
        <ele>132</ele>
        <time>2025-11-05T14:40:40.446Z</time>
      </trkpt>
      <trkpt lat="44.08559" lon="0.49115">
        <ele>132</ele>
        <time>2025-11-05T14:40:41.446Z</time>
      </trkpt>
      <trkpt lat="44.0856" lon="0.49115">
        <ele>132</ele>
        <time>2025-11-05T14:40:42.446Z</time>
      </trkpt>
      <trkpt lat="44.08561" lon="0.49115">
        <ele>132</ele>
        <time>2025-11-05T14:40:43.446Z</time>
      </trkpt>
      <trkpt lat="44.08562" lon="0.49115">
        <ele>132</ele>
        <time>2025-11-05T14:40:44.446Z</time>
      </trkpt>
      <trkpt lat="44.08563" lon="0.49115">
        <ele>132</ele>
        <time>2025-11-05T14:40:45.446Z</time>
      </trkpt>
      <trkpt lat="44.08564" lon="0.49116">
        <ele>132</ele>
        <time>2025-11-05T14:40:46.446Z</time>
      </trkpt>
      <trkpt lat="44.08566" lon="0.49116">
        <ele>132</ele>
        <time>2025-11-05T14:40:47.446Z</time>
      </trkpt>
      <trkpt lat="44.08567" lon="0.49116">
        <ele>132</ele>
        <time>2025-11-05T14:40:48.446Z</time>
      </trkpt>
      <trkpt lat="44.08568" lon="0.49116">
        <ele>132</ele>
        <time>2025-11-05T14:40:49.446Z</time>
      </trkpt>
      <trkpt lat="44.0857" lon="0.49116">
        <ele>133</ele>
        <time>2025-11-05T14:40:50.446Z</time>
      </trkpt>
      <trkpt lat="44.08571" lon="0.49116">
        <ele>132</ele>
        <time>2025-11-05T14:40:51.446Z</time>
      </trkpt>
      <trkpt lat="44.08572" lon="0.49116">
        <ele>132</ele>
        <time>2025-11-05T14:40:52.446Z</time>
      </trkpt>
      <trkpt lat="44.08573" lon="0.49116">
        <ele>131</ele>
        <time>2025-11-05T14:40:53.446Z</time>
      </trkpt>
      <trkpt lat="44.08574" lon="0.49116">
        <ele>131</ele>
        <time>2025-11-05T14:40:54.446Z</time>
      </trkpt>
      <trkpt lat="44.08575" lon="0.49116">
        <ele>131</ele>
        <time>2025-11-05T14:40:55.446Z</time>
      </trkpt>
      <trkpt lat="44.08577" lon="0.49116">
        <ele>131</ele>
        <time>2025-11-05T14:40:56.446Z</time>
      </trkpt>
      <trkpt lat="44.08578" lon="0.49116">
        <ele>132</ele>
        <time>2025-11-05T14:40:57.446Z</time>
      </trkpt>
      <trkpt lat="44.08579" lon="0.49115">
        <ele>132</ele>
        <time>2025-11-05T14:40:58.446Z</time>
      </trkpt>
      <trkpt lat="44.08581" lon="0.49115">
        <ele>132</ele>
        <time>2025-11-05T14:40:59.446Z</time>
      </trkpt>
      <trkpt lat="44.08582" lon="0.49115">
        <ele>132</ele>
        <time>2025-11-05T14:41:00.446Z</time>
      </trkpt>
      <trkpt lat="44.08583" lon="0.49115">
        <ele>132</ele>
        <time>2025-11-05T14:41:01.446Z</time>
      </trkpt>
      <trkpt lat="44.08584" lon="0.49115">
        <ele>132</ele>
        <time>2025-11-05T14:41:02.446Z</time>
      </trkpt>
      <trkpt lat="44.08585" lon="0.49115">
        <ele>132</ele>
        <time>2025-11-05T14:41:03.446Z</time>
      </trkpt>
      <trkpt lat="44.08586" lon="0.49114">
        <ele>132</ele>
        <time>2025-11-05T14:41:04.446Z</time>
      </trkpt>
      <trkpt lat="44.08588" lon="0.49114">
        <ele>132</ele>
        <time>2025-11-05T14:41:05.446Z</time>
      </trkpt>
      <trkpt lat="44.08589" lon="0.49113">
        <ele>132</ele>
        <time>2025-11-05T14:41:06.446Z</time>
      </trkpt>
      <trkpt lat="44.0859" lon="0.49113">
        <ele>131</ele>
        <time>2025-11-05T14:41:07.446Z</time>
      </trkpt>
      <trkpt lat="44.08591" lon="0.49113">
        <ele>131</ele>
        <time>2025-11-05T14:41:08.446Z</time>
      </trkpt>
      <trkpt lat="44.08592" lon="0.49112">
        <ele>131</ele>
        <time>2025-11-05T14:41:09.446Z</time>
      </trkpt>
      <trkpt lat="44.08594" lon="0.49112">
        <ele>131</ele>
        <time>2025-11-05T14:41:10.446Z</time>
      </trkpt>
      <trkpt lat="44.08595" lon="0.49112">
        <ele>130</ele>
        <time>2025-11-05T14:41:11.446Z</time>
      </trkpt>
      <trkpt lat="44.08596" lon="0.49111">
        <ele>131</ele>
        <time>2025-11-05T14:41:12.446Z</time>
      </trkpt>
      <trkpt lat="44.08597" lon="0.49111">
        <ele>131</ele>
        <time>2025-11-05T14:41:13.446Z</time>
      </trkpt>
      <trkpt lat="44.08599" lon="0.4911">
        <ele>131</ele>
        <time>2025-11-05T14:41:14.446Z</time>
      </trkpt>
      <trkpt lat="44.086" lon="0.4911">
        <ele>131</ele>
        <time>2025-11-05T14:41:15.446Z</time>
      </trkpt>
      <trkpt lat="44.08601" lon="0.4911">
        <ele>131</ele>
        <time>2025-11-05T14:41:16.446Z</time>
      </trkpt>
      <trkpt lat="44.08602" lon="0.4911">
        <ele>131</ele>
        <time>2025-11-05T14:41:17.446Z</time>
      </trkpt>
      <trkpt lat="44.08603" lon="0.49109">
        <ele>131</ele>
        <time>2025-11-05T14:41:18.446Z</time>
      </trkpt>
      <trkpt lat="44.08604" lon="0.49109">
        <ele>131</ele>
        <time>2025-11-05T14:41:19.446Z</time>
      </trkpt>
      <trkpt lat="44.08605" lon="0.49109">
        <ele>131</ele>
        <time>2025-11-05T14:41:20.446Z</time>
      </trkpt>
      <trkpt lat="44.08606" lon="0.49109">
        <ele>131</ele>
        <time>2025-11-05T14:41:21.446Z</time>
      </trkpt>
      <trkpt lat="44.08607" lon="0.49109">
        <ele>132</ele>
        <time>2025-11-05T14:41:22.446Z</time>
      </trkpt>
      <trkpt lat="44.08609" lon="0.49108">
        <ele>132</ele>
        <time>2025-11-05T14:41:23.446Z</time>
      </trkpt>
      <trkpt lat="44.0861" lon="0.49108">
        <ele>132</ele>
        <time>2025-11-05T14:41:24.446Z</time>
      </trkpt>
      <trkpt lat="44.08611" lon="0.49108">
        <ele>132</ele>
        <time>2025-11-05T14:41:25.446Z</time>
      </trkpt>
      <trkpt lat="44.08612" lon="0.49108">
        <ele>132</ele>
        <time>2025-11-05T14:41:26.446Z</time>
      </trkpt>
      <trkpt lat="44.08613" lon="0.49107">
        <ele>132</ele>
        <time>2025-11-05T14:41:27.446Z</time>
      </trkpt>
      <trkpt lat="44.08614" lon="0.49107">
        <ele>132</ele>
        <time>2025-11-05T14:41:28.446Z</time>
      </trkpt>
      <trkpt lat="44.08615" lon="0.49107">
        <ele>133</ele>
        <time>2025-11-05T14:41:29.446Z</time>
      </trkpt>
      <trkpt lat="44.08616" lon="0.49107">
        <ele>133</ele>
        <time>2025-11-05T14:41:30.446Z</time>
      </trkpt>
      <trkpt lat="44.08617" lon="0.49106">
        <ele>133</ele>
        <time>2025-11-05T14:41:31.446Z</time>
      </trkpt>
      <trkpt lat="44.08619" lon="0.49106">
        <ele>133</ele>
        <time>2025-11-05T14:41:32.446Z</time>
      </trkpt>
      <trkpt lat="44.0862" lon="0.49106">
        <ele>133</ele>
        <time>2025-11-05T14:41:33.446Z</time>
      </trkpt>
      <trkpt lat="44.0862" lon="0.49106">
        <ele>134</ele>
        <time>2025-11-05T14:41:34.446Z</time>
      </trkpt>
      <trkpt lat="44.08621" lon="0.49106">
        <ele>134</ele>
        <time>2025-11-05T14:41:35.446Z</time>
      </trkpt>
      <trkpt lat="44.08622" lon="0.49106">
        <ele>134</ele>
        <time>2025-11-05T14:41:36.446Z</time>
      </trkpt>
      <trkpt lat="44.08623" lon="0.49106">
        <ele>134</ele>
        <time>2025-11-05T14:41:37.446Z</time>
      </trkpt>
      <trkpt lat="44.08625" lon="0.49106">
        <ele>135</ele>
        <time>2025-11-05T14:41:38.446Z</time>
      </trkpt>
      <trkpt lat="44.08626" lon="0.49106">
        <ele>134</ele>
        <time>2025-11-05T14:41:39.446Z</time>
      </trkpt>
      <trkpt lat="44.08627" lon="0.49105">
        <ele>135</ele>
        <time>2025-11-05T14:41:40.446Z</time>
      </trkpt>
      <trkpt lat="44.08628" lon="0.49105">
        <ele>135</ele>
        <time>2025-11-05T14:41:41.446Z</time>
      </trkpt>
      <trkpt lat="44.08629" lon="0.49104">
        <ele>135</ele>
        <time>2025-11-05T14:41:42.446Z</time>
      </trkpt>
      <trkpt lat="44.0863" lon="0.49104">
        <ele>135</ele>
        <time>2025-11-05T14:41:43.446Z</time>
      </trkpt>
      <trkpt lat="44.08631" lon="0.49104">
        <ele>136</ele>
        <time>2025-11-05T14:41:44.446Z</time>
      </trkpt>
      <trkpt lat="44.08632" lon="0.49103">
        <ele>136</ele>
        <time>2025-11-05T14:41:45.446Z</time>
      </trkpt>
      <trkpt lat="44.08633" lon="0.49103">
        <ele>136</ele>
        <time>2025-11-05T14:41:46.446Z</time>
      </trkpt>
      <trkpt lat="44.08635" lon="0.49103">
        <ele>135</ele>
        <time>2025-11-05T14:41:47.446Z</time>
      </trkpt>
      <trkpt lat="44.08636" lon="0.49103">
        <ele>135</ele>
        <time>2025-11-05T14:41:48.446Z</time>
      </trkpt>
      <trkpt lat="44.08638" lon="0.49103">
        <ele>135</ele>
        <time>2025-11-05T14:41:49.446Z</time>
      </trkpt>
      <trkpt lat="44.08639" lon="0.49103">
        <ele>135</ele>
        <time>2025-11-05T14:41:50.446Z</time>
      </trkpt>
      <trkpt lat="44.0864" lon="0.49103">
        <ele>136</ele>
        <time>2025-11-05T14:41:51.446Z</time>
      </trkpt>
      <trkpt lat="44.08641" lon="0.49103">
        <ele>135</ele>
        <time>2025-11-05T14:41:52.446Z</time>
      </trkpt>
      <trkpt lat="44.08642" lon="0.49103">
        <ele>135</ele>
        <time>2025-11-05T14:41:53.446Z</time>
      </trkpt>
      <trkpt lat="44.08643" lon="0.49103">
        <ele>135</ele>
        <time>2025-11-05T14:41:54.446Z</time>
      </trkpt>
      <trkpt lat="44.08644" lon="0.49103">
        <ele>135</ele>
        <time>2025-11-05T14:41:55.446Z</time>
      </trkpt>
      <trkpt lat="44.08645" lon="0.49102">
        <ele>135</ele>
        <time>2025-11-05T14:41:56.446Z</time>
      </trkpt>
      <trkpt lat="44.08646" lon="0.49102">
        <ele>135</ele>
        <time>2025-11-05T14:41:57.446Z</time>
      </trkpt>
      <trkpt lat="44.08647" lon="0.49102">
        <ele>135</ele>
        <time>2025-11-05T14:41:58.446Z</time>
      </trkpt>
      <trkpt lat="44.08648" lon="0.49101">
        <ele>134</ele>
        <time>2025-11-05T14:41:59.446Z</time>
      </trkpt>
      <trkpt lat="44.08649" lon="0.49101">
        <ele>134</ele>
        <time>2025-11-05T14:42:00.446Z</time>
      </trkpt>
      <trkpt lat="44.08651" lon="0.49101">
        <ele>134</ele>
        <time>2025-11-05T14:42:01.446Z</time>
      </trkpt>
      <trkpt lat="44.08652" lon="0.49101">
        <ele>133</ele>
        <time>2025-11-05T14:42:02.446Z</time>
      </trkpt>
      <trkpt lat="44.08653" lon="0.491">
        <ele>133</ele>
        <time>2025-11-05T14:42:03.446Z</time>
      </trkpt>
      <trkpt lat="44.08654" lon="0.491">
        <ele>133</ele>
        <time>2025-11-05T14:42:04.446Z</time>
      </trkpt>
      <trkpt lat="44.08656" lon="0.491">
        <ele>133</ele>
        <time>2025-11-05T14:42:05.446Z</time>
      </trkpt>
      <trkpt lat="44.08657" lon="0.491">
        <ele>133</ele>
        <time>2025-11-05T14:42:06.446Z</time>
      </trkpt>
      <trkpt lat="44.08658" lon="0.49099">
        <ele>133</ele>
        <time>2025-11-05T14:42:07.446Z</time>
      </trkpt>
      <trkpt lat="44.08659" lon="0.49099">
        <ele>133</ele>
        <time>2025-11-05T14:42:08.446Z</time>
      </trkpt>
      <trkpt lat="44.0866" lon="0.49099">
        <ele>133</ele>
        <time>2025-11-05T14:42:09.446Z</time>
      </trkpt>
      <trkpt lat="44.08661" lon="0.49098">
        <ele>133</ele>
        <time>2025-11-05T14:42:10.446Z</time>
      </trkpt>
      <trkpt lat="44.08662" lon="0.49098">
        <ele>133</ele>
        <time>2025-11-05T14:42:11.446Z</time>
      </trkpt>
      <trkpt lat="44.08663" lon="0.49098">
        <ele>133</ele>
        <time>2025-11-05T14:42:12.446Z</time>
      </trkpt>
      <trkpt lat="44.08664" lon="0.49098">
        <ele>133</ele>
        <time>2025-11-05T14:42:13.446Z</time>
      </trkpt>
      <trkpt lat="44.08666" lon="0.49098">
        <ele>133</ele>
        <time>2025-11-05T14:42:14.446Z</time>
      </trkpt>
      <trkpt lat="44.08667" lon="0.49098">
        <ele>133</ele>
        <time>2025-11-05T14:42:15.446Z</time>
      </trkpt>
      <trkpt lat="44.08668" lon="0.49098">
        <ele>133</ele>
        <time>2025-11-05T14:42:16.446Z</time>
      </trkpt>
      <trkpt lat="44.08669" lon="0.49098">
        <ele>133</ele>
        <time>2025-11-05T14:42:17.446Z</time>
      </trkpt>
      <trkpt lat="44.0867" lon="0.49098">
        <ele>132</ele>
        <time>2025-11-05T14:42:18.446Z</time>
      </trkpt>
      <trkpt lat="44.08672" lon="0.49098">
        <ele>132</ele>
        <time>2025-11-05T14:42:19.446Z</time>
      </trkpt>
      <trkpt lat="44.08673" lon="0.49098">
        <ele>132</ele>
        <time>2025-11-05T14:42:20.447Z</time>
      </trkpt>
      <trkpt lat="44.08674" lon="0.49097">
        <ele>132</ele>
        <time>2025-11-05T14:42:21.446Z</time>
      </trkpt>
      <trkpt lat="44.08675" lon="0.49097">
        <ele>132</ele>
        <time>2025-11-05T14:42:22.446Z</time>
      </trkpt>
      <trkpt lat="44.08676" lon="0.49096">
        <ele>132</ele>
        <time>2025-11-05T14:42:23.446Z</time>
      </trkpt>
      <trkpt lat="44.08677" lon="0.49096">
        <ele>132</ele>
        <time>2025-11-05T14:42:24.446Z</time>
      </trkpt>
      <trkpt lat="44.08678" lon="0.49096">
        <ele>132</ele>
        <time>2025-11-05T14:42:25.446Z</time>
      </trkpt>
      <trkpt lat="44.0868" lon="0.49095">
        <ele>132</ele>
        <time>2025-11-05T14:42:26.446Z</time>
      </trkpt>
      <trkpt lat="44.08681" lon="0.49095">
        <ele>132</ele>
        <time>2025-11-05T14:42:27.446Z</time>
      </trkpt>
      <trkpt lat="44.08682" lon="0.49095">
        <ele>132</ele>
        <time>2025-11-05T14:42:28.446Z</time>
      </trkpt>
      <trkpt lat="44.08684" lon="0.49095">
        <ele>132</ele>
        <time>2025-11-05T14:42:29.446Z</time>
      </trkpt>
      <trkpt lat="44.08685" lon="0.49095">
        <ele>132</ele>
        <time>2025-11-05T14:42:30.446Z</time>
      </trkpt>
      <trkpt lat="44.08686" lon="0.49095">
        <ele>132</ele>
        <time>2025-11-05T14:42:31.446Z</time>
      </trkpt>
      <trkpt lat="44.08687" lon="0.49094">
        <ele>132</ele>
        <time>2025-11-05T14:42:32.446Z</time>
      </trkpt>
      <trkpt lat="44.08688" lon="0.49094">
        <ele>132</ele>
        <time>2025-11-05T14:42:33.446Z</time>
      </trkpt>
      <trkpt lat="44.0869" lon="0.49093">
        <ele>132</ele>
        <time>2025-11-05T14:42:34.446Z</time>
      </trkpt>
      <trkpt lat="44.08691" lon="0.49093">
        <ele>132</ele>
        <time>2025-11-05T14:42:35.446Z</time>
      </trkpt>
      <trkpt lat="44.08693" lon="0.49092">
        <ele>131</ele>
        <time>2025-11-05T14:42:36.446Z</time>
      </trkpt>
      <trkpt lat="44.08694" lon="0.49092">
        <ele>132</ele>
        <time>2025-11-05T14:42:37.446Z</time>
      </trkpt>
      <trkpt lat="44.08695" lon="0.49092">
        <ele>132</ele>
        <time>2025-11-05T14:42:38.446Z</time>
      </trkpt>
      <trkpt lat="44.08697" lon="0.49092">
        <ele>132</ele>
        <time>2025-11-05T14:42:39.447Z</time>
      </trkpt>
      <trkpt lat="44.08698" lon="0.49092">
        <ele>131</ele>
        <time>2025-11-05T14:42:40.446Z</time>
      </trkpt>
      <trkpt lat="44.08699" lon="0.49093">
        <ele>131</ele>
        <time>2025-11-05T14:42:41.446Z</time>
      </trkpt>
      <trkpt lat="44.087" lon="0.49093">
        <ele>131</ele>
        <time>2025-11-05T14:42:42.446Z</time>
      </trkpt>
      <trkpt lat="44.08702" lon="0.49093">
        <ele>131</ele>
        <time>2025-11-05T14:42:43.446Z</time>
      </trkpt>
      <trkpt lat="44.08703" lon="0.49093">
        <ele>131</ele>
        <time>2025-11-05T14:42:44.446Z</time>
      </trkpt>
      <trkpt lat="44.08704" lon="0.49093">
        <ele>132</ele>
        <time>2025-11-05T14:42:45.446Z</time>
      </trkpt>
      <trkpt lat="44.08705" lon="0.49093">
        <ele>132</ele>
        <time>2025-11-05T14:42:46.446Z</time>
      </trkpt>
      <trkpt lat="44.08706" lon="0.49094">
        <ele>132</ele>
        <time>2025-11-05T14:42:47.446Z</time>
      </trkpt>
      <trkpt lat="44.08708" lon="0.49094">
        <ele>132</ele>
        <time>2025-11-05T14:42:48.446Z</time>
      </trkpt>
      <trkpt lat="44.08709" lon="0.49095">
        <ele>132</ele>
        <time>2025-11-05T14:42:49.446Z</time>
      </trkpt>
      <trkpt lat="44.0871" lon="0.49095">
        <ele>132</ele>
        <time>2025-11-05T14:42:50.446Z</time>
      </trkpt>
      <trkpt lat="44.08712" lon="0.49095">
        <ele>132</ele>
        <time>2025-11-05T14:42:51.446Z</time>
      </trkpt>
      <trkpt lat="44.08713" lon="0.49096">
        <ele>131</ele>
        <time>2025-11-05T14:42:52.446Z</time>
      </trkpt>
      <trkpt lat="44.08714" lon="0.49097">
        <ele>131</ele>
        <time>2025-11-05T14:42:53.446Z</time>
      </trkpt>
      <trkpt lat="44.08715" lon="0.49097">
        <ele>131</ele>
        <time>2025-11-05T14:42:54.446Z</time>
      </trkpt>
      <trkpt lat="44.08717" lon="0.49098">
        <ele>131</ele>
        <time>2025-11-05T14:42:55.446Z</time>
      </trkpt>
      <trkpt lat="44.08718" lon="0.49098">
        <ele>132</ele>
        <time>2025-11-05T14:42:56.446Z</time>
      </trkpt>
      <trkpt lat="44.08719" lon="0.49099">
        <ele>132</ele>
        <time>2025-11-05T14:42:57.446Z</time>
      </trkpt>
      <trkpt lat="44.08721" lon="0.49099">
        <ele>132</ele>
        <time>2025-11-05T14:42:58.447Z</time>
      </trkpt>
      <trkpt lat="44.08722" lon="0.491">
        <ele>132</ele>
        <time>2025-11-05T14:42:59.446Z</time>
      </trkpt>
      <trkpt lat="44.08724" lon="0.491">
        <ele>132</ele>
        <time>2025-11-05T14:43:00.446Z</time>
      </trkpt>
      <trkpt lat="44.08725" lon="0.49101">
        <ele>132</ele>
        <time>2025-11-05T14:43:01.446Z</time>
      </trkpt>
      <trkpt lat="44.08726" lon="0.49102">
        <ele>132</ele>
        <time>2025-11-05T14:43:02.446Z</time>
      </trkpt>
      <trkpt lat="44.08727" lon="0.49103">
        <ele>131</ele>
        <time>2025-11-05T14:43:03.446Z</time>
      </trkpt>
      <trkpt lat="44.08728" lon="0.49104">
        <ele>131</ele>
        <time>2025-11-05T14:43:04.446Z</time>
      </trkpt>
      <trkpt lat="44.08729" lon="0.49105">
        <ele>131</ele>
        <time>2025-11-05T14:43:05.446Z</time>
      </trkpt>
      <trkpt lat="44.0873" lon="0.49106">
        <ele>131</ele>
        <time>2025-11-05T14:43:06.446Z</time>
      </trkpt>
      <trkpt lat="44.08731" lon="0.49107">
        <ele>131</ele>
        <time>2025-11-05T14:43:07.446Z</time>
      </trkpt>
      <trkpt lat="44.08732" lon="0.49108">
        <ele>131</ele>
        <time>2025-11-05T14:43:08.446Z</time>
      </trkpt>
      <trkpt lat="44.08733" lon="0.49109">
        <ele>132</ele>
        <time>2025-11-05T14:43:09.446Z</time>
      </trkpt>
      <trkpt lat="44.08735" lon="0.49109">
        <ele>132</ele>
        <time>2025-11-05T14:43:10.446Z</time>
      </trkpt>
      <trkpt lat="44.08736" lon="0.4911">
        <ele>132</ele>
        <time>2025-11-05T14:43:11.446Z</time>
      </trkpt>
      <trkpt lat="44.08736" lon="0.49111">
        <ele>132</ele>
        <time>2025-11-05T14:43:12.446Z</time>
      </trkpt>
      <trkpt lat="44.08737" lon="0.49111">
        <ele>133</ele>
        <time>2025-11-05T14:43:13.446Z</time>
      </trkpt>
      <trkpt lat="44.08739" lon="0.49112">
        <ele>133</ele>
        <time>2025-11-05T14:43:14.446Z</time>
      </trkpt>
      <trkpt lat="44.0874" lon="0.49113">
        <ele>133</ele>
        <time>2025-11-05T14:43:15.447Z</time>
      </trkpt>
      <trkpt lat="44.0874" lon="0.49114">
        <ele>133</ele>
        <time>2025-11-05T14:43:16.446Z</time>
      </trkpt>
      <trkpt lat="44.08741" lon="0.49115">
        <ele>133</ele>
        <time>2025-11-05T14:43:17.446Z</time>
      </trkpt>
      <trkpt lat="44.08742" lon="0.49115">
        <ele>133</ele>
        <time>2025-11-05T14:43:18.446Z</time>
      </trkpt>
      <trkpt lat="44.08743" lon="0.49116">
        <ele>133</ele>
        <time>2025-11-05T14:43:19.446Z</time>
      </trkpt>
      <trkpt lat="44.08744" lon="0.49117">
        <ele>133</ele>
        <time>2025-11-05T14:43:20.446Z</time>
      </trkpt>
      <trkpt lat="44.08744" lon="0.49118">
        <ele>133</ele>
        <time>2025-11-05T14:43:21.446Z</time>
      </trkpt>
      <trkpt lat="44.08745" lon="0.49119">
        <ele>133</ele>
        <time>2025-11-05T14:43:22.446Z</time>
      </trkpt>
      <trkpt lat="44.08746" lon="0.4912">
        <ele>133</ele>
        <time>2025-11-05T14:43:23.446Z</time>
      </trkpt>
      <trkpt lat="44.08747" lon="0.49121">
        <ele>133</ele>
        <time>2025-11-05T14:43:24.446Z</time>
      </trkpt>
      <trkpt lat="44.08748" lon="0.49122">
        <ele>133</ele>
        <time>2025-11-05T14:43:25.446Z</time>
      </trkpt>
      <trkpt lat="44.08749" lon="0.49123">
        <ele>132</ele>
        <time>2025-11-05T14:43:26.446Z</time>
      </trkpt>
      <trkpt lat="44.0875" lon="0.49124">
        <ele>132</ele>
        <time>2025-11-05T14:43:27.446Z</time>
      </trkpt>
      <trkpt lat="44.08751" lon="0.49125">
        <ele>132</ele>
        <time>2025-11-05T14:43:28.446Z</time>
      </trkpt>
      <trkpt lat="44.08752" lon="0.49126">
        <ele>133</ele>
        <time>2025-11-05T14:43:29.446Z</time>
      </trkpt>
      <trkpt lat="44.08753" lon="0.49127">
        <ele>132</ele>
        <time>2025-11-05T14:43:30.446Z</time>
      </trkpt>
      <trkpt lat="44.08754" lon="0.49128">
        <ele>132</ele>
        <time>2025-11-05T14:43:31.446Z</time>
      </trkpt>
      <trkpt lat="44.08755" lon="0.49129">
        <ele>132</ele>
        <time>2025-11-05T14:43:32.446Z</time>
      </trkpt>
      <trkpt lat="44.08756" lon="0.4913">
        <ele>132</ele>
        <time>2025-11-05T14:43:33.446Z</time>
      </trkpt>
      <trkpt lat="44.08757" lon="0.4913">
        <ele>132</ele>
        <time>2025-11-05T14:43:34.446Z</time>
      </trkpt>
      <trkpt lat="44.08758" lon="0.49131">
        <ele>132</ele>
        <time>2025-11-05T14:43:35.446Z</time>
      </trkpt>
      <trkpt lat="44.08759" lon="0.49132">
        <ele>133</ele>
        <time>2025-11-05T14:43:36.446Z</time>
      </trkpt>
      <trkpt lat="44.0876" lon="0.49133">
        <ele>133</ele>
        <time>2025-11-05T14:43:37.446Z</time>
      </trkpt>
      <trkpt lat="44.08761" lon="0.49133">
        <ele>133</ele>
        <time>2025-11-05T14:43:38.446Z</time>
      </trkpt>
      <trkpt lat="44.08762" lon="0.49134">
        <ele>134</ele>
        <time>2025-11-05T14:43:39.446Z</time>
      </trkpt>
      <trkpt lat="44.08763" lon="0.49135">
        <ele>134</ele>
        <time>2025-11-05T14:43:40.446Z</time>
      </trkpt>
      <trkpt lat="44.08764" lon="0.49136">
        <ele>135</ele>
        <time>2025-11-05T14:43:41.446Z</time>
      </trkpt>
      <trkpt lat="44.08765" lon="0.49137">
        <ele>135</ele>
        <time>2025-11-05T14:43:42.446Z</time>
      </trkpt>
      <trkpt lat="44.08767" lon="0.49138">
        <ele>136</ele>
        <time>2025-11-05T14:43:43.446Z</time>
      </trkpt>
      <trkpt lat="44.08768" lon="0.49139">
        <ele>136</ele>
        <time>2025-11-05T14:43:44.446Z</time>
      </trkpt>
      <trkpt lat="44.08769" lon="0.4914">
        <ele>136</ele>
        <time>2025-11-05T14:43:45.447Z</time>
      </trkpt>
      <trkpt lat="44.0877" lon="0.49141">
        <ele>136</ele>
        <time>2025-11-05T14:43:46.446Z</time>
      </trkpt>
      <trkpt lat="44.08771" lon="0.49142">
        <ele>136</ele>
        <time>2025-11-05T14:43:47.446Z</time>
      </trkpt>
      <trkpt lat="44.08772" lon="0.49143">
        <ele>137</ele>
        <time>2025-11-05T14:43:48.446Z</time>
      </trkpt>
      <trkpt lat="44.08773" lon="0.49143">
        <ele>137</ele>
        <time>2025-11-05T14:43:49.446Z</time>
      </trkpt>
      <trkpt lat="44.08775" lon="0.49144">
        <ele>138</ele>
        <time>2025-11-05T14:43:50.446Z</time>
      </trkpt>
      <trkpt lat="44.08775" lon="0.49145">
        <ele>138</ele>
        <time>2025-11-05T14:43:51.446Z</time>
      </trkpt>
      <trkpt lat="44.08776" lon="0.49146">
        <ele>138</ele>
        <time>2025-11-05T14:43:52.447Z</time>
      </trkpt>
      <trkpt lat="44.08777" lon="0.49146">
        <ele>139</ele>
        <time>2025-11-05T14:43:53.446Z</time>
      </trkpt>
      <trkpt lat="44.08778" lon="0.49147">
        <ele>139</ele>
        <time>2025-11-05T14:43:54.446Z</time>
      </trkpt>
      <trkpt lat="44.08779" lon="0.49148">
        <ele>139</ele>
        <time>2025-11-05T14:43:55.446Z</time>
      </trkpt>
      <trkpt lat="44.0878" lon="0.49149">
        <ele>139</ele>
        <time>2025-11-05T14:43:56.446Z</time>
      </trkpt>
      <trkpt lat="44.08781" lon="0.4915">
        <ele>140</ele>
        <time>2025-11-05T14:43:57.446Z</time>
      </trkpt>
      <trkpt lat="44.08782" lon="0.49151">
        <ele>140</ele>
        <time>2025-11-05T14:43:58.446Z</time>
      </trkpt>
      <trkpt lat="44.08783" lon="0.49152">
        <ele>140</ele>
        <time>2025-11-05T14:43:59.446Z</time>
      </trkpt>
      <trkpt lat="44.08784" lon="0.49153">
        <ele>140</ele>
        <time>2025-11-05T14:44:00.446Z</time>
      </trkpt>
      <trkpt lat="44.08785" lon="0.49154">
        <ele>140</ele>
        <time>2025-11-05T14:44:01.446Z</time>
      </trkpt>
      <trkpt lat="44.08786" lon="0.49155">
        <ele>140</ele>
        <time>2025-11-05T14:44:02.447Z</time>
      </trkpt>
      <trkpt lat="44.08787" lon="0.49156">
        <ele>140</ele>
        <time>2025-11-05T14:44:03.446Z</time>
      </trkpt>
      <trkpt lat="44.08788" lon="0.49156">
        <ele>140</ele>
        <time>2025-11-05T14:44:04.446Z</time>
      </trkpt>
      <trkpt lat="44.08789" lon="0.49157">
        <ele>140</ele>
        <time>2025-11-05T14:44:05.446Z</time>
      </trkpt>
      <trkpt lat="44.0879" lon="0.49158">
        <ele>140</ele>
        <time>2025-11-05T14:44:06.446Z</time>
      </trkpt>
      <trkpt lat="44.08791" lon="0.49159">
        <ele>140</ele>
        <time>2025-11-05T14:44:07.446Z</time>
      </trkpt>
      <trkpt lat="44.08792" lon="0.49159">
        <ele>140</ele>
        <time>2025-11-05T14:44:08.446Z</time>
      </trkpt>
      <trkpt lat="44.08792" lon="0.4916">
        <ele>140</ele>
        <time>2025-11-05T14:44:09.446Z</time>
      </trkpt>
      <trkpt lat="44.08793" lon="0.49161">
        <ele>140</ele>
        <time>2025-11-05T14:44:10.446Z</time>
      </trkpt>
      <trkpt lat="44.08794" lon="0.49161">
        <ele>140</ele>
        <time>2025-11-05T14:44:11.446Z</time>
      </trkpt>
      <trkpt lat="44.08795" lon="0.49162">
        <ele>139</ele>
        <time>2025-11-05T14:44:12.446Z</time>
      </trkpt>
      <trkpt lat="44.08796" lon="0.49163">
        <ele>139</ele>
        <time>2025-11-05T14:44:13.446Z</time>
      </trkpt>
      <trkpt lat="44.08797" lon="0.49164">
        <ele>139</ele>
        <time>2025-11-05T14:44:14.446Z</time>
      </trkpt>
      <trkpt lat="44.08798" lon="0.49165">
        <ele>139</ele>
        <time>2025-11-05T14:44:15.446Z</time>
      </trkpt>
      <trkpt lat="44.08799" lon="0.49165">
        <ele>138</ele>
        <time>2025-11-05T14:44:16.446Z</time>
      </trkpt>
      <trkpt lat="44.088" lon="0.49166">
        <ele>138</ele>
        <time>2025-11-05T14:44:17.446Z</time>
      </trkpt>
      <trkpt lat="44.08801" lon="0.49166">
        <ele>138</ele>
        <time>2025-11-05T14:44:18.446Z</time>
      </trkpt>
      <trkpt lat="44.08802" lon="0.49167">
        <ele>139</ele>
        <time>2025-11-05T14:44:19.446Z</time>
      </trkpt>
      <trkpt lat="44.08803" lon="0.49168">
        <ele>139</ele>
        <time>2025-11-05T14:44:20.446Z</time>
      </trkpt>
      <trkpt lat="44.08804" lon="0.49169">
        <ele>139</ele>
        <time>2025-11-05T14:44:21.446Z</time>
      </trkpt>
      <trkpt lat="44.08805" lon="0.49169">
        <ele>139</ele>
        <time>2025-11-05T14:44:22.446Z</time>
      </trkpt>
      <trkpt lat="44.08806" lon="0.4917">
        <ele>139</ele>
        <time>2025-11-05T14:44:23.446Z</time>
      </trkpt>
      <trkpt lat="44.08807" lon="0.49171">
        <ele>139</ele>
        <time>2025-11-05T14:44:24.446Z</time>
      </trkpt>
      <trkpt lat="44.08807" lon="0.49172">
        <ele>139</ele>
        <time>2025-11-05T14:44:25.446Z</time>
      </trkpt>
      <trkpt lat="44.08808" lon="0.49172">
        <ele>139</ele>
        <time>2025-11-05T14:44:26.446Z</time>
      </trkpt>
      <trkpt lat="44.08809" lon="0.49173">
        <ele>139</ele>
        <time>2025-11-05T14:44:27.446Z</time>
      </trkpt>
      <trkpt lat="44.0881" lon="0.49174">
        <ele>139</ele>
        <time>2025-11-05T14:44:28.446Z</time>
      </trkpt>
      <trkpt lat="44.08811" lon="0.49175">
        <ele>140</ele>
        <time>2025-11-05T14:44:29.446Z</time>
      </trkpt>
      <trkpt lat="44.08812" lon="0.49176">
        <ele>140</ele>
        <time>2025-11-05T14:44:30.446Z</time>
      </trkpt>
      <trkpt lat="44.08813" lon="0.49176">
        <ele>140</ele>
        <time>2025-11-05T14:44:31.446Z</time>
      </trkpt>
      <trkpt lat="44.08814" lon="0.49177">
        <ele>140</ele>
        <time>2025-11-05T14:44:32.446Z</time>
      </trkpt>
      <trkpt lat="44.08816" lon="0.49178">
        <ele>141</ele>
        <time>2025-11-05T14:44:33.446Z</time>
      </trkpt>
      <trkpt lat="44.08816" lon="0.49179">
        <ele>140</ele>
        <time>2025-11-05T14:44:34.446Z</time>
      </trkpt>
      <trkpt lat="44.08818" lon="0.49179">
        <ele>140</ele>
        <time>2025-11-05T14:44:35.446Z</time>
      </trkpt>
      <trkpt lat="44.08819" lon="0.4918">
        <ele>140</ele>
        <time>2025-11-05T14:44:36.446Z</time>
      </trkpt>
      <trkpt lat="44.0882" lon="0.49181">
        <ele>140</ele>
        <time>2025-11-05T14:44:37.446Z</time>
      </trkpt>
      <trkpt lat="44.08821" lon="0.49182">
        <ele>140</ele>
        <time>2025-11-05T14:44:38.446Z</time>
      </trkpt>
      <trkpt lat="44.08822" lon="0.49182">
        <ele>140</ele>
        <time>2025-11-05T14:44:39.446Z</time>
      </trkpt>
      <trkpt lat="44.08823" lon="0.49183">
        <ele>140</ele>
        <time>2025-11-05T14:44:40.446Z</time>
      </trkpt>
      <trkpt lat="44.08824" lon="0.49184">
        <ele>141</ele>
        <time>2025-11-05T14:44:41.446Z</time>
      </trkpt>
      <trkpt lat="44.08825" lon="0.49185">
        <ele>141</ele>
        <time>2025-11-05T14:44:42.446Z</time>
      </trkpt>
      <trkpt lat="44.08826" lon="0.49186">
        <ele>141</ele>
        <time>2025-11-05T14:44:43.446Z</time>
      </trkpt>
      <trkpt lat="44.08827" lon="0.49187">
        <ele>141</ele>
        <time>2025-11-05T14:44:44.446Z</time>
      </trkpt>
      <trkpt lat="44.08828" lon="0.49187">
        <ele>141</ele>
        <time>2025-11-05T14:44:45.446Z</time>
      </trkpt>
      <trkpt lat="44.08829" lon="0.49188">
        <ele>141</ele>
        <time>2025-11-05T14:44:46.446Z</time>
      </trkpt>
      <trkpt lat="44.0883" lon="0.49189">
        <ele>141</ele>
        <time>2025-11-05T14:44:47.446Z</time>
      </trkpt>
      <trkpt lat="44.08831" lon="0.4919">
        <ele>142</ele>
        <time>2025-11-05T14:44:48.446Z</time>
      </trkpt>
      <trkpt lat="44.08832" lon="0.49191">
        <ele>142</ele>
        <time>2025-11-05T14:44:49.446Z</time>
      </trkpt>
      <trkpt lat="44.08833" lon="0.49191">
        <ele>142</ele>
        <time>2025-11-05T14:44:50.446Z</time>
      </trkpt>
      <trkpt lat="44.08834" lon="0.49192">
        <ele>142</ele>
        <time>2025-11-05T14:44:51.446Z</time>
      </trkpt>
      <trkpt lat="44.08835" lon="0.49193">
        <ele>142</ele>
        <time>2025-11-05T14:44:52.446Z</time>
      </trkpt>
      <trkpt lat="44.08836" lon="0.49194">
        <ele>142</ele>
        <time>2025-11-05T14:44:53.446Z</time>
      </trkpt>
      <trkpt lat="44.08837" lon="0.49194">
        <ele>143</ele>
        <time>2025-11-05T14:44:54.446Z</time>
      </trkpt>
      <trkpt lat="44.08838" lon="0.49195">
        <ele>143</ele>
        <time>2025-11-05T14:44:55.446Z</time>
      </trkpt>
      <trkpt lat="44.08839" lon="0.49195">
        <ele>143</ele>
        <time>2025-11-05T14:44:56.446Z</time>
      </trkpt>
      <trkpt lat="44.0884" lon="0.49196">
        <ele>143</ele>
        <time>2025-11-05T14:44:57.446Z</time>
      </trkpt>
      <trkpt lat="44.08841" lon="0.49197">
        <ele>144</ele>
        <time>2025-11-05T14:44:58.446Z</time>
      </trkpt>
      <trkpt lat="44.08842" lon="0.49198">
        <ele>144</ele>
        <time>2025-11-05T14:44:59.446Z</time>
      </trkpt>
      <trkpt lat="44.08843" lon="0.49198">
        <ele>145</ele>
        <time>2025-11-05T14:45:00.446Z</time>
      </trkpt>
      <trkpt lat="44.08844" lon="0.49199">
        <ele>145</ele>
        <time>2025-11-05T14:45:01.446Z</time>
      </trkpt>
      <trkpt lat="44.08845" lon="0.492">
        <ele>145</ele>
        <time>2025-11-05T14:45:02.446Z</time>
      </trkpt>
      <trkpt lat="44.08846" lon="0.492">
        <ele>145</ele>
        <time>2025-11-05T14:45:03.446Z</time>
      </trkpt>
      <trkpt lat="44.08847" lon="0.49201">
        <ele>145</ele>
        <time>2025-11-05T14:45:04.447Z</time>
      </trkpt>
      <trkpt lat="44.08848" lon="0.49202">
        <ele>145</ele>
        <time>2025-11-05T14:45:05.446Z</time>
      </trkpt>
      <trkpt lat="44.08849" lon="0.49202">
        <ele>145</ele>
        <time>2025-11-05T14:45:06.446Z</time>
      </trkpt>
      <trkpt lat="44.0885" lon="0.49203">
        <ele>145</ele>
        <time>2025-11-05T14:45:07.446Z</time>
      </trkpt>
      <trkpt lat="44.08851" lon="0.49204">
        <ele>145</ele>
        <time>2025-11-05T14:45:08.446Z</time>
      </trkpt>
      <trkpt lat="44.08852" lon="0.49205">
        <ele>145</ele>
        <time>2025-11-05T14:45:09.446Z</time>
      </trkpt>
      <trkpt lat="44.08853" lon="0.49206">
        <ele>145</ele>
        <time>2025-11-05T14:45:10.446Z</time>
      </trkpt>
      <trkpt lat="44.08854" lon="0.49207">
        <ele>145</ele>
        <time>2025-11-05T14:45:11.446Z</time>
      </trkpt>
      <trkpt lat="44.08855" lon="0.49207">
        <ele>145</ele>
        <time>2025-11-05T14:45:12.446Z</time>
      </trkpt>
      <trkpt lat="44.08856" lon="0.49208">
        <ele>144</ele>
        <time>2025-11-05T14:45:13.446Z</time>
      </trkpt>
      <trkpt lat="44.08857" lon="0.49209">
        <ele>144</ele>
        <time>2025-11-05T14:45:14.446Z</time>
      </trkpt>
      <trkpt lat="44.08858" lon="0.4921">
        <ele>144</ele>
        <time>2025-11-05T14:45:15.446Z</time>
      </trkpt>
      <trkpt lat="44.08859" lon="0.49211">
        <ele>144</ele>
        <time>2025-11-05T14:45:16.446Z</time>
      </trkpt>
      <trkpt lat="44.08859" lon="0.49211">
        <ele>144</ele>
        <time>2025-11-05T14:45:17.446Z</time>
      </trkpt>
      <trkpt lat="44.0886" lon="0.49212">
        <ele>144</ele>
        <time>2025-11-05T14:45:18.446Z</time>
      </trkpt>
      <trkpt lat="44.08861" lon="0.49212">
        <ele>144</ele>
        <time>2025-11-05T14:45:19.446Z</time>
      </trkpt>
      <trkpt lat="44.08862" lon="0.49213">
        <ele>144</ele>
        <time>2025-11-05T14:45:20.446Z</time>
      </trkpt>
      <trkpt lat="44.08863" lon="0.49214">
        <ele>144</ele>
        <time>2025-11-05T14:45:21.446Z</time>
      </trkpt>
      <trkpt lat="44.08864" lon="0.49215">
        <ele>144</ele>
        <time>2025-11-05T14:45:22.446Z</time>
      </trkpt>
      <trkpt lat="44.08865" lon="0.49215">
        <ele>144</ele>
        <time>2025-11-05T14:45:23.446Z</time>
      </trkpt>
      <trkpt lat="44.08865" lon="0.49216">
        <ele>145</ele>
        <time>2025-11-05T14:45:24.446Z</time>
      </trkpt>
      <trkpt lat="44.08866" lon="0.49217">
        <ele>145</ele>
        <time>2025-11-05T14:45:25.446Z</time>
      </trkpt>
      <trkpt lat="44.08867" lon="0.49217">
        <ele>145</ele>
        <time>2025-11-05T14:45:26.446Z</time>
      </trkpt>
      <trkpt lat="44.08868" lon="0.49218">
        <ele>145</ele>
        <time>2025-11-05T14:45:27.446Z</time>
      </trkpt>
      <trkpt lat="44.08869" lon="0.49218">
        <ele>145</ele>
        <time>2025-11-05T14:45:28.446Z</time>
      </trkpt>
      <trkpt lat="44.0887" lon="0.49219">
        <ele>145</ele>
        <time>2025-11-05T14:45:29.446Z</time>
      </trkpt>
      <trkpt lat="44.08871" lon="0.49219">
        <ele>145</ele>
        <time>2025-11-05T14:45:30.446Z</time>
      </trkpt>
      <trkpt lat="44.08872" lon="0.4922">
        <ele>145</ele>
        <time>2025-11-05T14:45:31.446Z</time>
      </trkpt>
      <trkpt lat="44.08872" lon="0.4922">
        <ele>145</ele>
        <time>2025-11-05T14:45:32.446Z</time>
      </trkpt>
      <trkpt lat="44.08873" lon="0.4922">
        <ele>145</ele>
        <time>2025-11-05T14:45:33.446Z</time>
      </trkpt>
      <trkpt lat="44.08874" lon="0.4922">
        <ele>145</ele>
        <time>2025-11-05T14:45:34.446Z</time>
      </trkpt>
      <trkpt lat="44.08875" lon="0.4922">
        <ele>145</ele>
        <time>2025-11-05T14:45:35.446Z</time>
      </trkpt>
      <trkpt lat="44.08875" lon="0.4922">
        <ele>145</ele>
        <time>2025-11-05T14:45:36.446Z</time>
      </trkpt>
      <trkpt lat="44.08875" lon="0.4922">
        <ele>146</ele>
        <time>2025-11-05T14:45:37.446Z</time>
      </trkpt>
      <trkpt lat="44.08876" lon="0.4922">
        <ele>146</ele>
        <time>2025-11-05T14:45:38.446Z</time>
      </trkpt>
      <trkpt lat="44.08876" lon="0.49219">
        <ele>146</ele>
        <time>2025-11-05T14:45:39.446Z</time>
      </trkpt>
      <trkpt lat="44.08876" lon="0.49219">
        <ele>147</ele>
        <time>2025-11-05T14:45:40.446Z</time>
      </trkpt>
      <trkpt lat="44.08876" lon="0.49219">
        <ele>147</ele>
        <time>2025-11-05T14:45:41.446Z</time>
      </trkpt>
      <trkpt lat="44.08876" lon="0.49218">
        <ele>147</ele>
        <time>2025-11-05T14:45:42.446Z</time>
      </trkpt>
      <trkpt lat="44.08876" lon="0.49218">
        <ele>147</ele>
        <time>2025-11-05T14:45:43.446Z</time>
      </trkpt>
      <trkpt lat="44.08876" lon="0.49218">
        <ele>147</ele>
        <time>2025-11-05T14:45:44.446Z</time>
      </trkpt>
      <trkpt lat="44.08876" lon="0.49218">
        <ele>147</ele>
        <time>2025-11-05T14:45:45.446Z</time>
      </trkpt>
      <trkpt lat="44.08876" lon="0.49218">
        <ele>147</ele>
        <time>2025-11-05T14:45:46.446Z</time>
      </trkpt>
      <trkpt lat="44.08877" lon="0.49218">
        <ele>147</ele>
        <time>2025-11-05T14:45:47.446Z</time>
      </trkpt>
      <trkpt lat="44.08877" lon="0.49218">
        <ele>147</ele>
        <time>2025-11-05T14:45:48.446Z</time>
      </trkpt>
      <trkpt lat="44.08877" lon="0.49218">
        <ele>147</ele>
        <time>2025-11-05T14:45:49.446Z</time>
      </trkpt>
      <trkpt lat="44.08878" lon="0.49218">
        <ele>147</ele>
        <time>2025-11-05T14:45:50.446Z</time>
      </trkpt>
      <trkpt lat="44.08878" lon="0.49218">
        <ele>147</ele>
        <time>2025-11-05T14:45:51.446Z</time>
      </trkpt>
      <trkpt lat="44.08879" lon="0.49219">
        <ele>146</ele>
        <time>2025-11-05T14:45:52.446Z</time>
      </trkpt>
      <trkpt lat="44.08879" lon="0.49219">
        <ele>146</ele>
        <time>2025-11-05T14:45:53.446Z</time>
      </trkpt>
      <trkpt lat="44.08879" lon="0.49219">
        <ele>146</ele>
        <time>2025-11-05T14:45:54.446Z</time>
      </trkpt>
      <trkpt lat="44.08879" lon="0.4922">
        <ele>146</ele>
        <time>2025-11-05T14:45:55.446Z</time>
      </trkpt>
      <trkpt lat="44.08879" lon="0.4922">
        <ele>146</ele>
        <time>2025-11-05T14:45:56.446Z</time>
      </trkpt>
      <trkpt lat="44.08879" lon="0.4922">
        <ele>147</ele>
        <time>2025-11-05T14:45:57.446Z</time>
      </trkpt>
      <trkpt lat="44.08879" lon="0.4922">
        <ele>147</ele>
        <time>2025-11-05T14:45:58.446Z</time>
      </trkpt>
      <trkpt lat="44.08879" lon="0.4922">
        <ele>147</ele>
        <time>2025-11-05T14:45:59.446Z</time>
      </trkpt>
      <trkpt lat="44.08879" lon="0.4922">
        <ele>147</ele>
        <time>2025-11-05T14:46:00.446Z</time>
      </trkpt>
      <trkpt lat="44.08879" lon="0.4922">
        <ele>147</ele>
        <time>2025-11-05T14:46:01.446Z</time>
      </trkpt>
      <trkpt lat="44.08879" lon="0.4922">
        <ele>147</ele>
        <time>2025-11-05T14:46:02.446Z</time>
      </trkpt>
      <trkpt lat="44.08879" lon="0.4922">
        <ele>148</ele>
        <time>2025-11-05T14:46:03.446Z</time>
      </trkpt>
      <trkpt lat="44.08879" lon="0.4922">
        <ele>147</ele>
        <time>2025-11-05T14:46:04.446Z</time>
      </trkpt>
      <trkpt lat="44.08879" lon="0.4922">
        <ele>147</ele>
        <time>2025-11-05T14:46:05.446Z</time>
      </trkpt>
      <trkpt lat="44.08879" lon="0.4922">
        <ele>147</ele>
        <time>2025-11-05T14:46:06.446Z</time>
      </trkpt>
      <trkpt lat="44.08879" lon="0.4922">
        <ele>147</ele>
        <time>2025-11-05T14:46:07.446Z</time>
      </trkpt>
      <trkpt lat="44.08879" lon="0.4922">
        <ele>147</ele>
        <time>2025-11-05T14:46:08.446Z</time>
      </trkpt>
      <trkpt lat="44.08879" lon="0.49221">
        <ele>147</ele>
        <time>2025-11-05T14:46:09.446Z</time>
      </trkpt>
      <trkpt lat="44.08879" lon="0.49221">
        <ele>147</ele>
        <time>2025-11-05T14:46:10.446Z</time>
      </trkpt>
      <trkpt lat="44.08879" lon="0.49221">
        <ele>147</ele>
        <time>2025-11-05T14:46:11.446Z</time>
      </trkpt>
      <trkpt lat="44.08879" lon="0.49221">
        <ele>147</ele>
        <time>2025-11-05T14:46:12.446Z</time>
      </trkpt>
      <trkpt lat="44.08879" lon="0.49221">
        <ele>147</ele>
        <time>2025-11-05T14:46:13.446Z</time>
      </trkpt>
      <trkpt lat="44.08879" lon="0.49221">
        <ele>147</ele>
        <time>2025-11-05T14:46:14.446Z</time>
      </trkpt>
      <trkpt lat="44.08879" lon="0.49221">
        <ele>147</ele>
        <time>2025-11-05T14:46:15.446Z</time>
      </trkpt>
      <trkpt lat="44.08879" lon="0.49221">
        <ele>147</ele>
        <time>2025-11-05T14:46:16.446Z</time>
      </trkpt>
      <trkpt lat="44.08879" lon="0.49222">
        <ele>147</ele>
        <time>2025-11-05T14:46:17.446Z</time>
      </trkpt>
      <trkpt lat="44.08879" lon="0.49222">
        <ele>147</ele>
        <time>2025-11-05T14:46:18.446Z</time>
      </trkpt>
      <trkpt lat="44.08879" lon="0.49222">
        <ele>147</ele>
        <time>2025-11-05T14:46:19.446Z</time>
      </trkpt>
      <trkpt lat="44.08879" lon="0.49223">
        <ele>147</ele>
        <time>2025-11-05T14:46:20.446Z</time>
      </trkpt>
      <trkpt lat="44.08879" lon="0.49223">
        <ele>146</ele>
        <time>2025-11-05T14:46:21.446Z</time>
      </trkpt>
      <trkpt lat="44.08878" lon="0.49223">
        <ele>146</ele>
        <time>2025-11-05T14:46:22.446Z</time>
      </trkpt>
      <trkpt lat="44.08878" lon="0.49223">
        <ele>146</ele>
        <time>2025-11-05T14:46:23.446Z</time>
      </trkpt>
      <trkpt lat="44.08878" lon="0.49223">
        <ele>146</ele>
        <time>2025-11-05T14:46:24.446Z</time>
      </trkpt>
      <trkpt lat="44.08878" lon="0.49223">
        <ele>146</ele>
        <time>2025-11-05T14:46:25.446Z</time>
      </trkpt>
      <trkpt lat="44.08878" lon="0.49223">
        <ele>146</ele>
        <time>2025-11-05T14:46:26.446Z</time>
      </trkpt>
      <trkpt lat="44.08878" lon="0.49223">
        <ele>146</ele>
        <time>2025-11-05T14:46:27.446Z</time>
      </trkpt>
      <trkpt lat="44.08879" lon="0.49223">
        <ele>147</ele>
        <time>2025-11-05T14:46:28.446Z</time>
      </trkpt>
      <trkpt lat="44.08879" lon="0.49223">
        <ele>147</ele>
        <time>2025-11-05T14:46:29.446Z</time>
      </trkpt>
      <trkpt lat="44.08879" lon="0.49222">
        <ele>147</ele>
        <time>2025-11-05T14:46:30.446Z</time>
      </trkpt>
      <trkpt lat="44.08879" lon="0.49222">
        <ele>147</ele>
        <time>2025-11-05T14:46:31.446Z</time>
      </trkpt>
      <trkpt lat="44.08878" lon="0.49222">
        <ele>148</ele>
        <time>2025-11-05T14:46:32.446Z</time>
      </trkpt>
      <trkpt lat="44.08878" lon="0.49222">
        <ele>148</ele>
        <time>2025-11-05T14:46:33.446Z</time>
      </trkpt>
      <trkpt lat="44.08878" lon="0.49222">
        <ele>148</ele>
        <time>2025-11-05T14:46:34.446Z</time>
      </trkpt>
      <trkpt lat="44.08878" lon="0.49222">
        <ele>148</ele>
        <time>2025-11-05T14:46:35.446Z</time>
      </trkpt>
      <trkpt lat="44.08878" lon="0.49223">
        <ele>149</ele>
        <time>2025-11-05T14:46:36.446Z</time>
      </trkpt>
      <trkpt lat="44.08878" lon="0.49223">
        <ele>149</ele>
        <time>2025-11-05T14:46:37.446Z</time>
      </trkpt>
      <trkpt lat="44.08878" lon="0.49223">
        <ele>149</ele>
        <time>2025-11-05T14:46:38.446Z</time>
      </trkpt>
      <trkpt lat="44.08878" lon="0.49223">
        <ele>150</ele>
        <time>2025-11-05T14:46:39.446Z</time>
      </trkpt>
      <trkpt lat="44.08879" lon="0.49223">
        <ele>150</ele>
        <time>2025-11-05T14:46:40.446Z</time>
      </trkpt>
      <trkpt lat="44.08879" lon="0.49223">
        <ele>150</ele>
        <time>2025-11-05T14:46:41.446Z</time>
      </trkpt>
      <trkpt lat="44.08879" lon="0.49223">
        <ele>150</ele>
        <time>2025-11-05T14:46:42.446Z</time>
      </trkpt>
      <trkpt lat="44.08879" lon="0.49223">
        <ele>150</ele>
        <time>2025-11-05T14:46:43.446Z</time>
      </trkpt>
      <trkpt lat="44.08879" lon="0.49223">
        <ele>150</ele>
        <time>2025-11-05T14:46:44.446Z</time>
      </trkpt>
      <trkpt lat="44.08879" lon="0.49223">
        <ele>150</ele>
        <time>2025-11-05T14:46:45.446Z</time>
      </trkpt>
      <trkpt lat="44.08879" lon="0.49223">
        <ele>150</ele>
        <time>2025-11-05T14:46:46.446Z</time>
      </trkpt>
      <trkpt lat="44.08879" lon="0.49223">
        <ele>150</ele>
        <time>2025-11-05T14:46:47.446Z</time>
      </trkpt>
      <trkpt lat="44.08879" lon="0.49223">
        <ele>150</ele>
        <time>2025-11-05T14:46:48.446Z</time>
      </trkpt>
      <trkpt lat="44.08879" lon="0.49224">
        <ele>150</ele>
        <time>2025-11-05T14:46:49.446Z</time>
      </trkpt>
      <trkpt lat="44.08879" lon="0.49224">
        <ele>150</ele>
        <time>2025-11-05T14:46:50.446Z</time>
      </trkpt>
      <trkpt lat="44.08879" lon="0.49224">
        <ele>149</ele>
        <time>2025-11-05T14:46:51.446Z</time>
      </trkpt>
      <trkpt lat="44.08879" lon="0.49224">
        <ele>149</ele>
        <time>2025-11-05T14:46:52.446Z</time>
      </trkpt>
      <trkpt lat="44.08879" lon="0.49224">
        <ele>149</ele>
        <time>2025-11-05T14:46:53.446Z</time>
      </trkpt>
      <trkpt lat="44.08879" lon="0.49224">
        <ele>148</ele>
        <time>2025-11-05T14:46:54.446Z</time>
      </trkpt>
      <trkpt lat="44.08879" lon="0.49224">
        <ele>148</ele>
        <time>2025-11-05T14:46:55.446Z</time>
      </trkpt>
      <trkpt lat="44.08879" lon="0.49224">
        <ele>148</ele>
        <time>2025-11-05T14:46:56.447Z</time>
      </trkpt>
      <trkpt lat="44.08879" lon="0.49224">
        <ele>147</ele>
        <time>2025-11-05T14:46:57.446Z</time>
      </trkpt>
      <trkpt lat="44.08879" lon="0.49224">
        <ele>147</ele>
        <time>2025-11-05T14:46:58.446Z</time>
      </trkpt>
      <trkpt lat="44.08879" lon="0.49224">
        <ele>147</ele>
        <time>2025-11-05T14:46:59.446Z</time>
      </trkpt>
      <trkpt lat="44.08879" lon="0.49225">
        <ele>147</ele>
        <time>2025-11-05T14:47:00.446Z</time>
      </trkpt>
      <trkpt lat="44.08879" lon="0.49225">
        <ele>147</ele>
        <time>2025-11-05T14:47:01.446Z</time>
      </trkpt>
      <trkpt lat="44.08879" lon="0.49225">
        <ele>147</ele>
        <time>2025-11-05T14:47:02.446Z</time>
      </trkpt>
      <trkpt lat="44.08879" lon="0.49225">
        <ele>148</ele>
        <time>2025-11-05T14:47:03.446Z</time>
      </trkpt>
      <trkpt lat="44.08879" lon="0.49225">
        <ele>148</ele>
        <time>2025-11-05T14:47:04.446Z</time>
      </trkpt>
      <trkpt lat="44.08879" lon="0.49225">
        <ele>148</ele>
        <time>2025-11-05T14:47:05.446Z</time>
      </trkpt>
      <trkpt lat="44.08879" lon="0.49225">
        <ele>148</ele>
        <time>2025-11-05T14:47:06.446Z</time>
      </trkpt>
      <trkpt lat="44.08879" lon="0.49225">
        <ele>147</ele>
        <time>2025-11-05T14:47:07.446Z</time>
      </trkpt>
      <trkpt lat="44.08879" lon="0.49225">
        <ele>147</ele>
        <time>2025-11-05T14:47:08.446Z</time>
      </trkpt>
      <trkpt lat="44.08879" lon="0.49225">
        <ele>147</ele>
        <time>2025-11-05T14:47:09.446Z</time>
      </trkpt>
      <trkpt lat="44.08879" lon="0.49225">
        <ele>147</ele>
        <time>2025-11-05T14:47:10.446Z</time>
      </trkpt>
      <trkpt lat="44.08878" lon="0.49225">
        <ele>147</ele>
        <time>2025-11-05T14:47:11.446Z</time>
      </trkpt>
      <trkpt lat="44.08878" lon="0.49225">
        <ele>147</ele>
        <time>2025-11-05T14:47:12.446Z</time>
      </trkpt>
      <trkpt lat="44.08878" lon="0.49224">
        <ele>147</ele>
        <time>2025-11-05T14:47:13.446Z</time>
      </trkpt>
      <trkpt lat="44.08878" lon="0.49224">
        <ele>147</ele>
        <time>2025-11-05T14:47:14.446Z</time>
      </trkpt>
      <trkpt lat="44.08878" lon="0.49224">
        <ele>147</ele>
        <time>2025-11-05T14:47:15.446Z</time>
      </trkpt>
      <trkpt lat="44.08878" lon="0.49224">
        <ele>147</ele>
        <time>2025-11-05T14:47:16.446Z</time>
      </trkpt>
      <trkpt lat="44.08878" lon="0.49224">
        <ele>147</ele>
        <time>2025-11-05T14:47:17.446Z</time>
      </trkpt>
      <trkpt lat="44.08878" lon="0.49224">
        <ele>147</ele>
        <time>2025-11-05T14:47:18.446Z</time>
      </trkpt>
      <trkpt lat="44.08878" lon="0.49224">
        <ele>147</ele>
        <time>2025-11-05T14:47:19.446Z</time>
      </trkpt>
      <trkpt lat="44.08878" lon="0.49224">
        <ele>147</ele>
        <time>2025-11-05T14:47:20.446Z</time>
      </trkpt>
      <trkpt lat="44.08878" lon="0.49224">
        <ele>147</ele>
        <time>2025-11-05T14:47:21.446Z</time>
      </trkpt>
      <trkpt lat="44.08878" lon="0.49225">
        <ele>147</ele>
        <time>2025-11-05T14:47:22.446Z</time>
      </trkpt>
      <trkpt lat="44.08878" lon="0.49225">
        <ele>146</ele>
        <time>2025-11-05T14:47:23.446Z</time>
      </trkpt>
      <trkpt lat="44.08878" lon="0.49225">
        <ele>147</ele>
        <time>2025-11-05T14:47:24.446Z</time>
      </trkpt>
      <trkpt lat="44.08878" lon="0.49225">
        <ele>147</ele>
        <time>2025-11-05T14:47:25.446Z</time>
      </trkpt>
      <trkpt lat="44.08878" lon="0.49225">
        <ele>147</ele>
        <time>2025-11-05T14:47:26.446Z</time>
      </trkpt>
      <trkpt lat="44.08878" lon="0.49224">
        <ele>147</ele>
        <time>2025-11-05T14:47:27.446Z</time>
      </trkpt>
      <trkpt lat="44.08878" lon="0.49224">
        <ele>147</ele>
        <time>2025-11-05T14:47:28.446Z</time>
      </trkpt>
      <trkpt lat="44.08878" lon="0.49224">
        <ele>147</ele>
        <time>2025-11-05T14:47:29.446Z</time>
      </trkpt>
      <trkpt lat="44.08878" lon="0.49224">
        <ele>147</ele>
        <time>2025-11-05T14:47:30.446Z</time>
      </trkpt>
      <trkpt lat="44.08878" lon="0.49224">
        <ele>147</ele>
        <time>2025-11-05T14:47:31.446Z</time>
      </trkpt>
      <trkpt lat="44.08878" lon="0.49224">
        <ele>147</ele>
        <time>2025-11-05T14:47:32.446Z</time>
      </trkpt>
      <trkpt lat="44.08878" lon="0.49224">
        <ele>148</ele>
        <time>2025-11-05T14:47:33.446Z</time>
      </trkpt>
      <trkpt lat="44.08878" lon="0.49224">
        <ele>148</ele>
        <time>2025-11-05T14:47:34.446Z</time>
      </trkpt>
      <trkpt lat="44.08878" lon="0.49224">
        <ele>148</ele>
        <time>2025-11-05T14:47:35.446Z</time>
      </trkpt>
      <trkpt lat="44.08878" lon="0.49224">
        <ele>148</ele>
        <time>2025-11-05T14:47:36.446Z</time>
      </trkpt>
      <trkpt lat="44.08878" lon="0.49224">
        <ele>148</ele>
        <time>2025-11-05T14:47:37.446Z</time>
      </trkpt>
      <trkpt lat="44.08878" lon="0.49224">
        <ele>148</ele>
        <time>2025-11-05T14:47:38.446Z</time>
      </trkpt>
      <trkpt lat="44.08878" lon="0.49224">
        <ele>148</ele>
        <time>2025-11-05T14:47:39.446Z</time>
      </trkpt>
      <trkpt lat="44.08878" lon="0.49224">
        <ele>148</ele>
        <time>2025-11-05T14:47:40.446Z</time>
      </trkpt>
      <trkpt lat="44.08878" lon="0.49224">
        <ele>148</ele>
        <time>2025-11-05T14:47:41.446Z</time>
      </trkpt>
      <trkpt lat="44.08879" lon="0.49224">
        <ele>148</ele>
        <time>2025-11-05T14:47:42.446Z</time>
      </trkpt>
      <trkpt lat="44.08879" lon="0.49224">
        <ele>148</ele>
        <time>2025-11-05T14:47:43.446Z</time>
      </trkpt>
      <trkpt lat="44.08879" lon="0.49224">
        <ele>148</ele>
        <time>2025-11-05T14:47:44.446Z</time>
      </trkpt>
      <trkpt lat="44.08879" lon="0.49224">
        <ele>148</ele>
        <time>2025-11-05T14:47:45.446Z</time>
      </trkpt>
      <trkpt lat="44.08878" lon="0.49224">
        <ele>148</ele>
        <time>2025-11-05T14:47:46.446Z</time>
      </trkpt>
      <trkpt lat="44.08878" lon="0.49224">
        <ele>147</ele>
        <time>2025-11-05T14:47:47.446Z</time>
      </trkpt>
      <trkpt lat="44.08878" lon="0.49224">
        <ele>147</ele>
        <time>2025-11-05T14:47:48.446Z</time>
      </trkpt>
      <trkpt lat="44.08878" lon="0.49224">
        <ele>147</ele>
        <time>2025-11-05T14:47:49.446Z</time>
      </trkpt>
      <trkpt lat="44.08878" lon="0.49224">
        <ele>147</ele>
        <time>2025-11-05T14:47:50.446Z</time>
      </trkpt>
      <trkpt lat="44.08879" lon="0.49223">
        <ele>147</ele>
        <time>2025-11-05T14:47:51.446Z</time>
      </trkpt>
      <trkpt lat="44.08879" lon="0.49223">
        <ele>147</ele>
        <time>2025-11-05T14:47:52.446Z</time>
      </trkpt>
      <trkpt lat="44.08879" lon="0.49224">
        <ele>148</ele>
        <time>2025-11-05T14:47:53.446Z</time>
      </trkpt>
      <trkpt lat="44.08879" lon="0.49224">
        <ele>148</ele>
        <time>2025-11-05T14:47:54.446Z</time>
      </trkpt>
      <trkpt lat="44.08879" lon="0.49224">
        <ele>148</ele>
        <time>2025-11-05T14:47:55.446Z</time>
      </trkpt>
      <trkpt lat="44.08879" lon="0.49224">
        <ele>148</ele>
        <time>2025-11-05T14:47:56.446Z</time>
      </trkpt>
      <trkpt lat="44.08879" lon="0.49224">
        <ele>148</ele>
        <time>2025-11-05T14:47:57.446Z</time>
      </trkpt>
      <trkpt lat="44.08879" lon="0.49224">
        <ele>148</ele>
        <time>2025-11-05T14:47:58.446Z</time>
      </trkpt>
      <trkpt lat="44.08879" lon="0.49224">
        <ele>148</ele>
        <time>2025-11-05T14:47:59.446Z</time>
      </trkpt>
      <trkpt lat="44.08879" lon="0.49224">
        <ele>148</ele>
        <time>2025-11-05T14:48:00.446Z</time>
      </trkpt>
      <trkpt lat="44.08879" lon="0.49224">
        <ele>148</ele>
        <time>2025-11-05T14:48:01.446Z</time>
      </trkpt>
      <trkpt lat="44.08879" lon="0.49224">
        <ele>149</ele>
        <time>2025-11-05T14:48:02.446Z</time>
      </trkpt>
      <trkpt lat="44.08879" lon="0.49224">
        <ele>149</ele>
        <time>2025-11-05T14:48:03.446Z</time>
      </trkpt>
      <trkpt lat="44.08879" lon="0.49224">
        <ele>149</ele>
        <time>2025-11-05T14:48:04.446Z</time>
      </trkpt>
      <trkpt lat="44.08879" lon="0.49224">
        <ele>149</ele>
        <time>2025-11-05T14:48:05.446Z</time>
      </trkpt>
      <trkpt lat="44.08879" lon="0.49224">
        <ele>149</ele>
        <time>2025-11-05T14:48:06.446Z</time>
      </trkpt>
      <trkpt lat="44.08879" lon="0.49224">
        <ele>150</ele>
        <time>2025-11-05T14:48:07.446Z</time>
      </trkpt>
      <trkpt lat="44.08879" lon="0.49224">
        <ele>150</ele>
        <time>2025-11-05T14:48:08.446Z</time>
      </trkpt>
      <trkpt lat="44.08879" lon="0.49224">
        <ele>149</ele>
        <time>2025-11-05T14:48:09.446Z</time>
      </trkpt>
      <trkpt lat="44.08879" lon="0.49224">
        <ele>149</ele>
        <time>2025-11-05T14:48:10.446Z</time>
      </trkpt>
      <trkpt lat="44.08879" lon="0.49224">
        <ele>149</ele>
        <time>2025-11-05T14:48:11.446Z</time>
      </trkpt>
      <trkpt lat="44.08879" lon="0.49225">
        <ele>149</ele>
        <time>2025-11-05T14:48:12.446Z</time>
      </trkpt>
      <trkpt lat="44.08879" lon="0.49225">
        <ele>149</ele>
        <time>2025-11-05T14:48:13.446Z</time>
      </trkpt>
      <trkpt lat="44.08879" lon="0.49225">
        <ele>148</ele>
        <time>2025-11-05T14:48:14.446Z</time>
      </trkpt>
      <trkpt lat="44.08879" lon="0.49225">
        <ele>148</ele>
        <time>2025-11-05T14:48:15.446Z</time>
      </trkpt>
      <trkpt lat="44.08879" lon="0.49225">
        <ele>148</ele>
        <time>2025-11-05T14:48:16.446Z</time>
      </trkpt>
      <trkpt lat="44.08879" lon="0.49225">
        <ele>148</ele>
        <time>2025-11-05T14:48:17.446Z</time>
      </trkpt>
      <trkpt lat="44.08879" lon="0.49225">
        <ele>147</ele>
        <time>2025-11-05T14:48:18.446Z</time>
      </trkpt>
      <trkpt lat="44.08879" lon="0.49225">
        <ele>147</ele>
        <time>2025-11-05T14:48:19.446Z</time>
      </trkpt>
      <trkpt lat="44.08879" lon="0.49225">
        <ele>147</ele>
        <time>2025-11-05T14:48:20.446Z</time>
      </trkpt>
      <trkpt lat="44.08879" lon="0.49225">
        <ele>147</ele>
        <time>2025-11-05T14:48:21.446Z</time>
      </trkpt>
      <trkpt lat="44.08879" lon="0.49225">
        <ele>147</ele>
        <time>2025-11-05T14:48:22.446Z</time>
      </trkpt>
      <trkpt lat="44.08879" lon="0.49225">
        <ele>147</ele>
        <time>2025-11-05T14:48:23.446Z</time>
      </trkpt>
      <trkpt lat="44.08879" lon="0.49225">
        <ele>147</ele>
        <time>2025-11-05T14:48:24.446Z</time>
      </trkpt>
      <trkpt lat="44.08879" lon="0.49225">
        <ele>146</ele>
        <time>2025-11-05T14:48:25.446Z</time>
      </trkpt>
      <trkpt lat="44.08879" lon="0.49225">
        <ele>146</ele>
        <time>2025-11-05T14:48:26.446Z</time>
      </trkpt>
      <trkpt lat="44.08879" lon="0.49225">
        <ele>146</ele>
        <time>2025-11-05T14:48:27.446Z</time>
      </trkpt>
      <trkpt lat="44.08879" lon="0.49225">
        <ele>146</ele>
        <time>2025-11-05T14:48:28.446Z</time>
      </trkpt>
      <trkpt lat="44.08879" lon="0.49225">
        <ele>146</ele>
        <time>2025-11-05T14:48:29.446Z</time>
      </trkpt>
      <trkpt lat="44.08879" lon="0.49225">
        <ele>146</ele>
        <time>2025-11-05T14:48:30.446Z</time>
      </trkpt>
      <trkpt lat="44.08879" lon="0.49225">
        <ele>146</ele>
        <time>2025-11-05T14:48:31.446Z</time>
      </trkpt>
      <trkpt lat="44.08879" lon="0.49225">
        <ele>146</ele>
        <time>2025-11-05T14:48:32.446Z</time>
      </trkpt>
      <trkpt lat="44.08879" lon="0.49225">
        <ele>147</ele>
        <time>2025-11-05T14:48:33.446Z</time>
      </trkpt>
      <trkpt lat="44.08879" lon="0.49225">
        <ele>147</ele>
        <time>2025-11-05T14:48:34.446Z</time>
      </trkpt>
      <trkpt lat="44.08879" lon="0.49225">
        <ele>147</ele>
        <time>2025-11-05T14:48:35.446Z</time>
      </trkpt>
      <trkpt lat="44.08879" lon="0.49225">
        <ele>147</ele>
        <time>2025-11-05T14:48:36.446Z</time>
      </trkpt>
      <trkpt lat="44.08879" lon="0.49225">
        <ele>147</ele>
        <time>2025-11-05T14:48:37.446Z</time>
      </trkpt>
      <trkpt lat="44.08879" lon="0.49225">
        <ele>147</ele>
        <time>2025-11-05T14:48:38.446Z</time>
      </trkpt>
      <trkpt lat="44.08879" lon="0.49225">
        <ele>147</ele>
        <time>2025-11-05T14:48:39.446Z</time>
      </trkpt>
      <trkpt lat="44.08879" lon="0.49225">
        <ele>147</ele>
        <time>2025-11-05T14:48:40.446Z</time>
      </trkpt>
      <trkpt lat="44.08879" lon="0.49225">
        <ele>147</ele>
        <time>2025-11-05T14:48:41.446Z</time>
      </trkpt>
      <trkpt lat="44.08879" lon="0.49225">
        <ele>148</ele>
        <time>2025-11-05T14:48:42.446Z</time>
      </trkpt>
      <trkpt lat="44.08879" lon="0.49226">
        <ele>148</ele>
        <time>2025-11-05T14:48:43.446Z</time>
      </trkpt>
      <trkpt lat="44.08879" lon="0.49226">
        <ele>148</ele>
        <time>2025-11-05T14:48:44.446Z</time>
      </trkpt>
      <trkpt lat="44.08879" lon="0.49226">
        <ele>148</ele>
        <time>2025-11-05T14:48:45.446Z</time>
      </trkpt>
      <trkpt lat="44.08879" lon="0.49226">
        <ele>148</ele>
        <time>2025-11-05T14:48:46.446Z</time>
      </trkpt>
      <trkpt lat="44.08879" lon="0.49226">
        <ele>148</ele>
        <time>2025-11-05T14:48:47.446Z</time>
      </trkpt>
      <trkpt lat="44.08879" lon="0.49226">
        <ele>148</ele>
        <time>2025-11-05T14:48:48.446Z</time>
      </trkpt>
      <trkpt lat="44.08879" lon="0.49226">
        <ele>148</ele>
        <time>2025-11-05T14:48:49.446Z</time>
      </trkpt>
      <trkpt lat="44.08879" lon="0.49226">
        <ele>148</ele>
        <time>2025-11-05T14:48:50.446Z</time>
      </trkpt>
      <trkpt lat="44.08879" lon="0.49226">
        <ele>147</ele>
        <time>2025-11-05T14:48:51.446Z</time>
      </trkpt>
      <trkpt lat="44.08879" lon="0.49226">
        <ele>147</ele>
        <time>2025-11-05T14:48:52.446Z</time>
      </trkpt>
      <trkpt lat="44.08879" lon="0.49226">
        <ele>147</ele>
        <time>2025-11-05T14:48:53.446Z</time>
      </trkpt>
      <trkpt lat="44.08879" lon="0.49226">
        <ele>147</ele>
        <time>2025-11-05T14:48:54.446Z</time>
      </trkpt>
      <trkpt lat="44.08879" lon="0.49226">
        <ele>147</ele>
        <time>2025-11-05T14:48:55.446Z</time>
      </trkpt>
      <trkpt lat="44.08879" lon="0.49226">
        <ele>148</ele>
        <time>2025-11-05T14:48:56.446Z</time>
      </trkpt>
      <trkpt lat="44.08879" lon="0.49226">
        <ele>148</ele>
        <time>2025-11-05T14:48:57.446Z</time>
      </trkpt>
      <trkpt lat="44.08879" lon="0.49226">
        <ele>148</ele>
        <time>2025-11-05T14:48:58.446Z</time>
      </trkpt>
      <trkpt lat="44.08879" lon="0.49225">
        <ele>148</ele>
        <time>2025-11-05T14:48:59.446Z</time>
      </trkpt>
      <trkpt lat="44.08879" lon="0.49225">
        <ele>148</ele>
        <time>2025-11-05T14:49:00.446Z</time>
      </trkpt>
      <trkpt lat="44.08879" lon="0.49225">
        <ele>149</ele>
        <time>2025-11-05T14:49:01.446Z</time>
      </trkpt>
      <trkpt lat="44.08879" lon="0.49225">
        <ele>149</ele>
        <time>2025-11-05T14:49:02.446Z</time>
      </trkpt>
      <trkpt lat="44.08879" lon="0.49225">
        <ele>149</ele>
        <time>2025-11-05T14:49:03.446Z</time>
      </trkpt>
      <trkpt lat="44.0888" lon="0.49225">
        <ele>149</ele>
        <time>2025-11-05T14:49:04.446Z</time>
      </trkpt>
      <trkpt lat="44.0888" lon="0.49225">
        <ele>149</ele>
        <time>2025-11-05T14:49:05.446Z</time>
      </trkpt>
      <trkpt lat="44.0888" lon="0.49225">
        <ele>150</ele>
        <time>2025-11-05T14:49:06.446Z</time>
      </trkpt>
      <trkpt lat="44.08879" lon="0.49226">
        <ele>150</ele>
        <time>2025-11-05T14:49:07.446Z</time>
      </trkpt>
      <trkpt lat="44.08879" lon="0.49226">
        <ele>150</ele>
        <time>2025-11-05T14:49:08.446Z</time>
      </trkpt>
      <trkpt lat="44.08879" lon="0.49226">
        <ele>150</ele>
        <time>2025-11-05T14:49:09.446Z</time>
      </trkpt>
      <trkpt lat="44.08879" lon="0.49226">
        <ele>150</ele>
        <time>2025-11-05T14:49:10.446Z</time>
      </trkpt>
      <trkpt lat="44.08879" lon="0.49226">
        <ele>149</ele>
        <time>2025-11-05T14:49:11.446Z</time>
      </trkpt>
      <trkpt lat="44.08879" lon="0.49226">
        <ele>149</ele>
        <time>2025-11-05T14:49:12.446Z</time>
      </trkpt>
      <trkpt lat="44.08879" lon="0.49226">
        <ele>150</ele>
        <time>2025-11-05T14:49:13.446Z</time>
      </trkpt>
      <trkpt lat="44.08879" lon="0.49225">
        <ele>150</ele>
        <time>2025-11-05T14:49:14.446Z</time>
      </trkpt>
      <trkpt lat="44.0888" lon="0.49225">
        <ele>151</ele>
        <time>2025-11-05T14:49:15.446Z</time>
      </trkpt>
      <trkpt lat="44.0888" lon="0.49225">
        <ele>151</ele>
        <time>2025-11-05T14:49:16.446Z</time>
      </trkpt>
      <trkpt lat="44.0888" lon="0.49225">
        <ele>152</ele>
        <time>2025-11-05T14:49:17.446Z</time>
      </trkpt>
      <trkpt lat="44.0888" lon="0.49225">
        <ele>152</ele>
        <time>2025-11-05T14:49:18.446Z</time>
      </trkpt>
      <trkpt lat="44.0888" lon="0.49225">
        <ele>152</ele>
        <time>2025-11-05T14:49:19.446Z</time>
      </trkpt>
      <trkpt lat="44.0888" lon="0.49225">
        <ele>153</ele>
        <time>2025-11-05T14:49:20.446Z</time>
      </trkpt>
      <trkpt lat="44.0888" lon="0.49225">
        <ele>153</ele>
        <time>2025-11-05T14:49:21.446Z</time>
      </trkpt>
      <trkpt lat="44.0888" lon="0.49225">
        <ele>154</ele>
        <time>2025-11-05T14:49:22.446Z</time>
      </trkpt>
      <trkpt lat="44.0888" lon="0.49225">
        <ele>154</ele>
        <time>2025-11-05T14:49:23.446Z</time>
      </trkpt>
      <trkpt lat="44.0888" lon="0.49224">
        <ele>155</ele>
        <time>2025-11-05T14:49:24.446Z</time>
      </trkpt>
      <trkpt lat="44.0888" lon="0.49224">
        <ele>155</ele>
        <time>2025-11-05T14:49:25.446Z</time>
      </trkpt>
      <trkpt lat="44.0888" lon="0.49224">
        <ele>155</ele>
        <time>2025-11-05T14:49:26.446Z</time>
      </trkpt>
      <trkpt lat="44.08879" lon="0.49225">
        <ele>154</ele>
        <time>2025-11-05T14:49:27.446Z</time>
      </trkpt>
      <trkpt lat="44.08879" lon="0.49225">
        <ele>154</ele>
        <time>2025-11-05T14:49:28.446Z</time>
      </trkpt>
      <trkpt lat="44.08879" lon="0.49225">
        <ele>154</ele>
        <time>2025-11-05T14:49:29.446Z</time>
      </trkpt>
      <trkpt lat="44.08879" lon="0.49226">
        <ele>154</ele>
        <time>2025-11-05T14:49:30.446Z</time>
      </trkpt>
      <trkpt lat="44.08879" lon="0.49226">
        <ele>153</ele>
        <time>2025-11-05T14:49:31.446Z</time>
      </trkpt>
      <trkpt lat="44.08879" lon="0.49226">
        <ele>153</ele>
        <time>2025-11-05T14:49:32.446Z</time>
      </trkpt>
      <trkpt lat="44.08879" lon="0.49226">
        <ele>153</ele>
        <time>2025-11-05T14:49:33.446Z</time>
      </trkpt>
      <trkpt lat="44.08879" lon="0.49226">
        <ele>153</ele>
        <time>2025-11-05T14:49:34.446Z</time>
      </trkpt>
      <trkpt lat="44.08879" lon="0.49227">
        <ele>153</ele>
        <time>2025-11-05T14:49:35.446Z</time>
      </trkpt>
      <trkpt lat="44.08879" lon="0.49227">
        <ele>153</ele>
        <time>2025-11-05T14:49:36.446Z</time>
      </trkpt>
      <trkpt lat="44.08879" lon="0.49226">
        <ele>153</ele>
        <time>2025-11-05T14:49:37.446Z</time>
      </trkpt>
      <trkpt lat="44.08879" lon="0.49226">
        <ele>153</ele>
        <time>2025-11-05T14:49:38.446Z</time>
      </trkpt>
      <trkpt lat="44.08879" lon="0.49226">
        <ele>153</ele>
        <time>2025-11-05T14:49:39.446Z</time>
      </trkpt>
      <trkpt lat="44.08879" lon="0.49226">
        <ele>153</ele>
        <time>2025-11-05T14:49:40.446Z</time>
      </trkpt>
      <trkpt lat="44.08879" lon="0.49226">
        <ele>153</ele>
        <time>2025-11-05T14:49:41.446Z</time>
      </trkpt>
      <trkpt lat="44.08879" lon="0.49226">
        <ele>152</ele>
        <time>2025-11-05T14:49:42.446Z</time>
      </trkpt>
      <trkpt lat="44.08879" lon="0.49226">
        <ele>152</ele>
        <time>2025-11-05T14:49:43.446Z</time>
      </trkpt>
      <trkpt lat="44.08879" lon="0.49226">
        <ele>152</ele>
        <time>2025-11-05T14:49:44.446Z</time>
      </trkpt>
      <trkpt lat="44.08879" lon="0.49226">
        <ele>151</ele>
        <time>2025-11-05T14:49:45.446Z</time>
      </trkpt>
      <trkpt lat="44.08879" lon="0.49226">
        <ele>151</ele>
        <time>2025-11-05T14:49:46.446Z</time>
      </trkpt>
      <trkpt lat="44.08879" lon="0.49226">
        <ele>151</ele>
        <time>2025-11-05T14:49:47.446Z</time>
      </trkpt>
      <trkpt lat="44.08879" lon="0.49226">
        <ele>150</ele>
        <time>2025-11-05T14:49:48.446Z</time>
      </trkpt>
      <trkpt lat="44.08879" lon="0.49226">
        <ele>149</ele>
        <time>2025-11-05T14:49:49.446Z</time>
      </trkpt>
      <trkpt lat="44.08879" lon="0.49226">
        <ele>149</ele>
        <time>2025-11-05T14:49:50.446Z</time>
      </trkpt>
      <trkpt lat="44.08879" lon="0.49227">
        <ele>149</ele>
        <time>2025-11-05T14:49:51.446Z</time>
      </trkpt>
      <trkpt lat="44.08879" lon="0.49228">
        <ele>149</ele>
        <time>2025-11-05T14:49:52.446Z</time>
      </trkpt>
      <trkpt lat="44.08879" lon="0.49229">
        <ele>149</ele>
        <time>2025-11-05T14:49:53.446Z</time>
      </trkpt>
      <trkpt lat="44.08879" lon="0.4923">
        <ele>149</ele>
        <time>2025-11-05T14:49:54.446Z</time>
      </trkpt>
      <trkpt lat="44.08878" lon="0.49232">
        <ele>149</ele>
        <time>2025-11-05T14:49:55.446Z</time>
      </trkpt>
      <trkpt lat="44.08878" lon="0.49233">
        <ele>149</ele>
        <time>2025-11-05T14:49:56.447Z</time>
      </trkpt>
      <trkpt lat="44.08877" lon="0.49234">
        <ele>149</ele>
        <time>2025-11-05T14:49:57.446Z</time>
      </trkpt>
      <trkpt lat="44.08877" lon="0.49235">
        <ele>149</ele>
        <time>2025-11-05T14:49:58.446Z</time>
      </trkpt>
      <trkpt lat="44.08877" lon="0.49237">
        <ele>149</ele>
        <time>2025-11-05T14:49:59.446Z</time>
      </trkpt>
      <trkpt lat="44.08876" lon="0.49238">
        <ele>149</ele>
        <time>2025-11-05T14:50:00.446Z</time>
      </trkpt>
      <trkpt lat="44.08876" lon="0.4924">
        <ele>149</ele>
        <time>2025-11-05T14:50:01.446Z</time>
      </trkpt>
      <trkpt lat="44.08876" lon="0.49241">
        <ele>149</ele>
        <time>2025-11-05T14:50:02.446Z</time>
      </trkpt>
      <trkpt lat="44.08875" lon="0.49243">
        <ele>149</ele>
        <time>2025-11-05T14:50:03.446Z</time>
      </trkpt>
      <trkpt lat="44.08875" lon="0.49245">
        <ele>149</ele>
        <time>2025-11-05T14:50:04.446Z</time>
      </trkpt>
      <trkpt lat="44.08874" lon="0.49246">
        <ele>149</ele>
        <time>2025-11-05T14:50:05.446Z</time>
      </trkpt>
      <trkpt lat="44.08873" lon="0.49248">
        <ele>149</ele>
        <time>2025-11-05T14:50:06.446Z</time>
      </trkpt>
      <trkpt lat="44.08873" lon="0.49249">
        <ele>149</ele>
        <time>2025-11-05T14:50:07.446Z</time>
      </trkpt>
      <trkpt lat="44.08872" lon="0.4925">
        <ele>149</ele>
        <time>2025-11-05T14:50:08.446Z</time>
      </trkpt>
      <trkpt lat="44.08872" lon="0.49252">
        <ele>149</ele>
        <time>2025-11-05T14:50:09.446Z</time>
      </trkpt>
      <trkpt lat="44.08871" lon="0.49253">
        <ele>149</ele>
        <time>2025-11-05T14:50:10.446Z</time>
      </trkpt>
      <trkpt lat="44.08871" lon="0.49254">
        <ele>149</ele>
        <time>2025-11-05T14:50:11.446Z</time>
      </trkpt>
      <trkpt lat="44.08871" lon="0.49256">
        <ele>149</ele>
        <time>2025-11-05T14:50:12.446Z</time>
      </trkpt>
      <trkpt lat="44.08871" lon="0.49257">
        <ele>149</ele>
        <time>2025-11-05T14:50:13.446Z</time>
      </trkpt>
      <trkpt lat="44.0887" lon="0.49258">
        <ele>150</ele>
        <time>2025-11-05T14:50:14.446Z</time>
      </trkpt>
      <trkpt lat="44.0887" lon="0.49259">
        <ele>150</ele>
        <time>2025-11-05T14:50:15.446Z</time>
      </trkpt>
      <trkpt lat="44.0887" lon="0.4926">
        <ele>150</ele>
        <time>2025-11-05T14:50:16.447Z</time>
      </trkpt>
      <trkpt lat="44.08869" lon="0.49262">
        <ele>150</ele>
        <time>2025-11-05T14:50:17.446Z</time>
      </trkpt>
      <trkpt lat="44.08869" lon="0.49264">
        <ele>150</ele>
        <time>2025-11-05T14:50:18.446Z</time>
      </trkpt>
      <trkpt lat="44.08868" lon="0.49265">
        <ele>150</ele>
        <time>2025-11-05T14:50:19.446Z</time>
      </trkpt>
      <trkpt lat="44.08867" lon="0.49267">
        <ele>150</ele>
        <time>2025-11-05T14:50:20.446Z</time>
      </trkpt>
      <trkpt lat="44.08867" lon="0.49268">
        <ele>150</ele>
        <time>2025-11-05T14:50:21.446Z</time>
      </trkpt>
      <trkpt lat="44.08866" lon="0.4927">
        <ele>151</ele>
        <time>2025-11-05T14:50:22.446Z</time>
      </trkpt>
      <trkpt lat="44.08866" lon="0.49271">
        <ele>151</ele>
        <time>2025-11-05T14:50:23.446Z</time>
      </trkpt>
      <trkpt lat="44.08865" lon="0.49273">
        <ele>151</ele>
        <time>2025-11-05T14:50:24.446Z</time>
      </trkpt>
      <trkpt lat="44.08865" lon="0.49274">
        <ele>151</ele>
        <time>2025-11-05T14:50:25.446Z</time>
      </trkpt>
      <trkpt lat="44.08865" lon="0.49276">
        <ele>151</ele>
        <time>2025-11-05T14:50:26.446Z</time>
      </trkpt>
      <trkpt lat="44.08865" lon="0.49277">
        <ele>151</ele>
        <time>2025-11-05T14:50:27.446Z</time>
      </trkpt>
      <trkpt lat="44.08864" lon="0.49279">
        <ele>151</ele>
        <time>2025-11-05T14:50:28.446Z</time>
      </trkpt>
      <trkpt lat="44.08863" lon="0.49281">
        <ele>151</ele>
        <time>2025-11-05T14:50:29.446Z</time>
      </trkpt>
      <trkpt lat="44.08863" lon="0.49282">
        <ele>152</ele>
        <time>2025-11-05T14:50:30.446Z</time>
      </trkpt>
      <trkpt lat="44.08863" lon="0.49284">
        <ele>152</ele>
        <time>2025-11-05T14:50:31.446Z</time>
      </trkpt>
      <trkpt lat="44.08862" lon="0.49285">
        <ele>152</ele>
        <time>2025-11-05T14:50:32.446Z</time>
      </trkpt>
      <trkpt lat="44.08862" lon="0.49286">
        <ele>152</ele>
        <time>2025-11-05T14:50:33.446Z</time>
      </trkpt>
      <trkpt lat="44.08862" lon="0.49288">
        <ele>152</ele>
        <time>2025-11-05T14:50:34.446Z</time>
      </trkpt>
      <trkpt lat="44.08862" lon="0.4929">
        <ele>152</ele>
        <time>2025-11-05T14:50:35.446Z</time>
      </trkpt>
      <trkpt lat="44.08861" lon="0.49291">
        <ele>153</ele>
        <time>2025-11-05T14:50:36.446Z</time>
      </trkpt>
      <trkpt lat="44.08861" lon="0.49293">
        <ele>153</ele>
        <time>2025-11-05T14:50:37.446Z</time>
      </trkpt>
      <trkpt lat="44.08861" lon="0.49294">
        <ele>153</ele>
        <time>2025-11-05T14:50:38.446Z</time>
      </trkpt>
      <trkpt lat="44.0886" lon="0.49295">
        <ele>153</ele>
        <time>2025-11-05T14:50:39.446Z</time>
      </trkpt>
      <trkpt lat="44.0886" lon="0.49297">
        <ele>153</ele>
        <time>2025-11-05T14:50:40.446Z</time>
      </trkpt>
      <trkpt lat="44.08859" lon="0.49298">
        <ele>153</ele>
        <time>2025-11-05T14:50:41.446Z</time>
      </trkpt>
      <trkpt lat="44.08859" lon="0.493">
        <ele>153</ele>
        <time>2025-11-05T14:50:42.446Z</time>
      </trkpt>
      <trkpt lat="44.08858" lon="0.49301">
        <ele>153</ele>
        <time>2025-11-05T14:50:43.446Z</time>
      </trkpt>
      <trkpt lat="44.08858" lon="0.49303">
        <ele>153</ele>
        <time>2025-11-05T14:50:44.446Z</time>
      </trkpt>
      <trkpt lat="44.08857" lon="0.49305">
        <ele>153</ele>
        <time>2025-11-05T14:50:45.446Z</time>
      </trkpt>
      <trkpt lat="44.08857" lon="0.49306">
        <ele>154</ele>
        <time>2025-11-05T14:50:46.446Z</time>
      </trkpt>
      <trkpt lat="44.08857" lon="0.49308">
        <ele>154</ele>
        <time>2025-11-05T14:50:47.446Z</time>
      </trkpt>
      <trkpt lat="44.08856" lon="0.49309">
        <ele>154</ele>
        <time>2025-11-05T14:50:48.446Z</time>
      </trkpt>
      <trkpt lat="44.08856" lon="0.49311">
        <ele>154</ele>
        <time>2025-11-05T14:50:49.446Z</time>
      </trkpt>
      <trkpt lat="44.08856" lon="0.49312">
        <ele>154</ele>
        <time>2025-11-05T14:50:50.446Z</time>
      </trkpt>
      <trkpt lat="44.08856" lon="0.49313">
        <ele>154</ele>
        <time>2025-11-05T14:50:51.446Z</time>
      </trkpt>
      <trkpt lat="44.08855" lon="0.49315">
        <ele>155</ele>
        <time>2025-11-05T14:50:52.446Z</time>
      </trkpt>
      <trkpt lat="44.08854" lon="0.49317">
        <ele>155</ele>
        <time>2025-11-05T14:50:53.446Z</time>
      </trkpt>
      <trkpt lat="44.08854" lon="0.49318">
        <ele>155</ele>
        <time>2025-11-05T14:50:54.446Z</time>
      </trkpt>
      <trkpt lat="44.08854" lon="0.4932">
        <ele>155</ele>
        <time>2025-11-05T14:50:55.446Z</time>
      </trkpt>
      <trkpt lat="44.08853" lon="0.49321">
        <ele>155</ele>
        <time>2025-11-05T14:50:56.446Z</time>
      </trkpt>
      <trkpt lat="44.08853" lon="0.49323">
        <ele>156</ele>
        <time>2025-11-05T14:50:57.446Z</time>
      </trkpt>
      <trkpt lat="44.08853" lon="0.49325">
        <ele>156</ele>
        <time>2025-11-05T14:50:58.446Z</time>
      </trkpt>
      <trkpt lat="44.08852" lon="0.49326">
        <ele>156</ele>
        <time>2025-11-05T14:50:59.446Z</time>
      </trkpt>
      <trkpt lat="44.08852" lon="0.49328">
        <ele>155</ele>
        <time>2025-11-05T14:51:00.446Z</time>
      </trkpt>
      <trkpt lat="44.08851" lon="0.49329">
        <ele>155</ele>
        <time>2025-11-05T14:51:01.446Z</time>
      </trkpt>
      <trkpt lat="44.08851" lon="0.49331">
        <ele>156</ele>
        <time>2025-11-05T14:51:02.446Z</time>
      </trkpt>
      <trkpt lat="44.08851" lon="0.49332">
        <ele>156</ele>
        <time>2025-11-05T14:51:03.446Z</time>
      </trkpt>
      <trkpt lat="44.08851" lon="0.49333">
        <ele>156</ele>
        <time>2025-11-05T14:51:04.446Z</time>
      </trkpt>
      <trkpt lat="44.0885" lon="0.49335">
        <ele>156</ele>
        <time>2025-11-05T14:51:05.446Z</time>
      </trkpt>
      <trkpt lat="44.0885" lon="0.49336">
        <ele>156</ele>
        <time>2025-11-05T14:51:06.446Z</time>
      </trkpt>
      <trkpt lat="44.0885" lon="0.49338">
        <ele>157</ele>
        <time>2025-11-05T14:51:07.446Z</time>
      </trkpt>
      <trkpt lat="44.08849" lon="0.4934">
        <ele>157</ele>
        <time>2025-11-05T14:51:08.446Z</time>
      </trkpt>
      <trkpt lat="44.08849" lon="0.49341">
        <ele>157</ele>
        <time>2025-11-05T14:51:09.447Z</time>
      </trkpt>
      <trkpt lat="44.08848" lon="0.49343">
        <ele>157</ele>
        <time>2025-11-05T14:51:10.446Z</time>
      </trkpt>
      <trkpt lat="44.08848" lon="0.49344">
        <ele>157</ele>
        <time>2025-11-05T14:51:11.446Z</time>
      </trkpt>
      <trkpt lat="44.08848" lon="0.49345">
        <ele>158</ele>
        <time>2025-11-05T14:51:12.446Z</time>
      </trkpt>
      <trkpt lat="44.08848" lon="0.49347">
        <ele>158</ele>
        <time>2025-11-05T14:51:13.446Z</time>
      </trkpt>
      <trkpt lat="44.08847" lon="0.49349">
        <ele>158</ele>
        <time>2025-11-05T14:51:14.446Z</time>
      </trkpt>
      <trkpt lat="44.08847" lon="0.4935">
        <ele>158</ele>
        <time>2025-11-05T14:51:15.446Z</time>
      </trkpt>
      <trkpt lat="44.08846" lon="0.49352">
        <ele>158</ele>
        <time>2025-11-05T14:51:16.446Z</time>
      </trkpt>
      <trkpt lat="44.08846" lon="0.49353">
        <ele>158</ele>
        <time>2025-11-05T14:51:17.446Z</time>
      </trkpt>
      <trkpt lat="44.08846" lon="0.49355">
        <ele>158</ele>
        <time>2025-11-05T14:51:18.446Z</time>
      </trkpt>
      <trkpt lat="44.08845" lon="0.49356">
        <ele>158</ele>
        <time>2025-11-05T14:51:19.446Z</time>
      </trkpt>
      <trkpt lat="44.08845" lon="0.49358">
        <ele>158</ele>
        <time>2025-11-05T14:51:20.446Z</time>
      </trkpt>
      <trkpt lat="44.08845" lon="0.49359">
        <ele>158</ele>
        <time>2025-11-05T14:51:21.446Z</time>
      </trkpt>
      <trkpt lat="44.08844" lon="0.4936">
        <ele>158</ele>
        <time>2025-11-05T14:51:22.446Z</time>
      </trkpt>
      <trkpt lat="44.08844" lon="0.49362">
        <ele>158</ele>
        <time>2025-11-05T14:51:23.446Z</time>
      </trkpt>
      <trkpt lat="44.08844" lon="0.49363">
        <ele>158</ele>
        <time>2025-11-05T14:51:24.446Z</time>
      </trkpt>
      <trkpt lat="44.08843" lon="0.49364">
        <ele>158</ele>
        <time>2025-11-05T14:51:25.446Z</time>
      </trkpt>
      <trkpt lat="44.08843" lon="0.49366">
        <ele>158</ele>
        <time>2025-11-05T14:51:26.446Z</time>
      </trkpt>
      <trkpt lat="44.08843" lon="0.49367">
        <ele>158</ele>
        <time>2025-11-05T14:51:27.446Z</time>
      </trkpt>
      <trkpt lat="44.08842" lon="0.49369">
        <ele>158</ele>
        <time>2025-11-05T14:51:28.446Z</time>
      </trkpt>
      <trkpt lat="44.08842" lon="0.4937">
        <ele>158</ele>
        <time>2025-11-05T14:51:29.446Z</time>
      </trkpt>
      <trkpt lat="44.08842" lon="0.49371">
        <ele>158</ele>
        <time>2025-11-05T14:51:30.446Z</time>
      </trkpt>
      <trkpt lat="44.08841" lon="0.49373">
        <ele>159</ele>
        <time>2025-11-05T14:51:31.446Z</time>
      </trkpt>
      <trkpt lat="44.08841" lon="0.49374">
        <ele>159</ele>
        <time>2025-11-05T14:51:32.446Z</time>
      </trkpt>
      <trkpt lat="44.08841" lon="0.49375">
        <ele>159</ele>
        <time>2025-11-05T14:51:33.446Z</time>
      </trkpt>
      <trkpt lat="44.0884" lon="0.49377">
        <ele>160</ele>
        <time>2025-11-05T14:51:34.446Z</time>
      </trkpt>
      <trkpt lat="44.0884" lon="0.49379">
        <ele>160</ele>
        <time>2025-11-05T14:51:35.446Z</time>
      </trkpt>
      <trkpt lat="44.08839" lon="0.4938">
        <ele>160</ele>
        <time>2025-11-05T14:51:36.446Z</time>
      </trkpt>
      <trkpt lat="44.08839" lon="0.49382">
        <ele>161</ele>
        <time>2025-11-05T14:51:37.446Z</time>
      </trkpt>
      <trkpt lat="44.08838" lon="0.49383">
        <ele>161</ele>
        <time>2025-11-05T14:51:38.446Z</time>
      </trkpt>
      <trkpt lat="44.08838" lon="0.49385">
        <ele>161</ele>
        <time>2025-11-05T14:51:39.446Z</time>
      </trkpt>
      <trkpt lat="44.08837" lon="0.49386">
        <ele>161</ele>
        <time>2025-11-05T14:51:40.446Z</time>
      </trkpt>
      <trkpt lat="44.08837" lon="0.49387">
        <ele>161</ele>
        <time>2025-11-05T14:51:41.446Z</time>
      </trkpt>
      <trkpt lat="44.08837" lon="0.49389">
        <ele>161</ele>
        <time>2025-11-05T14:51:42.446Z</time>
      </trkpt>
      <trkpt lat="44.08836" lon="0.4939">
        <ele>161</ele>
        <time>2025-11-05T14:51:43.446Z</time>
      </trkpt>
      <trkpt lat="44.08836" lon="0.49392">
        <ele>162</ele>
        <time>2025-11-05T14:51:44.446Z</time>
      </trkpt>
      <trkpt lat="44.08836" lon="0.49393">
        <ele>162</ele>
        <time>2025-11-05T14:51:45.446Z</time>
      </trkpt>
      <trkpt lat="44.08836" lon="0.49395">
        <ele>162</ele>
        <time>2025-11-05T14:51:46.446Z</time>
      </trkpt>
      <trkpt lat="44.08835" lon="0.49397">
        <ele>162</ele>
        <time>2025-11-05T14:51:47.446Z</time>
      </trkpt>
      <trkpt lat="44.08835" lon="0.49398">
        <ele>163</ele>
        <time>2025-11-05T14:51:48.446Z</time>
      </trkpt>
      <trkpt lat="44.08834" lon="0.494">
        <ele>163</ele>
        <time>2025-11-05T14:51:49.446Z</time>
      </trkpt>
      <trkpt lat="44.08834" lon="0.49401">
        <ele>163</ele>
        <time>2025-11-05T14:51:50.446Z</time>
      </trkpt>
      <trkpt lat="44.08834" lon="0.49403">
        <ele>163</ele>
        <time>2025-11-05T14:51:51.446Z</time>
      </trkpt>
      <trkpt lat="44.08834" lon="0.49404">
        <ele>163</ele>
        <time>2025-11-05T14:51:52.446Z</time>
      </trkpt>
      <trkpt lat="44.08833" lon="0.49406">
        <ele>164</ele>
        <time>2025-11-05T14:51:53.446Z</time>
      </trkpt>
      <trkpt lat="44.08833" lon="0.49407">
        <ele>164</ele>
        <time>2025-11-05T14:51:54.446Z</time>
      </trkpt>
      <trkpt lat="44.08833" lon="0.49409">
        <ele>164</ele>
        <time>2025-11-05T14:51:55.446Z</time>
      </trkpt>
      <trkpt lat="44.08832" lon="0.49411">
        <ele>165</ele>
        <time>2025-11-05T14:51:56.446Z</time>
      </trkpt>
      <trkpt lat="44.08832" lon="0.49412">
        <ele>165</ele>
        <time>2025-11-05T14:51:57.446Z</time>
      </trkpt>
      <trkpt lat="44.08832" lon="0.49414">
        <ele>165</ele>
        <time>2025-11-05T14:51:58.446Z</time>
      </trkpt>
      <trkpt lat="44.08832" lon="0.49415">
        <ele>165</ele>
        <time>2025-11-05T14:51:59.446Z</time>
      </trkpt>
      <trkpt lat="44.08832" lon="0.49416">
        <ele>165</ele>
        <time>2025-11-05T14:52:00.446Z</time>
      </trkpt>
      <trkpt lat="44.08832" lon="0.49417">
        <ele>166</ele>
        <time>2025-11-05T14:52:01.446Z</time>
      </trkpt>
      <trkpt lat="44.08832" lon="0.49419">
        <ele>166</ele>
        <time>2025-11-05T14:52:02.446Z</time>
      </trkpt>
      <trkpt lat="44.08832" lon="0.4942">
        <ele>166</ele>
        <time>2025-11-05T14:52:03.446Z</time>
      </trkpt>
      <trkpt lat="44.08832" lon="0.49421">
        <ele>166</ele>
        <time>2025-11-05T14:52:04.446Z</time>
      </trkpt>
      <trkpt lat="44.08833" lon="0.49423">
        <ele>166</ele>
        <time>2025-11-05T14:52:05.446Z</time>
      </trkpt>
      <trkpt lat="44.08833" lon="0.49424">
        <ele>166</ele>
        <time>2025-11-05T14:52:06.446Z</time>
      </trkpt>
      <trkpt lat="44.08834" lon="0.49425">
        <ele>165</ele>
        <time>2025-11-05T14:52:07.446Z</time>
      </trkpt>
      <trkpt lat="44.08835" lon="0.49426">
        <ele>166</ele>
        <time>2025-11-05T14:52:08.446Z</time>
      </trkpt>
      <trkpt lat="44.08836" lon="0.49426">
        <ele>166</ele>
        <time>2025-11-05T14:52:09.446Z</time>
      </trkpt>
      <trkpt lat="44.08837" lon="0.49427">
        <ele>166</ele>
        <time>2025-11-05T14:52:10.446Z</time>
      </trkpt>
      <trkpt lat="44.08838" lon="0.49427">
        <ele>166</ele>
        <time>2025-11-05T14:52:11.446Z</time>
      </trkpt>
      <trkpt lat="44.08839" lon="0.49427">
        <ele>165</ele>
        <time>2025-11-05T14:52:12.446Z</time>
      </trkpt>
      <trkpt lat="44.0884" lon="0.49428">
        <ele>165</ele>
        <time>2025-11-05T14:52:13.446Z</time>
      </trkpt>
      <trkpt lat="44.08841" lon="0.49428">
        <ele>165</ele>
        <time>2025-11-05T14:52:14.446Z</time>
      </trkpt>
      <trkpt lat="44.08842" lon="0.49428">
        <ele>165</ele>
        <time>2025-11-05T14:52:15.446Z</time>
      </trkpt>
      <trkpt lat="44.08842" lon="0.49428">
        <ele>164</ele>
        <time>2025-11-05T14:52:16.446Z</time>
      </trkpt>
      <trkpt lat="44.08842" lon="0.49429">
        <ele>164</ele>
        <time>2025-11-05T14:52:17.446Z</time>
      </trkpt>
      <trkpt lat="44.08842" lon="0.49429">
        <ele>163</ele>
        <time>2025-11-05T14:52:18.446Z</time>
      </trkpt>
      <trkpt lat="44.08843" lon="0.4943">
        <ele>163</ele>
        <time>2025-11-05T14:52:19.446Z</time>
      </trkpt>
      <trkpt lat="44.08843" lon="0.4943">
        <ele>163</ele>
        <time>2025-11-05T14:52:20.446Z</time>
      </trkpt>
      <trkpt lat="44.08843" lon="0.4943">
        <ele>163</ele>
        <time>2025-11-05T14:52:21.446Z</time>
      </trkpt>
      <trkpt lat="44.08843" lon="0.4943">
        <ele>163</ele>
        <time>2025-11-05T14:52:22.446Z</time>
      </trkpt>
      <trkpt lat="44.08843" lon="0.4943">
        <ele>163</ele>
        <time>2025-11-05T14:52:23.446Z</time>
      </trkpt>
      <trkpt lat="44.08843" lon="0.4943">
        <ele>163</ele>
        <time>2025-11-05T14:52:24.446Z</time>
      </trkpt>
      <trkpt lat="44.08843" lon="0.4943">
        <ele>163</ele>
        <time>2025-11-05T14:52:25.446Z</time>
      </trkpt>
      <trkpt lat="44.08843" lon="0.4943">
        <ele>163</ele>
        <time>2025-11-05T14:52:26.446Z</time>
      </trkpt>
      <trkpt lat="44.08843" lon="0.4943">
        <ele>163</ele>
        <time>2025-11-05T14:52:27.446Z</time>
      </trkpt>
      <trkpt lat="44.08843" lon="0.4943">
        <ele>162</ele>
        <time>2025-11-05T14:52:28.446Z</time>
      </trkpt>
      <trkpt lat="44.08843" lon="0.4943">
        <ele>162</ele>
        <time>2025-11-05T14:52:29.446Z</time>
      </trkpt>
      <trkpt lat="44.08843" lon="0.4943">
        <ele>162</ele>
        <time>2025-11-05T14:52:30.446Z</time>
      </trkpt>
      <trkpt lat="44.08843" lon="0.4943">
        <ele>163</ele>
        <time>2025-11-05T14:52:31.446Z</time>
      </trkpt>
      <trkpt lat="44.08843" lon="0.4943">
        <ele>163</ele>
        <time>2025-11-05T14:52:32.446Z</time>
      </trkpt>
      <trkpt lat="44.08843" lon="0.4943">
        <ele>163</ele>
        <time>2025-11-05T14:52:33.446Z</time>
      </trkpt>
      <trkpt lat="44.08843" lon="0.4943">
        <ele>163</ele>
        <time>2025-11-05T14:52:34.446Z</time>
      </trkpt>
      <trkpt lat="44.08843" lon="0.4943">
        <ele>163</ele>
        <time>2025-11-05T14:52:35.446Z</time>
      </trkpt>
      <trkpt lat="44.08843" lon="0.4943">
        <ele>163</ele>
        <time>2025-11-05T14:52:36.446Z</time>
      </trkpt>
      <trkpt lat="44.08843" lon="0.4943">
        <ele>163</ele>
        <time>2025-11-05T14:52:37.446Z</time>
      </trkpt>
      <trkpt lat="44.08843" lon="0.4943">
        <ele>162</ele>
        <time>2025-11-05T14:52:38.446Z</time>
      </trkpt>
      <trkpt lat="44.08843" lon="0.4943">
        <ele>162</ele>
        <time>2025-11-05T14:52:39.446Z</time>
      </trkpt>
      <trkpt lat="44.08843" lon="0.4943">
        <ele>162</ele>
        <time>2025-11-05T14:52:40.446Z</time>
      </trkpt>
      <trkpt lat="44.08843" lon="0.4943">
        <ele>162</ele>
        <time>2025-11-05T14:52:41.446Z</time>
      </trkpt>
      <trkpt lat="44.08843" lon="0.4943">
        <ele>162</ele>
        <time>2025-11-05T14:52:42.446Z</time>
      </trkpt>
      <trkpt lat="44.08843" lon="0.4943">
        <ele>162</ele>
        <time>2025-11-05T14:52:43.446Z</time>
      </trkpt>
      <trkpt lat="44.08843" lon="0.4943">
        <ele>162</ele>
        <time>2025-11-05T14:52:44.446Z</time>
      </trkpt>
      <trkpt lat="44.08843" lon="0.4943">
        <ele>162</ele>
        <time>2025-11-05T14:52:45.446Z</time>
      </trkpt>
      <trkpt lat="44.08843" lon="0.4943">
        <ele>163</ele>
        <time>2025-11-05T14:52:46.446Z</time>
      </trkpt>
      <trkpt lat="44.08843" lon="0.4943">
        <ele>163</ele>
        <time>2025-11-05T14:52:47.446Z</time>
      </trkpt>
      <trkpt lat="44.08843" lon="0.4943">
        <ele>163</ele>
        <time>2025-11-05T14:52:48.446Z</time>
      </trkpt>
      <trkpt lat="44.08843" lon="0.4943">
        <ele>163</ele>
        <time>2025-11-05T14:52:49.446Z</time>
      </trkpt>
      <trkpt lat="44.08843" lon="0.4943">
        <ele>163</ele>
        <time>2025-11-05T14:52:50.446Z</time>
      </trkpt>
      <trkpt lat="44.08843" lon="0.4943">
        <ele>163</ele>
        <time>2025-11-05T14:52:51.446Z</time>
      </trkpt>
      <trkpt lat="44.08843" lon="0.4943">
        <ele>163</ele>
        <time>2025-11-05T14:52:52.446Z</time>
      </trkpt>
      <trkpt lat="44.08843" lon="0.4943">
        <ele>164</ele>
        <time>2025-11-05T14:52:53.446Z</time>
      </trkpt>
      <trkpt lat="44.08843" lon="0.49431">
        <ele>164</ele>
        <time>2025-11-05T14:52:54.446Z</time>
      </trkpt>
      <trkpt lat="44.08842" lon="0.49431">
        <ele>164</ele>
        <time>2025-11-05T14:52:55.446Z</time>
      </trkpt>
      <trkpt lat="44.08842" lon="0.49431">
        <ele>164</ele>
        <time>2025-11-05T14:52:56.447Z</time>
      </trkpt>
      <trkpt lat="44.08842" lon="0.49431">
        <ele>164</ele>
        <time>2025-11-05T14:52:57.446Z</time>
      </trkpt>
      <trkpt lat="44.08842" lon="0.4943">
        <ele>164</ele>
        <time>2025-11-05T14:52:58.446Z</time>
      </trkpt>
      <trkpt lat="44.08843" lon="0.4943">
        <ele>164</ele>
        <time>2025-11-05T14:52:59.446Z</time>
      </trkpt>
      <trkpt lat="44.08843" lon="0.49429">
        <ele>164</ele>
        <time>2025-11-05T14:53:00.446Z</time>
      </trkpt>
      <trkpt lat="44.08844" lon="0.49429">
        <ele>164</ele>
        <time>2025-11-05T14:53:01.446Z</time>
      </trkpt>
      <trkpt lat="44.08845" lon="0.49429">
        <ele>164</ele>
        <time>2025-11-05T14:53:02.446Z</time>
      </trkpt>
      <trkpt lat="44.08846" lon="0.49429">
        <ele>164</ele>
        <time>2025-11-05T14:53:03.446Z</time>
      </trkpt>
      <trkpt lat="44.08847" lon="0.49428">
        <ele>164</ele>
        <time>2025-11-05T14:53:04.446Z</time>
      </trkpt>
      <trkpt lat="44.08848" lon="0.49428">
        <ele>164</ele>
        <time>2025-11-05T14:53:05.446Z</time>
      </trkpt>
      <trkpt lat="44.0885" lon="0.49427">
        <ele>164</ele>
        <time>2025-11-05T14:53:06.446Z</time>
      </trkpt>
      <trkpt lat="44.08851" lon="0.49427">
        <ele>164</ele>
        <time>2025-11-05T14:53:07.446Z</time>
      </trkpt>
      <trkpt lat="44.08852" lon="0.49427">
        <ele>164</ele>
        <time>2025-11-05T14:53:08.446Z</time>
      </trkpt>
      <trkpt lat="44.08853" lon="0.49427">
        <ele>164</ele>
        <time>2025-11-05T14:53:09.446Z</time>
      </trkpt>
      <trkpt lat="44.08854" lon="0.49427">
        <ele>164</ele>
        <time>2025-11-05T14:53:10.446Z</time>
      </trkpt>
      <trkpt lat="44.08855" lon="0.49427">
        <ele>164</ele>
        <time>2025-11-05T14:53:11.446Z</time>
      </trkpt>
      <trkpt lat="44.08856" lon="0.49427">
        <ele>164</ele>
        <time>2025-11-05T14:53:12.446Z</time>
      </trkpt>
      <trkpt lat="44.08858" lon="0.49426">
        <ele>164</ele>
        <time>2025-11-05T14:53:13.446Z</time>
      </trkpt>
      <trkpt lat="44.08859" lon="0.49426">
        <ele>164</ele>
        <time>2025-11-05T14:53:14.446Z</time>
      </trkpt>
      <trkpt lat="44.0886" lon="0.49426">
        <ele>164</ele>
        <time>2025-11-05T14:53:15.446Z</time>
      </trkpt>
      <trkpt lat="44.08861" lon="0.49425">
        <ele>163</ele>
        <time>2025-11-05T14:53:16.446Z</time>
      </trkpt>
      <trkpt lat="44.08862" lon="0.49425">
        <ele>163</ele>
        <time>2025-11-05T14:53:17.446Z</time>
      </trkpt>
      <trkpt lat="44.08863" lon="0.49425">
        <ele>163</ele>
        <time>2025-11-05T14:53:18.446Z</time>
      </trkpt>
      <trkpt lat="44.08864" lon="0.49425">
        <ele>163</ele>
        <time>2025-11-05T14:53:19.446Z</time>
      </trkpt>
      <trkpt lat="44.08866" lon="0.49425">
        <ele>162</ele>
        <time>2025-11-05T14:53:20.446Z</time>
      </trkpt>
      <trkpt lat="44.08867" lon="0.49424">
        <ele>162</ele>
        <time>2025-11-05T14:53:21.446Z</time>
      </trkpt>
      <trkpt lat="44.08868" lon="0.49424">
        <ele>161</ele>
        <time>2025-11-05T14:53:22.446Z</time>
      </trkpt>
      <trkpt lat="44.08869" lon="0.49425">
        <ele>161</ele>
        <time>2025-11-05T14:53:23.446Z</time>
      </trkpt>
      <trkpt lat="44.0887" lon="0.49425">
        <ele>161</ele>
        <time>2025-11-05T14:53:24.446Z</time>
      </trkpt>
      <trkpt lat="44.08871" lon="0.49425">
        <ele>161</ele>
        <time>2025-11-05T14:53:25.446Z</time>
      </trkpt>
      <trkpt lat="44.08872" lon="0.49425">
        <ele>162</ele>
        <time>2025-11-05T14:53:26.446Z</time>
      </trkpt>
      <trkpt lat="44.08874" lon="0.49425">
        <ele>162</ele>
        <time>2025-11-05T14:53:27.446Z</time>
      </trkpt>
      <trkpt lat="44.08875" lon="0.49424">
        <ele>163</ele>
        <time>2025-11-05T14:53:28.446Z</time>
      </trkpt>
      <trkpt lat="44.08876" lon="0.49424">
        <ele>163</ele>
        <time>2025-11-05T14:53:29.446Z</time>
      </trkpt>
      <trkpt lat="44.08878" lon="0.49424">
        <ele>163</ele>
        <time>2025-11-05T14:53:30.446Z</time>
      </trkpt>
      <trkpt lat="44.08879" lon="0.49424">
        <ele>164</ele>
        <time>2025-11-05T14:53:31.446Z</time>
      </trkpt>
      <trkpt lat="44.0888" lon="0.49423">
        <ele>164</ele>
        <time>2025-11-05T14:53:32.446Z</time>
      </trkpt>
      <trkpt lat="44.08881" lon="0.49423">
        <ele>165</ele>
        <time>2025-11-05T14:53:33.446Z</time>
      </trkpt>
      <trkpt lat="44.08882" lon="0.49423">
        <ele>165</ele>
        <time>2025-11-05T14:53:34.446Z</time>
      </trkpt>
      <trkpt lat="44.08883" lon="0.49423">
        <ele>166</ele>
        <time>2025-11-05T14:53:35.446Z</time>
      </trkpt>
      <trkpt lat="44.08884" lon="0.49423">
        <ele>166</ele>
        <time>2025-11-05T14:53:36.446Z</time>
      </trkpt>
      <trkpt lat="44.08885" lon="0.49423">
        <ele>166</ele>
        <time>2025-11-05T14:53:37.446Z</time>
      </trkpt>
      <trkpt lat="44.08886" lon="0.49423">
        <ele>166</ele>
        <time>2025-11-05T14:53:38.446Z</time>
      </trkpt>
      <trkpt lat="44.08887" lon="0.49423">
        <ele>166</ele>
        <time>2025-11-05T14:53:39.446Z</time>
      </trkpt>
      <trkpt lat="44.08888" lon="0.49423">
        <ele>166</ele>
        <time>2025-11-05T14:53:40.446Z</time>
      </trkpt>
      <trkpt lat="44.08889" lon="0.49422">
        <ele>166</ele>
        <time>2025-11-05T14:53:41.446Z</time>
      </trkpt>
      <trkpt lat="44.08891" lon="0.49423">
        <ele>166</ele>
        <time>2025-11-05T14:53:42.446Z</time>
      </trkpt>
      <trkpt lat="44.08892" lon="0.49423">
        <ele>166</ele>
        <time>2025-11-05T14:53:43.446Z</time>
      </trkpt>
      <trkpt lat="44.08893" lon="0.49423">
        <ele>166</ele>
        <time>2025-11-05T14:53:44.446Z</time>
      </trkpt>
      <trkpt lat="44.08895" lon="0.49424">
        <ele>166</ele>
        <time>2025-11-05T14:53:45.446Z</time>
      </trkpt>
      <trkpt lat="44.08896" lon="0.49423">
        <ele>165</ele>
        <time>2025-11-05T14:53:46.446Z</time>
      </trkpt>
      <trkpt lat="44.08897" lon="0.49424">
        <ele>165</ele>
        <time>2025-11-05T14:53:47.446Z</time>
      </trkpt>
      <trkpt lat="44.08898" lon="0.49424">
        <ele>165</ele>
        <time>2025-11-05T14:53:48.446Z</time>
      </trkpt>
      <trkpt lat="44.08899" lon="0.49423">
        <ele>165</ele>
        <time>2025-11-05T14:53:49.446Z</time>
      </trkpt>
      <trkpt lat="44.089" lon="0.49423">
        <ele>165</ele>
        <time>2025-11-05T14:53:50.446Z</time>
      </trkpt>
      <trkpt lat="44.08901" lon="0.49423">
        <ele>165</ele>
        <time>2025-11-05T14:53:51.446Z</time>
      </trkpt>
      <trkpt lat="44.08902" lon="0.49423">
        <ele>165</ele>
        <time>2025-11-05T14:53:52.447Z</time>
      </trkpt>
      <trkpt lat="44.08903" lon="0.49423">
        <ele>165</ele>
        <time>2025-11-05T14:53:53.446Z</time>
      </trkpt>
      <trkpt lat="44.08904" lon="0.49423">
        <ele>165</ele>
        <time>2025-11-05T14:53:54.446Z</time>
      </trkpt>
      <trkpt lat="44.08905" lon="0.49422">
        <ele>165</ele>
        <time>2025-11-05T14:53:55.446Z</time>
      </trkpt>
      <trkpt lat="44.08906" lon="0.49422">
        <ele>165</ele>
        <time>2025-11-05T14:53:56.446Z</time>
      </trkpt>
      <trkpt lat="44.08906" lon="0.49422">
        <ele>165</ele>
        <time>2025-11-05T14:53:57.446Z</time>
      </trkpt>
      <trkpt lat="44.08907" lon="0.49422">
        <ele>165</ele>
        <time>2025-11-05T14:53:58.446Z</time>
      </trkpt>
      <trkpt lat="44.08908" lon="0.49421">
        <ele>165</ele>
        <time>2025-11-05T14:53:59.446Z</time>
      </trkpt>
      <trkpt lat="44.08909" lon="0.49421">
        <ele>165</ele>
        <time>2025-11-05T14:54:00.446Z</time>
      </trkpt>
      <trkpt lat="44.0891" lon="0.49421">
        <ele>165</ele>
        <time>2025-11-05T14:54:01.446Z</time>
      </trkpt>
      <trkpt lat="44.08911" lon="0.49422">
        <ele>165</ele>
        <time>2025-11-05T14:54:02.446Z</time>
      </trkpt>
      <trkpt lat="44.08911" lon="0.49421">
        <ele>165</ele>
        <time>2025-11-05T14:54:03.446Z</time>
      </trkpt>
      <trkpt lat="44.08911" lon="0.49421">
        <ele>166</ele>
        <time>2025-11-05T14:54:04.446Z</time>
      </trkpt>
      <trkpt lat="44.08911" lon="0.49421">
        <ele>166</ele>
        <time>2025-11-05T14:54:05.446Z</time>
      </trkpt>
      <trkpt lat="44.08912" lon="0.49421">
        <ele>165</ele>
        <time>2025-11-05T14:54:06.446Z</time>
      </trkpt>
      <trkpt lat="44.08912" lon="0.49421">
        <ele>165</ele>
        <time>2025-11-05T14:54:07.446Z</time>
      </trkpt>
      <trkpt lat="44.08913" lon="0.49421">
        <ele>165</ele>
        <time>2025-11-05T14:54:08.446Z</time>
      </trkpt>
      <trkpt lat="44.08913" lon="0.49421">
        <ele>164</ele>
        <time>2025-11-05T14:54:09.446Z</time>
      </trkpt>
      <trkpt lat="44.08914" lon="0.4942">
        <ele>164</ele>
        <time>2025-11-05T14:54:10.447Z</time>
      </trkpt>
      <trkpt lat="44.08915" lon="0.4942">
        <ele>164</ele>
        <time>2025-11-05T14:54:11.446Z</time>
      </trkpt>
      <trkpt lat="44.08915" lon="0.49419">
        <ele>163</ele>
        <time>2025-11-05T14:54:12.446Z</time>
      </trkpt>
      <trkpt lat="44.08916" lon="0.49419">
        <ele>163</ele>
        <time>2025-11-05T14:54:13.446Z</time>
      </trkpt>
      <trkpt lat="44.08916" lon="0.49419">
        <ele>163</ele>
        <time>2025-11-05T14:54:14.446Z</time>
      </trkpt>
      <trkpt lat="44.08917" lon="0.49419">
        <ele>163</ele>
        <time>2025-11-05T14:54:15.446Z</time>
      </trkpt>
      <trkpt lat="44.08917" lon="0.4942">
        <ele>163</ele>
        <time>2025-11-05T14:54:16.446Z</time>
      </trkpt>
      <trkpt lat="44.08917" lon="0.4942">
        <ele>163</ele>
        <time>2025-11-05T14:54:17.446Z</time>
      </trkpt>
      <trkpt lat="44.08917" lon="0.4942">
        <ele>163</ele>
        <time>2025-11-05T14:54:18.446Z</time>
      </trkpt>
      <trkpt lat="44.08917" lon="0.4942">
        <ele>163</ele>
        <time>2025-11-05T14:54:19.446Z</time>
      </trkpt>
      <trkpt lat="44.08917" lon="0.4942">
        <ele>163</ele>
        <time>2025-11-05T14:54:20.446Z</time>
      </trkpt>
      <trkpt lat="44.08917" lon="0.4942">
        <ele>163</ele>
        <time>2025-11-05T14:54:21.446Z</time>
      </trkpt>
      <trkpt lat="44.08917" lon="0.4942">
        <ele>163</ele>
        <time>2025-11-05T14:54:22.446Z</time>
      </trkpt>
      <trkpt lat="44.08917" lon="0.4942">
        <ele>163</ele>
        <time>2025-11-05T14:54:23.446Z</time>
      </trkpt>
      <trkpt lat="44.08917" lon="0.4942">
        <ele>163</ele>
        <time>2025-11-05T14:54:24.446Z</time>
      </trkpt>
      <trkpt lat="44.08917" lon="0.4942">
        <ele>163</ele>
        <time>2025-11-05T14:54:25.446Z</time>
      </trkpt>
      <trkpt lat="44.08917" lon="0.49419">
        <ele>163</ele>
        <time>2025-11-05T14:54:26.446Z</time>
      </trkpt>
      <trkpt lat="44.08918" lon="0.49419">
        <ele>163</ele>
        <time>2025-11-05T14:54:27.446Z</time>
      </trkpt>
      <trkpt lat="44.08917" lon="0.49419">
        <ele>163</ele>
        <time>2025-11-05T14:54:28.446Z</time>
      </trkpt>
      <trkpt lat="44.08917" lon="0.49419">
        <ele>162</ele>
        <time>2025-11-05T14:54:29.446Z</time>
      </trkpt>
      <trkpt lat="44.08917" lon="0.49419">
        <ele>162</ele>
        <time>2025-11-05T14:54:30.446Z</time>
      </trkpt>
      <trkpt lat="44.08917" lon="0.49419">
        <ele>162</ele>
        <time>2025-11-05T14:54:31.446Z</time>
      </trkpt>
      <trkpt lat="44.08917" lon="0.49419">
        <ele>162</ele>
        <time>2025-11-05T14:54:32.446Z</time>
      </trkpt>
      <trkpt lat="44.08917" lon="0.49419">
        <ele>162</ele>
        <time>2025-11-05T14:54:33.446Z</time>
      </trkpt>
      <trkpt lat="44.08917" lon="0.49419">
        <ele>162</ele>
        <time>2025-11-05T14:54:34.446Z</time>
      </trkpt>
      <trkpt lat="44.08917" lon="0.49419">
        <ele>162</ele>
        <time>2025-11-05T14:54:35.446Z</time>
      </trkpt>
      <trkpt lat="44.08917" lon="0.49419">
        <ele>162</ele>
        <time>2025-11-05T14:54:36.446Z</time>
      </trkpt>
      <trkpt lat="44.08917" lon="0.49419">
        <ele>162</ele>
        <time>2025-11-05T14:54:37.446Z</time>
      </trkpt>
      <trkpt lat="44.08917" lon="0.49419">
        <ele>162</ele>
        <time>2025-11-05T14:54:38.446Z</time>
      </trkpt>
      <trkpt lat="44.08917" lon="0.49419">
        <ele>162</ele>
        <time>2025-11-05T14:54:39.446Z</time>
      </trkpt>
      <trkpt lat="44.08917" lon="0.49419">
        <ele>162</ele>
        <time>2025-11-05T14:54:40.446Z</time>
      </trkpt>
      <trkpt lat="44.08917" lon="0.49419">
        <ele>162</ele>
        <time>2025-11-05T14:54:41.446Z</time>
      </trkpt>
      <trkpt lat="44.08917" lon="0.49419">
        <ele>161</ele>
        <time>2025-11-05T14:54:42.446Z</time>
      </trkpt>
      <trkpt lat="44.08917" lon="0.49419">
        <ele>161</ele>
        <time>2025-11-05T14:54:43.446Z</time>
      </trkpt>
      <trkpt lat="44.08917" lon="0.49419">
        <ele>160</ele>
        <time>2025-11-05T14:54:44.446Z</time>
      </trkpt>
      <trkpt lat="44.08917" lon="0.49419">
        <ele>160</ele>
        <time>2025-11-05T14:54:45.446Z</time>
      </trkpt>
      <trkpt lat="44.08917" lon="0.49419">
        <ele>160</ele>
        <time>2025-11-05T14:54:46.446Z</time>
      </trkpt>
      <trkpt lat="44.08917" lon="0.49419">
        <ele>160</ele>
        <time>2025-11-05T14:54:47.446Z</time>
      </trkpt>
      <trkpt lat="44.08917" lon="0.49419">
        <ele>160</ele>
        <time>2025-11-05T14:54:48.446Z</time>
      </trkpt>
      <trkpt lat="44.08917" lon="0.49419">
        <ele>160</ele>
        <time>2025-11-05T14:54:49.446Z</time>
      </trkpt>
      <trkpt lat="44.08917" lon="0.49419">
        <ele>159</ele>
        <time>2025-11-05T14:54:50.446Z</time>
      </trkpt>
      <trkpt lat="44.08917" lon="0.49419">
        <ele>159</ele>
        <time>2025-11-05T14:54:51.446Z</time>
      </trkpt>
      <trkpt lat="44.08917" lon="0.49419">
        <ele>159</ele>
        <time>2025-11-05T14:54:52.446Z</time>
      </trkpt>
      <trkpt lat="44.08917" lon="0.49419">
        <ele>159</ele>
        <time>2025-11-05T14:54:53.446Z</time>
      </trkpt>
      <trkpt lat="44.08917" lon="0.49419">
        <ele>159</ele>
        <time>2025-11-05T14:54:54.446Z</time>
      </trkpt>
      <trkpt lat="44.08917" lon="0.49419">
        <ele>160</ele>
        <time>2025-11-05T14:54:55.446Z</time>
      </trkpt>
      <trkpt lat="44.08917" lon="0.49419">
        <ele>160</ele>
        <time>2025-11-05T14:54:56.446Z</time>
      </trkpt>
      <trkpt lat="44.08917" lon="0.49419">
        <ele>161</ele>
        <time>2025-11-05T14:54:57.446Z</time>
      </trkpt>
      <trkpt lat="44.08917" lon="0.49419">
        <ele>161</ele>
        <time>2025-11-05T14:54:58.446Z</time>
      </trkpt>
      <trkpt lat="44.08917" lon="0.49419">
        <ele>161</ele>
        <time>2025-11-05T14:54:59.446Z</time>
      </trkpt>
      <trkpt lat="44.08917" lon="0.49419">
        <ele>161</ele>
        <time>2025-11-05T14:55:00.446Z</time>
      </trkpt>
      <trkpt lat="44.08917" lon="0.49419">
        <ele>161</ele>
        <time>2025-11-05T14:55:01.446Z</time>
      </trkpt>
      <trkpt lat="44.08917" lon="0.49419">
        <ele>161</ele>
        <time>2025-11-05T14:55:02.446Z</time>
      </trkpt>
      <trkpt lat="44.08917" lon="0.49419">
        <ele>160</ele>
        <time>2025-11-05T14:55:03.446Z</time>
      </trkpt>
      <trkpt lat="44.08917" lon="0.49419">
        <ele>161</ele>
        <time>2025-11-05T14:55:04.446Z</time>
      </trkpt>
      <trkpt lat="44.08917" lon="0.49419">
        <ele>161</ele>
        <time>2025-11-05T14:55:05.446Z</time>
      </trkpt>
      <trkpt lat="44.08918" lon="0.4942">
        <ele>161</ele>
        <time>2025-11-05T14:55:06.446Z</time>
      </trkpt>
      <trkpt lat="44.08918" lon="0.4942">
        <ele>161</ele>
        <time>2025-11-05T14:55:07.446Z</time>
      </trkpt>
      <trkpt lat="44.08919" lon="0.4942">
        <ele>161</ele>
        <time>2025-11-05T14:55:08.446Z</time>
      </trkpt>
      <trkpt lat="44.08919" lon="0.4942">
        <ele>161</ele>
        <time>2025-11-05T14:55:09.446Z</time>
      </trkpt>
      <trkpt lat="44.0892" lon="0.4942">
        <ele>161</ele>
        <time>2025-11-05T14:55:10.446Z</time>
      </trkpt>
      <trkpt lat="44.08921" lon="0.49421">
        <ele>161</ele>
        <time>2025-11-05T14:55:11.446Z</time>
      </trkpt>
      <trkpt lat="44.08921" lon="0.49421">
        <ele>161</ele>
        <time>2025-11-05T14:55:12.446Z</time>
      </trkpt>
      <trkpt lat="44.08922" lon="0.49421">
        <ele>161</ele>
        <time>2025-11-05T14:55:13.446Z</time>
      </trkpt>
      <trkpt lat="44.08923" lon="0.49421">
        <ele>160</ele>
        <time>2025-11-05T14:55:14.446Z</time>
      </trkpt>
      <trkpt lat="44.08924" lon="0.49421">
        <ele>161</ele>
        <time>2025-11-05T14:55:15.446Z</time>
      </trkpt>
      <trkpt lat="44.08925" lon="0.49421">
        <ele>161</ele>
        <time>2025-11-05T14:55:16.446Z</time>
      </trkpt>
      <trkpt lat="44.08926" lon="0.49421">
        <ele>161</ele>
        <time>2025-11-05T14:55:17.446Z</time>
      </trkpt>
      <trkpt lat="44.08927" lon="0.49421">
        <ele>161</ele>
        <time>2025-11-05T14:55:18.446Z</time>
      </trkpt>
      <trkpt lat="44.08928" lon="0.49421">
        <ele>161</ele>
        <time>2025-11-05T14:55:19.446Z</time>
      </trkpt>
      <trkpt lat="44.08929" lon="0.49421">
        <ele>161</ele>
        <time>2025-11-05T14:55:20.446Z</time>
      </trkpt>
      <trkpt lat="44.08929" lon="0.49421">
        <ele>161</ele>
        <time>2025-11-05T14:55:21.446Z</time>
      </trkpt>
      <trkpt lat="44.08931" lon="0.49421">
        <ele>161</ele>
        <time>2025-11-05T14:55:22.446Z</time>
      </trkpt>
      <trkpt lat="44.08931" lon="0.49422">
        <ele>161</ele>
        <time>2025-11-05T14:55:23.446Z</time>
      </trkpt>
      <trkpt lat="44.08932" lon="0.49422">
        <ele>161</ele>
        <time>2025-11-05T14:55:24.446Z</time>
      </trkpt>
      <trkpt lat="44.08933" lon="0.49423">
        <ele>161</ele>
        <time>2025-11-05T14:55:25.446Z</time>
      </trkpt>
      <trkpt lat="44.08934" lon="0.49424">
        <ele>160</ele>
        <time>2025-11-05T14:55:26.446Z</time>
      </trkpt>
      <trkpt lat="44.08935" lon="0.49424">
        <ele>160</ele>
        <time>2025-11-05T14:55:27.446Z</time>
      </trkpt>
      <trkpt lat="44.08936" lon="0.49425">
        <ele>160</ele>
        <time>2025-11-05T14:55:28.446Z</time>
      </trkpt>
      <trkpt lat="44.08937" lon="0.49425">
        <ele>160</ele>
        <time>2025-11-05T14:55:29.446Z</time>
      </trkpt>
      <trkpt lat="44.08938" lon="0.49426">
        <ele>160</ele>
        <time>2025-11-05T14:55:30.446Z</time>
      </trkpt>
      <trkpt lat="44.08939" lon="0.49426">
        <ele>159</ele>
        <time>2025-11-05T14:55:31.446Z</time>
      </trkpt>
      <trkpt lat="44.0894" lon="0.49427">
        <ele>159</ele>
        <time>2025-11-05T14:55:32.446Z</time>
      </trkpt>
      <trkpt lat="44.08941" lon="0.49428">
        <ele>159</ele>
        <time>2025-11-05T14:55:33.446Z</time>
      </trkpt>
      <trkpt lat="44.08942" lon="0.49428">
        <ele>159</ele>
        <time>2025-11-05T14:55:34.446Z</time>
      </trkpt>
      <trkpt lat="44.08943" lon="0.49429">
        <ele>159</ele>
        <time>2025-11-05T14:55:35.446Z</time>
      </trkpt>
      <trkpt lat="44.08944" lon="0.4943">
        <ele>159</ele>
        <time>2025-11-05T14:55:36.446Z</time>
      </trkpt>
      <trkpt lat="44.08945" lon="0.4943">
        <ele>158</ele>
        <time>2025-11-05T14:55:37.446Z</time>
      </trkpt>
      <trkpt lat="44.08946" lon="0.49431">
        <ele>158</ele>
        <time>2025-11-05T14:55:38.446Z</time>
      </trkpt>
      <trkpt lat="44.08947" lon="0.49432">
        <ele>158</ele>
        <time>2025-11-05T14:55:39.446Z</time>
      </trkpt>
      <trkpt lat="44.08948" lon="0.49432">
        <ele>158</ele>
        <time>2025-11-05T14:55:40.446Z</time>
      </trkpt>
      <trkpt lat="44.08949" lon="0.49432">
        <ele>157</ele>
        <time>2025-11-05T14:55:41.446Z</time>
      </trkpt>
      <trkpt lat="44.0895" lon="0.49433">
        <ele>157</ele>
        <time>2025-11-05T14:55:42.446Z</time>
      </trkpt>
      <trkpt lat="44.0895" lon="0.49434">
        <ele>157</ele>
        <time>2025-11-05T14:55:43.446Z</time>
      </trkpt>
      <trkpt lat="44.08951" lon="0.49434">
        <ele>157</ele>
        <time>2025-11-05T14:55:44.446Z</time>
      </trkpt>
      <trkpt lat="44.08953" lon="0.49435">
        <ele>157</ele>
        <time>2025-11-05T14:55:45.446Z</time>
      </trkpt>
      <trkpt lat="44.08954" lon="0.49435">
        <ele>157</ele>
        <time>2025-11-05T14:55:46.446Z</time>
      </trkpt>
      <trkpt lat="44.08955" lon="0.49436">
        <ele>157</ele>
        <time>2025-11-05T14:55:47.446Z</time>
      </trkpt>
      <trkpt lat="44.08955" lon="0.49437">
        <ele>157</ele>
        <time>2025-11-05T14:55:48.446Z</time>
      </trkpt>
      <trkpt lat="44.08956" lon="0.49437">
        <ele>157</ele>
        <time>2025-11-05T14:55:49.446Z</time>
      </trkpt>
      <trkpt lat="44.08957" lon="0.49437">
        <ele>157</ele>
        <time>2025-11-05T14:55:50.446Z</time>
      </trkpt>
      <trkpt lat="44.08958" lon="0.49438">
        <ele>156</ele>
        <time>2025-11-05T14:55:51.446Z</time>
      </trkpt>
      <trkpt lat="44.08959" lon="0.49438">
        <ele>156</ele>
        <time>2025-11-05T14:55:52.446Z</time>
      </trkpt>
      <trkpt lat="44.0896" lon="0.49439">
        <ele>156</ele>
        <time>2025-11-05T14:55:53.446Z</time>
      </trkpt>
      <trkpt lat="44.08961" lon="0.4944">
        <ele>156</ele>
        <time>2025-11-05T14:55:54.446Z</time>
      </trkpt>
      <trkpt lat="44.08962" lon="0.4944">
        <ele>156</ele>
        <time>2025-11-05T14:55:55.446Z</time>
      </trkpt>
      <trkpt lat="44.08963" lon="0.49441">
        <ele>156</ele>
        <time>2025-11-05T14:55:56.446Z</time>
      </trkpt>
      <trkpt lat="44.08963" lon="0.49441">
        <ele>156</ele>
        <time>2025-11-05T14:55:57.446Z</time>
      </trkpt>
      <trkpt lat="44.08964" lon="0.49442">
        <ele>156</ele>
        <time>2025-11-05T14:55:58.446Z</time>
      </trkpt>
      <trkpt lat="44.08965" lon="0.49442">
        <ele>156</ele>
        <time>2025-11-05T14:55:59.446Z</time>
      </trkpt>
      <trkpt lat="44.08966" lon="0.49443">
        <ele>156</ele>
        <time>2025-11-05T14:56:00.446Z</time>
      </trkpt>
      <trkpt lat="44.08967" lon="0.49443">
        <ele>156</ele>
        <time>2025-11-05T14:56:01.446Z</time>
      </trkpt>
      <trkpt lat="44.08968" lon="0.49444">
        <ele>156</ele>
        <time>2025-11-05T14:56:02.446Z</time>
      </trkpt>
      <trkpt lat="44.08968" lon="0.49444">
        <ele>156</ele>
        <time>2025-11-05T14:56:03.446Z</time>
      </trkpt>
      <trkpt lat="44.08969" lon="0.49445">
        <ele>156</ele>
        <time>2025-11-05T14:56:04.447Z</time>
      </trkpt>
      <trkpt lat="44.08969" lon="0.49445">
        <ele>156</ele>
        <time>2025-11-05T14:56:05.446Z</time>
      </trkpt>
      <trkpt lat="44.0897" lon="0.49446">
        <ele>156</ele>
        <time>2025-11-05T14:56:06.446Z</time>
      </trkpt>
      <trkpt lat="44.08971" lon="0.49446">
        <ele>156</ele>
        <time>2025-11-05T14:56:07.446Z</time>
      </trkpt>
      <trkpt lat="44.08972" lon="0.49447">
        <ele>155</ele>
        <time>2025-11-05T14:56:08.446Z</time>
      </trkpt>
      <trkpt lat="44.08972" lon="0.49448">
        <ele>155</ele>
        <time>2025-11-05T14:56:09.446Z</time>
      </trkpt>
      <trkpt lat="44.08973" lon="0.49449">
        <ele>155</ele>
        <time>2025-11-05T14:56:10.446Z</time>
      </trkpt>
      <trkpt lat="44.08974" lon="0.49449">
        <ele>155</ele>
        <time>2025-11-05T14:56:11.446Z</time>
      </trkpt>
      <trkpt lat="44.08975" lon="0.4945">
        <ele>155</ele>
        <time>2025-11-05T14:56:12.446Z</time>
      </trkpt>
      <trkpt lat="44.08976" lon="0.4945">
        <ele>155</ele>
        <time>2025-11-05T14:56:13.446Z</time>
      </trkpt>
      <trkpt lat="44.08977" lon="0.49451">
        <ele>155</ele>
        <time>2025-11-05T14:56:14.446Z</time>
      </trkpt>
      <trkpt lat="44.08978" lon="0.49451">
        <ele>155</ele>
        <time>2025-11-05T14:56:15.446Z</time>
      </trkpt>
      <trkpt lat="44.08979" lon="0.49452">
        <ele>155</ele>
        <time>2025-11-05T14:56:16.446Z</time>
      </trkpt>
      <trkpt lat="44.0898" lon="0.49452">
        <ele>155</ele>
        <time>2025-11-05T14:56:17.446Z</time>
      </trkpt>
      <trkpt lat="44.08981" lon="0.49453">
        <ele>155</ele>
        <time>2025-11-05T14:56:18.446Z</time>
      </trkpt>
      <trkpt lat="44.08982" lon="0.49454">
        <ele>155</ele>
        <time>2025-11-05T14:56:19.446Z</time>
      </trkpt>
      <trkpt lat="44.08983" lon="0.49454">
        <ele>154</ele>
        <time>2025-11-05T14:56:20.446Z</time>
      </trkpt>
      <trkpt lat="44.08984" lon="0.49454">
        <ele>154</ele>
        <time>2025-11-05T14:56:21.446Z</time>
      </trkpt>
      <trkpt lat="44.08985" lon="0.49455">
        <ele>154</ele>
        <time>2025-11-05T14:56:22.446Z</time>
      </trkpt>
      <trkpt lat="44.08986" lon="0.49455">
        <ele>154</ele>
        <time>2025-11-05T14:56:23.446Z</time>
      </trkpt>
      <trkpt lat="44.08987" lon="0.49456">
        <ele>154</ele>
        <time>2025-11-05T14:56:24.446Z</time>
      </trkpt>
      <trkpt lat="44.08988" lon="0.49456">
        <ele>154</ele>
        <time>2025-11-05T14:56:25.446Z</time>
      </trkpt>
      <trkpt lat="44.08989" lon="0.49457">
        <ele>154</ele>
        <time>2025-11-05T14:56:26.446Z</time>
      </trkpt>
      <trkpt lat="44.08991" lon="0.49458">
        <ele>154</ele>
        <time>2025-11-05T14:56:27.446Z</time>
      </trkpt>
      <trkpt lat="44.08992" lon="0.49458">
        <ele>153</ele>
        <time>2025-11-05T14:56:28.446Z</time>
      </trkpt>
      <trkpt lat="44.08993" lon="0.49459">
        <ele>153</ele>
        <time>2025-11-05T14:56:29.446Z</time>
      </trkpt>
      <trkpt lat="44.08994" lon="0.49459">
        <ele>153</ele>
        <time>2025-11-05T14:56:30.446Z</time>
      </trkpt>
      <trkpt lat="44.08995" lon="0.49459">
        <ele>153</ele>
        <time>2025-11-05T14:56:31.446Z</time>
      </trkpt>
      <trkpt lat="44.08996" lon="0.4946">
        <ele>153</ele>
        <time>2025-11-05T14:56:32.446Z</time>
      </trkpt>
      <trkpt lat="44.08997" lon="0.4946">
        <ele>152</ele>
        <time>2025-11-05T14:56:33.446Z</time>
      </trkpt>
      <trkpt lat="44.08998" lon="0.49461">
        <ele>152</ele>
        <time>2025-11-05T14:56:34.446Z</time>
      </trkpt>
      <trkpt lat="44.08999" lon="0.49461">
        <ele>152</ele>
        <time>2025-11-05T14:56:35.446Z</time>
      </trkpt>
      <trkpt lat="44.09" lon="0.49462">
        <ele>153</ele>
        <time>2025-11-05T14:56:36.446Z</time>
      </trkpt>
      <trkpt lat="44.09001" lon="0.49462">
        <ele>153</ele>
        <time>2025-11-05T14:56:37.446Z</time>
      </trkpt>
      <trkpt lat="44.09002" lon="0.49463">
        <ele>153</ele>
        <time>2025-11-05T14:56:38.446Z</time>
      </trkpt>
      <trkpt lat="44.09002" lon="0.49464">
        <ele>153</ele>
        <time>2025-11-05T14:56:39.446Z</time>
      </trkpt>
      <trkpt lat="44.09003" lon="0.49464">
        <ele>153</ele>
        <time>2025-11-05T14:56:40.446Z</time>
      </trkpt>
      <trkpt lat="44.09004" lon="0.49464">
        <ele>153</ele>
        <time>2025-11-05T14:56:41.446Z</time>
      </trkpt>
      <trkpt lat="44.09005" lon="0.49465">
        <ele>153</ele>
        <time>2025-11-05T14:56:42.446Z</time>
      </trkpt>
      <trkpt lat="44.09006" lon="0.49466">
        <ele>153</ele>
        <time>2025-11-05T14:56:43.446Z</time>
      </trkpt>
      <trkpt lat="44.09007" lon="0.49466">
        <ele>153</ele>
        <time>2025-11-05T14:56:44.446Z</time>
      </trkpt>
      <trkpt lat="44.09008" lon="0.49467">
        <ele>153</ele>
        <time>2025-11-05T14:56:45.446Z</time>
      </trkpt>
      <trkpt lat="44.09009" lon="0.49467">
        <ele>153</ele>
        <time>2025-11-05T14:56:46.446Z</time>
      </trkpt>
      <trkpt lat="44.0901" lon="0.49468">
        <ele>153</ele>
        <time>2025-11-05T14:56:47.446Z</time>
      </trkpt>
      <trkpt lat="44.09011" lon="0.49469">
        <ele>153</ele>
        <time>2025-11-05T14:56:48.446Z</time>
      </trkpt>
      <trkpt lat="44.09012" lon="0.4947">
        <ele>153</ele>
        <time>2025-11-05T14:56:49.447Z</time>
      </trkpt>
      <trkpt lat="44.09014" lon="0.4947">
        <ele>153</ele>
        <time>2025-11-05T14:56:50.446Z</time>
      </trkpt>
      <trkpt lat="44.09015" lon="0.49471">
        <ele>153</ele>
        <time>2025-11-05T14:56:51.446Z</time>
      </trkpt>
      <trkpt lat="44.09016" lon="0.49471">
        <ele>153</ele>
        <time>2025-11-05T14:56:52.446Z</time>
      </trkpt>
      <trkpt lat="44.09017" lon="0.49471">
        <ele>153</ele>
        <time>2025-11-05T14:56:53.446Z</time>
      </trkpt>
      <trkpt lat="44.09018" lon="0.49472">
        <ele>152</ele>
        <time>2025-11-05T14:56:54.446Z</time>
      </trkpt>
      <trkpt lat="44.09018" lon="0.49473">
        <ele>152</ele>
        <time>2025-11-05T14:56:55.446Z</time>
      </trkpt>
      <trkpt lat="44.09019" lon="0.49473">
        <ele>152</ele>
        <time>2025-11-05T14:56:56.446Z</time>
      </trkpt>
      <trkpt lat="44.0902" lon="0.49474">
        <ele>152</ele>
        <time>2025-11-05T14:56:57.446Z</time>
      </trkpt>
      <trkpt lat="44.09022" lon="0.49474">
        <ele>151</ele>
        <time>2025-11-05T14:56:58.446Z</time>
      </trkpt>
      <trkpt lat="44.09023" lon="0.49475">
        <ele>151</ele>
        <time>2025-11-05T14:56:59.446Z</time>
      </trkpt>
      <trkpt lat="44.09024" lon="0.49476">
        <ele>151</ele>
        <time>2025-11-05T14:57:00.446Z</time>
      </trkpt>
      <trkpt lat="44.09025" lon="0.49476">
        <ele>151</ele>
        <time>2025-11-05T14:57:01.446Z</time>
      </trkpt>
      <trkpt lat="44.09026" lon="0.49476">
        <ele>151</ele>
        <time>2025-11-05T14:57:02.446Z</time>
      </trkpt>
      <trkpt lat="44.09027" lon="0.49477">
        <ele>151</ele>
        <time>2025-11-05T14:57:03.446Z</time>
      </trkpt>
      <trkpt lat="44.09028" lon="0.49477">
        <ele>151</ele>
        <time>2025-11-05T14:57:04.446Z</time>
      </trkpt>
      <trkpt lat="44.09029" lon="0.49478">
        <ele>151</ele>
        <time>2025-11-05T14:57:05.446Z</time>
      </trkpt>
      <trkpt lat="44.0903" lon="0.49478">
        <ele>151</ele>
        <time>2025-11-05T14:57:06.446Z</time>
      </trkpt>
      <trkpt lat="44.09031" lon="0.49479">
        <ele>151</ele>
        <time>2025-11-05T14:57:07.446Z</time>
      </trkpt>
      <trkpt lat="44.09032" lon="0.49479">
        <ele>151</ele>
        <time>2025-11-05T14:57:08.446Z</time>
      </trkpt>
      <trkpt lat="44.09033" lon="0.4948">
        <ele>151</ele>
        <time>2025-11-05T14:57:09.446Z</time>
      </trkpt>
      <trkpt lat="44.09034" lon="0.49481">
        <ele>151</ele>
        <time>2025-11-05T14:57:10.446Z</time>
      </trkpt>
      <trkpt lat="44.09035" lon="0.49482">
        <ele>151</ele>
        <time>2025-11-05T14:57:11.446Z</time>
      </trkpt>
      <trkpt lat="44.09036" lon="0.49482">
        <ele>151</ele>
        <time>2025-11-05T14:57:12.446Z</time>
      </trkpt>
      <trkpt lat="44.09037" lon="0.49483">
        <ele>151</ele>
        <time>2025-11-05T14:57:13.446Z</time>
      </trkpt>
      <trkpt lat="44.09038" lon="0.49483">
        <ele>151</ele>
        <time>2025-11-05T14:57:14.446Z</time>
      </trkpt>
      <trkpt lat="44.09039" lon="0.49484">
        <ele>151</ele>
        <time>2025-11-05T14:57:15.446Z</time>
      </trkpt>
      <trkpt lat="44.0904" lon="0.49484">
        <ele>151</ele>
        <time>2025-11-05T14:57:16.446Z</time>
      </trkpt>
      <trkpt lat="44.09041" lon="0.49485">
        <ele>151</ele>
        <time>2025-11-05T14:57:17.446Z</time>
      </trkpt>
      <trkpt lat="44.09042" lon="0.49486">
        <ele>151</ele>
        <time>2025-11-05T14:57:18.446Z</time>
      </trkpt>
      <trkpt lat="44.09044" lon="0.49486">
        <ele>151</ele>
        <time>2025-11-05T14:57:19.446Z</time>
      </trkpt>
      <trkpt lat="44.09045" lon="0.49487">
        <ele>151</ele>
        <time>2025-11-05T14:57:20.446Z</time>
      </trkpt>
      <trkpt lat="44.09046" lon="0.49487">
        <ele>151</ele>
        <time>2025-11-05T14:57:21.446Z</time>
      </trkpt>
      <trkpt lat="44.09047" lon="0.49488">
        <ele>150</ele>
        <time>2025-11-05T14:57:22.446Z</time>
      </trkpt>
      <trkpt lat="44.09048" lon="0.49489">
        <ele>150</ele>
        <time>2025-11-05T14:57:23.446Z</time>
      </trkpt>
      <trkpt lat="44.09049" lon="0.49489">
        <ele>150</ele>
        <time>2025-11-05T14:57:24.446Z</time>
      </trkpt>
      <trkpt lat="44.0905" lon="0.4949">
        <ele>150</ele>
        <time>2025-11-05T14:57:25.446Z</time>
      </trkpt>
      <trkpt lat="44.09051" lon="0.49491">
        <ele>150</ele>
        <time>2025-11-05T14:57:26.446Z</time>
      </trkpt>
      <trkpt lat="44.09052" lon="0.49492">
        <ele>150</ele>
        <time>2025-11-05T14:57:27.446Z</time>
      </trkpt>
      <trkpt lat="44.09053" lon="0.49492">
        <ele>149</ele>
        <time>2025-11-05T14:57:28.446Z</time>
      </trkpt>
      <trkpt lat="44.09054" lon="0.49493">
        <ele>149</ele>
        <time>2025-11-05T14:57:29.446Z</time>
      </trkpt>
      <trkpt lat="44.09055" lon="0.49494">
        <ele>149</ele>
        <time>2025-11-05T14:57:30.446Z</time>
      </trkpt>
      <trkpt lat="44.09056" lon="0.49494">
        <ele>149</ele>
        <time>2025-11-05T14:57:31.446Z</time>
      </trkpt>
      <trkpt lat="44.09057" lon="0.49495">
        <ele>149</ele>
        <time>2025-11-05T14:57:32.446Z</time>
      </trkpt>
      <trkpt lat="44.09058" lon="0.49495">
        <ele>149</ele>
        <time>2025-11-05T14:57:33.446Z</time>
      </trkpt>
      <trkpt lat="44.09059" lon="0.49495">
        <ele>149</ele>
        <time>2025-11-05T14:57:34.446Z</time>
      </trkpt>
      <trkpt lat="44.0906" lon="0.49496">
        <ele>149</ele>
        <time>2025-11-05T14:57:35.446Z</time>
      </trkpt>
      <trkpt lat="44.09061" lon="0.49496">
        <ele>149</ele>
        <time>2025-11-05T14:57:36.446Z</time>
      </trkpt>
      <trkpt lat="44.09062" lon="0.49496">
        <ele>149</ele>
        <time>2025-11-05T14:57:37.446Z</time>
      </trkpt>
      <trkpt lat="44.09063" lon="0.49497">
        <ele>149</ele>
        <time>2025-11-05T14:57:38.446Z</time>
      </trkpt>
      <trkpt lat="44.09064" lon="0.49498">
        <ele>149</ele>
        <time>2025-11-05T14:57:39.446Z</time>
      </trkpt>
      <trkpt lat="44.09065" lon="0.49498">
        <ele>148</ele>
        <time>2025-11-05T14:57:40.446Z</time>
      </trkpt>
      <trkpt lat="44.09066" lon="0.49499">
        <ele>148</ele>
        <time>2025-11-05T14:57:41.446Z</time>
      </trkpt>
      <trkpt lat="44.09067" lon="0.49499">
        <ele>148</ele>
        <time>2025-11-05T14:57:42.446Z</time>
      </trkpt>
      <trkpt lat="44.09068" lon="0.495">
        <ele>148</ele>
        <time>2025-11-05T14:57:43.446Z</time>
      </trkpt>
      <trkpt lat="44.09069" lon="0.495">
        <ele>148</ele>
        <time>2025-11-05T14:57:44.446Z</time>
      </trkpt>
      <trkpt lat="44.0907" lon="0.49501">
        <ele>148</ele>
        <time>2025-11-05T14:57:45.447Z</time>
      </trkpt>
      <trkpt lat="44.09071" lon="0.49502">
        <ele>147</ele>
        <time>2025-11-05T14:57:46.446Z</time>
      </trkpt>
      <trkpt lat="44.09072" lon="0.49503">
        <ele>147</ele>
        <time>2025-11-05T14:57:47.446Z</time>
      </trkpt>
      <trkpt lat="44.09073" lon="0.49504">
        <ele>148</ele>
        <time>2025-11-05T14:57:48.446Z</time>
      </trkpt>
      <trkpt lat="44.09074" lon="0.49504">
        <ele>148</ele>
        <time>2025-11-05T14:57:49.446Z</time>
      </trkpt>
      <trkpt lat="44.09075" lon="0.49505">
        <ele>148</ele>
        <time>2025-11-05T14:57:50.446Z</time>
      </trkpt>
      <trkpt lat="44.09076" lon="0.49505">
        <ele>148</ele>
        <time>2025-11-05T14:57:51.446Z</time>
      </trkpt>
      <trkpt lat="44.09076" lon="0.49505">
        <ele>149</ele>
        <time>2025-11-05T14:57:52.446Z</time>
      </trkpt>
      <trkpt lat="44.09077" lon="0.49505">
        <ele>149</ele>
        <time>2025-11-05T14:57:53.446Z</time>
      </trkpt>
      <trkpt lat="44.09078" lon="0.49505">
        <ele>149</ele>
        <time>2025-11-05T14:57:54.446Z</time>
      </trkpt>
      <trkpt lat="44.09079" lon="0.49506">
        <ele>149</ele>
        <time>2025-11-05T14:57:55.446Z</time>
      </trkpt>
      <trkpt lat="44.09081" lon="0.49506">
        <ele>149</ele>
        <time>2025-11-05T14:57:56.446Z</time>
      </trkpt>
      <trkpt lat="44.09081" lon="0.49507">
        <ele>149</ele>
        <time>2025-11-05T14:57:57.446Z</time>
      </trkpt>
      <trkpt lat="44.09083" lon="0.49508">
        <ele>149</ele>
        <time>2025-11-05T14:57:58.446Z</time>
      </trkpt>
      <trkpt lat="44.09084" lon="0.49508">
        <ele>148</ele>
        <time>2025-11-05T14:57:59.446Z</time>
      </trkpt>
      <trkpt lat="44.09085" lon="0.49509">
        <ele>148</ele>
        <time>2025-11-05T14:58:00.446Z</time>
      </trkpt>
      <trkpt lat="44.09086" lon="0.4951">
        <ele>148</ele>
        <time>2025-11-05T14:58:01.446Z</time>
      </trkpt>
      <trkpt lat="44.09087" lon="0.4951">
        <ele>148</ele>
        <time>2025-11-05T14:58:02.446Z</time>
      </trkpt>
      <trkpt lat="44.09089" lon="0.4951">
        <ele>148</ele>
        <time>2025-11-05T14:58:03.446Z</time>
      </trkpt>
      <trkpt lat="44.09089" lon="0.4951">
        <ele>148</ele>
        <time>2025-11-05T14:58:04.446Z</time>
      </trkpt>
      <trkpt lat="44.0909" lon="0.49511">
        <ele>148</ele>
        <time>2025-11-05T14:58:05.446Z</time>
      </trkpt>
      <trkpt lat="44.09091" lon="0.49511">
        <ele>148</ele>
        <time>2025-11-05T14:58:06.446Z</time>
      </trkpt>
      <trkpt lat="44.09092" lon="0.49512">
        <ele>147</ele>
        <time>2025-11-05T14:58:07.446Z</time>
      </trkpt>
      <trkpt lat="44.09094" lon="0.49513">
        <ele>147</ele>
        <time>2025-11-05T14:58:08.446Z</time>
      </trkpt>
      <trkpt lat="44.09095" lon="0.49514">
        <ele>147</ele>
        <time>2025-11-05T14:58:09.446Z</time>
      </trkpt>
      <trkpt lat="44.09095" lon="0.49514">
        <ele>146</ele>
        <time>2025-11-05T14:58:10.446Z</time>
      </trkpt>
      <trkpt lat="44.09096" lon="0.49515">
        <ele>146</ele>
        <time>2025-11-05T14:58:11.446Z</time>
      </trkpt>
      <trkpt lat="44.09097" lon="0.49515">
        <ele>146</ele>
        <time>2025-11-05T14:58:12.446Z</time>
      </trkpt>
      <trkpt lat="44.09099" lon="0.49516">
        <ele>146</ele>
        <time>2025-11-05T14:58:13.446Z</time>
      </trkpt>
      <trkpt lat="44.091" lon="0.49516">
        <ele>146</ele>
        <time>2025-11-05T14:58:14.446Z</time>
      </trkpt>
      <trkpt lat="44.09101" lon="0.49517">
        <ele>146</ele>
        <time>2025-11-05T14:58:15.446Z</time>
      </trkpt>
      <trkpt lat="44.09102" lon="0.49518">
        <ele>146</ele>
        <time>2025-11-05T14:58:16.446Z</time>
      </trkpt>
      <trkpt lat="44.09103" lon="0.49518">
        <ele>146</ele>
        <time>2025-11-05T14:58:17.446Z</time>
      </trkpt>
      <trkpt lat="44.09104" lon="0.49519">
        <ele>146</ele>
        <time>2025-11-05T14:58:18.446Z</time>
      </trkpt>
      <trkpt lat="44.09105" lon="0.49519">
        <ele>146</ele>
        <time>2025-11-05T14:58:19.446Z</time>
      </trkpt>
      <trkpt lat="44.09106" lon="0.49519">
        <ele>146</ele>
        <time>2025-11-05T14:58:20.446Z</time>
      </trkpt>
      <trkpt lat="44.09106" lon="0.4952">
        <ele>146</ele>
        <time>2025-11-05T14:58:21.446Z</time>
      </trkpt>
      <trkpt lat="44.09108" lon="0.4952">
        <ele>147</ele>
        <time>2025-11-05T14:58:22.446Z</time>
      </trkpt>
      <trkpt lat="44.09109" lon="0.49521">
        <ele>146</ele>
        <time>2025-11-05T14:58:23.446Z</time>
      </trkpt>
      <trkpt lat="44.0911" lon="0.49521">
        <ele>146</ele>
        <time>2025-11-05T14:58:24.446Z</time>
      </trkpt>
      <trkpt lat="44.09111" lon="0.49522">
        <ele>147</ele>
        <time>2025-11-05T14:58:25.446Z</time>
      </trkpt>
      <trkpt lat="44.09112" lon="0.49523">
        <ele>147</ele>
        <time>2025-11-05T14:58:26.446Z</time>
      </trkpt>
      <trkpt lat="44.09113" lon="0.49524">
        <ele>147</ele>
        <time>2025-11-05T14:58:27.446Z</time>
      </trkpt>
      <trkpt lat="44.09114" lon="0.49525">
        <ele>147</ele>
        <time>2025-11-05T14:58:28.446Z</time>
      </trkpt>
      <trkpt lat="44.09115" lon="0.49526">
        <ele>147</ele>
        <time>2025-11-05T14:58:29.446Z</time>
      </trkpt>
      <trkpt lat="44.09116" lon="0.49526">
        <ele>147</ele>
        <time>2025-11-05T14:58:30.446Z</time>
      </trkpt>
      <trkpt lat="44.09117" lon="0.49527">
        <ele>147</ele>
        <time>2025-11-05T14:58:31.446Z</time>
      </trkpt>
      <trkpt lat="44.09119" lon="0.49528">
        <ele>147</ele>
        <time>2025-11-05T14:58:32.446Z</time>
      </trkpt>
      <trkpt lat="44.0912" lon="0.49528">
        <ele>147</ele>
        <time>2025-11-05T14:58:33.446Z</time>
      </trkpt>
      <trkpt lat="44.09121" lon="0.49528">
        <ele>147</ele>
        <time>2025-11-05T14:58:34.446Z</time>
      </trkpt>
      <trkpt lat="44.09122" lon="0.49529">
        <ele>147</ele>
        <time>2025-11-05T14:58:35.446Z</time>
      </trkpt>
      <trkpt lat="44.09123" lon="0.4953">
        <ele>147</ele>
        <time>2025-11-05T14:58:36.446Z</time>
      </trkpt>
      <trkpt lat="44.09124" lon="0.4953">
        <ele>147</ele>
        <time>2025-11-05T14:58:37.446Z</time>
      </trkpt>
      <trkpt lat="44.09125" lon="0.49531">
        <ele>146</ele>
        <time>2025-11-05T14:58:38.446Z</time>
      </trkpt>
      <trkpt lat="44.09126" lon="0.49532">
        <ele>146</ele>
        <time>2025-11-05T14:58:39.446Z</time>
      </trkpt>
      <trkpt lat="44.09127" lon="0.49532">
        <ele>146</ele>
        <time>2025-11-05T14:58:40.446Z</time>
      </trkpt>
      <trkpt lat="44.09128" lon="0.49533">
        <ele>147</ele>
        <time>2025-11-05T14:58:41.446Z</time>
      </trkpt>
      <trkpt lat="44.09128" lon="0.49533">
        <ele>147</ele>
        <time>2025-11-05T14:58:42.446Z</time>
      </trkpt>
      <trkpt lat="44.09129" lon="0.49534">
        <ele>147</ele>
        <time>2025-11-05T14:58:43.446Z</time>
      </trkpt>
      <trkpt lat="44.0913" lon="0.49534">
        <ele>147</ele>
        <time>2025-11-05T14:58:44.446Z</time>
      </trkpt>
      <trkpt lat="44.09131" lon="0.49535">
        <ele>147</ele>
        <time>2025-11-05T14:58:45.446Z</time>
      </trkpt>
      <trkpt lat="44.09133" lon="0.49536">
        <ele>146</ele>
        <time>2025-11-05T14:58:46.446Z</time>
      </trkpt>
      <trkpt lat="44.09134" lon="0.49536">
        <ele>146</ele>
        <time>2025-11-05T14:58:47.446Z</time>
      </trkpt>
      <trkpt lat="44.09135" lon="0.49536">
        <ele>147</ele>
        <time>2025-11-05T14:58:48.446Z</time>
      </trkpt>
      <trkpt lat="44.09136" lon="0.49537">
        <ele>147</ele>
        <time>2025-11-05T14:58:49.446Z</time>
      </trkpt>
      <trkpt lat="44.09137" lon="0.49537">
        <ele>147</ele>
        <time>2025-11-05T14:58:50.446Z</time>
      </trkpt>
      <trkpt lat="44.09138" lon="0.49537">
        <ele>147</ele>
        <time>2025-11-05T14:58:51.446Z</time>
      </trkpt>
      <trkpt lat="44.09139" lon="0.49538">
        <ele>147</ele>
        <time>2025-11-05T14:58:52.446Z</time>
      </trkpt>
      <trkpt lat="44.0914" lon="0.49538">
        <ele>147</ele>
        <time>2025-11-05T14:58:53.446Z</time>
      </trkpt>
      <trkpt lat="44.09141" lon="0.49539">
        <ele>147</ele>
        <time>2025-11-05T14:58:54.446Z</time>
      </trkpt>
      <trkpt lat="44.09143" lon="0.49539">
        <ele>147</ele>
        <time>2025-11-05T14:58:55.446Z</time>
      </trkpt>
      <trkpt lat="44.09144" lon="0.4954">
        <ele>147</ele>
        <time>2025-11-05T14:58:56.446Z</time>
      </trkpt>
      <trkpt lat="44.09145" lon="0.4954">
        <ele>147</ele>
        <time>2025-11-05T14:58:57.446Z</time>
      </trkpt>
      <trkpt lat="44.09146" lon="0.49541">
        <ele>146</ele>
        <time>2025-11-05T14:58:58.446Z</time>
      </trkpt>
      <trkpt lat="44.09147" lon="0.49541">
        <ele>147</ele>
        <time>2025-11-05T14:58:59.446Z</time>
      </trkpt>
      <trkpt lat="44.09148" lon="0.49542">
        <ele>147</ele>
        <time>2025-11-05T14:59:00.446Z</time>
      </trkpt>
      <trkpt lat="44.09149" lon="0.49543">
        <ele>147</ele>
        <time>2025-11-05T14:59:01.446Z</time>
      </trkpt>
      <trkpt lat="44.0915" lon="0.49543">
        <ele>147</ele>
        <time>2025-11-05T14:59:02.446Z</time>
      </trkpt>
      <trkpt lat="44.09151" lon="0.49543">
        <ele>147</ele>
        <time>2025-11-05T14:59:03.446Z</time>
      </trkpt>
      <trkpt lat="44.09152" lon="0.49544">
        <ele>147</ele>
        <time>2025-11-05T14:59:04.446Z</time>
      </trkpt>
      <trkpt lat="44.09154" lon="0.49544">
        <ele>146</ele>
        <time>2025-11-05T14:59:05.446Z</time>
      </trkpt>
      <trkpt lat="44.09155" lon="0.49545">
        <ele>146</ele>
        <time>2025-11-05T14:59:06.446Z</time>
      </trkpt>
      <trkpt lat="44.09156" lon="0.49545">
        <ele>146</ele>
        <time>2025-11-05T14:59:07.446Z</time>
      </trkpt>
      <trkpt lat="44.09157" lon="0.49546">
        <ele>146</ele>
        <time>2025-11-05T14:59:08.446Z</time>
      </trkpt>
      <trkpt lat="44.09158" lon="0.49546">
        <ele>146</ele>
        <time>2025-11-05T14:59:09.446Z</time>
      </trkpt>
      <trkpt lat="44.09159" lon="0.49547">
        <ele>146</ele>
        <time>2025-11-05T14:59:10.446Z</time>
      </trkpt>
      <trkpt lat="44.0916" lon="0.49548">
        <ele>146</ele>
        <time>2025-11-05T14:59:11.446Z</time>
      </trkpt>
      <trkpt lat="44.09161" lon="0.49549">
        <ele>146</ele>
        <time>2025-11-05T14:59:12.446Z</time>
      </trkpt>
      <trkpt lat="44.09162" lon="0.4955">
        <ele>146</ele>
        <time>2025-11-05T14:59:13.446Z</time>
      </trkpt>
      <trkpt lat="44.09163" lon="0.4955">
        <ele>146</ele>
        <time>2025-11-05T14:59:14.446Z</time>
      </trkpt>
      <trkpt lat="44.09164" lon="0.49551">
        <ele>146</ele>
        <time>2025-11-05T14:59:15.446Z</time>
      </trkpt>
      <trkpt lat="44.09164" lon="0.49552">
        <ele>146</ele>
        <time>2025-11-05T14:59:16.446Z</time>
      </trkpt>
      <trkpt lat="44.09165" lon="0.49553">
        <ele>146</ele>
        <time>2025-11-05T14:59:17.446Z</time>
      </trkpt>
      <trkpt lat="44.09166" lon="0.49554">
        <ele>146</ele>
        <time>2025-11-05T14:59:18.446Z</time>
      </trkpt>
      <trkpt lat="44.09167" lon="0.49555">
        <ele>146</ele>
        <time>2025-11-05T14:59:19.446Z</time>
      </trkpt>
      <trkpt lat="44.09169" lon="0.49556">
        <ele>146</ele>
        <time>2025-11-05T14:59:20.446Z</time>
      </trkpt>
      <trkpt lat="44.09169" lon="0.49557">
        <ele>146</ele>
        <time>2025-11-05T14:59:21.446Z</time>
      </trkpt>
      <trkpt lat="44.09171" lon="0.49558">
        <ele>145</ele>
        <time>2025-11-05T14:59:22.446Z</time>
      </trkpt>
      <trkpt lat="44.09171" lon="0.49559">
        <ele>145</ele>
        <time>2025-11-05T14:59:23.446Z</time>
      </trkpt>
      <trkpt lat="44.09172" lon="0.4956">
        <ele>145</ele>
        <time>2025-11-05T14:59:24.446Z</time>
      </trkpt>
      <trkpt lat="44.09173" lon="0.4956">
        <ele>145</ele>
        <time>2025-11-05T14:59:25.446Z</time>
      </trkpt>
      <trkpt lat="44.09174" lon="0.49561">
        <ele>145</ele>
        <time>2025-11-05T14:59:26.446Z</time>
      </trkpt>
      <trkpt lat="44.09175" lon="0.49561">
        <ele>145</ele>
        <time>2025-11-05T14:59:27.446Z</time>
      </trkpt>
      <trkpt lat="44.09175" lon="0.49562">
        <ele>145</ele>
        <time>2025-11-05T14:59:28.446Z</time>
      </trkpt>
      <trkpt lat="44.09176" lon="0.49563">
        <ele>145</ele>
        <time>2025-11-05T14:59:29.446Z</time>
      </trkpt>
      <trkpt lat="44.09177" lon="0.49564">
        <ele>145</ele>
        <time>2025-11-05T14:59:30.446Z</time>
      </trkpt>
      <trkpt lat="44.09178" lon="0.49564">
        <ele>145</ele>
        <time>2025-11-05T14:59:31.446Z</time>
      </trkpt>
      <trkpt lat="44.09178" lon="0.49565">
        <ele>145</ele>
        <time>2025-11-05T14:59:32.446Z</time>
      </trkpt>
      <trkpt lat="44.09179" lon="0.49565">
        <ele>146</ele>
        <time>2025-11-05T14:59:33.446Z</time>
      </trkpt>
      <trkpt lat="44.0918" lon="0.49566">
        <ele>146</ele>
        <time>2025-11-05T14:59:34.446Z</time>
      </trkpt>
      <trkpt lat="44.09181" lon="0.49567">
        <ele>146</ele>
        <time>2025-11-05T14:59:35.446Z</time>
      </trkpt>
      <trkpt lat="44.09182" lon="0.49567">
        <ele>146</ele>
        <time>2025-11-05T14:59:36.446Z</time>
      </trkpt>
      <trkpt lat="44.09183" lon="0.49568">
        <ele>146</ele>
        <time>2025-11-05T14:59:37.446Z</time>
      </trkpt>
      <trkpt lat="44.09184" lon="0.49568">
        <ele>146</ele>
        <time>2025-11-05T14:59:38.446Z</time>
      </trkpt>
      <trkpt lat="44.09185" lon="0.49569">
        <ele>146</ele>
        <time>2025-11-05T14:59:39.446Z</time>
      </trkpt>
      <trkpt lat="44.09186" lon="0.49569">
        <ele>146</ele>
        <time>2025-11-05T14:59:40.446Z</time>
      </trkpt>
      <trkpt lat="44.09187" lon="0.4957">
        <ele>146</ele>
        <time>2025-11-05T14:59:41.446Z</time>
      </trkpt>
      <trkpt lat="44.09188" lon="0.4957">
        <ele>146</ele>
        <time>2025-11-05T14:59:42.446Z</time>
      </trkpt>
      <trkpt lat="44.09189" lon="0.49571">
        <ele>146</ele>
        <time>2025-11-05T14:59:43.446Z</time>
      </trkpt>
      <trkpt lat="44.09191" lon="0.49572">
        <ele>145</ele>
        <time>2025-11-05T14:59:44.446Z</time>
      </trkpt>
      <trkpt lat="44.09192" lon="0.49572">
        <ele>145</ele>
        <time>2025-11-05T14:59:45.446Z</time>
      </trkpt>
      <trkpt lat="44.09193" lon="0.49572">
        <ele>145</ele>
        <time>2025-11-05T14:59:46.446Z</time>
      </trkpt>
      <trkpt lat="44.09194" lon="0.49573">
        <ele>146</ele>
        <time>2025-11-05T14:59:47.446Z</time>
      </trkpt>
      <trkpt lat="44.09195" lon="0.49573">
        <ele>146</ele>
        <time>2025-11-05T14:59:48.446Z</time>
      </trkpt>
      <trkpt lat="44.09196" lon="0.49574">
        <ele>146</ele>
        <time>2025-11-05T14:59:49.446Z</time>
      </trkpt>
      <trkpt lat="44.09197" lon="0.49575">
        <ele>146</ele>
        <time>2025-11-05T14:59:50.446Z</time>
      </trkpt>
      <trkpt lat="44.09198" lon="0.49575">
        <ele>145</ele>
        <time>2025-11-05T14:59:51.446Z</time>
      </trkpt>
      <trkpt lat="44.09199" lon="0.49575">
        <ele>145</ele>
        <time>2025-11-05T14:59:52.446Z</time>
      </trkpt>
      <trkpt lat="44.09201" lon="0.49576">
        <ele>145</ele>
        <time>2025-11-05T14:59:53.446Z</time>
      </trkpt>
      <trkpt lat="44.09202" lon="0.49576">
        <ele>145</ele>
        <time>2025-11-05T14:59:54.446Z</time>
      </trkpt>
      <trkpt lat="44.09204" lon="0.49577">
        <ele>145</ele>
        <time>2025-11-05T14:59:55.446Z</time>
      </trkpt>
      <trkpt lat="44.09205" lon="0.49577">
        <ele>145</ele>
        <time>2025-11-05T14:59:56.446Z</time>
      </trkpt>
      <trkpt lat="44.09206" lon="0.49577">
        <ele>145</ele>
        <time>2025-11-05T14:59:57.446Z</time>
      </trkpt>
      <trkpt lat="44.09207" lon="0.49578">
        <ele>144</ele>
        <time>2025-11-05T14:59:58.446Z</time>
      </trkpt>
      <trkpt lat="44.09208" lon="0.49578">
        <ele>144</ele>
        <time>2025-11-05T14:59:59.446Z</time>
      </trkpt>
      <trkpt lat="44.09209" lon="0.49578">
        <ele>144</ele>
        <time>2025-11-05T15:00:00.446Z</time>
      </trkpt>
      <trkpt lat="44.0921" lon="0.49579">
        <ele>144</ele>
        <time>2025-11-05T15:00:01.446Z</time>
      </trkpt>
      <trkpt lat="44.09211" lon="0.4958">
        <ele>144</ele>
        <time>2025-11-05T15:00:02.446Z</time>
      </trkpt>
      <trkpt lat="44.09212" lon="0.4958">
        <ele>144</ele>
        <time>2025-11-05T15:00:03.446Z</time>
      </trkpt>
      <trkpt lat="44.09213" lon="0.49581">
        <ele>144</ele>
        <time>2025-11-05T15:00:04.446Z</time>
      </trkpt>
      <trkpt lat="44.09214" lon="0.49581">
        <ele>144</ele>
        <time>2025-11-05T15:00:05.446Z</time>
      </trkpt>
      <trkpt lat="44.09215" lon="0.49582">
        <ele>144</ele>
        <time>2025-11-05T15:00:06.446Z</time>
      </trkpt>
      <trkpt lat="44.09216" lon="0.49582">
        <ele>144</ele>
        <time>2025-11-05T15:00:07.446Z</time>
      </trkpt>
      <trkpt lat="44.09217" lon="0.49583">
        <ele>144</ele>
        <time>2025-11-05T15:00:08.446Z</time>
      </trkpt>
      <trkpt lat="44.09218" lon="0.49583">
        <ele>144</ele>
        <time>2025-11-05T15:00:09.446Z</time>
      </trkpt>
      <trkpt lat="44.09219" lon="0.49584">
        <ele>144</ele>
        <time>2025-11-05T15:00:10.446Z</time>
      </trkpt>
      <trkpt lat="44.0922" lon="0.49584">
        <ele>145</ele>
        <time>2025-11-05T15:00:11.446Z</time>
      </trkpt>
      <trkpt lat="44.09221" lon="0.49584">
        <ele>145</ele>
        <time>2025-11-05T15:00:12.446Z</time>
      </trkpt>
      <trkpt lat="44.09222" lon="0.49584">
        <ele>145</ele>
        <time>2025-11-05T15:00:13.446Z</time>
      </trkpt>
      <trkpt lat="44.09223" lon="0.49584">
        <ele>145</ele>
        <time>2025-11-05T15:00:14.446Z</time>
      </trkpt>
      <trkpt lat="44.09224" lon="0.49585">
        <ele>145</ele>
        <time>2025-11-05T15:00:15.446Z</time>
      </trkpt>
      <trkpt lat="44.09225" lon="0.49585">
        <ele>145</ele>
        <time>2025-11-05T15:00:16.446Z</time>
      </trkpt>
      <trkpt lat="44.09227" lon="0.49585">
        <ele>145</ele>
        <time>2025-11-05T15:00:17.446Z</time>
      </trkpt>
      <trkpt lat="44.09228" lon="0.49585">
        <ele>145</ele>
        <time>2025-11-05T15:00:18.446Z</time>
      </trkpt>
      <trkpt lat="44.09229" lon="0.49585">
        <ele>145</ele>
        <time>2025-11-05T15:00:19.446Z</time>
      </trkpt>
      <trkpt lat="44.0923" lon="0.49586">
        <ele>145</ele>
        <time>2025-11-05T15:00:20.446Z</time>
      </trkpt>
      <trkpt lat="44.09231" lon="0.49586">
        <ele>145</ele>
        <time>2025-11-05T15:00:21.446Z</time>
      </trkpt>
      <trkpt lat="44.09232" lon="0.49586">
        <ele>145</ele>
        <time>2025-11-05T15:00:22.446Z</time>
      </trkpt>
      <trkpt lat="44.09234" lon="0.49586">
        <ele>145</ele>
        <time>2025-11-05T15:00:23.446Z</time>
      </trkpt>
      <trkpt lat="44.09235" lon="0.49586">
        <ele>145</ele>
        <time>2025-11-05T15:00:24.446Z</time>
      </trkpt>
      <trkpt lat="44.09236" lon="0.49587">
        <ele>145</ele>
        <time>2025-11-05T15:00:25.446Z</time>
      </trkpt>
      <trkpt lat="44.09238" lon="0.49587">
        <ele>146</ele>
        <time>2025-11-05T15:00:26.446Z</time>
      </trkpt>
      <trkpt lat="44.09239" lon="0.49587">
        <ele>146</ele>
        <time>2025-11-05T15:00:27.446Z</time>
      </trkpt>
      <trkpt lat="44.0924" lon="0.49587">
        <ele>146</ele>
        <time>2025-11-05T15:00:28.446Z</time>
      </trkpt>
      <trkpt lat="44.09241" lon="0.49586">
        <ele>146</ele>
        <time>2025-11-05T15:00:29.446Z</time>
      </trkpt>
      <trkpt lat="44.09242" lon="0.49586">
        <ele>146</ele>
        <time>2025-11-05T15:00:30.446Z</time>
      </trkpt>
      <trkpt lat="44.09243" lon="0.49586">
        <ele>147</ele>
        <time>2025-11-05T15:00:31.446Z</time>
      </trkpt>
      <trkpt lat="44.09244" lon="0.49586">
        <ele>147</ele>
        <time>2025-11-05T15:00:32.446Z</time>
      </trkpt>
      <trkpt lat="44.09245" lon="0.49586">
        <ele>147</ele>
        <time>2025-11-05T15:00:33.446Z</time>
      </trkpt>
      <trkpt lat="44.09247" lon="0.49586">
        <ele>147</ele>
        <time>2025-11-05T15:00:34.446Z</time>
      </trkpt>
      <trkpt lat="44.09248" lon="0.49586">
        <ele>147</ele>
        <time>2025-11-05T15:00:35.446Z</time>
      </trkpt>
      <trkpt lat="44.09249" lon="0.49586">
        <ele>146</ele>
        <time>2025-11-05T15:00:36.446Z</time>
      </trkpt>
      <trkpt lat="44.0925" lon="0.49586">
        <ele>146</ele>
        <time>2025-11-05T15:00:37.446Z</time>
      </trkpt>
      <trkpt lat="44.09251" lon="0.49586">
        <ele>146</ele>
        <time>2025-11-05T15:00:38.446Z</time>
      </trkpt>
      <trkpt lat="44.09252" lon="0.49586">
        <ele>146</ele>
        <time>2025-11-05T15:00:39.446Z</time>
      </trkpt>
      <trkpt lat="44.09254" lon="0.49587">
        <ele>146</ele>
        <time>2025-11-05T15:00:40.446Z</time>
      </trkpt>
      <trkpt lat="44.09255" lon="0.49587">
        <ele>146</ele>
        <time>2025-11-05T15:00:41.446Z</time>
      </trkpt>
      <trkpt lat="44.09256" lon="0.49587">
        <ele>146</ele>
        <time>2025-11-05T15:00:42.446Z</time>
      </trkpt>
      <trkpt lat="44.09258" lon="0.49586">
        <ele>146</ele>
        <time>2025-11-05T15:00:43.446Z</time>
      </trkpt>
      <trkpt lat="44.09259" lon="0.49586">
        <ele>146</ele>
        <time>2025-11-05T15:00:44.446Z</time>
      </trkpt>
      <trkpt lat="44.0926" lon="0.49586">
        <ele>146</ele>
        <time>2025-11-05T15:00:45.446Z</time>
      </trkpt>
      <trkpt lat="44.09261" lon="0.49586">
        <ele>146</ele>
        <time>2025-11-05T15:00:46.446Z</time>
      </trkpt>
      <trkpt lat="44.09262" lon="0.49586">
        <ele>146</ele>
        <time>2025-11-05T15:00:47.446Z</time>
      </trkpt>
      <trkpt lat="44.09263" lon="0.49586">
        <ele>145</ele>
        <time>2025-11-05T15:00:48.446Z</time>
      </trkpt>
      <trkpt lat="44.09264" lon="0.49586">
        <ele>145</ele>
        <time>2025-11-05T15:00:49.446Z</time>
      </trkpt>
      <trkpt lat="44.09265" lon="0.49586">
        <ele>145</ele>
        <time>2025-11-05T15:00:50.446Z</time>
      </trkpt>
      <trkpt lat="44.09266" lon="0.49586">
        <ele>144</ele>
        <time>2025-11-05T15:00:51.446Z</time>
      </trkpt>
      <trkpt lat="44.09267" lon="0.49585">
        <ele>144</ele>
        <time>2025-11-05T15:00:52.446Z</time>
      </trkpt>
      <trkpt lat="44.09268" lon="0.49585">
        <ele>144</ele>
        <time>2025-11-05T15:00:53.446Z</time>
      </trkpt>
      <trkpt lat="44.09269" lon="0.49584">
        <ele>144</ele>
        <time>2025-11-05T15:00:54.446Z</time>
      </trkpt>
      <trkpt lat="44.09271" lon="0.49584">
        <ele>144</ele>
        <time>2025-11-05T15:00:55.446Z</time>
      </trkpt>
      <trkpt lat="44.09271" lon="0.49583">
        <ele>143</ele>
        <time>2025-11-05T15:00:56.446Z</time>
      </trkpt>
      <trkpt lat="44.09272" lon="0.49582">
        <ele>143</ele>
        <time>2025-11-05T15:00:57.446Z</time>
      </trkpt>
      <trkpt lat="44.09273" lon="0.49581">
        <ele>143</ele>
        <time>2025-11-05T15:00:58.446Z</time>
      </trkpt>
      <trkpt lat="44.09274" lon="0.4958">
        <ele>143</ele>
        <time>2025-11-05T15:00:59.446Z</time>
      </trkpt>
      <trkpt lat="44.09275" lon="0.49579">
        <ele>143</ele>
        <time>2025-11-05T15:01:00.446Z</time>
      </trkpt>
      <trkpt lat="44.09275" lon="0.49578">
        <ele>142</ele>
        <time>2025-11-05T15:01:01.446Z</time>
      </trkpt>
      <trkpt lat="44.09276" lon="0.49576">
        <ele>142</ele>
        <time>2025-11-05T15:01:02.446Z</time>
      </trkpt>
      <trkpt lat="44.09277" lon="0.49575">
        <ele>142</ele>
        <time>2025-11-05T15:01:03.446Z</time>
      </trkpt>
      <trkpt lat="44.09277" lon="0.49574">
        <ele>142</ele>
        <time>2025-11-05T15:01:04.446Z</time>
      </trkpt>
      <trkpt lat="44.09278" lon="0.49572">
        <ele>142</ele>
        <time>2025-11-05T15:01:05.446Z</time>
      </trkpt>
      <trkpt lat="44.09278" lon="0.49571">
        <ele>143</ele>
        <time>2025-11-05T15:01:06.446Z</time>
      </trkpt>
      <trkpt lat="44.09278" lon="0.49569">
        <ele>143</ele>
        <time>2025-11-05T15:01:07.446Z</time>
      </trkpt>
      <trkpt lat="44.09279" lon="0.49567">
        <ele>143</ele>
        <time>2025-11-05T15:01:08.446Z</time>
      </trkpt>
      <trkpt lat="44.09279" lon="0.49566">
        <ele>143</ele>
        <time>2025-11-05T15:01:09.446Z</time>
      </trkpt>
      <trkpt lat="44.09279" lon="0.49564">
        <ele>143</ele>
        <time>2025-11-05T15:01:10.446Z</time>
      </trkpt>
      <trkpt lat="44.0928" lon="0.49563">
        <ele>143</ele>
        <time>2025-11-05T15:01:11.446Z</time>
      </trkpt>
      <trkpt lat="44.0928" lon="0.49562">
        <ele>143</ele>
        <time>2025-11-05T15:01:12.446Z</time>
      </trkpt>
      <trkpt lat="44.09281" lon="0.4956">
        <ele>142</ele>
        <time>2025-11-05T15:01:13.446Z</time>
      </trkpt>
      <trkpt lat="44.09281" lon="0.49559">
        <ele>142</ele>
        <time>2025-11-05T15:01:14.446Z</time>
      </trkpt>
      <trkpt lat="44.09282" lon="0.49558">
        <ele>142</ele>
        <time>2025-11-05T15:01:15.446Z</time>
      </trkpt>
      <trkpt lat="44.09282" lon="0.49557">
        <ele>142</ele>
        <time>2025-11-05T15:01:16.446Z</time>
      </trkpt>
      <trkpt lat="44.09282" lon="0.49555">
        <ele>142</ele>
        <time>2025-11-05T15:01:17.446Z</time>
      </trkpt>
      <trkpt lat="44.09282" lon="0.49554">
        <ele>142</ele>
        <time>2025-11-05T15:01:18.446Z</time>
      </trkpt>
      <trkpt lat="44.09283" lon="0.49552">
        <ele>142</ele>
        <time>2025-11-05T15:01:19.446Z</time>
      </trkpt>
      <trkpt lat="44.09283" lon="0.49551">
        <ele>142</ele>
        <time>2025-11-05T15:01:20.446Z</time>
      </trkpt>
      <trkpt lat="44.09283" lon="0.49549">
        <ele>142</ele>
        <time>2025-11-05T15:01:21.446Z</time>
      </trkpt>
      <trkpt lat="44.09283" lon="0.49548">
        <ele>142</ele>
        <time>2025-11-05T15:01:22.446Z</time>
      </trkpt>
      <trkpt lat="44.09284" lon="0.49546">
        <ele>142</ele>
        <time>2025-11-05T15:01:23.446Z</time>
      </trkpt>
      <trkpt lat="44.09284" lon="0.49545">
        <ele>142</ele>
        <time>2025-11-05T15:01:24.446Z</time>
      </trkpt>
      <trkpt lat="44.09285" lon="0.49544">
        <ele>142</ele>
        <time>2025-11-05T15:01:25.446Z</time>
      </trkpt>
      <trkpt lat="44.09285" lon="0.49543">
        <ele>142</ele>
        <time>2025-11-05T15:01:26.446Z</time>
      </trkpt>
      <trkpt lat="44.09286" lon="0.49542">
        <ele>142</ele>
        <time>2025-11-05T15:01:27.446Z</time>
      </trkpt>
      <trkpt lat="44.09286" lon="0.4954">
        <ele>142</ele>
        <time>2025-11-05T15:01:28.446Z</time>
      </trkpt>
      <trkpt lat="44.09286" lon="0.49539">
        <ele>142</ele>
        <time>2025-11-05T15:01:29.446Z</time>
      </trkpt>
      <trkpt lat="44.09287" lon="0.49538">
        <ele>142</ele>
        <time>2025-11-05T15:01:30.446Z</time>
      </trkpt>
      <trkpt lat="44.09287" lon="0.49536">
        <ele>142</ele>
        <time>2025-11-05T15:01:31.446Z</time>
      </trkpt>
      <trkpt lat="44.09288" lon="0.49535">
        <ele>142</ele>
        <time>2025-11-05T15:01:32.446Z</time>
      </trkpt>
      <trkpt lat="44.09288" lon="0.49534">
        <ele>141</ele>
        <time>2025-11-05T15:01:33.446Z</time>
      </trkpt>
      <trkpt lat="44.09289" lon="0.49533">
        <ele>141</ele>
        <time>2025-11-05T15:01:34.446Z</time>
      </trkpt>
      <trkpt lat="44.09289" lon="0.49532">
        <ele>141</ele>
        <time>2025-11-05T15:01:35.446Z</time>
      </trkpt>
      <trkpt lat="44.0929" lon="0.4953">
        <ele>141</ele>
        <time>2025-11-05T15:01:36.446Z</time>
      </trkpt>
      <trkpt lat="44.0929" lon="0.49529">
        <ele>141</ele>
        <time>2025-11-05T15:01:37.446Z</time>
      </trkpt>
      <trkpt lat="44.0929" lon="0.49527">
        <ele>140</ele>
        <time>2025-11-05T15:01:38.446Z</time>
      </trkpt>
      <trkpt lat="44.09291" lon="0.49526">
        <ele>140</ele>
        <time>2025-11-05T15:01:39.446Z</time>
      </trkpt>
      <trkpt lat="44.09291" lon="0.49524">
        <ele>140</ele>
        <time>2025-11-05T15:01:40.446Z</time>
      </trkpt>
      <trkpt lat="44.09291" lon="0.49523">
        <ele>140</ele>
        <time>2025-11-05T15:01:41.446Z</time>
      </trkpt>
      <trkpt lat="44.09292" lon="0.49521">
        <ele>140</ele>
        <time>2025-11-05T15:01:42.446Z</time>
      </trkpt>
      <trkpt lat="44.09292" lon="0.4952">
        <ele>140</ele>
        <time>2025-11-05T15:01:43.446Z</time>
      </trkpt>
      <trkpt lat="44.09293" lon="0.49518">
        <ele>140</ele>
        <time>2025-11-05T15:01:44.446Z</time>
      </trkpt>
      <trkpt lat="44.09294" lon="0.49517">
        <ele>140</ele>
        <time>2025-11-05T15:01:45.446Z</time>
      </trkpt>
      <trkpt lat="44.09295" lon="0.49516">
        <ele>140</ele>
        <time>2025-11-05T15:01:46.446Z</time>
      </trkpt>
      <trkpt lat="44.09295" lon="0.49515">
        <ele>140</ele>
        <time>2025-11-05T15:01:47.446Z</time>
      </trkpt>
      <trkpt lat="44.09296" lon="0.49514">
        <ele>140</ele>
        <time>2025-11-05T15:01:48.446Z</time>
      </trkpt>
      <trkpt lat="44.09296" lon="0.49512">
        <ele>140</ele>
        <time>2025-11-05T15:01:49.446Z</time>
      </trkpt>
      <trkpt lat="44.09297" lon="0.49511">
        <ele>140</ele>
        <time>2025-11-05T15:01:50.446Z</time>
      </trkpt>
      <trkpt lat="44.09298" lon="0.4951">
        <ele>140</ele>
        <time>2025-11-05T15:01:51.446Z</time>
      </trkpt>
      <trkpt lat="44.09298" lon="0.49508">
        <ele>141</ele>
        <time>2025-11-05T15:01:52.446Z</time>
      </trkpt>
      <trkpt lat="44.09299" lon="0.49507">
        <ele>141</ele>
        <time>2025-11-05T15:01:53.446Z</time>
      </trkpt>
      <trkpt lat="44.093" lon="0.49506">
        <ele>141</ele>
        <time>2025-11-05T15:01:54.446Z</time>
      </trkpt>
      <trkpt lat="44.093" lon="0.49505">
        <ele>141</ele>
        <time>2025-11-05T15:01:55.446Z</time>
      </trkpt>
      <trkpt lat="44.09301" lon="0.49503">
        <ele>141</ele>
        <time>2025-11-05T15:01:56.446Z</time>
      </trkpt>
      <trkpt lat="44.09302" lon="0.49502">
        <ele>141</ele>
        <time>2025-11-05T15:01:57.446Z</time>
      </trkpt>
      <trkpt lat="44.09303" lon="0.49501">
        <ele>141</ele>
        <time>2025-11-05T15:01:58.446Z</time>
      </trkpt>
      <trkpt lat="44.09304" lon="0.49499">
        <ele>141</ele>
        <time>2025-11-05T15:01:59.446Z</time>
      </trkpt>
      <trkpt lat="44.09305" lon="0.49499">
        <ele>141</ele>
        <time>2025-11-05T15:02:00.446Z</time>
      </trkpt>
      <trkpt lat="44.09306" lon="0.49498">
        <ele>141</ele>
        <time>2025-11-05T15:02:01.446Z</time>
      </trkpt>
      <trkpt lat="44.09307" lon="0.49496">
        <ele>141</ele>
        <time>2025-11-05T15:02:02.446Z</time>
      </trkpt>
      <trkpt lat="44.09308" lon="0.49495">
        <ele>140</ele>
        <time>2025-11-05T15:02:03.446Z</time>
      </trkpt>
      <trkpt lat="44.09309" lon="0.49494">
        <ele>140</ele>
        <time>2025-11-05T15:02:04.446Z</time>
      </trkpt>
      <trkpt lat="44.0931" lon="0.49493">
        <ele>140</ele>
        <time>2025-11-05T15:02:05.446Z</time>
      </trkpt>
      <trkpt lat="44.09311" lon="0.49492">
        <ele>140</ele>
        <time>2025-11-05T15:02:06.446Z</time>
      </trkpt>
      <trkpt lat="44.09312" lon="0.49491">
        <ele>140</ele>
        <time>2025-11-05T15:02:07.446Z</time>
      </trkpt>
      <trkpt lat="44.09312" lon="0.49489">
        <ele>140</ele>
        <time>2025-11-05T15:02:08.446Z</time>
      </trkpt>
      <trkpt lat="44.09313" lon="0.49488">
        <ele>140</ele>
        <time>2025-11-05T15:02:09.446Z</time>
      </trkpt>
      <trkpt lat="44.09314" lon="0.49487">
        <ele>140</ele>
        <time>2025-11-05T15:02:10.446Z</time>
      </trkpt>
      <trkpt lat="44.09314" lon="0.49486">
        <ele>140</ele>
        <time>2025-11-05T15:02:11.446Z</time>
      </trkpt>
      <trkpt lat="44.09315" lon="0.49486">
        <ele>139</ele>
        <time>2025-11-05T15:02:12.446Z</time>
      </trkpt>
      <trkpt lat="44.09316" lon="0.49485">
        <ele>139</ele>
        <time>2025-11-05T15:02:13.446Z</time>
      </trkpt>
      <trkpt lat="44.09317" lon="0.49484">
        <ele>139</ele>
        <time>2025-11-05T15:02:14.446Z</time>
      </trkpt>
      <trkpt lat="44.09318" lon="0.49484">
        <ele>139</ele>
        <time>2025-11-05T15:02:15.446Z</time>
      </trkpt>
      <trkpt lat="44.09319" lon="0.49483">
        <ele>139</ele>
        <time>2025-11-05T15:02:16.446Z</time>
      </trkpt>
      <trkpt lat="44.0932" lon="0.49482">
        <ele>138</ele>
        <time>2025-11-05T15:02:17.446Z</time>
      </trkpt>
      <trkpt lat="44.09321" lon="0.49481">
        <ele>138</ele>
        <time>2025-11-05T15:02:18.446Z</time>
      </trkpt>
      <trkpt lat="44.09322" lon="0.49481">
        <ele>138</ele>
        <time>2025-11-05T15:02:19.446Z</time>
      </trkpt>
      <trkpt lat="44.09323" lon="0.49479">
        <ele>138</ele>
        <time>2025-11-05T15:02:20.446Z</time>
      </trkpt>
      <trkpt lat="44.09324" lon="0.49478">
        <ele>138</ele>
        <time>2025-11-05T15:02:21.446Z</time>
      </trkpt>
      <trkpt lat="44.09325" lon="0.49477">
        <ele>138</ele>
        <time>2025-11-05T15:02:22.446Z</time>
      </trkpt>
      <trkpt lat="44.09326" lon="0.49476">
        <ele>138</ele>
        <time>2025-11-05T15:02:23.446Z</time>
      </trkpt>
      <trkpt lat="44.09326" lon="0.49475">
        <ele>139</ele>
        <time>2025-11-05T15:02:24.447Z</time>
      </trkpt>
      <trkpt lat="44.09327" lon="0.49474">
        <ele>139</ele>
        <time>2025-11-05T15:02:25.446Z</time>
      </trkpt>
      <trkpt lat="44.09328" lon="0.49473">
        <ele>139</ele>
        <time>2025-11-05T15:02:26.446Z</time>
      </trkpt>
      <trkpt lat="44.09329" lon="0.49471">
        <ele>139</ele>
        <time>2025-11-05T15:02:27.446Z</time>
      </trkpt>
      <trkpt lat="44.0933" lon="0.4947">
        <ele>139</ele>
        <time>2025-11-05T15:02:28.446Z</time>
      </trkpt>
      <trkpt lat="44.0933" lon="0.49469">
        <ele>139</ele>
        <time>2025-11-05T15:02:29.446Z</time>
      </trkpt>
      <trkpt lat="44.09331" lon="0.49467">
        <ele>139</ele>
        <time>2025-11-05T15:02:30.446Z</time>
      </trkpt>
      <trkpt lat="44.09331" lon="0.49466">
        <ele>139</ele>
        <time>2025-11-05T15:02:31.446Z</time>
      </trkpt>
      <trkpt lat="44.09332" lon="0.49465">
        <ele>139</ele>
        <time>2025-11-05T15:02:32.446Z</time>
      </trkpt>
      <trkpt lat="44.09332" lon="0.49463">
        <ele>139</ele>
        <time>2025-11-05T15:02:33.446Z</time>
      </trkpt>
      <trkpt lat="44.09333" lon="0.49462">
        <ele>139</ele>
        <time>2025-11-05T15:02:34.446Z</time>
      </trkpt>
      <trkpt lat="44.09333" lon="0.49461">
        <ele>139</ele>
        <time>2025-11-05T15:02:35.446Z</time>
      </trkpt>
      <trkpt lat="44.09333" lon="0.4946">
        <ele>139</ele>
        <time>2025-11-05T15:02:36.446Z</time>
      </trkpt>
      <trkpt lat="44.09334" lon="0.49458">
        <ele>139</ele>
        <time>2025-11-05T15:02:37.446Z</time>
      </trkpt>
      <trkpt lat="44.09334" lon="0.49456">
        <ele>139</ele>
        <time>2025-11-05T15:02:38.446Z</time>
      </trkpt>
      <trkpt lat="44.09334" lon="0.49455">
        <ele>140</ele>
        <time>2025-11-05T15:02:39.446Z</time>
      </trkpt>
      <trkpt lat="44.09334" lon="0.49453">
        <ele>140</ele>
        <time>2025-11-05T15:02:40.446Z</time>
      </trkpt>
      <trkpt lat="44.09334" lon="0.49451">
        <ele>140</ele>
        <time>2025-11-05T15:02:41.446Z</time>
      </trkpt>
      <trkpt lat="44.09334" lon="0.4945">
        <ele>140</ele>
        <time>2025-11-05T15:02:42.446Z</time>
      </trkpt>
      <trkpt lat="44.09335" lon="0.49448">
        <ele>140</ele>
        <time>2025-11-05T15:02:43.446Z</time>
      </trkpt>
      <trkpt lat="44.09335" lon="0.49447">
        <ele>140</ele>
        <time>2025-11-05T15:02:44.446Z</time>
      </trkpt>
      <trkpt lat="44.09335" lon="0.49445">
        <ele>140</ele>
        <time>2025-11-05T15:02:45.446Z</time>
      </trkpt>
      <trkpt lat="44.09336" lon="0.49444">
        <ele>140</ele>
        <time>2025-11-05T15:02:46.446Z</time>
      </trkpt>
      <trkpt lat="44.09336" lon="0.49442">
        <ele>140</ele>
        <time>2025-11-05T15:02:47.446Z</time>
      </trkpt>
      <trkpt lat="44.09336" lon="0.4944">
        <ele>140</ele>
        <time>2025-11-05T15:02:48.446Z</time>
      </trkpt>
      <trkpt lat="44.09336" lon="0.49439">
        <ele>139</ele>
        <time>2025-11-05T15:02:49.446Z</time>
      </trkpt>
      <trkpt lat="44.09337" lon="0.49437">
        <ele>139</ele>
        <time>2025-11-05T15:02:50.446Z</time>
      </trkpt>
      <trkpt lat="44.09337" lon="0.49435">
        <ele>139</ele>
        <time>2025-11-05T15:02:51.446Z</time>
      </trkpt>
      <trkpt lat="44.09337" lon="0.49434">
        <ele>139</ele>
        <time>2025-11-05T15:02:52.446Z</time>
      </trkpt>
      <trkpt lat="44.09337" lon="0.49432">
        <ele>139</ele>
        <time>2025-11-05T15:02:53.446Z</time>
      </trkpt>
      <trkpt lat="44.09338" lon="0.49431">
        <ele>139</ele>
        <time>2025-11-05T15:02:54.446Z</time>
      </trkpt>
      <trkpt lat="44.09338" lon="0.4943">
        <ele>139</ele>
        <time>2025-11-05T15:02:55.446Z</time>
      </trkpt>
      <trkpt lat="44.09338" lon="0.49428">
        <ele>139</ele>
        <time>2025-11-05T15:02:56.446Z</time>
      </trkpt>
      <trkpt lat="44.09338" lon="0.49426">
        <ele>139</ele>
        <time>2025-11-05T15:02:57.446Z</time>
      </trkpt>
      <trkpt lat="44.09339" lon="0.49424">
        <ele>139</ele>
        <time>2025-11-05T15:02:58.446Z</time>
      </trkpt>
      <trkpt lat="44.09339" lon="0.49423">
        <ele>139</ele>
        <time>2025-11-05T15:02:59.446Z</time>
      </trkpt>
      <trkpt lat="44.09339" lon="0.49421">
        <ele>139</ele>
        <time>2025-11-05T15:03:00.446Z</time>
      </trkpt>
      <trkpt lat="44.09339" lon="0.49419">
        <ele>139</ele>
        <time>2025-11-05T15:03:01.446Z</time>
      </trkpt>
      <trkpt lat="44.09339" lon="0.49418">
        <ele>139</ele>
        <time>2025-11-05T15:03:02.446Z</time>
      </trkpt>
      <trkpt lat="44.0934" lon="0.49417">
        <ele>139</ele>
        <time>2025-11-05T15:03:03.446Z</time>
      </trkpt>
      <trkpt lat="44.0934" lon="0.49415">
        <ele>139</ele>
        <time>2025-11-05T15:03:04.446Z</time>
      </trkpt>
      <trkpt lat="44.0934" lon="0.49413">
        <ele>139</ele>
        <time>2025-11-05T15:03:05.446Z</time>
      </trkpt>
      <trkpt lat="44.09341" lon="0.49411">
        <ele>139</ele>
        <time>2025-11-05T15:03:06.446Z</time>
      </trkpt>
      <trkpt lat="44.09341" lon="0.49409">
        <ele>140</ele>
        <time>2025-11-05T15:03:07.446Z</time>
      </trkpt>
      <trkpt lat="44.09341" lon="0.49407">
        <ele>140</ele>
        <time>2025-11-05T15:03:08.446Z</time>
      </trkpt>
      <trkpt lat="44.09341" lon="0.49406">
        <ele>140</ele>
        <time>2025-11-05T15:03:09.446Z</time>
      </trkpt>
      <trkpt lat="44.09341" lon="0.49404">
        <ele>140</ele>
        <time>2025-11-05T15:03:10.446Z</time>
      </trkpt>
      <trkpt lat="44.09342" lon="0.49403">
        <ele>140</ele>
        <time>2025-11-05T15:03:11.446Z</time>
      </trkpt>
      <trkpt lat="44.09342" lon="0.49401">
        <ele>140</ele>
        <time>2025-11-05T15:03:12.446Z</time>
      </trkpt>
      <trkpt lat="44.09342" lon="0.49399">
        <ele>139</ele>
        <time>2025-11-05T15:03:13.446Z</time>
      </trkpt>
      <trkpt lat="44.09342" lon="0.49397">
        <ele>139</ele>
        <time>2025-11-05T15:03:14.446Z</time>
      </trkpt>
      <trkpt lat="44.09342" lon="0.49395">
        <ele>139</ele>
        <time>2025-11-05T15:03:15.446Z</time>
      </trkpt>
      <trkpt lat="44.09342" lon="0.49394">
        <ele>139</ele>
        <time>2025-11-05T15:03:16.446Z</time>
      </trkpt>
      <trkpt lat="44.09342" lon="0.49392">
        <ele>139</ele>
        <time>2025-11-05T15:03:17.446Z</time>
      </trkpt>
      <trkpt lat="44.09342" lon="0.4939">
        <ele>138</ele>
        <time>2025-11-05T15:03:18.446Z</time>
      </trkpt>
      <trkpt lat="44.09343" lon="0.49388">
        <ele>138</ele>
        <time>2025-11-05T15:03:19.446Z</time>
      </trkpt>
      <trkpt lat="44.09343" lon="0.49386">
        <ele>139</ele>
        <time>2025-11-05T15:03:20.446Z</time>
      </trkpt>
      <trkpt lat="44.09343" lon="0.49385">
        <ele>138</ele>
        <time>2025-11-05T15:03:21.446Z</time>
      </trkpt>
      <trkpt lat="44.09343" lon="0.49383">
        <ele>138</ele>
        <time>2025-11-05T15:03:22.446Z</time>
      </trkpt>
      <trkpt lat="44.09343" lon="0.49382">
        <ele>138</ele>
        <time>2025-11-05T15:03:23.446Z</time>
      </trkpt>
      <trkpt lat="44.09343" lon="0.4938">
        <ele>138</ele>
        <time>2025-11-05T15:03:24.446Z</time>
      </trkpt>
      <trkpt lat="44.09343" lon="0.49378">
        <ele>138</ele>
        <time>2025-11-05T15:03:25.446Z</time>
      </trkpt>
      <trkpt lat="44.09343" lon="0.49377">
        <ele>138</ele>
        <time>2025-11-05T15:03:26.446Z</time>
      </trkpt>
      <trkpt lat="44.09343" lon="0.49375">
        <ele>138</ele>
        <time>2025-11-05T15:03:27.446Z</time>
      </trkpt>
      <trkpt lat="44.09343" lon="0.49374">
        <ele>138</ele>
        <time>2025-11-05T15:03:28.446Z</time>
      </trkpt>
      <trkpt lat="44.09343" lon="0.49372">
        <ele>138</ele>
        <time>2025-11-05T15:03:29.446Z</time>
      </trkpt>
      <trkpt lat="44.09343" lon="0.49371">
        <ele>138</ele>
        <time>2025-11-05T15:03:30.446Z</time>
      </trkpt>
      <trkpt lat="44.09344" lon="0.49369">
        <ele>138</ele>
        <time>2025-11-05T15:03:31.446Z</time>
      </trkpt>
      <trkpt lat="44.09344" lon="0.49367">
        <ele>138</ele>
        <time>2025-11-05T15:03:32.446Z</time>
      </trkpt>
      <trkpt lat="44.09344" lon="0.49366">
        <ele>138</ele>
        <time>2025-11-05T15:03:33.446Z</time>
      </trkpt>
      <trkpt lat="44.09344" lon="0.49363">
        <ele>138</ele>
        <time>2025-11-05T15:03:34.446Z</time>
      </trkpt>
      <trkpt lat="44.09344" lon="0.49362">
        <ele>138</ele>
        <time>2025-11-05T15:03:35.446Z</time>
      </trkpt>
      <trkpt lat="44.09345" lon="0.4936">
        <ele>138</ele>
        <time>2025-11-05T15:03:36.446Z</time>
      </trkpt>
      <trkpt lat="44.09345" lon="0.49359">
        <ele>138</ele>
        <time>2025-11-05T15:03:37.446Z</time>
      </trkpt>
      <trkpt lat="44.09345" lon="0.49357">
        <ele>138</ele>
        <time>2025-11-05T15:03:38.446Z</time>
      </trkpt>
      <trkpt lat="44.09345" lon="0.49355">
        <ele>138</ele>
        <time>2025-11-05T15:03:39.446Z</time>
      </trkpt>
      <trkpt lat="44.09346" lon="0.49353">
        <ele>138</ele>
        <time>2025-11-05T15:03:40.446Z</time>
      </trkpt>
      <trkpt lat="44.09346" lon="0.49352">
        <ele>138</ele>
        <time>2025-11-05T15:03:41.446Z</time>
      </trkpt>
      <trkpt lat="44.09346" lon="0.4935">
        <ele>137</ele>
        <time>2025-11-05T15:03:42.446Z</time>
      </trkpt>
      <trkpt lat="44.09346" lon="0.49348">
        <ele>137</ele>
        <time>2025-11-05T15:03:43.446Z</time>
      </trkpt>
      <trkpt lat="44.09346" lon="0.49347">
        <ele>137</ele>
        <time>2025-11-05T15:03:44.446Z</time>
      </trkpt>
      <trkpt lat="44.09346" lon="0.49345">
        <ele>138</ele>
        <time>2025-11-05T15:03:45.446Z</time>
      </trkpt>
      <trkpt lat="44.09346" lon="0.49344">
        <ele>138</ele>
        <time>2025-11-05T15:03:46.446Z</time>
      </trkpt>
      <trkpt lat="44.09347" lon="0.49342">
        <ele>138</ele>
        <time>2025-11-05T15:03:47.447Z</time>
      </trkpt>
      <trkpt lat="44.09347" lon="0.49341">
        <ele>138</ele>
        <time>2025-11-05T15:03:48.446Z</time>
      </trkpt>
      <trkpt lat="44.09347" lon="0.49339">
        <ele>138</ele>
        <time>2025-11-05T15:03:49.446Z</time>
      </trkpt>
      <trkpt lat="44.09347" lon="0.49337">
        <ele>138</ele>
        <time>2025-11-05T15:03:50.446Z</time>
      </trkpt>
      <trkpt lat="44.09347" lon="0.49335">
        <ele>137</ele>
        <time>2025-11-05T15:03:51.446Z</time>
      </trkpt>
      <trkpt lat="44.09348" lon="0.49333">
        <ele>137</ele>
        <time>2025-11-05T15:03:52.446Z</time>
      </trkpt>
      <trkpt lat="44.09348" lon="0.49332">
        <ele>137</ele>
        <time>2025-11-05T15:03:53.446Z</time>
      </trkpt>
      <trkpt lat="44.09348" lon="0.4933">
        <ele>138</ele>
        <time>2025-11-05T15:03:54.446Z</time>
      </trkpt>
      <trkpt lat="44.09348" lon="0.49329">
        <ele>138</ele>
        <time>2025-11-05T15:03:55.446Z</time>
      </trkpt>
      <trkpt lat="44.09349" lon="0.49327">
        <ele>138</ele>
        <time>2025-11-05T15:03:56.446Z</time>
      </trkpt>
      <trkpt lat="44.09349" lon="0.49325">
        <ele>138</ele>
        <time>2025-11-05T15:03:57.446Z</time>
      </trkpt>
      <trkpt lat="44.09349" lon="0.49324">
        <ele>137</ele>
        <time>2025-11-05T15:03:58.446Z</time>
      </trkpt>
      <trkpt lat="44.09349" lon="0.49322">
        <ele>137</ele>
        <time>2025-11-05T15:03:59.446Z</time>
      </trkpt>
      <trkpt lat="44.0935" lon="0.4932">
        <ele>137</ele>
        <time>2025-11-05T15:04:00.446Z</time>
      </trkpt>
      <trkpt lat="44.0935" lon="0.49318">
        <ele>137</ele>
        <time>2025-11-05T15:04:01.446Z</time>
      </trkpt>
      <trkpt lat="44.0935" lon="0.49317">
        <ele>137</ele>
        <time>2025-11-05T15:04:02.446Z</time>
      </trkpt>
      <trkpt lat="44.0935" lon="0.49315">
        <ele>137</ele>
        <time>2025-11-05T15:04:03.446Z</time>
      </trkpt>
      <trkpt lat="44.0935" lon="0.49313">
        <ele>137</ele>
        <time>2025-11-05T15:04:04.447Z</time>
      </trkpt>
      <trkpt lat="44.0935" lon="0.49312">
        <ele>137</ele>
        <time>2025-11-05T15:04:05.446Z</time>
      </trkpt>
      <trkpt lat="44.09351" lon="0.4931">
        <ele>137</ele>
        <time>2025-11-05T15:04:06.446Z</time>
      </trkpt>
      <trkpt lat="44.09351" lon="0.49309">
        <ele>137</ele>
        <time>2025-11-05T15:04:07.446Z</time>
      </trkpt>
      <trkpt lat="44.09351" lon="0.49307">
        <ele>137</ele>
        <time>2025-11-05T15:04:08.446Z</time>
      </trkpt>
      <trkpt lat="44.09352" lon="0.49305">
        <ele>137</ele>
        <time>2025-11-05T15:04:09.446Z</time>
      </trkpt>
      <trkpt lat="44.09352" lon="0.49303">
        <ele>137</ele>
        <time>2025-11-05T15:04:10.446Z</time>
      </trkpt>
      <trkpt lat="44.09352" lon="0.49301">
        <ele>137</ele>
        <time>2025-11-05T15:04:11.446Z</time>
      </trkpt>
      <trkpt lat="44.09352" lon="0.49299">
        <ele>137</ele>
        <time>2025-11-05T15:04:12.446Z</time>
      </trkpt>
      <trkpt lat="44.09353" lon="0.49297">
        <ele>137</ele>
        <time>2025-11-05T15:04:13.446Z</time>
      </trkpt>
      <trkpt lat="44.09353" lon="0.49296">
        <ele>137</ele>
        <time>2025-11-05T15:04:14.446Z</time>
      </trkpt>
      <trkpt lat="44.09353" lon="0.49294">
        <ele>137</ele>
        <time>2025-11-05T15:04:15.446Z</time>
      </trkpt>
      <trkpt lat="44.09353" lon="0.49293">
        <ele>137</ele>
        <time>2025-11-05T15:04:16.446Z</time>
      </trkpt>
      <trkpt lat="44.09354" lon="0.49291">
        <ele>137</ele>
        <time>2025-11-05T15:04:17.446Z</time>
      </trkpt>
      <trkpt lat="44.09354" lon="0.4929">
        <ele>136</ele>
        <time>2025-11-05T15:04:18.446Z</time>
      </trkpt>
      <trkpt lat="44.09354" lon="0.49288">
        <ele>136</ele>
        <time>2025-11-05T15:04:19.446Z</time>
      </trkpt>
      <trkpt lat="44.09355" lon="0.49286">
        <ele>136</ele>
        <time>2025-11-05T15:04:20.446Z</time>
      </trkpt>
      <trkpt lat="44.09355" lon="0.49285">
        <ele>136</ele>
        <time>2025-11-05T15:04:21.446Z</time>
      </trkpt>
      <trkpt lat="44.09356" lon="0.49283">
        <ele>136</ele>
        <time>2025-11-05T15:04:22.446Z</time>
      </trkpt>
      <trkpt lat="44.09356" lon="0.49281">
        <ele>136</ele>
        <time>2025-11-05T15:04:23.446Z</time>
      </trkpt>
      <trkpt lat="44.09357" lon="0.4928">
        <ele>136</ele>
        <time>2025-11-05T15:04:24.446Z</time>
      </trkpt>
      <trkpt lat="44.09357" lon="0.49278">
        <ele>136</ele>
        <time>2025-11-05T15:04:25.446Z</time>
      </trkpt>
      <trkpt lat="44.09357" lon="0.49277">
        <ele>136</ele>
        <time>2025-11-05T15:04:26.446Z</time>
      </trkpt>
      <trkpt lat="44.09358" lon="0.49275">
        <ele>136</ele>
        <time>2025-11-05T15:04:27.446Z</time>
      </trkpt>
      <trkpt lat="44.09358" lon="0.49274">
        <ele>136</ele>
        <time>2025-11-05T15:04:28.446Z</time>
      </trkpt>
      <trkpt lat="44.09359" lon="0.49272">
        <ele>136</ele>
        <time>2025-11-05T15:04:29.446Z</time>
      </trkpt>
      <trkpt lat="44.09359" lon="0.49271">
        <ele>136</ele>
        <time>2025-11-05T15:04:30.446Z</time>
      </trkpt>
      <trkpt lat="44.09359" lon="0.49269">
        <ele>136</ele>
        <time>2025-11-05T15:04:31.446Z</time>
      </trkpt>
      <trkpt lat="44.0936" lon="0.49267">
        <ele>136</ele>
        <time>2025-11-05T15:04:32.446Z</time>
      </trkpt>
      <trkpt lat="44.0936" lon="0.49266">
        <ele>136</ele>
        <time>2025-11-05T15:04:33.446Z</time>
      </trkpt>
      <trkpt lat="44.09361" lon="0.49264">
        <ele>135</ele>
        <time>2025-11-05T15:04:34.446Z</time>
      </trkpt>
      <trkpt lat="44.09361" lon="0.49262">
        <ele>135</ele>
        <time>2025-11-05T15:04:35.446Z</time>
      </trkpt>
      <trkpt lat="44.09361" lon="0.49261">
        <ele>135</ele>
        <time>2025-11-05T15:04:36.446Z</time>
      </trkpt>
      <trkpt lat="44.09362" lon="0.49259">
        <ele>135</ele>
        <time>2025-11-05T15:04:37.446Z</time>
      </trkpt>
      <trkpt lat="44.09362" lon="0.49257">
        <ele>135</ele>
        <time>2025-11-05T15:04:38.446Z</time>
      </trkpt>
      <trkpt lat="44.09363" lon="0.49256">
        <ele>135</ele>
        <time>2025-11-05T15:04:39.446Z</time>
      </trkpt>
      <trkpt lat="44.09363" lon="0.49254">
        <ele>135</ele>
        <time>2025-11-05T15:04:40.446Z</time>
      </trkpt>
      <trkpt lat="44.09364" lon="0.49252">
        <ele>134</ele>
        <time>2025-11-05T15:04:41.446Z</time>
      </trkpt>
      <trkpt lat="44.09364" lon="0.4925">
        <ele>135</ele>
        <time>2025-11-05T15:04:42.446Z</time>
      </trkpt>
      <trkpt lat="44.09364" lon="0.49248">
        <ele>135</ele>
        <time>2025-11-05T15:04:43.446Z</time>
      </trkpt>
      <trkpt lat="44.09365" lon="0.49247">
        <ele>134</ele>
        <time>2025-11-05T15:04:44.446Z</time>
      </trkpt>
      <trkpt lat="44.09365" lon="0.49245">
        <ele>134</ele>
        <time>2025-11-05T15:04:45.446Z</time>
      </trkpt>
      <trkpt lat="44.09365" lon="0.49244">
        <ele>134</ele>
        <time>2025-11-05T15:04:46.446Z</time>
      </trkpt>
      <trkpt lat="44.09366" lon="0.49242">
        <ele>134</ele>
        <time>2025-11-05T15:04:47.446Z</time>
      </trkpt>
      <trkpt lat="44.09367" lon="0.49241">
        <ele>134</ele>
        <time>2025-11-05T15:04:48.446Z</time>
      </trkpt>
      <trkpt lat="44.09367" lon="0.49239">
        <ele>134</ele>
        <time>2025-11-05T15:04:49.446Z</time>
      </trkpt>
      <trkpt lat="44.09368" lon="0.49237">
        <ele>134</ele>
        <time>2025-11-05T15:04:50.446Z</time>
      </trkpt>
      <trkpt lat="44.09368" lon="0.49236">
        <ele>134</ele>
        <time>2025-11-05T15:04:51.446Z</time>
      </trkpt>
      <trkpt lat="44.09368" lon="0.49234">
        <ele>134</ele>
        <time>2025-11-05T15:04:52.446Z</time>
      </trkpt>
      <trkpt lat="44.09369" lon="0.49232">
        <ele>133</ele>
        <time>2025-11-05T15:04:53.446Z</time>
      </trkpt>
      <trkpt lat="44.09369" lon="0.49231">
        <ele>133</ele>
        <time>2025-11-05T15:04:54.446Z</time>
      </trkpt>
      <trkpt lat="44.0937" lon="0.49229">
        <ele>132</ele>
        <time>2025-11-05T15:04:55.446Z</time>
      </trkpt>
      <trkpt lat="44.0937" lon="0.49228">
        <ele>132</ele>
        <time>2025-11-05T15:04:56.446Z</time>
      </trkpt>
      <trkpt lat="44.09371" lon="0.49226">
        <ele>131</ele>
        <time>2025-11-05T15:04:57.446Z</time>
      </trkpt>
      <trkpt lat="44.09371" lon="0.49225">
        <ele>131</ele>
        <time>2025-11-05T15:04:58.446Z</time>
      </trkpt>
      <trkpt lat="44.09371" lon="0.49223">
        <ele>131</ele>
        <time>2025-11-05T15:04:59.446Z</time>
      </trkpt>
      <trkpt lat="44.09372" lon="0.49221">
        <ele>131</ele>
        <time>2025-11-05T15:05:00.446Z</time>
      </trkpt>
      <trkpt lat="44.09372" lon="0.49219">
        <ele>131</ele>
        <time>2025-11-05T15:05:01.446Z</time>
      </trkpt>
      <trkpt lat="44.09373" lon="0.49218">
        <ele>131</ele>
        <time>2025-11-05T15:05:02.446Z</time>
      </trkpt>
      <trkpt lat="44.09373" lon="0.49216">
        <ele>132</ele>
        <time>2025-11-05T15:05:03.446Z</time>
      </trkpt>
      <trkpt lat="44.09374" lon="0.49215">
        <ele>132</ele>
        <time>2025-11-05T15:05:04.446Z</time>
      </trkpt>
      <trkpt lat="44.09374" lon="0.49214">
        <ele>132</ele>
        <time>2025-11-05T15:05:05.446Z</time>
      </trkpt>
      <trkpt lat="44.09375" lon="0.49212">
        <ele>132</ele>
        <time>2025-11-05T15:05:06.446Z</time>
      </trkpt>
      <trkpt lat="44.09375" lon="0.49211">
        <ele>132</ele>
        <time>2025-11-05T15:05:07.446Z</time>
      </trkpt>
      <trkpt lat="44.09375" lon="0.49209">
        <ele>133</ele>
        <time>2025-11-05T15:05:08.446Z</time>
      </trkpt>
      <trkpt lat="44.09376" lon="0.49207">
        <ele>133</ele>
        <time>2025-11-05T15:05:09.446Z</time>
      </trkpt>
      <trkpt lat="44.09376" lon="0.49206">
        <ele>133</ele>
        <time>2025-11-05T15:05:10.446Z</time>
      </trkpt>
      <trkpt lat="44.09377" lon="0.49204">
        <ele>133</ele>
        <time>2025-11-05T15:05:11.446Z</time>
      </trkpt>
      <trkpt lat="44.09377" lon="0.49202">
        <ele>133</ele>
        <time>2025-11-05T15:05:12.446Z</time>
      </trkpt>
      <trkpt lat="44.09377" lon="0.492">
        <ele>133</ele>
        <time>2025-11-05T15:05:13.446Z</time>
      </trkpt>
      <trkpt lat="44.09378" lon="0.49199">
        <ele>132</ele>
        <time>2025-11-05T15:05:14.446Z</time>
      </trkpt>
      <trkpt lat="44.09378" lon="0.49197">
        <ele>132</ele>
        <time>2025-11-05T15:05:15.446Z</time>
      </trkpt>
      <trkpt lat="44.09379" lon="0.49196">
        <ele>132</ele>
        <time>2025-11-05T15:05:16.446Z</time>
      </trkpt>
      <trkpt lat="44.09379" lon="0.49194">
        <ele>132</ele>
        <time>2025-11-05T15:05:17.446Z</time>
      </trkpt>
      <trkpt lat="44.09379" lon="0.49193">
        <ele>132</ele>
        <time>2025-11-05T15:05:18.446Z</time>
      </trkpt>
      <trkpt lat="44.0938" lon="0.49192">
        <ele>132</ele>
        <time>2025-11-05T15:05:19.446Z</time>
      </trkpt>
      <trkpt lat="44.0938" lon="0.4919">
        <ele>132</ele>
        <time>2025-11-05T15:05:20.446Z</time>
      </trkpt>
      <trkpt lat="44.09381" lon="0.49189">
        <ele>132</ele>
        <time>2025-11-05T15:05:21.446Z</time>
      </trkpt>
      <trkpt lat="44.09381" lon="0.49187">
        <ele>132</ele>
        <time>2025-11-05T15:05:22.446Z</time>
      </trkpt>
      <trkpt lat="44.09381" lon="0.49186">
        <ele>132</ele>
        <time>2025-11-05T15:05:23.446Z</time>
      </trkpt>
      <trkpt lat="44.09382" lon="0.49184">
        <ele>131</ele>
        <time>2025-11-05T15:05:24.446Z</time>
      </trkpt>
      <trkpt lat="44.09382" lon="0.49183">
        <ele>131</ele>
        <time>2025-11-05T15:05:25.446Z</time>
      </trkpt>
      <trkpt lat="44.09382" lon="0.49181">
        <ele>132</ele>
        <time>2025-11-05T15:05:26.446Z</time>
      </trkpt>
      <trkpt lat="44.09383" lon="0.4918">
        <ele>131</ele>
        <time>2025-11-05T15:05:27.446Z</time>
      </trkpt>
      <trkpt lat="44.09383" lon="0.49178">
        <ele>132</ele>
        <time>2025-11-05T15:05:28.446Z</time>
      </trkpt>
      <trkpt lat="44.09383" lon="0.49176">
        <ele>132</ele>
        <time>2025-11-05T15:05:29.446Z</time>
      </trkpt>
      <trkpt lat="44.09383" lon="0.49175">
        <ele>132</ele>
        <time>2025-11-05T15:05:30.446Z</time>
      </trkpt>
      <trkpt lat="44.09384" lon="0.49173">
        <ele>132</ele>
        <time>2025-11-05T15:05:31.446Z</time>
      </trkpt>
      <trkpt lat="44.09384" lon="0.49172">
        <ele>132</ele>
        <time>2025-11-05T15:05:32.446Z</time>
      </trkpt>
      <trkpt lat="44.09385" lon="0.4917">
        <ele>132</ele>
        <time>2025-11-05T15:05:33.446Z</time>
      </trkpt>
      <trkpt lat="44.09385" lon="0.49169">
        <ele>132</ele>
        <time>2025-11-05T15:05:34.446Z</time>
      </trkpt>
      <trkpt lat="44.09386" lon="0.49167">
        <ele>132</ele>
        <time>2025-11-05T15:05:35.446Z</time>
      </trkpt>
      <trkpt lat="44.09386" lon="0.49166">
        <ele>132</ele>
        <time>2025-11-05T15:05:36.446Z</time>
      </trkpt>
      <trkpt lat="44.09387" lon="0.49164">
        <ele>132</ele>
        <time>2025-11-05T15:05:37.446Z</time>
      </trkpt>
      <trkpt lat="44.09387" lon="0.49163">
        <ele>132</ele>
        <time>2025-11-05T15:05:38.446Z</time>
      </trkpt>
      <trkpt lat="44.09388" lon="0.49161">
        <ele>131</ele>
        <time>2025-11-05T15:05:39.446Z</time>
      </trkpt>
      <trkpt lat="44.09388" lon="0.49159">
        <ele>131</ele>
        <time>2025-11-05T15:05:40.446Z</time>
      </trkpt>
      <trkpt lat="44.09389" lon="0.49158">
        <ele>131</ele>
        <time>2025-11-05T15:05:41.446Z</time>
      </trkpt>
      <trkpt lat="44.09389" lon="0.49156">
        <ele>131</ele>
        <time>2025-11-05T15:05:42.446Z</time>
      </trkpt>
      <trkpt lat="44.09389" lon="0.49155">
        <ele>131</ele>
        <time>2025-11-05T15:05:43.446Z</time>
      </trkpt>
      <trkpt lat="44.0939" lon="0.49153">
        <ele>131</ele>
        <time>2025-11-05T15:05:44.446Z</time>
      </trkpt>
      <trkpt lat="44.0939" lon="0.49152">
        <ele>131</ele>
        <time>2025-11-05T15:05:45.446Z</time>
      </trkpt>
      <trkpt lat="44.09391" lon="0.4915">
        <ele>131</ele>
        <time>2025-11-05T15:05:46.446Z</time>
      </trkpt>
      <trkpt lat="44.09391" lon="0.49148">
        <ele>131</ele>
        <time>2025-11-05T15:05:47.446Z</time>
      </trkpt>
      <trkpt lat="44.09392" lon="0.49146">
        <ele>130</ele>
        <time>2025-11-05T15:05:48.446Z</time>
      </trkpt>
      <trkpt lat="44.09392" lon="0.49145">
        <ele>130</ele>
        <time>2025-11-05T15:05:49.446Z</time>
      </trkpt>
      <trkpt lat="44.09393" lon="0.49143">
        <ele>130</ele>
        <time>2025-11-05T15:05:50.446Z</time>
      </trkpt>
      <trkpt lat="44.09393" lon="0.49142">
        <ele>130</ele>
        <time>2025-11-05T15:05:51.446Z</time>
      </trkpt>
      <trkpt lat="44.09394" lon="0.4914">
        <ele>130</ele>
        <time>2025-11-05T15:05:52.446Z</time>
      </trkpt>
      <trkpt lat="44.09394" lon="0.49138">
        <ele>130</ele>
        <time>2025-11-05T15:05:53.446Z</time>
      </trkpt>
      <trkpt lat="44.09395" lon="0.49136">
        <ele>130</ele>
        <time>2025-11-05T15:05:54.446Z</time>
      </trkpt>
      <trkpt lat="44.09395" lon="0.49135">
        <ele>130</ele>
        <time>2025-11-05T15:05:55.446Z</time>
      </trkpt>
      <trkpt lat="44.09396" lon="0.49133">
        <ele>130</ele>
        <time>2025-11-05T15:05:56.446Z</time>
      </trkpt>
      <trkpt lat="44.09396" lon="0.49131">
        <ele>130</ele>
        <time>2025-11-05T15:05:57.446Z</time>
      </trkpt>
      <trkpt lat="44.09396" lon="0.49129">
        <ele>130</ele>
        <time>2025-11-05T15:05:58.446Z</time>
      </trkpt>
      <trkpt lat="44.09397" lon="0.49127">
        <ele>130</ele>
        <time>2025-11-05T15:05:59.446Z</time>
      </trkpt>
      <trkpt lat="44.09397" lon="0.49125">
        <ele>130</ele>
        <time>2025-11-05T15:06:00.446Z</time>
      </trkpt>
      <trkpt lat="44.09397" lon="0.49124">
        <ele>129</ele>
        <time>2025-11-05T15:06:01.446Z</time>
      </trkpt>
      <trkpt lat="44.09398" lon="0.49122">
        <ele>129</ele>
        <time>2025-11-05T15:06:02.446Z</time>
      </trkpt>
      <trkpt lat="44.09398" lon="0.49121">
        <ele>130</ele>
        <time>2025-11-05T15:06:03.446Z</time>
      </trkpt>
      <trkpt lat="44.09399" lon="0.4912">
        <ele>130</ele>
        <time>2025-11-05T15:06:04.446Z</time>
      </trkpt>
      <trkpt lat="44.09399" lon="0.49118">
        <ele>130</ele>
        <time>2025-11-05T15:06:05.446Z</time>
      </trkpt>
      <trkpt lat="44.094" lon="0.49117">
        <ele>130</ele>
        <time>2025-11-05T15:06:06.446Z</time>
      </trkpt>
      <trkpt lat="44.094" lon="0.49115">
        <ele>130</ele>
        <time>2025-11-05T15:06:07.446Z</time>
      </trkpt>
      <trkpt lat="44.09401" lon="0.49113">
        <ele>129</ele>
        <time>2025-11-05T15:06:08.446Z</time>
      </trkpt>
      <trkpt lat="44.09401" lon="0.49111">
        <ele>129</ele>
        <time>2025-11-05T15:06:09.446Z</time>
      </trkpt>
      <trkpt lat="44.09401" lon="0.4911">
        <ele>129</ele>
        <time>2025-11-05T15:06:10.446Z</time>
      </trkpt>
      <trkpt lat="44.09401" lon="0.49108">
        <ele>129</ele>
        <time>2025-11-05T15:06:11.446Z</time>
      </trkpt>
      <trkpt lat="44.09402" lon="0.49107">
        <ele>128</ele>
        <time>2025-11-05T15:06:12.446Z</time>
      </trkpt>
      <trkpt lat="44.09402" lon="0.49105">
        <ele>128</ele>
        <time>2025-11-05T15:06:13.446Z</time>
      </trkpt>
      <trkpt lat="44.09403" lon="0.49104">
        <ele>128</ele>
        <time>2025-11-05T15:06:14.446Z</time>
      </trkpt>
      <trkpt lat="44.09403" lon="0.49102">
        <ele>128</ele>
        <time>2025-11-05T15:06:15.446Z</time>
      </trkpt>
      <trkpt lat="44.09403" lon="0.491">
        <ele>128</ele>
        <time>2025-11-05T15:06:16.446Z</time>
      </trkpt>
      <trkpt lat="44.09404" lon="0.49098">
        <ele>128</ele>
        <time>2025-11-05T15:06:17.446Z</time>
      </trkpt>
      <trkpt lat="44.09404" lon="0.49096">
        <ele>128</ele>
        <time>2025-11-05T15:06:18.446Z</time>
      </trkpt>
      <trkpt lat="44.09404" lon="0.49094">
        <ele>128</ele>
        <time>2025-11-05T15:06:19.446Z</time>
      </trkpt>
      <trkpt lat="44.09404" lon="0.49093">
        <ele>129</ele>
        <time>2025-11-05T15:06:20.446Z</time>
      </trkpt>
      <trkpt lat="44.09405" lon="0.49092">
        <ele>129</ele>
        <time>2025-11-05T15:06:21.446Z</time>
      </trkpt>
      <trkpt lat="44.09405" lon="0.4909">
        <ele>129</ele>
        <time>2025-11-05T15:06:22.446Z</time>
      </trkpt>
      <trkpt lat="44.09406" lon="0.49088">
        <ele>129</ele>
        <time>2025-11-05T15:06:23.446Z</time>
      </trkpt>
      <trkpt lat="44.09406" lon="0.49087">
        <ele>129</ele>
        <time>2025-11-05T15:06:24.446Z</time>
      </trkpt>
      <trkpt lat="44.09406" lon="0.49085">
        <ele>129</ele>
        <time>2025-11-05T15:06:25.446Z</time>
      </trkpt>
      <trkpt lat="44.09407" lon="0.49084">
        <ele>130</ele>
        <time>2025-11-05T15:06:26.446Z</time>
      </trkpt>
      <trkpt lat="44.09407" lon="0.49082">
        <ele>130</ele>
        <time>2025-11-05T15:06:27.446Z</time>
      </trkpt>
      <trkpt lat="44.09408" lon="0.4908">
        <ele>130</ele>
        <time>2025-11-05T15:06:28.446Z</time>
      </trkpt>
      <trkpt lat="44.09408" lon="0.49078">
        <ele>130</ele>
        <time>2025-11-05T15:06:29.446Z</time>
      </trkpt>
      <trkpt lat="44.09408" lon="0.49076">
        <ele>131</ele>
        <time>2025-11-05T15:06:30.446Z</time>
      </trkpt>
      <trkpt lat="44.09409" lon="0.49075">
        <ele>131</ele>
        <time>2025-11-05T15:06:31.446Z</time>
      </trkpt>
      <trkpt lat="44.09409" lon="0.49074">
        <ele>131</ele>
        <time>2025-11-05T15:06:32.446Z</time>
      </trkpt>
      <trkpt lat="44.09409" lon="0.49072">
        <ele>131</ele>
        <time>2025-11-05T15:06:33.446Z</time>
      </trkpt>
      <trkpt lat="44.09409" lon="0.4907">
        <ele>131</ele>
        <time>2025-11-05T15:06:34.446Z</time>
      </trkpt>
      <trkpt lat="44.0941" lon="0.49068">
        <ele>131</ele>
        <time>2025-11-05T15:06:35.446Z</time>
      </trkpt>
      <trkpt lat="44.0941" lon="0.49067">
        <ele>131</ele>
        <time>2025-11-05T15:06:36.446Z</time>
      </trkpt>
      <trkpt lat="44.0941" lon="0.49065">
        <ele>130</ele>
        <time>2025-11-05T15:06:37.446Z</time>
      </trkpt>
      <trkpt lat="44.09411" lon="0.49063">
        <ele>130</ele>
        <time>2025-11-05T15:06:38.446Z</time>
      </trkpt>
      <trkpt lat="44.09411" lon="0.49061">
        <ele>130</ele>
        <time>2025-11-05T15:06:39.446Z</time>
      </trkpt>
      <trkpt lat="44.09411" lon="0.4906">
        <ele>130</ele>
        <time>2025-11-05T15:06:40.446Z</time>
      </trkpt>
      <trkpt lat="44.09412" lon="0.49059">
        <ele>131</ele>
        <time>2025-11-05T15:06:41.446Z</time>
      </trkpt>
      <trkpt lat="44.09412" lon="0.49057">
        <ele>130</ele>
        <time>2025-11-05T15:06:42.446Z</time>
      </trkpt>
      <trkpt lat="44.09412" lon="0.49056">
        <ele>130</ele>
        <time>2025-11-05T15:06:43.446Z</time>
      </trkpt>
      <trkpt lat="44.09413" lon="0.49054">
        <ele>130</ele>
        <time>2025-11-05T15:06:44.446Z</time>
      </trkpt>
      <trkpt lat="44.09413" lon="0.49052">
        <ele>130</ele>
        <time>2025-11-05T15:06:45.446Z</time>
      </trkpt>
      <trkpt lat="44.09414" lon="0.4905">
        <ele>130</ele>
        <time>2025-11-05T15:06:46.446Z</time>
      </trkpt>
      <trkpt lat="44.09414" lon="0.49048">
        <ele>130</ele>
        <time>2025-11-05T15:06:47.446Z</time>
      </trkpt>
      <trkpt lat="44.09414" lon="0.49046">
        <ele>129</ele>
        <time>2025-11-05T15:06:48.446Z</time>
      </trkpt>
      <trkpt lat="44.09414" lon="0.49045">
        <ele>129</ele>
        <time>2025-11-05T15:06:49.446Z</time>
      </trkpt>
      <trkpt lat="44.09415" lon="0.49043">
        <ele>129</ele>
        <time>2025-11-05T15:06:50.446Z</time>
      </trkpt>
      <trkpt lat="44.09415" lon="0.49042">
        <ele>130</ele>
        <time>2025-11-05T15:06:51.446Z</time>
      </trkpt>
      <trkpt lat="44.09415" lon="0.4904">
        <ele>130</ele>
        <time>2025-11-05T15:06:52.446Z</time>
      </trkpt>
      <trkpt lat="44.09415" lon="0.49039">
        <ele>130</ele>
        <time>2025-11-05T15:06:53.446Z</time>
      </trkpt>
      <trkpt lat="44.09416" lon="0.49037">
        <ele>130</ele>
        <time>2025-11-05T15:06:54.446Z</time>
      </trkpt>
      <trkpt lat="44.09416" lon="0.49036">
        <ele>130</ele>
        <time>2025-11-05T15:06:55.446Z</time>
      </trkpt>
      <trkpt lat="44.09417" lon="0.49034">
        <ele>129</ele>
        <time>2025-11-05T15:06:56.446Z</time>
      </trkpt>
      <trkpt lat="44.09417" lon="0.49033">
        <ele>129</ele>
        <time>2025-11-05T15:06:57.446Z</time>
      </trkpt>
      <trkpt lat="44.09417" lon="0.49032">
        <ele>129</ele>
        <time>2025-11-05T15:06:58.446Z</time>
      </trkpt>
      <trkpt lat="44.09417" lon="0.4903">
        <ele>129</ele>
        <time>2025-11-05T15:06:59.446Z</time>
      </trkpt>
      <trkpt lat="44.09417" lon="0.49029">
        <ele>129</ele>
        <time>2025-11-05T15:07:00.446Z</time>
      </trkpt>
      <trkpt lat="44.09417" lon="0.49027">
        <ele>129</ele>
        <time>2025-11-05T15:07:01.446Z</time>
      </trkpt>
      <trkpt lat="44.09418" lon="0.49026">
        <ele>130</ele>
        <time>2025-11-05T15:07:02.446Z</time>
      </trkpt>
      <trkpt lat="44.09418" lon="0.49024">
        <ele>130</ele>
        <time>2025-11-05T15:07:03.446Z</time>
      </trkpt>
      <trkpt lat="44.09418" lon="0.49022">
        <ele>130</ele>
        <time>2025-11-05T15:07:04.446Z</time>
      </trkpt>
      <trkpt lat="44.09418" lon="0.49021">
        <ele>130</ele>
        <time>2025-11-05T15:07:05.446Z</time>
      </trkpt>
      <trkpt lat="44.09418" lon="0.49019">
        <ele>131</ele>
        <time>2025-11-05T15:07:06.446Z</time>
      </trkpt>
      <trkpt lat="44.09418" lon="0.49018">
        <ele>131</ele>
        <time>2025-11-05T15:07:07.446Z</time>
      </trkpt>
      <trkpt lat="44.09419" lon="0.49016">
        <ele>131</ele>
        <time>2025-11-05T15:07:08.446Z</time>
      </trkpt>
      <trkpt lat="44.09419" lon="0.49014">
        <ele>131</ele>
        <time>2025-11-05T15:07:09.446Z</time>
      </trkpt>
      <trkpt lat="44.09419" lon="0.49013">
        <ele>131</ele>
        <time>2025-11-05T15:07:10.446Z</time>
      </trkpt>
      <trkpt lat="44.0942" lon="0.49012">
        <ele>131</ele>
        <time>2025-11-05T15:07:11.446Z</time>
      </trkpt>
      <trkpt lat="44.0942" lon="0.4901">
        <ele>132</ele>
        <time>2025-11-05T15:07:12.446Z</time>
      </trkpt>
      <trkpt lat="44.09421" lon="0.49009">
        <ele>132</ele>
        <time>2025-11-05T15:07:13.446Z</time>
      </trkpt>
      <trkpt lat="44.09421" lon="0.49007">
        <ele>132</ele>
        <time>2025-11-05T15:07:14.446Z</time>
      </trkpt>
      <trkpt lat="44.09421" lon="0.49005">
        <ele>132</ele>
        <time>2025-11-05T15:07:15.446Z</time>
      </trkpt>
      <trkpt lat="44.09421" lon="0.49004">
        <ele>132</ele>
        <time>2025-11-05T15:07:16.446Z</time>
      </trkpt>
      <trkpt lat="44.09421" lon="0.49003">
        <ele>131</ele>
        <time>2025-11-05T15:07:17.446Z</time>
      </trkpt>
      <trkpt lat="44.09422" lon="0.49002">
        <ele>131</ele>
        <time>2025-11-05T15:07:18.446Z</time>
      </trkpt>
      <trkpt lat="44.09422" lon="0.49">
        <ele>131</ele>
        <time>2025-11-05T15:07:19.446Z</time>
      </trkpt>
      <trkpt lat="44.09422" lon="0.48998">
        <ele>132</ele>
        <time>2025-11-05T15:07:20.446Z</time>
      </trkpt>
      <trkpt lat="44.09423" lon="0.48997">
        <ele>132</ele>
        <time>2025-11-05T15:07:21.446Z</time>
      </trkpt>
      <trkpt lat="44.09423" lon="0.48995">
        <ele>132</ele>
        <time>2025-11-05T15:07:22.446Z</time>
      </trkpt>
      <trkpt lat="44.09423" lon="0.48993">
        <ele>132</ele>
        <time>2025-11-05T15:07:23.446Z</time>
      </trkpt>
      <trkpt lat="44.09424" lon="0.48992">
        <ele>133</ele>
        <time>2025-11-05T15:07:24.446Z</time>
      </trkpt>
      <trkpt lat="44.09424" lon="0.48991">
        <ele>133</ele>
        <time>2025-11-05T15:07:25.446Z</time>
      </trkpt>
      <trkpt lat="44.09424" lon="0.4899">
        <ele>133</ele>
        <time>2025-11-05T15:07:26.446Z</time>
      </trkpt>
      <trkpt lat="44.09424" lon="0.48988">
        <ele>133</ele>
        <time>2025-11-05T15:07:27.446Z</time>
      </trkpt>
      <trkpt lat="44.09425" lon="0.48986">
        <ele>133</ele>
        <time>2025-11-05T15:07:28.446Z</time>
      </trkpt>
      <trkpt lat="44.09425" lon="0.48985">
        <ele>133</ele>
        <time>2025-11-05T15:07:29.446Z</time>
      </trkpt>
      <trkpt lat="44.09426" lon="0.48983">
        <ele>133</ele>
        <time>2025-11-05T15:07:30.446Z</time>
      </trkpt>
      <trkpt lat="44.09426" lon="0.48982">
        <ele>133</ele>
        <time>2025-11-05T15:07:31.446Z</time>
      </trkpt>
      <trkpt lat="44.09426" lon="0.4898">
        <ele>133</ele>
        <time>2025-11-05T15:07:32.446Z</time>
      </trkpt>
      <trkpt lat="44.09426" lon="0.48979">
        <ele>133</ele>
        <time>2025-11-05T15:07:33.446Z</time>
      </trkpt>
      <trkpt lat="44.09427" lon="0.48977">
        <ele>133</ele>
        <time>2025-11-05T15:07:34.446Z</time>
      </trkpt>
      <trkpt lat="44.09427" lon="0.48975">
        <ele>133</ele>
        <time>2025-11-05T15:07:35.446Z</time>
      </trkpt>
      <trkpt lat="44.09427" lon="0.48974">
        <ele>133</ele>
        <time>2025-11-05T15:07:36.446Z</time>
      </trkpt>
      <trkpt lat="44.09428" lon="0.48972">
        <ele>133</ele>
        <time>2025-11-05T15:07:37.446Z</time>
      </trkpt>
      <trkpt lat="44.09428" lon="0.48971">
        <ele>133</ele>
        <time>2025-11-05T15:07:38.446Z</time>
      </trkpt>
      <trkpt lat="44.09429" lon="0.48969">
        <ele>132</ele>
        <time>2025-11-05T15:07:39.446Z</time>
      </trkpt>
      <trkpt lat="44.09429" lon="0.48967">
        <ele>132</ele>
        <time>2025-11-05T15:07:40.446Z</time>
      </trkpt>
      <trkpt lat="44.09429" lon="0.48966">
        <ele>132</ele>
        <time>2025-11-05T15:07:41.446Z</time>
      </trkpt>
      <trkpt lat="44.0943" lon="0.48964">
        <ele>133</ele>
        <time>2025-11-05T15:07:42.446Z</time>
      </trkpt>
      <trkpt lat="44.0943" lon="0.48963">
        <ele>132</ele>
        <time>2025-11-05T15:07:43.447Z</time>
      </trkpt>
      <trkpt lat="44.09431" lon="0.48961">
        <ele>132</ele>
        <time>2025-11-05T15:07:44.446Z</time>
      </trkpt>
      <trkpt lat="44.09431" lon="0.48959">
        <ele>132</ele>
        <time>2025-11-05T15:07:45.446Z</time>
      </trkpt>
      <trkpt lat="44.09432" lon="0.48958">
        <ele>132</ele>
        <time>2025-11-05T15:07:46.446Z</time>
      </trkpt>
      <trkpt lat="44.09432" lon="0.48956">
        <ele>132</ele>
        <time>2025-11-05T15:07:47.446Z</time>
      </trkpt>
      <trkpt lat="44.09432" lon="0.48954">
        <ele>132</ele>
        <time>2025-11-05T15:07:48.446Z</time>
      </trkpt>
      <trkpt lat="44.09432" lon="0.48952">
        <ele>133</ele>
        <time>2025-11-05T15:07:49.446Z</time>
      </trkpt>
      <trkpt lat="44.09432" lon="0.4895">
        <ele>133</ele>
        <time>2025-11-05T15:07:50.446Z</time>
      </trkpt>
      <trkpt lat="44.09432" lon="0.48949">
        <ele>133</ele>
        <time>2025-11-05T15:07:51.446Z</time>
      </trkpt>
      <trkpt lat="44.09433" lon="0.48948">
        <ele>134</ele>
        <time>2025-11-05T15:07:52.446Z</time>
      </trkpt>
      <trkpt lat="44.09433" lon="0.48946">
        <ele>134</ele>
        <time>2025-11-05T15:07:53.446Z</time>
      </trkpt>
      <trkpt lat="44.09433" lon="0.48945">
        <ele>134</ele>
        <time>2025-11-05T15:07:54.446Z</time>
      </trkpt>
      <trkpt lat="44.09434" lon="0.48943">
        <ele>134</ele>
        <time>2025-11-05T15:07:55.446Z</time>
      </trkpt>
      <trkpt lat="44.09434" lon="0.48942">
        <ele>134</ele>
        <time>2025-11-05T15:07:56.446Z</time>
      </trkpt>
      <trkpt lat="44.09435" lon="0.48941">
        <ele>134</ele>
        <time>2025-11-05T15:07:57.446Z</time>
      </trkpt>
      <trkpt lat="44.09435" lon="0.4894">
        <ele>134</ele>
        <time>2025-11-05T15:07:58.446Z</time>
      </trkpt>
      <trkpt lat="44.09436" lon="0.48939">
        <ele>134</ele>
        <time>2025-11-05T15:07:59.446Z</time>
      </trkpt>
      <trkpt lat="44.09436" lon="0.48938">
        <ele>134</ele>
        <time>2025-11-05T15:08:00.446Z</time>
      </trkpt>
      <trkpt lat="44.09436" lon="0.48936">
        <ele>134</ele>
        <time>2025-11-05T15:08:01.446Z</time>
      </trkpt>
      <trkpt lat="44.09437" lon="0.48934">
        <ele>134</ele>
        <time>2025-11-05T15:08:02.446Z</time>
      </trkpt>
      <trkpt lat="44.09437" lon="0.48933">
        <ele>134</ele>
        <time>2025-11-05T15:08:03.446Z</time>
      </trkpt>
      <trkpt lat="44.09437" lon="0.48931">
        <ele>134</ele>
        <time>2025-11-05T15:08:04.446Z</time>
      </trkpt>
      <trkpt lat="44.09437" lon="0.4893">
        <ele>134</ele>
        <time>2025-11-05T15:08:05.446Z</time>
      </trkpt>
      <trkpt lat="44.09437" lon="0.48929">
        <ele>134</ele>
        <time>2025-11-05T15:08:06.446Z</time>
      </trkpt>
      <trkpt lat="44.09436" lon="0.48928">
        <ele>134</ele>
        <time>2025-11-05T15:08:07.446Z</time>
      </trkpt>
      <trkpt lat="44.09436" lon="0.48927">
        <ele>134</ele>
        <time>2025-11-05T15:08:08.446Z</time>
      </trkpt>
      <trkpt lat="44.09436" lon="0.48926">
        <ele>134</ele>
        <time>2025-11-05T15:08:09.446Z</time>
      </trkpt>
      <trkpt lat="44.09435" lon="0.48926">
        <ele>133</ele>
        <time>2025-11-05T15:08:10.446Z</time>
      </trkpt>
      <trkpt lat="44.09435" lon="0.48925">
        <ele>133</ele>
        <time>2025-11-05T15:08:11.446Z</time>
      </trkpt>
      <trkpt lat="44.09435" lon="0.48925">
        <ele>133</ele>
        <time>2025-11-05T15:08:12.446Z</time>
      </trkpt>
      <trkpt lat="44.09435" lon="0.48925">
        <ele>133</ele>
        <time>2025-11-05T15:08:13.446Z</time>
      </trkpt>
      <trkpt lat="44.09435" lon="0.48925">
        <ele>133</ele>
        <time>2025-11-05T15:08:14.446Z</time>
      </trkpt>
      <trkpt lat="44.09435" lon="0.48925">
        <ele>134</ele>
        <time>2025-11-05T15:08:15.446Z</time>
      </trkpt>
      <trkpt lat="44.09435" lon="0.48924">
        <ele>134</ele>
        <time>2025-11-05T15:08:16.446Z</time>
      </trkpt>
      <trkpt lat="44.09434" lon="0.48923">
        <ele>134</ele>
        <time>2025-11-05T15:08:17.446Z</time>
      </trkpt>
      <trkpt lat="44.09434" lon="0.48922">
        <ele>134</ele>
        <time>2025-11-05T15:08:18.446Z</time>
      </trkpt>
      <trkpt lat="44.09434" lon="0.4892">
        <ele>134</ele>
        <time>2025-11-05T15:08:19.446Z</time>
      </trkpt>
      <trkpt lat="44.09434" lon="0.48919">
        <ele>134</ele>
        <time>2025-11-05T15:08:20.446Z</time>
      </trkpt>
      <trkpt lat="44.09435" lon="0.48917">
        <ele>134</ele>
        <time>2025-11-05T15:08:21.446Z</time>
      </trkpt>
      <trkpt lat="44.09436" lon="0.48915">
        <ele>134</ele>
        <time>2025-11-05T15:08:22.446Z</time>
      </trkpt>
      <trkpt lat="44.09436" lon="0.48914">
        <ele>135</ele>
        <time>2025-11-05T15:08:23.446Z</time>
      </trkpt>
      <trkpt lat="44.09437" lon="0.48912">
        <ele>135</ele>
        <time>2025-11-05T15:08:24.446Z</time>
      </trkpt>
      <trkpt lat="44.09438" lon="0.48911">
        <ele>135</ele>
        <time>2025-11-05T15:08:25.446Z</time>
      </trkpt>
      <trkpt lat="44.09439" lon="0.4891">
        <ele>134</ele>
        <time>2025-11-05T15:08:26.446Z</time>
      </trkpt>
      <trkpt lat="44.0944" lon="0.4891">
        <ele>134</ele>
        <time>2025-11-05T15:08:27.446Z</time>
      </trkpt>
      <trkpt lat="44.09441" lon="0.48909">
        <ele>134</ele>
        <time>2025-11-05T15:08:28.446Z</time>
      </trkpt>
      <trkpt lat="44.09442" lon="0.48908">
        <ele>134</ele>
        <time>2025-11-05T15:08:29.446Z</time>
      </trkpt>
      <trkpt lat="44.09442" lon="0.48907">
        <ele>133</ele>
        <time>2025-11-05T15:08:30.446Z</time>
      </trkpt>
      <trkpt lat="44.09442" lon="0.48906">
        <ele>133</ele>
        <time>2025-11-05T15:08:31.446Z</time>
      </trkpt>
      <trkpt lat="44.09443" lon="0.48906">
        <ele>133</ele>
        <time>2025-11-05T15:08:32.446Z</time>
      </trkpt>
      <trkpt lat="44.09443" lon="0.48905">
        <ele>133</ele>
        <time>2025-11-05T15:08:33.446Z</time>
      </trkpt>
      <trkpt lat="44.09442" lon="0.48905">
        <ele>133</ele>
        <time>2025-11-05T15:08:34.446Z</time>
      </trkpt>
      <trkpt lat="44.09442" lon="0.48905">
        <ele>133</ele>
        <time>2025-11-05T15:08:35.446Z</time>
      </trkpt>
      <trkpt lat="44.09442" lon="0.48905">
        <ele>133</ele>
        <time>2025-11-05T15:08:36.446Z</time>
      </trkpt>
      <trkpt lat="44.09442" lon="0.48905">
        <ele>133</ele>
        <time>2025-11-05T15:08:37.446Z</time>
      </trkpt>
      <trkpt lat="44.09443" lon="0.48904">
        <ele>133</ele>
        <time>2025-11-05T15:08:38.446Z</time>
      </trkpt>
      <trkpt lat="44.09443" lon="0.48904">
        <ele>133</ele>
        <time>2025-11-05T15:08:39.446Z</time>
      </trkpt>
      <trkpt lat="44.09443" lon="0.48903">
        <ele>134</ele>
        <time>2025-11-05T15:08:40.446Z</time>
      </trkpt>
      <trkpt lat="44.09443" lon="0.48903">
        <ele>134</ele>
        <time>2025-11-05T15:08:41.446Z</time>
      </trkpt>
      <trkpt lat="44.09443" lon="0.48903">
        <ele>135</ele>
        <time>2025-11-05T15:08:42.446Z</time>
      </trkpt>
      <trkpt lat="44.09443" lon="0.48903">
        <ele>136</ele>
        <time>2025-11-05T15:08:43.446Z</time>
      </trkpt>
      <trkpt lat="44.09443" lon="0.48903">
        <ele>136</ele>
        <time>2025-11-05T15:08:44.446Z</time>
      </trkpt>
      <trkpt lat="44.09443" lon="0.48903">
        <ele>137</ele>
        <time>2025-11-05T15:08:45.446Z</time>
      </trkpt>
      <trkpt lat="44.09443" lon="0.48903">
        <ele>137</ele>
        <time>2025-11-05T15:08:46.446Z</time>
      </trkpt>
      <trkpt lat="44.09443" lon="0.48903">
        <ele>137</ele>
        <time>2025-11-05T15:08:47.446Z</time>
      </trkpt>
      <trkpt lat="44.09443" lon="0.48903">
        <ele>137</ele>
        <time>2025-11-05T15:08:48.446Z</time>
      </trkpt>
      <trkpt lat="44.09443" lon="0.48903">
        <ele>137</ele>
        <time>2025-11-05T15:08:49.446Z</time>
      </trkpt>
      <trkpt lat="44.09443" lon="0.48903">
        <ele>137</ele>
        <time>2025-11-05T15:08:50.446Z</time>
      </trkpt>
      <trkpt lat="44.09443" lon="0.48903">
        <ele>136</ele>
        <time>2025-11-05T15:08:51.446Z</time>
      </trkpt>
      <trkpt lat="44.09443" lon="0.48903">
        <ele>136</ele>
        <time>2025-11-05T15:08:52.446Z</time>
      </trkpt>
      <trkpt lat="44.09443" lon="0.48903">
        <ele>136</ele>
        <time>2025-11-05T15:08:53.446Z</time>
      </trkpt>
      <trkpt lat="44.09443" lon="0.48903">
        <ele>135</ele>
        <time>2025-11-05T15:08:54.446Z</time>
      </trkpt>
      <trkpt lat="44.09443" lon="0.48903">
        <ele>135</ele>
        <time>2025-11-05T15:08:55.446Z</time>
      </trkpt>
      <trkpt lat="44.09443" lon="0.48903">
        <ele>135</ele>
        <time>2025-11-05T15:08:56.446Z</time>
      </trkpt>
      <trkpt lat="44.09443" lon="0.48903">
        <ele>135</ele>
        <time>2025-11-05T15:08:57.446Z</time>
      </trkpt>
      <trkpt lat="44.09443" lon="0.48903">
        <ele>134</ele>
        <time>2025-11-05T15:08:58.446Z</time>
      </trkpt>
      <trkpt lat="44.09443" lon="0.48903">
        <ele>134</ele>
        <time>2025-11-05T15:08:59.446Z</time>
      </trkpt>
      <trkpt lat="44.09443" lon="0.48903">
        <ele>134</ele>
        <time>2025-11-05T15:09:00.446Z</time>
      </trkpt>
      <trkpt lat="44.09443" lon="0.48903">
        <ele>134</ele>
        <time>2025-11-05T15:09:01.446Z</time>
      </trkpt>
      <trkpt lat="44.09443" lon="0.48903">
        <ele>134</ele>
        <time>2025-11-05T15:09:02.446Z</time>
      </trkpt>
      <trkpt lat="44.09442" lon="0.48903">
        <ele>134</ele>
        <time>2025-11-05T15:09:03.446Z</time>
      </trkpt>
      <trkpt lat="44.09442" lon="0.48903">
        <ele>133</ele>
        <time>2025-11-05T15:09:04.446Z</time>
      </trkpt>
      <trkpt lat="44.09442" lon="0.48903">
        <ele>133</ele>
        <time>2025-11-05T15:09:05.446Z</time>
      </trkpt>
      <trkpt lat="44.09442" lon="0.48903">
        <ele>133</ele>
        <time>2025-11-05T15:09:06.446Z</time>
      </trkpt>
      <trkpt lat="44.09442" lon="0.48903">
        <ele>133</ele>
        <time>2025-11-05T15:09:07.446Z</time>
      </trkpt>
      <trkpt lat="44.09442" lon="0.48903">
        <ele>134</ele>
        <time>2025-11-05T15:09:08.446Z</time>
      </trkpt>
      <trkpt lat="44.09442" lon="0.48903">
        <ele>134</ele>
        <time>2025-11-05T15:09:09.446Z</time>
      </trkpt>
      <trkpt lat="44.09442" lon="0.48903">
        <ele>135</ele>
        <time>2025-11-05T15:09:10.446Z</time>
      </trkpt>
      <trkpt lat="44.09442" lon="0.48903">
        <ele>135</ele>
        <time>2025-11-05T15:09:11.446Z</time>
      </trkpt>
      <trkpt lat="44.09442" lon="0.48903">
        <ele>136</ele>
        <time>2025-11-05T15:09:12.446Z</time>
      </trkpt>
      <trkpt lat="44.09442" lon="0.48903">
        <ele>137</ele>
        <time>2025-11-05T15:09:13.446Z</time>
      </trkpt>
      <trkpt lat="44.09442" lon="0.48903">
        <ele>138</ele>
        <time>2025-11-05T15:09:14.446Z</time>
      </trkpt>
      <trkpt lat="44.09442" lon="0.48903">
        <ele>138</ele>
        <time>2025-11-05T15:09:15.446Z</time>
      </trkpt>
      <trkpt lat="44.09442" lon="0.48903">
        <ele>139</ele>
        <time>2025-11-05T15:09:16.446Z</time>
      </trkpt>
      <trkpt lat="44.09442" lon="0.48903">
        <ele>140</ele>
        <time>2025-11-05T15:09:17.446Z</time>
      </trkpt>
      <trkpt lat="44.09442" lon="0.48903">
        <ele>141</ele>
        <time>2025-11-05T15:09:18.446Z</time>
      </trkpt>
      <trkpt lat="44.09442" lon="0.48903">
        <ele>142</ele>
        <time>2025-11-05T15:09:19.446Z</time>
      </trkpt>
      <trkpt lat="44.09442" lon="0.48903">
        <ele>142</ele>
        <time>2025-11-05T15:09:20.446Z</time>
      </trkpt>
      <trkpt lat="44.09442" lon="0.48903">
        <ele>142</ele>
        <time>2025-11-05T15:09:21.446Z</time>
      </trkpt>
      <trkpt lat="44.09443" lon="0.48903">
        <ele>142</ele>
        <time>2025-11-05T15:09:22.446Z</time>
      </trkpt>
      <trkpt lat="44.09443" lon="0.48903">
        <ele>141</ele>
        <time>2025-11-05T15:09:23.446Z</time>
      </trkpt>
      <trkpt lat="44.09443" lon="0.48902">
        <ele>141</ele>
        <time>2025-11-05T15:09:24.446Z</time>
      </trkpt>
      <trkpt lat="44.09443" lon="0.48902">
        <ele>140</ele>
        <time>2025-11-05T15:09:25.446Z</time>
      </trkpt>
      <trkpt lat="44.09443" lon="0.48902">
        <ele>140</ele>
        <time>2025-11-05T15:09:26.446Z</time>
      </trkpt>
      <trkpt lat="44.09443" lon="0.48902">
        <ele>139</ele>
        <time>2025-11-05T15:09:27.446Z</time>
      </trkpt>
      <trkpt lat="44.09443" lon="0.48902">
        <ele>139</ele>
        <time>2025-11-05T15:09:28.446Z</time>
      </trkpt>
      <trkpt lat="44.09444" lon="0.48902">
        <ele>138</ele>
        <time>2025-11-05T15:09:29.446Z</time>
      </trkpt>
      <trkpt lat="44.09445" lon="0.48902">
        <ele>138</ele>
        <time>2025-11-05T15:09:30.446Z</time>
      </trkpt>
      <trkpt lat="44.09446" lon="0.48902">
        <ele>138</ele>
        <time>2025-11-05T15:09:31.446Z</time>
      </trkpt>
      <trkpt lat="44.09446" lon="0.48904">
        <ele>138</ele>
        <time>2025-11-05T15:09:32.446Z</time>
      </trkpt>
      <trkpt lat="44.09446" lon="0.48905">
        <ele>138</ele>
        <time>2025-11-05T15:09:33.446Z</time>
      </trkpt>
      <trkpt lat="44.09447" lon="0.48906">
        <ele>138</ele>
        <time>2025-11-05T15:09:34.446Z</time>
      </trkpt>
      <trkpt lat="44.09446" lon="0.48908">
        <ele>138</ele>
        <time>2025-11-05T15:09:35.446Z</time>
      </trkpt>
      <trkpt lat="44.09446" lon="0.48909">
        <ele>138</ele>
        <time>2025-11-05T15:09:36.446Z</time>
      </trkpt>
      <trkpt lat="44.09446" lon="0.48911">
        <ele>138</ele>
        <time>2025-11-05T15:09:37.446Z</time>
      </trkpt>
      <trkpt lat="44.09446" lon="0.48912">
        <ele>138</ele>
        <time>2025-11-05T15:09:38.446Z</time>
      </trkpt>
      <trkpt lat="44.09445" lon="0.48913">
        <ele>137</ele>
        <time>2025-11-05T15:09:39.446Z</time>
      </trkpt>
      <trkpt lat="44.09444" lon="0.48913">
        <ele>137</ele>
        <time>2025-11-05T15:09:40.446Z</time>
      </trkpt>
      <trkpt lat="44.09444" lon="0.48913">
        <ele>137</ele>
        <time>2025-11-05T15:09:41.446Z</time>
      </trkpt>
      <trkpt lat="44.09443" lon="0.48914">
        <ele>136</ele>
        <time>2025-11-05T15:09:42.446Z</time>
      </trkpt>
      <trkpt lat="44.09443" lon="0.48915">
        <ele>136</ele>
        <time>2025-11-05T15:09:43.446Z</time>
      </trkpt>
      <trkpt lat="44.09443" lon="0.48916">
        <ele>136</ele>
        <time>2025-11-05T15:09:44.446Z</time>
      </trkpt>
      <trkpt lat="44.09442" lon="0.48917">
        <ele>136</ele>
        <time>2025-11-05T15:09:45.446Z</time>
      </trkpt>
      <trkpt lat="44.09442" lon="0.48919">
        <ele>136</ele>
        <time>2025-11-05T15:09:46.447Z</time>
      </trkpt>
      <trkpt lat="44.09442" lon="0.4892">
        <ele>136</ele>
        <time>2025-11-05T15:09:47.446Z</time>
      </trkpt>
      <trkpt lat="44.09442" lon="0.48921">
        <ele>136</ele>
        <time>2025-11-05T15:09:48.446Z</time>
      </trkpt>
      <trkpt lat="44.09443" lon="0.48922">
        <ele>136</ele>
        <time>2025-11-05T15:09:49.446Z</time>
      </trkpt>
      <trkpt lat="44.09443" lon="0.48923">
        <ele>136</ele>
        <time>2025-11-05T15:09:50.446Z</time>
      </trkpt>
      <trkpt lat="44.09443" lon="0.48924">
        <ele>136</ele>
        <time>2025-11-05T15:09:51.446Z</time>
      </trkpt>
      <trkpt lat="44.09442" lon="0.48925">
        <ele>136</ele>
        <time>2025-11-05T15:09:52.446Z</time>
      </trkpt>
      <trkpt lat="44.09442" lon="0.48925">
        <ele>136</ele>
        <time>2025-11-05T15:09:53.446Z</time>
      </trkpt>
      <trkpt lat="44.09442" lon="0.48925">
        <ele>136</ele>
        <time>2025-11-05T15:09:54.447Z</time>
      </trkpt>
      <trkpt lat="44.09442" lon="0.48925">
        <ele>136</ele>
        <time>2025-11-05T15:09:55.446Z</time>
      </trkpt>
      <trkpt lat="44.09442" lon="0.48925">
        <ele>135</ele>
        <time>2025-11-05T15:09:56.446Z</time>
      </trkpt>
      <trkpt lat="44.09443" lon="0.48925">
        <ele>135</ele>
        <time>2025-11-05T15:09:57.446Z</time>
      </trkpt>
      <trkpt lat="44.09443" lon="0.48925">
        <ele>135</ele>
        <time>2025-11-05T15:09:58.446Z</time>
      </trkpt>
      <trkpt lat="44.09443" lon="0.48925">
        <ele>134</ele>
        <time>2025-11-05T15:09:59.446Z</time>
      </trkpt>
      <trkpt lat="44.09443" lon="0.48925">
        <ele>134</ele>
        <time>2025-11-05T15:10:00.446Z</time>
      </trkpt>
      <trkpt lat="44.09443" lon="0.48925">
        <ele>134</ele>
        <time>2025-11-05T15:10:01.446Z</time>
      </trkpt>
      <trkpt lat="44.09443" lon="0.48925">
        <ele>135</ele>
        <time>2025-11-05T15:10:02.446Z</time>
      </trkpt>
      <trkpt lat="44.09444" lon="0.48925">
        <ele>135</ele>
        <time>2025-11-05T15:10:03.446Z</time>
      </trkpt>
      <trkpt lat="44.09444" lon="0.48925">
        <ele>135</ele>
        <time>2025-11-05T15:10:04.446Z</time>
      </trkpt>
      <trkpt lat="44.09444" lon="0.48925">
        <ele>135</ele>
        <time>2025-11-05T15:10:05.446Z</time>
      </trkpt>
      <trkpt lat="44.09443" lon="0.48925">
        <ele>135</ele>
        <time>2025-11-05T15:10:06.446Z</time>
      </trkpt>
      <trkpt lat="44.09443" lon="0.48925">
        <ele>136</ele>
        <time>2025-11-05T15:10:07.446Z</time>
      </trkpt>
      <trkpt lat="44.09443" lon="0.48925">
        <ele>136</ele>
        <time>2025-11-05T15:10:08.446Z</time>
      </trkpt>
      <trkpt lat="44.09443" lon="0.48925">
        <ele>137</ele>
        <time>2025-11-05T15:10:09.446Z</time>
      </trkpt>
      <trkpt lat="44.09443" lon="0.48925">
        <ele>137</ele>
        <time>2025-11-05T15:10:10.446Z</time>
      </trkpt>
      <trkpt lat="44.09443" lon="0.48925">
        <ele>138</ele>
        <time>2025-11-05T15:10:11.446Z</time>
      </trkpt>
      <trkpt lat="44.09444" lon="0.48925">
        <ele>138</ele>
        <time>2025-11-05T15:10:12.446Z</time>
      </trkpt>
      <trkpt lat="44.09444" lon="0.48925">
        <ele>138</ele>
        <time>2025-11-05T15:10:13.446Z</time>
      </trkpt>
      <trkpt lat="44.09443" lon="0.48925">
        <ele>138</ele>
        <time>2025-11-05T15:10:14.446Z</time>
      </trkpt>
      <trkpt lat="44.09444" lon="0.48925">
        <ele>138</ele>
        <time>2025-11-05T15:10:15.446Z</time>
      </trkpt>
      <trkpt lat="44.09444" lon="0.48925">
        <ele>138</ele>
        <time>2025-11-05T15:10:16.446Z</time>
      </trkpt>
      <trkpt lat="44.09444" lon="0.48925">
        <ele>138</ele>
        <time>2025-11-05T15:10:17.446Z</time>
      </trkpt>
      <trkpt lat="44.09444" lon="0.48925">
        <ele>138</ele>
        <time>2025-11-05T15:10:18.446Z</time>
      </trkpt>
      <trkpt lat="44.09444" lon="0.48925">
        <ele>138</ele>
        <time>2025-11-05T15:10:19.446Z</time>
      </trkpt>
      <trkpt lat="44.09444" lon="0.48925">
        <ele>138</ele>
        <time>2025-11-05T15:10:20.446Z</time>
      </trkpt>
      <trkpt lat="44.09443" lon="0.48925">
        <ele>138</ele>
        <time>2025-11-05T15:10:21.446Z</time>
      </trkpt>
      <trkpt lat="44.09443" lon="0.48925">
        <ele>137</ele>
        <time>2025-11-05T15:10:22.446Z</time>
      </trkpt>
      <trkpt lat="44.09443" lon="0.48925">
        <ele>137</ele>
        <time>2025-11-05T15:10:23.446Z</time>
      </trkpt>
      <trkpt lat="44.09443" lon="0.48925">
        <ele>138</ele>
        <time>2025-11-05T15:10:24.446Z</time>
      </trkpt>
      <trkpt lat="44.09443" lon="0.48925">
        <ele>138</ele>
        <time>2025-11-05T15:10:25.446Z</time>
      </trkpt>
      <trkpt lat="44.09442" lon="0.48926">
        <ele>138</ele>
        <time>2025-11-05T15:10:26.446Z</time>
      </trkpt>
      <trkpt lat="44.09442" lon="0.48926">
        <ele>138</ele>
        <time>2025-11-05T15:10:27.446Z</time>
      </trkpt>
      <trkpt lat="44.09442" lon="0.48926">
        <ele>138</ele>
        <time>2025-11-05T15:10:28.446Z</time>
      </trkpt>
      <trkpt lat="44.09442" lon="0.48926">
        <ele>138</ele>
        <time>2025-11-05T15:10:29.446Z</time>
      </trkpt>
      <trkpt lat="44.09442" lon="0.48926">
        <ele>138</ele>
        <time>2025-11-05T15:10:30.446Z</time>
      </trkpt>
      <trkpt lat="44.09442" lon="0.48926">
        <ele>138</ele>
        <time>2025-11-05T15:10:31.446Z</time>
      </trkpt>
      <trkpt lat="44.09442" lon="0.48926">
        <ele>138</ele>
        <time>2025-11-05T15:10:32.446Z</time>
      </trkpt>
      <trkpt lat="44.09442" lon="0.48926">
        <ele>138</ele>
        <time>2025-11-05T15:10:33.446Z</time>
      </trkpt>
      <trkpt lat="44.09442" lon="0.48926">
        <ele>138</ele>
        <time>2025-11-05T15:10:34.446Z</time>
      </trkpt>
      <trkpt lat="44.09443" lon="0.48926">
        <ele>138</ele>
        <time>2025-11-05T15:10:35.446Z</time>
      </trkpt>
      <trkpt lat="44.09443" lon="0.48926">
        <ele>138</ele>
        <time>2025-11-05T15:10:36.446Z</time>
      </trkpt>
      <trkpt lat="44.09443" lon="0.48926">
        <ele>138</ele>
        <time>2025-11-05T15:10:37.446Z</time>
      </trkpt>
      <trkpt lat="44.09443" lon="0.48926">
        <ele>138</ele>
        <time>2025-11-05T15:10:38.446Z</time>
      </trkpt>
      <trkpt lat="44.09443" lon="0.48926">
        <ele>137</ele>
        <time>2025-11-05T15:10:39.446Z</time>
      </trkpt>
      <trkpt lat="44.09443" lon="0.48926">
        <ele>137</ele>
        <time>2025-11-05T15:10:40.446Z</time>
      </trkpt>
      <trkpt lat="44.09443" lon="0.48926">
        <ele>137</ele>
        <time>2025-11-05T15:10:41.446Z</time>
      </trkpt>
      <trkpt lat="44.09443" lon="0.48926">
        <ele>137</ele>
        <time>2025-11-05T15:10:42.446Z</time>
      </trkpt>
      <trkpt lat="44.09444" lon="0.48926">
        <ele>137</ele>
        <time>2025-11-05T15:10:43.446Z</time>
      </trkpt>
      <trkpt lat="44.09444" lon="0.48926">
        <ele>136</ele>
        <time>2025-11-05T15:10:44.446Z</time>
      </trkpt>
      <trkpt lat="44.09444" lon="0.48926">
        <ele>136</ele>
        <time>2025-11-05T15:10:45.446Z</time>
      </trkpt>
      <trkpt lat="44.09444" lon="0.48926">
        <ele>136</ele>
        <time>2025-11-05T15:10:46.446Z</time>
      </trkpt>
      <trkpt lat="44.09444" lon="0.48926">
        <ele>136</ele>
        <time>2025-11-05T15:10:47.446Z</time>
      </trkpt>
      <trkpt lat="44.09444" lon="0.48926">
        <ele>136</ele>
        <time>2025-11-05T15:10:48.446Z</time>
      </trkpt>
      <trkpt lat="44.09444" lon="0.48926">
        <ele>136</ele>
        <time>2025-11-05T15:10:49.446Z</time>
      </trkpt>
      <trkpt lat="44.09444" lon="0.48926">
        <ele>135</ele>
        <time>2025-11-05T15:10:50.446Z</time>
      </trkpt>
      <trkpt lat="44.09444" lon="0.48926">
        <ele>135</ele>
        <time>2025-11-05T15:10:51.446Z</time>
      </trkpt>
      <trkpt lat="44.09444" lon="0.48926">
        <ele>135</ele>
        <time>2025-11-05T15:10:52.446Z</time>
      </trkpt>
      <trkpt lat="44.09444" lon="0.48925">
        <ele>135</ele>
        <time>2025-11-05T15:10:53.446Z</time>
      </trkpt>
      <trkpt lat="44.09444" lon="0.48925">
        <ele>135</ele>
        <time>2025-11-05T15:10:54.446Z</time>
      </trkpt>
      <trkpt lat="44.09444" lon="0.48925">
        <ele>135</ele>
        <time>2025-11-05T15:10:55.446Z</time>
      </trkpt>
      <trkpt lat="44.09444" lon="0.48925">
        <ele>135</ele>
        <time>2025-11-05T15:10:56.446Z</time>
      </trkpt>
      <trkpt lat="44.09443" lon="0.48925">
        <ele>135</ele>
        <time>2025-11-05T15:10:57.446Z</time>
      </trkpt>
      <trkpt lat="44.09443" lon="0.48925">
        <ele>136</ele>
        <time>2025-11-05T15:10:58.446Z</time>
      </trkpt>
      <trkpt lat="44.09444" lon="0.48925">
        <ele>136</ele>
        <time>2025-11-05T15:10:59.446Z</time>
      </trkpt>
      <trkpt lat="44.09443" lon="0.48925">
        <ele>137</ele>
        <time>2025-11-05T15:11:00.446Z</time>
      </trkpt>
      <trkpt lat="44.09443" lon="0.48925">
        <ele>137</ele>
        <time>2025-11-05T15:11:01.446Z</time>
      </trkpt>
      <trkpt lat="44.09443" lon="0.48925">
        <ele>137</ele>
        <time>2025-11-05T15:11:02.446Z</time>
      </trkpt>
      <trkpt lat="44.09443" lon="0.48925">
        <ele>137</ele>
        <time>2025-11-05T15:11:03.446Z</time>
      </trkpt>
      <trkpt lat="44.09443" lon="0.48924">
        <ele>137</ele>
        <time>2025-11-05T15:11:04.446Z</time>
      </trkpt>
      <trkpt lat="44.09443" lon="0.48924">
        <ele>137</ele>
        <time>2025-11-05T15:11:05.446Z</time>
      </trkpt>
      <trkpt lat="44.09442" lon="0.48923">
        <ele>137</ele>
        <time>2025-11-05T15:11:06.446Z</time>
      </trkpt>
      <trkpt lat="44.09442" lon="0.48923">
        <ele>136</ele>
        <time>2025-11-05T15:11:07.446Z</time>
      </trkpt>
      <trkpt lat="44.09443" lon="0.48923">
        <ele>136</ele>
        <time>2025-11-05T15:11:08.446Z</time>
      </trkpt>
      <trkpt lat="44.09443" lon="0.48923">
        <ele>136</ele>
        <time>2025-11-05T15:11:09.446Z</time>
      </trkpt>
      <trkpt lat="44.09443" lon="0.48923">
        <ele>136</ele>
        <time>2025-11-05T15:11:10.446Z</time>
      </trkpt>
      <trkpt lat="44.09443" lon="0.48923">
        <ele>136</ele>
        <time>2025-11-05T15:11:11.446Z</time>
      </trkpt>
      <trkpt lat="44.09443" lon="0.48923">
        <ele>136</ele>
        <time>2025-11-05T15:11:12.446Z</time>
      </trkpt>
      <trkpt lat="44.09443" lon="0.48923">
        <ele>135</ele>
        <time>2025-11-05T15:11:13.446Z</time>
      </trkpt>
      <trkpt lat="44.09443" lon="0.48922">
        <ele>135</ele>
        <time>2025-11-05T15:11:14.446Z</time>
      </trkpt>
      <trkpt lat="44.09443" lon="0.48922">
        <ele>136</ele>
        <time>2025-11-05T15:11:15.446Z</time>
      </trkpt>
      <trkpt lat="44.09443" lon="0.48922">
        <ele>136</ele>
        <time>2025-11-05T15:11:16.446Z</time>
      </trkpt>
      <trkpt lat="44.09443" lon="0.48922">
        <ele>136</ele>
        <time>2025-11-05T15:11:17.446Z</time>
      </trkpt>
      <trkpt lat="44.09443" lon="0.48921">
        <ele>136</ele>
        <time>2025-11-05T15:11:18.446Z</time>
      </trkpt>
      <trkpt lat="44.09443" lon="0.48921">
        <ele>137</ele>
        <time>2025-11-05T15:11:19.446Z</time>
      </trkpt>
      <trkpt lat="44.09443" lon="0.48921">
        <ele>137</ele>
        <time>2025-11-05T15:11:20.446Z</time>
      </trkpt>
      <trkpt lat="44.09443" lon="0.48921">
        <ele>137</ele>
        <time>2025-11-05T15:11:21.446Z</time>
      </trkpt>
      <trkpt lat="44.09443" lon="0.48922">
        <ele>137</ele>
        <time>2025-11-05T15:11:22.446Z</time>
      </trkpt>
      <trkpt lat="44.09443" lon="0.48922">
        <ele>137</ele>
        <time>2025-11-05T15:11:23.446Z</time>
      </trkpt>
      <trkpt lat="44.09443" lon="0.48921">
        <ele>137</ele>
        <time>2025-11-05T15:11:24.446Z</time>
      </trkpt>
      <trkpt lat="44.09443" lon="0.48922">
        <ele>137</ele>
        <time>2025-11-05T15:11:25.446Z</time>
      </trkpt>
      <trkpt lat="44.09443" lon="0.48922">
        <ele>136</ele>
        <time>2025-11-05T15:11:26.446Z</time>
      </trkpt>
      <trkpt lat="44.09443" lon="0.48922">
        <ele>136</ele>
        <time>2025-11-05T15:11:27.446Z</time>
      </trkpt>
      <trkpt lat="44.09443" lon="0.48922">
        <ele>135</ele>
        <time>2025-11-05T15:11:28.446Z</time>
      </trkpt>
      <trkpt lat="44.09443" lon="0.48922">
        <ele>135</ele>
        <time>2025-11-05T15:11:29.446Z</time>
      </trkpt>
      <trkpt lat="44.09443" lon="0.48922">
        <ele>135</ele>
        <time>2025-11-05T15:11:30.446Z</time>
      </trkpt>
      <trkpt lat="44.09443" lon="0.48922">
        <ele>135</ele>
        <time>2025-11-05T15:11:31.446Z</time>
      </trkpt>
      <trkpt lat="44.09443" lon="0.48922">
        <ele>134</ele>
        <time>2025-11-05T15:11:32.446Z</time>
      </trkpt>
      <trkpt lat="44.09443" lon="0.48922">
        <ele>134</ele>
        <time>2025-11-05T15:11:33.446Z</time>
      </trkpt>
      <trkpt lat="44.09443" lon="0.48922">
        <ele>134</ele>
        <time>2025-11-05T15:11:34.446Z</time>
      </trkpt>
      <trkpt lat="44.09443" lon="0.48922">
        <ele>134</ele>
        <time>2025-11-05T15:11:35.446Z</time>
      </trkpt>
      <trkpt lat="44.09444" lon="0.48922">
        <ele>134</ele>
        <time>2025-11-05T15:11:36.446Z</time>
      </trkpt>
      <trkpt lat="44.09444" lon="0.48923">
        <ele>134</ele>
        <time>2025-11-05T15:11:37.446Z</time>
      </trkpt>
      <trkpt lat="44.09445" lon="0.48923">
        <ele>134</ele>
        <time>2025-11-05T15:11:38.446Z</time>
      </trkpt>
      <trkpt lat="44.09445" lon="0.48924">
        <ele>134</ele>
        <time>2025-11-05T15:11:39.446Z</time>
      </trkpt>
      <trkpt lat="44.09446" lon="0.48924">
        <ele>134</ele>
        <time>2025-11-05T15:11:40.446Z</time>
      </trkpt>
      <trkpt lat="44.09448" lon="0.48924">
        <ele>134</ele>
        <time>2025-11-05T15:11:41.446Z</time>
      </trkpt>
      <trkpt lat="44.09449" lon="0.48924">
        <ele>135</ele>
        <time>2025-11-05T15:11:42.446Z</time>
      </trkpt>
      <trkpt lat="44.0945" lon="0.48924">
        <ele>135</ele>
        <time>2025-11-05T15:11:43.446Z</time>
      </trkpt>
      <trkpt lat="44.09451" lon="0.48924">
        <ele>135</ele>
        <time>2025-11-05T15:11:44.446Z</time>
      </trkpt>
      <trkpt lat="44.09452" lon="0.48925">
        <ele>135</ele>
        <time>2025-11-05T15:11:45.446Z</time>
      </trkpt>
      <trkpt lat="44.09453" lon="0.48926">
        <ele>135</ele>
        <time>2025-11-05T15:11:46.446Z</time>
      </trkpt>
      <trkpt lat="44.09454" lon="0.48926">
        <ele>135</ele>
        <time>2025-11-05T15:11:47.446Z</time>
      </trkpt>
      <trkpt lat="44.09455" lon="0.48927">
        <ele>134</ele>
        <time>2025-11-05T15:11:48.446Z</time>
      </trkpt>
      <trkpt lat="44.09456" lon="0.48927">
        <ele>134</ele>
        <time>2025-11-05T15:11:49.446Z</time>
      </trkpt>
      <trkpt lat="44.09458" lon="0.48928">
        <ele>135</ele>
        <time>2025-11-05T15:11:50.446Z</time>
      </trkpt>
      <trkpt lat="44.09459" lon="0.48928">
        <ele>135</ele>
        <time>2025-11-05T15:11:51.446Z</time>
      </trkpt>
      <trkpt lat="44.0946" lon="0.48929">
        <ele>135</ele>
        <time>2025-11-05T15:11:52.446Z</time>
      </trkpt>
      <trkpt lat="44.09461" lon="0.4893">
        <ele>135</ele>
        <time>2025-11-05T15:11:53.446Z</time>
      </trkpt>
      <trkpt lat="44.09462" lon="0.4893">
        <ele>135</ele>
        <time>2025-11-05T15:11:54.446Z</time>
      </trkpt>
      <trkpt lat="44.09463" lon="0.48931">
        <ele>135</ele>
        <time>2025-11-05T15:11:55.446Z</time>
      </trkpt>
      <trkpt lat="44.09464" lon="0.48931">
        <ele>135</ele>
        <time>2025-11-05T15:11:56.446Z</time>
      </trkpt>
      <trkpt lat="44.09465" lon="0.48932">
        <ele>135</ele>
        <time>2025-11-05T15:11:57.446Z</time>
      </trkpt>
      <trkpt lat="44.09467" lon="0.48932">
        <ele>135</ele>
        <time>2025-11-05T15:11:58.446Z</time>
      </trkpt>
      <trkpt lat="44.09468" lon="0.48933">
        <ele>135</ele>
        <time>2025-11-05T15:11:59.446Z</time>
      </trkpt>
      <trkpt lat="44.09468" lon="0.48934">
        <ele>135</ele>
        <time>2025-11-05T15:12:00.446Z</time>
      </trkpt>
      <trkpt lat="44.09469" lon="0.48935">
        <ele>135</ele>
        <time>2025-11-05T15:12:01.447Z</time>
      </trkpt>
      <trkpt lat="44.0947" lon="0.48935">
        <ele>135</ele>
        <time>2025-11-05T15:12:02.446Z</time>
      </trkpt>
      <trkpt lat="44.09471" lon="0.48935">
        <ele>135</ele>
        <time>2025-11-05T15:12:03.446Z</time>
      </trkpt>
      <trkpt lat="44.09472" lon="0.48935">
        <ele>135</ele>
        <time>2025-11-05T15:12:04.446Z</time>
      </trkpt>
      <trkpt lat="44.09474" lon="0.48935">
        <ele>136</ele>
        <time>2025-11-05T15:12:05.446Z</time>
      </trkpt>
      <trkpt lat="44.09475" lon="0.48936">
        <ele>136</ele>
        <time>2025-11-05T15:12:06.446Z</time>
      </trkpt>
      <trkpt lat="44.09476" lon="0.48936">
        <ele>136</ele>
        <time>2025-11-05T15:12:07.447Z</time>
      </trkpt>
      <trkpt lat="44.09477" lon="0.48936">
        <ele>136</ele>
        <time>2025-11-05T15:12:08.446Z</time>
      </trkpt>
      <trkpt lat="44.09478" lon="0.48936">
        <ele>136</ele>
        <time>2025-11-05T15:12:09.446Z</time>
      </trkpt>
      <trkpt lat="44.09479" lon="0.48936">
        <ele>137</ele>
        <time>2025-11-05T15:12:10.446Z</time>
      </trkpt>
      <trkpt lat="44.09481" lon="0.48937">
        <ele>137</ele>
        <time>2025-11-05T15:12:11.446Z</time>
      </trkpt>
      <trkpt lat="44.09482" lon="0.48936">
        <ele>137</ele>
        <time>2025-11-05T15:12:12.446Z</time>
      </trkpt>
      <trkpt lat="44.09483" lon="0.48937">
        <ele>137</ele>
        <time>2025-11-05T15:12:13.446Z</time>
      </trkpt>
      <trkpt lat="44.09484" lon="0.48937">
        <ele>137</ele>
        <time>2025-11-05T15:12:14.446Z</time>
      </trkpt>
      <trkpt lat="44.09485" lon="0.48937">
        <ele>137</ele>
        <time>2025-11-05T15:12:15.446Z</time>
      </trkpt>
      <trkpt lat="44.09486" lon="0.48937">
        <ele>138</ele>
        <time>2025-11-05T15:12:16.446Z</time>
      </trkpt>
      <trkpt lat="44.09487" lon="0.48937">
        <ele>138</ele>
        <time>2025-11-05T15:12:17.446Z</time>
      </trkpt>
      <trkpt lat="44.09488" lon="0.48937">
        <ele>139</ele>
        <time>2025-11-05T15:12:18.446Z</time>
      </trkpt>
      <trkpt lat="44.09489" lon="0.48937">
        <ele>139</ele>
        <time>2025-11-05T15:12:19.446Z</time>
      </trkpt>
      <trkpt lat="44.0949" lon="0.48938">
        <ele>139</ele>
        <time>2025-11-05T15:12:20.446Z</time>
      </trkpt>
      <trkpt lat="44.09491" lon="0.48938">
        <ele>139</ele>
        <time>2025-11-05T15:12:21.446Z</time>
      </trkpt>
      <trkpt lat="44.09492" lon="0.48939">
        <ele>139</ele>
        <time>2025-11-05T15:12:22.446Z</time>
      </trkpt>
      <trkpt lat="44.09493" lon="0.48939">
        <ele>139</ele>
        <time>2025-11-05T15:12:23.446Z</time>
      </trkpt>
      <trkpt lat="44.09496" lon="0.4894">
        <ele>139</ele>
        <time>2025-11-05T15:12:24.446Z</time>
      </trkpt>
      <trkpt lat="44.09497" lon="0.4894">
        <ele>140</ele>
        <time>2025-11-05T15:12:25.446Z</time>
      </trkpt>
      <trkpt lat="44.09498" lon="0.48939">
        <ele>140</ele>
        <time>2025-11-05T15:12:26.446Z</time>
      </trkpt>
      <trkpt lat="44.09499" lon="0.48939">
        <ele>140</ele>
        <time>2025-11-05T15:12:27.446Z</time>
      </trkpt>
      <trkpt lat="44.09501" lon="0.48939">
        <ele>140</ele>
        <time>2025-11-05T15:12:28.446Z</time>
      </trkpt>
      <trkpt lat="44.09502" lon="0.4894">
        <ele>140</ele>
        <time>2025-11-05T15:12:29.446Z</time>
      </trkpt>
      <trkpt lat="44.09503" lon="0.4894">
        <ele>140</ele>
        <time>2025-11-05T15:12:30.446Z</time>
      </trkpt>
      <trkpt lat="44.09504" lon="0.4894">
        <ele>141</ele>
        <time>2025-11-05T15:12:31.446Z</time>
      </trkpt>
      <trkpt lat="44.09505" lon="0.48941">
        <ele>141</ele>
        <time>2025-11-05T15:12:32.446Z</time>
      </trkpt>
      <trkpt lat="44.09506" lon="0.48941">
        <ele>141</ele>
        <time>2025-11-05T15:12:33.446Z</time>
      </trkpt>
      <trkpt lat="44.09507" lon="0.48942">
        <ele>140</ele>
        <time>2025-11-05T15:12:34.446Z</time>
      </trkpt>
      <trkpt lat="44.09508" lon="0.48943">
        <ele>140</ele>
        <time>2025-11-05T15:12:35.446Z</time>
      </trkpt>
      <trkpt lat="44.09509" lon="0.48944">
        <ele>139</ele>
        <time>2025-11-05T15:12:36.446Z</time>
      </trkpt>
      <trkpt lat="44.0951" lon="0.48945">
        <ele>139</ele>
        <time>2025-11-05T15:12:37.446Z</time>
      </trkpt>
      <trkpt lat="44.09511" lon="0.48946">
        <ele>138</ele>
        <time>2025-11-05T15:12:38.446Z</time>
      </trkpt>
      <trkpt lat="44.09512" lon="0.48947">
        <ele>138</ele>
        <time>2025-11-05T15:12:39.446Z</time>
      </trkpt>
      <trkpt lat="44.09513" lon="0.48947">
        <ele>138</ele>
        <time>2025-11-05T15:12:40.446Z</time>
      </trkpt>
      <trkpt lat="44.09514" lon="0.48948">
        <ele>138</ele>
        <time>2025-11-05T15:12:41.446Z</time>
      </trkpt>
      <trkpt lat="44.09514" lon="0.48949">
        <ele>137</ele>
        <time>2025-11-05T15:12:42.446Z</time>
      </trkpt>
      <trkpt lat="44.09515" lon="0.48949">
        <ele>137</ele>
        <time>2025-11-05T15:12:43.446Z</time>
      </trkpt>
      <trkpt lat="44.09516" lon="0.4895">
        <ele>137</ele>
        <time>2025-11-05T15:12:44.446Z</time>
      </trkpt>
      <trkpt lat="44.09517" lon="0.48951">
        <ele>137</ele>
        <time>2025-11-05T15:12:45.446Z</time>
      </trkpt>
      <trkpt lat="44.09518" lon="0.48951">
        <ele>137</ele>
        <time>2025-11-05T15:12:46.446Z</time>
      </trkpt>
      <trkpt lat="44.09519" lon="0.48952">
        <ele>137</ele>
        <time>2025-11-05T15:12:47.446Z</time>
      </trkpt>
      <trkpt lat="44.0952" lon="0.48952">
        <ele>137</ele>
        <time>2025-11-05T15:12:48.446Z</time>
      </trkpt>
      <trkpt lat="44.09521" lon="0.48953">
        <ele>137</ele>
        <time>2025-11-05T15:12:49.446Z</time>
      </trkpt>
      <trkpt lat="44.09522" lon="0.48953">
        <ele>137</ele>
        <time>2025-11-05T15:12:50.446Z</time>
      </trkpt>
      <trkpt lat="44.09523" lon="0.48954">
        <ele>137</ele>
        <time>2025-11-05T15:12:51.446Z</time>
      </trkpt>
      <trkpt lat="44.09525" lon="0.48954">
        <ele>137</ele>
        <time>2025-11-05T15:12:52.446Z</time>
      </trkpt>
      <trkpt lat="44.09526" lon="0.48955">
        <ele>137</ele>
        <time>2025-11-05T15:12:53.446Z</time>
      </trkpt>
      <trkpt lat="44.09527" lon="0.48955">
        <ele>137</ele>
        <time>2025-11-05T15:12:54.446Z</time>
      </trkpt>
      <trkpt lat="44.09528" lon="0.48956">
        <ele>137</ele>
        <time>2025-11-05T15:12:55.446Z</time>
      </trkpt>
      <trkpt lat="44.09529" lon="0.48956">
        <ele>138</ele>
        <time>2025-11-05T15:12:56.446Z</time>
      </trkpt>
      <trkpt lat="44.0953" lon="0.48957">
        <ele>138</ele>
        <time>2025-11-05T15:12:57.446Z</time>
      </trkpt>
      <trkpt lat="44.09531" lon="0.48957">
        <ele>138</ele>
        <time>2025-11-05T15:12:58.446Z</time>
      </trkpt>
      <trkpt lat="44.09532" lon="0.48958">
        <ele>138</ele>
        <time>2025-11-05T15:12:59.446Z</time>
      </trkpt>
      <trkpt lat="44.09533" lon="0.48958">
        <ele>138</ele>
        <time>2025-11-05T15:13:00.446Z</time>
      </trkpt>
      <trkpt lat="44.09534" lon="0.48959">
        <ele>138</ele>
        <time>2025-11-05T15:13:01.446Z</time>
      </trkpt>
      <trkpt lat="44.09535" lon="0.48959">
        <ele>137</ele>
        <time>2025-11-05T15:13:02.446Z</time>
      </trkpt>
      <trkpt lat="44.09536" lon="0.4896">
        <ele>137</ele>
        <time>2025-11-05T15:13:03.446Z</time>
      </trkpt>
      <trkpt lat="44.09537" lon="0.4896">
        <ele>137</ele>
        <time>2025-11-05T15:13:04.446Z</time>
      </trkpt>
      <trkpt lat="44.09538" lon="0.48961">
        <ele>137</ele>
        <time>2025-11-05T15:13:05.446Z</time>
      </trkpt>
      <trkpt lat="44.09539" lon="0.48961">
        <ele>137</ele>
        <time>2025-11-05T15:13:06.446Z</time>
      </trkpt>
      <trkpt lat="44.0954" lon="0.48962">
        <ele>137</ele>
        <time>2025-11-05T15:13:07.446Z</time>
      </trkpt>
      <trkpt lat="44.09542" lon="0.48962">
        <ele>137</ele>
        <time>2025-11-05T15:13:08.446Z</time>
      </trkpt>
      <trkpt lat="44.09543" lon="0.48963">
        <ele>137</ele>
        <time>2025-11-05T15:13:09.446Z</time>
      </trkpt>
      <trkpt lat="44.09544" lon="0.48963">
        <ele>137</ele>
        <time>2025-11-05T15:13:10.446Z</time>
      </trkpt>
      <trkpt lat="44.09545" lon="0.48964">
        <ele>137</ele>
        <time>2025-11-05T15:13:11.446Z</time>
      </trkpt>
      <trkpt lat="44.09546" lon="0.48964">
        <ele>137</ele>
        <time>2025-11-05T15:13:12.446Z</time>
      </trkpt>
      <trkpt lat="44.09547" lon="0.48964">
        <ele>136</ele>
        <time>2025-11-05T15:13:13.446Z</time>
      </trkpt>
      <trkpt lat="44.09548" lon="0.48965">
        <ele>136</ele>
        <time>2025-11-05T15:13:14.446Z</time>
      </trkpt>
      <trkpt lat="44.09549" lon="0.48965">
        <ele>136</ele>
        <time>2025-11-05T15:13:15.446Z</time>
      </trkpt>
      <trkpt lat="44.0955" lon="0.48966">
        <ele>136</ele>
        <time>2025-11-05T15:13:16.446Z</time>
      </trkpt>
      <trkpt lat="44.09551" lon="0.48966">
        <ele>136</ele>
        <time>2025-11-05T15:13:17.446Z</time>
      </trkpt>
      <trkpt lat="44.09552" lon="0.48967">
        <ele>136</ele>
        <time>2025-11-05T15:13:18.446Z</time>
      </trkpt>
      <trkpt lat="44.09552" lon="0.48966">
        <ele>136</ele>
        <time>2025-11-05T15:13:19.446Z</time>
      </trkpt>
      <trkpt lat="44.09553" lon="0.48967">
        <ele>136</ele>
        <time>2025-11-05T15:13:20.446Z</time>
      </trkpt>
      <trkpt lat="44.09554" lon="0.48967">
        <ele>135</ele>
        <time>2025-11-05T15:13:21.446Z</time>
      </trkpt>
      <trkpt lat="44.09556" lon="0.48967">
        <ele>136</ele>
        <time>2025-11-05T15:13:22.446Z</time>
      </trkpt>
      <trkpt lat="44.09556" lon="0.48967">
        <ele>136</ele>
        <time>2025-11-05T15:13:23.446Z</time>
      </trkpt>
      <trkpt lat="44.09557" lon="0.48968">
        <ele>136</ele>
        <time>2025-11-05T15:13:24.446Z</time>
      </trkpt>
      <trkpt lat="44.09558" lon="0.48968">
        <ele>136</ele>
        <time>2025-11-05T15:13:25.446Z</time>
      </trkpt>
      <trkpt lat="44.09559" lon="0.48969">
        <ele>136</ele>
        <time>2025-11-05T15:13:26.446Z</time>
      </trkpt>
      <trkpt lat="44.0956" lon="0.4897">
        <ele>136</ele>
        <time>2025-11-05T15:13:27.446Z</time>
      </trkpt>
      <trkpt lat="44.09561" lon="0.4897">
        <ele>136</ele>
        <time>2025-11-05T15:13:28.446Z</time>
      </trkpt>
      <trkpt lat="44.09562" lon="0.4897">
        <ele>136</ele>
        <time>2025-11-05T15:13:29.446Z</time>
      </trkpt>
      <trkpt lat="44.09563" lon="0.4897">
        <ele>136</ele>
        <time>2025-11-05T15:13:30.446Z</time>
      </trkpt>
      <trkpt lat="44.09564" lon="0.4897">
        <ele>136</ele>
        <time>2025-11-05T15:13:31.446Z</time>
      </trkpt>
      <trkpt lat="44.09565" lon="0.4897">
        <ele>136</ele>
        <time>2025-11-05T15:13:32.446Z</time>
      </trkpt>
      <trkpt lat="44.09566" lon="0.48971">
        <ele>137</ele>
        <time>2025-11-05T15:13:33.446Z</time>
      </trkpt>
      <trkpt lat="44.09567" lon="0.48972">
        <ele>137</ele>
        <time>2025-11-05T15:13:34.446Z</time>
      </trkpt>
      <trkpt lat="44.09567" lon="0.48973">
        <ele>137</ele>
        <time>2025-11-05T15:13:35.446Z</time>
      </trkpt>
      <trkpt lat="44.09569" lon="0.48973">
        <ele>138</ele>
        <time>2025-11-05T15:13:36.446Z</time>
      </trkpt>
      <trkpt lat="44.0957" lon="0.48974">
        <ele>138</ele>
        <time>2025-11-05T15:13:37.446Z</time>
      </trkpt>
      <trkpt lat="44.09571" lon="0.48975">
        <ele>139</ele>
        <time>2025-11-05T15:13:38.447Z</time>
      </trkpt>
      <trkpt lat="44.09572" lon="0.48975">
        <ele>139</ele>
        <time>2025-11-05T15:13:39.446Z</time>
      </trkpt>
      <trkpt lat="44.09573" lon="0.48976">
        <ele>139</ele>
        <time>2025-11-05T15:13:40.446Z</time>
      </trkpt>
      <trkpt lat="44.09574" lon="0.48977">
        <ele>140</ele>
        <time>2025-11-05T15:13:41.446Z</time>
      </trkpt>
      <trkpt lat="44.09575" lon="0.48977">
        <ele>140</ele>
        <time>2025-11-05T15:13:42.446Z</time>
      </trkpt>
      <trkpt lat="44.09576" lon="0.48978">
        <ele>141</ele>
        <time>2025-11-05T15:13:43.446Z</time>
      </trkpt>
      <trkpt lat="44.09577" lon="0.48978">
        <ele>141</ele>
        <time>2025-11-05T15:13:44.446Z</time>
      </trkpt>
      <trkpt lat="44.09578" lon="0.48979">
        <ele>141</ele>
        <time>2025-11-05T15:13:45.446Z</time>
      </trkpt>
      <trkpt lat="44.09579" lon="0.48979">
        <ele>142</ele>
        <time>2025-11-05T15:13:46.446Z</time>
      </trkpt>
      <trkpt lat="44.0958" lon="0.48979">
        <ele>142</ele>
        <time>2025-11-05T15:13:47.446Z</time>
      </trkpt>
      <trkpt lat="44.09581" lon="0.4898">
        <ele>142</ele>
        <time>2025-11-05T15:13:48.447Z</time>
      </trkpt>
      <trkpt lat="44.09582" lon="0.4898">
        <ele>142</ele>
        <time>2025-11-05T15:13:49.446Z</time>
      </trkpt>
      <trkpt lat="44.09583" lon="0.48981">
        <ele>142</ele>
        <time>2025-11-05T15:13:50.446Z</time>
      </trkpt>
      <trkpt lat="44.09584" lon="0.48981">
        <ele>143</ele>
        <time>2025-11-05T15:13:51.446Z</time>
      </trkpt>
      <trkpt lat="44.09586" lon="0.48981">
        <ele>143</ele>
        <time>2025-11-05T15:13:52.446Z</time>
      </trkpt>
      <trkpt lat="44.09587" lon="0.48982">
        <ele>143</ele>
        <time>2025-11-05T15:13:53.446Z</time>
      </trkpt>
      <trkpt lat="44.09588" lon="0.48982">
        <ele>143</ele>
        <time>2025-11-05T15:13:54.446Z</time>
      </trkpt>
      <trkpt lat="44.09589" lon="0.48983">
        <ele>143</ele>
        <time>2025-11-05T15:13:55.446Z</time>
      </trkpt>
      <trkpt lat="44.0959" lon="0.48983">
        <ele>143</ele>
        <time>2025-11-05T15:13:56.446Z</time>
      </trkpt>
      <trkpt lat="44.09591" lon="0.48983">
        <ele>144</ele>
        <time>2025-11-05T15:13:57.446Z</time>
      </trkpt>
      <trkpt lat="44.09592" lon="0.48984">
        <ele>144</ele>
        <time>2025-11-05T15:13:58.446Z</time>
      </trkpt>
      <trkpt lat="44.09593" lon="0.48984">
        <ele>145</ele>
        <time>2025-11-05T15:13:59.446Z</time>
      </trkpt>
      <trkpt lat="44.09594" lon="0.48984">
        <ele>145</ele>
        <time>2025-11-05T15:14:00.446Z</time>
      </trkpt>
      <trkpt lat="44.09595" lon="0.48985">
        <ele>146</ele>
        <time>2025-11-05T15:14:01.446Z</time>
      </trkpt>
      <trkpt lat="44.09596" lon="0.48985">
        <ele>146</ele>
        <time>2025-11-05T15:14:02.446Z</time>
      </trkpt>
      <trkpt lat="44.09597" lon="0.48985">
        <ele>146</ele>
        <time>2025-11-05T15:14:03.446Z</time>
      </trkpt>
      <trkpt lat="44.09598" lon="0.48985">
        <ele>147</ele>
        <time>2025-11-05T15:14:04.446Z</time>
      </trkpt>
      <trkpt lat="44.09599" lon="0.48986">
        <ele>148</ele>
        <time>2025-11-05T15:14:05.446Z</time>
      </trkpt>
      <trkpt lat="44.09601" lon="0.48986">
        <ele>148</ele>
        <time>2025-11-05T15:14:06.446Z</time>
      </trkpt>
      <trkpt lat="44.09601" lon="0.48987">
        <ele>149</ele>
        <time>2025-11-05T15:14:07.446Z</time>
      </trkpt>
      <trkpt lat="44.09602" lon="0.48987">
        <ele>149</ele>
        <time>2025-11-05T15:14:08.447Z</time>
      </trkpt>
      <trkpt lat="44.09603" lon="0.48988">
        <ele>149</ele>
        <time>2025-11-05T15:14:09.447Z</time>
      </trkpt>
      <trkpt lat="44.09604" lon="0.48988">
        <ele>149</ele>
        <time>2025-11-05T15:14:10.446Z</time>
      </trkpt>
      <trkpt lat="44.09604" lon="0.48989">
        <ele>149</ele>
        <time>2025-11-05T15:14:11.446Z</time>
      </trkpt>
      <trkpt lat="44.09605" lon="0.48989">
        <ele>149</ele>
        <time>2025-11-05T15:14:12.446Z</time>
      </trkpt>
      <trkpt lat="44.09606" lon="0.4899">
        <ele>149</ele>
        <time>2025-11-05T15:14:13.446Z</time>
      </trkpt>
      <trkpt lat="44.09607" lon="0.4899">
        <ele>150</ele>
        <time>2025-11-05T15:14:14.446Z</time>
      </trkpt>
      <trkpt lat="44.09608" lon="0.48991">
        <ele>150</ele>
        <time>2025-11-05T15:14:15.446Z</time>
      </trkpt>
      <trkpt lat="44.09609" lon="0.48991">
        <ele>151</ele>
        <time>2025-11-05T15:14:16.446Z</time>
      </trkpt>
      <trkpt lat="44.0961" lon="0.48992">
        <ele>151</ele>
        <time>2025-11-05T15:14:17.446Z</time>
      </trkpt>
      <trkpt lat="44.09611" lon="0.48992">
        <ele>152</ele>
        <time>2025-11-05T15:14:18.446Z</time>
      </trkpt>
      <trkpt lat="44.09612" lon="0.48992">
        <ele>152</ele>
        <time>2025-11-05T15:14:19.446Z</time>
      </trkpt>
      <trkpt lat="44.09613" lon="0.48993">
        <ele>152</ele>
        <time>2025-11-05T15:14:20.446Z</time>
      </trkpt>
      <trkpt lat="44.09614" lon="0.48994">
        <ele>152</ele>
        <time>2025-11-05T15:14:21.446Z</time>
      </trkpt>
      <trkpt lat="44.09615" lon="0.48994">
        <ele>152</ele>
        <time>2025-11-05T15:14:22.446Z</time>
      </trkpt>
      <trkpt lat="44.09616" lon="0.48995">
        <ele>152</ele>
        <time>2025-11-05T15:14:23.446Z</time>
      </trkpt>
      <trkpt lat="44.09616" lon="0.48995">
        <ele>152</ele>
        <time>2025-11-05T15:14:24.446Z</time>
      </trkpt>
      <trkpt lat="44.09617" lon="0.48996">
        <ele>151</ele>
        <time>2025-11-05T15:14:25.446Z</time>
      </trkpt>
      <trkpt lat="44.09618" lon="0.48996">
        <ele>151</ele>
        <time>2025-11-05T15:14:26.446Z</time>
      </trkpt>
      <trkpt lat="44.09619" lon="0.48997">
        <ele>151</ele>
        <time>2025-11-05T15:14:27.446Z</time>
      </trkpt>
      <trkpt lat="44.09619" lon="0.48997">
        <ele>151</ele>
        <time>2025-11-05T15:14:28.446Z</time>
      </trkpt>
      <trkpt lat="44.09619" lon="0.48998">
        <ele>151</ele>
        <time>2025-11-05T15:14:29.446Z</time>
      </trkpt>
      <trkpt lat="44.09619" lon="0.48998">
        <ele>151</ele>
        <time>2025-11-05T15:14:30.446Z</time>
      </trkpt>
      <trkpt lat="44.09619" lon="0.48998">
        <ele>152</ele>
        <time>2025-11-05T15:14:31.446Z</time>
      </trkpt>
      <trkpt lat="44.09619" lon="0.48998">
        <ele>152</ele>
        <time>2025-11-05T15:14:32.446Z</time>
      </trkpt>
      <trkpt lat="44.09619" lon="0.48998">
        <ele>152</ele>
        <time>2025-11-05T15:14:33.446Z</time>
      </trkpt>
      <trkpt lat="44.09619" lon="0.48998">
        <ele>152</ele>
        <time>2025-11-05T15:14:34.446Z</time>
      </trkpt>
      <trkpt lat="44.09619" lon="0.48998">
        <ele>152</ele>
        <time>2025-11-05T15:14:35.446Z</time>
      </trkpt>
      <trkpt lat="44.09619" lon="0.48998">
        <ele>152</ele>
        <time>2025-11-05T15:14:36.446Z</time>
      </trkpt>
      <trkpt lat="44.09619" lon="0.48998">
        <ele>152</ele>
        <time>2025-11-05T15:14:37.446Z</time>
      </trkpt>
      <trkpt lat="44.09619" lon="0.48998">
        <ele>151</ele>
        <time>2025-11-05T15:14:38.446Z</time>
      </trkpt>
      <trkpt lat="44.09619" lon="0.48998">
        <ele>151</ele>
        <time>2025-11-05T15:14:39.446Z</time>
      </trkpt>
      <trkpt lat="44.0962" lon="0.48998">
        <ele>151</ele>
        <time>2025-11-05T15:14:40.446Z</time>
      </trkpt>
      <trkpt lat="44.0962" lon="0.48999">
        <ele>151</ele>
        <time>2025-11-05T15:14:41.446Z</time>
      </trkpt>
      <trkpt lat="44.0962" lon="0.48998">
        <ele>150</ele>
        <time>2025-11-05T15:14:42.446Z</time>
      </trkpt>
      <trkpt lat="44.0962" lon="0.48998">
        <ele>150</ele>
        <time>2025-11-05T15:14:43.446Z</time>
      </trkpt>
      <trkpt lat="44.0962" lon="0.48998">
        <ele>150</ele>
        <time>2025-11-05T15:14:44.446Z</time>
      </trkpt>
      <trkpt lat="44.0962" lon="0.48998">
        <ele>150</ele>
        <time>2025-11-05T15:14:45.446Z</time>
      </trkpt>
      <trkpt lat="44.09619" lon="0.48998">
        <ele>150</ele>
        <time>2025-11-05T15:14:46.446Z</time>
      </trkpt>
      <trkpt lat="44.09619" lon="0.48998">
        <ele>150</ele>
        <time>2025-11-05T15:14:47.446Z</time>
      </trkpt>
      <trkpt lat="44.09619" lon="0.48998">
        <ele>150</ele>
        <time>2025-11-05T15:14:48.446Z</time>
      </trkpt>
      <trkpt lat="44.09619" lon="0.48997">
        <ele>150</ele>
        <time>2025-11-05T15:14:49.446Z</time>
      </trkpt>
      <trkpt lat="44.09619" lon="0.48997">
        <ele>151</ele>
        <time>2025-11-05T15:14:50.446Z</time>
      </trkpt>
      <trkpt lat="44.09619" lon="0.48996">
        <ele>151</ele>
        <time>2025-11-05T15:14:51.446Z</time>
      </trkpt>
      <trkpt lat="44.09619" lon="0.48995">
        <ele>152</ele>
        <time>2025-11-05T15:14:52.446Z</time>
      </trkpt>
      <trkpt lat="44.09619" lon="0.48994">
        <ele>152</ele>
        <time>2025-11-05T15:14:53.446Z</time>
      </trkpt>
      <trkpt lat="44.09619" lon="0.48993">
        <ele>152</ele>
        <time>2025-11-05T15:14:54.446Z</time>
      </trkpt>
      <trkpt lat="44.09619" lon="0.48992">
        <ele>153</ele>
        <time>2025-11-05T15:14:55.446Z</time>
      </trkpt>
      <trkpt lat="44.09619" lon="0.48992">
        <ele>153</ele>
        <time>2025-11-05T15:14:56.446Z</time>
      </trkpt>
      <trkpt lat="44.09619" lon="0.48992">
        <ele>153</ele>
        <time>2025-11-05T15:14:57.446Z</time>
      </trkpt>
      <trkpt lat="44.09619" lon="0.48992">
        <ele>153</ele>
        <time>2025-11-05T15:14:58.446Z</time>
      </trkpt>
      <trkpt lat="44.09619" lon="0.48992">
        <ele>154</ele>
        <time>2025-11-05T15:14:59.446Z</time>
      </trkpt>
      <trkpt lat="44.09619" lon="0.48993">
        <ele>154</ele>
        <time>2025-11-05T15:15:00.446Z</time>
      </trkpt>
      <trkpt lat="44.09619" lon="0.48994">
        <ele>154</ele>
        <time>2025-11-05T15:15:01.446Z</time>
      </trkpt>
      <trkpt lat="44.09619" lon="0.48995">
        <ele>154</ele>
        <time>2025-11-05T15:15:02.446Z</time>
      </trkpt>
      <trkpt lat="44.09619" lon="0.48996">
        <ele>154</ele>
        <time>2025-11-05T15:15:03.446Z</time>
      </trkpt>
      <trkpt lat="44.09619" lon="0.48997">
        <ele>155</ele>
        <time>2025-11-05T15:15:04.446Z</time>
      </trkpt>
      <trkpt lat="44.09619" lon="0.48998">
        <ele>155</ele>
        <time>2025-11-05T15:15:05.446Z</time>
      </trkpt>
      <trkpt lat="44.09619" lon="0.48999">
        <ele>155</ele>
        <time>2025-11-05T15:15:06.446Z</time>
      </trkpt>
      <trkpt lat="44.09619" lon="0.49">
        <ele>154</ele>
        <time>2025-11-05T15:15:07.446Z</time>
      </trkpt>
      <trkpt lat="44.0962" lon="0.49001">
        <ele>154</ele>
        <time>2025-11-05T15:15:08.446Z</time>
      </trkpt>
      <trkpt lat="44.09621" lon="0.49001">
        <ele>154</ele>
        <time>2025-11-05T15:15:09.446Z</time>
      </trkpt>
      <trkpt lat="44.09622" lon="0.49001">
        <ele>153</ele>
        <time>2025-11-05T15:15:10.446Z</time>
      </trkpt>
      <trkpt lat="44.09623" lon="0.49002">
        <ele>153</ele>
        <time>2025-11-05T15:15:11.446Z</time>
      </trkpt>
      <trkpt lat="44.09624" lon="0.49002">
        <ele>153</ele>
        <time>2025-11-05T15:15:12.446Z</time>
      </trkpt>
      <trkpt lat="44.09625" lon="0.49003">
        <ele>153</ele>
        <time>2025-11-05T15:15:13.446Z</time>
      </trkpt>
      <trkpt lat="44.09626" lon="0.49003">
        <ele>152</ele>
        <time>2025-11-05T15:15:14.446Z</time>
      </trkpt>
      <trkpt lat="44.09627" lon="0.49003">
        <ele>152</ele>
        <time>2025-11-05T15:15:15.446Z</time>
      </trkpt>
      <trkpt lat="44.09628" lon="0.49003">
        <ele>152</ele>
        <time>2025-11-05T15:15:16.446Z</time>
      </trkpt>
      <trkpt lat="44.0963" lon="0.49004">
        <ele>153</ele>
        <time>2025-11-05T15:15:17.446Z</time>
      </trkpt>
      <trkpt lat="44.09631" lon="0.49004">
        <ele>153</ele>
        <time>2025-11-05T15:15:18.446Z</time>
      </trkpt>
      <trkpt lat="44.09632" lon="0.49005">
        <ele>153</ele>
        <time>2025-11-05T15:15:19.446Z</time>
      </trkpt>
      <trkpt lat="44.09634" lon="0.49006">
        <ele>153</ele>
        <time>2025-11-05T15:15:20.446Z</time>
      </trkpt>
      <trkpt lat="44.09635" lon="0.49006">
        <ele>153</ele>
        <time>2025-11-05T15:15:21.446Z</time>
      </trkpt>
      <trkpt lat="44.09636" lon="0.49006">
        <ele>152</ele>
        <time>2025-11-05T15:15:22.446Z</time>
      </trkpt>
      <trkpt lat="44.09637" lon="0.49007">
        <ele>152</ele>
        <time>2025-11-05T15:15:23.446Z</time>
      </trkpt>
      <trkpt lat="44.09638" lon="0.49008">
        <ele>152</ele>
        <time>2025-11-05T15:15:24.446Z</time>
      </trkpt>
      <trkpt lat="44.09639" lon="0.49008">
        <ele>152</ele>
        <time>2025-11-05T15:15:25.446Z</time>
      </trkpt>
      <trkpt lat="44.0964" lon="0.49009">
        <ele>151</ele>
        <time>2025-11-05T15:15:26.446Z</time>
      </trkpt>
      <trkpt lat="44.09641" lon="0.49009">
        <ele>152</ele>
        <time>2025-11-05T15:15:27.446Z</time>
      </trkpt>
      <trkpt lat="44.09642" lon="0.4901">
        <ele>151</ele>
        <time>2025-11-05T15:15:28.446Z</time>
      </trkpt>
      <trkpt lat="44.09643" lon="0.49011">
        <ele>152</ele>
        <time>2025-11-05T15:15:29.446Z</time>
      </trkpt>
      <trkpt lat="44.09644" lon="0.49012">
        <ele>152</ele>
        <time>2025-11-05T15:15:30.446Z</time>
      </trkpt>
      <trkpt lat="44.09645" lon="0.49013">
        <ele>152</ele>
        <time>2025-11-05T15:15:31.446Z</time>
      </trkpt>
      <trkpt lat="44.09645" lon="0.49013">
        <ele>153</ele>
        <time>2025-11-05T15:15:32.446Z</time>
      </trkpt>
      <trkpt lat="44.09646" lon="0.49014">
        <ele>153</ele>
        <time>2025-11-05T15:15:33.446Z</time>
      </trkpt>
      <trkpt lat="44.09647" lon="0.49015">
        <ele>153</ele>
        <time>2025-11-05T15:15:34.447Z</time>
      </trkpt>
      <trkpt lat="44.09648" lon="0.49016">
        <ele>153</ele>
        <time>2025-11-05T15:15:35.446Z</time>
      </trkpt>
      <trkpt lat="44.09649" lon="0.49016">
        <ele>154</ele>
        <time>2025-11-05T15:15:36.446Z</time>
      </trkpt>
      <trkpt lat="44.0965" lon="0.49017">
        <ele>154</ele>
        <time>2025-11-05T15:15:37.446Z</time>
      </trkpt>
      <trkpt lat="44.09651" lon="0.49018">
        <ele>154</ele>
        <time>2025-11-05T15:15:38.446Z</time>
      </trkpt>
      <trkpt lat="44.09652" lon="0.49019">
        <ele>154</ele>
        <time>2025-11-05T15:15:39.446Z</time>
      </trkpt>
      <trkpt lat="44.09653" lon="0.4902">
        <ele>154</ele>
        <time>2025-11-05T15:15:40.446Z</time>
      </trkpt>
      <trkpt lat="44.09653" lon="0.49021">
        <ele>155</ele>
        <time>2025-11-05T15:15:41.446Z</time>
      </trkpt>
      <trkpt lat="44.09654" lon="0.49022">
        <ele>155</ele>
        <time>2025-11-05T15:15:42.446Z</time>
      </trkpt>
      <trkpt lat="44.09655" lon="0.49023">
        <ele>155</ele>
        <time>2025-11-05T15:15:43.446Z</time>
      </trkpt>
      <trkpt lat="44.09656" lon="0.49023">
        <ele>156</ele>
        <time>2025-11-05T15:15:44.446Z</time>
      </trkpt>
      <trkpt lat="44.09657" lon="0.49024">
        <ele>156</ele>
        <time>2025-11-05T15:15:45.446Z</time>
      </trkpt>
      <trkpt lat="44.09658" lon="0.49025">
        <ele>156</ele>
        <time>2025-11-05T15:15:46.446Z</time>
      </trkpt>
      <trkpt lat="44.09659" lon="0.49025">
        <ele>156</ele>
        <time>2025-11-05T15:15:47.446Z</time>
      </trkpt>
      <trkpt lat="44.0966" lon="0.49026">
        <ele>156</ele>
        <time>2025-11-05T15:15:48.446Z</time>
      </trkpt>
      <trkpt lat="44.09661" lon="0.49027">
        <ele>157</ele>
        <time>2025-11-05T15:15:49.446Z</time>
      </trkpt>
      <trkpt lat="44.09661" lon="0.49028">
        <ele>157</ele>
        <time>2025-11-05T15:15:50.446Z</time>
      </trkpt>
      <trkpt lat="44.09662" lon="0.49028">
        <ele>157</ele>
        <time>2025-11-05T15:15:51.446Z</time>
      </trkpt>
      <trkpt lat="44.09663" lon="0.49029">
        <ele>157</ele>
        <time>2025-11-05T15:15:52.446Z</time>
      </trkpt>
      <trkpt lat="44.09665" lon="0.49028">
        <ele>158</ele>
        <time>2025-11-05T15:15:53.446Z</time>
      </trkpt>
      <trkpt lat="44.09667" lon="0.49029">
        <ele>158</ele>
        <time>2025-11-05T15:15:54.446Z</time>
      </trkpt>
      <trkpt lat="44.09668" lon="0.49029">
        <ele>158</ele>
        <time>2025-11-05T15:15:55.446Z</time>
      </trkpt>
      <trkpt lat="44.09669" lon="0.49029">
        <ele>158</ele>
        <time>2025-11-05T15:15:56.446Z</time>
      </trkpt>
      <trkpt lat="44.0967" lon="0.49029">
        <ele>158</ele>
        <time>2025-11-05T15:15:57.446Z</time>
      </trkpt>
      <trkpt lat="44.09671" lon="0.49028">
        <ele>158</ele>
        <time>2025-11-05T15:15:58.446Z</time>
      </trkpt>
      <trkpt lat="44.09672" lon="0.49027">
        <ele>158</ele>
        <time>2025-11-05T15:15:59.446Z</time>
      </trkpt>
      <trkpt lat="44.09673" lon="0.49027">
        <ele>157</ele>
        <time>2025-11-05T15:16:00.446Z</time>
      </trkpt>
      <trkpt lat="44.09674" lon="0.49026">
        <ele>157</ele>
        <time>2025-11-05T15:16:01.446Z</time>
      </trkpt>
      <trkpt lat="44.09675" lon="0.49025">
        <ele>157</ele>
        <time>2025-11-05T15:16:02.447Z</time>
      </trkpt>
      <trkpt lat="44.09676" lon="0.49024">
        <ele>156</ele>
        <time>2025-11-05T15:16:03.446Z</time>
      </trkpt>
      <trkpt lat="44.09677" lon="0.49023">
        <ele>156</ele>
        <time>2025-11-05T15:16:04.446Z</time>
      </trkpt>
      <trkpt lat="44.09677" lon="0.49022">
        <ele>156</ele>
        <time>2025-11-05T15:16:05.446Z</time>
      </trkpt>
      <trkpt lat="44.09678" lon="0.49021">
        <ele>155</ele>
        <time>2025-11-05T15:16:06.446Z</time>
      </trkpt>
      <trkpt lat="44.09679" lon="0.49021">
        <ele>155</ele>
        <time>2025-11-05T15:16:07.446Z</time>
      </trkpt>
      <trkpt lat="44.0968" lon="0.4902">
        <ele>154</ele>
        <time>2025-11-05T15:16:08.446Z</time>
      </trkpt>
      <trkpt lat="44.09681" lon="0.49019">
        <ele>154</ele>
        <time>2025-11-05T15:16:09.446Z</time>
      </trkpt>
      <trkpt lat="44.09683" lon="0.49019">
        <ele>154</ele>
        <time>2025-11-05T15:16:10.446Z</time>
      </trkpt>
      <trkpt lat="44.09684" lon="0.49018">
        <ele>154</ele>
        <time>2025-11-05T15:16:11.446Z</time>
      </trkpt>
      <trkpt lat="44.09685" lon="0.49018">
        <ele>153</ele>
        <time>2025-11-05T15:16:12.446Z</time>
      </trkpt>
      <trkpt lat="44.09686" lon="0.49017">
        <ele>153</ele>
        <time>2025-11-05T15:16:13.446Z</time>
      </trkpt>
      <trkpt lat="44.09687" lon="0.49016">
        <ele>154</ele>
        <time>2025-11-05T15:16:14.446Z</time>
      </trkpt>
      <trkpt lat="44.09688" lon="0.49016">
        <ele>154</ele>
        <time>2025-11-05T15:16:15.446Z</time>
      </trkpt>
      <trkpt lat="44.09689" lon="0.49015">
        <ele>154</ele>
        <time>2025-11-05T15:16:16.446Z</time>
      </trkpt>
      <trkpt lat="44.0969" lon="0.49014">
        <ele>154</ele>
        <time>2025-11-05T15:16:17.446Z</time>
      </trkpt>
      <trkpt lat="44.09691" lon="0.49013">
        <ele>154</ele>
        <time>2025-11-05T15:16:18.446Z</time>
      </trkpt>
      <trkpt lat="44.09692" lon="0.49012">
        <ele>154</ele>
        <time>2025-11-05T15:16:19.446Z</time>
      </trkpt>
      <trkpt lat="44.09693" lon="0.49011">
        <ele>154</ele>
        <time>2025-11-05T15:16:20.446Z</time>
      </trkpt>
      <trkpt lat="44.09694" lon="0.4901">
        <ele>154</ele>
        <time>2025-11-05T15:16:21.446Z</time>
      </trkpt>
      <trkpt lat="44.09695" lon="0.49009">
        <ele>154</ele>
        <time>2025-11-05T15:16:22.446Z</time>
      </trkpt>
      <trkpt lat="44.09696" lon="0.49008">
        <ele>154</ele>
        <time>2025-11-05T15:16:23.446Z</time>
      </trkpt>
      <trkpt lat="44.09697" lon="0.49007">
        <ele>155</ele>
        <time>2025-11-05T15:16:24.446Z</time>
      </trkpt>
      <trkpt lat="44.09698" lon="0.49007">
        <ele>155</ele>
        <time>2025-11-05T15:16:25.446Z</time>
      </trkpt>
      <trkpt lat="44.09699" lon="0.49006">
        <ele>154</ele>
        <time>2025-11-05T15:16:26.446Z</time>
      </trkpt>
      <trkpt lat="44.097" lon="0.49005">
        <ele>154</ele>
        <time>2025-11-05T15:16:27.446Z</time>
      </trkpt>
      <trkpt lat="44.09701" lon="0.49004">
        <ele>154</ele>
        <time>2025-11-05T15:16:28.446Z</time>
      </trkpt>
      <trkpt lat="44.09701" lon="0.49003">
        <ele>154</ele>
        <time>2025-11-05T15:16:29.446Z</time>
      </trkpt>
      <trkpt lat="44.09702" lon="0.49003">
        <ele>154</ele>
        <time>2025-11-05T15:16:30.446Z</time>
      </trkpt>
      <trkpt lat="44.09702" lon="0.49002">
        <ele>154</ele>
        <time>2025-11-05T15:16:31.446Z</time>
      </trkpt>
      <trkpt lat="44.09703" lon="0.49001">
        <ele>154</ele>
        <time>2025-11-05T15:16:32.446Z</time>
      </trkpt>
      <trkpt lat="44.09704" lon="0.49">
        <ele>154</ele>
        <time>2025-11-05T15:16:33.446Z</time>
      </trkpt>
      <trkpt lat="44.09705" lon="0.49">
        <ele>153</ele>
        <time>2025-11-05T15:16:34.446Z</time>
      </trkpt>
      <trkpt lat="44.09706" lon="0.48999">
        <ele>153</ele>
        <time>2025-11-05T15:16:35.446Z</time>
      </trkpt>
      <trkpt lat="44.09708" lon="0.48998">
        <ele>153</ele>
        <time>2025-11-05T15:16:36.446Z</time>
      </trkpt>
      <trkpt lat="44.09708" lon="0.48997">
        <ele>153</ele>
        <time>2025-11-05T15:16:37.446Z</time>
      </trkpt>
      <trkpt lat="44.09709" lon="0.48997">
        <ele>153</ele>
        <time>2025-11-05T15:16:38.446Z</time>
      </trkpt>
      <trkpt lat="44.0971" lon="0.48997">
        <ele>153</ele>
        <time>2025-11-05T15:16:39.446Z</time>
      </trkpt>
      <trkpt lat="44.0971" lon="0.48996">
        <ele>153</ele>
        <time>2025-11-05T15:16:40.446Z</time>
      </trkpt>
      <trkpt lat="44.09711" lon="0.48995">
        <ele>153</ele>
        <time>2025-11-05T15:16:41.446Z</time>
      </trkpt>
      <trkpt lat="44.09713" lon="0.48994">
        <ele>153</ele>
        <time>2025-11-05T15:16:42.446Z</time>
      </trkpt>
      <trkpt lat="44.09714" lon="0.48993">
        <ele>153</ele>
        <time>2025-11-05T15:16:43.446Z</time>
      </trkpt>
      <trkpt lat="44.09716" lon="0.48992">
        <ele>153</ele>
        <time>2025-11-05T15:16:44.446Z</time>
      </trkpt>
      <trkpt lat="44.09717" lon="0.48991">
        <ele>153</ele>
        <time>2025-11-05T15:16:45.446Z</time>
      </trkpt>
      <trkpt lat="44.09718" lon="0.4899">
        <ele>153</ele>
        <time>2025-11-05T15:16:46.446Z</time>
      </trkpt>
      <trkpt lat="44.09718" lon="0.48989">
        <ele>153</ele>
        <time>2025-11-05T15:16:47.446Z</time>
      </trkpt>
      <trkpt lat="44.09719" lon="0.48988">
        <ele>153</ele>
        <time>2025-11-05T15:16:48.446Z</time>
      </trkpt>
      <trkpt lat="44.0972" lon="0.48988">
        <ele>154</ele>
        <time>2025-11-05T15:16:49.446Z</time>
      </trkpt>
      <trkpt lat="44.09722" lon="0.48987">
        <ele>154</ele>
        <time>2025-11-05T15:16:50.446Z</time>
      </trkpt>
      <trkpt lat="44.09723" lon="0.48985">
        <ele>155</ele>
        <time>2025-11-05T15:16:51.446Z</time>
      </trkpt>
      <trkpt lat="44.09724" lon="0.48984">
        <ele>155</ele>
        <time>2025-11-05T15:16:52.447Z</time>
      </trkpt>
      <trkpt lat="44.09726" lon="0.48983">
        <ele>155</ele>
        <time>2025-11-05T15:16:53.446Z</time>
      </trkpt>
      <trkpt lat="44.09727" lon="0.48982">
        <ele>156</ele>
        <time>2025-11-05T15:16:54.446Z</time>
      </trkpt>
      <trkpt lat="44.09728" lon="0.48982">
        <ele>156</ele>
        <time>2025-11-05T15:16:55.446Z</time>
      </trkpt>
      <trkpt lat="44.09729" lon="0.48981">
        <ele>156</ele>
        <time>2025-11-05T15:16:56.446Z</time>
      </trkpt>
      <trkpt lat="44.0973" lon="0.4898">
        <ele>155</ele>
        <time>2025-11-05T15:16:57.446Z</time>
      </trkpt>
      <trkpt lat="44.09731" lon="0.4898">
        <ele>155</ele>
        <time>2025-11-05T15:16:58.446Z</time>
      </trkpt>
      <trkpt lat="44.09732" lon="0.48979">
        <ele>155</ele>
        <time>2025-11-05T15:16:59.446Z</time>
      </trkpt>
      <trkpt lat="44.09733" lon="0.48977">
        <ele>155</ele>
        <time>2025-11-05T15:17:00.446Z</time>
      </trkpt>
      <trkpt lat="44.09735" lon="0.48976">
        <ele>155</ele>
        <time>2025-11-05T15:17:01.446Z</time>
      </trkpt>
      <trkpt lat="44.09736" lon="0.48975">
        <ele>154</ele>
        <time>2025-11-05T15:17:02.446Z</time>
      </trkpt>
      <trkpt lat="44.09737" lon="0.48973">
        <ele>154</ele>
        <time>2025-11-05T15:17:03.446Z</time>
      </trkpt>
      <trkpt lat="44.09737" lon="0.48971">
        <ele>154</ele>
        <time>2025-11-05T15:17:04.446Z</time>
      </trkpt>
      <trkpt lat="44.09738" lon="0.4897">
        <ele>154</ele>
        <time>2025-11-05T15:17:05.446Z</time>
      </trkpt>
      <trkpt lat="44.09739" lon="0.48968">
        <ele>154</ele>
        <time>2025-11-05T15:17:06.446Z</time>
      </trkpt>
      <trkpt lat="44.0974" lon="0.48967">
        <ele>154</ele>
        <time>2025-11-05T15:17:07.446Z</time>
      </trkpt>
      <trkpt lat="44.09741" lon="0.48965">
        <ele>154</ele>
        <time>2025-11-05T15:17:08.446Z</time>
      </trkpt>
      <trkpt lat="44.09742" lon="0.48964">
        <ele>154</ele>
        <time>2025-11-05T15:17:09.446Z</time>
      </trkpt>
      <trkpt lat="44.09743" lon="0.48964">
        <ele>153</ele>
        <time>2025-11-05T15:17:10.446Z</time>
      </trkpt>
      <trkpt lat="44.09743" lon="0.48964">
        <ele>153</ele>
        <time>2025-11-05T15:17:11.446Z</time>
      </trkpt>
      <trkpt lat="44.09743" lon="0.48963">
        <ele>153</ele>
        <time>2025-11-05T15:17:12.446Z</time>
      </trkpt>
      <trkpt lat="44.09744" lon="0.48963">
        <ele>153</ele>
        <time>2025-11-05T15:17:13.446Z</time>
      </trkpt>
      <trkpt lat="44.09744" lon="0.48963">
        <ele>153</ele>
        <time>2025-11-05T15:17:14.446Z</time>
      </trkpt>
      <trkpt lat="44.09744" lon="0.48962">
        <ele>153</ele>
        <time>2025-11-05T15:17:15.446Z</time>
      </trkpt>
      <trkpt lat="44.09745" lon="0.48962">
        <ele>153</ele>
        <time>2025-11-05T15:17:16.446Z</time>
      </trkpt>
      <trkpt lat="44.09746" lon="0.48962">
        <ele>152</ele>
        <time>2025-11-05T15:17:17.446Z</time>
      </trkpt>
      <trkpt lat="44.09747" lon="0.48962">
        <ele>152</ele>
        <time>2025-11-05T15:17:18.446Z</time>
      </trkpt>
      <trkpt lat="44.09748" lon="0.48961">
        <ele>151</ele>
        <time>2025-11-05T15:17:19.446Z</time>
      </trkpt>
      <trkpt lat="44.09748" lon="0.48961">
        <ele>151</ele>
        <time>2025-11-05T15:17:20.446Z</time>
      </trkpt>
      <trkpt lat="44.09749" lon="0.48961">
        <ele>151</ele>
        <time>2025-11-05T15:17:21.446Z</time>
      </trkpt>
      <trkpt lat="44.0975" lon="0.48961">
        <ele>151</ele>
        <time>2025-11-05T15:17:22.446Z</time>
      </trkpt>
      <trkpt lat="44.09751" lon="0.48961">
        <ele>151</ele>
        <time>2025-11-05T15:17:23.446Z</time>
      </trkpt>
      <trkpt lat="44.09752" lon="0.4896">
        <ele>151</ele>
        <time>2025-11-05T15:17:24.446Z</time>
      </trkpt>
      <trkpt lat="44.09753" lon="0.48959">
        <ele>152</ele>
        <time>2025-11-05T15:17:25.446Z</time>
      </trkpt>
      <trkpt lat="44.09754" lon="0.48958">
        <ele>152</ele>
        <time>2025-11-05T15:17:26.446Z</time>
      </trkpt>
      <trkpt lat="44.09755" lon="0.48957">
        <ele>152</ele>
        <time>2025-11-05T15:17:27.446Z</time>
      </trkpt>
      <trkpt lat="44.09756" lon="0.48957">
        <ele>152</ele>
        <time>2025-11-05T15:17:28.446Z</time>
      </trkpt>
      <trkpt lat="44.09757" lon="0.48956">
        <ele>152</ele>
        <time>2025-11-05T15:17:29.446Z</time>
      </trkpt>
      <trkpt lat="44.09758" lon="0.48955">
        <ele>152</ele>
        <time>2025-11-05T15:17:30.446Z</time>
      </trkpt>
      <trkpt lat="44.09759" lon="0.48955">
        <ele>152</ele>
        <time>2025-11-05T15:17:31.446Z</time>
      </trkpt>
      <trkpt lat="44.09759" lon="0.48953">
        <ele>151</ele>
        <time>2025-11-05T15:17:32.446Z</time>
      </trkpt>
      <trkpt lat="44.0976" lon="0.48952">
        <ele>151</ele>
        <time>2025-11-05T15:17:33.446Z</time>
      </trkpt>
      <trkpt lat="44.09761" lon="0.48951">
        <ele>151</ele>
        <time>2025-11-05T15:17:34.446Z</time>
      </trkpt>
      <trkpt lat="44.09763" lon="0.4895">
        <ele>151</ele>
        <time>2025-11-05T15:17:35.446Z</time>
      </trkpt>
      <trkpt lat="44.09764" lon="0.48949">
        <ele>151</ele>
        <time>2025-11-05T15:17:36.446Z</time>
      </trkpt>
      <trkpt lat="44.09765" lon="0.48949">
        <ele>151</ele>
        <time>2025-11-05T15:17:37.446Z</time>
      </trkpt>
      <trkpt lat="44.09767" lon="0.48948">
        <ele>152</ele>
        <time>2025-11-05T15:17:38.446Z</time>
      </trkpt>
      <trkpt lat="44.09768" lon="0.48947">
        <ele>152</ele>
        <time>2025-11-05T15:17:39.446Z</time>
      </trkpt>
      <trkpt lat="44.09768" lon="0.48946">
        <ele>152</ele>
        <time>2025-11-05T15:17:40.446Z</time>
      </trkpt>
      <trkpt lat="44.09769" lon="0.48945">
        <ele>152</ele>
        <time>2025-11-05T15:17:41.446Z</time>
      </trkpt>
      <trkpt lat="44.0977" lon="0.48944">
        <ele>152</ele>
        <time>2025-11-05T15:17:42.446Z</time>
      </trkpt>
      <trkpt lat="44.09771" lon="0.48943">
        <ele>152</ele>
        <time>2025-11-05T15:17:43.446Z</time>
      </trkpt>
      <trkpt lat="44.09772" lon="0.48942">
        <ele>152</ele>
        <time>2025-11-05T15:17:44.446Z</time>
      </trkpt>
      <trkpt lat="44.09773" lon="0.48941">
        <ele>152</ele>
        <time>2025-11-05T15:17:45.446Z</time>
      </trkpt>
      <trkpt lat="44.09774" lon="0.48941">
        <ele>152</ele>
        <time>2025-11-05T15:17:46.446Z</time>
      </trkpt>
      <trkpt lat="44.09775" lon="0.4894">
        <ele>152</ele>
        <time>2025-11-05T15:17:47.446Z</time>
      </trkpt>
      <trkpt lat="44.09776" lon="0.48939">
        <ele>152</ele>
        <time>2025-11-05T15:17:48.446Z</time>
      </trkpt>
      <trkpt lat="44.09776" lon="0.48937">
        <ele>152</ele>
        <time>2025-11-05T15:17:49.446Z</time>
      </trkpt>
      <trkpt lat="44.09776" lon="0.48937">
        <ele>152</ele>
        <time>2025-11-05T15:17:50.446Z</time>
      </trkpt>
      <trkpt lat="44.09777" lon="0.48936">
        <ele>151</ele>
        <time>2025-11-05T15:17:51.446Z</time>
      </trkpt>
      <trkpt lat="44.09778" lon="0.48935">
        <ele>151</ele>
        <time>2025-11-05T15:17:52.446Z</time>
      </trkpt>
      <trkpt lat="44.09778" lon="0.48933">
        <ele>151</ele>
        <time>2025-11-05T15:17:53.446Z</time>
      </trkpt>
      <trkpt lat="44.0978" lon="0.48931">
        <ele>151</ele>
        <time>2025-11-05T15:17:54.446Z</time>
      </trkpt>
      <trkpt lat="44.09781" lon="0.4893">
        <ele>150</ele>
        <time>2025-11-05T15:17:55.446Z</time>
      </trkpt>
      <trkpt lat="44.09782" lon="0.48929">
        <ele>150</ele>
        <time>2025-11-05T15:17:56.446Z</time>
      </trkpt>
      <trkpt lat="44.09783" lon="0.48928">
        <ele>150</ele>
        <time>2025-11-05T15:17:57.446Z</time>
      </trkpt>
      <trkpt lat="44.09784" lon="0.48927">
        <ele>149</ele>
        <time>2025-11-05T15:17:58.446Z</time>
      </trkpt>
      <trkpt lat="44.09785" lon="0.48926">
        <ele>148</ele>
        <time>2025-11-05T15:17:59.446Z</time>
      </trkpt>
      <trkpt lat="44.09786" lon="0.48925">
        <ele>148</ele>
        <time>2025-11-05T15:18:00.447Z</time>
      </trkpt>
      <trkpt lat="44.09787" lon="0.48924">
        <ele>147</ele>
        <time>2025-11-05T15:18:01.446Z</time>
      </trkpt>
      <trkpt lat="44.09788" lon="0.48923">
        <ele>147</ele>
        <time>2025-11-05T15:18:02.446Z</time>
      </trkpt>
      <trkpt lat="44.09789" lon="0.48922">
        <ele>146</ele>
        <time>2025-11-05T15:18:03.446Z</time>
      </trkpt>
      <trkpt lat="44.0979" lon="0.48921">
        <ele>146</ele>
        <time>2025-11-05T15:18:04.446Z</time>
      </trkpt>
      <trkpt lat="44.09791" lon="0.4892">
        <ele>146</ele>
        <time>2025-11-05T15:18:05.446Z</time>
      </trkpt>
      <trkpt lat="44.09792" lon="0.48919">
        <ele>145</ele>
        <time>2025-11-05T15:18:06.446Z</time>
      </trkpt>
      <trkpt lat="44.09793" lon="0.48917">
        <ele>145</ele>
        <time>2025-11-05T15:18:07.446Z</time>
      </trkpt>
      <trkpt lat="44.09794" lon="0.48916">
        <ele>145</ele>
        <time>2025-11-05T15:18:08.446Z</time>
      </trkpt>
      <trkpt lat="44.09795" lon="0.48915">
        <ele>145</ele>
        <time>2025-11-05T15:18:09.446Z</time>
      </trkpt>
      <trkpt lat="44.09796" lon="0.48915">
        <ele>145</ele>
        <time>2025-11-05T15:18:10.446Z</time>
      </trkpt>
      <trkpt lat="44.09797" lon="0.48914">
        <ele>144</ele>
        <time>2025-11-05T15:18:11.446Z</time>
      </trkpt>
      <trkpt lat="44.09798" lon="0.48913">
        <ele>144</ele>
        <time>2025-11-05T15:18:12.446Z</time>
      </trkpt>
      <trkpt lat="44.09799" lon="0.48913">
        <ele>143</ele>
        <time>2025-11-05T15:18:13.446Z</time>
      </trkpt>
      <trkpt lat="44.098" lon="0.48912">
        <ele>143</ele>
        <time>2025-11-05T15:18:14.446Z</time>
      </trkpt>
      <trkpt lat="44.09801" lon="0.48911">
        <ele>142</ele>
        <time>2025-11-05T15:18:15.446Z</time>
      </trkpt>
      <trkpt lat="44.09802" lon="0.4891">
        <ele>142</ele>
        <time>2025-11-05T15:18:16.446Z</time>
      </trkpt>
      <trkpt lat="44.09803" lon="0.48909">
        <ele>141</ele>
        <time>2025-11-05T15:18:17.446Z</time>
      </trkpt>
      <trkpt lat="44.09804" lon="0.48908">
        <ele>141</ele>
        <time>2025-11-05T15:18:18.446Z</time>
      </trkpt>
      <trkpt lat="44.09805" lon="0.48908">
        <ele>141</ele>
        <time>2025-11-05T15:18:19.446Z</time>
      </trkpt>
      <trkpt lat="44.09807" lon="0.48907">
        <ele>141</ele>
        <time>2025-11-05T15:18:20.446Z</time>
      </trkpt>
      <trkpt lat="44.09808" lon="0.48906">
        <ele>141</ele>
        <time>2025-11-05T15:18:21.446Z</time>
      </trkpt>
      <trkpt lat="44.09809" lon="0.48905">
        <ele>141</ele>
        <time>2025-11-05T15:18:22.446Z</time>
      </trkpt>
      <trkpt lat="44.09811" lon="0.48905">
        <ele>141</ele>
        <time>2025-11-05T15:18:23.446Z</time>
      </trkpt>
      <trkpt lat="44.09812" lon="0.48904">
        <ele>141</ele>
        <time>2025-11-05T15:18:24.446Z</time>
      </trkpt>
      <trkpt lat="44.09813" lon="0.48903">
        <ele>141</ele>
        <time>2025-11-05T15:18:25.446Z</time>
      </trkpt>
      <trkpt lat="44.09814" lon="0.48902">
        <ele>141</ele>
        <time>2025-11-05T15:18:26.446Z</time>
      </trkpt>
      <trkpt lat="44.09815" lon="0.48901">
        <ele>141</ele>
        <time>2025-11-05T15:18:27.446Z</time>
      </trkpt>
      <trkpt lat="44.09816" lon="0.489">
        <ele>141</ele>
        <time>2025-11-05T15:18:28.446Z</time>
      </trkpt>
      <trkpt lat="44.09817" lon="0.48899">
        <ele>141</ele>
        <time>2025-11-05T15:18:29.446Z</time>
      </trkpt>
      <trkpt lat="44.09818" lon="0.48898">
        <ele>140</ele>
        <time>2025-11-05T15:18:30.446Z</time>
      </trkpt>
      <trkpt lat="44.09819" lon="0.48897">
        <ele>140</ele>
        <time>2025-11-05T15:18:31.446Z</time>
      </trkpt>
      <trkpt lat="44.09821" lon="0.48895">
        <ele>140</ele>
        <time>2025-11-05T15:18:32.446Z</time>
      </trkpt>
      <trkpt lat="44.09821" lon="0.48894">
        <ele>139</ele>
        <time>2025-11-05T15:18:33.446Z</time>
      </trkpt>
      <trkpt lat="44.09822" lon="0.48893">
        <ele>139</ele>
        <time>2025-11-05T15:18:34.446Z</time>
      </trkpt>
      <trkpt lat="44.09823" lon="0.48892">
        <ele>138</ele>
        <time>2025-11-05T15:18:35.446Z</time>
      </trkpt>
      <trkpt lat="44.09824" lon="0.48891">
        <ele>138</ele>
        <time>2025-11-05T15:18:36.446Z</time>
      </trkpt>
      <trkpt lat="44.09825" lon="0.4889">
        <ele>137</ele>
        <time>2025-11-05T15:18:37.446Z</time>
      </trkpt>
      <trkpt lat="44.09826" lon="0.48889">
        <ele>137</ele>
        <time>2025-11-05T15:18:38.446Z</time>
      </trkpt>
      <trkpt lat="44.09826" lon="0.48888">
        <ele>137</ele>
        <time>2025-11-05T15:18:39.446Z</time>
      </trkpt>
      <trkpt lat="44.09828" lon="0.48887">
        <ele>137</ele>
        <time>2025-11-05T15:18:40.446Z</time>
      </trkpt>
      <trkpt lat="44.09828" lon="0.48886">
        <ele>137</ele>
        <time>2025-11-05T15:18:41.446Z</time>
      </trkpt>
      <trkpt lat="44.09829" lon="0.48886">
        <ele>137</ele>
        <time>2025-11-05T15:18:42.446Z</time>
      </trkpt>
      <trkpt lat="44.0983" lon="0.48885">
        <ele>137</ele>
        <time>2025-11-05T15:18:43.446Z</time>
      </trkpt>
      <trkpt lat="44.09831" lon="0.48884">
        <ele>138</ele>
        <time>2025-11-05T15:18:44.446Z</time>
      </trkpt>
      <trkpt lat="44.09832" lon="0.48883">
        <ele>138</ele>
        <time>2025-11-05T15:18:45.446Z</time>
      </trkpt>
      <trkpt lat="44.09833" lon="0.48883">
        <ele>138</ele>
        <time>2025-11-05T15:18:46.446Z</time>
      </trkpt>
      <trkpt lat="44.09835" lon="0.48883">
        <ele>138</ele>
        <time>2025-11-05T15:18:47.446Z</time>
      </trkpt>
      <trkpt lat="44.09836" lon="0.48882">
        <ele>138</ele>
        <time>2025-11-05T15:18:48.446Z</time>
      </trkpt>
      <trkpt lat="44.09837" lon="0.48882">
        <ele>138</ele>
        <time>2025-11-05T15:18:49.446Z</time>
      </trkpt>
      <trkpt lat="44.09838" lon="0.48881">
        <ele>137</ele>
        <time>2025-11-05T15:18:50.446Z</time>
      </trkpt>
      <trkpt lat="44.09839" lon="0.4888">
        <ele>137</ele>
        <time>2025-11-05T15:18:51.446Z</time>
      </trkpt>
      <trkpt lat="44.0984" lon="0.4888">
        <ele>137</ele>
        <time>2025-11-05T15:18:52.446Z</time>
      </trkpt>
      <trkpt lat="44.09841" lon="0.4888">
        <ele>137</ele>
        <time>2025-11-05T15:18:53.446Z</time>
      </trkpt>
      <trkpt lat="44.09843" lon="0.4888">
        <ele>137</ele>
        <time>2025-11-05T15:18:54.446Z</time>
      </trkpt>
      <trkpt lat="44.09844" lon="0.48879">
        <ele>137</ele>
        <time>2025-11-05T15:18:55.446Z</time>
      </trkpt>
      <trkpt lat="44.09844" lon="0.48879">
        <ele>137</ele>
        <time>2025-11-05T15:18:56.446Z</time>
      </trkpt>
      <trkpt lat="44.09846" lon="0.48878">
        <ele>137</ele>
        <time>2025-11-05T15:18:57.446Z</time>
      </trkpt>
      <trkpt lat="44.09847" lon="0.48878">
        <ele>137</ele>
        <time>2025-11-05T15:18:58.446Z</time>
      </trkpt>
      <trkpt lat="44.09849" lon="0.48878">
        <ele>137</ele>
        <time>2025-11-05T15:18:59.446Z</time>
      </trkpt>
      <trkpt lat="44.0985" lon="0.48878">
        <ele>137</ele>
        <time>2025-11-05T15:19:00.446Z</time>
      </trkpt>
      <trkpt lat="44.09851" lon="0.48878">
        <ele>136</ele>
        <time>2025-11-05T15:19:01.446Z</time>
      </trkpt>
      <trkpt lat="44.09852" lon="0.48877">
        <ele>136</ele>
        <time>2025-11-05T15:19:02.446Z</time>
      </trkpt>
      <trkpt lat="44.09853" lon="0.48878">
        <ele>136</ele>
        <time>2025-11-05T15:19:03.446Z</time>
      </trkpt>
      <trkpt lat="44.09854" lon="0.48877">
        <ele>136</ele>
        <time>2025-11-05T15:19:04.446Z</time>
      </trkpt>
      <trkpt lat="44.09855" lon="0.48877">
        <ele>135</ele>
        <time>2025-11-05T15:19:05.446Z</time>
      </trkpt>
      <trkpt lat="44.09856" lon="0.48877">
        <ele>135</ele>
        <time>2025-11-05T15:19:06.446Z</time>
      </trkpt>
      <trkpt lat="44.09857" lon="0.48876">
        <ele>135</ele>
        <time>2025-11-05T15:19:07.446Z</time>
      </trkpt>
      <trkpt lat="44.09858" lon="0.48876">
        <ele>135</ele>
        <time>2025-11-05T15:19:08.446Z</time>
      </trkpt>
      <trkpt lat="44.0986" lon="0.48876">
        <ele>135</ele>
        <time>2025-11-05T15:19:09.446Z</time>
      </trkpt>
      <trkpt lat="44.09861" lon="0.48876">
        <ele>134</ele>
        <time>2025-11-05T15:19:10.446Z</time>
      </trkpt>
      <trkpt lat="44.09863" lon="0.48876">
        <ele>134</ele>
        <time>2025-11-05T15:19:11.447Z</time>
      </trkpt>
      <trkpt lat="44.09864" lon="0.48876">
        <ele>135</ele>
        <time>2025-11-05T15:19:12.446Z</time>
      </trkpt>
      <trkpt lat="44.09866" lon="0.48875">
        <ele>135</ele>
        <time>2025-11-05T15:19:13.446Z</time>
      </trkpt>
      <trkpt lat="44.09868" lon="0.48875">
        <ele>135</ele>
        <time>2025-11-05T15:19:14.446Z</time>
      </trkpt>
      <trkpt lat="44.09869" lon="0.48874">
        <ele>135</ele>
        <time>2025-11-05T15:19:15.446Z</time>
      </trkpt>
      <trkpt lat="44.0987" lon="0.48874">
        <ele>135</ele>
        <time>2025-11-05T15:19:16.446Z</time>
      </trkpt>
      <trkpt lat="44.09872" lon="0.48873">
        <ele>135</ele>
        <time>2025-11-05T15:19:17.446Z</time>
      </trkpt>
      <trkpt lat="44.09873" lon="0.48873">
        <ele>135</ele>
        <time>2025-11-05T15:19:18.446Z</time>
      </trkpt>
      <trkpt lat="44.09875" lon="0.48872">
        <ele>136</ele>
        <time>2025-11-05T15:19:19.446Z</time>
      </trkpt>
      <trkpt lat="44.09876" lon="0.48872">
        <ele>136</ele>
        <time>2025-11-05T15:19:20.446Z</time>
      </trkpt>
      <trkpt lat="44.09877" lon="0.48872">
        <ele>136</ele>
        <time>2025-11-05T15:19:21.446Z</time>
      </trkpt>
      <trkpt lat="44.09879" lon="0.48872">
        <ele>136</ele>
        <time>2025-11-05T15:19:22.446Z</time>
      </trkpt>
      <trkpt lat="44.0988" lon="0.48872">
        <ele>136</ele>
        <time>2025-11-05T15:19:23.446Z</time>
      </trkpt>
      <trkpt lat="44.09882" lon="0.48872">
        <ele>136</ele>
        <time>2025-11-05T15:19:24.446Z</time>
      </trkpt>
      <trkpt lat="44.09884" lon="0.48872">
        <ele>136</ele>
        <time>2025-11-05T15:19:25.446Z</time>
      </trkpt>
      <trkpt lat="44.09885" lon="0.48872">
        <ele>136</ele>
        <time>2025-11-05T15:19:26.446Z</time>
      </trkpt>
      <trkpt lat="44.09887" lon="0.48872">
        <ele>135</ele>
        <time>2025-11-05T15:19:27.446Z</time>
      </trkpt>
      <trkpt lat="44.09888" lon="0.48872">
        <ele>135</ele>
        <time>2025-11-05T15:19:28.446Z</time>
      </trkpt>
      <trkpt lat="44.0989" lon="0.48872">
        <ele>136</ele>
        <time>2025-11-05T15:19:29.446Z</time>
      </trkpt>
      <trkpt lat="44.09891" lon="0.48871">
        <ele>136</ele>
        <time>2025-11-05T15:19:30.446Z</time>
      </trkpt>
      <trkpt lat="44.09892" lon="0.48871">
        <ele>135</ele>
        <time>2025-11-05T15:19:31.446Z</time>
      </trkpt>
      <trkpt lat="44.09894" lon="0.48871">
        <ele>136</ele>
        <time>2025-11-05T15:19:32.446Z</time>
      </trkpt>
      <trkpt lat="44.09895" lon="0.4887">
        <ele>135</ele>
        <time>2025-11-05T15:19:33.446Z</time>
      </trkpt>
      <trkpt lat="44.09897" lon="0.4887">
        <ele>135</ele>
        <time>2025-11-05T15:19:34.446Z</time>
      </trkpt>
      <trkpt lat="44.09898" lon="0.48871">
        <ele>135</ele>
        <time>2025-11-05T15:19:35.446Z</time>
      </trkpt>
      <trkpt lat="44.09899" lon="0.48871">
        <ele>134</ele>
        <time>2025-11-05T15:19:36.446Z</time>
      </trkpt>
      <trkpt lat="44.099" lon="0.48871">
        <ele>134</ele>
        <time>2025-11-05T15:19:37.446Z</time>
      </trkpt>
      <trkpt lat="44.09902" lon="0.48871">
        <ele>134</ele>
        <time>2025-11-05T15:19:38.446Z</time>
      </trkpt>
      <trkpt lat="44.09903" lon="0.48871">
        <ele>134</ele>
        <time>2025-11-05T15:19:39.446Z</time>
      </trkpt>
      <trkpt lat="44.09904" lon="0.48871">
        <ele>134</ele>
        <time>2025-11-05T15:19:40.446Z</time>
      </trkpt>
      <trkpt lat="44.09906" lon="0.48871">
        <ele>133</ele>
        <time>2025-11-05T15:19:41.446Z</time>
      </trkpt>
      <trkpt lat="44.09907" lon="0.48871">
        <ele>133</ele>
        <time>2025-11-05T15:19:42.446Z</time>
      </trkpt>
      <trkpt lat="44.09908" lon="0.48871">
        <ele>133</ele>
        <time>2025-11-05T15:19:43.446Z</time>
      </trkpt>
      <trkpt lat="44.0991" lon="0.48872">
        <ele>133</ele>
        <time>2025-11-05T15:19:44.446Z</time>
      </trkpt>
      <trkpt lat="44.09911" lon="0.48872">
        <ele>132</ele>
        <time>2025-11-05T15:19:45.446Z</time>
      </trkpt>
      <trkpt lat="44.09912" lon="0.48872">
        <ele>131</ele>
        <time>2025-11-05T15:19:46.446Z</time>
      </trkpt>
      <trkpt lat="44.09913" lon="0.48873">
        <ele>131</ele>
        <time>2025-11-05T15:19:47.446Z</time>
      </trkpt>
      <trkpt lat="44.09914" lon="0.48873">
        <ele>130</ele>
        <time>2025-11-05T15:19:48.446Z</time>
      </trkpt>
      <trkpt lat="44.09915" lon="0.48873">
        <ele>130</ele>
        <time>2025-11-05T15:19:49.446Z</time>
      </trkpt>
      <trkpt lat="44.09916" lon="0.48873">
        <ele>129</ele>
        <time>2025-11-05T15:19:50.446Z</time>
      </trkpt>
      <trkpt lat="44.09917" lon="0.48873">
        <ele>129</ele>
        <time>2025-11-05T15:19:51.446Z</time>
      </trkpt>
      <trkpt lat="44.09918" lon="0.48873">
        <ele>128</ele>
        <time>2025-11-05T15:19:52.446Z</time>
      </trkpt>
      <trkpt lat="44.09919" lon="0.48873">
        <ele>128</ele>
        <time>2025-11-05T15:19:53.447Z</time>
      </trkpt>
      <trkpt lat="44.09921" lon="0.48873">
        <ele>127</ele>
        <time>2025-11-05T15:19:54.446Z</time>
      </trkpt>
      <trkpt lat="44.09922" lon="0.48872">
        <ele>127</ele>
        <time>2025-11-05T15:19:55.446Z</time>
      </trkpt>
      <trkpt lat="44.09924" lon="0.48872">
        <ele>127</ele>
        <time>2025-11-05T15:19:56.446Z</time>
      </trkpt>
      <trkpt lat="44.09926" lon="0.48872">
        <ele>127</ele>
        <time>2025-11-05T15:19:57.446Z</time>
      </trkpt>
      <trkpt lat="44.09927" lon="0.48871">
        <ele>127</ele>
        <time>2025-11-05T15:19:58.446Z</time>
      </trkpt>
      <trkpt lat="44.09928" lon="0.48871">
        <ele>127</ele>
        <time>2025-11-05T15:19:59.446Z</time>
      </trkpt>
      <trkpt lat="44.0993" lon="0.48871">
        <ele>127</ele>
        <time>2025-11-05T15:20:00.446Z</time>
      </trkpt>
      <trkpt lat="44.09931" lon="0.48871">
        <ele>127</ele>
        <time>2025-11-05T15:20:01.446Z</time>
      </trkpt>
      <trkpt lat="44.09932" lon="0.48871">
        <ele>127</ele>
        <time>2025-11-05T15:20:02.446Z</time>
      </trkpt>
      <trkpt lat="44.09933" lon="0.48871">
        <ele>127</ele>
        <time>2025-11-05T15:20:03.446Z</time>
      </trkpt>
      <trkpt lat="44.09934" lon="0.48871">
        <ele>126</ele>
        <time>2025-11-05T15:20:04.446Z</time>
      </trkpt>
      <trkpt lat="44.09935" lon="0.4887">
        <ele>126</ele>
        <time>2025-11-05T15:20:05.446Z</time>
      </trkpt>
      <trkpt lat="44.09936" lon="0.4887">
        <ele>126</ele>
        <time>2025-11-05T15:20:06.446Z</time>
      </trkpt>
      <trkpt lat="44.09938" lon="0.4887">
        <ele>126</ele>
        <time>2025-11-05T15:20:07.446Z</time>
      </trkpt>
      <trkpt lat="44.0994" lon="0.4887">
        <ele>126</ele>
        <time>2025-11-05T15:20:08.446Z</time>
      </trkpt>
      <trkpt lat="44.09941" lon="0.4887">
        <ele>126</ele>
        <time>2025-11-05T15:20:09.446Z</time>
      </trkpt>
      <trkpt lat="44.09943" lon="0.4887">
        <ele>126</ele>
        <time>2025-11-05T15:20:10.447Z</time>
      </trkpt>
      <trkpt lat="44.09944" lon="0.4887">
        <ele>126</ele>
        <time>2025-11-05T15:20:11.446Z</time>
      </trkpt>
      <trkpt lat="44.09946" lon="0.4887">
        <ele>126</ele>
        <time>2025-11-05T15:20:12.446Z</time>
      </trkpt>
      <trkpt lat="44.09948" lon="0.48869">
        <ele>126</ele>
        <time>2025-11-05T15:20:13.446Z</time>
      </trkpt>
      <trkpt lat="44.09949" lon="0.48869">
        <ele>127</ele>
        <time>2025-11-05T15:20:14.446Z</time>
      </trkpt>
      <trkpt lat="44.0995" lon="0.48869">
        <ele>127</ele>
        <time>2025-11-05T15:20:15.446Z</time>
      </trkpt>
      <trkpt lat="44.09952" lon="0.48868">
        <ele>128</ele>
        <time>2025-11-05T15:20:16.446Z</time>
      </trkpt>
      <trkpt lat="44.09953" lon="0.48867">
        <ele>128</ele>
        <time>2025-11-05T15:20:17.447Z</time>
      </trkpt>
      <trkpt lat="44.09955" lon="0.48867">
        <ele>128</ele>
        <time>2025-11-05T15:20:18.446Z</time>
      </trkpt>
      <trkpt lat="44.09956" lon="0.48867">
        <ele>128</ele>
        <time>2025-11-05T15:20:19.446Z</time>
      </trkpt>
      <trkpt lat="44.09957" lon="0.48867">
        <ele>128</ele>
        <time>2025-11-05T15:20:20.446Z</time>
      </trkpt>
      <trkpt lat="44.09958" lon="0.48866">
        <ele>129</ele>
        <time>2025-11-05T15:20:21.446Z</time>
      </trkpt>
      <trkpt lat="44.09959" lon="0.48866">
        <ele>128</ele>
        <time>2025-11-05T15:20:22.446Z</time>
      </trkpt>
      <trkpt lat="44.09961" lon="0.48866">
        <ele>128</ele>
        <time>2025-11-05T15:20:23.446Z</time>
      </trkpt>
      <trkpt lat="44.09962" lon="0.48866">
        <ele>128</ele>
        <time>2025-11-05T15:20:24.446Z</time>
      </trkpt>
      <trkpt lat="44.09963" lon="0.48865">
        <ele>128</ele>
        <time>2025-11-05T15:20:25.446Z</time>
      </trkpt>
      <trkpt lat="44.09965" lon="0.48865">
        <ele>128</ele>
        <time>2025-11-05T15:20:26.446Z</time>
      </trkpt>
      <trkpt lat="44.09966" lon="0.48865">
        <ele>128</ele>
        <time>2025-11-05T15:20:27.446Z</time>
      </trkpt>
      <trkpt lat="44.09967" lon="0.48865">
        <ele>128</ele>
        <time>2025-11-05T15:20:28.446Z</time>
      </trkpt>
      <trkpt lat="44.09969" lon="0.48865">
        <ele>128</ele>
        <time>2025-11-05T15:20:29.446Z</time>
      </trkpt>
      <trkpt lat="44.09971" lon="0.48865">
        <ele>127</ele>
        <time>2025-11-05T15:20:30.446Z</time>
      </trkpt>
      <trkpt lat="44.09972" lon="0.48865">
        <ele>127</ele>
        <time>2025-11-05T15:20:31.446Z</time>
      </trkpt>
      <trkpt lat="44.09973" lon="0.48866">
        <ele>127</ele>
        <time>2025-11-05T15:20:32.446Z</time>
      </trkpt>
      <trkpt lat="44.09974" lon="0.48866">
        <ele>127</ele>
        <time>2025-11-05T15:20:33.446Z</time>
      </trkpt>
      <trkpt lat="44.09976" lon="0.48867">
        <ele>127</ele>
        <time>2025-11-05T15:20:34.446Z</time>
      </trkpt>
      <trkpt lat="44.09977" lon="0.48867">
        <ele>126</ele>
        <time>2025-11-05T15:20:35.446Z</time>
      </trkpt>
      <trkpt lat="44.09978" lon="0.48867">
        <ele>126</ele>
        <time>2025-11-05T15:20:36.446Z</time>
      </trkpt>
      <trkpt lat="44.09979" lon="0.48867">
        <ele>125</ele>
        <time>2025-11-05T15:20:37.446Z</time>
      </trkpt>
      <trkpt lat="44.09981" lon="0.48866">
        <ele>125</ele>
        <time>2025-11-05T15:20:38.446Z</time>
      </trkpt>
      <trkpt lat="44.09982" lon="0.48865">
        <ele>125</ele>
        <time>2025-11-05T15:20:39.446Z</time>
      </trkpt>
      <trkpt lat="44.09983" lon="0.48865">
        <ele>125</ele>
        <time>2025-11-05T15:20:40.446Z</time>
      </trkpt>
      <trkpt lat="44.09984" lon="0.48865">
        <ele>125</ele>
        <time>2025-11-05T15:20:41.446Z</time>
      </trkpt>
      <trkpt lat="44.09986" lon="0.48865">
        <ele>126</ele>
        <time>2025-11-05T15:20:42.446Z</time>
      </trkpt>
      <trkpt lat="44.09987" lon="0.48865">
        <ele>126</ele>
        <time>2025-11-05T15:20:43.446Z</time>
      </trkpt>
      <trkpt lat="44.09989" lon="0.48864">
        <ele>126</ele>
        <time>2025-11-05T15:20:44.446Z</time>
      </trkpt>
      <trkpt lat="44.0999" lon="0.48864">
        <ele>126</ele>
        <time>2025-11-05T15:20:45.446Z</time>
      </trkpt>
      <trkpt lat="44.09991" lon="0.48864">
        <ele>126</ele>
        <time>2025-11-05T15:20:46.446Z</time>
      </trkpt>
      <trkpt lat="44.09992" lon="0.48864">
        <ele>126</ele>
        <time>2025-11-05T15:20:47.446Z</time>
      </trkpt>
      <trkpt lat="44.09994" lon="0.48865">
        <ele>126</ele>
        <time>2025-11-05T15:20:48.446Z</time>
      </trkpt>
      <trkpt lat="44.09995" lon="0.48864">
        <ele>125</ele>
        <time>2025-11-05T15:20:49.446Z</time>
      </trkpt>
      <trkpt lat="44.09996" lon="0.48864">
        <ele>125</ele>
        <time>2025-11-05T15:20:50.446Z</time>
      </trkpt>
      <trkpt lat="44.09997" lon="0.48864">
        <ele>125</ele>
        <time>2025-11-05T15:20:51.446Z</time>
      </trkpt>
      <trkpt lat="44.09998" lon="0.48864">
        <ele>125</ele>
        <time>2025-11-05T15:20:52.446Z</time>
      </trkpt>
      <trkpt lat="44.1" lon="0.48864">
        <ele>125</ele>
        <time>2025-11-05T15:20:53.446Z</time>
      </trkpt>
      <trkpt lat="44.10001" lon="0.48864">
        <ele>125</ele>
        <time>2025-11-05T15:20:54.446Z</time>
      </trkpt>
      <trkpt lat="44.10002" lon="0.48864">
        <ele>125</ele>
        <time>2025-11-05T15:20:55.446Z</time>
      </trkpt>
      <trkpt lat="44.10004" lon="0.48864">
        <ele>125</ele>
        <time>2025-11-05T15:20:56.446Z</time>
      </trkpt>
      <trkpt lat="44.10005" lon="0.48864">
        <ele>125</ele>
        <time>2025-11-05T15:20:57.446Z</time>
      </trkpt>
      <trkpt lat="44.10006" lon="0.48864">
        <ele>125</ele>
        <time>2025-11-05T15:20:58.446Z</time>
      </trkpt>
      <trkpt lat="44.10008" lon="0.48864">
        <ele>125</ele>
        <time>2025-11-05T15:20:59.446Z</time>
      </trkpt>
      <trkpt lat="44.10009" lon="0.48864">
        <ele>125</ele>
        <time>2025-11-05T15:21:00.446Z</time>
      </trkpt>
      <trkpt lat="44.1001" lon="0.48865">
        <ele>125</ele>
        <time>2025-11-05T15:21:01.446Z</time>
      </trkpt>
      <trkpt lat="44.10012" lon="0.48865">
        <ele>124</ele>
        <time>2025-11-05T15:21:02.446Z</time>
      </trkpt>
      <trkpt lat="44.10013" lon="0.48865">
        <ele>124</ele>
        <time>2025-11-05T15:21:03.446Z</time>
      </trkpt>
      <trkpt lat="44.10014" lon="0.48865">
        <ele>124</ele>
        <time>2025-11-05T15:21:04.446Z</time>
      </trkpt>
      <trkpt lat="44.10016" lon="0.48864">
        <ele>124</ele>
        <time>2025-11-05T15:21:05.446Z</time>
      </trkpt>
      <trkpt lat="44.10017" lon="0.48864">
        <ele>124</ele>
        <time>2025-11-05T15:21:06.446Z</time>
      </trkpt>
      <trkpt lat="44.10018" lon="0.48864">
        <ele>124</ele>
        <time>2025-11-05T15:21:07.446Z</time>
      </trkpt>
      <trkpt lat="44.10019" lon="0.48863">
        <ele>124</ele>
        <time>2025-11-05T15:21:08.446Z</time>
      </trkpt>
      <trkpt lat="44.10021" lon="0.48863">
        <ele>124</ele>
        <time>2025-11-05T15:21:09.446Z</time>
      </trkpt>
      <trkpt lat="44.10022" lon="0.48863">
        <ele>123</ele>
        <time>2025-11-05T15:21:10.446Z</time>
      </trkpt>
      <trkpt lat="44.10023" lon="0.48864">
        <ele>124</ele>
        <time>2025-11-05T15:21:11.446Z</time>
      </trkpt>
      <trkpt lat="44.10025" lon="0.48864">
        <ele>124</ele>
        <time>2025-11-05T15:21:12.446Z</time>
      </trkpt>
      <trkpt lat="44.10027" lon="0.48863">
        <ele>124</ele>
        <time>2025-11-05T15:21:13.446Z</time>
      </trkpt>
      <trkpt lat="44.10028" lon="0.48863">
        <ele>124</ele>
        <time>2025-11-05T15:21:14.446Z</time>
      </trkpt>
      <trkpt lat="44.10029" lon="0.48863">
        <ele>124</ele>
        <time>2025-11-05T15:21:15.446Z</time>
      </trkpt>
      <trkpt lat="44.1003" lon="0.48864">
        <ele>124</ele>
        <time>2025-11-05T15:21:16.446Z</time>
      </trkpt>
      <trkpt lat="44.10032" lon="0.48863">
        <ele>124</ele>
        <time>2025-11-05T15:21:17.446Z</time>
      </trkpt>
      <trkpt lat="44.10033" lon="0.48863">
        <ele>124</ele>
        <time>2025-11-05T15:21:18.446Z</time>
      </trkpt>
      <trkpt lat="44.10035" lon="0.48863">
        <ele>123</ele>
        <time>2025-11-05T15:21:19.446Z</time>
      </trkpt>
      <trkpt lat="44.10036" lon="0.48863">
        <ele>123</ele>
        <time>2025-11-05T15:21:20.446Z</time>
      </trkpt>
      <trkpt lat="44.10037" lon="0.48863">
        <ele>123</ele>
        <time>2025-11-05T15:21:21.446Z</time>
      </trkpt>
      <trkpt lat="44.10039" lon="0.48863">
        <ele>123</ele>
        <time>2025-11-05T15:21:22.446Z</time>
      </trkpt>
      <trkpt lat="44.1004" lon="0.48863">
        <ele>123</ele>
        <time>2025-11-05T15:21:23.446Z</time>
      </trkpt>
      <trkpt lat="44.10041" lon="0.48863">
        <ele>123</ele>
        <time>2025-11-05T15:21:24.446Z</time>
      </trkpt>
      <trkpt lat="44.10042" lon="0.48863">
        <ele>123</ele>
        <time>2025-11-05T15:21:25.446Z</time>
      </trkpt>
      <trkpt lat="44.10043" lon="0.48863">
        <ele>122</ele>
        <time>2025-11-05T15:21:26.446Z</time>
      </trkpt>
      <trkpt lat="44.10044" lon="0.48862">
        <ele>122</ele>
        <time>2025-11-05T15:21:27.446Z</time>
      </trkpt>
      <trkpt lat="44.10045" lon="0.48862">
        <ele>122</ele>
        <time>2025-11-05T15:21:28.446Z</time>
      </trkpt>
      <trkpt lat="44.10046" lon="0.48862">
        <ele>121</ele>
        <time>2025-11-05T15:21:29.446Z</time>
      </trkpt>
      <trkpt lat="44.10048" lon="0.48862">
        <ele>121</ele>
        <time>2025-11-05T15:21:30.446Z</time>
      </trkpt>
      <trkpt lat="44.10049" lon="0.48862">
        <ele>121</ele>
        <time>2025-11-05T15:21:31.446Z</time>
      </trkpt>
      <trkpt lat="44.1005" lon="0.48862">
        <ele>121</ele>
        <time>2025-11-05T15:21:32.446Z</time>
      </trkpt>
      <trkpt lat="44.10051" lon="0.48862">
        <ele>121</ele>
        <time>2025-11-05T15:21:33.446Z</time>
      </trkpt>
      <trkpt lat="44.10052" lon="0.48862">
        <ele>121</ele>
        <time>2025-11-05T15:21:34.446Z</time>
      </trkpt>
      <trkpt lat="44.10053" lon="0.48862">
        <ele>121</ele>
        <time>2025-11-05T15:21:35.446Z</time>
      </trkpt>
      <trkpt lat="44.10055" lon="0.48862">
        <ele>121</ele>
        <time>2025-11-05T15:21:36.446Z</time>
      </trkpt>
      <trkpt lat="44.10056" lon="0.48862">
        <ele>121</ele>
        <time>2025-11-05T15:21:37.446Z</time>
      </trkpt>
      <trkpt lat="44.10057" lon="0.48862">
        <ele>120</ele>
        <time>2025-11-05T15:21:38.446Z</time>
      </trkpt>
      <trkpt lat="44.10058" lon="0.48862">
        <ele>120</ele>
        <time>2025-11-05T15:21:39.446Z</time>
      </trkpt>
      <trkpt lat="44.10059" lon="0.48862">
        <ele>120</ele>
        <time>2025-11-05T15:21:40.446Z</time>
      </trkpt>
      <trkpt lat="44.10061" lon="0.48862">
        <ele>120</ele>
        <time>2025-11-05T15:21:41.446Z</time>
      </trkpt>
      <trkpt lat="44.10062" lon="0.48862">
        <ele>120</ele>
        <time>2025-11-05T15:21:42.446Z</time>
      </trkpt>
      <trkpt lat="44.10064" lon="0.48862">
        <ele>120</ele>
        <time>2025-11-05T15:21:43.446Z</time>
      </trkpt>
      <trkpt lat="44.10065" lon="0.48862">
        <ele>120</ele>
        <time>2025-11-05T15:21:44.446Z</time>
      </trkpt>
      <trkpt lat="44.10066" lon="0.48862">
        <ele>120</ele>
        <time>2025-11-05T15:21:45.446Z</time>
      </trkpt>
      <trkpt lat="44.10068" lon="0.48862">
        <ele>120</ele>
        <time>2025-11-05T15:21:46.446Z</time>
      </trkpt>
      <trkpt lat="44.10069" lon="0.48862">
        <ele>120</ele>
        <time>2025-11-05T15:21:47.446Z</time>
      </trkpt>
      <trkpt lat="44.1007" lon="0.48862">
        <ele>120</ele>
        <time>2025-11-05T15:21:48.446Z</time>
      </trkpt>
      <trkpt lat="44.10072" lon="0.48862">
        <ele>120</ele>
        <time>2025-11-05T15:21:49.446Z</time>
      </trkpt>
      <trkpt lat="44.10073" lon="0.48861">
        <ele>120</ele>
        <time>2025-11-05T15:21:50.446Z</time>
      </trkpt>
      <trkpt lat="44.10074" lon="0.48861">
        <ele>121</ele>
        <time>2025-11-05T15:21:51.446Z</time>
      </trkpt>
      <trkpt lat="44.10075" lon="0.48861">
        <ele>121</ele>
        <time>2025-11-05T15:21:52.446Z</time>
      </trkpt>
      <trkpt lat="44.10076" lon="0.4886">
        <ele>121</ele>
        <time>2025-11-05T15:21:53.446Z</time>
      </trkpt>
      <trkpt lat="44.10078" lon="0.4886">
        <ele>121</ele>
        <time>2025-11-05T15:21:54.446Z</time>
      </trkpt>
      <trkpt lat="44.10079" lon="0.48859">
        <ele>121</ele>
        <time>2025-11-05T15:21:55.446Z</time>
      </trkpt>
      <trkpt lat="44.1008" lon="0.48859">
        <ele>121</ele>
        <time>2025-11-05T15:21:56.446Z</time>
      </trkpt>
      <trkpt lat="44.10081" lon="0.48858">
        <ele>121</ele>
        <time>2025-11-05T15:21:57.446Z</time>
      </trkpt>
      <trkpt lat="44.10083" lon="0.48858">
        <ele>121</ele>
        <time>2025-11-05T15:21:58.446Z</time>
      </trkpt>
      <trkpt lat="44.10084" lon="0.48858">
        <ele>121</ele>
        <time>2025-11-05T15:21:59.446Z</time>
      </trkpt>
      <trkpt lat="44.10085" lon="0.48857">
        <ele>120</ele>
        <time>2025-11-05T15:22:00.446Z</time>
      </trkpt>
      <trkpt lat="44.10086" lon="0.48857">
        <ele>120</ele>
        <time>2025-11-05T15:22:01.446Z</time>
      </trkpt>
      <trkpt lat="44.10087" lon="0.48856">
        <ele>120</ele>
        <time>2025-11-05T15:22:02.446Z</time>
      </trkpt>
      <trkpt lat="44.10088" lon="0.48856">
        <ele>119</ele>
        <time>2025-11-05T15:22:03.446Z</time>
      </trkpt>
      <trkpt lat="44.10089" lon="0.48856">
        <ele>119</ele>
        <time>2025-11-05T15:22:04.446Z</time>
      </trkpt>
      <trkpt lat="44.1009" lon="0.48855">
        <ele>119</ele>
        <time>2025-11-05T15:22:05.446Z</time>
      </trkpt>
      <trkpt lat="44.10091" lon="0.48855">
        <ele>119</ele>
        <time>2025-11-05T15:22:06.446Z</time>
      </trkpt>
      <trkpt lat="44.10093" lon="0.48854">
        <ele>119</ele>
        <time>2025-11-05T15:22:07.446Z</time>
      </trkpt>
      <trkpt lat="44.10094" lon="0.48853">
        <ele>119</ele>
        <time>2025-11-05T15:22:08.446Z</time>
      </trkpt>
      <trkpt lat="44.10095" lon="0.48853">
        <ele>118</ele>
        <time>2025-11-05T15:22:09.446Z</time>
      </trkpt>
      <trkpt lat="44.10096" lon="0.48852">
        <ele>119</ele>
        <time>2025-11-05T15:22:10.446Z</time>
      </trkpt>
      <trkpt lat="44.10098" lon="0.48852">
        <ele>118</ele>
        <time>2025-11-05T15:22:11.446Z</time>
      </trkpt>
      <trkpt lat="44.10099" lon="0.48851">
        <ele>118</ele>
        <time>2025-11-05T15:22:12.446Z</time>
      </trkpt>
      <trkpt lat="44.10101" lon="0.48851">
        <ele>118</ele>
        <time>2025-11-05T15:22:13.446Z</time>
      </trkpt>
      <trkpt lat="44.10102" lon="0.4885">
        <ele>118</ele>
        <time>2025-11-05T15:22:14.446Z</time>
      </trkpt>
      <trkpt lat="44.10103" lon="0.4885">
        <ele>118</ele>
        <time>2025-11-05T15:22:15.446Z</time>
      </trkpt>
      <trkpt lat="44.10104" lon="0.48849">
        <ele>118</ele>
        <time>2025-11-05T15:22:16.446Z</time>
      </trkpt>
      <trkpt lat="44.10105" lon="0.48849">
        <ele>118</ele>
        <time>2025-11-05T15:22:17.446Z</time>
      </trkpt>
      <trkpt lat="44.10106" lon="0.48849">
        <ele>119</ele>
        <time>2025-11-05T15:22:18.446Z</time>
      </trkpt>
      <trkpt lat="44.10107" lon="0.48848">
        <ele>119</ele>
        <time>2025-11-05T15:22:19.446Z</time>
      </trkpt>
      <trkpt lat="44.10109" lon="0.48847">
        <ele>119</ele>
        <time>2025-11-05T15:22:20.446Z</time>
      </trkpt>
      <trkpt lat="44.1011" lon="0.48846">
        <ele>120</ele>
        <time>2025-11-05T15:22:21.446Z</time>
      </trkpt>
      <trkpt lat="44.10111" lon="0.48845">
        <ele>120</ele>
        <time>2025-11-05T15:22:22.446Z</time>
      </trkpt>
      <trkpt lat="44.10111" lon="0.48845">
        <ele>120</ele>
        <time>2025-11-05T15:22:23.447Z</time>
      </trkpt>
      <trkpt lat="44.10112" lon="0.48844">
        <ele>120</ele>
        <time>2025-11-05T15:22:24.446Z</time>
      </trkpt>
      <trkpt lat="44.10112" lon="0.48844">
        <ele>120</ele>
        <time>2025-11-05T15:22:25.446Z</time>
      </trkpt>
      <trkpt lat="44.10113" lon="0.48843">
        <ele>120</ele>
        <time>2025-11-05T15:22:26.446Z</time>
      </trkpt>
      <trkpt lat="44.10114" lon="0.48843">
        <ele>120</ele>
        <time>2025-11-05T15:22:27.446Z</time>
      </trkpt>
      <trkpt lat="44.10115" lon="0.48842">
        <ele>119</ele>
        <time>2025-11-05T15:22:28.446Z</time>
      </trkpt>
      <trkpt lat="44.10115" lon="0.48841">
        <ele>119</ele>
        <time>2025-11-05T15:22:29.446Z</time>
      </trkpt>
      <trkpt lat="44.10115" lon="0.4884">
        <ele>119</ele>
        <time>2025-11-05T15:22:30.446Z</time>
      </trkpt>
      <trkpt lat="44.10116" lon="0.4884">
        <ele>119</ele>
        <time>2025-11-05T15:22:31.446Z</time>
      </trkpt>
      <trkpt lat="44.10117" lon="0.48839">
        <ele>118</ele>
        <time>2025-11-05T15:22:32.446Z</time>
      </trkpt>
      <trkpt lat="44.10117" lon="0.48838">
        <ele>118</ele>
        <time>2025-11-05T15:22:33.446Z</time>
      </trkpt>
      <trkpt lat="44.10118" lon="0.48837">
        <ele>118</ele>
        <time>2025-11-05T15:22:34.446Z</time>
      </trkpt>
      <trkpt lat="44.10117" lon="0.48837">
        <ele>118</ele>
        <time>2025-11-05T15:22:35.446Z</time>
      </trkpt>
      <trkpt lat="44.10118" lon="0.48836">
        <ele>118</ele>
        <time>2025-11-05T15:22:36.446Z</time>
      </trkpt>
      <trkpt lat="44.10117" lon="0.48834">
        <ele>118</ele>
        <time>2025-11-05T15:22:37.446Z</time>
      </trkpt>
      <trkpt lat="44.10117" lon="0.48833">
        <ele>118</ele>
        <time>2025-11-05T15:22:38.446Z</time>
      </trkpt>
      <trkpt lat="44.10116" lon="0.48831">
        <ele>118</ele>
        <time>2025-11-05T15:22:39.446Z</time>
      </trkpt>
      <trkpt lat="44.10115" lon="0.4883">
        <ele>118</ele>
        <time>2025-11-05T15:22:40.446Z</time>
      </trkpt>
      <trkpt lat="44.10114" lon="0.48828">
        <ele>118</ele>
        <time>2025-11-05T15:22:41.446Z</time>
      </trkpt>
      <trkpt lat="44.10114" lon="0.48827">
        <ele>118</ele>
        <time>2025-11-05T15:22:42.446Z</time>
      </trkpt>
      <trkpt lat="44.10113" lon="0.48827">
        <ele>118</ele>
        <time>2025-11-05T15:22:43.446Z</time>
      </trkpt>
      <trkpt lat="44.10112" lon="0.48826">
        <ele>118</ele>
        <time>2025-11-05T15:22:44.446Z</time>
      </trkpt>
      <trkpt lat="44.10112" lon="0.48824">
        <ele>117</ele>
        <time>2025-11-05T15:22:45.446Z</time>
      </trkpt>
      <trkpt lat="44.10111" lon="0.48823">
        <ele>117</ele>
        <time>2025-11-05T15:22:46.446Z</time>
      </trkpt>
      <trkpt lat="44.1011" lon="0.48821">
        <ele>117</ele>
        <time>2025-11-05T15:22:47.446Z</time>
      </trkpt>
      <trkpt lat="44.1011" lon="0.4882">
        <ele>117</ele>
        <time>2025-11-05T15:22:48.446Z</time>
      </trkpt>
      <trkpt lat="44.10109" lon="0.48818">
        <ele>117</ele>
        <time>2025-11-05T15:22:49.446Z</time>
      </trkpt>
      <trkpt lat="44.10109" lon="0.48817">
        <ele>117</ele>
        <time>2025-11-05T15:22:50.446Z</time>
      </trkpt>
      <trkpt lat="44.10108" lon="0.48815">
        <ele>117</ele>
        <time>2025-11-05T15:22:51.446Z</time>
      </trkpt>
      <trkpt lat="44.10108" lon="0.48813">
        <ele>116</ele>
        <time>2025-11-05T15:22:52.446Z</time>
      </trkpt>
      <trkpt lat="44.10107" lon="0.48812">
        <ele>116</ele>
        <time>2025-11-05T15:22:53.446Z</time>
      </trkpt>
      <trkpt lat="44.10107" lon="0.4881">
        <ele>116</ele>
        <time>2025-11-05T15:22:54.446Z</time>
      </trkpt>
      <trkpt lat="44.10107" lon="0.48809">
        <ele>116</ele>
        <time>2025-11-05T15:22:55.446Z</time>
      </trkpt>
      <trkpt lat="44.10107" lon="0.48807">
        <ele>116</ele>
        <time>2025-11-05T15:22:56.446Z</time>
      </trkpt>
      <trkpt lat="44.10106" lon="0.48805">
        <ele>116</ele>
        <time>2025-11-05T15:22:57.446Z</time>
      </trkpt>
      <trkpt lat="44.10105" lon="0.48804">
        <ele>116</ele>
        <time>2025-11-05T15:22:58.446Z</time>
      </trkpt>
      <trkpt lat="44.10105" lon="0.48802">
        <ele>116</ele>
        <time>2025-11-05T15:22:59.446Z</time>
      </trkpt>
      <trkpt lat="44.10104" lon="0.48801">
        <ele>116</ele>
        <time>2025-11-05T15:23:00.446Z</time>
      </trkpt>
      <trkpt lat="44.10104" lon="0.48799">
        <ele>116</ele>
        <time>2025-11-05T15:23:01.446Z</time>
      </trkpt>
      <trkpt lat="44.10104" lon="0.48798">
        <ele>116</ele>
        <time>2025-11-05T15:23:02.446Z</time>
      </trkpt>
      <trkpt lat="44.10103" lon="0.48797">
        <ele>116</ele>
        <time>2025-11-05T15:23:03.446Z</time>
      </trkpt>
      <trkpt lat="44.10102" lon="0.48795">
        <ele>116</ele>
        <time>2025-11-05T15:23:04.446Z</time>
      </trkpt>
      <trkpt lat="44.10102" lon="0.48794">
        <ele>116</ele>
        <time>2025-11-05T15:23:05.446Z</time>
      </trkpt>
      <trkpt lat="44.10102" lon="0.48792">
        <ele>116</ele>
        <time>2025-11-05T15:23:06.446Z</time>
      </trkpt>
      <trkpt lat="44.10101" lon="0.48791">
        <ele>116</ele>
        <time>2025-11-05T15:23:07.446Z</time>
      </trkpt>
      <trkpt lat="44.10101" lon="0.4879">
        <ele>116</ele>
        <time>2025-11-05T15:23:08.446Z</time>
      </trkpt>
      <trkpt lat="44.10101" lon="0.48788">
        <ele>116</ele>
        <time>2025-11-05T15:23:09.446Z</time>
      </trkpt>
      <trkpt lat="44.101" lon="0.48787">
        <ele>116</ele>
        <time>2025-11-05T15:23:10.446Z</time>
      </trkpt>
      <trkpt lat="44.101" lon="0.48786">
        <ele>116</ele>
        <time>2025-11-05T15:23:11.446Z</time>
      </trkpt>
      <trkpt lat="44.101" lon="0.48785">
        <ele>116</ele>
        <time>2025-11-05T15:23:12.446Z</time>
      </trkpt>
      <trkpt lat="44.10099" lon="0.48784">
        <ele>116</ele>
        <time>2025-11-05T15:23:13.446Z</time>
      </trkpt>
      <trkpt lat="44.10099" lon="0.48782">
        <ele>116</ele>
        <time>2025-11-05T15:23:14.446Z</time>
      </trkpt>
      <trkpt lat="44.10099" lon="0.48781">
        <ele>116</ele>
        <time>2025-11-05T15:23:15.446Z</time>
      </trkpt>
      <trkpt lat="44.10098" lon="0.48779">
        <ele>116</ele>
        <time>2025-11-05T15:23:16.446Z</time>
      </trkpt>
      <trkpt lat="44.10097" lon="0.48777">
        <ele>117</ele>
        <time>2025-11-05T15:23:17.446Z</time>
      </trkpt>
      <trkpt lat="44.10096" lon="0.48776">
        <ele>117</ele>
        <time>2025-11-05T15:23:18.446Z</time>
      </trkpt>
      <trkpt lat="44.10096" lon="0.48774">
        <ele>117</ele>
        <time>2025-11-05T15:23:19.446Z</time>
      </trkpt>
      <trkpt lat="44.10096" lon="0.48773">
        <ele>116</ele>
        <time>2025-11-05T15:23:20.446Z</time>
      </trkpt>
      <trkpt lat="44.10096" lon="0.48771">
        <ele>116</ele>
        <time>2025-11-05T15:23:21.446Z</time>
      </trkpt>
      <trkpt lat="44.10095" lon="0.4877">
        <ele>116</ele>
        <time>2025-11-05T15:23:22.446Z</time>
      </trkpt>
      <trkpt lat="44.10095" lon="0.48768">
        <ele>116</ele>
        <time>2025-11-05T15:23:23.446Z</time>
      </trkpt>
      <trkpt lat="44.10094" lon="0.48767">
        <ele>116</ele>
        <time>2025-11-05T15:23:24.446Z</time>
      </trkpt>
      <trkpt lat="44.10093" lon="0.48765">
        <ele>117</ele>
        <time>2025-11-05T15:23:25.446Z</time>
      </trkpt>
      <trkpt lat="44.10093" lon="0.48763">
        <ele>117</ele>
        <time>2025-11-05T15:23:26.446Z</time>
      </trkpt>
      <trkpt lat="44.10093" lon="0.48761">
        <ele>117</ele>
        <time>2025-11-05T15:23:27.446Z</time>
      </trkpt>
      <trkpt lat="44.10092" lon="0.48759">
        <ele>116</ele>
        <time>2025-11-05T15:23:28.446Z</time>
      </trkpt>
      <trkpt lat="44.10092" lon="0.48758">
        <ele>116</ele>
        <time>2025-11-05T15:23:29.446Z</time>
      </trkpt>
      <trkpt lat="44.10091" lon="0.48757">
        <ele>116</ele>
        <time>2025-11-05T15:23:30.446Z</time>
      </trkpt>
      <trkpt lat="44.1009" lon="0.48755">
        <ele>116</ele>
        <time>2025-11-05T15:23:31.446Z</time>
      </trkpt>
      <trkpt lat="44.1009" lon="0.48754">
        <ele>116</ele>
        <time>2025-11-05T15:23:32.446Z</time>
      </trkpt>
      <trkpt lat="44.1009" lon="0.48753">
        <ele>116</ele>
        <time>2025-11-05T15:23:33.446Z</time>
      </trkpt>
      <trkpt lat="44.10089" lon="0.48752">
        <ele>116</ele>
        <time>2025-11-05T15:23:34.446Z</time>
      </trkpt>
      <trkpt lat="44.10088" lon="0.48751">
        <ele>116</ele>
        <time>2025-11-05T15:23:35.446Z</time>
      </trkpt>
      <trkpt lat="44.10088" lon="0.48749">
        <ele>116</ele>
        <time>2025-11-05T15:23:36.446Z</time>
      </trkpt>
      <trkpt lat="44.10087" lon="0.48747">
        <ele>116</ele>
        <time>2025-11-05T15:23:37.446Z</time>
      </trkpt>
      <trkpt lat="44.10086" lon="0.48746">
        <ele>117</ele>
        <time>2025-11-05T15:23:38.446Z</time>
      </trkpt>
      <trkpt lat="44.10086" lon="0.48744">
        <ele>117</ele>
        <time>2025-11-05T15:23:39.446Z</time>
      </trkpt>
      <trkpt lat="44.10085" lon="0.48743">
        <ele>117</ele>
        <time>2025-11-05T15:23:40.446Z</time>
      </trkpt>
      <trkpt lat="44.10085" lon="0.48742">
        <ele>117</ele>
        <time>2025-11-05T15:23:41.446Z</time>
      </trkpt>
      <trkpt lat="44.10085" lon="0.4874">
        <ele>117</ele>
        <time>2025-11-05T15:23:42.446Z</time>
      </trkpt>
      <trkpt lat="44.10085" lon="0.48739">
        <ele>117</ele>
        <time>2025-11-05T15:23:43.446Z</time>
      </trkpt>
      <trkpt lat="44.10084" lon="0.48737">
        <ele>117</ele>
        <time>2025-11-05T15:23:44.446Z</time>
      </trkpt>
      <trkpt lat="44.10084" lon="0.48736">
        <ele>117</ele>
        <time>2025-11-05T15:23:45.446Z</time>
      </trkpt>
      <trkpt lat="44.10084" lon="0.48735">
        <ele>118</ele>
        <time>2025-11-05T15:23:46.446Z</time>
      </trkpt>
      <trkpt lat="44.10084" lon="0.48734">
        <ele>118</ele>
        <time>2025-11-05T15:23:47.446Z</time>
      </trkpt>
      <trkpt lat="44.10084" lon="0.48733">
        <ele>118</ele>
        <time>2025-11-05T15:23:48.446Z</time>
      </trkpt>
      <trkpt lat="44.10083" lon="0.48732">
        <ele>118</ele>
        <time>2025-11-05T15:23:49.447Z</time>
      </trkpt>
      <trkpt lat="44.10083" lon="0.48731">
        <ele>118</ele>
        <time>2025-11-05T15:23:50.446Z</time>
      </trkpt>
      <trkpt lat="44.10083" lon="0.48729">
        <ele>118</ele>
        <time>2025-11-05T15:23:51.446Z</time>
      </trkpt>
      <trkpt lat="44.10083" lon="0.48728">
        <ele>118</ele>
        <time>2025-11-05T15:23:52.446Z</time>
      </trkpt>
      <trkpt lat="44.10083" lon="0.48727">
        <ele>118</ele>
        <time>2025-11-05T15:23:53.446Z</time>
      </trkpt>
      <trkpt lat="44.10083" lon="0.48726">
        <ele>118</ele>
        <time>2025-11-05T15:23:54.446Z</time>
      </trkpt>
      <trkpt lat="44.10083" lon="0.48725">
        <ele>118</ele>
        <time>2025-11-05T15:23:55.446Z</time>
      </trkpt>
      <trkpt lat="44.10083" lon="0.48724">
        <ele>118</ele>
        <time>2025-11-05T15:23:56.446Z</time>
      </trkpt>
      <trkpt lat="44.10083" lon="0.48723">
        <ele>118</ele>
        <time>2025-11-05T15:23:57.446Z</time>
      </trkpt>
      <trkpt lat="44.10082" lon="0.48722">
        <ele>118</ele>
        <time>2025-11-05T15:23:58.446Z</time>
      </trkpt>
      <trkpt lat="44.10082" lon="0.48721">
        <ele>118</ele>
        <time>2025-11-05T15:23:59.446Z</time>
      </trkpt>
      <trkpt lat="44.10082" lon="0.4872">
        <ele>118</ele>
        <time>2025-11-05T15:24:00.446Z</time>
      </trkpt>
      <trkpt lat="44.10081" lon="0.48718">
        <ele>119</ele>
        <time>2025-11-05T15:24:01.446Z</time>
      </trkpt>
      <trkpt lat="44.10081" lon="0.48717">
        <ele>119</ele>
        <time>2025-11-05T15:24:02.446Z</time>
      </trkpt>
      <trkpt lat="44.10081" lon="0.48716">
        <ele>120</ele>
        <time>2025-11-05T15:24:03.446Z</time>
      </trkpt>
      <trkpt lat="44.10081" lon="0.48714">
        <ele>120</ele>
        <time>2025-11-05T15:24:04.446Z</time>
      </trkpt>
      <trkpt lat="44.1008" lon="0.48713">
        <ele>120</ele>
        <time>2025-11-05T15:24:05.446Z</time>
      </trkpt>
      <trkpt lat="44.1008" lon="0.48712">
        <ele>120</ele>
        <time>2025-11-05T15:24:06.446Z</time>
      </trkpt>
      <trkpt lat="44.1008" lon="0.48711">
        <ele>120</ele>
        <time>2025-11-05T15:24:07.446Z</time>
      </trkpt>
      <trkpt lat="44.1008" lon="0.48709">
        <ele>120</ele>
        <time>2025-11-05T15:24:08.446Z</time>
      </trkpt>
      <trkpt lat="44.1008" lon="0.48708">
        <ele>120</ele>
        <time>2025-11-05T15:24:09.446Z</time>
      </trkpt>
      <trkpt lat="44.10079" lon="0.48707">
        <ele>120</ele>
        <time>2025-11-05T15:24:10.446Z</time>
      </trkpt>
      <trkpt lat="44.10079" lon="0.48706">
        <ele>120</ele>
        <time>2025-11-05T15:24:11.446Z</time>
      </trkpt>
      <trkpt lat="44.10079" lon="0.48705">
        <ele>120</ele>
        <time>2025-11-05T15:24:12.446Z</time>
      </trkpt>
      <trkpt lat="44.10079" lon="0.48704">
        <ele>120</ele>
        <time>2025-11-05T15:24:13.446Z</time>
      </trkpt>
      <trkpt lat="44.10078" lon="0.48703">
        <ele>120</ele>
        <time>2025-11-05T15:24:14.446Z</time>
      </trkpt>
      <trkpt lat="44.10078" lon="0.48702">
        <ele>120</ele>
        <time>2025-11-05T15:24:15.446Z</time>
      </trkpt>
      <trkpt lat="44.10078" lon="0.48701">
        <ele>120</ele>
        <time>2025-11-05T15:24:16.446Z</time>
      </trkpt>
      <trkpt lat="44.10077" lon="0.487">
        <ele>120</ele>
        <time>2025-11-05T15:24:17.446Z</time>
      </trkpt>
      <trkpt lat="44.10077" lon="0.48699">
        <ele>121</ele>
        <time>2025-11-05T15:24:18.446Z</time>
      </trkpt>
      <trkpt lat="44.10076" lon="0.48698">
        <ele>121</ele>
        <time>2025-11-05T15:24:19.446Z</time>
      </trkpt>
      <trkpt lat="44.10076" lon="0.48697">
        <ele>121</ele>
        <time>2025-11-05T15:24:20.446Z</time>
      </trkpt>
      <trkpt lat="44.10075" lon="0.48696">
        <ele>121</ele>
        <time>2025-11-05T15:24:21.446Z</time>
      </trkpt>
      <trkpt lat="44.10075" lon="0.48694">
        <ele>122</ele>
        <time>2025-11-05T15:24:22.446Z</time>
      </trkpt>
      <trkpt lat="44.10075" lon="0.48693">
        <ele>122</ele>
        <time>2025-11-05T15:24:23.446Z</time>
      </trkpt>
      <trkpt lat="44.10074" lon="0.48692">
        <ele>122</ele>
        <time>2025-11-05T15:24:24.446Z</time>
      </trkpt>
      <trkpt lat="44.10074" lon="0.48691">
        <ele>122</ele>
        <time>2025-11-05T15:24:25.446Z</time>
      </trkpt>
      <trkpt lat="44.10073" lon="0.4869">
        <ele>122</ele>
        <time>2025-11-05T15:24:26.446Z</time>
      </trkpt>
      <trkpt lat="44.10073" lon="0.48689">
        <ele>122</ele>
        <time>2025-11-05T15:24:27.446Z</time>
      </trkpt>
      <trkpt lat="44.10073" lon="0.48688">
        <ele>122</ele>
        <time>2025-11-05T15:24:28.446Z</time>
      </trkpt>
      <trkpt lat="44.10073" lon="0.48687">
        <ele>122</ele>
        <time>2025-11-05T15:24:29.446Z</time>
      </trkpt>
      <trkpt lat="44.10073" lon="0.48685">
        <ele>122</ele>
        <time>2025-11-05T15:24:30.446Z</time>
      </trkpt>
      <trkpt lat="44.10072" lon="0.48684">
        <ele>122</ele>
        <time>2025-11-05T15:24:31.446Z</time>
      </trkpt>
      <trkpt lat="44.10072" lon="0.48682">
        <ele>122</ele>
        <time>2025-11-05T15:24:32.446Z</time>
      </trkpt>
      <trkpt lat="44.10073" lon="0.48681">
        <ele>122</ele>
        <time>2025-11-05T15:24:33.446Z</time>
      </trkpt>
      <trkpt lat="44.10072" lon="0.4868">
        <ele>122</ele>
        <time>2025-11-05T15:24:34.446Z</time>
      </trkpt>
      <trkpt lat="44.10072" lon="0.48679">
        <ele>123</ele>
        <time>2025-11-05T15:24:35.446Z</time>
      </trkpt>
      <trkpt lat="44.10072" lon="0.48677">
        <ele>123</ele>
        <time>2025-11-05T15:24:36.446Z</time>
      </trkpt>
      <trkpt lat="44.10072" lon="0.48676">
        <ele>123</ele>
        <time>2025-11-05T15:24:37.446Z</time>
      </trkpt>
      <trkpt lat="44.10072" lon="0.48674">
        <ele>123</ele>
        <time>2025-11-05T15:24:38.447Z</time>
      </trkpt>
      <trkpt lat="44.10072" lon="0.48672">
        <ele>123</ele>
        <time>2025-11-05T15:24:39.446Z</time>
      </trkpt>
      <trkpt lat="44.10071" lon="0.48671">
        <ele>123</ele>
        <time>2025-11-05T15:24:40.446Z</time>
      </trkpt>
      <trkpt lat="44.10071" lon="0.48669">
        <ele>124</ele>
        <time>2025-11-05T15:24:41.446Z</time>
      </trkpt>
      <trkpt lat="44.10071" lon="0.48668">
        <ele>124</ele>
        <time>2025-11-05T15:24:42.446Z</time>
      </trkpt>
      <trkpt lat="44.10071" lon="0.48667">
        <ele>124</ele>
        <time>2025-11-05T15:24:43.446Z</time>
      </trkpt>
      <trkpt lat="44.10071" lon="0.48665">
        <ele>124</ele>
        <time>2025-11-05T15:24:44.446Z</time>
      </trkpt>
      <trkpt lat="44.10071" lon="0.48664">
        <ele>124</ele>
        <time>2025-11-05T15:24:45.446Z</time>
      </trkpt>
      <trkpt lat="44.10071" lon="0.48663">
        <ele>124</ele>
        <time>2025-11-05T15:24:46.446Z</time>
      </trkpt>
      <trkpt lat="44.10071" lon="0.48662">
        <ele>124</ele>
        <time>2025-11-05T15:24:47.446Z</time>
      </trkpt>
      <trkpt lat="44.10071" lon="0.48661">
        <ele>124</ele>
        <time>2025-11-05T15:24:48.446Z</time>
      </trkpt>
      <trkpt lat="44.1007" lon="0.4866">
        <ele>124</ele>
        <time>2025-11-05T15:24:49.446Z</time>
      </trkpt>
      <trkpt lat="44.1007" lon="0.48659">
        <ele>124</ele>
        <time>2025-11-05T15:24:50.446Z</time>
      </trkpt>
      <trkpt lat="44.10069" lon="0.48658">
        <ele>123</ele>
        <time>2025-11-05T15:24:51.446Z</time>
      </trkpt>
      <trkpt lat="44.10069" lon="0.48658">
        <ele>123</ele>
        <time>2025-11-05T15:24:52.446Z</time>
      </trkpt>
      <trkpt lat="44.10068" lon="0.48658">
        <ele>123</ele>
        <time>2025-11-05T15:24:53.446Z</time>
      </trkpt>
      <trkpt lat="44.10067" lon="0.48658">
        <ele>123</ele>
        <time>2025-11-05T15:24:54.446Z</time>
      </trkpt>
      <trkpt lat="44.10067" lon="0.48658">
        <ele>123</ele>
        <time>2025-11-05T15:24:55.446Z</time>
      </trkpt>
      <trkpt lat="44.10066" lon="0.48658">
        <ele>123</ele>
        <time>2025-11-05T15:24:56.446Z</time>
      </trkpt>
      <trkpt lat="44.10066" lon="0.48658">
        <ele>123</ele>
        <time>2025-11-05T15:24:57.446Z</time>
      </trkpt>
      <trkpt lat="44.10066" lon="0.48657">
        <ele>123</ele>
        <time>2025-11-05T15:24:58.446Z</time>
      </trkpt>
      <trkpt lat="44.10066" lon="0.48657">
        <ele>123</ele>
        <time>2025-11-05T15:24:59.446Z</time>
      </trkpt>
      <trkpt lat="44.10066" lon="0.48657">
        <ele>123</ele>
        <time>2025-11-05T15:25:00.446Z</time>
      </trkpt>
      <trkpt lat="44.10066" lon="0.48657">
        <ele>123</ele>
        <time>2025-11-05T15:25:01.446Z</time>
      </trkpt>
      <trkpt lat="44.10066" lon="0.48657">
        <ele>123</ele>
        <time>2025-11-05T15:25:02.446Z</time>
      </trkpt>
      <trkpt lat="44.10066" lon="0.48657">
        <ele>123</ele>
        <time>2025-11-05T15:25:03.446Z</time>
      </trkpt>
      <trkpt lat="44.10066" lon="0.48657">
        <ele>123</ele>
        <time>2025-11-05T15:25:04.446Z</time>
      </trkpt>
      <trkpt lat="44.10067" lon="0.48656">
        <ele>124</ele>
        <time>2025-11-05T15:25:05.446Z</time>
      </trkpt>
      <trkpt lat="44.10068" lon="0.48654">
        <ele>124</ele>
        <time>2025-11-05T15:25:06.446Z</time>
      </trkpt>
      <trkpt lat="44.10068" lon="0.48653">
        <ele>124</ele>
        <time>2025-11-05T15:25:07.446Z</time>
      </trkpt>
      <trkpt lat="44.10069" lon="0.48652">
        <ele>124</ele>
        <time>2025-11-05T15:25:08.446Z</time>
      </trkpt>
      <trkpt lat="44.10069" lon="0.48651">
        <ele>124</ele>
        <time>2025-11-05T15:25:09.446Z</time>
      </trkpt>
      <trkpt lat="44.10069" lon="0.4865">
        <ele>124</ele>
        <time>2025-11-05T15:25:10.446Z</time>
      </trkpt>
      <trkpt lat="44.10068" lon="0.48648">
        <ele>125</ele>
        <time>2025-11-05T15:25:11.446Z</time>
      </trkpt>
      <trkpt lat="44.10069" lon="0.48647">
        <ele>125</ele>
        <time>2025-11-05T15:25:12.446Z</time>
      </trkpt>
      <trkpt lat="44.10068" lon="0.48646">
        <ele>125</ele>
        <time>2025-11-05T15:25:13.446Z</time>
      </trkpt>
      <trkpt lat="44.10068" lon="0.48645">
        <ele>125</ele>
        <time>2025-11-05T15:25:14.446Z</time>
      </trkpt>
      <trkpt lat="44.10068" lon="0.48643">
        <ele>125</ele>
        <time>2025-11-05T15:25:15.446Z</time>
      </trkpt>
      <trkpt lat="44.10067" lon="0.48642">
        <ele>126</ele>
        <time>2025-11-05T15:25:16.446Z</time>
      </trkpt>
      <trkpt lat="44.10067" lon="0.48641">
        <ele>126</ele>
        <time>2025-11-05T15:25:17.446Z</time>
      </trkpt>
      <trkpt lat="44.10066" lon="0.48639">
        <ele>126</ele>
        <time>2025-11-05T15:25:18.446Z</time>
      </trkpt>
      <trkpt lat="44.10066" lon="0.48638">
        <ele>126</ele>
        <time>2025-11-05T15:25:19.446Z</time>
      </trkpt>
      <trkpt lat="44.10066" lon="0.48637">
        <ele>126</ele>
        <time>2025-11-05T15:25:20.446Z</time>
      </trkpt>
      <trkpt lat="44.10066" lon="0.48635">
        <ele>127</ele>
        <time>2025-11-05T15:25:21.446Z</time>
      </trkpt>
      <trkpt lat="44.10065" lon="0.48634">
        <ele>127</ele>
        <time>2025-11-05T15:25:22.446Z</time>
      </trkpt>
      <trkpt lat="44.10065" lon="0.48633">
        <ele>127</ele>
        <time>2025-11-05T15:25:23.446Z</time>
      </trkpt>
      <trkpt lat="44.10065" lon="0.48632">
        <ele>127</ele>
        <time>2025-11-05T15:25:24.446Z</time>
      </trkpt>
      <trkpt lat="44.10065" lon="0.4863">
        <ele>127</ele>
        <time>2025-11-05T15:25:25.446Z</time>
      </trkpt>
      <trkpt lat="44.10064" lon="0.48629">
        <ele>127</ele>
        <time>2025-11-05T15:25:26.446Z</time>
      </trkpt>
      <trkpt lat="44.10064" lon="0.48627">
        <ele>127</ele>
        <time>2025-11-05T15:25:27.446Z</time>
      </trkpt>
      <trkpt lat="44.10063" lon="0.48626">
        <ele>127</ele>
        <time>2025-11-05T15:25:28.446Z</time>
      </trkpt>
      <trkpt lat="44.10063" lon="0.48624">
        <ele>127</ele>
        <time>2025-11-05T15:25:29.446Z</time>
      </trkpt>
      <trkpt lat="44.10063" lon="0.48623">
        <ele>127</ele>
        <time>2025-11-05T15:25:30.446Z</time>
      </trkpt>
      <trkpt lat="44.10063" lon="0.48622">
        <ele>127</ele>
        <time>2025-11-05T15:25:31.446Z</time>
      </trkpt>
      <trkpt lat="44.10062" lon="0.48621">
        <ele>127</ele>
        <time>2025-11-05T15:25:32.446Z</time>
      </trkpt>
      <trkpt lat="44.10062" lon="0.48619">
        <ele>127</ele>
        <time>2025-11-05T15:25:33.446Z</time>
      </trkpt>
      <trkpt lat="44.10062" lon="0.48618">
        <ele>126</ele>
        <time>2025-11-05T15:25:34.446Z</time>
      </trkpt>
      <trkpt lat="44.10061" lon="0.48617">
        <ele>126</ele>
        <time>2025-11-05T15:25:35.446Z</time>
      </trkpt>
      <trkpt lat="44.10061" lon="0.48615">
        <ele>126</ele>
        <time>2025-11-05T15:25:36.446Z</time>
      </trkpt>
      <trkpt lat="44.1006" lon="0.48614">
        <ele>126</ele>
        <time>2025-11-05T15:25:37.446Z</time>
      </trkpt>
      <trkpt lat="44.1006" lon="0.48612">
        <ele>126</ele>
        <time>2025-11-05T15:25:38.446Z</time>
      </trkpt>
      <trkpt lat="44.10059" lon="0.48611">
        <ele>126</ele>
        <time>2025-11-05T15:25:39.446Z</time>
      </trkpt>
      <trkpt lat="44.10059" lon="0.48609">
        <ele>126</ele>
        <time>2025-11-05T15:25:40.447Z</time>
      </trkpt>
      <trkpt lat="44.10058" lon="0.48608">
        <ele>126</ele>
        <time>2025-11-05T15:25:41.446Z</time>
      </trkpt>
      <trkpt lat="44.10058" lon="0.48607">
        <ele>126</ele>
        <time>2025-11-05T15:25:42.446Z</time>
      </trkpt>
      <trkpt lat="44.10057" lon="0.48605">
        <ele>126</ele>
        <time>2025-11-05T15:25:43.446Z</time>
      </trkpt>
      <trkpt lat="44.10057" lon="0.48604">
        <ele>126</ele>
        <time>2025-11-05T15:25:44.446Z</time>
      </trkpt>
      <trkpt lat="44.10056" lon="0.48603">
        <ele>126</ele>
        <time>2025-11-05T15:25:45.446Z</time>
      </trkpt>
      <trkpt lat="44.10055" lon="0.48602">
        <ele>126</ele>
        <time>2025-11-05T15:25:46.446Z</time>
      </trkpt>
      <trkpt lat="44.10055" lon="0.48601">
        <ele>126</ele>
        <time>2025-11-05T15:25:47.446Z</time>
      </trkpt>
      <trkpt lat="44.10054" lon="0.486">
        <ele>126</ele>
        <time>2025-11-05T15:25:48.446Z</time>
      </trkpt>
      <trkpt lat="44.10053" lon="0.48598">
        <ele>126</ele>
        <time>2025-11-05T15:25:49.446Z</time>
      </trkpt>
      <trkpt lat="44.10053" lon="0.48597">
        <ele>126</ele>
        <time>2025-11-05T15:25:50.446Z</time>
      </trkpt>
      <trkpt lat="44.10052" lon="0.48596">
        <ele>126</ele>
        <time>2025-11-05T15:25:51.446Z</time>
      </trkpt>
      <trkpt lat="44.10051" lon="0.48594">
        <ele>126</ele>
        <time>2025-11-05T15:25:52.446Z</time>
      </trkpt>
      <trkpt lat="44.10051" lon="0.48593">
        <ele>126</ele>
        <time>2025-11-05T15:25:53.446Z</time>
      </trkpt>
      <trkpt lat="44.1005" lon="0.48592">
        <ele>127</ele>
        <time>2025-11-05T15:25:54.446Z</time>
      </trkpt>
      <trkpt lat="44.10049" lon="0.48591">
        <ele>127</ele>
        <time>2025-11-05T15:25:55.446Z</time>
      </trkpt>
      <trkpt lat="44.10049" lon="0.4859">
        <ele>127</ele>
        <time>2025-11-05T15:25:56.446Z</time>
      </trkpt>
      <trkpt lat="44.10048" lon="0.48589">
        <ele>127</ele>
        <time>2025-11-05T15:25:57.446Z</time>
      </trkpt>
      <trkpt lat="44.10047" lon="0.48588">
        <ele>127</ele>
        <time>2025-11-05T15:25:58.446Z</time>
      </trkpt>
      <trkpt lat="44.10046" lon="0.48586">
        <ele>127</ele>
        <time>2025-11-05T15:25:59.446Z</time>
      </trkpt>
      <trkpt lat="44.10045" lon="0.48585">
        <ele>127</ele>
        <time>2025-11-05T15:26:00.446Z</time>
      </trkpt>
      <trkpt lat="44.10045" lon="0.48584">
        <ele>127</ele>
        <time>2025-11-05T15:26:01.447Z</time>
      </trkpt>
      <trkpt lat="44.10044" lon="0.48582">
        <ele>127</ele>
        <time>2025-11-05T15:26:02.446Z</time>
      </trkpt>
      <trkpt lat="44.10043" lon="0.48581">
        <ele>127</ele>
        <time>2025-11-05T15:26:03.446Z</time>
      </trkpt>
      <trkpt lat="44.10042" lon="0.4858">
        <ele>127</ele>
        <time>2025-11-05T15:26:04.446Z</time>
      </trkpt>
      <trkpt lat="44.10041" lon="0.48579">
        <ele>127</ele>
        <time>2025-11-05T15:26:05.446Z</time>
      </trkpt>
      <trkpt lat="44.1004" lon="0.48578">
        <ele>127</ele>
        <time>2025-11-05T15:26:06.446Z</time>
      </trkpt>
      <trkpt lat="44.10039" lon="0.48577">
        <ele>127</ele>
        <time>2025-11-05T15:26:07.447Z</time>
      </trkpt>
      <trkpt lat="44.10038" lon="0.48576">
        <ele>127</ele>
        <time>2025-11-05T15:26:08.446Z</time>
      </trkpt>
      <trkpt lat="44.10037" lon="0.48574">
        <ele>128</ele>
        <time>2025-11-05T15:26:09.446Z</time>
      </trkpt>
      <trkpt lat="44.10036" lon="0.48573">
        <ele>128</ele>
        <time>2025-11-05T15:26:10.446Z</time>
      </trkpt>
      <trkpt lat="44.10035" lon="0.48572">
        <ele>128</ele>
        <time>2025-11-05T15:26:11.446Z</time>
      </trkpt>
      <trkpt lat="44.10034" lon="0.48571">
        <ele>129</ele>
        <time>2025-11-05T15:26:12.446Z</time>
      </trkpt>
      <trkpt lat="44.10033" lon="0.4857">
        <ele>129</ele>
        <time>2025-11-05T15:26:13.446Z</time>
      </trkpt>
      <trkpt lat="44.10032" lon="0.48569">
        <ele>129</ele>
        <time>2025-11-05T15:26:14.446Z</time>
      </trkpt>
      <trkpt lat="44.10031" lon="0.48567">
        <ele>130</ele>
        <time>2025-11-05T15:26:15.446Z</time>
      </trkpt>
      <trkpt lat="44.10031" lon="0.48566">
        <ele>130</ele>
        <time>2025-11-05T15:26:16.446Z</time>
      </trkpt>
      <trkpt lat="44.10029" lon="0.48565">
        <ele>130</ele>
        <time>2025-11-05T15:26:17.446Z</time>
      </trkpt>
      <trkpt lat="44.10028" lon="0.48564">
        <ele>130</ele>
        <time>2025-11-05T15:26:18.446Z</time>
      </trkpt>
      <trkpt lat="44.10027" lon="0.48563">
        <ele>130</ele>
        <time>2025-11-05T15:26:19.446Z</time>
      </trkpt>
      <trkpt lat="44.10027" lon="0.48562">
        <ele>131</ele>
        <time>2025-11-05T15:26:20.446Z</time>
      </trkpt>
      <trkpt lat="44.10026" lon="0.48561">
        <ele>131</ele>
        <time>2025-11-05T15:26:21.446Z</time>
      </trkpt>
      <trkpt lat="44.10025" lon="0.4856">
        <ele>131</ele>
        <time>2025-11-05T15:26:22.446Z</time>
      </trkpt>
      <trkpt lat="44.10024" lon="0.48559">
        <ele>131</ele>
        <time>2025-11-05T15:26:23.446Z</time>
      </trkpt>
      <trkpt lat="44.10023" lon="0.48558">
        <ele>131</ele>
        <time>2025-11-05T15:26:24.446Z</time>
      </trkpt>
      <trkpt lat="44.10022" lon="0.48557">
        <ele>131</ele>
        <time>2025-11-05T15:26:25.446Z</time>
      </trkpt>
      <trkpt lat="44.10021" lon="0.48556">
        <ele>131</ele>
        <time>2025-11-05T15:26:26.446Z</time>
      </trkpt>
      <trkpt lat="44.1002" lon="0.48555">
        <ele>131</ele>
        <time>2025-11-05T15:26:27.446Z</time>
      </trkpt>
      <trkpt lat="44.1002" lon="0.48554">
        <ele>131</ele>
        <time>2025-11-05T15:26:28.446Z</time>
      </trkpt>
      <trkpt lat="44.10019" lon="0.48552">
        <ele>131</ele>
        <time>2025-11-05T15:26:29.446Z</time>
      </trkpt>
      <trkpt lat="44.10018" lon="0.48551">
        <ele>131</ele>
        <time>2025-11-05T15:26:30.446Z</time>
      </trkpt>
      <trkpt lat="44.10017" lon="0.4855">
        <ele>131</ele>
        <time>2025-11-05T15:26:31.446Z</time>
      </trkpt>
      <trkpt lat="44.10016" lon="0.4855">
        <ele>131</ele>
        <time>2025-11-05T15:26:32.446Z</time>
      </trkpt>
      <trkpt lat="44.10015" lon="0.48549">
        <ele>131</ele>
        <time>2025-11-05T15:26:33.446Z</time>
      </trkpt>
      <trkpt lat="44.10014" lon="0.48548">
        <ele>132</ele>
        <time>2025-11-05T15:26:34.446Z</time>
      </trkpt>
      <trkpt lat="44.10013" lon="0.48547">
        <ele>132</ele>
        <time>2025-11-05T15:26:35.446Z</time>
      </trkpt>
      <trkpt lat="44.10012" lon="0.48546">
        <ele>132</ele>
        <time>2025-11-05T15:26:36.446Z</time>
      </trkpt>
      <trkpt lat="44.10011" lon="0.48545">
        <ele>131</ele>
        <time>2025-11-05T15:26:37.446Z</time>
      </trkpt>
      <trkpt lat="44.1001" lon="0.48544">
        <ele>131</ele>
        <time>2025-11-05T15:26:38.446Z</time>
      </trkpt>
      <trkpt lat="44.10009" lon="0.48543">
        <ele>131</ele>
        <time>2025-11-05T15:26:39.446Z</time>
      </trkpt>
      <trkpt lat="44.10008" lon="0.48542">
        <ele>131</ele>
        <time>2025-11-05T15:26:40.446Z</time>
      </trkpt>
      <trkpt lat="44.10007" lon="0.48541">
        <ele>131</ele>
        <time>2025-11-05T15:26:41.446Z</time>
      </trkpt>
      <trkpt lat="44.10006" lon="0.4854">
        <ele>131</ele>
        <time>2025-11-05T15:26:42.446Z</time>
      </trkpt>
      <trkpt lat="44.10005" lon="0.48539">
        <ele>131</ele>
        <time>2025-11-05T15:26:43.446Z</time>
      </trkpt>
      <trkpt lat="44.10004" lon="0.48538">
        <ele>131</ele>
        <time>2025-11-05T15:26:44.446Z</time>
      </trkpt>
      <trkpt lat="44.10003" lon="0.48537">
        <ele>131</ele>
        <time>2025-11-05T15:26:45.446Z</time>
      </trkpt>
      <trkpt lat="44.10002" lon="0.48536">
        <ele>131</ele>
        <time>2025-11-05T15:26:46.446Z</time>
      </trkpt>
      <trkpt lat="44.10001" lon="0.48534">
        <ele>131</ele>
        <time>2025-11-05T15:26:47.446Z</time>
      </trkpt>
      <trkpt lat="44.1" lon="0.48533">
        <ele>131</ele>
        <time>2025-11-05T15:26:48.446Z</time>
      </trkpt>
      <trkpt lat="44.09999" lon="0.48532">
        <ele>131</ele>
        <time>2025-11-05T15:26:49.446Z</time>
      </trkpt>
      <trkpt lat="44.09998" lon="0.48531">
        <ele>131</ele>
        <time>2025-11-05T15:26:50.446Z</time>
      </trkpt>
      <trkpt lat="44.09997" lon="0.4853">
        <ele>130</ele>
        <time>2025-11-05T15:26:51.446Z</time>
      </trkpt>
      <trkpt lat="44.09996" lon="0.48529">
        <ele>130</ele>
        <time>2025-11-05T15:26:52.446Z</time>
      </trkpt>
      <trkpt lat="44.09995" lon="0.48528">
        <ele>130</ele>
        <time>2025-11-05T15:26:53.446Z</time>
      </trkpt>
      <trkpt lat="44.09994" lon="0.48527">
        <ele>130</ele>
        <time>2025-11-05T15:26:54.446Z</time>
      </trkpt>
      <trkpt lat="44.09993" lon="0.48526">
        <ele>131</ele>
        <time>2025-11-05T15:26:55.446Z</time>
      </trkpt>
      <trkpt lat="44.09992" lon="0.48525">
        <ele>131</ele>
        <time>2025-11-05T15:26:56.446Z</time>
      </trkpt>
      <trkpt lat="44.0999" lon="0.48524">
        <ele>131</ele>
        <time>2025-11-05T15:26:57.446Z</time>
      </trkpt>
      <trkpt lat="44.09989" lon="0.48523">
        <ele>131</ele>
        <time>2025-11-05T15:26:58.446Z</time>
      </trkpt>
      <trkpt lat="44.09989" lon="0.48522">
        <ele>131</ele>
        <time>2025-11-05T15:26:59.446Z</time>
      </trkpt>
      <trkpt lat="44.09988" lon="0.48521">
        <ele>131</ele>
        <time>2025-11-05T15:27:00.446Z</time>
      </trkpt>
      <trkpt lat="44.09987" lon="0.4852">
        <ele>131</ele>
        <time>2025-11-05T15:27:01.446Z</time>
      </trkpt>
      <trkpt lat="44.09986" lon="0.48519">
        <ele>131</ele>
        <time>2025-11-05T15:27:02.446Z</time>
      </trkpt>
      <trkpt lat="44.09985" lon="0.48518">
        <ele>131</ele>
        <time>2025-11-05T15:27:03.446Z</time>
      </trkpt>
      <trkpt lat="44.09984" lon="0.48517">
        <ele>131</ele>
        <time>2025-11-05T15:27:04.447Z</time>
      </trkpt>
      <trkpt lat="44.09983" lon="0.48515">
        <ele>131</ele>
        <time>2025-11-05T15:27:05.446Z</time>
      </trkpt>
      <trkpt lat="44.09981" lon="0.48514">
        <ele>131</ele>
        <time>2025-11-05T15:27:06.446Z</time>
      </trkpt>
      <trkpt lat="44.09981" lon="0.48513">
        <ele>132</ele>
        <time>2025-11-05T15:27:07.446Z</time>
      </trkpt>
      <trkpt lat="44.0998" lon="0.48512">
        <ele>132</ele>
        <time>2025-11-05T15:27:08.446Z</time>
      </trkpt>
      <trkpt lat="44.09979" lon="0.48511">
        <ele>133</ele>
        <time>2025-11-05T15:27:09.446Z</time>
      </trkpt>
      <trkpt lat="44.09978" lon="0.4851">
        <ele>133</ele>
        <time>2025-11-05T15:27:10.446Z</time>
      </trkpt>
      <trkpt lat="44.09977" lon="0.48508">
        <ele>133</ele>
        <time>2025-11-05T15:27:11.446Z</time>
      </trkpt>
      <trkpt lat="44.09977" lon="0.48507">
        <ele>132</ele>
        <time>2025-11-05T15:27:12.446Z</time>
      </trkpt>
      <trkpt lat="44.09976" lon="0.48506">
        <ele>132</ele>
        <time>2025-11-05T15:27:13.446Z</time>
      </trkpt>
      <trkpt lat="44.09975" lon="0.48504">
        <ele>132</ele>
        <time>2025-11-05T15:27:14.446Z</time>
      </trkpt>
      <trkpt lat="44.09974" lon="0.48502">
        <ele>132</ele>
        <time>2025-11-05T15:27:15.446Z</time>
      </trkpt>
      <trkpt lat="44.09974" lon="0.48501">
        <ele>132</ele>
        <time>2025-11-05T15:27:16.446Z</time>
      </trkpt>
      <trkpt lat="44.09973" lon="0.485">
        <ele>131</ele>
        <time>2025-11-05T15:27:17.446Z</time>
      </trkpt>
      <trkpt lat="44.09972" lon="0.48498">
        <ele>131</ele>
        <time>2025-11-05T15:27:18.446Z</time>
      </trkpt>
      <trkpt lat="44.09972" lon="0.48497">
        <ele>131</ele>
        <time>2025-11-05T15:27:19.446Z</time>
      </trkpt>
      <trkpt lat="44.09971" lon="0.48495">
        <ele>131</ele>
        <time>2025-11-05T15:27:20.446Z</time>
      </trkpt>
      <trkpt lat="44.0997" lon="0.48494">
        <ele>131</ele>
        <time>2025-11-05T15:27:21.446Z</time>
      </trkpt>
      <trkpt lat="44.0997" lon="0.48493">
        <ele>131</ele>
        <time>2025-11-05T15:27:22.446Z</time>
      </trkpt>
      <trkpt lat="44.09969" lon="0.48491">
        <ele>131</ele>
        <time>2025-11-05T15:27:23.446Z</time>
      </trkpt>
      <trkpt lat="44.09968" lon="0.48489">
        <ele>131</ele>
        <time>2025-11-05T15:27:24.446Z</time>
      </trkpt>
      <trkpt lat="44.09967" lon="0.48488">
        <ele>131</ele>
        <time>2025-11-05T15:27:25.446Z</time>
      </trkpt>
      <trkpt lat="44.09966" lon="0.48486">
        <ele>131</ele>
        <time>2025-11-05T15:27:26.446Z</time>
      </trkpt>
      <trkpt lat="44.09966" lon="0.48484">
        <ele>130</ele>
        <time>2025-11-05T15:27:27.446Z</time>
      </trkpt>
      <trkpt lat="44.09965" lon="0.48483">
        <ele>130</ele>
        <time>2025-11-05T15:27:28.446Z</time>
      </trkpt>
      <trkpt lat="44.09964" lon="0.48481">
        <ele>130</ele>
        <time>2025-11-05T15:27:29.446Z</time>
      </trkpt>
      <trkpt lat="44.09963" lon="0.4848">
        <ele>130</ele>
        <time>2025-11-05T15:27:30.446Z</time>
      </trkpt>
      <trkpt lat="44.09962" lon="0.48478">
        <ele>130</ele>
        <time>2025-11-05T15:27:31.446Z</time>
      </trkpt>
      <trkpt lat="44.09961" lon="0.48477">
        <ele>130</ele>
        <time>2025-11-05T15:27:32.446Z</time>
      </trkpt>
      <trkpt lat="44.0996" lon="0.48476">
        <ele>130</ele>
        <time>2025-11-05T15:27:33.446Z</time>
      </trkpt>
      <trkpt lat="44.09959" lon="0.48475">
        <ele>131</ele>
        <time>2025-11-05T15:27:34.446Z</time>
      </trkpt>
      <trkpt lat="44.09958" lon="0.48474">
        <ele>131</ele>
        <time>2025-11-05T15:27:35.446Z</time>
      </trkpt>
      <trkpt lat="44.09957" lon="0.48473">
        <ele>131</ele>
        <time>2025-11-05T15:27:36.446Z</time>
      </trkpt>
      <trkpt lat="44.09957" lon="0.48471">
        <ele>131</ele>
        <time>2025-11-05T15:27:37.446Z</time>
      </trkpt>
      <trkpt lat="44.09956" lon="0.4847">
        <ele>131</ele>
        <time>2025-11-05T15:27:38.446Z</time>
      </trkpt>
      <trkpt lat="44.09955" lon="0.48468">
        <ele>130</ele>
        <time>2025-11-05T15:27:39.446Z</time>
      </trkpt>
      <trkpt lat="44.09954" lon="0.48467">
        <ele>130</ele>
        <time>2025-11-05T15:27:40.446Z</time>
      </trkpt>
      <trkpt lat="44.09953" lon="0.48465">
        <ele>130</ele>
        <time>2025-11-05T15:27:41.446Z</time>
      </trkpt>
      <trkpt lat="44.09952" lon="0.48463">
        <ele>130</ele>
        <time>2025-11-05T15:27:42.446Z</time>
      </trkpt>
      <trkpt lat="44.09951" lon="0.48462">
        <ele>130</ele>
        <time>2025-11-05T15:27:43.446Z</time>
      </trkpt>
      <trkpt lat="44.09951" lon="0.48461">
        <ele>130</ele>
        <time>2025-11-05T15:27:44.446Z</time>
      </trkpt>
      <trkpt lat="44.0995" lon="0.48459">
        <ele>130</ele>
        <time>2025-11-05T15:27:45.446Z</time>
      </trkpt>
      <trkpt lat="44.09949" lon="0.48458">
        <ele>130</ele>
        <time>2025-11-05T15:27:46.446Z</time>
      </trkpt>
      <trkpt lat="44.09948" lon="0.48457">
        <ele>130</ele>
        <time>2025-11-05T15:27:47.446Z</time>
      </trkpt>
      <trkpt lat="44.09948" lon="0.48456">
        <ele>130</ele>
        <time>2025-11-05T15:27:48.446Z</time>
      </trkpt>
      <trkpt lat="44.09947" lon="0.48455">
        <ele>130</ele>
        <time>2025-11-05T15:27:49.446Z</time>
      </trkpt>
      <trkpt lat="44.09946" lon="0.48453">
        <ele>130</ele>
        <time>2025-11-05T15:27:50.446Z</time>
      </trkpt>
      <trkpt lat="44.09945" lon="0.48452">
        <ele>130</ele>
        <time>2025-11-05T15:27:51.446Z</time>
      </trkpt>
      <trkpt lat="44.09944" lon="0.48451">
        <ele>130</ele>
        <time>2025-11-05T15:27:52.446Z</time>
      </trkpt>
      <trkpt lat="44.09943" lon="0.4845">
        <ele>130</ele>
        <time>2025-11-05T15:27:53.446Z</time>
      </trkpt>
      <trkpt lat="44.09942" lon="0.48448">
        <ele>130</ele>
        <time>2025-11-05T15:27:54.446Z</time>
      </trkpt>
      <trkpt lat="44.09942" lon="0.48447">
        <ele>130</ele>
        <time>2025-11-05T15:27:55.446Z</time>
      </trkpt>
      <trkpt lat="44.09941" lon="0.48446">
        <ele>131</ele>
        <time>2025-11-05T15:27:56.446Z</time>
      </trkpt>
      <trkpt lat="44.0994" lon="0.48444">
        <ele>131</ele>
        <time>2025-11-05T15:27:57.446Z</time>
      </trkpt>
      <trkpt lat="44.09939" lon="0.48443">
        <ele>131</ele>
        <time>2025-11-05T15:27:58.446Z</time>
      </trkpt>
      <trkpt lat="44.09938" lon="0.48442">
        <ele>131</ele>
        <time>2025-11-05T15:27:59.446Z</time>
      </trkpt>
      <trkpt lat="44.09937" lon="0.48441">
        <ele>131</ele>
        <time>2025-11-05T15:28:00.446Z</time>
      </trkpt>
      <trkpt lat="44.09936" lon="0.48439">
        <ele>131</ele>
        <time>2025-11-05T15:28:01.446Z</time>
      </trkpt>
      <trkpt lat="44.09935" lon="0.48438">
        <ele>131</ele>
        <time>2025-11-05T15:28:02.446Z</time>
      </trkpt>
      <trkpt lat="44.09935" lon="0.48437">
        <ele>131</ele>
        <time>2025-11-05T15:28:03.446Z</time>
      </trkpt>
      <trkpt lat="44.09934" lon="0.48435">
        <ele>131</ele>
        <time>2025-11-05T15:28:04.446Z</time>
      </trkpt>
      <trkpt lat="44.09933" lon="0.48434">
        <ele>130</ele>
        <time>2025-11-05T15:28:05.446Z</time>
      </trkpt>
      <trkpt lat="44.09932" lon="0.48433">
        <ele>130</ele>
        <time>2025-11-05T15:28:06.446Z</time>
      </trkpt>
      <trkpt lat="44.09931" lon="0.48432">
        <ele>130</ele>
        <time>2025-11-05T15:28:07.446Z</time>
      </trkpt>
      <trkpt lat="44.0993" lon="0.48431">
        <ele>130</ele>
        <time>2025-11-05T15:28:08.446Z</time>
      </trkpt>
      <trkpt lat="44.09929" lon="0.48429">
        <ele>130</ele>
        <time>2025-11-05T15:28:09.446Z</time>
      </trkpt>
      <trkpt lat="44.09929" lon="0.48428">
        <ele>130</ele>
        <time>2025-11-05T15:28:10.446Z</time>
      </trkpt>
      <trkpt lat="44.09928" lon="0.48427">
        <ele>130</ele>
        <time>2025-11-05T15:28:11.446Z</time>
      </trkpt>
      <trkpt lat="44.09927" lon="0.48426">
        <ele>130</ele>
        <time>2025-11-05T15:28:12.446Z</time>
      </trkpt>
      <trkpt lat="44.09925" lon="0.48425">
        <ele>130</ele>
        <time>2025-11-05T15:28:13.446Z</time>
      </trkpt>
      <trkpt lat="44.09925" lon="0.48424">
        <ele>130</ele>
        <time>2025-11-05T15:28:14.446Z</time>
      </trkpt>
      <trkpt lat="44.09924" lon="0.48423">
        <ele>130</ele>
        <time>2025-11-05T15:28:15.446Z</time>
      </trkpt>
      <trkpt lat="44.09923" lon="0.48422">
        <ele>130</ele>
        <time>2025-11-05T15:28:16.446Z</time>
      </trkpt>
      <trkpt lat="44.09922" lon="0.48421">
        <ele>130</ele>
        <time>2025-11-05T15:28:17.446Z</time>
      </trkpt>
      <trkpt lat="44.09922" lon="0.4842">
        <ele>130</ele>
        <time>2025-11-05T15:28:18.446Z</time>
      </trkpt>
      <trkpt lat="44.09921" lon="0.48418">
        <ele>130</ele>
        <time>2025-11-05T15:28:19.446Z</time>
      </trkpt>
      <trkpt lat="44.0992" lon="0.48417">
        <ele>130</ele>
        <time>2025-11-05T15:28:20.446Z</time>
      </trkpt>
      <trkpt lat="44.09919" lon="0.48416">
        <ele>129</ele>
        <time>2025-11-05T15:28:21.446Z</time>
      </trkpt>
      <trkpt lat="44.09918" lon="0.48414">
        <ele>129</ele>
        <time>2025-11-05T15:28:22.446Z</time>
      </trkpt>
      <trkpt lat="44.09917" lon="0.48413">
        <ele>129</ele>
        <time>2025-11-05T15:28:23.446Z</time>
      </trkpt>
      <trkpt lat="44.09916" lon="0.48411">
        <ele>129</ele>
        <time>2025-11-05T15:28:24.446Z</time>
      </trkpt>
      <trkpt lat="44.09915" lon="0.4841">
        <ele>129</ele>
        <time>2025-11-05T15:28:25.446Z</time>
      </trkpt>
      <trkpt lat="44.09915" lon="0.48409">
        <ele>128</ele>
        <time>2025-11-05T15:28:26.446Z</time>
      </trkpt>
      <trkpt lat="44.09914" lon="0.48408">
        <ele>128</ele>
        <time>2025-11-05T15:28:27.446Z</time>
      </trkpt>
      <trkpt lat="44.09913" lon="0.48407">
        <ele>128</ele>
        <time>2025-11-05T15:28:28.446Z</time>
      </trkpt>
      <trkpt lat="44.09912" lon="0.48406">
        <ele>128</ele>
        <time>2025-11-05T15:28:29.446Z</time>
      </trkpt>
      <trkpt lat="44.09911" lon="0.48405">
        <ele>128</ele>
        <time>2025-11-05T15:28:30.446Z</time>
      </trkpt>
      <trkpt lat="44.0991" lon="0.48403">
        <ele>128</ele>
        <time>2025-11-05T15:28:31.446Z</time>
      </trkpt>
      <trkpt lat="44.0991" lon="0.48401">
        <ele>128</ele>
        <time>2025-11-05T15:28:32.446Z</time>
      </trkpt>
      <trkpt lat="44.09909" lon="0.484">
        <ele>128</ele>
        <time>2025-11-05T15:28:33.446Z</time>
      </trkpt>
      <trkpt lat="44.09908" lon="0.48398">
        <ele>128</ele>
        <time>2025-11-05T15:28:34.446Z</time>
      </trkpt>
      <trkpt lat="44.09907" lon="0.48397">
        <ele>129</ele>
        <time>2025-11-05T15:28:35.446Z</time>
      </trkpt>
      <trkpt lat="44.09906" lon="0.48395">
        <ele>129</ele>
        <time>2025-11-05T15:28:36.446Z</time>
      </trkpt>
      <trkpt lat="44.09905" lon="0.48394">
        <ele>129</ele>
        <time>2025-11-05T15:28:37.446Z</time>
      </trkpt>
      <trkpt lat="44.09904" lon="0.48393">
        <ele>129</ele>
        <time>2025-11-05T15:28:38.446Z</time>
      </trkpt>
      <trkpt lat="44.09903" lon="0.48391">
        <ele>129</ele>
        <time>2025-11-05T15:28:39.446Z</time>
      </trkpt>
      <trkpt lat="44.09902" lon="0.4839">
        <ele>129</ele>
        <time>2025-11-05T15:28:40.446Z</time>
      </trkpt>
      <trkpt lat="44.09901" lon="0.48388">
        <ele>129</ele>
        <time>2025-11-05T15:28:41.446Z</time>
      </trkpt>
      <trkpt lat="44.09901" lon="0.48387">
        <ele>129</ele>
        <time>2025-11-05T15:28:42.446Z</time>
      </trkpt>
      <trkpt lat="44.099" lon="0.48386">
        <ele>129</ele>
        <time>2025-11-05T15:28:43.446Z</time>
      </trkpt>
      <trkpt lat="44.09899" lon="0.48385">
        <ele>129</ele>
        <time>2025-11-05T15:28:44.446Z</time>
      </trkpt>
      <trkpt lat="44.09899" lon="0.48384">
        <ele>129</ele>
        <time>2025-11-05T15:28:45.446Z</time>
      </trkpt>
      <trkpt lat="44.09898" lon="0.48382">
        <ele>129</ele>
        <time>2025-11-05T15:28:46.446Z</time>
      </trkpt>
      <trkpt lat="44.09897" lon="0.4838">
        <ele>128</ele>
        <time>2025-11-05T15:28:47.446Z</time>
      </trkpt>
      <trkpt lat="44.09896" lon="0.48379">
        <ele>128</ele>
        <time>2025-11-05T15:28:48.446Z</time>
      </trkpt>
      <trkpt lat="44.09895" lon="0.48377">
        <ele>128</ele>
        <time>2025-11-05T15:28:49.446Z</time>
      </trkpt>
      <trkpt lat="44.09895" lon="0.48376">
        <ele>128</ele>
        <time>2025-11-05T15:28:50.446Z</time>
      </trkpt>
      <trkpt lat="44.09894" lon="0.48375">
        <ele>128</ele>
        <time>2025-11-05T15:28:51.446Z</time>
      </trkpt>
      <trkpt lat="44.09893" lon="0.48373">
        <ele>127</ele>
        <time>2025-11-05T15:28:52.446Z</time>
      </trkpt>
      <trkpt lat="44.09892" lon="0.48372">
        <ele>127</ele>
        <time>2025-11-05T15:28:53.446Z</time>
      </trkpt>
      <trkpt lat="44.09892" lon="0.48371">
        <ele>127</ele>
        <time>2025-11-05T15:28:54.446Z</time>
      </trkpt>
      <trkpt lat="44.09891" lon="0.48371">
        <ele>127</ele>
        <time>2025-11-05T15:28:55.446Z</time>
      </trkpt>
      <trkpt lat="44.0989" lon="0.48369">
        <ele>127</ele>
        <time>2025-11-05T15:28:56.446Z</time>
      </trkpt>
      <trkpt lat="44.0989" lon="0.48369">
        <ele>126</ele>
        <time>2025-11-05T15:28:57.446Z</time>
      </trkpt>
      <trkpt lat="44.09889" lon="0.48367">
        <ele>126</ele>
        <time>2025-11-05T15:28:58.446Z</time>
      </trkpt>
      <trkpt lat="44.09888" lon="0.48366">
        <ele>126</ele>
        <time>2025-11-05T15:28:59.446Z</time>
      </trkpt>
      <trkpt lat="44.09887" lon="0.48364">
        <ele>126</ele>
        <time>2025-11-05T15:29:00.446Z</time>
      </trkpt>
      <trkpt lat="44.09887" lon="0.48363">
        <ele>126</ele>
        <time>2025-11-05T15:29:01.446Z</time>
      </trkpt>
      <trkpt lat="44.09886" lon="0.48362">
        <ele>125</ele>
        <time>2025-11-05T15:29:02.447Z</time>
      </trkpt>
      <trkpt lat="44.09885" lon="0.48361">
        <ele>125</ele>
        <time>2025-11-05T15:29:03.446Z</time>
      </trkpt>
      <trkpt lat="44.09884" lon="0.48359">
        <ele>125</ele>
        <time>2025-11-05T15:29:04.446Z</time>
      </trkpt>
      <trkpt lat="44.09883" lon="0.48358">
        <ele>125</ele>
        <time>2025-11-05T15:29:05.446Z</time>
      </trkpt>
      <trkpt lat="44.09883" lon="0.48357">
        <ele>125</ele>
        <time>2025-11-05T15:29:06.446Z</time>
      </trkpt>
      <trkpt lat="44.09882" lon="0.48356">
        <ele>125</ele>
        <time>2025-11-05T15:29:07.446Z</time>
      </trkpt>
      <trkpt lat="44.09881" lon="0.48354">
        <ele>125</ele>
        <time>2025-11-05T15:29:08.446Z</time>
      </trkpt>
      <trkpt lat="44.0988" lon="0.48353">
        <ele>124</ele>
        <time>2025-11-05T15:29:09.446Z</time>
      </trkpt>
      <trkpt lat="44.0988" lon="0.48352">
        <ele>124</ele>
        <time>2025-11-05T15:29:10.446Z</time>
      </trkpt>
      <trkpt lat="44.09879" lon="0.48351">
        <ele>124</ele>
        <time>2025-11-05T15:29:11.446Z</time>
      </trkpt>
      <trkpt lat="44.09878" lon="0.4835">
        <ele>124</ele>
        <time>2025-11-05T15:29:12.446Z</time>
      </trkpt>
      <trkpt lat="44.09878" lon="0.48349">
        <ele>124</ele>
        <time>2025-11-05T15:29:13.446Z</time>
      </trkpt>
      <trkpt lat="44.09877" lon="0.48348">
        <ele>124</ele>
        <time>2025-11-05T15:29:14.446Z</time>
      </trkpt>
      <trkpt lat="44.09876" lon="0.48347">
        <ele>124</ele>
        <time>2025-11-05T15:29:15.446Z</time>
      </trkpt>
      <trkpt lat="44.09875" lon="0.48346">
        <ele>125</ele>
        <time>2025-11-05T15:29:16.446Z</time>
      </trkpt>
      <trkpt lat="44.09875" lon="0.48344">
        <ele>125</ele>
        <time>2025-11-05T15:29:17.446Z</time>
      </trkpt>
      <trkpt lat="44.09874" lon="0.48343">
        <ele>125</ele>
        <time>2025-11-05T15:29:18.446Z</time>
      </trkpt>
      <trkpt lat="44.09873" lon="0.48341">
        <ele>125</ele>
        <time>2025-11-05T15:29:19.446Z</time>
      </trkpt>
      <trkpt lat="44.09872" lon="0.4834">
        <ele>125</ele>
        <time>2025-11-05T15:29:20.446Z</time>
      </trkpt>
      <trkpt lat="44.09871" lon="0.48339">
        <ele>125</ele>
        <time>2025-11-05T15:29:21.446Z</time>
      </trkpt>
      <trkpt lat="44.0987" lon="0.48338">
        <ele>126</ele>
        <time>2025-11-05T15:29:22.446Z</time>
      </trkpt>
      <trkpt lat="44.09869" lon="0.48336">
        <ele>126</ele>
        <time>2025-11-05T15:29:23.446Z</time>
      </trkpt>
      <trkpt lat="44.09869" lon="0.48335">
        <ele>126</ele>
        <time>2025-11-05T15:29:24.446Z</time>
      </trkpt>
      <trkpt lat="44.09868" lon="0.48333">
        <ele>126</ele>
        <time>2025-11-05T15:29:25.446Z</time>
      </trkpt>
      <trkpt lat="44.09867" lon="0.48332">
        <ele>126</ele>
        <time>2025-11-05T15:29:26.446Z</time>
      </trkpt>
      <trkpt lat="44.09866" lon="0.48331">
        <ele>126</ele>
        <time>2025-11-05T15:29:27.446Z</time>
      </trkpt>
      <trkpt lat="44.09866" lon="0.48331">
        <ele>126</ele>
        <time>2025-11-05T15:29:28.446Z</time>
      </trkpt>
      <trkpt lat="44.09865" lon="0.4833">
        <ele>126</ele>
        <time>2025-11-05T15:29:29.446Z</time>
      </trkpt>
      <trkpt lat="44.09864" lon="0.48329">
        <ele>126</ele>
        <time>2025-11-05T15:29:30.446Z</time>
      </trkpt>
      <trkpt lat="44.09863" lon="0.48328">
        <ele>126</ele>
        <time>2025-11-05T15:29:31.446Z</time>
      </trkpt>
      <trkpt lat="44.09863" lon="0.48327">
        <ele>126</ele>
        <time>2025-11-05T15:29:32.446Z</time>
      </trkpt>
      <trkpt lat="44.09862" lon="0.48327">
        <ele>127</ele>
        <time>2025-11-05T15:29:33.446Z</time>
      </trkpt>
      <trkpt lat="44.09861" lon="0.48326">
        <ele>127</ele>
        <time>2025-11-05T15:29:34.446Z</time>
      </trkpt>
      <trkpt lat="44.09861" lon="0.48325">
        <ele>127</ele>
        <time>2025-11-05T15:29:35.446Z</time>
      </trkpt>
      <trkpt lat="44.0986" lon="0.48324">
        <ele>127</ele>
        <time>2025-11-05T15:29:36.446Z</time>
      </trkpt>
      <trkpt lat="44.09859" lon="0.48323">
        <ele>126</ele>
        <time>2025-11-05T15:29:37.446Z</time>
      </trkpt>
      <trkpt lat="44.09859" lon="0.48322">
        <ele>126</ele>
        <time>2025-11-05T15:29:38.446Z</time>
      </trkpt>
      <trkpt lat="44.09858" lon="0.48321">
        <ele>126</ele>
        <time>2025-11-05T15:29:39.446Z</time>
      </trkpt>
      <trkpt lat="44.09857" lon="0.4832">
        <ele>125</ele>
        <time>2025-11-05T15:29:40.446Z</time>
      </trkpt>
      <trkpt lat="44.09857" lon="0.48319">
        <ele>125</ele>
        <time>2025-11-05T15:29:41.446Z</time>
      </trkpt>
      <trkpt lat="44.09857" lon="0.48318">
        <ele>124</ele>
        <time>2025-11-05T15:29:42.446Z</time>
      </trkpt>
      <trkpt lat="44.09856" lon="0.48318">
        <ele>124</ele>
        <time>2025-11-05T15:29:43.446Z</time>
      </trkpt>
      <trkpt lat="44.09856" lon="0.48317">
        <ele>123</ele>
        <time>2025-11-05T15:29:44.446Z</time>
      </trkpt>
      <trkpt lat="44.09856" lon="0.48317">
        <ele>123</ele>
        <time>2025-11-05T15:29:45.446Z</time>
      </trkpt>
      <trkpt lat="44.09855" lon="0.48316">
        <ele>123</ele>
        <time>2025-11-05T15:29:46.446Z</time>
      </trkpt>
      <trkpt lat="44.09855" lon="0.48315">
        <ele>122</ele>
        <time>2025-11-05T15:29:47.446Z</time>
      </trkpt>
      <trkpt lat="44.09854" lon="0.48315">
        <ele>122</ele>
        <time>2025-11-05T15:29:48.446Z</time>
      </trkpt>
      <trkpt lat="44.09854" lon="0.48314">
        <ele>122</ele>
        <time>2025-11-05T15:29:49.446Z</time>
      </trkpt>
      <trkpt lat="44.09853" lon="0.48314">
        <ele>122</ele>
        <time>2025-11-05T15:29:50.446Z</time>
      </trkpt>
      <trkpt lat="44.09853" lon="0.48313">
        <ele>122</ele>
        <time>2025-11-05T15:29:51.446Z</time>
      </trkpt>
      <trkpt lat="44.09853" lon="0.48313">
        <ele>122</ele>
        <time>2025-11-05T15:29:52.446Z</time>
      </trkpt>
      <trkpt lat="44.09853" lon="0.48312">
        <ele>122</ele>
        <time>2025-11-05T15:29:53.446Z</time>
      </trkpt>
      <trkpt lat="44.09852" lon="0.48312">
        <ele>122</ele>
        <time>2025-11-05T15:29:54.446Z</time>
      </trkpt>
      <trkpt lat="44.09852" lon="0.48312">
        <ele>123</ele>
        <time>2025-11-05T15:29:55.446Z</time>
      </trkpt>
      <trkpt lat="44.09851" lon="0.48311">
        <ele>123</ele>
        <time>2025-11-05T15:29:56.446Z</time>
      </trkpt>
      <trkpt lat="44.09851" lon="0.4831">
        <ele>123</ele>
        <time>2025-11-05T15:29:57.446Z</time>
      </trkpt>
      <trkpt lat="44.0985" lon="0.48309">
        <ele>123</ele>
        <time>2025-11-05T15:29:58.446Z</time>
      </trkpt>
      <trkpt lat="44.0985" lon="0.48309">
        <ele>124</ele>
        <time>2025-11-05T15:29:59.446Z</time>
      </trkpt>
      <trkpt lat="44.09849" lon="0.48308">
        <ele>124</ele>
        <time>2025-11-05T15:30:00.446Z</time>
      </trkpt>
      <trkpt lat="44.09848" lon="0.48308">
        <ele>124</ele>
        <time>2025-11-05T15:30:01.446Z</time>
      </trkpt>
      <trkpt lat="44.09848" lon="0.48307">
        <ele>125</ele>
        <time>2025-11-05T15:30:02.446Z</time>
      </trkpt>
      <trkpt lat="44.09847" lon="0.48307">
        <ele>125</ele>
        <time>2025-11-05T15:30:03.446Z</time>
      </trkpt>
      <trkpt lat="44.09847" lon="0.48306">
        <ele>125</ele>
        <time>2025-11-05T15:30:04.446Z</time>
      </trkpt>
      <trkpt lat="44.09847" lon="0.48306">
        <ele>125</ele>
        <time>2025-11-05T15:30:05.446Z</time>
      </trkpt>
      <trkpt lat="44.09847" lon="0.48305">
        <ele>125</ele>
        <time>2025-11-05T15:30:06.446Z</time>
      </trkpt>
      <trkpt lat="44.09847" lon="0.48304">
        <ele>125</ele>
        <time>2025-11-05T15:30:07.446Z</time>
      </trkpt>
      <trkpt lat="44.09846" lon="0.48303">
        <ele>125</ele>
        <time>2025-11-05T15:30:08.446Z</time>
      </trkpt>
      <trkpt lat="44.09846" lon="0.48302">
        <ele>125</ele>
        <time>2025-11-05T15:30:09.446Z</time>
      </trkpt>
      <trkpt lat="44.09845" lon="0.48301">
        <ele>125</ele>
        <time>2025-11-05T15:30:10.446Z</time>
      </trkpt>
      <trkpt lat="44.09844" lon="0.483">
        <ele>125</ele>
        <time>2025-11-05T15:30:11.446Z</time>
      </trkpt>
      <trkpt lat="44.09843" lon="0.48299">
        <ele>126</ele>
        <time>2025-11-05T15:30:12.446Z</time>
      </trkpt>
      <trkpt lat="44.09843" lon="0.48297">
        <ele>126</ele>
        <time>2025-11-05T15:30:13.446Z</time>
      </trkpt>
      <trkpt lat="44.09843" lon="0.48296">
        <ele>126</ele>
        <time>2025-11-05T15:30:14.446Z</time>
      </trkpt>
      <trkpt lat="44.09843" lon="0.48294">
        <ele>126</ele>
        <time>2025-11-05T15:30:15.446Z</time>
      </trkpt>
      <trkpt lat="44.09843" lon="0.48293">
        <ele>126</ele>
        <time>2025-11-05T15:30:16.446Z</time>
      </trkpt>
      <trkpt lat="44.09842" lon="0.48292">
        <ele>126</ele>
        <time>2025-11-05T15:30:17.446Z</time>
      </trkpt>
      <trkpt lat="44.09841" lon="0.48291">
        <ele>126</ele>
        <time>2025-11-05T15:30:18.446Z</time>
      </trkpt>
      <trkpt lat="44.09841" lon="0.48289">
        <ele>126</ele>
        <time>2025-11-05T15:30:19.446Z</time>
      </trkpt>
      <trkpt lat="44.0984" lon="0.48289">
        <ele>126</ele>
        <time>2025-11-05T15:30:20.446Z</time>
      </trkpt>
      <trkpt lat="44.09839" lon="0.48287">
        <ele>127</ele>
        <time>2025-11-05T15:30:21.446Z</time>
      </trkpt>
      <trkpt lat="44.09839" lon="0.48286">
        <ele>127</ele>
        <time>2025-11-05T15:30:22.446Z</time>
      </trkpt>
      <trkpt lat="44.09838" lon="0.48285">
        <ele>127</ele>
        <time>2025-11-05T15:30:23.446Z</time>
      </trkpt>
      <trkpt lat="44.09837" lon="0.48284">
        <ele>127</ele>
        <time>2025-11-05T15:30:24.446Z</time>
      </trkpt>
      <trkpt lat="44.09837" lon="0.48283">
        <ele>127</ele>
        <time>2025-11-05T15:30:25.446Z</time>
      </trkpt>
      <trkpt lat="44.09836" lon="0.48282">
        <ele>127</ele>
        <time>2025-11-05T15:30:26.446Z</time>
      </trkpt>
      <trkpt lat="44.09835" lon="0.4828">
        <ele>127</ele>
        <time>2025-11-05T15:30:27.446Z</time>
      </trkpt>
      <trkpt lat="44.09834" lon="0.48279">
        <ele>127</ele>
        <time>2025-11-05T15:30:28.446Z</time>
      </trkpt>
      <trkpt lat="44.09834" lon="0.48277">
        <ele>127</ele>
        <time>2025-11-05T15:30:29.446Z</time>
      </trkpt>
      <trkpt lat="44.09833" lon="0.48276">
        <ele>127</ele>
        <time>2025-11-05T15:30:30.446Z</time>
      </trkpt>
      <trkpt lat="44.09832" lon="0.48275">
        <ele>127</ele>
        <time>2025-11-05T15:30:31.446Z</time>
      </trkpt>
      <trkpt lat="44.09832" lon="0.48274">
        <ele>127</ele>
        <time>2025-11-05T15:30:32.446Z</time>
      </trkpt>
      <trkpt lat="44.09831" lon="0.48274">
        <ele>127</ele>
        <time>2025-11-05T15:30:33.446Z</time>
      </trkpt>
      <trkpt lat="44.09831" lon="0.48273">
        <ele>127</ele>
        <time>2025-11-05T15:30:34.446Z</time>
      </trkpt>
      <trkpt lat="44.0983" lon="0.48272">
        <ele>126</ele>
        <time>2025-11-05T15:30:35.446Z</time>
      </trkpt>
      <trkpt lat="44.09829" lon="0.48271">
        <ele>126</ele>
        <time>2025-11-05T15:30:36.446Z</time>
      </trkpt>
      <trkpt lat="44.09829" lon="0.48271">
        <ele>126</ele>
        <time>2025-11-05T15:30:37.446Z</time>
      </trkpt>
      <trkpt lat="44.09828" lon="0.4827">
        <ele>125</ele>
        <time>2025-11-05T15:30:38.446Z</time>
      </trkpt>
      <trkpt lat="44.09828" lon="0.48269">
        <ele>124</ele>
        <time>2025-11-05T15:30:39.446Z</time>
      </trkpt>
      <trkpt lat="44.09828" lon="0.48269">
        <ele>124</ele>
        <time>2025-11-05T15:30:40.446Z</time>
      </trkpt>
      <trkpt lat="44.09828" lon="0.48268">
        <ele>123</ele>
        <time>2025-11-05T15:30:41.447Z</time>
      </trkpt>
      <trkpt lat="44.09827" lon="0.48267">
        <ele>123</ele>
        <time>2025-11-05T15:30:42.446Z</time>
      </trkpt>
      <trkpt lat="44.09827" lon="0.48266">
        <ele>122</ele>
        <time>2025-11-05T15:30:43.446Z</time>
      </trkpt>
      <trkpt lat="44.09826" lon="0.48266">
        <ele>122</ele>
        <time>2025-11-05T15:30:44.446Z</time>
      </trkpt>
      <trkpt lat="44.09826" lon="0.48265">
        <ele>121</ele>
        <time>2025-11-05T15:30:45.446Z</time>
      </trkpt>
      <trkpt lat="44.09826" lon="0.48264">
        <ele>121</ele>
        <time>2025-11-05T15:30:46.446Z</time>
      </trkpt>
      <trkpt lat="44.09825" lon="0.48263">
        <ele>120</ele>
        <time>2025-11-05T15:30:47.446Z</time>
      </trkpt>
      <trkpt lat="44.09825" lon="0.48262">
        <ele>120</ele>
        <time>2025-11-05T15:30:48.446Z</time>
      </trkpt>
      <trkpt lat="44.09824" lon="0.48261">
        <ele>120</ele>
        <time>2025-11-05T15:30:49.446Z</time>
      </trkpt>
      <trkpt lat="44.09823" lon="0.4826">
        <ele>120</ele>
        <time>2025-11-05T15:30:50.446Z</time>
      </trkpt>
      <trkpt lat="44.09822" lon="0.48259">
        <ele>121</ele>
        <time>2025-11-05T15:30:51.446Z</time>
      </trkpt>
      <trkpt lat="44.09821" lon="0.48258">
        <ele>121</ele>
        <time>2025-11-05T15:30:52.446Z</time>
      </trkpt>
      <trkpt lat="44.0982" lon="0.48257">
        <ele>121</ele>
        <time>2025-11-05T15:30:53.446Z</time>
      </trkpt>
      <trkpt lat="44.09819" lon="0.48255">
        <ele>121</ele>
        <time>2025-11-05T15:30:54.446Z</time>
      </trkpt>
      <trkpt lat="44.09818" lon="0.48254">
        <ele>121</ele>
        <time>2025-11-05T15:30:55.446Z</time>
      </trkpt>
      <trkpt lat="44.09817" lon="0.48253">
        <ele>122</ele>
        <time>2025-11-05T15:30:56.446Z</time>
      </trkpt>
      <trkpt lat="44.09815" lon="0.48251">
        <ele>122</ele>
        <time>2025-11-05T15:30:57.446Z</time>
      </trkpt>
      <trkpt lat="44.09814" lon="0.4825">
        <ele>122</ele>
        <time>2025-11-05T15:30:58.446Z</time>
      </trkpt>
      <trkpt lat="44.09813" lon="0.48249">
        <ele>123</ele>
        <time>2025-11-05T15:30:59.446Z</time>
      </trkpt>
      <trkpt lat="44.09812" lon="0.48248">
        <ele>123</ele>
        <time>2025-11-05T15:31:00.446Z</time>
      </trkpt>
      <trkpt lat="44.09811" lon="0.48247">
        <ele>123</ele>
        <time>2025-11-05T15:31:01.446Z</time>
      </trkpt>
      <trkpt lat="44.0981" lon="0.48246">
        <ele>123</ele>
        <time>2025-11-05T15:31:02.446Z</time>
      </trkpt>
      <trkpt lat="44.09809" lon="0.48246">
        <ele>123</ele>
        <time>2025-11-05T15:31:03.446Z</time>
      </trkpt>
      <trkpt lat="44.09808" lon="0.48245">
        <ele>122</ele>
        <time>2025-11-05T15:31:04.446Z</time>
      </trkpt>
      <trkpt lat="44.09807" lon="0.48244">
        <ele>122</ele>
        <time>2025-11-05T15:31:05.446Z</time>
      </trkpt>
      <trkpt lat="44.09807" lon="0.48243">
        <ele>122</ele>
        <time>2025-11-05T15:31:06.446Z</time>
      </trkpt>
      <trkpt lat="44.09806" lon="0.48242">
        <ele>122</ele>
        <time>2025-11-05T15:31:07.446Z</time>
      </trkpt>
      <trkpt lat="44.09804" lon="0.48241">
        <ele>122</ele>
        <time>2025-11-05T15:31:08.446Z</time>
      </trkpt>
      <trkpt lat="44.09803" lon="0.4824">
        <ele>122</ele>
        <time>2025-11-05T15:31:09.446Z</time>
      </trkpt>
      <trkpt lat="44.09802" lon="0.48238">
        <ele>122</ele>
        <time>2025-11-05T15:31:10.446Z</time>
      </trkpt>
      <trkpt lat="44.09802" lon="0.48238">
        <ele>122</ele>
        <time>2025-11-05T15:31:11.446Z</time>
      </trkpt>
      <trkpt lat="44.09801" lon="0.48237">
        <ele>122</ele>
        <time>2025-11-05T15:31:12.446Z</time>
      </trkpt>
      <trkpt lat="44.098" lon="0.48236">
        <ele>121</ele>
        <time>2025-11-05T15:31:13.446Z</time>
      </trkpt>
      <trkpt lat="44.09799" lon="0.48235">
        <ele>121</ele>
        <time>2025-11-05T15:31:14.446Z</time>
      </trkpt>
      <trkpt lat="44.09799" lon="0.48235">
        <ele>120</ele>
        <time>2025-11-05T15:31:15.446Z</time>
      </trkpt>
      <trkpt lat="44.09799" lon="0.48234">
        <ele>120</ele>
        <time>2025-11-05T15:31:16.446Z</time>
      </trkpt>
      <trkpt lat="44.09799" lon="0.48233">
        <ele>120</ele>
        <time>2025-11-05T15:31:17.446Z</time>
      </trkpt>
      <trkpt lat="44.09798" lon="0.48233">
        <ele>119</ele>
        <time>2025-11-05T15:31:18.446Z</time>
      </trkpt>
      <trkpt lat="44.09798" lon="0.48232">
        <ele>119</ele>
        <time>2025-11-05T15:31:19.446Z</time>
      </trkpt>
      <trkpt lat="44.09798" lon="0.48231">
        <ele>118</ele>
        <time>2025-11-05T15:31:20.446Z</time>
      </trkpt>
      <trkpt lat="44.09797" lon="0.4823">
        <ele>118</ele>
        <time>2025-11-05T15:31:21.446Z</time>
      </trkpt>
      <trkpt lat="44.09796" lon="0.48229">
        <ele>117</ele>
        <time>2025-11-05T15:31:22.446Z</time>
      </trkpt>
      <trkpt lat="44.09795" lon="0.48228">
        <ele>117</ele>
        <time>2025-11-05T15:31:23.446Z</time>
      </trkpt>
      <trkpt lat="44.09795" lon="0.48227">
        <ele>117</ele>
        <time>2025-11-05T15:31:24.446Z</time>
      </trkpt>
      <trkpt lat="44.09794" lon="0.48226">
        <ele>117</ele>
        <time>2025-11-05T15:31:25.446Z</time>
      </trkpt>
      <trkpt lat="44.09793" lon="0.48226">
        <ele>117</ele>
        <time>2025-11-05T15:31:26.446Z</time>
      </trkpt>
      <trkpt lat="44.09792" lon="0.48226">
        <ele>117</ele>
        <time>2025-11-05T15:31:27.446Z</time>
      </trkpt>
      <trkpt lat="44.09791" lon="0.48225">
        <ele>116</ele>
        <time>2025-11-05T15:31:28.446Z</time>
      </trkpt>
      <trkpt lat="44.0979" lon="0.48224">
        <ele>116</ele>
        <time>2025-11-05T15:31:29.446Z</time>
      </trkpt>
      <trkpt lat="44.09789" lon="0.48223">
        <ele>116</ele>
        <time>2025-11-05T15:31:30.446Z</time>
      </trkpt>
      <trkpt lat="44.09788" lon="0.48221">
        <ele>116</ele>
        <time>2025-11-05T15:31:31.446Z</time>
      </trkpt>
      <trkpt lat="44.09787" lon="0.4822">
        <ele>116</ele>
        <time>2025-11-05T15:31:32.446Z</time>
      </trkpt>
      <trkpt lat="44.09786" lon="0.48219">
        <ele>116</ele>
        <time>2025-11-05T15:31:33.446Z</time>
      </trkpt>
      <trkpt lat="44.09784" lon="0.48217">
        <ele>116</ele>
        <time>2025-11-05T15:31:34.446Z</time>
      </trkpt>
      <trkpt lat="44.09783" lon="0.48216">
        <ele>116</ele>
        <time>2025-11-05T15:31:35.446Z</time>
      </trkpt>
      <trkpt lat="44.09782" lon="0.48215">
        <ele>116</ele>
        <time>2025-11-05T15:31:36.446Z</time>
      </trkpt>
      <trkpt lat="44.09781" lon="0.48214">
        <ele>117</ele>
        <time>2025-11-05T15:31:37.446Z</time>
      </trkpt>
      <trkpt lat="44.0978" lon="0.48212">
        <ele>117</ele>
        <time>2025-11-05T15:31:38.446Z</time>
      </trkpt>
      <trkpt lat="44.09779" lon="0.48211">
        <ele>117</ele>
        <time>2025-11-05T15:31:39.446Z</time>
      </trkpt>
      <trkpt lat="44.09779" lon="0.4821">
        <ele>118</ele>
        <time>2025-11-05T15:31:40.446Z</time>
      </trkpt>
      <trkpt lat="44.09778" lon="0.48209">
        <ele>118</ele>
        <time>2025-11-05T15:31:41.446Z</time>
      </trkpt>
      <trkpt lat="44.09776" lon="0.48208">
        <ele>118</ele>
        <time>2025-11-05T15:31:42.446Z</time>
      </trkpt>
      <trkpt lat="44.09776" lon="0.48207">
        <ele>118</ele>
        <time>2025-11-05T15:31:43.446Z</time>
      </trkpt>
      <trkpt lat="44.09775" lon="0.48206">
        <ele>118</ele>
        <time>2025-11-05T15:31:44.446Z</time>
      </trkpt>
      <trkpt lat="44.09775" lon="0.48204">
        <ele>117</ele>
        <time>2025-11-05T15:31:45.446Z</time>
      </trkpt>
      <trkpt lat="44.09775" lon="0.48203">
        <ele>117</ele>
        <time>2025-11-05T15:31:46.446Z</time>
      </trkpt>
      <trkpt lat="44.09775" lon="0.48202">
        <ele>116</ele>
        <time>2025-11-05T15:31:47.446Z</time>
      </trkpt>
      <trkpt lat="44.09775" lon="0.48201">
        <ele>116</ele>
        <time>2025-11-05T15:31:48.446Z</time>
      </trkpt>
      <trkpt lat="44.09776" lon="0.482">
        <ele>116</ele>
        <time>2025-11-05T15:31:49.446Z</time>
      </trkpt>
      <trkpt lat="44.09776" lon="0.48199">
        <ele>116</ele>
        <time>2025-11-05T15:31:50.446Z</time>
      </trkpt>
      <trkpt lat="44.09776" lon="0.48199">
        <ele>116</ele>
        <time>2025-11-05T15:31:51.446Z</time>
      </trkpt>
      <trkpt lat="44.09776" lon="0.48199">
        <ele>116</ele>
        <time>2025-11-05T15:31:52.446Z</time>
      </trkpt>
      <trkpt lat="44.09776" lon="0.48199">
        <ele>116</ele>
        <time>2025-11-05T15:31:53.446Z</time>
      </trkpt>
      <trkpt lat="44.09776" lon="0.48199">
        <ele>116</ele>
        <time>2025-11-05T15:31:54.446Z</time>
      </trkpt>
      <trkpt lat="44.09776" lon="0.48199">
        <ele>116</ele>
        <time>2025-11-05T15:31:55.446Z</time>
      </trkpt>
      <trkpt lat="44.09776" lon="0.48199">
        <ele>115</ele>
        <time>2025-11-05T15:31:56.446Z</time>
      </trkpt>
      <trkpt lat="44.09776" lon="0.48199">
        <ele>115</ele>
        <time>2025-11-05T15:31:57.446Z</time>
      </trkpt>
      <trkpt lat="44.09776" lon="0.48199">
        <ele>115</ele>
        <time>2025-11-05T15:31:58.446Z</time>
      </trkpt>
      <trkpt lat="44.09776" lon="0.48199">
        <ele>115</ele>
        <time>2025-11-05T15:31:59.446Z</time>
      </trkpt>
      <trkpt lat="44.09776" lon="0.48199">
        <ele>115</ele>
        <time>2025-11-05T15:32:00.446Z</time>
      </trkpt>
      <trkpt lat="44.09776" lon="0.48199">
        <ele>115</ele>
        <time>2025-11-05T15:32:01.446Z</time>
      </trkpt>
      <trkpt lat="44.09776" lon="0.48199">
        <ele>115</ele>
        <time>2025-11-05T15:32:02.446Z</time>
      </trkpt>
      <trkpt lat="44.09775" lon="0.48198">
        <ele>115</ele>
        <time>2025-11-05T15:32:03.446Z</time>
      </trkpt>
      <trkpt lat="44.09774" lon="0.48197">
        <ele>115</ele>
        <time>2025-11-05T15:32:04.446Z</time>
      </trkpt>
      <trkpt lat="44.09774" lon="0.48197">
        <ele>115</ele>
        <time>2025-11-05T15:32:05.446Z</time>
      </trkpt>
      <trkpt lat="44.09774" lon="0.48196">
        <ele>114</ele>
        <time>2025-11-05T15:32:06.446Z</time>
      </trkpt>
      <trkpt lat="44.09773" lon="0.48195">
        <ele>115</ele>
        <time>2025-11-05T15:32:07.446Z</time>
      </trkpt>
      <trkpt lat="44.09773" lon="0.48195">
        <ele>115</ele>
        <time>2025-11-05T15:32:08.446Z</time>
      </trkpt>
      <trkpt lat="44.09773" lon="0.48195">
        <ele>115</ele>
        <time>2025-11-05T15:32:09.446Z</time>
      </trkpt>
      <trkpt lat="44.09773" lon="0.48194">
        <ele>115</ele>
        <time>2025-11-05T15:32:10.446Z</time>
      </trkpt>
      <trkpt lat="44.09773" lon="0.48195">
        <ele>115</ele>
        <time>2025-11-05T15:32:11.446Z</time>
      </trkpt>
      <trkpt lat="44.09773" lon="0.48195">
        <ele>115</ele>
        <time>2025-11-05T15:32:12.446Z</time>
      </trkpt>
      <trkpt lat="44.09773" lon="0.48195">
        <ele>114</ele>
        <time>2025-11-05T15:32:13.446Z</time>
      </trkpt>
      <trkpt lat="44.09773" lon="0.48195">
        <ele>114</ele>
        <time>2025-11-05T15:32:14.446Z</time>
      </trkpt>
      <trkpt lat="44.09773" lon="0.48195">
        <ele>114</ele>
        <time>2025-11-05T15:32:15.446Z</time>
      </trkpt>
      <trkpt lat="44.09773" lon="0.48195">
        <ele>114</ele>
        <time>2025-11-05T15:32:16.446Z</time>
      </trkpt>
      <trkpt lat="44.09773" lon="0.48195">
        <ele>115</ele>
        <time>2025-11-05T15:32:17.446Z</time>
      </trkpt>
      <trkpt lat="44.09773" lon="0.48195">
        <ele>115</ele>
        <time>2025-11-05T15:32:18.446Z</time>
      </trkpt>
      <trkpt lat="44.09773" lon="0.48195">
        <ele>116</ele>
        <time>2025-11-05T15:32:19.446Z</time>
      </trkpt>
      <trkpt lat="44.09773" lon="0.48195">
        <ele>116</ele>
        <time>2025-11-05T15:32:20.446Z</time>
      </trkpt>
      <trkpt lat="44.09773" lon="0.48195">
        <ele>117</ele>
        <time>2025-11-05T15:32:21.446Z</time>
      </trkpt>
      <trkpt lat="44.09773" lon="0.48195">
        <ele>117</ele>
        <time>2025-11-05T15:32:22.446Z</time>
      </trkpt>
      <trkpt lat="44.09773" lon="0.48195">
        <ele>117</ele>
        <time>2025-11-05T15:32:23.447Z</time>
      </trkpt>
      <trkpt lat="44.09773" lon="0.48195">
        <ele>117</ele>
        <time>2025-11-05T15:32:24.446Z</time>
      </trkpt>
      <trkpt lat="44.09772" lon="0.48194">
        <ele>118</ele>
        <time>2025-11-05T15:32:25.446Z</time>
      </trkpt>
      <trkpt lat="44.09771" lon="0.48194">
        <ele>118</ele>
        <time>2025-11-05T15:32:26.446Z</time>
      </trkpt>
      <trkpt lat="44.0977" lon="0.48194">
        <ele>118</ele>
        <time>2025-11-05T15:32:27.446Z</time>
      </trkpt>
      <trkpt lat="44.09769" lon="0.48194">
        <ele>118</ele>
        <time>2025-11-05T15:32:28.446Z</time>
      </trkpt>
      <trkpt lat="44.09768" lon="0.48193">
        <ele>118</ele>
        <time>2025-11-05T15:32:29.446Z</time>
      </trkpt>
      <trkpt lat="44.09768" lon="0.48193">
        <ele>118</ele>
        <time>2025-11-05T15:32:30.446Z</time>
      </trkpt>
      <trkpt lat="44.09767" lon="0.48192">
        <ele>118</ele>
        <time>2025-11-05T15:32:31.446Z</time>
      </trkpt>
      <trkpt lat="44.09766" lon="0.48191">
        <ele>118</ele>
        <time>2025-11-05T15:32:32.446Z</time>
      </trkpt>
      <trkpt lat="44.09765" lon="0.48191">
        <ele>118</ele>
        <time>2025-11-05T15:32:33.446Z</time>
      </trkpt>
      <trkpt lat="44.09764" lon="0.4819">
        <ele>118</ele>
        <time>2025-11-05T15:32:34.446Z</time>
      </trkpt>
      <trkpt lat="44.09763" lon="0.48189">
        <ele>117</ele>
        <time>2025-11-05T15:32:35.446Z</time>
      </trkpt>
      <trkpt lat="44.09762" lon="0.48189">
        <ele>117</ele>
        <time>2025-11-05T15:32:36.446Z</time>
      </trkpt>
      <trkpt lat="44.09761" lon="0.48188">
        <ele>117</ele>
        <time>2025-11-05T15:32:37.446Z</time>
      </trkpt>
      <trkpt lat="44.0976" lon="0.48187">
        <ele>118</ele>
        <time>2025-11-05T15:32:38.446Z</time>
      </trkpt>
      <trkpt lat="44.09759" lon="0.48186">
        <ele>118</ele>
        <time>2025-11-05T15:32:39.446Z</time>
      </trkpt>
      <trkpt lat="44.09758" lon="0.48185">
        <ele>118</ele>
        <time>2025-11-05T15:32:40.446Z</time>
      </trkpt>
      <trkpt lat="44.09757" lon="0.48184">
        <ele>119</ele>
        <time>2025-11-05T15:32:41.446Z</time>
      </trkpt>
      <trkpt lat="44.09756" lon="0.48184">
        <ele>119</ele>
        <time>2025-11-05T15:32:42.446Z</time>
      </trkpt>
      <trkpt lat="44.09755" lon="0.48184">
        <ele>119</ele>
        <time>2025-11-05T15:32:43.446Z</time>
      </trkpt>
      <trkpt lat="44.09754" lon="0.48183">
        <ele>119</ele>
        <time>2025-11-05T15:32:44.446Z</time>
      </trkpt>
      <trkpt lat="44.09753" lon="0.48182">
        <ele>119</ele>
        <time>2025-11-05T15:32:45.446Z</time>
      </trkpt>
      <trkpt lat="44.09752" lon="0.48181">
        <ele>119</ele>
        <time>2025-11-05T15:32:46.446Z</time>
      </trkpt>
      <trkpt lat="44.09751" lon="0.4818">
        <ele>120</ele>
        <time>2025-11-05T15:32:47.446Z</time>
      </trkpt>
      <trkpt lat="44.0975" lon="0.48179">
        <ele>120</ele>
        <time>2025-11-05T15:32:48.446Z</time>
      </trkpt>
      <trkpt lat="44.09749" lon="0.48178">
        <ele>120</ele>
        <time>2025-11-05T15:32:49.446Z</time>
      </trkpt>
      <trkpt lat="44.09748" lon="0.48177">
        <ele>120</ele>
        <time>2025-11-05T15:32:50.446Z</time>
      </trkpt>
      <trkpt lat="44.09747" lon="0.48176">
        <ele>120</ele>
        <time>2025-11-05T15:32:51.446Z</time>
      </trkpt>
      <trkpt lat="44.09746" lon="0.48175">
        <ele>120</ele>
        <time>2025-11-05T15:32:52.446Z</time>
      </trkpt>
      <trkpt lat="44.09745" lon="0.48174">
        <ele>120</ele>
        <time>2025-11-05T15:32:53.446Z</time>
      </trkpt>
      <trkpt lat="44.09744" lon="0.48173">
        <ele>120</ele>
        <time>2025-11-05T15:32:54.446Z</time>
      </trkpt>
      <trkpt lat="44.09743" lon="0.48173">
        <ele>120</ele>
        <time>2025-11-05T15:32:55.446Z</time>
      </trkpt>
      <trkpt lat="44.09742" lon="0.48172">
        <ele>120</ele>
        <time>2025-11-05T15:32:56.446Z</time>
      </trkpt>
      <trkpt lat="44.09741" lon="0.48171">
        <ele>120</ele>
        <time>2025-11-05T15:32:57.446Z</time>
      </trkpt>
      <trkpt lat="44.0974" lon="0.48169">
        <ele>120</ele>
        <time>2025-11-05T15:32:58.446Z</time>
      </trkpt>
      <trkpt lat="44.09739" lon="0.48168">
        <ele>119</ele>
        <time>2025-11-05T15:32:59.446Z</time>
      </trkpt>
      <trkpt lat="44.09738" lon="0.48167">
        <ele>119</ele>
        <time>2025-11-05T15:33:00.446Z</time>
      </trkpt>
      <trkpt lat="44.09737" lon="0.48166">
        <ele>119</ele>
        <time>2025-11-05T15:33:01.446Z</time>
      </trkpt>
      <trkpt lat="44.09737" lon="0.48165">
        <ele>118</ele>
        <time>2025-11-05T15:33:02.446Z</time>
      </trkpt>
      <trkpt lat="44.09736" lon="0.48164">
        <ele>118</ele>
        <time>2025-11-05T15:33:03.446Z</time>
      </trkpt>
      <trkpt lat="44.09735" lon="0.48164">
        <ele>118</ele>
        <time>2025-11-05T15:33:04.446Z</time>
      </trkpt>
      <trkpt lat="44.09734" lon="0.48163">
        <ele>118</ele>
        <time>2025-11-05T15:33:05.446Z</time>
      </trkpt>
      <trkpt lat="44.09733" lon="0.48162">
        <ele>118</ele>
        <time>2025-11-05T15:33:06.446Z</time>
      </trkpt>
      <trkpt lat="44.09732" lon="0.48161">
        <ele>118</ele>
        <time>2025-11-05T15:33:07.446Z</time>
      </trkpt>
      <trkpt lat="44.09731" lon="0.4816">
        <ele>118</ele>
        <time>2025-11-05T15:33:08.446Z</time>
      </trkpt>
      <trkpt lat="44.09731" lon="0.4816">
        <ele>118</ele>
        <time>2025-11-05T15:33:09.446Z</time>
      </trkpt>
      <trkpt lat="44.0973" lon="0.48159">
        <ele>118</ele>
        <time>2025-11-05T15:33:10.446Z</time>
      </trkpt>
      <trkpt lat="44.09729" lon="0.48158">
        <ele>118</ele>
        <time>2025-11-05T15:33:11.446Z</time>
      </trkpt>
      <trkpt lat="44.09728" lon="0.48156">
        <ele>118</ele>
        <time>2025-11-05T15:33:12.446Z</time>
      </trkpt>
      <trkpt lat="44.09727" lon="0.48156">
        <ele>118</ele>
        <time>2025-11-05T15:33:13.446Z</time>
      </trkpt>
      <trkpt lat="44.09726" lon="0.48155">
        <ele>118</ele>
        <time>2025-11-05T15:33:14.446Z</time>
      </trkpt>
      <trkpt lat="44.09726" lon="0.48153">
        <ele>118</ele>
        <time>2025-11-05T15:33:15.446Z</time>
      </trkpt>
      <trkpt lat="44.09725" lon="0.48152">
        <ele>118</ele>
        <time>2025-11-05T15:33:16.446Z</time>
      </trkpt>
      <trkpt lat="44.09724" lon="0.48152">
        <ele>118</ele>
        <time>2025-11-05T15:33:17.446Z</time>
      </trkpt>
      <trkpt lat="44.09724" lon="0.48151">
        <ele>118</ele>
        <time>2025-11-05T15:33:18.446Z</time>
      </trkpt>
      <trkpt lat="44.09723" lon="0.4815">
        <ele>119</ele>
        <time>2025-11-05T15:33:19.446Z</time>
      </trkpt>
      <trkpt lat="44.09722" lon="0.4815">
        <ele>118</ele>
        <time>2025-11-05T15:33:20.446Z</time>
      </trkpt>
      <trkpt lat="44.09721" lon="0.48149">
        <ele>118</ele>
        <time>2025-11-05T15:33:21.446Z</time>
      </trkpt>
      <trkpt lat="44.09721" lon="0.48148">
        <ele>119</ele>
        <time>2025-11-05T15:33:22.446Z</time>
      </trkpt>
      <trkpt lat="44.09719" lon="0.48148">
        <ele>119</ele>
        <time>2025-11-05T15:33:23.446Z</time>
      </trkpt>
      <trkpt lat="44.09719" lon="0.48147">
        <ele>119</ele>
        <time>2025-11-05T15:33:24.446Z</time>
      </trkpt>
      <trkpt lat="44.09717" lon="0.48146">
        <ele>119</ele>
        <time>2025-11-05T15:33:25.446Z</time>
      </trkpt>
      <trkpt lat="44.09716" lon="0.48146">
        <ele>120</ele>
        <time>2025-11-05T15:33:26.446Z</time>
      </trkpt>
      <trkpt lat="44.09715" lon="0.48145">
        <ele>120</ele>
        <time>2025-11-05T15:33:27.446Z</time>
      </trkpt>
      <trkpt lat="44.09715" lon="0.48145">
        <ele>120</ele>
        <time>2025-11-05T15:33:28.446Z</time>
      </trkpt>
      <trkpt lat="44.09714" lon="0.48144">
        <ele>120</ele>
        <time>2025-11-05T15:33:29.446Z</time>
      </trkpt>
      <trkpt lat="44.09713" lon="0.48144">
        <ele>120</ele>
        <time>2025-11-05T15:33:30.446Z</time>
      </trkpt>
      <trkpt lat="44.09713" lon="0.48143">
        <ele>120</ele>
        <time>2025-11-05T15:33:31.446Z</time>
      </trkpt>
      <trkpt lat="44.09712" lon="0.48143">
        <ele>120</ele>
        <time>2025-11-05T15:33:32.446Z</time>
      </trkpt>
      <trkpt lat="44.09711" lon="0.48143">
        <ele>120</ele>
        <time>2025-11-05T15:33:33.446Z</time>
      </trkpt>
      <trkpt lat="44.0971" lon="0.48142">
        <ele>120</ele>
        <time>2025-11-05T15:33:34.446Z</time>
      </trkpt>
      <trkpt lat="44.09709" lon="0.48142">
        <ele>120</ele>
        <time>2025-11-05T15:33:35.446Z</time>
      </trkpt>
      <trkpt lat="44.09709" lon="0.48141">
        <ele>120</ele>
        <time>2025-11-05T15:33:36.446Z</time>
      </trkpt>
      <trkpt lat="44.09708" lon="0.48141">
        <ele>120</ele>
        <time>2025-11-05T15:33:37.446Z</time>
      </trkpt>
      <trkpt lat="44.09708" lon="0.4814">
        <ele>119</ele>
        <time>2025-11-05T15:33:38.446Z</time>
      </trkpt>
      <trkpt lat="44.09707" lon="0.48139">
        <ele>119</ele>
        <time>2025-11-05T15:33:39.446Z</time>
      </trkpt>
      <trkpt lat="44.09706" lon="0.48138">
        <ele>119</ele>
        <time>2025-11-05T15:33:40.446Z</time>
      </trkpt>
      <trkpt lat="44.09706" lon="0.48138">
        <ele>119</ele>
        <time>2025-11-05T15:33:41.446Z</time>
      </trkpt>
      <trkpt lat="44.09705" lon="0.48137">
        <ele>119</ele>
        <time>2025-11-05T15:33:42.446Z</time>
      </trkpt>
      <trkpt lat="44.09704" lon="0.48136">
        <ele>119</ele>
        <time>2025-11-05T15:33:43.446Z</time>
      </trkpt>
      <trkpt lat="44.09703" lon="0.48136">
        <ele>119</ele>
        <time>2025-11-05T15:33:44.446Z</time>
      </trkpt>
      <trkpt lat="44.09702" lon="0.48135">
        <ele>119</ele>
        <time>2025-11-05T15:33:45.446Z</time>
      </trkpt>
      <trkpt lat="44.09702" lon="0.48135">
        <ele>119</ele>
        <time>2025-11-05T15:33:46.446Z</time>
      </trkpt>
      <trkpt lat="44.09701" lon="0.48135">
        <ele>119</ele>
        <time>2025-11-05T15:33:47.446Z</time>
      </trkpt>
      <trkpt lat="44.097" lon="0.48135">
        <ele>119</ele>
        <time>2025-11-05T15:33:48.446Z</time>
      </trkpt>
      <trkpt lat="44.09699" lon="0.48136">
        <ele>120</ele>
        <time>2025-11-05T15:33:49.446Z</time>
      </trkpt>
      <trkpt lat="44.09698" lon="0.48135">
        <ele>119</ele>
        <time>2025-11-05T15:33:50.446Z</time>
      </trkpt>
      <trkpt lat="44.09697" lon="0.48135">
        <ele>119</ele>
        <time>2025-11-05T15:33:51.446Z</time>
      </trkpt>
      <trkpt lat="44.09696" lon="0.48134">
        <ele>119</ele>
        <time>2025-11-05T15:33:52.446Z</time>
      </trkpt>
      <trkpt lat="44.09696" lon="0.48134">
        <ele>120</ele>
        <time>2025-11-05T15:33:53.446Z</time>
      </trkpt>
      <trkpt lat="44.09696" lon="0.48134">
        <ele>120</ele>
        <time>2025-11-05T15:33:54.446Z</time>
      </trkpt>
      <trkpt lat="44.09695" lon="0.48134">
        <ele>120</ele>
        <time>2025-11-05T15:33:55.446Z</time>
      </trkpt>
      <trkpt lat="44.09694" lon="0.48134">
        <ele>120</ele>
        <time>2025-11-05T15:33:56.446Z</time>
      </trkpt>
      <trkpt lat="44.09693" lon="0.48134">
        <ele>120</ele>
        <time>2025-11-05T15:33:57.446Z</time>
      </trkpt>
      <trkpt lat="44.09691" lon="0.48135">
        <ele>120</ele>
        <time>2025-11-05T15:33:58.446Z</time>
      </trkpt>
      <trkpt lat="44.0969" lon="0.48135">
        <ele>120</ele>
        <time>2025-11-05T15:33:59.446Z</time>
      </trkpt>
      <trkpt lat="44.09689" lon="0.48135">
        <ele>120</ele>
        <time>2025-11-05T15:34:00.446Z</time>
      </trkpt>
      <trkpt lat="44.09687" lon="0.48134">
        <ele>120</ele>
        <time>2025-11-05T15:34:01.446Z</time>
      </trkpt>
      <trkpt lat="44.09687" lon="0.48134">
        <ele>120</ele>
        <time>2025-11-05T15:34:02.446Z</time>
      </trkpt>
      <trkpt lat="44.09686" lon="0.48134">
        <ele>120</ele>
        <time>2025-11-05T15:34:03.446Z</time>
      </trkpt>
      <trkpt lat="44.09685" lon="0.48134">
        <ele>120</ele>
        <time>2025-11-05T15:34:04.446Z</time>
      </trkpt>
      <trkpt lat="44.09685" lon="0.48135">
        <ele>120</ele>
        <time>2025-11-05T15:34:05.446Z</time>
      </trkpt>
      <trkpt lat="44.09683" lon="0.48135">
        <ele>120</ele>
        <time>2025-11-05T15:34:06.447Z</time>
      </trkpt>
      <trkpt lat="44.09683" lon="0.48136">
        <ele>119</ele>
        <time>2025-11-05T15:34:07.446Z</time>
      </trkpt>
      <trkpt lat="44.09681" lon="0.48136">
        <ele>119</ele>
        <time>2025-11-05T15:34:08.446Z</time>
      </trkpt>
      <trkpt lat="44.0968" lon="0.48136">
        <ele>119</ele>
        <time>2025-11-05T15:34:09.446Z</time>
      </trkpt>
      <trkpt lat="44.09679" lon="0.48135">
        <ele>119</ele>
        <time>2025-11-05T15:34:10.446Z</time>
      </trkpt>
      <trkpt lat="44.09677" lon="0.48135">
        <ele>119</ele>
        <time>2025-11-05T15:34:11.446Z</time>
      </trkpt>
      <trkpt lat="44.09676" lon="0.48134">
        <ele>118</ele>
        <time>2025-11-05T15:34:12.446Z</time>
      </trkpt>
      <trkpt lat="44.09675" lon="0.48134">
        <ele>118</ele>
        <time>2025-11-05T15:34:13.446Z</time>
      </trkpt>
      <trkpt lat="44.09674" lon="0.48133">
        <ele>119</ele>
        <time>2025-11-05T15:34:14.446Z</time>
      </trkpt>
      <trkpt lat="44.09673" lon="0.48132">
        <ele>119</ele>
        <time>2025-11-05T15:34:15.446Z</time>
      </trkpt>
      <trkpt lat="44.09673" lon="0.48132">
        <ele>119</ele>
        <time>2025-11-05T15:34:16.446Z</time>
      </trkpt>
      <trkpt lat="44.09672" lon="0.48131">
        <ele>119</ele>
        <time>2025-11-05T15:34:17.446Z</time>
      </trkpt>
      <trkpt lat="44.09671" lon="0.4813">
        <ele>119</ele>
        <time>2025-11-05T15:34:18.446Z</time>
      </trkpt>
      <trkpt lat="44.0967" lon="0.4813">
        <ele>120</ele>
        <time>2025-11-05T15:34:19.446Z</time>
      </trkpt>
      <trkpt lat="44.09669" lon="0.48129">
        <ele>120</ele>
        <time>2025-11-05T15:34:20.446Z</time>
      </trkpt>
      <trkpt lat="44.09668" lon="0.48128">
        <ele>120</ele>
        <time>2025-11-05T15:34:21.446Z</time>
      </trkpt>
      <trkpt lat="44.09667" lon="0.48127">
        <ele>120</ele>
        <time>2025-11-05T15:34:22.446Z</time>
      </trkpt>
      <trkpt lat="44.09667" lon="0.48126">
        <ele>121</ele>
        <time>2025-11-05T15:34:23.446Z</time>
      </trkpt>
      <trkpt lat="44.09666" lon="0.48125">
        <ele>121</ele>
        <time>2025-11-05T15:34:24.446Z</time>
      </trkpt>
      <trkpt lat="44.09665" lon="0.48124">
        <ele>121</ele>
        <time>2025-11-05T15:34:25.446Z</time>
      </trkpt>
      <trkpt lat="44.09665" lon="0.48123">
        <ele>121</ele>
        <time>2025-11-05T15:34:26.446Z</time>
      </trkpt>
      <trkpt lat="44.09664" lon="0.48121">
        <ele>122</ele>
        <time>2025-11-05T15:34:27.446Z</time>
      </trkpt>
      <trkpt lat="44.09663" lon="0.48119">
        <ele>122</ele>
        <time>2025-11-05T15:34:28.446Z</time>
      </trkpt>
      <trkpt lat="44.09662" lon="0.48118">
        <ele>122</ele>
        <time>2025-11-05T15:34:29.446Z</time>
      </trkpt>
      <trkpt lat="44.09661" lon="0.48116">
        <ele>122</ele>
        <time>2025-11-05T15:34:30.446Z</time>
      </trkpt>
      <trkpt lat="44.09661" lon="0.48114">
        <ele>122</ele>
        <time>2025-11-05T15:34:31.446Z</time>
      </trkpt>
      <trkpt lat="44.0966" lon="0.48113">
        <ele>121</ele>
        <time>2025-11-05T15:34:32.446Z</time>
      </trkpt>
      <trkpt lat="44.0966" lon="0.48112">
        <ele>121</ele>
        <time>2025-11-05T15:34:33.446Z</time>
      </trkpt>
      <trkpt lat="44.0966" lon="0.48111">
        <ele>121</ele>
        <time>2025-11-05T15:34:34.446Z</time>
      </trkpt>
      <trkpt lat="44.0966" lon="0.48109">
        <ele>120</ele>
        <time>2025-11-05T15:34:35.446Z</time>
      </trkpt>
      <trkpt lat="44.0966" lon="0.48108">
        <ele>120</ele>
        <time>2025-11-05T15:34:36.446Z</time>
      </trkpt>
      <trkpt lat="44.0966" lon="0.48107">
        <ele>120</ele>
        <time>2025-11-05T15:34:37.446Z</time>
      </trkpt>
      <trkpt lat="44.09659" lon="0.48105">
        <ele>120</ele>
        <time>2025-11-05T15:34:38.446Z</time>
      </trkpt>
      <trkpt lat="44.09658" lon="0.48103">
        <ele>120</ele>
        <time>2025-11-05T15:34:39.446Z</time>
      </trkpt>
      <trkpt lat="44.09658" lon="0.48102">
        <ele>120</ele>
        <time>2025-11-05T15:34:40.446Z</time>
      </trkpt>
      <trkpt lat="44.09658" lon="0.481">
        <ele>119</ele>
        <time>2025-11-05T15:34:41.446Z</time>
      </trkpt>
      <trkpt lat="44.09658" lon="0.48099">
        <ele>119</ele>
        <time>2025-11-05T15:34:42.446Z</time>
      </trkpt>
      <trkpt lat="44.09658" lon="0.48098">
        <ele>118</ele>
        <time>2025-11-05T15:34:43.446Z</time>
      </trkpt>
      <trkpt lat="44.09658" lon="0.48096">
        <ele>118</ele>
        <time>2025-11-05T15:34:44.446Z</time>
      </trkpt>
      <trkpt lat="44.09658" lon="0.48095">
        <ele>117</ele>
        <time>2025-11-05T15:34:45.446Z</time>
      </trkpt>
      <trkpt lat="44.09658" lon="0.48094">
        <ele>117</ele>
        <time>2025-11-05T15:34:46.446Z</time>
      </trkpt>
      <trkpt lat="44.09658" lon="0.48093">
        <ele>117</ele>
        <time>2025-11-05T15:34:47.446Z</time>
      </trkpt>
      <trkpt lat="44.09658" lon="0.48092">
        <ele>116</ele>
        <time>2025-11-05T15:34:48.446Z</time>
      </trkpt>
      <trkpt lat="44.09658" lon="0.48091">
        <ele>115</ele>
        <time>2025-11-05T15:34:49.446Z</time>
      </trkpt>
      <trkpt lat="44.09658" lon="0.48091">
        <ele>115</ele>
        <time>2025-11-05T15:34:50.446Z</time>
      </trkpt>
      <trkpt lat="44.09658" lon="0.4809">
        <ele>114</ele>
        <time>2025-11-05T15:34:51.446Z</time>
      </trkpt>
      <trkpt lat="44.09659" lon="0.4809">
        <ele>114</ele>
        <time>2025-11-05T15:34:52.446Z</time>
      </trkpt>
      <trkpt lat="44.09659" lon="0.4809">
        <ele>114</ele>
        <time>2025-11-05T15:34:53.446Z</time>
      </trkpt>
      <trkpt lat="44.09658" lon="0.48089">
        <ele>113</ele>
        <time>2025-11-05T15:34:54.446Z</time>
      </trkpt>
      <trkpt lat="44.09658" lon="0.48089">
        <ele>113</ele>
        <time>2025-11-05T15:34:55.446Z</time>
      </trkpt>
      <trkpt lat="44.09658" lon="0.48088">
        <ele>113</ele>
        <time>2025-11-05T15:34:56.446Z</time>
      </trkpt>
      <trkpt lat="44.09658" lon="0.48088">
        <ele>112</ele>
        <time>2025-11-05T15:34:57.446Z</time>
      </trkpt>
      <trkpt lat="44.09657" lon="0.48087">
        <ele>112</ele>
        <time>2025-11-05T15:34:58.446Z</time>
      </trkpt>
      <trkpt lat="44.09657" lon="0.48086">
        <ele>112</ele>
        <time>2025-11-05T15:34:59.446Z</time>
      </trkpt>
      <trkpt lat="44.09657" lon="0.48086">
        <ele>112</ele>
        <time>2025-11-05T15:35:00.446Z</time>
      </trkpt>
      <trkpt lat="44.09657" lon="0.48085">
        <ele>112</ele>
        <time>2025-11-05T15:35:01.446Z</time>
      </trkpt>
      <trkpt lat="44.09657" lon="0.48085">
        <ele>112</ele>
        <time>2025-11-05T15:35:02.446Z</time>
      </trkpt>
      <trkpt lat="44.09657" lon="0.48084">
        <ele>112</ele>
        <time>2025-11-05T15:35:03.446Z</time>
      </trkpt>
      <trkpt lat="44.09657" lon="0.48083">
        <ele>112</ele>
        <time>2025-11-05T15:35:04.446Z</time>
      </trkpt>
      <trkpt lat="44.09657" lon="0.48081">
        <ele>112</ele>
        <time>2025-11-05T15:35:05.446Z</time>
      </trkpt>
      <trkpt lat="44.09657" lon="0.4808">
        <ele>112</ele>
        <time>2025-11-05T15:35:06.446Z</time>
      </trkpt>
      <trkpt lat="44.09657" lon="0.48078">
        <ele>112</ele>
        <time>2025-11-05T15:35:07.446Z</time>
      </trkpt>
      <trkpt lat="44.09657" lon="0.48077">
        <ele>112</ele>
        <time>2025-11-05T15:35:08.446Z</time>
      </trkpt>
      <trkpt lat="44.09657" lon="0.48075">
        <ele>112</ele>
        <time>2025-11-05T15:35:09.446Z</time>
      </trkpt>
      <trkpt lat="44.09657" lon="0.48074">
        <ele>111</ele>
        <time>2025-11-05T15:35:10.446Z</time>
      </trkpt>
      <trkpt lat="44.09657" lon="0.48073">
        <ele>111</ele>
        <time>2025-11-05T15:35:11.446Z</time>
      </trkpt>
      <trkpt lat="44.09656" lon="0.48072">
        <ele>111</ele>
        <time>2025-11-05T15:35:12.446Z</time>
      </trkpt>
      <trkpt lat="44.09656" lon="0.4807">
        <ele>111</ele>
        <time>2025-11-05T15:35:13.446Z</time>
      </trkpt>
      <trkpt lat="44.09656" lon="0.48069">
        <ele>111</ele>
        <time>2025-11-05T15:35:14.446Z</time>
      </trkpt>
      <trkpt lat="44.09656" lon="0.48067">
        <ele>111</ele>
        <time>2025-11-05T15:35:15.446Z</time>
      </trkpt>
      <trkpt lat="44.09656" lon="0.48065">
        <ele>111</ele>
        <time>2025-11-05T15:35:16.446Z</time>
      </trkpt>
      <trkpt lat="44.09656" lon="0.48063">
        <ele>111</ele>
        <time>2025-11-05T15:35:17.446Z</time>
      </trkpt>
      <trkpt lat="44.09655" lon="0.48061">
        <ele>111</ele>
        <time>2025-11-05T15:35:18.446Z</time>
      </trkpt>
      <trkpt lat="44.09655" lon="0.4806">
        <ele>111</ele>
        <time>2025-11-05T15:35:19.446Z</time>
      </trkpt>
      <trkpt lat="44.09655" lon="0.48058">
        <ele>111</ele>
        <time>2025-11-05T15:35:20.446Z</time>
      </trkpt>
      <trkpt lat="44.09655" lon="0.48057">
        <ele>111</ele>
        <time>2025-11-05T15:35:21.446Z</time>
      </trkpt>
      <trkpt lat="44.09655" lon="0.48056">
        <ele>110</ele>
        <time>2025-11-05T15:35:22.446Z</time>
      </trkpt>
      <trkpt lat="44.09655" lon="0.48054">
        <ele>110</ele>
        <time>2025-11-05T15:35:23.446Z</time>
      </trkpt>
      <trkpt lat="44.09655" lon="0.48053">
        <ele>110</ele>
        <time>2025-11-05T15:35:24.446Z</time>
      </trkpt>
      <trkpt lat="44.09655" lon="0.48051">
        <ele>109</ele>
        <time>2025-11-05T15:35:25.446Z</time>
      </trkpt>
      <trkpt lat="44.09655" lon="0.48049">
        <ele>109</ele>
        <time>2025-11-05T15:35:26.446Z</time>
      </trkpt>
      <trkpt lat="44.09655" lon="0.48047">
        <ele>109</ele>
        <time>2025-11-05T15:35:27.446Z</time>
      </trkpt>
      <trkpt lat="44.09655" lon="0.48045">
        <ele>108</ele>
        <time>2025-11-05T15:35:28.446Z</time>
      </trkpt>
      <trkpt lat="44.09654" lon="0.48043">
        <ele>108</ele>
        <time>2025-11-05T15:35:29.446Z</time>
      </trkpt>
      <trkpt lat="44.09654" lon="0.48042">
        <ele>108</ele>
        <time>2025-11-05T15:35:30.446Z</time>
      </trkpt>
      <trkpt lat="44.09654" lon="0.48041">
        <ele>108</ele>
        <time>2025-11-05T15:35:31.446Z</time>
      </trkpt>
      <trkpt lat="44.09655" lon="0.4804">
        <ele>108</ele>
        <time>2025-11-05T15:35:32.446Z</time>
      </trkpt>
      <trkpt lat="44.09655" lon="0.48038">
        <ele>108</ele>
        <time>2025-11-05T15:35:33.446Z</time>
      </trkpt>
      <trkpt lat="44.09655" lon="0.48036">
        <ele>108</ele>
        <time>2025-11-05T15:35:34.446Z</time>
      </trkpt>
      <trkpt lat="44.09655" lon="0.48035">
        <ele>108</ele>
        <time>2025-11-05T15:35:35.446Z</time>
      </trkpt>
      <trkpt lat="44.09654" lon="0.48033">
        <ele>108</ele>
        <time>2025-11-05T15:35:36.446Z</time>
      </trkpt>
      <trkpt lat="44.09654" lon="0.48032">
        <ele>107</ele>
        <time>2025-11-05T15:35:37.446Z</time>
      </trkpt>
      <trkpt lat="44.09654" lon="0.4803">
        <ele>107</ele>
        <time>2025-11-05T15:35:38.446Z</time>
      </trkpt>
      <trkpt lat="44.09654" lon="0.48028">
        <ele>106</ele>
        <time>2025-11-05T15:35:39.446Z</time>
      </trkpt>
      <trkpt lat="44.09654" lon="0.48026">
        <ele>106</ele>
        <time>2025-11-05T15:35:40.446Z</time>
      </trkpt>
      <trkpt lat="44.09654" lon="0.48024">
        <ele>105</ele>
        <time>2025-11-05T15:35:41.446Z</time>
      </trkpt>
      <trkpt lat="44.09654" lon="0.48022">
        <ele>105</ele>
        <time>2025-11-05T15:35:42.446Z</time>
      </trkpt>
      <trkpt lat="44.09654" lon="0.48021">
        <ele>105</ele>
        <time>2025-11-05T15:35:43.446Z</time>
      </trkpt>
      <trkpt lat="44.09654" lon="0.48019">
        <ele>105</ele>
        <time>2025-11-05T15:35:44.446Z</time>
      </trkpt>
      <trkpt lat="44.09654" lon="0.48017">
        <ele>105</ele>
        <time>2025-11-05T15:35:45.446Z</time>
      </trkpt>
      <trkpt lat="44.09654" lon="0.48015">
        <ele>105</ele>
        <time>2025-11-05T15:35:46.446Z</time>
      </trkpt>
      <trkpt lat="44.09654" lon="0.48013">
        <ele>104</ele>
        <time>2025-11-05T15:35:47.446Z</time>
      </trkpt>
      <trkpt lat="44.09654" lon="0.48012">
        <ele>104</ele>
        <time>2025-11-05T15:35:48.446Z</time>
      </trkpt>
      <trkpt lat="44.09654" lon="0.4801">
        <ele>104</ele>
        <time>2025-11-05T15:35:49.446Z</time>
      </trkpt>
      <trkpt lat="44.09654" lon="0.48009">
        <ele>103</ele>
        <time>2025-11-05T15:35:50.446Z</time>
      </trkpt>
      <trkpt lat="44.09654" lon="0.48008">
        <ele>103</ele>
        <time>2025-11-05T15:35:51.446Z</time>
      </trkpt>
      <trkpt lat="44.09654" lon="0.48006">
        <ele>103</ele>
        <time>2025-11-05T15:35:52.446Z</time>
      </trkpt>
      <trkpt lat="44.09654" lon="0.48004">
        <ele>103</ele>
        <time>2025-11-05T15:35:53.446Z</time>
      </trkpt>
      <trkpt lat="44.09653" lon="0.48002">
        <ele>103</ele>
        <time>2025-11-05T15:35:54.446Z</time>
      </trkpt>
      <trkpt lat="44.09653" lon="0.48">
        <ele>103</ele>
        <time>2025-11-05T15:35:55.446Z</time>
      </trkpt>
      <trkpt lat="44.09653" lon="0.47999">
        <ele>103</ele>
        <time>2025-11-05T15:35:56.446Z</time>
      </trkpt>
      <trkpt lat="44.09653" lon="0.47997">
        <ele>102</ele>
        <time>2025-11-05T15:35:57.446Z</time>
      </trkpt>
      <trkpt lat="44.09653" lon="0.47995">
        <ele>102</ele>
        <time>2025-11-05T15:35:58.446Z</time>
      </trkpt>
      <trkpt lat="44.09653" lon="0.47994">
        <ele>102</ele>
        <time>2025-11-05T15:35:59.446Z</time>
      </trkpt>
      <trkpt lat="44.09653" lon="0.47992">
        <ele>102</ele>
        <time>2025-11-05T15:36:00.446Z</time>
      </trkpt>
      <trkpt lat="44.09652" lon="0.47991">
        <ele>102</ele>
        <time>2025-11-05T15:36:01.446Z</time>
      </trkpt>
      <trkpt lat="44.09652" lon="0.47989">
        <ele>101</ele>
        <time>2025-11-05T15:36:02.446Z</time>
      </trkpt>
      <trkpt lat="44.09652" lon="0.47988">
        <ele>101</ele>
        <time>2025-11-05T15:36:03.446Z</time>
      </trkpt>
      <trkpt lat="44.09652" lon="0.47986">
        <ele>101</ele>
        <time>2025-11-05T15:36:04.446Z</time>
      </trkpt>
      <trkpt lat="44.09652" lon="0.47985">
        <ele>101</ele>
        <time>2025-11-05T15:36:05.446Z</time>
      </trkpt>
      <trkpt lat="44.09653" lon="0.47983">
        <ele>101</ele>
        <time>2025-11-05T15:36:06.446Z</time>
      </trkpt>
      <trkpt lat="44.09653" lon="0.47982">
        <ele>101</ele>
        <time>2025-11-05T15:36:07.446Z</time>
      </trkpt>
      <trkpt lat="44.09653" lon="0.4798">
        <ele>101</ele>
        <time>2025-11-05T15:36:08.446Z</time>
      </trkpt>
      <trkpt lat="44.09653" lon="0.47979">
        <ele>100</ele>
        <time>2025-11-05T15:36:09.446Z</time>
      </trkpt>
      <trkpt lat="44.09653" lon="0.47978">
        <ele>100</ele>
        <time>2025-11-05T15:36:10.446Z</time>
      </trkpt>
      <trkpt lat="44.09653" lon="0.47976">
        <ele>100</ele>
        <time>2025-11-05T15:36:11.446Z</time>
      </trkpt>
      <trkpt lat="44.09653" lon="0.47975">
        <ele>100</ele>
        <time>2025-11-05T15:36:12.446Z</time>
      </trkpt>
      <trkpt lat="44.09653" lon="0.47973">
        <ele>100</ele>
        <time>2025-11-05T15:36:13.446Z</time>
      </trkpt>
      <trkpt lat="44.09653" lon="0.47972">
        <ele>99</ele>
        <time>2025-11-05T15:36:14.446Z</time>
      </trkpt>
      <trkpt lat="44.09653" lon="0.4797">
        <ele>99</ele>
        <time>2025-11-05T15:36:15.446Z</time>
      </trkpt>
      <trkpt lat="44.09653" lon="0.47969">
        <ele>99</ele>
        <time>2025-11-05T15:36:16.446Z</time>
      </trkpt>
      <trkpt lat="44.09653" lon="0.47967">
        <ele>100</ele>
        <time>2025-11-05T15:36:17.446Z</time>
      </trkpt>
      <trkpt lat="44.09653" lon="0.47966">
        <ele>100</ele>
        <time>2025-11-05T15:36:18.446Z</time>
      </trkpt>
      <trkpt lat="44.09653" lon="0.47964">
        <ele>100</ele>
        <time>2025-11-05T15:36:19.446Z</time>
      </trkpt>
      <trkpt lat="44.09653" lon="0.47962">
        <ele>100</ele>
        <time>2025-11-05T15:36:20.446Z</time>
      </trkpt>
      <trkpt lat="44.09653" lon="0.4796">
        <ele>100</ele>
        <time>2025-11-05T15:36:21.446Z</time>
      </trkpt>
      <trkpt lat="44.09652" lon="0.47958">
        <ele>100</ele>
        <time>2025-11-05T15:36:22.446Z</time>
      </trkpt>
      <trkpt lat="44.09652" lon="0.47956">
        <ele>99</ele>
        <time>2025-11-05T15:36:23.446Z</time>
      </trkpt>
      <trkpt lat="44.09652" lon="0.47955">
        <ele>99</ele>
        <time>2025-11-05T15:36:24.446Z</time>
      </trkpt>
      <trkpt lat="44.09652" lon="0.47953">
        <ele>99</ele>
        <time>2025-11-05T15:36:25.446Z</time>
      </trkpt>
      <trkpt lat="44.09652" lon="0.47951">
        <ele>99</ele>
        <time>2025-11-05T15:36:26.446Z</time>
      </trkpt>
      <trkpt lat="44.09652" lon="0.4795">
        <ele>99</ele>
        <time>2025-11-05T15:36:27.446Z</time>
      </trkpt>
      <trkpt lat="44.09652" lon="0.47948">
        <ele>99</ele>
        <time>2025-11-05T15:36:28.446Z</time>
      </trkpt>
      <trkpt lat="44.09652" lon="0.47947">
        <ele>98</ele>
        <time>2025-11-05T15:36:29.446Z</time>
      </trkpt>
      <trkpt lat="44.09652" lon="0.47945">
        <ele>98</ele>
        <time>2025-11-05T15:36:30.446Z</time>
      </trkpt>
      <trkpt lat="44.09652" lon="0.47944">
        <ele>98</ele>
        <time>2025-11-05T15:36:31.446Z</time>
      </trkpt>
      <trkpt lat="44.09653" lon="0.47942">
        <ele>98</ele>
        <time>2025-11-05T15:36:32.446Z</time>
      </trkpt>
      <trkpt lat="44.09653" lon="0.4794">
        <ele>97</ele>
        <time>2025-11-05T15:36:33.446Z</time>
      </trkpt>
      <trkpt lat="44.09652" lon="0.47938">
        <ele>97</ele>
        <time>2025-11-05T15:36:34.446Z</time>
      </trkpt>
      <trkpt lat="44.09652" lon="0.47936">
        <ele>97</ele>
        <time>2025-11-05T15:36:35.446Z</time>
      </trkpt>
      <trkpt lat="44.09652" lon="0.47935">
        <ele>97</ele>
        <time>2025-11-05T15:36:36.446Z</time>
      </trkpt>
      <trkpt lat="44.09652" lon="0.47933">
        <ele>98</ele>
        <time>2025-11-05T15:36:37.446Z</time>
      </trkpt>
      <trkpt lat="44.09652" lon="0.47931">
        <ele>98</ele>
        <time>2025-11-05T15:36:38.446Z</time>
      </trkpt>
      <trkpt lat="44.09652" lon="0.4793">
        <ele>98</ele>
        <time>2025-11-05T15:36:39.446Z</time>
      </trkpt>
      <trkpt lat="44.09652" lon="0.47928">
        <ele>97</ele>
        <time>2025-11-05T15:36:40.446Z</time>
      </trkpt>
      <trkpt lat="44.09653" lon="0.47927">
        <ele>97</ele>
        <time>2025-11-05T15:36:41.446Z</time>
      </trkpt>
      <trkpt lat="44.09653" lon="0.47925">
        <ele>97</ele>
        <time>2025-11-05T15:36:42.446Z</time>
      </trkpt>
      <trkpt lat="44.09653" lon="0.47923">
        <ele>97</ele>
        <time>2025-11-05T15:36:43.446Z</time>
      </trkpt>
      <trkpt lat="44.09653" lon="0.47922">
        <ele>96</ele>
        <time>2025-11-05T15:36:44.446Z</time>
      </trkpt>
      <trkpt lat="44.09653" lon="0.4792">
        <ele>96</ele>
        <time>2025-11-05T15:36:45.446Z</time>
      </trkpt>
      <trkpt lat="44.09652" lon="0.47918">
        <ele>95</ele>
        <time>2025-11-05T15:36:46.446Z</time>
      </trkpt>
      <trkpt lat="44.09652" lon="0.47916">
        <ele>95</ele>
        <time>2025-11-05T15:36:47.446Z</time>
      </trkpt>
      <trkpt lat="44.09652" lon="0.47914">
        <ele>95</ele>
        <time>2025-11-05T15:36:48.446Z</time>
      </trkpt>
      <trkpt lat="44.09652" lon="0.47913">
        <ele>95</ele>
        <time>2025-11-05T15:36:49.446Z</time>
      </trkpt>
      <trkpt lat="44.09652" lon="0.47911">
        <ele>94</ele>
        <time>2025-11-05T15:36:50.446Z</time>
      </trkpt>
      <trkpt lat="44.09652" lon="0.47909">
        <ele>94</ele>
        <time>2025-11-05T15:36:51.446Z</time>
      </trkpt>
      <trkpt lat="44.09652" lon="0.47907">
        <ele>94</ele>
        <time>2025-11-05T15:36:52.446Z</time>
      </trkpt>
      <trkpt lat="44.09652" lon="0.47906">
        <ele>93</ele>
        <time>2025-11-05T15:36:53.446Z</time>
      </trkpt>
      <trkpt lat="44.09652" lon="0.47904">
        <ele>93</ele>
        <time>2025-11-05T15:36:54.446Z</time>
      </trkpt>
      <trkpt lat="44.09652" lon="0.47903">
        <ele>93</ele>
        <time>2025-11-05T15:36:55.446Z</time>
      </trkpt>
      <trkpt lat="44.09652" lon="0.47901">
        <ele>92</ele>
        <time>2025-11-05T15:36:56.446Z</time>
      </trkpt>
      <trkpt lat="44.09652" lon="0.47899">
        <ele>92</ele>
        <time>2025-11-05T15:36:57.446Z</time>
      </trkpt>
      <trkpt lat="44.09651" lon="0.47897">
        <ele>92</ele>
        <time>2025-11-05T15:36:58.446Z</time>
      </trkpt>
      <trkpt lat="44.09651" lon="0.47895">
        <ele>92</ele>
        <time>2025-11-05T15:36:59.446Z</time>
      </trkpt>
      <trkpt lat="44.09651" lon="0.47894">
        <ele>92</ele>
        <time>2025-11-05T15:37:00.446Z</time>
      </trkpt>
      <trkpt lat="44.09651" lon="0.47892">
        <ele>91</ele>
        <time>2025-11-05T15:37:01.446Z</time>
      </trkpt>
      <trkpt lat="44.0965" lon="0.4789">
        <ele>91</ele>
        <time>2025-11-05T15:37:02.446Z</time>
      </trkpt>
      <trkpt lat="44.0965" lon="0.47889">
        <ele>91</ele>
        <time>2025-11-05T15:37:03.446Z</time>
      </trkpt>
      <trkpt lat="44.0965" lon="0.47887">
        <ele>91</ele>
        <time>2025-11-05T15:37:04.446Z</time>
      </trkpt>
      <trkpt lat="44.0965" lon="0.47886">
        <ele>91</ele>
        <time>2025-11-05T15:37:05.446Z</time>
      </trkpt>
      <trkpt lat="44.0965" lon="0.47884">
        <ele>91</ele>
        <time>2025-11-05T15:37:06.446Z</time>
      </trkpt>
      <trkpt lat="44.0965" lon="0.47883">
        <ele>91</ele>
        <time>2025-11-05T15:37:07.446Z</time>
      </trkpt>
      <trkpt lat="44.0965" lon="0.47881">
        <ele>91</ele>
        <time>2025-11-05T15:37:08.446Z</time>
      </trkpt>
      <trkpt lat="44.0965" lon="0.4788">
        <ele>91</ele>
        <time>2025-11-05T15:37:09.446Z</time>
      </trkpt>
      <trkpt lat="44.0965" lon="0.47878">
        <ele>91</ele>
        <time>2025-11-05T15:37:10.446Z</time>
      </trkpt>
      <trkpt lat="44.09649" lon="0.47876">
        <ele>91</ele>
        <time>2025-11-05T15:37:11.446Z</time>
      </trkpt>
      <trkpt lat="44.09649" lon="0.47874">
        <ele>91</ele>
        <time>2025-11-05T15:37:12.446Z</time>
      </trkpt>
      <trkpt lat="44.09649" lon="0.47872">
        <ele>91</ele>
        <time>2025-11-05T15:37:13.446Z</time>
      </trkpt>
      <trkpt lat="44.09649" lon="0.4787">
        <ele>91</ele>
        <time>2025-11-05T15:37:14.446Z</time>
      </trkpt>
      <trkpt lat="44.09649" lon="0.47869">
        <ele>91</ele>
        <time>2025-11-05T15:37:15.446Z</time>
      </trkpt>
      <trkpt lat="44.09649" lon="0.47867">
        <ele>91</ele>
        <time>2025-11-05T15:37:16.446Z</time>
      </trkpt>
      <trkpt lat="44.09649" lon="0.47865">
        <ele>91</ele>
        <time>2025-11-05T15:37:17.447Z</time>
      </trkpt>
      <trkpt lat="44.09648" lon="0.47864">
        <ele>91</ele>
        <time>2025-11-05T15:37:18.446Z</time>
      </trkpt>
      <trkpt lat="44.09648" lon="0.47862">
        <ele>91</ele>
        <time>2025-11-05T15:37:19.446Z</time>
      </trkpt>
      <trkpt lat="44.09647" lon="0.47861">
        <ele>91</ele>
        <time>2025-11-05T15:37:20.446Z</time>
      </trkpt>
      <trkpt lat="44.09647" lon="0.47859">
        <ele>92</ele>
        <time>2025-11-05T15:37:21.446Z</time>
      </trkpt>
      <trkpt lat="44.09648" lon="0.47858">
        <ele>91</ele>
        <time>2025-11-05T15:37:22.446Z</time>
      </trkpt>
      <trkpt lat="44.09648" lon="0.47856">
        <ele>91</ele>
        <time>2025-11-05T15:37:23.446Z</time>
      </trkpt>
      <trkpt lat="44.09647" lon="0.47854">
        <ele>91</ele>
        <time>2025-11-05T15:37:24.446Z</time>
      </trkpt>
      <trkpt lat="44.09647" lon="0.47853">
        <ele>91</ele>
        <time>2025-11-05T15:37:25.446Z</time>
      </trkpt>
      <trkpt lat="44.09647" lon="0.47851">
        <ele>91</ele>
        <time>2025-11-05T15:37:26.446Z</time>
      </trkpt>
      <trkpt lat="44.09647" lon="0.47849">
        <ele>91</ele>
        <time>2025-11-05T15:37:27.446Z</time>
      </trkpt>
      <trkpt lat="44.09647" lon="0.47848">
        <ele>91</ele>
        <time>2025-11-05T15:37:28.446Z</time>
      </trkpt>
      <trkpt lat="44.09647" lon="0.47846">
        <ele>91</ele>
        <time>2025-11-05T15:37:29.446Z</time>
      </trkpt>
      <trkpt lat="44.09647" lon="0.47845">
        <ele>90</ele>
        <time>2025-11-05T15:37:30.446Z</time>
      </trkpt>
      <trkpt lat="44.09647" lon="0.47843">
        <ele>90</ele>
        <time>2025-11-05T15:37:31.446Z</time>
      </trkpt>
      <trkpt lat="44.09646" lon="0.47842">
        <ele>90</ele>
        <time>2025-11-05T15:37:32.446Z</time>
      </trkpt>
      <trkpt lat="44.09646" lon="0.4784">
        <ele>90</ele>
        <time>2025-11-05T15:37:33.446Z</time>
      </trkpt>
      <trkpt lat="44.09646" lon="0.47838">
        <ele>90</ele>
        <time>2025-11-05T15:37:34.446Z</time>
      </trkpt>
      <trkpt lat="44.09646" lon="0.47837">
        <ele>90</ele>
        <time>2025-11-05T15:37:35.446Z</time>
      </trkpt>
      <trkpt lat="44.09646" lon="0.47836">
        <ele>89</ele>
        <time>2025-11-05T15:37:36.446Z</time>
      </trkpt>
      <trkpt lat="44.09646" lon="0.47835">
        <ele>89</ele>
        <time>2025-11-05T15:37:37.446Z</time>
      </trkpt>
      <trkpt lat="44.09646" lon="0.47834">
        <ele>89</ele>
        <time>2025-11-05T15:37:38.446Z</time>
      </trkpt>
      <trkpt lat="44.09647" lon="0.47833">
        <ele>88</ele>
        <time>2025-11-05T15:37:39.446Z</time>
      </trkpt>
      <trkpt lat="44.09646" lon="0.47832">
        <ele>88</ele>
        <time>2025-11-05T15:37:40.446Z</time>
      </trkpt>
      <trkpt lat="44.09647" lon="0.47831">
        <ele>88</ele>
        <time>2025-11-05T15:37:41.446Z</time>
      </trkpt>
      <trkpt lat="44.09647" lon="0.4783">
        <ele>88</ele>
        <time>2025-11-05T15:37:42.446Z</time>
      </trkpt>
      <trkpt lat="44.09646" lon="0.47829">
        <ele>88</ele>
        <time>2025-11-05T15:37:43.446Z</time>
      </trkpt>
      <trkpt lat="44.09646" lon="0.47828">
        <ele>88</ele>
        <time>2025-11-05T15:37:44.446Z</time>
      </trkpt>
      <trkpt lat="44.09645" lon="0.47827">
        <ele>88</ele>
        <time>2025-11-05T15:37:45.446Z</time>
      </trkpt>
      <trkpt lat="44.09645" lon="0.47825">
        <ele>88</ele>
        <time>2025-11-05T15:37:46.446Z</time>
      </trkpt>
      <trkpt lat="44.09645" lon="0.47824">
        <ele>88</ele>
        <time>2025-11-05T15:37:47.446Z</time>
      </trkpt>
      <trkpt lat="44.09644" lon="0.47823">
        <ele>88</ele>
        <time>2025-11-05T15:37:48.446Z</time>
      </trkpt>
      <trkpt lat="44.09644" lon="0.47821">
        <ele>87</ele>
        <time>2025-11-05T15:37:49.446Z</time>
      </trkpt>
      <trkpt lat="44.09644" lon="0.4782">
        <ele>87</ele>
        <time>2025-11-05T15:37:50.446Z</time>
      </trkpt>
      <trkpt lat="44.09644" lon="0.47819">
        <ele>87</ele>
        <time>2025-11-05T15:37:51.446Z</time>
      </trkpt>
      <trkpt lat="44.09644" lon="0.47818">
        <ele>87</ele>
        <time>2025-11-05T15:37:52.446Z</time>
      </trkpt>
      <trkpt lat="44.09644" lon="0.47817">
        <ele>87</ele>
        <time>2025-11-05T15:37:53.446Z</time>
      </trkpt>
      <trkpt lat="44.09644" lon="0.47816">
        <ele>87</ele>
        <time>2025-11-05T15:37:54.446Z</time>
      </trkpt>
      <trkpt lat="44.09643" lon="0.47814">
        <ele>87</ele>
        <time>2025-11-05T15:37:55.446Z</time>
      </trkpt>
      <trkpt lat="44.09643" lon="0.47813">
        <ele>87</ele>
        <time>2025-11-05T15:37:56.446Z</time>
      </trkpt>
      <trkpt lat="44.09642" lon="0.47812">
        <ele>87</ele>
        <time>2025-11-05T15:37:57.446Z</time>
      </trkpt>
      <trkpt lat="44.09641" lon="0.4781">
        <ele>86</ele>
        <time>2025-11-05T15:37:58.446Z</time>
      </trkpt>
      <trkpt lat="44.0964" lon="0.4781">
        <ele>86</ele>
        <time>2025-11-05T15:37:59.446Z</time>
      </trkpt>
      <trkpt lat="44.0964" lon="0.4781">
        <ele>86</ele>
        <time>2025-11-05T15:38:00.446Z</time>
      </trkpt>
      <trkpt lat="44.0964" lon="0.47809">
        <ele>86</ele>
        <time>2025-11-05T15:38:01.446Z</time>
      </trkpt>
      <trkpt lat="44.0964" lon="0.47809">
        <ele>85</ele>
        <time>2025-11-05T15:38:02.446Z</time>
      </trkpt>
      <trkpt lat="44.0964" lon="0.47809">
        <ele>85</ele>
        <time>2025-11-05T15:38:03.446Z</time>
      </trkpt>
      <trkpt lat="44.0964" lon="0.47809">
        <ele>85</ele>
        <time>2025-11-05T15:38:04.446Z</time>
      </trkpt>
      <trkpt lat="44.0964" lon="0.47809">
        <ele>85</ele>
        <time>2025-11-05T15:38:05.446Z</time>
      </trkpt>
      <trkpt lat="44.0964" lon="0.47809">
        <ele>85</ele>
        <time>2025-11-05T15:38:06.446Z</time>
      </trkpt>
      <trkpt lat="44.0964" lon="0.4781">
        <ele>85</ele>
        <time>2025-11-05T15:38:07.446Z</time>
      </trkpt>
      <trkpt lat="44.0964" lon="0.4781">
        <ele>86</ele>
        <time>2025-11-05T15:38:08.446Z</time>
      </trkpt>
      <trkpt lat="44.09641" lon="0.4781">
        <ele>86</ele>
        <time>2025-11-05T15:38:09.446Z</time>
      </trkpt>
      <trkpt lat="44.09641" lon="0.4781">
        <ele>86</ele>
        <time>2025-11-05T15:38:10.446Z</time>
      </trkpt>
      <trkpt lat="44.09641" lon="0.4781">
        <ele>86</ele>
        <time>2025-11-05T15:38:11.446Z</time>
      </trkpt>
      <trkpt lat="44.09641" lon="0.4781">
        <ele>86</ele>
        <time>2025-11-05T15:38:12.446Z</time>
      </trkpt>
      <trkpt lat="44.0964" lon="0.4781">
        <ele>86</ele>
        <time>2025-11-05T15:38:13.446Z</time>
      </trkpt>
      <trkpt lat="44.0964" lon="0.4781">
        <ele>85</ele>
        <time>2025-11-05T15:38:14.446Z</time>
      </trkpt>
      <trkpt lat="44.0964" lon="0.4781">
        <ele>85</ele>
        <time>2025-11-05T15:38:15.446Z</time>
      </trkpt>
      <trkpt lat="44.0964" lon="0.4781">
        <ele>85</ele>
        <time>2025-11-05T15:38:16.446Z</time>
      </trkpt>
      <trkpt lat="44.0964" lon="0.4781">
        <ele>85</ele>
        <time>2025-11-05T15:38:17.446Z</time>
      </trkpt>
      <trkpt lat="44.0964" lon="0.4781">
        <ele>85</ele>
        <time>2025-11-05T15:38:18.446Z</time>
      </trkpt>
      <trkpt lat="44.0964" lon="0.4781">
        <ele>85</ele>
        <time>2025-11-05T15:38:19.446Z</time>
      </trkpt>
      <trkpt lat="44.0964" lon="0.4781">
        <ele>85</ele>
        <time>2025-11-05T15:38:20.446Z</time>
      </trkpt>
      <trkpt lat="44.0964" lon="0.4781">
        <ele>84</ele>
        <time>2025-11-05T15:38:21.446Z</time>
      </trkpt>
      <trkpt lat="44.0964" lon="0.4781">
        <ele>84</ele>
        <time>2025-11-05T15:38:22.446Z</time>
      </trkpt>
      <trkpt lat="44.0964" lon="0.4781">
        <ele>84</ele>
        <time>2025-11-05T15:38:23.446Z</time>
      </trkpt>
      <trkpt lat="44.0964" lon="0.4781">
        <ele>84</ele>
        <time>2025-11-05T15:38:24.446Z</time>
      </trkpt>
      <trkpt lat="44.0964" lon="0.4781">
        <ele>84</ele>
        <time>2025-11-05T15:38:25.446Z</time>
      </trkpt>
      <trkpt lat="44.0964" lon="0.4781">
        <ele>84</ele>
        <time>2025-11-05T15:38:26.446Z</time>
      </trkpt>
      <trkpt lat="44.0964" lon="0.4781">
        <ele>84</ele>
        <time>2025-11-05T15:38:27.446Z</time>
      </trkpt>
      <trkpt lat="44.0964" lon="0.4781">
        <ele>84</ele>
        <time>2025-11-05T15:38:28.446Z</time>
      </trkpt>
      <trkpt lat="44.0964" lon="0.4781">
        <ele>84</ele>
        <time>2025-11-05T15:38:29.446Z</time>
      </trkpt>
      <trkpt lat="44.0964" lon="0.4781">
        <ele>84</ele>
        <time>2025-11-05T15:38:30.446Z</time>
      </trkpt>
      <trkpt lat="44.0964" lon="0.4781">
        <ele>84</ele>
        <time>2025-11-05T15:38:31.446Z</time>
      </trkpt>
      <trkpt lat="44.0964" lon="0.4781">
        <ele>84</ele>
        <time>2025-11-05T15:38:32.446Z</time>
      </trkpt>
      <trkpt lat="44.09639" lon="0.4781">
        <ele>84</ele>
        <time>2025-11-05T15:38:33.446Z</time>
      </trkpt>
      <trkpt lat="44.09639" lon="0.47809">
        <ele>83</ele>
        <time>2025-11-05T15:38:34.446Z</time>
      </trkpt>
      <trkpt lat="44.09638" lon="0.47807">
        <ele>83</ele>
        <time>2025-11-05T15:38:35.446Z</time>
      </trkpt>
      <trkpt lat="44.09638" lon="0.47806">
        <ele>83</ele>
        <time>2025-11-05T15:38:36.446Z</time>
      </trkpt>
      <trkpt lat="44.09638" lon="0.47805">
        <ele>83</ele>
        <time>2025-11-05T15:38:37.446Z</time>
      </trkpt>
      <trkpt lat="44.09638" lon="0.47803">
        <ele>83</ele>
        <time>2025-11-05T15:38:38.446Z</time>
      </trkpt>
      <trkpt lat="44.09638" lon="0.47802">
        <ele>83</ele>
        <time>2025-11-05T15:38:39.446Z</time>
      </trkpt>
      <trkpt lat="44.09638" lon="0.47801">
        <ele>83</ele>
        <time>2025-11-05T15:38:40.446Z</time>
      </trkpt>
      <trkpt lat="44.09638" lon="0.47799">
        <ele>83</ele>
        <time>2025-11-05T15:38:41.446Z</time>
      </trkpt>
      <trkpt lat="44.09637" lon="0.47798">
        <ele>83</ele>
        <time>2025-11-05T15:38:42.446Z</time>
      </trkpt>
      <trkpt lat="44.09637" lon="0.47796">
        <ele>83</ele>
        <time>2025-11-05T15:38:43.446Z</time>
      </trkpt>
      <trkpt lat="44.09636" lon="0.47795">
        <ele>83</ele>
        <time>2025-11-05T15:38:44.446Z</time>
      </trkpt>
      <trkpt lat="44.09636" lon="0.47793">
        <ele>83</ele>
        <time>2025-11-05T15:38:45.446Z</time>
      </trkpt>
      <trkpt lat="44.09636" lon="0.47791">
        <ele>83</ele>
        <time>2025-11-05T15:38:46.446Z</time>
      </trkpt>
      <trkpt lat="44.09635" lon="0.47789">
        <ele>83</ele>
        <time>2025-11-05T15:38:47.446Z</time>
      </trkpt>
      <trkpt lat="44.09635" lon="0.47787">
        <ele>83</ele>
        <time>2025-11-05T15:38:48.446Z</time>
      </trkpt>
      <trkpt lat="44.09635" lon="0.47786">
        <ele>83</ele>
        <time>2025-11-05T15:38:49.446Z</time>
      </trkpt>
      <trkpt lat="44.09635" lon="0.47785">
        <ele>83</ele>
        <time>2025-11-05T15:38:50.446Z</time>
      </trkpt>
      <trkpt lat="44.09635" lon="0.47784">
        <ele>83</ele>
        <time>2025-11-05T15:38:51.446Z</time>
      </trkpt>
      <trkpt lat="44.09634" lon="0.47783">
        <ele>83</ele>
        <time>2025-11-05T15:38:52.446Z</time>
      </trkpt>
      <trkpt lat="44.09634" lon="0.47782">
        <ele>83</ele>
        <time>2025-11-05T15:38:53.446Z</time>
      </trkpt>
      <trkpt lat="44.09634" lon="0.47781">
        <ele>83</ele>
        <time>2025-11-05T15:38:54.446Z</time>
      </trkpt>
      <trkpt lat="44.09633" lon="0.4778">
        <ele>83</ele>
        <time>2025-11-05T15:38:55.446Z</time>
      </trkpt>
      <trkpt lat="44.09633" lon="0.47779">
        <ele>83</ele>
        <time>2025-11-05T15:38:56.446Z</time>
      </trkpt>
      <trkpt lat="44.09632" lon="0.47778">
        <ele>83</ele>
        <time>2025-11-05T15:38:57.446Z</time>
      </trkpt>
      <trkpt lat="44.09631" lon="0.47777">
        <ele>83</ele>
        <time>2025-11-05T15:38:58.446Z</time>
      </trkpt>
      <trkpt lat="44.09631" lon="0.47777">
        <ele>83</ele>
        <time>2025-11-05T15:38:59.446Z</time>
      </trkpt>
      <trkpt lat="44.0963" lon="0.47777">
        <ele>83</ele>
        <time>2025-11-05T15:39:00.446Z</time>
      </trkpt>
      <trkpt lat="44.09629" lon="0.47777">
        <ele>83</ele>
        <time>2025-11-05T15:39:01.446Z</time>
      </trkpt>
      <trkpt lat="44.09628" lon="0.47777">
        <ele>83</ele>
        <time>2025-11-05T15:39:02.446Z</time>
      </trkpt>
      <trkpt lat="44.09627" lon="0.47777">
        <ele>83</ele>
        <time>2025-11-05T15:39:03.446Z</time>
      </trkpt>
      <trkpt lat="44.09625" lon="0.47777">
        <ele>83</ele>
        <time>2025-11-05T15:39:04.446Z</time>
      </trkpt>
      <trkpt lat="44.09624" lon="0.47776">
        <ele>84</ele>
        <time>2025-11-05T15:39:05.446Z</time>
      </trkpt>
      <trkpt lat="44.09623" lon="0.47776">
        <ele>84</ele>
        <time>2025-11-05T15:39:06.446Z</time>
      </trkpt>
      <trkpt lat="44.09622" lon="0.47776">
        <ele>84</ele>
        <time>2025-11-05T15:39:07.446Z</time>
      </trkpt>
      <trkpt lat="44.09621" lon="0.47775">
        <ele>84</ele>
        <time>2025-11-05T15:39:08.446Z</time>
      </trkpt>
      <trkpt lat="44.0962" lon="0.47775">
        <ele>84</ele>
        <time>2025-11-05T15:39:09.446Z</time>
      </trkpt>
      <trkpt lat="44.09618" lon="0.47775">
        <ele>84</ele>
        <time>2025-11-05T15:39:10.446Z</time>
      </trkpt>
      <trkpt lat="44.09618" lon="0.47774">
        <ele>84</ele>
        <time>2025-11-05T15:39:11.446Z</time>
      </trkpt>
      <trkpt lat="44.09616" lon="0.47774">
        <ele>84</ele>
        <time>2025-11-05T15:39:12.446Z</time>
      </trkpt>
      <trkpt lat="44.09615" lon="0.47774">
        <ele>85</ele>
        <time>2025-11-05T15:39:13.446Z</time>
      </trkpt>
      <trkpt lat="44.09614" lon="0.47774">
        <ele>85</ele>
        <time>2025-11-05T15:39:14.446Z</time>
      </trkpt>
      <trkpt lat="44.09613" lon="0.47774">
        <ele>85</ele>
        <time>2025-11-05T15:39:15.446Z</time>
      </trkpt>
      <trkpt lat="44.09612" lon="0.47774">
        <ele>86</ele>
        <time>2025-11-05T15:39:16.446Z</time>
      </trkpt>
      <trkpt lat="44.09611" lon="0.47774">
        <ele>86</ele>
        <time>2025-11-05T15:39:17.446Z</time>
      </trkpt>
      <trkpt lat="44.0961" lon="0.47773">
        <ele>86</ele>
        <time>2025-11-05T15:39:18.446Z</time>
      </trkpt>
      <trkpt lat="44.09609" lon="0.47773">
        <ele>86</ele>
        <time>2025-11-05T15:39:19.446Z</time>
      </trkpt>
      <trkpt lat="44.09607" lon="0.47772">
        <ele>86</ele>
        <time>2025-11-05T15:39:20.446Z</time>
      </trkpt>
      <trkpt lat="44.09606" lon="0.47772">
        <ele>87</ele>
        <time>2025-11-05T15:39:21.446Z</time>
      </trkpt>
      <trkpt lat="44.09605" lon="0.47772">
        <ele>87</ele>
        <time>2025-11-05T15:39:22.446Z</time>
      </trkpt>
      <trkpt lat="44.09603" lon="0.47771">
        <ele>87</ele>
        <time>2025-11-05T15:39:23.446Z</time>
      </trkpt>
      <trkpt lat="44.09601" lon="0.47771">
        <ele>87</ele>
        <time>2025-11-05T15:39:24.446Z</time>
      </trkpt>
      <trkpt lat="44.09599" lon="0.47771">
        <ele>88</ele>
        <time>2025-11-05T15:39:25.446Z</time>
      </trkpt>
      <trkpt lat="44.09597" lon="0.4777">
        <ele>88</ele>
        <time>2025-11-05T15:39:26.446Z</time>
      </trkpt>
      <trkpt lat="44.09596" lon="0.4777">
        <ele>88</ele>
        <time>2025-11-05T15:39:27.446Z</time>
      </trkpt>
      <trkpt lat="44.09594" lon="0.47769">
        <ele>88</ele>
        <time>2025-11-05T15:39:28.446Z</time>
      </trkpt>
      <trkpt lat="44.09592" lon="0.47769">
        <ele>89</ele>
        <time>2025-11-05T15:39:29.446Z</time>
      </trkpt>
      <trkpt lat="44.0959" lon="0.47769">
        <ele>89</ele>
        <time>2025-11-05T15:39:30.446Z</time>
      </trkpt>
      <trkpt lat="44.09589" lon="0.47769">
        <ele>89</ele>
        <time>2025-11-05T15:39:31.446Z</time>
      </trkpt>
      <trkpt lat="44.09588" lon="0.47768">
        <ele>90</ele>
        <time>2025-11-05T15:39:32.446Z</time>
      </trkpt>
      <trkpt lat="44.09587" lon="0.47768">
        <ele>90</ele>
        <time>2025-11-05T15:39:33.446Z</time>
      </trkpt>
      <trkpt lat="44.09586" lon="0.47767">
        <ele>89</ele>
        <time>2025-11-05T15:39:34.446Z</time>
      </trkpt>
      <trkpt lat="44.09586" lon="0.47767">
        <ele>89</ele>
        <time>2025-11-05T15:39:35.446Z</time>
      </trkpt>
      <trkpt lat="44.09585" lon="0.47766">
        <ele>89</ele>
        <time>2025-11-05T15:39:36.446Z</time>
      </trkpt>
      <trkpt lat="44.09584" lon="0.47765">
        <ele>89</ele>
        <time>2025-11-05T15:39:37.446Z</time>
      </trkpt>
      <trkpt lat="44.09583" lon="0.47764">
        <ele>89</ele>
        <time>2025-11-05T15:39:38.446Z</time>
      </trkpt>
      <trkpt lat="44.09583" lon="0.47763">
        <ele>89</ele>
        <time>2025-11-05T15:39:39.446Z</time>
      </trkpt>
      <trkpt lat="44.09581" lon="0.47762">
        <ele>89</ele>
        <time>2025-11-05T15:39:40.446Z</time>
      </trkpt>
      <trkpt lat="44.0958" lon="0.4776">
        <ele>89</ele>
        <time>2025-11-05T15:39:41.446Z</time>
      </trkpt>
      <trkpt lat="44.09579" lon="0.47759">
        <ele>89</ele>
        <time>2025-11-05T15:39:42.446Z</time>
      </trkpt>
      <trkpt lat="44.09579" lon="0.47757">
        <ele>88</ele>
        <time>2025-11-05T15:39:43.446Z</time>
      </trkpt>
      <trkpt lat="44.09578" lon="0.47755">
        <ele>87</ele>
        <time>2025-11-05T15:39:44.446Z</time>
      </trkpt>
      <trkpt lat="44.09578" lon="0.47754">
        <ele>85</ele>
        <time>2025-11-05T15:39:45.446Z</time>
      </trkpt>
      <trkpt lat="44.09578" lon="0.47753">
        <ele>84</ele>
        <time>2025-11-05T15:39:46.446Z</time>
      </trkpt>
      <trkpt lat="44.09579" lon="0.47751">
        <ele>83</ele>
        <time>2025-11-05T15:39:47.446Z</time>
      </trkpt>
      <trkpt lat="44.09579" lon="0.4775">
        <ele>82</ele>
        <time>2025-11-05T15:39:48.446Z</time>
      </trkpt>
      <trkpt lat="44.09578" lon="0.4775">
        <ele>81</ele>
        <time>2025-11-05T15:39:49.446Z</time>
      </trkpt>
      <trkpt lat="44.09578" lon="0.47749">
        <ele>80</ele>
        <time>2025-11-05T15:39:50.446Z</time>
      </trkpt>
      <trkpt lat="44.09578" lon="0.47749">
        <ele>80</ele>
        <time>2025-11-05T15:39:51.446Z</time>
      </trkpt>
      <trkpt lat="44.09578" lon="0.47749">
        <ele>79</ele>
        <time>2025-11-05T15:39:52.446Z</time>
      </trkpt>
      <trkpt lat="44.09578" lon="0.47749">
        <ele>79</ele>
        <time>2025-11-05T15:39:53.446Z</time>
      </trkpt>
      <trkpt lat="44.09578" lon="0.47749">
        <ele>78</ele>
        <time>2025-11-05T15:39:54.446Z</time>
      </trkpt>
      <trkpt lat="44.09577" lon="0.47749">
        <ele>77</ele>
        <time>2025-11-05T15:39:55.446Z</time>
      </trkpt>
      <trkpt lat="44.09577" lon="0.47749">
        <ele>77</ele>
        <time>2025-11-05T15:39:56.446Z</time>
      </trkpt>
      <trkpt lat="44.09577" lon="0.47749">
        <ele>77</ele>
        <time>2025-11-05T15:39:57.446Z</time>
      </trkpt>
      <trkpt lat="44.09577" lon="0.47749">
        <ele>76</ele>
        <time>2025-11-05T15:39:58.446Z</time>
      </trkpt>
      <trkpt lat="44.09578" lon="0.47749">
        <ele>76</ele>
        <time>2025-11-05T15:39:59.446Z</time>
      </trkpt>
      <trkpt lat="44.09578" lon="0.47749">
        <ele>76</ele>
        <time>2025-11-05T15:40:00.446Z</time>
      </trkpt>
      <trkpt lat="44.09578" lon="0.47749">
        <ele>75</ele>
        <time>2025-11-05T15:40:01.446Z</time>
      </trkpt>
      <trkpt lat="44.09578" lon="0.47748">
        <ele>75</ele>
        <time>2025-11-05T15:40:02.446Z</time>
      </trkpt>
      <trkpt lat="44.09578" lon="0.47748">
        <ele>74</ele>
        <time>2025-11-05T15:40:03.446Z</time>
      </trkpt>
      <trkpt lat="44.09578" lon="0.47748">
        <ele>74</ele>
        <time>2025-11-05T15:40:04.446Z</time>
      </trkpt>
      <trkpt lat="44.09578" lon="0.47748">
        <ele>73</ele>
        <time>2025-11-05T15:40:05.446Z</time>
      </trkpt>
      <trkpt lat="44.09577" lon="0.47748">
        <ele>73</ele>
        <time>2025-11-05T15:40:06.446Z</time>
      </trkpt>
      <trkpt lat="44.09577" lon="0.47747">
        <ele>73</ele>
        <time>2025-11-05T15:40:07.446Z</time>
      </trkpt>
      <trkpt lat="44.09577" lon="0.47745">
        <ele>73</ele>
        <time>2025-11-05T15:40:08.446Z</time>
      </trkpt>
      <trkpt lat="44.09576" lon="0.47744">
        <ele>73</ele>
        <time>2025-11-05T15:40:09.446Z</time>
      </trkpt>
      <trkpt lat="44.09576" lon="0.47742">
        <ele>73</ele>
        <time>2025-11-05T15:40:10.446Z</time>
      </trkpt>
      <trkpt lat="44.09576" lon="0.4774">
        <ele>73</ele>
        <time>2025-11-05T15:40:11.446Z</time>
      </trkpt>
      <trkpt lat="44.09575" lon="0.47738">
        <ele>73</ele>
        <time>2025-11-05T15:40:12.446Z</time>
      </trkpt>
      <trkpt lat="44.09575" lon="0.47737">
        <ele>73</ele>
        <time>2025-11-05T15:40:13.446Z</time>
      </trkpt>
      <trkpt lat="44.09575" lon="0.47735">
        <ele>74</ele>
        <time>2025-11-05T15:40:14.446Z</time>
      </trkpt>
      <trkpt lat="44.09575" lon="0.47734">
        <ele>74</ele>
        <time>2025-11-05T15:40:15.446Z</time>
      </trkpt>
      <trkpt lat="44.09575" lon="0.47732">
        <ele>75</ele>
        <time>2025-11-05T15:40:16.446Z</time>
      </trkpt>
      <trkpt lat="44.09574" lon="0.47731">
        <ele>76</ele>
        <time>2025-11-05T15:40:17.446Z</time>
      </trkpt>
      <trkpt lat="44.09573" lon="0.47729">
        <ele>76</ele>
        <time>2025-11-05T15:40:18.446Z</time>
      </trkpt>
      <trkpt lat="44.09573" lon="0.47727">
        <ele>76</ele>
        <time>2025-11-05T15:40:19.446Z</time>
      </trkpt>
      <trkpt lat="44.09572" lon="0.47725">
        <ele>77</ele>
        <time>2025-11-05T15:40:20.446Z</time>
      </trkpt>
      <trkpt lat="44.09572" lon="0.47724">
        <ele>77</ele>
        <time>2025-11-05T15:40:21.446Z</time>
      </trkpt>
      <trkpt lat="44.09571" lon="0.47722">
        <ele>77</ele>
        <time>2025-11-05T15:40:22.446Z</time>
      </trkpt>
      <trkpt lat="44.09571" lon="0.47721">
        <ele>78</ele>
        <time>2025-11-05T15:40:23.446Z</time>
      </trkpt>
      <trkpt lat="44.0957" lon="0.47719">
        <ele>78</ele>
        <time>2025-11-05T15:40:24.446Z</time>
      </trkpt>
      <trkpt lat="44.0957" lon="0.47718">
        <ele>78</ele>
        <time>2025-11-05T15:40:25.446Z</time>
      </trkpt>
      <trkpt lat="44.09569" lon="0.47716">
        <ele>78</ele>
        <time>2025-11-05T15:40:26.446Z</time>
      </trkpt>
      <trkpt lat="44.09569" lon="0.47714">
        <ele>78</ele>
        <time>2025-11-05T15:40:27.446Z</time>
      </trkpt>
      <trkpt lat="44.09569" lon="0.47712">
        <ele>78</ele>
        <time>2025-11-05T15:40:28.446Z</time>
      </trkpt>
      <trkpt lat="44.09568" lon="0.4771">
        <ele>78</ele>
        <time>2025-11-05T15:40:29.446Z</time>
      </trkpt>
      <trkpt lat="44.09567" lon="0.47708">
        <ele>78</ele>
        <time>2025-11-05T15:40:30.446Z</time>
      </trkpt>
      <trkpt lat="44.09567" lon="0.47707">
        <ele>78</ele>
        <time>2025-11-05T15:40:31.446Z</time>
      </trkpt>
      <trkpt lat="44.09566" lon="0.47704">
        <ele>78</ele>
        <time>2025-11-05T15:40:32.446Z</time>
      </trkpt>
      <trkpt lat="44.09565" lon="0.47703">
        <ele>78</ele>
        <time>2025-11-05T15:40:33.446Z</time>
      </trkpt>
      <trkpt lat="44.09565" lon="0.47701">
        <ele>77</ele>
        <time>2025-11-05T15:40:34.446Z</time>
      </trkpt>
      <trkpt lat="44.09564" lon="0.477">
        <ele>77</ele>
        <time>2025-11-05T15:40:35.446Z</time>
      </trkpt>
      <trkpt lat="44.09564" lon="0.47699">
        <ele>77</ele>
        <time>2025-11-05T15:40:36.446Z</time>
      </trkpt>
      <trkpt lat="44.09564" lon="0.47698">
        <ele>78</ele>
        <time>2025-11-05T15:40:37.446Z</time>
      </trkpt>
      <trkpt lat="44.09564" lon="0.47697">
        <ele>78</ele>
        <time>2025-11-05T15:40:38.446Z</time>
      </trkpt>
      <trkpt lat="44.09564" lon="0.47695">
        <ele>78</ele>
        <time>2025-11-05T15:40:39.446Z</time>
      </trkpt>
      <trkpt lat="44.09563" lon="0.47694">
        <ele>78</ele>
        <time>2025-11-05T15:40:40.446Z</time>
      </trkpt>
      <trkpt lat="44.09563" lon="0.47692">
        <ele>78</ele>
        <time>2025-11-05T15:40:41.446Z</time>
      </trkpt>
      <trkpt lat="44.09562" lon="0.4769">
        <ele>78</ele>
        <time>2025-11-05T15:40:42.446Z</time>
      </trkpt>
      <trkpt lat="44.09562" lon="0.47688">
        <ele>78</ele>
        <time>2025-11-05T15:40:43.446Z</time>
      </trkpt>
      <trkpt lat="44.09561" lon="0.47686">
        <ele>77</ele>
        <time>2025-11-05T15:40:44.446Z</time>
      </trkpt>
      <trkpt lat="44.09561" lon="0.47685">
        <ele>77</ele>
        <time>2025-11-05T15:40:45.446Z</time>
      </trkpt>
      <trkpt lat="44.0956" lon="0.47683">
        <ele>77</ele>
        <time>2025-11-05T15:40:46.446Z</time>
      </trkpt>
      <trkpt lat="44.0956" lon="0.47682">
        <ele>77</ele>
        <time>2025-11-05T15:40:47.446Z</time>
      </trkpt>
      <trkpt lat="44.09559" lon="0.47681">
        <ele>77</ele>
        <time>2025-11-05T15:40:48.446Z</time>
      </trkpt>
      <trkpt lat="44.09559" lon="0.47679">
        <ele>77</ele>
        <time>2025-11-05T15:40:49.446Z</time>
      </trkpt>
      <trkpt lat="44.09558" lon="0.47677">
        <ele>77</ele>
        <time>2025-11-05T15:40:50.446Z</time>
      </trkpt>
      <trkpt lat="44.09558" lon="0.47676">
        <ele>77</ele>
        <time>2025-11-05T15:40:51.446Z</time>
      </trkpt>
      <trkpt lat="44.09558" lon="0.47674">
        <ele>77</ele>
        <time>2025-11-05T15:40:52.446Z</time>
      </trkpt>
      <trkpt lat="44.09558" lon="0.47671">
        <ele>77</ele>
        <time>2025-11-05T15:40:53.446Z</time>
      </trkpt>
      <trkpt lat="44.09557" lon="0.47669">
        <ele>77</ele>
        <time>2025-11-05T15:40:54.446Z</time>
      </trkpt>
      <trkpt lat="44.09557" lon="0.47667">
        <ele>77</ele>
        <time>2025-11-05T15:40:55.446Z</time>
      </trkpt>
      <trkpt lat="44.09556" lon="0.47666">
        <ele>77</ele>
        <time>2025-11-05T15:40:56.446Z</time>
      </trkpt>
      <trkpt lat="44.09555" lon="0.47664">
        <ele>77</ele>
        <time>2025-11-05T15:40:57.446Z</time>
      </trkpt>
      <trkpt lat="44.09555" lon="0.47662">
        <ele>77</ele>
        <time>2025-11-05T15:40:58.446Z</time>
      </trkpt>
      <trkpt lat="44.09554" lon="0.4766">
        <ele>77</ele>
        <time>2025-11-05T15:40:59.446Z</time>
      </trkpt>
      <trkpt lat="44.09552" lon="0.47658">
        <ele>77</ele>
        <time>2025-11-05T15:41:00.446Z</time>
      </trkpt>
      <trkpt lat="44.09552" lon="0.47656">
        <ele>78</ele>
        <time>2025-11-05T15:41:01.446Z</time>
      </trkpt>
      <trkpt lat="44.09551" lon="0.47655">
        <ele>78</ele>
        <time>2025-11-05T15:41:02.446Z</time>
      </trkpt>
      <trkpt lat="44.09551" lon="0.47653">
        <ele>78</ele>
        <time>2025-11-05T15:41:03.446Z</time>
      </trkpt>
      <trkpt lat="44.0955" lon="0.47652">
        <ele>78</ele>
        <time>2025-11-05T15:41:04.446Z</time>
      </trkpt>
      <trkpt lat="44.0955" lon="0.4765">
        <ele>77</ele>
        <time>2025-11-05T15:41:05.446Z</time>
      </trkpt>
      <trkpt lat="44.09549" lon="0.47648">
        <ele>77</ele>
        <time>2025-11-05T15:41:06.446Z</time>
      </trkpt>
      <trkpt lat="44.09549" lon="0.47646">
        <ele>77</ele>
        <time>2025-11-05T15:41:07.446Z</time>
      </trkpt>
      <trkpt lat="44.09549" lon="0.47645">
        <ele>77</ele>
        <time>2025-11-05T15:41:08.446Z</time>
      </trkpt>
      <trkpt lat="44.09548" lon="0.47643">
        <ele>77</ele>
        <time>2025-11-05T15:41:09.446Z</time>
      </trkpt>
      <trkpt lat="44.09548" lon="0.47642">
        <ele>77</ele>
        <time>2025-11-05T15:41:10.446Z</time>
      </trkpt>
      <trkpt lat="44.09547" lon="0.4764">
        <ele>77</ele>
        <time>2025-11-05T15:41:11.446Z</time>
      </trkpt>
      <trkpt lat="44.09546" lon="0.47639">
        <ele>77</ele>
        <time>2025-11-05T15:41:12.446Z</time>
      </trkpt>
      <trkpt lat="44.09546" lon="0.47637">
        <ele>77</ele>
        <time>2025-11-05T15:41:13.446Z</time>
      </trkpt>
      <trkpt lat="44.09545" lon="0.47635">
        <ele>77</ele>
        <time>2025-11-05T15:41:14.446Z</time>
      </trkpt>
      <trkpt lat="44.09545" lon="0.47633">
        <ele>78</ele>
        <time>2025-11-05T15:41:15.446Z</time>
      </trkpt>
      <trkpt lat="44.09544" lon="0.47631">
        <ele>78</ele>
        <time>2025-11-05T15:41:16.446Z</time>
      </trkpt>
      <trkpt lat="44.09544" lon="0.47629">
        <ele>78</ele>
        <time>2025-11-05T15:41:17.446Z</time>
      </trkpt>
      <trkpt lat="44.09544" lon="0.47627">
        <ele>78</ele>
        <time>2025-11-05T15:41:18.446Z</time>
      </trkpt>
      <trkpt lat="44.09543" lon="0.47625">
        <ele>78</ele>
        <time>2025-11-05T15:41:19.446Z</time>
      </trkpt>
      <trkpt lat="44.09542" lon="0.47623">
        <ele>79</ele>
        <time>2025-11-05T15:41:20.446Z</time>
      </trkpt>
      <trkpt lat="44.09542" lon="0.47622">
        <ele>80</ele>
        <time>2025-11-05T15:41:21.446Z</time>
      </trkpt>
      <trkpt lat="44.09541" lon="0.4762">
        <ele>80</ele>
        <time>2025-11-05T15:41:22.446Z</time>
      </trkpt>
      <trkpt lat="44.09541" lon="0.47618">
        <ele>80</ele>
        <time>2025-11-05T15:41:23.446Z</time>
      </trkpt>
      <trkpt lat="44.09541" lon="0.47616">
        <ele>80</ele>
        <time>2025-11-05T15:41:24.446Z</time>
      </trkpt>
      <trkpt lat="44.0954" lon="0.47614">
        <ele>80</ele>
        <time>2025-11-05T15:41:25.446Z</time>
      </trkpt>
      <trkpt lat="44.0954" lon="0.47611">
        <ele>80</ele>
        <time>2025-11-05T15:41:26.446Z</time>
      </trkpt>
      <trkpt lat="44.09539" lon="0.4761">
        <ele>80</ele>
        <time>2025-11-05T15:41:27.446Z</time>
      </trkpt>
      <trkpt lat="44.09539" lon="0.47608">
        <ele>80</ele>
        <time>2025-11-05T15:41:28.446Z</time>
      </trkpt>
      <trkpt lat="44.09538" lon="0.47606">
        <ele>80</ele>
        <time>2025-11-05T15:41:29.447Z</time>
      </trkpt>
      <trkpt lat="44.09537" lon="0.47604">
        <ele>80</ele>
        <time>2025-11-05T15:41:30.446Z</time>
      </trkpt>
      <trkpt lat="44.09536" lon="0.47602">
        <ele>80</ele>
        <time>2025-11-05T15:41:31.446Z</time>
      </trkpt>
      <trkpt lat="44.09535" lon="0.47601">
        <ele>80</ele>
        <time>2025-11-05T15:41:32.446Z</time>
      </trkpt>
      <trkpt lat="44.09535" lon="0.47599">
        <ele>80</ele>
        <time>2025-11-05T15:41:33.446Z</time>
      </trkpt>
      <trkpt lat="44.09534" lon="0.47597">
        <ele>80</ele>
        <time>2025-11-05T15:41:34.446Z</time>
      </trkpt>
      <trkpt lat="44.09534" lon="0.47595">
        <ele>80</ele>
        <time>2025-11-05T15:41:35.446Z</time>
      </trkpt>
      <trkpt lat="44.09534" lon="0.47594">
        <ele>80</ele>
        <time>2025-11-05T15:41:36.446Z</time>
      </trkpt>
      <trkpt lat="44.09534" lon="0.47592">
        <ele>80</ele>
        <time>2025-11-05T15:41:37.446Z</time>
      </trkpt>
      <trkpt lat="44.09533" lon="0.47591">
        <ele>81</ele>
        <time>2025-11-05T15:41:38.446Z</time>
      </trkpt>
      <trkpt lat="44.09532" lon="0.4759">
        <ele>81</ele>
        <time>2025-11-05T15:41:39.446Z</time>
      </trkpt>
      <trkpt lat="44.09532" lon="0.47588">
        <ele>81</ele>
        <time>2025-11-05T15:41:40.446Z</time>
      </trkpt>
      <trkpt lat="44.09532" lon="0.47586">
        <ele>82</ele>
        <time>2025-11-05T15:41:41.446Z</time>
      </trkpt>
      <trkpt lat="44.09531" lon="0.47585">
        <ele>82</ele>
        <time>2025-11-05T15:41:42.446Z</time>
      </trkpt>
      <trkpt lat="44.09531" lon="0.47583">
        <ele>82</ele>
        <time>2025-11-05T15:41:43.446Z</time>
      </trkpt>
      <trkpt lat="44.0953" lon="0.47582">
        <ele>83</ele>
        <time>2025-11-05T15:41:44.446Z</time>
      </trkpt>
      <trkpt lat="44.0953" lon="0.47581">
        <ele>83</ele>
        <time>2025-11-05T15:41:45.446Z</time>
      </trkpt>
      <trkpt lat="44.0953" lon="0.47579">
        <ele>83</ele>
        <time>2025-11-05T15:41:46.446Z</time>
      </trkpt>
      <trkpt lat="44.09529" lon="0.47577">
        <ele>83</ele>
        <time>2025-11-05T15:41:47.446Z</time>
      </trkpt>
      <trkpt lat="44.09529" lon="0.47575">
        <ele>83</ele>
        <time>2025-11-05T15:41:48.446Z</time>
      </trkpt>
      <trkpt lat="44.09528" lon="0.47574">
        <ele>84</ele>
        <time>2025-11-05T15:41:49.446Z</time>
      </trkpt>
      <trkpt lat="44.09528" lon="0.47572">
        <ele>84</ele>
        <time>2025-11-05T15:41:50.446Z</time>
      </trkpt>
      <trkpt lat="44.09527" lon="0.47571">
        <ele>84</ele>
        <time>2025-11-05T15:41:51.446Z</time>
      </trkpt>
      <trkpt lat="44.09527" lon="0.4757">
        <ele>84</ele>
        <time>2025-11-05T15:41:52.446Z</time>
      </trkpt>
      <trkpt lat="44.09526" lon="0.47569">
        <ele>84</ele>
        <time>2025-11-05T15:41:53.446Z</time>
      </trkpt>
      <trkpt lat="44.09525" lon="0.47568">
        <ele>84</ele>
        <time>2025-11-05T15:41:54.446Z</time>
      </trkpt>
      <trkpt lat="44.09525" lon="0.47567">
        <ele>84</ele>
        <time>2025-11-05T15:41:55.446Z</time>
      </trkpt>
      <trkpt lat="44.09525" lon="0.47566">
        <ele>85</ele>
        <time>2025-11-05T15:41:56.446Z</time>
      </trkpt>
      <trkpt lat="44.09525" lon="0.47565">
        <ele>85</ele>
        <time>2025-11-05T15:41:57.446Z</time>
      </trkpt>
      <trkpt lat="44.09524" lon="0.47563">
        <ele>84</ele>
        <time>2025-11-05T15:41:58.446Z</time>
      </trkpt>
      <trkpt lat="44.09524" lon="0.47562">
        <ele>84</ele>
        <time>2025-11-05T15:41:59.446Z</time>
      </trkpt>
      <trkpt lat="44.09524" lon="0.47559">
        <ele>85</ele>
        <time>2025-11-05T15:42:00.446Z</time>
      </trkpt>
      <trkpt lat="44.09523" lon="0.47557">
        <ele>85</ele>
        <time>2025-11-05T15:42:01.446Z</time>
      </trkpt>
      <trkpt lat="44.09523" lon="0.47555">
        <ele>85</ele>
        <time>2025-11-05T15:42:02.446Z</time>
      </trkpt>
      <trkpt lat="44.09523" lon="0.47554">
        <ele>85</ele>
        <time>2025-11-05T15:42:03.446Z</time>
      </trkpt>
      <trkpt lat="44.09522" lon="0.47552">
        <ele>85</ele>
        <time>2025-11-05T15:42:04.446Z</time>
      </trkpt>
      <trkpt lat="44.09522" lon="0.47551">
        <ele>85</ele>
        <time>2025-11-05T15:42:05.446Z</time>
      </trkpt>
      <trkpt lat="44.09521" lon="0.47549">
        <ele>85</ele>
        <time>2025-11-05T15:42:06.446Z</time>
      </trkpt>
      <trkpt lat="44.09521" lon="0.47548">
        <ele>85</ele>
        <time>2025-11-05T15:42:07.446Z</time>
      </trkpt>
      <trkpt lat="44.0952" lon="0.47547">
        <ele>85</ele>
        <time>2025-11-05T15:42:08.446Z</time>
      </trkpt>
      <trkpt lat="44.0952" lon="0.47545">
        <ele>85</ele>
        <time>2025-11-05T15:42:09.446Z</time>
      </trkpt>
      <trkpt lat="44.0952" lon="0.47544">
        <ele>85</ele>
        <time>2025-11-05T15:42:10.446Z</time>
      </trkpt>
      <trkpt lat="44.09519" lon="0.47543">
        <ele>85</ele>
        <time>2025-11-05T15:42:11.446Z</time>
      </trkpt>
      <trkpt lat="44.09518" lon="0.47543">
        <ele>85</ele>
        <time>2025-11-05T15:42:12.446Z</time>
      </trkpt>
      <trkpt lat="44.09517" lon="0.47544">
        <ele>85</ele>
        <time>2025-11-05T15:42:13.446Z</time>
      </trkpt>
      <trkpt lat="44.09516" lon="0.47545">
        <ele>85</ele>
        <time>2025-11-05T15:42:14.446Z</time>
      </trkpt>
      <trkpt lat="44.09515" lon="0.47546">
        <ele>84</ele>
        <time>2025-11-05T15:42:15.446Z</time>
      </trkpt>
      <trkpt lat="44.09513" lon="0.47545">
        <ele>84</ele>
        <time>2025-11-05T15:42:16.446Z</time>
      </trkpt>
      <trkpt lat="44.09513" lon="0.47545">
        <ele>84</ele>
        <time>2025-11-05T15:42:17.446Z</time>
      </trkpt>
      <trkpt lat="44.09511" lon="0.47546">
        <ele>85</ele>
        <time>2025-11-05T15:42:18.446Z</time>
      </trkpt>
      <trkpt lat="44.0951" lon="0.47545">
        <ele>85</ele>
        <time>2025-11-05T15:42:19.446Z</time>
      </trkpt>
      <trkpt lat="44.09509" lon="0.47545">
        <ele>86</ele>
        <time>2025-11-05T15:42:20.446Z</time>
      </trkpt>
      <trkpt lat="44.09508" lon="0.47544">
        <ele>86</ele>
        <time>2025-11-05T15:42:21.446Z</time>
      </trkpt>
      <trkpt lat="44.09507" lon="0.47543">
        <ele>87</ele>
        <time>2025-11-05T15:42:22.446Z</time>
      </trkpt>
      <trkpt lat="44.09505" lon="0.47542">
        <ele>88</ele>
        <time>2025-11-05T15:42:23.446Z</time>
      </trkpt>
      <trkpt lat="44.09504" lon="0.47541">
        <ele>88</ele>
        <time>2025-11-05T15:42:24.446Z</time>
      </trkpt>
      <trkpt lat="44.09503" lon="0.4754">
        <ele>89</ele>
        <time>2025-11-05T15:42:25.446Z</time>
      </trkpt>
      <trkpt lat="44.09503" lon="0.47539">
        <ele>89</ele>
        <time>2025-11-05T15:42:26.446Z</time>
      </trkpt>
      <trkpt lat="44.09502" lon="0.4754">
        <ele>90</ele>
        <time>2025-11-05T15:42:27.446Z</time>
      </trkpt>
      <trkpt lat="44.09502" lon="0.4754">
        <ele>90</ele>
        <time>2025-11-05T15:42:28.446Z</time>
      </trkpt>
      <trkpt lat="44.09501" lon="0.4754">
        <ele>89</ele>
        <time>2025-11-05T15:42:29.446Z</time>
      </trkpt>
      <trkpt lat="44.095" lon="0.4754">
        <ele>89</ele>
        <time>2025-11-05T15:42:30.446Z</time>
      </trkpt>
      <trkpt lat="44.095" lon="0.4754">
        <ele>89</ele>
        <time>2025-11-05T15:42:31.446Z</time>
      </trkpt>
      <trkpt lat="44.095" lon="0.4754">
        <ele>88</ele>
        <time>2025-11-05T15:42:32.446Z</time>
      </trkpt>
    </trkseg>
  </trk>
</gpx>